<?xml version="1.0" encoding="UTF-8" standalone="no" ?>
<gpx xmlns="http://www.topografix.com/GPX/1/1" xmlns:xsi="http://www.w3.org/2001/XMLSchema-instance" xsi:schemaLocation="http://www.topografix.com/GPX/1/1 http://www.topografix.com/GPX/1/1/gpx.xsd" version="1.1" creator="VisuGPX - https://www.visugpx.com">
  <metadata>
    <name>En mode garde du corps de Del’ pour reco de son valtriman … ☀️🌧️</name>
  </metadata>
  <trk>
    <name><![CDATA[En mode garde du corps de Del’ pour reco de son valtriman … ☀️🌧️_1]]></name>
    <trkseg>
      <trkpt lat="50.01905" lon="4.3149">
        <ele>293</ele>
        <time>2024-05-04T07:16:11Z</time>
      </trkpt>
      <trkpt lat="50.01901" lon="4.31488">
        <ele>294.4</ele>
        <time>2024-05-04T07:16:12Z</time>
      </trkpt>
      <trkpt lat="50.01894" lon="4.31484">
        <ele>293.8</ele>
        <time>2024-05-04T07:16:14Z</time>
      </trkpt>
      <trkpt lat="50.0189" lon="4.31483">
        <ele>293.6</ele>
        <time>2024-05-04T07:16:15Z</time>
      </trkpt>
      <trkpt lat="50.01886" lon="4.31481">
        <ele>293.8</ele>
        <time>2024-05-04T07:16:16Z</time>
      </trkpt>
      <trkpt lat="50.01882" lon="4.3148">
        <ele>294.2</ele>
        <time>2024-05-04T07:16:17Z</time>
      </trkpt>
      <trkpt lat="50.01878" lon="4.31478">
        <ele>294.4</ele>
        <time>2024-05-04T07:16:18Z</time>
      </trkpt>
      <trkpt lat="50.01874" lon="4.31476">
        <ele>294.6</ele>
        <time>2024-05-04T07:16:19Z</time>
      </trkpt>
      <trkpt lat="50.0187" lon="4.31474">
        <ele>295</ele>
        <time>2024-05-04T07:16:20Z</time>
      </trkpt>
      <trkpt lat="50.01866" lon="4.31473">
        <ele>295</ele>
        <time>2024-05-04T07:16:21Z</time>
      </trkpt>
      <trkpt lat="50.01862" lon="4.3147">
        <ele>294.6</ele>
        <time>2024-05-04T07:16:22Z</time>
      </trkpt>
      <trkpt lat="50.01858" lon="4.31469">
        <ele>294.6</ele>
        <time>2024-05-04T07:16:23Z</time>
      </trkpt>
      <trkpt lat="50.01854" lon="4.31467">
        <ele>294.2</ele>
        <time>2024-05-04T07:16:24Z</time>
      </trkpt>
      <trkpt lat="50.0185" lon="4.31465">
        <ele>294.2</ele>
        <time>2024-05-04T07:16:25Z</time>
      </trkpt>
      <trkpt lat="50.01846" lon="4.31463">
        <ele>294.4</ele>
        <time>2024-05-04T07:16:26Z</time>
      </trkpt>
      <trkpt lat="50.01842" lon="4.31462">
        <ele>295</ele>
        <time>2024-05-04T07:16:27Z</time>
      </trkpt>
      <trkpt lat="50.01838" lon="4.3146">
        <ele>295.2</ele>
        <time>2024-05-04T07:16:28Z</time>
      </trkpt>
      <trkpt lat="50.01835" lon="4.31458">
        <ele>295</ele>
        <time>2024-05-04T07:16:29Z</time>
      </trkpt>
      <trkpt lat="50.01831" lon="4.31457">
        <ele>295</ele>
        <time>2024-05-04T07:16:30Z</time>
      </trkpt>
      <trkpt lat="50.01827" lon="4.31455">
        <ele>295</ele>
        <time>2024-05-04T07:16:31Z</time>
      </trkpt>
      <trkpt lat="50.01823" lon="4.31453">
        <ele>294.8</ele>
        <time>2024-05-04T07:16:32Z</time>
      </trkpt>
      <trkpt lat="50.0182" lon="4.31451">
        <ele>295</ele>
        <time>2024-05-04T07:16:33Z</time>
      </trkpt>
      <trkpt lat="50.01816" lon="4.3145">
        <ele>294.8</ele>
        <time>2024-05-04T07:16:34Z</time>
      </trkpt>
      <trkpt lat="50.01812" lon="4.31448">
        <ele>295</ele>
        <time>2024-05-04T07:16:35Z</time>
      </trkpt>
      <trkpt lat="50.01808" lon="4.31446">
        <ele>295.2</ele>
        <time>2024-05-04T07:16:36Z</time>
      </trkpt>
      <trkpt lat="50.01804" lon="4.31443">
        <ele>295.2</ele>
        <time>2024-05-04T07:16:37Z</time>
      </trkpt>
      <trkpt lat="50.01801" lon="4.31441">
        <ele>295</ele>
        <time>2024-05-04T07:16:38Z</time>
      </trkpt>
      <trkpt lat="50.01797" lon="4.31439">
        <ele>295.2</ele>
        <time>2024-05-04T07:16:39Z</time>
      </trkpt>
      <trkpt lat="50.01793" lon="4.31437">
        <ele>295.2</ele>
        <time>2024-05-04T07:16:40Z</time>
      </trkpt>
      <trkpt lat="50.01789" lon="4.31435">
        <ele>295.2</ele>
        <time>2024-05-04T07:16:41Z</time>
      </trkpt>
      <trkpt lat="50.01785" lon="4.31432">
        <ele>295.4</ele>
        <time>2024-05-04T07:16:42Z</time>
      </trkpt>
      <trkpt lat="50.01781" lon="4.3143">
        <ele>295.6</ele>
        <time>2024-05-04T07:16:43Z</time>
      </trkpt>
      <trkpt lat="50.01778" lon="4.31427">
        <ele>295.8</ele>
        <time>2024-05-04T07:16:44Z</time>
      </trkpt>
      <trkpt lat="50.01774" lon="4.31424">
        <ele>296</ele>
        <time>2024-05-04T07:16:45Z</time>
      </trkpt>
      <trkpt lat="50.01771" lon="4.3142">
        <ele>296.2</ele>
        <time>2024-05-04T07:16:46Z</time>
      </trkpt>
      <trkpt lat="50.01767" lon="4.31417">
        <ele>296.4</ele>
        <time>2024-05-04T07:16:47Z</time>
      </trkpt>
      <trkpt lat="50.01764" lon="4.31414">
        <ele>296.4</ele>
        <time>2024-05-04T07:16:48Z</time>
      </trkpt>
      <trkpt lat="50.0176" lon="4.3141">
        <ele>296.6</ele>
        <time>2024-05-04T07:16:49Z</time>
      </trkpt>
      <trkpt lat="50.01756" lon="4.31407">
        <ele>296.6</ele>
        <time>2024-05-04T07:16:50Z</time>
      </trkpt>
      <trkpt lat="50.01753" lon="4.31404">
        <ele>296.6</ele>
        <time>2024-05-04T07:16:51Z</time>
      </trkpt>
      <trkpt lat="50.01749" lon="4.31401">
        <ele>296.8</ele>
        <time>2024-05-04T07:16:52Z</time>
      </trkpt>
      <trkpt lat="50.01745" lon="4.31398">
        <ele>297.2</ele>
        <time>2024-05-04T07:16:53Z</time>
      </trkpt>
      <trkpt lat="50.01742" lon="4.31395">
        <ele>297.4</ele>
        <time>2024-05-04T07:16:54Z</time>
      </trkpt>
      <trkpt lat="50.01738" lon="4.31391">
        <ele>297.6</ele>
        <time>2024-05-04T07:16:55Z</time>
      </trkpt>
      <trkpt lat="50.01734" lon="4.31388">
        <ele>297.6</ele>
        <time>2024-05-04T07:16:56Z</time>
      </trkpt>
      <trkpt lat="50.01731" lon="4.31385">
        <ele>297.8</ele>
        <time>2024-05-04T07:16:57Z</time>
      </trkpt>
      <trkpt lat="50.01727" lon="4.31382">
        <ele>297.8</ele>
        <time>2024-05-04T07:16:58Z</time>
      </trkpt>
      <trkpt lat="50.01723" lon="4.3138">
        <ele>297.8</ele>
        <time>2024-05-04T07:16:59Z</time>
      </trkpt>
      <trkpt lat="50.01719" lon="4.31377">
        <ele>298.2</ele>
        <time>2024-05-04T07:17:00Z</time>
      </trkpt>
      <trkpt lat="50.01715" lon="4.31375">
        <ele>298.6</ele>
        <time>2024-05-04T07:17:01Z</time>
      </trkpt>
      <trkpt lat="50.01711" lon="4.31372">
        <ele>298.8</ele>
        <time>2024-05-04T07:17:02Z</time>
      </trkpt>
      <trkpt lat="50.01707" lon="4.3137">
        <ele>299.2</ele>
        <time>2024-05-04T07:17:03Z</time>
      </trkpt>
      <trkpt lat="50.01703" lon="4.31367">
        <ele>299.2</ele>
        <time>2024-05-04T07:17:04Z</time>
      </trkpt>
      <trkpt lat="50.01699" lon="4.31365">
        <ele>299.2</ele>
        <time>2024-05-04T07:17:05Z</time>
      </trkpt>
      <trkpt lat="50.01695" lon="4.31363">
        <ele>299.4</ele>
        <time>2024-05-04T07:17:06Z</time>
      </trkpt>
      <trkpt lat="50.01691" lon="4.31361">
        <ele>299.4</ele>
        <time>2024-05-04T07:17:07Z</time>
      </trkpt>
      <trkpt lat="50.01687" lon="4.31359">
        <ele>299.4</ele>
        <time>2024-05-04T07:17:08Z</time>
      </trkpt>
      <trkpt lat="50.01683" lon="4.31358">
        <ele>299.6</ele>
        <time>2024-05-04T07:17:09Z</time>
      </trkpt>
      <trkpt lat="50.01679" lon="4.31356">
        <ele>299.6</ele>
        <time>2024-05-04T07:17:10Z</time>
      </trkpt>
      <trkpt lat="50.01675" lon="4.31354">
        <ele>299.6</ele>
        <time>2024-05-04T07:17:11Z</time>
      </trkpt>
      <trkpt lat="50.01671" lon="4.31352">
        <ele>299.8</ele>
        <time>2024-05-04T07:17:12Z</time>
      </trkpt>
      <trkpt lat="50.01668" lon="4.3135">
        <ele>299.8</ele>
        <time>2024-05-04T07:17:13Z</time>
      </trkpt>
      <trkpt lat="50.01664" lon="4.31348">
        <ele>299.8</ele>
        <time>2024-05-04T07:17:14Z</time>
      </trkpt>
      <trkpt lat="50.0166" lon="4.31345">
        <ele>299.8</ele>
        <time>2024-05-04T07:17:15Z</time>
      </trkpt>
      <trkpt lat="50.01656" lon="4.31343">
        <ele>299.8</ele>
        <time>2024-05-04T07:17:16Z</time>
      </trkpt>
      <trkpt lat="50.01653" lon="4.3134">
        <ele>300</ele>
        <time>2024-05-04T07:17:17Z</time>
      </trkpt>
      <trkpt lat="50.01649" lon="4.31337">
        <ele>300</ele>
        <time>2024-05-04T07:17:18Z</time>
      </trkpt>
      <trkpt lat="50.01646" lon="4.31334">
        <ele>299.8</ele>
        <time>2024-05-04T07:17:19Z</time>
      </trkpt>
      <trkpt lat="50.01642" lon="4.31331">
        <ele>300</ele>
        <time>2024-05-04T07:17:20Z</time>
      </trkpt>
      <trkpt lat="50.01639" lon="4.31328">
        <ele>300</ele>
        <time>2024-05-04T07:17:21Z</time>
      </trkpt>
      <trkpt lat="50.01635" lon="4.31324">
        <ele>300</ele>
        <time>2024-05-04T07:17:22Z</time>
      </trkpt>
      <trkpt lat="50.01632" lon="4.31321">
        <ele>300.4</ele>
        <time>2024-05-04T07:17:23Z</time>
      </trkpt>
      <trkpt lat="50.01628" lon="4.31318">
        <ele>300.6</ele>
        <time>2024-05-04T07:17:24Z</time>
      </trkpt>
      <trkpt lat="50.01625" lon="4.31314">
        <ele>301</ele>
        <time>2024-05-04T07:17:25Z</time>
      </trkpt>
      <trkpt lat="50.01621" lon="4.31311">
        <ele>301</ele>
        <time>2024-05-04T07:17:26Z</time>
      </trkpt>
      <trkpt lat="50.01618" lon="4.31308">
        <ele>301.4</ele>
        <time>2024-05-04T07:17:27Z</time>
      </trkpt>
      <trkpt lat="50.01615" lon="4.31304">
        <ele>302.2</ele>
        <time>2024-05-04T07:17:28Z</time>
      </trkpt>
      <trkpt lat="50.01612" lon="4.31301">
        <ele>302.6</ele>
        <time>2024-05-04T07:17:29Z</time>
      </trkpt>
      <trkpt lat="50.01608" lon="4.31297">
        <ele>302.8</ele>
        <time>2024-05-04T07:17:30Z</time>
      </trkpt>
      <trkpt lat="50.01605" lon="4.31294">
        <ele>303.2</ele>
        <time>2024-05-04T07:17:31Z</time>
      </trkpt>
      <trkpt lat="50.01602" lon="4.3129">
        <ele>303.2</ele>
        <time>2024-05-04T07:17:32Z</time>
      </trkpt>
      <trkpt lat="50.01598" lon="4.31287">
        <ele>303.2</ele>
        <time>2024-05-04T07:17:33Z</time>
      </trkpt>
      <trkpt lat="50.01595" lon="4.31283">
        <ele>303.4</ele>
        <time>2024-05-04T07:17:34Z</time>
      </trkpt>
      <trkpt lat="50.01592" lon="4.31279">
        <ele>303.2</ele>
        <time>2024-05-04T07:17:35Z</time>
      </trkpt>
      <trkpt lat="50.0159" lon="4.31274">
        <ele>303.4</ele>
        <time>2024-05-04T07:17:36Z</time>
      </trkpt>
      <trkpt lat="50.01589" lon="4.31268">
        <ele>303.2</ele>
        <time>2024-05-04T07:17:37Z</time>
      </trkpt>
      <trkpt lat="50.01589" lon="4.31261">
        <ele>303.6</ele>
        <time>2024-05-04T07:17:38Z</time>
      </trkpt>
      <trkpt lat="50.01589" lon="4.31254">
        <ele>303.8</ele>
        <time>2024-05-04T07:17:39Z</time>
      </trkpt>
      <trkpt lat="50.0159" lon="4.31247">
        <ele>303.8</ele>
        <time>2024-05-04T07:17:40Z</time>
      </trkpt>
      <trkpt lat="50.0159" lon="4.3124">
        <ele>304</ele>
        <time>2024-05-04T07:17:41Z</time>
      </trkpt>
      <trkpt lat="50.01591" lon="4.31233">
        <ele>304.2</ele>
        <time>2024-05-04T07:17:42Z</time>
      </trkpt>
      <trkpt lat="50.01592" lon="4.31225">
        <ele>304.2</ele>
        <time>2024-05-04T07:17:43Z</time>
      </trkpt>
      <trkpt lat="50.01593" lon="4.31218">
        <ele>304.4</ele>
        <time>2024-05-04T07:17:44Z</time>
      </trkpt>
      <trkpt lat="50.01595" lon="4.31209">
        <ele>304.4</ele>
        <time>2024-05-04T07:17:45Z</time>
      </trkpt>
      <trkpt lat="50.01597" lon="4.31201">
        <ele>304.6</ele>
        <time>2024-05-04T07:17:46Z</time>
      </trkpt>
      <trkpt lat="50.01599" lon="4.31193">
        <ele>304.4</ele>
        <time>2024-05-04T07:17:47Z</time>
      </trkpt>
      <trkpt lat="50.016" lon="4.31185">
        <ele>304.4</ele>
        <time>2024-05-04T07:17:48Z</time>
      </trkpt>
      <trkpt lat="50.01602" lon="4.31176">
        <ele>304.4</ele>
        <time>2024-05-04T07:17:49Z</time>
      </trkpt>
      <trkpt lat="50.01604" lon="4.31168">
        <ele>304.6</ele>
        <time>2024-05-04T07:17:50Z</time>
      </trkpt>
      <trkpt lat="50.01606" lon="4.3116">
        <ele>304.6</ele>
        <time>2024-05-04T07:17:51Z</time>
      </trkpt>
      <trkpt lat="50.01608" lon="4.31151">
        <ele>304.6</ele>
        <time>2024-05-04T07:17:52Z</time>
      </trkpt>
      <trkpt lat="50.0161" lon="4.31142">
        <ele>304.6</ele>
        <time>2024-05-04T07:17:53Z</time>
      </trkpt>
      <trkpt lat="50.01612" lon="4.31132">
        <ele>304.4</ele>
        <time>2024-05-04T07:17:54Z</time>
      </trkpt>
      <trkpt lat="50.01614" lon="4.31123">
        <ele>304.4</ele>
        <time>2024-05-04T07:17:55Z</time>
      </trkpt>
      <trkpt lat="50.01616" lon="4.31113">
        <ele>304.2</ele>
        <time>2024-05-04T07:17:56Z</time>
      </trkpt>
      <trkpt lat="50.01618" lon="4.31103">
        <ele>304.2</ele>
        <time>2024-05-04T07:17:57Z</time>
      </trkpt>
      <trkpt lat="50.0162" lon="4.31093">
        <ele>304.2</ele>
        <time>2024-05-04T07:17:58Z</time>
      </trkpt>
      <trkpt lat="50.01622" lon="4.31082">
        <ele>304</ele>
        <time>2024-05-04T07:17:59Z</time>
      </trkpt>
      <trkpt lat="50.01624" lon="4.31072">
        <ele>303.8</ele>
        <time>2024-05-04T07:18:00Z</time>
      </trkpt>
      <trkpt lat="50.01627" lon="4.31061">
        <ele>303.6</ele>
        <time>2024-05-04T07:18:01Z</time>
      </trkpt>
      <trkpt lat="50.01629" lon="4.3105">
        <ele>303.2</ele>
        <time>2024-05-04T07:18:02Z</time>
      </trkpt>
      <trkpt lat="50.01631" lon="4.3104">
        <ele>303.2</ele>
        <time>2024-05-04T07:18:03Z</time>
      </trkpt>
      <trkpt lat="50.01633" lon="4.31029">
        <ele>303</ele>
        <time>2024-05-04T07:18:04Z</time>
      </trkpt>
      <trkpt lat="50.01636" lon="4.31018">
        <ele>302.8</ele>
        <time>2024-05-04T07:18:05Z</time>
      </trkpt>
      <trkpt lat="50.01638" lon="4.31007">
        <ele>302.6</ele>
        <time>2024-05-04T07:18:06Z</time>
      </trkpt>
      <trkpt lat="50.01641" lon="4.30996">
        <ele>302.4</ele>
        <time>2024-05-04T07:18:07Z</time>
      </trkpt>
      <trkpt lat="50.01643" lon="4.30984">
        <ele>302.4</ele>
        <time>2024-05-04T07:18:08Z</time>
      </trkpt>
      <trkpt lat="50.01645" lon="4.30973">
        <ele>302.2</ele>
        <time>2024-05-04T07:18:09Z</time>
      </trkpt>
      <trkpt lat="50.01648" lon="4.30961">
        <ele>302.2</ele>
        <time>2024-05-04T07:18:10Z</time>
      </trkpt>
      <trkpt lat="50.0165" lon="4.30949">
        <ele>302.2</ele>
        <time>2024-05-04T07:18:11Z</time>
      </trkpt>
      <trkpt lat="50.01653" lon="4.30937">
        <ele>302</ele>
        <time>2024-05-04T07:18:12Z</time>
      </trkpt>
      <trkpt lat="50.01655" lon="4.30925">
        <ele>301.8</ele>
        <time>2024-05-04T07:18:13Z</time>
      </trkpt>
      <trkpt lat="50.01658" lon="4.30913">
        <ele>301.6</ele>
        <time>2024-05-04T07:18:14Z</time>
      </trkpt>
      <trkpt lat="50.0166" lon="4.309">
        <ele>301.4</ele>
        <time>2024-05-04T07:18:15Z</time>
      </trkpt>
      <trkpt lat="50.01663" lon="4.30888">
        <ele>301.2</ele>
        <time>2024-05-04T07:18:16Z</time>
      </trkpt>
      <trkpt lat="50.01666" lon="4.30876">
        <ele>300.8</ele>
        <time>2024-05-04T07:18:17Z</time>
      </trkpt>
      <trkpt lat="50.01669" lon="4.30863">
        <ele>300.4</ele>
        <time>2024-05-04T07:18:18Z</time>
      </trkpt>
      <trkpt lat="50.01671" lon="4.30851">
        <ele>300.2</ele>
        <time>2024-05-04T07:18:19Z</time>
      </trkpt>
      <trkpt lat="50.01674" lon="4.30838">
        <ele>300.2</ele>
        <time>2024-05-04T07:18:20Z</time>
      </trkpt>
      <trkpt lat="50.01677" lon="4.30826">
        <ele>300</ele>
        <time>2024-05-04T07:18:21Z</time>
      </trkpt>
      <trkpt lat="50.01679" lon="4.30814">
        <ele>299.4</ele>
        <time>2024-05-04T07:18:22Z</time>
      </trkpt>
      <trkpt lat="50.01682" lon="4.30801">
        <ele>299</ele>
        <time>2024-05-04T07:18:23Z</time>
      </trkpt>
      <trkpt lat="50.01685" lon="4.30789">
        <ele>298.6</ele>
        <time>2024-05-04T07:18:24Z</time>
      </trkpt>
      <trkpt lat="50.01687" lon="4.30778">
        <ele>298.6</ele>
        <time>2024-05-04T07:18:25Z</time>
      </trkpt>
      <trkpt lat="50.0169" lon="4.30766">
        <ele>298.2</ele>
        <time>2024-05-04T07:18:26Z</time>
      </trkpt>
      <trkpt lat="50.01692" lon="4.30754">
        <ele>298</ele>
        <time>2024-05-04T07:18:27Z</time>
      </trkpt>
      <trkpt lat="50.01694" lon="4.30743">
        <ele>297.8</ele>
        <time>2024-05-04T07:18:28Z</time>
      </trkpt>
      <trkpt lat="50.01697" lon="4.30732">
        <ele>297.8</ele>
        <time>2024-05-04T07:18:29Z</time>
      </trkpt>
      <trkpt lat="50.01699" lon="4.30721">
        <ele>297.4</ele>
        <time>2024-05-04T07:18:30Z</time>
      </trkpt>
      <trkpt lat="50.01702" lon="4.30711">
        <ele>297.4</ele>
        <time>2024-05-04T07:18:31Z</time>
      </trkpt>
      <trkpt lat="50.01704" lon="4.307">
        <ele>297.2</ele>
        <time>2024-05-04T07:18:32Z</time>
      </trkpt>
      <trkpt lat="50.01706" lon="4.3069">
        <ele>297.2</ele>
        <time>2024-05-04T07:18:33Z</time>
      </trkpt>
      <trkpt lat="50.01708" lon="4.3068">
        <ele>297</ele>
        <time>2024-05-04T07:18:34Z</time>
      </trkpt>
      <trkpt lat="50.0171" lon="4.3067">
        <ele>297</ele>
        <time>2024-05-04T07:18:35Z</time>
      </trkpt>
      <trkpt lat="50.01712" lon="4.3066">
        <ele>297</ele>
        <time>2024-05-04T07:18:36Z</time>
      </trkpt>
      <trkpt lat="50.01715" lon="4.3065">
        <ele>297.2</ele>
        <time>2024-05-04T07:18:37Z</time>
      </trkpt>
      <trkpt lat="50.01717" lon="4.3064">
        <ele>297</ele>
        <time>2024-05-04T07:18:38Z</time>
      </trkpt>
      <trkpt lat="50.01719" lon="4.30631">
        <ele>297</ele>
        <time>2024-05-04T07:18:39Z</time>
      </trkpt>
      <trkpt lat="50.01721" lon="4.30621">
        <ele>297</ele>
        <time>2024-05-04T07:18:40Z</time>
      </trkpt>
      <trkpt lat="50.01723" lon="4.30612">
        <ele>297</ele>
        <time>2024-05-04T07:18:41Z</time>
      </trkpt>
      <trkpt lat="50.01725" lon="4.30602">
        <ele>297.2</ele>
        <time>2024-05-04T07:18:42Z</time>
      </trkpt>
      <trkpt lat="50.01727" lon="4.30593">
        <ele>297</ele>
        <time>2024-05-04T07:18:43Z</time>
      </trkpt>
      <trkpt lat="50.01728" lon="4.30584">
        <ele>297.2</ele>
        <time>2024-05-04T07:18:44Z</time>
      </trkpt>
      <trkpt lat="50.0173" lon="4.30575">
        <ele>297.8</ele>
        <time>2024-05-04T07:18:45Z</time>
      </trkpt>
      <trkpt lat="50.01732" lon="4.30566">
        <ele>297.8</ele>
        <time>2024-05-04T07:18:46Z</time>
      </trkpt>
      <trkpt lat="50.01734" lon="4.30557">
        <ele>297.8</ele>
        <time>2024-05-04T07:18:47Z</time>
      </trkpt>
      <trkpt lat="50.01736" lon="4.30548">
        <ele>297.8</ele>
        <time>2024-05-04T07:18:48Z</time>
      </trkpt>
      <trkpt lat="50.01738" lon="4.30539">
        <ele>297.8</ele>
        <time>2024-05-04T07:18:49Z</time>
      </trkpt>
      <trkpt lat="50.0174" lon="4.3053">
        <ele>298</ele>
        <time>2024-05-04T07:18:50Z</time>
      </trkpt>
      <trkpt lat="50.01741" lon="4.30521">
        <ele>298</ele>
        <time>2024-05-04T07:18:51Z</time>
      </trkpt>
      <trkpt lat="50.01743" lon="4.30513">
        <ele>298.6</ele>
        <time>2024-05-04T07:18:52Z</time>
      </trkpt>
      <trkpt lat="50.01745" lon="4.30504">
        <ele>298.8</ele>
        <time>2024-05-04T07:18:53Z</time>
      </trkpt>
      <trkpt lat="50.01747" lon="4.30495">
        <ele>298.8</ele>
        <time>2024-05-04T07:18:54Z</time>
      </trkpt>
      <trkpt lat="50.01748" lon="4.30486">
        <ele>299</ele>
        <time>2024-05-04T07:18:55Z</time>
      </trkpt>
      <trkpt lat="50.0175" lon="4.30478">
        <ele>299.2</ele>
        <time>2024-05-04T07:18:56Z</time>
      </trkpt>
      <trkpt lat="50.01752" lon="4.30469">
        <ele>299.4</ele>
        <time>2024-05-04T07:18:57Z</time>
      </trkpt>
      <trkpt lat="50.01754" lon="4.30461">
        <ele>300</ele>
        <time>2024-05-04T07:18:58Z</time>
      </trkpt>
      <trkpt lat="50.01756" lon="4.30452">
        <ele>300.4</ele>
        <time>2024-05-04T07:18:59Z</time>
      </trkpt>
      <trkpt lat="50.01757" lon="4.30444">
        <ele>300.6</ele>
        <time>2024-05-04T07:19:00Z</time>
      </trkpt>
      <trkpt lat="50.01759" lon="4.30435">
        <ele>301.2</ele>
        <time>2024-05-04T07:19:01Z</time>
      </trkpt>
      <trkpt lat="50.01761" lon="4.30427">
        <ele>301.2</ele>
        <time>2024-05-04T07:19:02Z</time>
      </trkpt>
      <trkpt lat="50.01763" lon="4.30418">
        <ele>301.6</ele>
        <time>2024-05-04T07:19:03Z</time>
      </trkpt>
      <trkpt lat="50.01764" lon="4.30409">
        <ele>301.6</ele>
        <time>2024-05-04T07:19:04Z</time>
      </trkpt>
      <trkpt lat="50.01764" lon="4.304">
        <ele>301.6</ele>
        <time>2024-05-04T07:19:05Z</time>
      </trkpt>
      <trkpt lat="50.01764" lon="4.30391">
        <ele>301.8</ele>
        <time>2024-05-04T07:19:06Z</time>
      </trkpt>
      <trkpt lat="50.01763" lon="4.30382">
        <ele>302</ele>
        <time>2024-05-04T07:19:07Z</time>
      </trkpt>
      <trkpt lat="50.01762" lon="4.30373">
        <ele>302</ele>
        <time>2024-05-04T07:19:08Z</time>
      </trkpt>
      <trkpt lat="50.0176" lon="4.30364">
        <ele>302</ele>
        <time>2024-05-04T07:19:09Z</time>
      </trkpt>
      <trkpt lat="50.01758" lon="4.30356">
        <ele>302</ele>
        <time>2024-05-04T07:19:10Z</time>
      </trkpt>
      <trkpt lat="50.01756" lon="4.30347">
        <ele>302.2</ele>
        <time>2024-05-04T07:19:11Z</time>
      </trkpt>
      <trkpt lat="50.01754" lon="4.30338">
        <ele>302.2</ele>
        <time>2024-05-04T07:19:12Z</time>
      </trkpt>
      <trkpt lat="50.01752" lon="4.3033">
        <ele>302.4</ele>
        <time>2024-05-04T07:19:13Z</time>
      </trkpt>
      <trkpt lat="50.0175" lon="4.30322">
        <ele>302.2</ele>
        <time>2024-05-04T07:19:14Z</time>
      </trkpt>
      <trkpt lat="50.01748" lon="4.30314">
        <ele>302.4</ele>
        <time>2024-05-04T07:19:15Z</time>
      </trkpt>
      <trkpt lat="50.01746" lon="4.30306">
        <ele>302.6</ele>
        <time>2024-05-04T07:19:16Z</time>
      </trkpt>
      <trkpt lat="50.01744" lon="4.30297">
        <ele>302.6</ele>
        <time>2024-05-04T07:19:17Z</time>
      </trkpt>
      <trkpt lat="50.01742" lon="4.30289">
        <ele>302.8</ele>
        <time>2024-05-04T07:19:18Z</time>
      </trkpt>
      <trkpt lat="50.0174" lon="4.3028">
        <ele>303</ele>
        <time>2024-05-04T07:19:19Z</time>
      </trkpt>
      <trkpt lat="50.01738" lon="4.30272">
        <ele>303</ele>
        <time>2024-05-04T07:19:20Z</time>
      </trkpt>
      <trkpt lat="50.01736" lon="4.30264">
        <ele>303</ele>
        <time>2024-05-04T07:19:21Z</time>
      </trkpt>
      <trkpt lat="50.01733" lon="4.30255">
        <ele>303.2</ele>
        <time>2024-05-04T07:19:22Z</time>
      </trkpt>
      <trkpt lat="50.01731" lon="4.30246">
        <ele>303.4</ele>
        <time>2024-05-04T07:19:23Z</time>
      </trkpt>
      <trkpt lat="50.01729" lon="4.30238">
        <ele>303.4</ele>
        <time>2024-05-04T07:19:24Z</time>
      </trkpt>
      <trkpt lat="50.01726" lon="4.30229">
        <ele>303.4</ele>
        <time>2024-05-04T07:19:25Z</time>
      </trkpt>
      <trkpt lat="50.01724" lon="4.3022">
        <ele>303.4</ele>
        <time>2024-05-04T07:19:26Z</time>
      </trkpt>
      <trkpt lat="50.01723" lon="4.30211">
        <ele>303.8</ele>
        <time>2024-05-04T07:19:27Z</time>
      </trkpt>
      <trkpt lat="50.01721" lon="4.30202">
        <ele>303.8</ele>
        <time>2024-05-04T07:19:28Z</time>
      </trkpt>
      <trkpt lat="50.01719" lon="4.30193">
        <ele>304</ele>
        <time>2024-05-04T07:19:29Z</time>
      </trkpt>
      <trkpt lat="50.01716" lon="4.30184">
        <ele>304</ele>
        <time>2024-05-04T07:19:30Z</time>
      </trkpt>
      <trkpt lat="50.01714" lon="4.30175">
        <ele>304</ele>
        <time>2024-05-04T07:19:31Z</time>
      </trkpt>
      <trkpt lat="50.01712" lon="4.30165">
        <ele>304</ele>
        <time>2024-05-04T07:19:32Z</time>
      </trkpt>
      <trkpt lat="50.0171" lon="4.30156">
        <ele>304</ele>
        <time>2024-05-04T07:19:33Z</time>
      </trkpt>
      <trkpt lat="50.01709" lon="4.30146">
        <ele>304.2</ele>
        <time>2024-05-04T07:19:34Z</time>
      </trkpt>
      <trkpt lat="50.01707" lon="4.30136">
        <ele>304</ele>
        <time>2024-05-04T07:19:35Z</time>
      </trkpt>
      <trkpt lat="50.01705" lon="4.30126">
        <ele>304</ele>
        <time>2024-05-04T07:19:36Z</time>
      </trkpt>
      <trkpt lat="50.01703" lon="4.30117">
        <ele>304</ele>
        <time>2024-05-04T07:19:37Z</time>
      </trkpt>
      <trkpt lat="50.017" lon="4.30108">
        <ele>304</ele>
        <time>2024-05-04T07:19:38Z</time>
      </trkpt>
      <trkpt lat="50.01698" lon="4.30098">
        <ele>304</ele>
        <time>2024-05-04T07:19:39Z</time>
      </trkpt>
      <trkpt lat="50.01696" lon="4.30089">
        <ele>303.6</ele>
        <time>2024-05-04T07:19:40Z</time>
      </trkpt>
      <trkpt lat="50.01694" lon="4.3008">
        <ele>303.4</ele>
        <time>2024-05-04T07:19:41Z</time>
      </trkpt>
      <trkpt lat="50.01692" lon="4.30071">
        <ele>303.2</ele>
        <time>2024-05-04T07:19:42Z</time>
      </trkpt>
      <trkpt lat="50.01689" lon="4.30061">
        <ele>303</ele>
        <time>2024-05-04T07:19:43Z</time>
      </trkpt>
      <trkpt lat="50.01687" lon="4.30051">
        <ele>303</ele>
        <time>2024-05-04T07:19:44Z</time>
      </trkpt>
      <trkpt lat="50.01685" lon="4.30042">
        <ele>302.8</ele>
        <time>2024-05-04T07:19:45Z</time>
      </trkpt>
      <trkpt lat="50.01683" lon="4.30032">
        <ele>302.8</ele>
        <time>2024-05-04T07:19:46Z</time>
      </trkpt>
      <trkpt lat="50.0168" lon="4.30022">
        <ele>302.6</ele>
        <time>2024-05-04T07:19:47Z</time>
      </trkpt>
      <trkpt lat="50.01678" lon="4.30012">
        <ele>302.6</ele>
        <time>2024-05-04T07:19:48Z</time>
      </trkpt>
      <trkpt lat="50.01676" lon="4.30002">
        <ele>302.6</ele>
        <time>2024-05-04T07:19:49Z</time>
      </trkpt>
      <trkpt lat="50.01674" lon="4.29993">
        <ele>302.8</ele>
        <time>2024-05-04T07:19:50Z</time>
      </trkpt>
      <trkpt lat="50.01672" lon="4.29982">
        <ele>302.6</ele>
        <time>2024-05-04T07:19:51Z</time>
      </trkpt>
      <trkpt lat="50.0167" lon="4.29972">
        <ele>302.8</ele>
        <time>2024-05-04T07:19:52Z</time>
      </trkpt>
      <trkpt lat="50.01668" lon="4.29962">
        <ele>302.8</ele>
        <time>2024-05-04T07:19:53Z</time>
      </trkpt>
      <trkpt lat="50.01666" lon="4.29952">
        <ele>302.8</ele>
        <time>2024-05-04T07:19:54Z</time>
      </trkpt>
      <trkpt lat="50.01665" lon="4.29943">
        <ele>302.8</ele>
        <time>2024-05-04T07:19:55Z</time>
      </trkpt>
      <trkpt lat="50.01663" lon="4.29933">
        <ele>302.8</ele>
        <time>2024-05-04T07:19:56Z</time>
      </trkpt>
      <trkpt lat="50.01661" lon="4.29923">
        <ele>303</ele>
        <time>2024-05-04T07:19:57Z</time>
      </trkpt>
      <trkpt lat="50.01659" lon="4.29913">
        <ele>302.8</ele>
        <time>2024-05-04T07:19:58Z</time>
      </trkpt>
      <trkpt lat="50.01657" lon="4.29904">
        <ele>302.8</ele>
        <time>2024-05-04T07:19:59Z</time>
      </trkpt>
      <trkpt lat="50.01655" lon="4.29894">
        <ele>303</ele>
        <time>2024-05-04T07:20:00Z</time>
      </trkpt>
      <trkpt lat="50.01653" lon="4.29885">
        <ele>303.2</ele>
        <time>2024-05-04T07:20:01Z</time>
      </trkpt>
      <trkpt lat="50.01651" lon="4.29875">
        <ele>303</ele>
        <time>2024-05-04T07:20:02Z</time>
      </trkpt>
      <trkpt lat="50.01649" lon="4.29865">
        <ele>303</ele>
        <time>2024-05-04T07:20:03Z</time>
      </trkpt>
      <trkpt lat="50.01647" lon="4.29856">
        <ele>303</ele>
        <time>2024-05-04T07:20:04Z</time>
      </trkpt>
      <trkpt lat="50.01645" lon="4.29846">
        <ele>303</ele>
        <time>2024-05-04T07:20:05Z</time>
      </trkpt>
      <trkpt lat="50.01644" lon="4.29836">
        <ele>303</ele>
        <time>2024-05-04T07:20:06Z</time>
      </trkpt>
      <trkpt lat="50.01642" lon="4.29826">
        <ele>303</ele>
        <time>2024-05-04T07:20:07Z</time>
      </trkpt>
      <trkpt lat="50.0164" lon="4.29816">
        <ele>302.8</ele>
        <time>2024-05-04T07:20:08Z</time>
      </trkpt>
      <trkpt lat="50.01637" lon="4.29806">
        <ele>303.2</ele>
        <time>2024-05-04T07:20:09Z</time>
      </trkpt>
      <trkpt lat="50.01635" lon="4.29796">
        <ele>303</ele>
        <time>2024-05-04T07:20:10Z</time>
      </trkpt>
      <trkpt lat="50.01633" lon="4.29786">
        <ele>303</ele>
        <time>2024-05-04T07:20:11Z</time>
      </trkpt>
      <trkpt lat="50.01631" lon="4.29776">
        <ele>303</ele>
        <time>2024-05-04T07:20:12Z</time>
      </trkpt>
      <trkpt lat="50.01629" lon="4.29767">
        <ele>302.8</ele>
        <time>2024-05-04T07:20:13Z</time>
      </trkpt>
      <trkpt lat="50.01627" lon="4.29757">
        <ele>303</ele>
        <time>2024-05-04T07:20:14Z</time>
      </trkpt>
      <trkpt lat="50.01625" lon="4.29748">
        <ele>302.8</ele>
        <time>2024-05-04T07:20:15Z</time>
      </trkpt>
      <trkpt lat="50.01623" lon="4.29738">
        <ele>302.8</ele>
        <time>2024-05-04T07:20:16Z</time>
      </trkpt>
      <trkpt lat="50.0162" lon="4.29728">
        <ele>302.8</ele>
        <time>2024-05-04T07:20:17Z</time>
      </trkpt>
      <trkpt lat="50.01618" lon="4.29718">
        <ele>302.8</ele>
        <time>2024-05-04T07:20:18Z</time>
      </trkpt>
      <trkpt lat="50.01616" lon="4.29709">
        <ele>302.8</ele>
        <time>2024-05-04T07:20:19Z</time>
      </trkpt>
      <trkpt lat="50.01614" lon="4.297">
        <ele>302.6</ele>
        <time>2024-05-04T07:20:20Z</time>
      </trkpt>
      <trkpt lat="50.01612" lon="4.2969">
        <ele>302.6</ele>
        <time>2024-05-04T07:20:21Z</time>
      </trkpt>
      <trkpt lat="50.01611" lon="4.29681">
        <ele>302.8</ele>
        <time>2024-05-04T07:20:22Z</time>
      </trkpt>
      <trkpt lat="50.01609" lon="4.29671">
        <ele>302.8</ele>
        <time>2024-05-04T07:20:23Z</time>
      </trkpt>
      <trkpt lat="50.01607" lon="4.29661">
        <ele>302.6</ele>
        <time>2024-05-04T07:20:24Z</time>
      </trkpt>
      <trkpt lat="50.01604" lon="4.29651">
        <ele>302.4</ele>
        <time>2024-05-04T07:20:25Z</time>
      </trkpt>
      <trkpt lat="50.01602" lon="4.29641">
        <ele>302.4</ele>
        <time>2024-05-04T07:20:26Z</time>
      </trkpt>
      <trkpt lat="50.016" lon="4.29631">
        <ele>302.4</ele>
        <time>2024-05-04T07:20:27Z</time>
      </trkpt>
      <trkpt lat="50.01599" lon="4.29622">
        <ele>302</ele>
        <time>2024-05-04T07:20:28Z</time>
      </trkpt>
      <trkpt lat="50.01596" lon="4.29612">
        <ele>302</ele>
        <time>2024-05-04T07:20:29Z</time>
      </trkpt>
      <trkpt lat="50.01594" lon="4.29602">
        <ele>301.8</ele>
        <time>2024-05-04T07:20:30Z</time>
      </trkpt>
      <trkpt lat="50.01592" lon="4.29592">
        <ele>301.4</ele>
        <time>2024-05-04T07:20:31Z</time>
      </trkpt>
      <trkpt lat="50.0159" lon="4.29582">
        <ele>301.2</ele>
        <time>2024-05-04T07:20:32Z</time>
      </trkpt>
      <trkpt lat="50.01588" lon="4.29572">
        <ele>301</ele>
        <time>2024-05-04T07:20:33Z</time>
      </trkpt>
      <trkpt lat="50.01586" lon="4.29561">
        <ele>301</ele>
        <time>2024-05-04T07:20:34Z</time>
      </trkpt>
      <trkpt lat="50.01584" lon="4.29551">
        <ele>300.8</ele>
        <time>2024-05-04T07:20:35Z</time>
      </trkpt>
      <trkpt lat="50.01581" lon="4.29541">
        <ele>300.8</ele>
        <time>2024-05-04T07:20:36Z</time>
      </trkpt>
      <trkpt lat="50.01579" lon="4.29531">
        <ele>300.8</ele>
        <time>2024-05-04T07:20:37Z</time>
      </trkpt>
      <trkpt lat="50.01577" lon="4.29521">
        <ele>300.8</ele>
        <time>2024-05-04T07:20:38Z</time>
      </trkpt>
      <trkpt lat="50.01575" lon="4.29511">
        <ele>300.8</ele>
        <time>2024-05-04T07:20:39Z</time>
      </trkpt>
      <trkpt lat="50.01573" lon="4.29501">
        <ele>300.8</ele>
        <time>2024-05-04T07:20:40Z</time>
      </trkpt>
      <trkpt lat="50.01571" lon="4.29491">
        <ele>300.8</ele>
        <time>2024-05-04T07:20:41Z</time>
      </trkpt>
      <trkpt lat="50.01569" lon="4.29481">
        <ele>300.8</ele>
        <time>2024-05-04T07:20:42Z</time>
      </trkpt>
      <trkpt lat="50.01566" lon="4.29471">
        <ele>300.8</ele>
        <time>2024-05-04T07:20:43Z</time>
      </trkpt>
      <trkpt lat="50.01564" lon="4.29461">
        <ele>300.6</ele>
        <time>2024-05-04T07:20:44Z</time>
      </trkpt>
      <trkpt lat="50.01562" lon="4.29451">
        <ele>300.8</ele>
        <time>2024-05-04T07:20:45Z</time>
      </trkpt>
      <trkpt lat="50.0156" lon="4.29441">
        <ele>300.8</ele>
        <time>2024-05-04T07:20:46Z</time>
      </trkpt>
      <trkpt lat="50.01558" lon="4.29431">
        <ele>300.8</ele>
        <time>2024-05-04T07:20:47Z</time>
      </trkpt>
      <trkpt lat="50.01556" lon="4.29421">
        <ele>300.8</ele>
        <time>2024-05-04T07:20:48Z</time>
      </trkpt>
      <trkpt lat="50.01554" lon="4.2941">
        <ele>300.6</ele>
        <time>2024-05-04T07:20:49Z</time>
      </trkpt>
      <trkpt lat="50.01551" lon="4.294">
        <ele>300.8</ele>
        <time>2024-05-04T07:20:50Z</time>
      </trkpt>
      <trkpt lat="50.01549" lon="4.2939">
        <ele>300.8</ele>
        <time>2024-05-04T07:20:51Z</time>
      </trkpt>
      <trkpt lat="50.01547" lon="4.2938">
        <ele>300.6</ele>
        <time>2024-05-04T07:20:52Z</time>
      </trkpt>
      <trkpt lat="50.01545" lon="4.29369">
        <ele>300.6</ele>
        <time>2024-05-04T07:20:53Z</time>
      </trkpt>
      <trkpt lat="50.01543" lon="4.29359">
        <ele>300.6</ele>
        <time>2024-05-04T07:20:54Z</time>
      </trkpt>
      <trkpt lat="50.0154" lon="4.29349">
        <ele>300.6</ele>
        <time>2024-05-04T07:20:55Z</time>
      </trkpt>
      <trkpt lat="50.01538" lon="4.29339">
        <ele>300.6</ele>
        <time>2024-05-04T07:20:56Z</time>
      </trkpt>
      <trkpt lat="50.01536" lon="4.29329">
        <ele>300.4</ele>
        <time>2024-05-04T07:20:57Z</time>
      </trkpt>
      <trkpt lat="50.01534" lon="4.29319">
        <ele>300.4</ele>
        <time>2024-05-04T07:20:58Z</time>
      </trkpt>
      <trkpt lat="50.01532" lon="4.29309">
        <ele>300.4</ele>
        <time>2024-05-04T07:20:59Z</time>
      </trkpt>
      <trkpt lat="50.0153" lon="4.29298">
        <ele>300.2</ele>
        <time>2024-05-04T07:21:00Z</time>
      </trkpt>
      <trkpt lat="50.01528" lon="4.29288">
        <ele>300</ele>
        <time>2024-05-04T07:21:01Z</time>
      </trkpt>
      <trkpt lat="50.01526" lon="4.29278">
        <ele>300</ele>
        <time>2024-05-04T07:21:02Z</time>
      </trkpt>
      <trkpt lat="50.01524" lon="4.29268">
        <ele>300</ele>
        <time>2024-05-04T07:21:03Z</time>
      </trkpt>
      <trkpt lat="50.01522" lon="4.29258">
        <ele>299.6</ele>
        <time>2024-05-04T07:21:04Z</time>
      </trkpt>
      <trkpt lat="50.0152" lon="4.29248">
        <ele>299.4</ele>
        <time>2024-05-04T07:21:05Z</time>
      </trkpt>
      <trkpt lat="50.01518" lon="4.29238">
        <ele>299.2</ele>
        <time>2024-05-04T07:21:06Z</time>
      </trkpt>
      <trkpt lat="50.01515" lon="4.29228">
        <ele>299.2</ele>
        <time>2024-05-04T07:21:07Z</time>
      </trkpt>
      <trkpt lat="50.01513" lon="4.29219">
        <ele>299</ele>
        <time>2024-05-04T07:21:08Z</time>
      </trkpt>
      <trkpt lat="50.01511" lon="4.29209">
        <ele>299</ele>
        <time>2024-05-04T07:21:09Z</time>
      </trkpt>
      <trkpt lat="50.01509" lon="4.29199">
        <ele>299</ele>
        <time>2024-05-04T07:21:10Z</time>
      </trkpt>
      <trkpt lat="50.01507" lon="4.29189">
        <ele>298.8</ele>
        <time>2024-05-04T07:21:11Z</time>
      </trkpt>
      <trkpt lat="50.01505" lon="4.29178">
        <ele>299</ele>
        <time>2024-05-04T07:21:12Z</time>
      </trkpt>
      <trkpt lat="50.01503" lon="4.29168">
        <ele>298.8</ele>
        <time>2024-05-04T07:21:13Z</time>
      </trkpt>
      <trkpt lat="50.01501" lon="4.29158">
        <ele>298.8</ele>
        <time>2024-05-04T07:21:14Z</time>
      </trkpt>
      <trkpt lat="50.01498" lon="4.29148">
        <ele>298.8</ele>
        <time>2024-05-04T07:21:15Z</time>
      </trkpt>
      <trkpt lat="50.01496" lon="4.29138">
        <ele>298.6</ele>
        <time>2024-05-04T07:21:16Z</time>
      </trkpt>
      <trkpt lat="50.01495" lon="4.29128">
        <ele>298.8</ele>
        <time>2024-05-04T07:21:17Z</time>
      </trkpt>
      <trkpt lat="50.01492" lon="4.29118">
        <ele>298.8</ele>
        <time>2024-05-04T07:21:18Z</time>
      </trkpt>
      <trkpt lat="50.0149" lon="4.29108">
        <ele>298.8</ele>
        <time>2024-05-04T07:21:19Z</time>
      </trkpt>
      <trkpt lat="50.01488" lon="4.29098">
        <ele>298.8</ele>
        <time>2024-05-04T07:21:20Z</time>
      </trkpt>
      <trkpt lat="50.01486" lon="4.29088">
        <ele>298.8</ele>
        <time>2024-05-04T07:21:21Z</time>
      </trkpt>
      <trkpt lat="50.01484" lon="4.29078">
        <ele>298.8</ele>
        <time>2024-05-04T07:21:22Z</time>
      </trkpt>
      <trkpt lat="50.01482" lon="4.29068">
        <ele>298.6</ele>
        <time>2024-05-04T07:21:23Z</time>
      </trkpt>
      <trkpt lat="50.0148" lon="4.29058">
        <ele>298.4</ele>
        <time>2024-05-04T07:21:24Z</time>
      </trkpt>
      <trkpt lat="50.01478" lon="4.29048">
        <ele>298.4</ele>
        <time>2024-05-04T07:21:25Z</time>
      </trkpt>
      <trkpt lat="50.01476" lon="4.29038">
        <ele>298.2</ele>
        <time>2024-05-04T07:21:26Z</time>
      </trkpt>
      <trkpt lat="50.01473" lon="4.29028">
        <ele>298.2</ele>
        <time>2024-05-04T07:21:27Z</time>
      </trkpt>
      <trkpt lat="50.01471" lon="4.29018">
        <ele>298.2</ele>
        <time>2024-05-04T07:21:28Z</time>
      </trkpt>
      <trkpt lat="50.01469" lon="4.29008">
        <ele>298.2</ele>
        <time>2024-05-04T07:21:29Z</time>
      </trkpt>
      <trkpt lat="50.01467" lon="4.28999">
        <ele>298.2</ele>
        <time>2024-05-04T07:21:30Z</time>
      </trkpt>
      <trkpt lat="50.01465" lon="4.28989">
        <ele>298.4</ele>
        <time>2024-05-04T07:21:31Z</time>
      </trkpt>
      <trkpt lat="50.01463" lon="4.28979">
        <ele>298.2</ele>
        <time>2024-05-04T07:21:32Z</time>
      </trkpt>
      <trkpt lat="50.01461" lon="4.28969">
        <ele>298.2</ele>
        <time>2024-05-04T07:21:33Z</time>
      </trkpt>
      <trkpt lat="50.01459" lon="4.28959">
        <ele>298.2</ele>
        <time>2024-05-04T07:21:34Z</time>
      </trkpt>
      <trkpt lat="50.01456" lon="4.28949">
        <ele>298.2</ele>
        <time>2024-05-04T07:21:35Z</time>
      </trkpt>
      <trkpt lat="50.01454" lon="4.28939">
        <ele>298.2</ele>
        <time>2024-05-04T07:21:36Z</time>
      </trkpt>
      <trkpt lat="50.01452" lon="4.28929">
        <ele>298.4</ele>
        <time>2024-05-04T07:21:37Z</time>
      </trkpt>
      <trkpt lat="50.0145" lon="4.28919">
        <ele>298.2</ele>
        <time>2024-05-04T07:21:38Z</time>
      </trkpt>
      <trkpt lat="50.01448" lon="4.28909">
        <ele>298.4</ele>
        <time>2024-05-04T07:21:39Z</time>
      </trkpt>
      <trkpt lat="50.01445" lon="4.289">
        <ele>298.4</ele>
        <time>2024-05-04T07:21:40Z</time>
      </trkpt>
      <trkpt lat="50.01443" lon="4.2889">
        <ele>298.4</ele>
        <time>2024-05-04T07:21:41Z</time>
      </trkpt>
      <trkpt lat="50.01441" lon="4.2888">
        <ele>298.2</ele>
        <time>2024-05-04T07:21:42Z</time>
      </trkpt>
      <trkpt lat="50.01439" lon="4.2887">
        <ele>298.2</ele>
        <time>2024-05-04T07:21:43Z</time>
      </trkpt>
      <trkpt lat="50.01437" lon="4.2886">
        <ele>298.4</ele>
        <time>2024-05-04T07:21:44Z</time>
      </trkpt>
      <trkpt lat="50.01435" lon="4.2885">
        <ele>298.4</ele>
        <time>2024-05-04T07:21:45Z</time>
      </trkpt>
      <trkpt lat="50.01433" lon="4.2884">
        <ele>298.4</ele>
        <time>2024-05-04T07:21:46Z</time>
      </trkpt>
      <trkpt lat="50.0143" lon="4.2883">
        <ele>298.4</ele>
        <time>2024-05-04T07:21:47Z</time>
      </trkpt>
      <trkpt lat="50.01428" lon="4.2882">
        <ele>298.4</ele>
        <time>2024-05-04T07:21:48Z</time>
      </trkpt>
      <trkpt lat="50.01426" lon="4.28811">
        <ele>298.2</ele>
        <time>2024-05-04T07:21:49Z</time>
      </trkpt>
      <trkpt lat="50.01424" lon="4.28801">
        <ele>298.4</ele>
        <time>2024-05-04T07:21:50Z</time>
      </trkpt>
      <trkpt lat="50.01421" lon="4.28791">
        <ele>298.2</ele>
        <time>2024-05-04T07:21:51Z</time>
      </trkpt>
      <trkpt lat="50.01419" lon="4.28781">
        <ele>297.8</ele>
        <time>2024-05-04T07:21:52Z</time>
      </trkpt>
      <trkpt lat="50.01417" lon="4.28771">
        <ele>298</ele>
        <time>2024-05-04T07:21:53Z</time>
      </trkpt>
      <trkpt lat="50.01415" lon="4.28761">
        <ele>298</ele>
        <time>2024-05-04T07:21:54Z</time>
      </trkpt>
      <trkpt lat="50.01413" lon="4.28751">
        <ele>297.8</ele>
        <time>2024-05-04T07:21:55Z</time>
      </trkpt>
      <trkpt lat="50.01411" lon="4.28741">
        <ele>297.8</ele>
        <time>2024-05-04T07:21:56Z</time>
      </trkpt>
      <trkpt lat="50.01409" lon="4.28732">
        <ele>297.8</ele>
        <time>2024-05-04T07:21:57Z</time>
      </trkpt>
      <trkpt lat="50.01407" lon="4.28722">
        <ele>297.8</ele>
        <time>2024-05-04T07:21:58Z</time>
      </trkpt>
      <trkpt lat="50.01404" lon="4.28712">
        <ele>297.8</ele>
        <time>2024-05-04T07:21:59Z</time>
      </trkpt>
      <trkpt lat="50.01402" lon="4.28703">
        <ele>297.6</ele>
        <time>2024-05-04T07:22:00Z</time>
      </trkpt>
      <trkpt lat="50.014" lon="4.28692">
        <ele>297.6</ele>
        <time>2024-05-04T07:22:01Z</time>
      </trkpt>
      <trkpt lat="50.01397" lon="4.28682">
        <ele>297.4</ele>
        <time>2024-05-04T07:22:02Z</time>
      </trkpt>
      <trkpt lat="50.01395" lon="4.28671">
        <ele>297.4</ele>
        <time>2024-05-04T07:22:03Z</time>
      </trkpt>
      <trkpt lat="50.01393" lon="4.28661">
        <ele>297.2</ele>
        <time>2024-05-04T07:22:04Z</time>
      </trkpt>
      <trkpt lat="50.01391" lon="4.28649">
        <ele>297.2</ele>
        <time>2024-05-04T07:22:05Z</time>
      </trkpt>
      <trkpt lat="50.01388" lon="4.28638">
        <ele>296.6</ele>
        <time>2024-05-04T07:22:06Z</time>
      </trkpt>
      <trkpt lat="50.01385" lon="4.28627">
        <ele>296.4</ele>
        <time>2024-05-04T07:22:07Z</time>
      </trkpt>
      <trkpt lat="50.01383" lon="4.28616">
        <ele>296.2</ele>
        <time>2024-05-04T07:22:08Z</time>
      </trkpt>
      <trkpt lat="50.0138" lon="4.28605">
        <ele>296.2</ele>
        <time>2024-05-04T07:22:09Z</time>
      </trkpt>
      <trkpt lat="50.01377" lon="4.28593">
        <ele>296</ele>
        <time>2024-05-04T07:22:10Z</time>
      </trkpt>
      <trkpt lat="50.01374" lon="4.28581">
        <ele>296</ele>
        <time>2024-05-04T07:22:11Z</time>
      </trkpt>
      <trkpt lat="50.01371" lon="4.28569">
        <ele>296</ele>
        <time>2024-05-04T07:22:12Z</time>
      </trkpt>
      <trkpt lat="50.01368" lon="4.28556">
        <ele>296</ele>
        <time>2024-05-04T07:22:13Z</time>
      </trkpt>
      <trkpt lat="50.01366" lon="4.28544">
        <ele>295.6</ele>
        <time>2024-05-04T07:22:14Z</time>
      </trkpt>
      <trkpt lat="50.01363" lon="4.28531">
        <ele>295.4</ele>
        <time>2024-05-04T07:22:15Z</time>
      </trkpt>
      <trkpt lat="50.0136" lon="4.28519">
        <ele>295.2</ele>
        <time>2024-05-04T07:22:16Z</time>
      </trkpt>
      <trkpt lat="50.01357" lon="4.28506">
        <ele>295.2</ele>
        <time>2024-05-04T07:22:17Z</time>
      </trkpt>
      <trkpt lat="50.01354" lon="4.28493">
        <ele>295.2</ele>
        <time>2024-05-04T07:22:18Z</time>
      </trkpt>
      <trkpt lat="50.01352" lon="4.2848">
        <ele>295</ele>
        <time>2024-05-04T07:22:19Z</time>
      </trkpt>
      <trkpt lat="50.01349" lon="4.28467">
        <ele>293.8</ele>
        <time>2024-05-04T07:22:20Z</time>
      </trkpt>
      <trkpt lat="50.01346" lon="4.28453">
        <ele>292.4</ele>
        <time>2024-05-04T07:22:21Z</time>
      </trkpt>
      <trkpt lat="50.01343" lon="4.2844">
        <ele>291.6</ele>
        <time>2024-05-04T07:22:22Z</time>
      </trkpt>
      <trkpt lat="50.0134" lon="4.28426">
        <ele>291.2</ele>
        <time>2024-05-04T07:22:23Z</time>
      </trkpt>
      <trkpt lat="50.01337" lon="4.28412">
        <ele>291</ele>
        <time>2024-05-04T07:22:24Z</time>
      </trkpt>
      <trkpt lat="50.01334" lon="4.28399">
        <ele>290.6</ele>
        <time>2024-05-04T07:22:25Z</time>
      </trkpt>
      <trkpt lat="50.01332" lon="4.28385">
        <ele>290.4</ele>
        <time>2024-05-04T07:22:26Z</time>
      </trkpt>
      <trkpt lat="50.01329" lon="4.28371">
        <ele>290.2</ele>
        <time>2024-05-04T07:22:27Z</time>
      </trkpt>
      <trkpt lat="50.01326" lon="4.28357">
        <ele>290.2</ele>
        <time>2024-05-04T07:22:28Z</time>
      </trkpt>
      <trkpt lat="50.01323" lon="4.28343">
        <ele>290.2</ele>
        <time>2024-05-04T07:22:29Z</time>
      </trkpt>
      <trkpt lat="50.0132" lon="4.28328">
        <ele>290.2</ele>
        <time>2024-05-04T07:22:30Z</time>
      </trkpt>
      <trkpt lat="50.01316" lon="4.28314">
        <ele>289.8</ele>
        <time>2024-05-04T07:22:31Z</time>
      </trkpt>
      <trkpt lat="50.01313" lon="4.283">
        <ele>289.4</ele>
        <time>2024-05-04T07:22:32Z</time>
      </trkpt>
      <trkpt lat="50.0131" lon="4.28286">
        <ele>289.2</ele>
        <time>2024-05-04T07:22:33Z</time>
      </trkpt>
      <trkpt lat="50.01307" lon="4.28271">
        <ele>289.2</ele>
        <time>2024-05-04T07:22:34Z</time>
      </trkpt>
      <trkpt lat="50.01304" lon="4.28257">
        <ele>288.8</ele>
        <time>2024-05-04T07:22:35Z</time>
      </trkpt>
      <trkpt lat="50.01301" lon="4.28242">
        <ele>288.2</ele>
        <time>2024-05-04T07:22:36Z</time>
      </trkpt>
      <trkpt lat="50.01298" lon="4.28228">
        <ele>288</ele>
        <time>2024-05-04T07:22:37Z</time>
      </trkpt>
      <trkpt lat="50.01295" lon="4.28213">
        <ele>287.8</ele>
        <time>2024-05-04T07:22:38Z</time>
      </trkpt>
      <trkpt lat="50.01291" lon="4.28199">
        <ele>287.6</ele>
        <time>2024-05-04T07:22:39Z</time>
      </trkpt>
      <trkpt lat="50.01288" lon="4.28184">
        <ele>287</ele>
        <time>2024-05-04T07:22:40Z</time>
      </trkpt>
      <trkpt lat="50.01285" lon="4.28169">
        <ele>286.8</ele>
        <time>2024-05-04T07:22:41Z</time>
      </trkpt>
      <trkpt lat="50.01282" lon="4.28155">
        <ele>286.4</ele>
        <time>2024-05-04T07:22:42Z</time>
      </trkpt>
      <trkpt lat="50.01278" lon="4.2814">
        <ele>285.8</ele>
        <time>2024-05-04T07:22:43Z</time>
      </trkpt>
      <trkpt lat="50.01276" lon="4.28126">
        <ele>285.2</ele>
        <time>2024-05-04T07:22:44Z</time>
      </trkpt>
      <trkpt lat="50.01273" lon="4.28112">
        <ele>285.2</ele>
        <time>2024-05-04T07:22:45Z</time>
      </trkpt>
      <trkpt lat="50.0127" lon="4.28098">
        <ele>285</ele>
        <time>2024-05-04T07:22:46Z</time>
      </trkpt>
      <trkpt lat="50.01267" lon="4.28085">
        <ele>284.6</ele>
        <time>2024-05-04T07:22:47Z</time>
      </trkpt>
      <trkpt lat="50.01264" lon="4.28072">
        <ele>284</ele>
        <time>2024-05-04T07:22:48Z</time>
      </trkpt>
      <trkpt lat="50.01262" lon="4.28059">
        <ele>283.8</ele>
        <time>2024-05-04T07:22:49Z</time>
      </trkpt>
      <trkpt lat="50.01259" lon="4.28046">
        <ele>283.8</ele>
        <time>2024-05-04T07:22:50Z</time>
      </trkpt>
      <trkpt lat="50.01256" lon="4.28034">
        <ele>283.8</ele>
        <time>2024-05-04T07:22:51Z</time>
      </trkpt>
      <trkpt lat="50.01254" lon="4.28021">
        <ele>283.6</ele>
        <time>2024-05-04T07:22:52Z</time>
      </trkpt>
      <trkpt lat="50.01251" lon="4.28009">
        <ele>283.6</ele>
        <time>2024-05-04T07:22:53Z</time>
      </trkpt>
      <trkpt lat="50.01248" lon="4.27997">
        <ele>283.6</ele>
        <time>2024-05-04T07:22:54Z</time>
      </trkpt>
      <trkpt lat="50.01246" lon="4.27985">
        <ele>283.4</ele>
        <time>2024-05-04T07:22:55Z</time>
      </trkpt>
      <trkpt lat="50.01243" lon="4.27973">
        <ele>283.6</ele>
        <time>2024-05-04T07:22:56Z</time>
      </trkpt>
      <trkpt lat="50.01241" lon="4.27961">
        <ele>283.6</ele>
        <time>2024-05-04T07:22:57Z</time>
      </trkpt>
      <trkpt lat="50.01238" lon="4.2795">
        <ele>283.4</ele>
        <time>2024-05-04T07:22:58Z</time>
      </trkpt>
      <trkpt lat="50.01235" lon="4.27938">
        <ele>283.6</ele>
        <time>2024-05-04T07:22:59Z</time>
      </trkpt>
      <trkpt lat="50.01233" lon="4.27926">
        <ele>283.6</ele>
        <time>2024-05-04T07:23:00Z</time>
      </trkpt>
      <trkpt lat="50.0123" lon="4.27915">
        <ele>283.6</ele>
        <time>2024-05-04T07:23:01Z</time>
      </trkpt>
      <trkpt lat="50.01228" lon="4.27903">
        <ele>283.6</ele>
        <time>2024-05-04T07:23:02Z</time>
      </trkpt>
      <trkpt lat="50.01225" lon="4.27892">
        <ele>283.6</ele>
        <time>2024-05-04T07:23:03Z</time>
      </trkpt>
      <trkpt lat="50.01223" lon="4.2788">
        <ele>283.8</ele>
        <time>2024-05-04T07:23:04Z</time>
      </trkpt>
      <trkpt lat="50.0122" lon="4.2787">
        <ele>283.8</ele>
        <time>2024-05-04T07:23:05Z</time>
      </trkpt>
      <trkpt lat="50.01217" lon="4.27859">
        <ele>283.8</ele>
        <time>2024-05-04T07:23:06Z</time>
      </trkpt>
      <trkpt lat="50.01215" lon="4.27849">
        <ele>284</ele>
        <time>2024-05-04T07:23:07Z</time>
      </trkpt>
      <trkpt lat="50.01212" lon="4.27838">
        <ele>284</ele>
        <time>2024-05-04T07:23:08Z</time>
      </trkpt>
      <trkpt lat="50.0121" lon="4.27826">
        <ele>283.8</ele>
        <time>2024-05-04T07:23:09Z</time>
      </trkpt>
      <trkpt lat="50.01208" lon="4.27815">
        <ele>283.8</ele>
        <time>2024-05-04T07:23:10Z</time>
      </trkpt>
      <trkpt lat="50.01206" lon="4.27804">
        <ele>284</ele>
        <time>2024-05-04T07:23:11Z</time>
      </trkpt>
      <trkpt lat="50.01203" lon="4.27794">
        <ele>283.8</ele>
        <time>2024-05-04T07:23:12Z</time>
      </trkpt>
      <trkpt lat="50.01201" lon="4.27783">
        <ele>283.8</ele>
        <time>2024-05-04T07:23:13Z</time>
      </trkpt>
      <trkpt lat="50.01199" lon="4.27772">
        <ele>283.8</ele>
        <time>2024-05-04T07:23:14Z</time>
      </trkpt>
      <trkpt lat="50.01197" lon="4.27762">
        <ele>283.8</ele>
        <time>2024-05-04T07:23:15Z</time>
      </trkpt>
      <trkpt lat="50.01195" lon="4.27751">
        <ele>283.8</ele>
        <time>2024-05-04T07:23:16Z</time>
      </trkpt>
      <trkpt lat="50.01193" lon="4.2774">
        <ele>283.8</ele>
        <time>2024-05-04T07:23:17Z</time>
      </trkpt>
      <trkpt lat="50.0119" lon="4.27728">
        <ele>283.8</ele>
        <time>2024-05-04T07:23:18Z</time>
      </trkpt>
      <trkpt lat="50.01189" lon="4.27718">
        <ele>283.6</ele>
        <time>2024-05-04T07:23:19Z</time>
      </trkpt>
      <trkpt lat="50.01186" lon="4.27707">
        <ele>283.6</ele>
        <time>2024-05-04T07:23:20Z</time>
      </trkpt>
      <trkpt lat="50.01184" lon="4.27696">
        <ele>283.8</ele>
        <time>2024-05-04T07:23:21Z</time>
      </trkpt>
      <trkpt lat="50.01181" lon="4.27685">
        <ele>283.8</ele>
        <time>2024-05-04T07:23:22Z</time>
      </trkpt>
      <trkpt lat="50.01179" lon="4.27674">
        <ele>283.8</ele>
        <time>2024-05-04T07:23:23Z</time>
      </trkpt>
      <trkpt lat="50.01177" lon="4.27663">
        <ele>284</ele>
        <time>2024-05-04T07:23:24Z</time>
      </trkpt>
      <trkpt lat="50.01174" lon="4.27652">
        <ele>283.8</ele>
        <time>2024-05-04T07:23:25Z</time>
      </trkpt>
      <trkpt lat="50.01172" lon="4.27641">
        <ele>284</ele>
        <time>2024-05-04T07:23:26Z</time>
      </trkpt>
      <trkpt lat="50.01169" lon="4.2763">
        <ele>283.8</ele>
        <time>2024-05-04T07:23:27Z</time>
      </trkpt>
      <trkpt lat="50.01166" lon="4.2762">
        <ele>283.8</ele>
        <time>2024-05-04T07:23:28Z</time>
      </trkpt>
      <trkpt lat="50.01164" lon="4.27609">
        <ele>284</ele>
        <time>2024-05-04T07:23:29Z</time>
      </trkpt>
      <trkpt lat="50.01162" lon="4.27598">
        <ele>284</ele>
        <time>2024-05-04T07:23:30Z</time>
      </trkpt>
      <trkpt lat="50.01159" lon="4.27588">
        <ele>284</ele>
        <time>2024-05-04T07:23:31Z</time>
      </trkpt>
      <trkpt lat="50.01157" lon="4.27577">
        <ele>284.2</ele>
        <time>2024-05-04T07:23:32Z</time>
      </trkpt>
      <trkpt lat="50.01154" lon="4.27567">
        <ele>284.2</ele>
        <time>2024-05-04T07:23:33Z</time>
      </trkpt>
      <trkpt lat="50.01152" lon="4.27556">
        <ele>284.4</ele>
        <time>2024-05-04T07:23:34Z</time>
      </trkpt>
      <trkpt lat="50.0115" lon="4.27545">
        <ele>284.4</ele>
        <time>2024-05-04T07:23:35Z</time>
      </trkpt>
      <trkpt lat="50.01148" lon="4.27534">
        <ele>284.4</ele>
        <time>2024-05-04T07:23:36Z</time>
      </trkpt>
      <trkpt lat="50.01146" lon="4.27523">
        <ele>284.4</ele>
        <time>2024-05-04T07:23:37Z</time>
      </trkpt>
      <trkpt lat="50.01144" lon="4.27512">
        <ele>284.4</ele>
        <time>2024-05-04T07:23:38Z</time>
      </trkpt>
      <trkpt lat="50.01142" lon="4.27501">
        <ele>284.4</ele>
        <time>2024-05-04T07:23:39Z</time>
      </trkpt>
      <trkpt lat="50.01139" lon="4.27489">
        <ele>284.4</ele>
        <time>2024-05-04T07:23:40Z</time>
      </trkpt>
      <trkpt lat="50.01137" lon="4.27478">
        <ele>284.4</ele>
        <time>2024-05-04T07:23:41Z</time>
      </trkpt>
      <trkpt lat="50.01134" lon="4.27467">
        <ele>284.6</ele>
        <time>2024-05-04T07:23:42Z</time>
      </trkpt>
      <trkpt lat="50.01132" lon="4.27456">
        <ele>284.6</ele>
        <time>2024-05-04T07:23:43Z</time>
      </trkpt>
      <trkpt lat="50.01129" lon="4.27446">
        <ele>284.4</ele>
        <time>2024-05-04T07:23:44Z</time>
      </trkpt>
      <trkpt lat="50.01126" lon="4.27435">
        <ele>284.6</ele>
        <time>2024-05-04T07:23:45Z</time>
      </trkpt>
      <trkpt lat="50.01123" lon="4.27424">
        <ele>284.6</ele>
        <time>2024-05-04T07:23:46Z</time>
      </trkpt>
      <trkpt lat="50.01121" lon="4.27413">
        <ele>284.6</ele>
        <time>2024-05-04T07:23:47Z</time>
      </trkpt>
      <trkpt lat="50.01118" lon="4.27403">
        <ele>284.6</ele>
        <time>2024-05-04T07:23:48Z</time>
      </trkpt>
      <trkpt lat="50.01116" lon="4.27392">
        <ele>284.4</ele>
        <time>2024-05-04T07:23:49Z</time>
      </trkpt>
      <trkpt lat="50.01114" lon="4.27381">
        <ele>284.4</ele>
        <time>2024-05-04T07:23:50Z</time>
      </trkpt>
      <trkpt lat="50.01111" lon="4.2737">
        <ele>284.4</ele>
        <time>2024-05-04T07:23:51Z</time>
      </trkpt>
      <trkpt lat="50.01108" lon="4.27359">
        <ele>284.6</ele>
        <time>2024-05-04T07:23:52Z</time>
      </trkpt>
      <trkpt lat="50.01106" lon="4.27347">
        <ele>284.4</ele>
        <time>2024-05-04T07:23:53Z</time>
      </trkpt>
      <trkpt lat="50.01103" lon="4.27336">
        <ele>284.4</ele>
        <time>2024-05-04T07:23:54Z</time>
      </trkpt>
      <trkpt lat="50.01101" lon="4.27325">
        <ele>284.4</ele>
        <time>2024-05-04T07:23:55Z</time>
      </trkpt>
      <trkpt lat="50.01099" lon="4.27315">
        <ele>284.4</ele>
        <time>2024-05-04T07:23:56Z</time>
      </trkpt>
      <trkpt lat="50.01097" lon="4.27304">
        <ele>284.4</ele>
        <time>2024-05-04T07:23:57Z</time>
      </trkpt>
      <trkpt lat="50.01095" lon="4.27294">
        <ele>284.4</ele>
        <time>2024-05-04T07:23:58Z</time>
      </trkpt>
      <trkpt lat="50.01093" lon="4.27285">
        <ele>284.4</ele>
        <time>2024-05-04T07:23:59Z</time>
      </trkpt>
      <trkpt lat="50.01091" lon="4.27275">
        <ele>284.4</ele>
        <time>2024-05-04T07:24:00Z</time>
      </trkpt>
      <trkpt lat="50.01089" lon="4.27266">
        <ele>284.4</ele>
        <time>2024-05-04T07:24:01Z</time>
      </trkpt>
      <trkpt lat="50.01087" lon="4.27257">
        <ele>284.4</ele>
        <time>2024-05-04T07:24:02Z</time>
      </trkpt>
      <trkpt lat="50.01085" lon="4.27248">
        <ele>284.4</ele>
        <time>2024-05-04T07:24:03Z</time>
      </trkpt>
      <trkpt lat="50.01083" lon="4.2724">
        <ele>284.2</ele>
        <time>2024-05-04T07:24:04Z</time>
      </trkpt>
      <trkpt lat="50.01082" lon="4.27231">
        <ele>284.4</ele>
        <time>2024-05-04T07:24:05Z</time>
      </trkpt>
      <trkpt lat="50.0108" lon="4.27222">
        <ele>284.6</ele>
        <time>2024-05-04T07:24:06Z</time>
      </trkpt>
      <trkpt lat="50.01079" lon="4.27214">
        <ele>284.6</ele>
        <time>2024-05-04T07:24:07Z</time>
      </trkpt>
      <trkpt lat="50.01078" lon="4.27206">
        <ele>285</ele>
        <time>2024-05-04T07:24:08Z</time>
      </trkpt>
      <trkpt lat="50.01079" lon="4.27198">
        <ele>285</ele>
        <time>2024-05-04T07:24:09Z</time>
      </trkpt>
      <trkpt lat="50.01078" lon="4.2719">
        <ele>285.4</ele>
        <time>2024-05-04T07:24:10Z</time>
      </trkpt>
      <trkpt lat="50.01077" lon="4.27182">
        <ele>286</ele>
        <time>2024-05-04T07:24:11Z</time>
      </trkpt>
      <trkpt lat="50.01077" lon="4.27174">
        <ele>286.2</ele>
        <time>2024-05-04T07:24:12Z</time>
      </trkpt>
      <trkpt lat="50.01077" lon="4.27166">
        <ele>286.6</ele>
        <time>2024-05-04T07:24:13Z</time>
      </trkpt>
      <trkpt lat="50.01077" lon="4.27157">
        <ele>286.8</ele>
        <time>2024-05-04T07:24:14Z</time>
      </trkpt>
      <trkpt lat="50.01077" lon="4.27149">
        <ele>287</ele>
        <time>2024-05-04T07:24:15Z</time>
      </trkpt>
      <trkpt lat="50.01077" lon="4.27141">
        <ele>287.2</ele>
        <time>2024-05-04T07:24:16Z</time>
      </trkpt>
      <trkpt lat="50.01078" lon="4.27132">
        <ele>287.4</ele>
        <time>2024-05-04T07:24:17Z</time>
      </trkpt>
      <trkpt lat="50.01078" lon="4.27124">
        <ele>287.8</ele>
        <time>2024-05-04T07:24:18Z</time>
      </trkpt>
      <trkpt lat="50.01079" lon="4.27116">
        <ele>288.2</ele>
        <time>2024-05-04T07:24:19Z</time>
      </trkpt>
      <trkpt lat="50.01079" lon="4.27107">
        <ele>288.6</ele>
        <time>2024-05-04T07:24:20Z</time>
      </trkpt>
      <trkpt lat="50.0108" lon="4.27099">
        <ele>288.6</ele>
        <time>2024-05-04T07:24:21Z</time>
      </trkpt>
      <trkpt lat="50.01081" lon="4.2709">
        <ele>289.2</ele>
        <time>2024-05-04T07:24:22Z</time>
      </trkpt>
      <trkpt lat="50.01083" lon="4.27081">
        <ele>289.6</ele>
        <time>2024-05-04T07:24:23Z</time>
      </trkpt>
      <trkpt lat="50.01084" lon="4.27073">
        <ele>289.8</ele>
        <time>2024-05-04T07:24:24Z</time>
      </trkpt>
      <trkpt lat="50.01086" lon="4.27064">
        <ele>289.8</ele>
        <time>2024-05-04T07:24:25Z</time>
      </trkpt>
      <trkpt lat="50.01087" lon="4.27056">
        <ele>290.2</ele>
        <time>2024-05-04T07:24:26Z</time>
      </trkpt>
      <trkpt lat="50.01089" lon="4.27047">
        <ele>290.4</ele>
        <time>2024-05-04T07:24:27Z</time>
      </trkpt>
      <trkpt lat="50.01091" lon="4.27039">
        <ele>290.4</ele>
        <time>2024-05-04T07:24:28Z</time>
      </trkpt>
      <trkpt lat="50.01094" lon="4.2703">
        <ele>290.4</ele>
        <time>2024-05-04T07:24:29Z</time>
      </trkpt>
      <trkpt lat="50.01096" lon="4.27022">
        <ele>290.8</ele>
        <time>2024-05-04T07:24:30Z</time>
      </trkpt>
      <trkpt lat="50.01099" lon="4.27014">
        <ele>291.2</ele>
        <time>2024-05-04T07:24:31Z</time>
      </trkpt>
      <trkpt lat="50.01101" lon="4.27006">
        <ele>291.6</ele>
        <time>2024-05-04T07:24:32Z</time>
      </trkpt>
      <trkpt lat="50.01104" lon="4.26998">
        <ele>291.4</ele>
        <time>2024-05-04T07:24:33Z</time>
      </trkpt>
      <trkpt lat="50.01107" lon="4.2699">
        <ele>291.8</ele>
        <time>2024-05-04T07:24:34Z</time>
      </trkpt>
      <trkpt lat="50.0111" lon="4.26982">
        <ele>291.8</ele>
        <time>2024-05-04T07:24:35Z</time>
      </trkpt>
      <trkpt lat="50.01113" lon="4.26974">
        <ele>292</ele>
        <time>2024-05-04T07:24:36Z</time>
      </trkpt>
      <trkpt lat="50.01117" lon="4.26966">
        <ele>292</ele>
        <time>2024-05-04T07:24:37Z</time>
      </trkpt>
      <trkpt lat="50.0112" lon="4.26958">
        <ele>292</ele>
        <time>2024-05-04T07:24:38Z</time>
      </trkpt>
      <trkpt lat="50.01123" lon="4.2695">
        <ele>292.2</ele>
        <time>2024-05-04T07:24:39Z</time>
      </trkpt>
      <trkpt lat="50.01127" lon="4.26943">
        <ele>292.2</ele>
        <time>2024-05-04T07:24:40Z</time>
      </trkpt>
      <trkpt lat="50.0113" lon="4.26935">
        <ele>292.2</ele>
        <time>2024-05-04T07:24:41Z</time>
      </trkpt>
      <trkpt lat="50.01133" lon="4.26927">
        <ele>292.4</ele>
        <time>2024-05-04T07:24:42Z</time>
      </trkpt>
      <trkpt lat="50.01136" lon="4.26919">
        <ele>292.4</ele>
        <time>2024-05-04T07:24:43Z</time>
      </trkpt>
      <trkpt lat="50.01139" lon="4.26911">
        <ele>292.4</ele>
        <time>2024-05-04T07:24:44Z</time>
      </trkpt>
      <trkpt lat="50.01143" lon="4.26903">
        <ele>292.6</ele>
        <time>2024-05-04T07:24:45Z</time>
      </trkpt>
      <trkpt lat="50.01146" lon="4.26895">
        <ele>292.6</ele>
        <time>2024-05-04T07:24:46Z</time>
      </trkpt>
      <trkpt lat="50.01149" lon="4.26887">
        <ele>292.6</ele>
        <time>2024-05-04T07:24:47Z</time>
      </trkpt>
      <trkpt lat="50.01153" lon="4.26879">
        <ele>292.4</ele>
        <time>2024-05-04T07:24:48Z</time>
      </trkpt>
      <trkpt lat="50.01156" lon="4.2687">
        <ele>292.6</ele>
        <time>2024-05-04T07:24:49Z</time>
      </trkpt>
      <trkpt lat="50.0116" lon="4.26862">
        <ele>292.4</ele>
        <time>2024-05-04T07:24:50Z</time>
      </trkpt>
      <trkpt lat="50.01163" lon="4.26853">
        <ele>292.4</ele>
        <time>2024-05-04T07:24:51Z</time>
      </trkpt>
      <trkpt lat="50.01167" lon="4.26844">
        <ele>292.6</ele>
        <time>2024-05-04T07:24:52Z</time>
      </trkpt>
      <trkpt lat="50.01171" lon="4.26834">
        <ele>292.4</ele>
        <time>2024-05-04T07:24:53Z</time>
      </trkpt>
      <trkpt lat="50.01175" lon="4.26825">
        <ele>292.6</ele>
        <time>2024-05-04T07:24:54Z</time>
      </trkpt>
      <trkpt lat="50.01179" lon="4.26815">
        <ele>292.4</ele>
        <time>2024-05-04T07:24:55Z</time>
      </trkpt>
      <trkpt lat="50.01183" lon="4.26804">
        <ele>292.4</ele>
        <time>2024-05-04T07:24:56Z</time>
      </trkpt>
      <trkpt lat="50.01187" lon="4.26794">
        <ele>292.4</ele>
        <time>2024-05-04T07:24:57Z</time>
      </trkpt>
      <trkpt lat="50.01192" lon="4.26783">
        <ele>292.2</ele>
        <time>2024-05-04T07:24:58Z</time>
      </trkpt>
      <trkpt lat="50.01196" lon="4.26772">
        <ele>292.2</ele>
        <time>2024-05-04T07:24:59Z</time>
      </trkpt>
      <trkpt lat="50.01201" lon="4.2676">
        <ele>292.2</ele>
        <time>2024-05-04T07:25:00Z</time>
      </trkpt>
      <trkpt lat="50.01205" lon="4.26748">
        <ele>292.2</ele>
        <time>2024-05-04T07:25:01Z</time>
      </trkpt>
      <trkpt lat="50.0121" lon="4.26737">
        <ele>292</ele>
        <time>2024-05-04T07:25:02Z</time>
      </trkpt>
      <trkpt lat="50.01215" lon="4.26725">
        <ele>291.8</ele>
        <time>2024-05-04T07:25:03Z</time>
      </trkpt>
      <trkpt lat="50.0122" lon="4.26713">
        <ele>291.2</ele>
        <time>2024-05-04T07:25:04Z</time>
      </trkpt>
      <trkpt lat="50.01225" lon="4.267">
        <ele>291</ele>
        <time>2024-05-04T07:25:05Z</time>
      </trkpt>
      <trkpt lat="50.0123" lon="4.26688">
        <ele>290.8</ele>
        <time>2024-05-04T07:25:06Z</time>
      </trkpt>
      <trkpt lat="50.01236" lon="4.26675">
        <ele>290</ele>
        <time>2024-05-04T07:25:07Z</time>
      </trkpt>
      <trkpt lat="50.01241" lon="4.26662">
        <ele>289.4</ele>
        <time>2024-05-04T07:25:08Z</time>
      </trkpt>
      <trkpt lat="50.01246" lon="4.26649">
        <ele>288.8</ele>
        <time>2024-05-04T07:25:09Z</time>
      </trkpt>
      <trkpt lat="50.01252" lon="4.26635">
        <ele>288.4</ele>
        <time>2024-05-04T07:25:10Z</time>
      </trkpt>
      <trkpt lat="50.01257" lon="4.26621">
        <ele>288</ele>
        <time>2024-05-04T07:25:11Z</time>
      </trkpt>
      <trkpt lat="50.01263" lon="4.26607">
        <ele>287.8</ele>
        <time>2024-05-04T07:25:12Z</time>
      </trkpt>
      <trkpt lat="50.01268" lon="4.26593">
        <ele>287</ele>
        <time>2024-05-04T07:25:13Z</time>
      </trkpt>
      <trkpt lat="50.01273" lon="4.26578">
        <ele>286.2</ele>
        <time>2024-05-04T07:25:14Z</time>
      </trkpt>
      <trkpt lat="50.01278" lon="4.26563">
        <ele>285.6</ele>
        <time>2024-05-04T07:25:15Z</time>
      </trkpt>
      <trkpt lat="50.01283" lon="4.26547">
        <ele>285</ele>
        <time>2024-05-04T07:25:16Z</time>
      </trkpt>
      <trkpt lat="50.01287" lon="4.26531">
        <ele>284.6</ele>
        <time>2024-05-04T07:25:17Z</time>
      </trkpt>
      <trkpt lat="50.01291" lon="4.26514">
        <ele>284.6</ele>
        <time>2024-05-04T07:25:18Z</time>
      </trkpt>
      <trkpt lat="50.01294" lon="4.26497">
        <ele>283.8</ele>
        <time>2024-05-04T07:25:19Z</time>
      </trkpt>
      <trkpt lat="50.01297" lon="4.26479">
        <ele>283.4</ele>
        <time>2024-05-04T07:25:20Z</time>
      </trkpt>
      <trkpt lat="50.01299" lon="4.26461">
        <ele>282.6</ele>
        <time>2024-05-04T07:25:21Z</time>
      </trkpt>
      <trkpt lat="50.01302" lon="4.26443">
        <ele>282</ele>
        <time>2024-05-04T07:25:22Z</time>
      </trkpt>
      <trkpt lat="50.01304" lon="4.26425">
        <ele>281.6</ele>
        <time>2024-05-04T07:25:23Z</time>
      </trkpt>
      <trkpt lat="50.01306" lon="4.26408">
        <ele>281.4</ele>
        <time>2024-05-04T07:25:24Z</time>
      </trkpt>
      <trkpt lat="50.01308" lon="4.2639">
        <ele>281</ele>
        <time>2024-05-04T07:25:25Z</time>
      </trkpt>
      <trkpt lat="50.0131" lon="4.26374">
        <ele>280</ele>
        <time>2024-05-04T07:25:26Z</time>
      </trkpt>
      <trkpt lat="50.01313" lon="4.26357">
        <ele>278.4</ele>
        <time>2024-05-04T07:25:27Z</time>
      </trkpt>
      <trkpt lat="50.01316" lon="4.26342">
        <ele>277.2</ele>
        <time>2024-05-04T07:25:28Z</time>
      </trkpt>
      <trkpt lat="50.0132" lon="4.26328">
        <ele>276.6</ele>
        <time>2024-05-04T07:25:29Z</time>
      </trkpt>
      <trkpt lat="50.01323" lon="4.26314">
        <ele>276.2</ele>
        <time>2024-05-04T07:25:30Z</time>
      </trkpt>
      <trkpt lat="50.01327" lon="4.26301">
        <ele>276.2</ele>
        <time>2024-05-04T07:25:31Z</time>
      </trkpt>
      <trkpt lat="50.01331" lon="4.26289">
        <ele>276.2</ele>
        <time>2024-05-04T07:25:32Z</time>
      </trkpt>
      <trkpt lat="50.01336" lon="4.26277">
        <ele>276.2</ele>
        <time>2024-05-04T07:25:33Z</time>
      </trkpt>
      <trkpt lat="50.0134" lon="4.26265">
        <ele>276.2</ele>
        <time>2024-05-04T07:25:34Z</time>
      </trkpt>
      <trkpt lat="50.01344" lon="4.26254">
        <ele>276.2</ele>
        <time>2024-05-04T07:25:35Z</time>
      </trkpt>
      <trkpt lat="50.01348" lon="4.26242">
        <ele>276</ele>
        <time>2024-05-04T07:25:36Z</time>
      </trkpt>
      <trkpt lat="50.01353" lon="4.26231">
        <ele>276</ele>
        <time>2024-05-04T07:25:37Z</time>
      </trkpt>
      <trkpt lat="50.01357" lon="4.26221">
        <ele>276.2</ele>
        <time>2024-05-04T07:25:38Z</time>
      </trkpt>
      <trkpt lat="50.01361" lon="4.2621">
        <ele>276.4</ele>
        <time>2024-05-04T07:25:39Z</time>
      </trkpt>
      <trkpt lat="50.01365" lon="4.262">
        <ele>276.6</ele>
        <time>2024-05-04T07:25:40Z</time>
      </trkpt>
      <trkpt lat="50.01369" lon="4.2619">
        <ele>277</ele>
        <time>2024-05-04T07:25:41Z</time>
      </trkpt>
      <trkpt lat="50.01372" lon="4.2618">
        <ele>277.2</ele>
        <time>2024-05-04T07:25:42Z</time>
      </trkpt>
      <trkpt lat="50.01376" lon="4.2617">
        <ele>277.8</ele>
        <time>2024-05-04T07:25:43Z</time>
      </trkpt>
      <trkpt lat="50.0138" lon="4.2616">
        <ele>278</ele>
        <time>2024-05-04T07:25:44Z</time>
      </trkpt>
      <trkpt lat="50.01383" lon="4.2615">
        <ele>278.2</ele>
        <time>2024-05-04T07:25:45Z</time>
      </trkpt>
      <trkpt lat="50.01387" lon="4.26141">
        <ele>278.4</ele>
        <time>2024-05-04T07:25:46Z</time>
      </trkpt>
      <trkpt lat="50.01391" lon="4.26131">
        <ele>278.6</ele>
        <time>2024-05-04T07:25:47Z</time>
      </trkpt>
      <trkpt lat="50.01394" lon="4.26121">
        <ele>278.8</ele>
        <time>2024-05-04T07:25:48Z</time>
      </trkpt>
      <trkpt lat="50.01398" lon="4.26112">
        <ele>279</ele>
        <time>2024-05-04T07:25:49Z</time>
      </trkpt>
      <trkpt lat="50.01401" lon="4.26102">
        <ele>279.2</ele>
        <time>2024-05-04T07:25:50Z</time>
      </trkpt>
      <trkpt lat="50.01405" lon="4.26092">
        <ele>279.4</ele>
        <time>2024-05-04T07:25:51Z</time>
      </trkpt>
      <trkpt lat="50.01409" lon="4.26082">
        <ele>279.4</ele>
        <time>2024-05-04T07:25:52Z</time>
      </trkpt>
      <trkpt lat="50.01412" lon="4.26072">
        <ele>279.6</ele>
        <time>2024-05-04T07:25:53Z</time>
      </trkpt>
      <trkpt lat="50.01416" lon="4.26062">
        <ele>279.6</ele>
        <time>2024-05-04T07:25:54Z</time>
      </trkpt>
      <trkpt lat="50.0142" lon="4.26052">
        <ele>279.8</ele>
        <time>2024-05-04T07:25:55Z</time>
      </trkpt>
      <trkpt lat="50.01424" lon="4.26041">
        <ele>280</ele>
        <time>2024-05-04T07:25:56Z</time>
      </trkpt>
      <trkpt lat="50.01428" lon="4.2603">
        <ele>280</ele>
        <time>2024-05-04T07:25:57Z</time>
      </trkpt>
      <trkpt lat="50.01432" lon="4.26019">
        <ele>280.2</ele>
        <time>2024-05-04T07:25:58Z</time>
      </trkpt>
      <trkpt lat="50.01436" lon="4.26008">
        <ele>280</ele>
        <time>2024-05-04T07:25:59Z</time>
      </trkpt>
      <trkpt lat="50.0144" lon="4.25997">
        <ele>280.2</ele>
        <time>2024-05-04T07:26:00Z</time>
      </trkpt>
      <trkpt lat="50.01443" lon="4.25985">
        <ele>280</ele>
        <time>2024-05-04T07:26:01Z</time>
      </trkpt>
      <trkpt lat="50.01446" lon="4.25972">
        <ele>280</ele>
        <time>2024-05-04T07:26:02Z</time>
      </trkpt>
      <trkpt lat="50.01448" lon="4.25959">
        <ele>280</ele>
        <time>2024-05-04T07:26:03Z</time>
      </trkpt>
      <trkpt lat="50.0145" lon="4.25946">
        <ele>280</ele>
        <time>2024-05-04T07:26:04Z</time>
      </trkpt>
      <trkpt lat="50.01452" lon="4.25933">
        <ele>279.8</ele>
        <time>2024-05-04T07:26:05Z</time>
      </trkpt>
      <trkpt lat="50.01453" lon="4.2592">
        <ele>279.6</ele>
        <time>2024-05-04T07:26:06Z</time>
      </trkpt>
      <trkpt lat="50.01454" lon="4.25906">
        <ele>279.6</ele>
        <time>2024-05-04T07:26:07Z</time>
      </trkpt>
      <trkpt lat="50.01455" lon="4.25892">
        <ele>279.4</ele>
        <time>2024-05-04T07:26:08Z</time>
      </trkpt>
      <trkpt lat="50.01455" lon="4.25879">
        <ele>279.4</ele>
        <time>2024-05-04T07:26:09Z</time>
      </trkpt>
      <trkpt lat="50.01456" lon="4.25865">
        <ele>279</ele>
        <time>2024-05-04T07:26:10Z</time>
      </trkpt>
      <trkpt lat="50.01456" lon="4.25851">
        <ele>278.8</ele>
        <time>2024-05-04T07:26:11Z</time>
      </trkpt>
      <trkpt lat="50.01457" lon="4.25836">
        <ele>278.8</ele>
        <time>2024-05-04T07:26:12Z</time>
      </trkpt>
      <trkpt lat="50.01458" lon="4.25822">
        <ele>278.6</ele>
        <time>2024-05-04T07:26:13Z</time>
      </trkpt>
      <trkpt lat="50.01459" lon="4.25808">
        <ele>277.8</ele>
        <time>2024-05-04T07:26:14Z</time>
      </trkpt>
      <trkpt lat="50.01461" lon="4.25794">
        <ele>277.4</ele>
        <time>2024-05-04T07:26:15Z</time>
      </trkpt>
      <trkpt lat="50.01464" lon="4.2578">
        <ele>277</ele>
        <time>2024-05-04T07:26:16Z</time>
      </trkpt>
      <trkpt lat="50.01467" lon="4.25766">
        <ele>276.8</ele>
        <time>2024-05-04T07:26:17Z</time>
      </trkpt>
      <trkpt lat="50.01471" lon="4.25753">
        <ele>276.6</ele>
        <time>2024-05-04T07:26:18Z</time>
      </trkpt>
      <trkpt lat="50.01475" lon="4.2574">
        <ele>276.4</ele>
        <time>2024-05-04T07:26:19Z</time>
      </trkpt>
      <trkpt lat="50.01479" lon="4.25728">
        <ele>276</ele>
        <time>2024-05-04T07:26:20Z</time>
      </trkpt>
      <trkpt lat="50.01484" lon="4.25716">
        <ele>275.8</ele>
        <time>2024-05-04T07:26:21Z</time>
      </trkpt>
      <trkpt lat="50.01489" lon="4.25706">
        <ele>275.6</ele>
        <time>2024-05-04T07:26:22Z</time>
      </trkpt>
      <trkpt lat="50.01494" lon="4.25696">
        <ele>275.4</ele>
        <time>2024-05-04T07:26:23Z</time>
      </trkpt>
      <trkpt lat="50.01499" lon="4.25686">
        <ele>275.4</ele>
        <time>2024-05-04T07:26:24Z</time>
      </trkpt>
      <trkpt lat="50.01503" lon="4.25677">
        <ele>275.4</ele>
        <time>2024-05-04T07:26:25Z</time>
      </trkpt>
      <trkpt lat="50.01507" lon="4.25669">
        <ele>275.4</ele>
        <time>2024-05-04T07:26:26Z</time>
      </trkpt>
      <trkpt lat="50.01511" lon="4.25661">
        <ele>275.4</ele>
        <time>2024-05-04T07:26:27Z</time>
      </trkpt>
      <trkpt lat="50.01515" lon="4.25654">
        <ele>275.4</ele>
        <time>2024-05-04T07:26:28Z</time>
      </trkpt>
      <trkpt lat="50.01518" lon="4.25647">
        <ele>275.4</ele>
        <time>2024-05-04T07:26:29Z</time>
      </trkpt>
      <trkpt lat="50.01521" lon="4.25641">
        <ele>275.4</ele>
        <time>2024-05-04T07:26:30Z</time>
      </trkpt>
      <trkpt lat="50.01524" lon="4.25635">
        <ele>275.4</ele>
        <time>2024-05-04T07:26:31Z</time>
      </trkpt>
      <trkpt lat="50.01527" lon="4.2563">
        <ele>275.6</ele>
        <time>2024-05-04T07:26:32Z</time>
      </trkpt>
      <trkpt lat="50.0153" lon="4.25626">
        <ele>275.6</ele>
        <time>2024-05-04T07:26:33Z</time>
      </trkpt>
      <trkpt lat="50.01534" lon="4.25623">
        <ele>275.8</ele>
        <time>2024-05-04T07:26:34Z</time>
      </trkpt>
      <trkpt lat="50.01538" lon="4.2562">
        <ele>276.2</ele>
        <time>2024-05-04T07:26:35Z</time>
      </trkpt>
      <trkpt lat="50.01543" lon="4.25619">
        <ele>276.8</ele>
        <time>2024-05-04T07:26:36Z</time>
      </trkpt>
      <trkpt lat="50.01548" lon="4.25618">
        <ele>277.4</ele>
        <time>2024-05-04T07:26:37Z</time>
      </trkpt>
      <trkpt lat="50.01552" lon="4.25615">
        <ele>278.4</ele>
        <time>2024-05-04T07:26:38Z</time>
      </trkpt>
      <trkpt lat="50.01556" lon="4.2561">
        <ele>279</ele>
        <time>2024-05-04T07:26:39Z</time>
      </trkpt>
      <trkpt lat="50.0156" lon="4.25605">
        <ele>279.8</ele>
        <time>2024-05-04T07:26:40Z</time>
      </trkpt>
      <trkpt lat="50.01562" lon="4.25599">
        <ele>280.4</ele>
        <time>2024-05-04T07:26:41Z</time>
      </trkpt>
      <trkpt lat="50.01564" lon="4.25593">
        <ele>280.4</ele>
        <time>2024-05-04T07:26:42Z</time>
      </trkpt>
      <trkpt lat="50.01566" lon="4.25587">
        <ele>280.8</ele>
        <time>2024-05-04T07:26:43Z</time>
      </trkpt>
      <trkpt lat="50.01568" lon="4.2558">
        <ele>281</ele>
        <time>2024-05-04T07:26:44Z</time>
      </trkpt>
      <trkpt lat="50.01569" lon="4.25574">
        <ele>281.4</ele>
        <time>2024-05-04T07:26:45Z</time>
      </trkpt>
      <trkpt lat="50.01571" lon="4.25567">
        <ele>281.4</ele>
        <time>2024-05-04T07:26:46Z</time>
      </trkpt>
      <trkpt lat="50.01572" lon="4.2556">
        <ele>281.8</ele>
        <time>2024-05-04T07:26:47Z</time>
      </trkpt>
      <trkpt lat="50.01574" lon="4.25554">
        <ele>281.8</ele>
        <time>2024-05-04T07:26:48Z</time>
      </trkpt>
      <trkpt lat="50.01576" lon="4.25547">
        <ele>281.8</ele>
        <time>2024-05-04T07:26:49Z</time>
      </trkpt>
      <trkpt lat="50.01578" lon="4.25541">
        <ele>282</ele>
        <time>2024-05-04T07:26:50Z</time>
      </trkpt>
      <trkpt lat="50.0158" lon="4.25534">
        <ele>282.2</ele>
        <time>2024-05-04T07:26:51Z</time>
      </trkpt>
      <trkpt lat="50.01581" lon="4.25527">
        <ele>282.4</ele>
        <time>2024-05-04T07:26:52Z</time>
      </trkpt>
      <trkpt lat="50.01583" lon="4.25521">
        <ele>282.8</ele>
        <time>2024-05-04T07:26:53Z</time>
      </trkpt>
      <trkpt lat="50.01584" lon="4.25514">
        <ele>283</ele>
        <time>2024-05-04T07:26:54Z</time>
      </trkpt>
      <trkpt lat="50.01585" lon="4.25507">
        <ele>283</ele>
        <time>2024-05-04T07:26:55Z</time>
      </trkpt>
      <trkpt lat="50.01586" lon="4.255">
        <ele>283.2</ele>
        <time>2024-05-04T07:26:56Z</time>
      </trkpt>
      <trkpt lat="50.01587" lon="4.25493">
        <ele>283.6</ele>
        <time>2024-05-04T07:26:57Z</time>
      </trkpt>
      <trkpt lat="50.01588" lon="4.25486">
        <ele>283.6</ele>
        <time>2024-05-04T07:26:58Z</time>
      </trkpt>
      <trkpt lat="50.01588" lon="4.25478">
        <ele>283.6</ele>
        <time>2024-05-04T07:26:59Z</time>
      </trkpt>
      <trkpt lat="50.01586" lon="4.25471">
        <ele>283.6</ele>
        <time>2024-05-04T07:27:00Z</time>
      </trkpt>
      <trkpt lat="50.01584" lon="4.25464">
        <ele>283.8</ele>
        <time>2024-05-04T07:27:01Z</time>
      </trkpt>
      <trkpt lat="50.01582" lon="4.25458">
        <ele>283.8</ele>
        <time>2024-05-04T07:27:02Z</time>
      </trkpt>
      <trkpt lat="50.01579" lon="4.25452">
        <ele>283.8</ele>
        <time>2024-05-04T07:27:03Z</time>
      </trkpt>
      <trkpt lat="50.01575" lon="4.25446">
        <ele>284</ele>
        <time>2024-05-04T07:27:04Z</time>
      </trkpt>
      <trkpt lat="50.01571" lon="4.25441">
        <ele>284</ele>
        <time>2024-05-04T07:27:05Z</time>
      </trkpt>
      <trkpt lat="50.01568" lon="4.25436">
        <ele>284</ele>
        <time>2024-05-04T07:27:06Z</time>
      </trkpt>
      <trkpt lat="50.01564" lon="4.25431">
        <ele>284</ele>
        <time>2024-05-04T07:27:07Z</time>
      </trkpt>
      <trkpt lat="50.01561" lon="4.25425">
        <ele>284.2</ele>
        <time>2024-05-04T07:27:08Z</time>
      </trkpt>
      <trkpt lat="50.0156" lon="4.25418">
        <ele>284.2</ele>
        <time>2024-05-04T07:27:09Z</time>
      </trkpt>
      <trkpt lat="50.0156" lon="4.25411">
        <ele>284.6</ele>
        <time>2024-05-04T07:27:10Z</time>
      </trkpt>
      <trkpt lat="50.01561" lon="4.25403">
        <ele>285.2</ele>
        <time>2024-05-04T07:27:11Z</time>
      </trkpt>
      <trkpt lat="50.01563" lon="4.25396">
        <ele>285.4</ele>
        <time>2024-05-04T07:27:12Z</time>
      </trkpt>
      <trkpt lat="50.01564" lon="4.25388">
        <ele>285.6</ele>
        <time>2024-05-04T07:27:13Z</time>
      </trkpt>
      <trkpt lat="50.01566" lon="4.25381">
        <ele>285.6</ele>
        <time>2024-05-04T07:27:14Z</time>
      </trkpt>
      <trkpt lat="50.01568" lon="4.25373">
        <ele>285.8</ele>
        <time>2024-05-04T07:27:15Z</time>
      </trkpt>
      <trkpt lat="50.0157" lon="4.25366">
        <ele>285.8</ele>
        <time>2024-05-04T07:27:16Z</time>
      </trkpt>
      <trkpt lat="50.01571" lon="4.25359">
        <ele>285.8</ele>
        <time>2024-05-04T07:27:17Z</time>
      </trkpt>
      <trkpt lat="50.01573" lon="4.25351">
        <ele>285.8</ele>
        <time>2024-05-04T07:27:18Z</time>
      </trkpt>
      <trkpt lat="50.01574" lon="4.25344">
        <ele>286.4</ele>
        <time>2024-05-04T07:27:19Z</time>
      </trkpt>
      <trkpt lat="50.01576" lon="4.25337">
        <ele>286.8</ele>
        <time>2024-05-04T07:27:20Z</time>
      </trkpt>
      <trkpt lat="50.01578" lon="4.2533">
        <ele>287</ele>
        <time>2024-05-04T07:27:21Z</time>
      </trkpt>
      <trkpt lat="50.01579" lon="4.25322">
        <ele>287</ele>
        <time>2024-05-04T07:27:22Z</time>
      </trkpt>
      <trkpt lat="50.01581" lon="4.25315">
        <ele>287.2</ele>
        <time>2024-05-04T07:27:23Z</time>
      </trkpt>
      <trkpt lat="50.01583" lon="4.25308">
        <ele>287.2</ele>
        <time>2024-05-04T07:27:24Z</time>
      </trkpt>
      <trkpt lat="50.01584" lon="4.25301">
        <ele>287.2</ele>
        <time>2024-05-04T07:27:25Z</time>
      </trkpt>
      <trkpt lat="50.01586" lon="4.25294">
        <ele>287.4</ele>
        <time>2024-05-04T07:27:26Z</time>
      </trkpt>
      <trkpt lat="50.01587" lon="4.25287">
        <ele>287.6</ele>
        <time>2024-05-04T07:27:27Z</time>
      </trkpt>
      <trkpt lat="50.01589" lon="4.2528">
        <ele>287.4</ele>
        <time>2024-05-04T07:27:28Z</time>
      </trkpt>
      <trkpt lat="50.0159" lon="4.25272">
        <ele>287.8</ele>
        <time>2024-05-04T07:27:29Z</time>
      </trkpt>
      <trkpt lat="50.01592" lon="4.25266">
        <ele>287.6</ele>
        <time>2024-05-04T07:27:30Z</time>
      </trkpt>
      <trkpt lat="50.01593" lon="4.25259">
        <ele>288</ele>
        <time>2024-05-04T07:27:31Z</time>
      </trkpt>
      <trkpt lat="50.01595" lon="4.25252">
        <ele>288</ele>
        <time>2024-05-04T07:27:32Z</time>
      </trkpt>
      <trkpt lat="50.01596" lon="4.25245">
        <ele>288.2</ele>
        <time>2024-05-04T07:27:33Z</time>
      </trkpt>
      <trkpt lat="50.01598" lon="4.25238">
        <ele>288.2</ele>
        <time>2024-05-04T07:27:34Z</time>
      </trkpt>
      <trkpt lat="50.01599" lon="4.25231">
        <ele>288.2</ele>
        <time>2024-05-04T07:27:35Z</time>
      </trkpt>
      <trkpt lat="50.01601" lon="4.25224">
        <ele>288.6</ele>
        <time>2024-05-04T07:27:36Z</time>
      </trkpt>
      <trkpt lat="50.01602" lon="4.25217">
        <ele>288.6</ele>
        <time>2024-05-04T07:27:37Z</time>
      </trkpt>
      <trkpt lat="50.01604" lon="4.25211">
        <ele>288.8</ele>
        <time>2024-05-04T07:27:38Z</time>
      </trkpt>
      <trkpt lat="50.01605" lon="4.25204">
        <ele>288.8</ele>
        <time>2024-05-04T07:27:39Z</time>
      </trkpt>
      <trkpt lat="50.01607" lon="4.25197">
        <ele>289.2</ele>
        <time>2024-05-04T07:27:40Z</time>
      </trkpt>
      <trkpt lat="50.01608" lon="4.2519">
        <ele>289.6</ele>
        <time>2024-05-04T07:27:41Z</time>
      </trkpt>
      <trkpt lat="50.0161" lon="4.25183">
        <ele>289.6</ele>
        <time>2024-05-04T07:27:42Z</time>
      </trkpt>
      <trkpt lat="50.01611" lon="4.25176">
        <ele>289.8</ele>
        <time>2024-05-04T07:27:43Z</time>
      </trkpt>
      <trkpt lat="50.01613" lon="4.25169">
        <ele>289.8</ele>
        <time>2024-05-04T07:27:44Z</time>
      </trkpt>
      <trkpt lat="50.01614" lon="4.25162">
        <ele>290.2</ele>
        <time>2024-05-04T07:27:45Z</time>
      </trkpt>
      <trkpt lat="50.01616" lon="4.25155">
        <ele>290.4</ele>
        <time>2024-05-04T07:27:46Z</time>
      </trkpt>
      <trkpt lat="50.01617" lon="4.25148">
        <ele>290.8</ele>
        <time>2024-05-04T07:27:47Z</time>
      </trkpt>
      <trkpt lat="50.01619" lon="4.25141">
        <ele>291</ele>
        <time>2024-05-04T07:27:48Z</time>
      </trkpt>
      <trkpt lat="50.01621" lon="4.25134">
        <ele>291</ele>
        <time>2024-05-04T07:27:49Z</time>
      </trkpt>
      <trkpt lat="50.01622" lon="4.25127">
        <ele>291.2</ele>
        <time>2024-05-04T07:27:50Z</time>
      </trkpt>
      <trkpt lat="50.01624" lon="4.2512">
        <ele>291.2</ele>
        <time>2024-05-04T07:27:51Z</time>
      </trkpt>
      <trkpt lat="50.01625" lon="4.25113">
        <ele>291.2</ele>
        <time>2024-05-04T07:27:52Z</time>
      </trkpt>
      <trkpt lat="50.01627" lon="4.25106">
        <ele>291.6</ele>
        <time>2024-05-04T07:27:53Z</time>
      </trkpt>
      <trkpt lat="50.01628" lon="4.25099">
        <ele>291.8</ele>
        <time>2024-05-04T07:27:54Z</time>
      </trkpt>
      <trkpt lat="50.0163" lon="4.25092">
        <ele>291.8</ele>
        <time>2024-05-04T07:27:55Z</time>
      </trkpt>
      <trkpt lat="50.01632" lon="4.25085">
        <ele>292</ele>
        <time>2024-05-04T07:27:56Z</time>
      </trkpt>
      <trkpt lat="50.01633" lon="4.25077">
        <ele>292</ele>
        <time>2024-05-04T07:27:57Z</time>
      </trkpt>
      <trkpt lat="50.01635" lon="4.2507">
        <ele>292</ele>
        <time>2024-05-04T07:27:58Z</time>
      </trkpt>
      <trkpt lat="50.01636" lon="4.25063">
        <ele>292.2</ele>
        <time>2024-05-04T07:27:59Z</time>
      </trkpt>
      <trkpt lat="50.01638" lon="4.25055">
        <ele>292.2</ele>
        <time>2024-05-04T07:28:00Z</time>
      </trkpt>
      <trkpt lat="50.0164" lon="4.25048">
        <ele>292.4</ele>
        <time>2024-05-04T07:28:01Z</time>
      </trkpt>
      <trkpt lat="50.01641" lon="4.2504">
        <ele>292.6</ele>
        <time>2024-05-04T07:28:02Z</time>
      </trkpt>
      <trkpt lat="50.01643" lon="4.25033">
        <ele>292.6</ele>
        <time>2024-05-04T07:28:03Z</time>
      </trkpt>
      <trkpt lat="50.01645" lon="4.25025">
        <ele>292.6</ele>
        <time>2024-05-04T07:28:04Z</time>
      </trkpt>
      <trkpt lat="50.01646" lon="4.25018">
        <ele>292.8</ele>
        <time>2024-05-04T07:28:05Z</time>
      </trkpt>
      <trkpt lat="50.01648" lon="4.25011">
        <ele>293</ele>
        <time>2024-05-04T07:28:06Z</time>
      </trkpt>
      <trkpt lat="50.01649" lon="4.25003">
        <ele>293.2</ele>
        <time>2024-05-04T07:28:07Z</time>
      </trkpt>
      <trkpt lat="50.01651" lon="4.24996">
        <ele>293.4</ele>
        <time>2024-05-04T07:28:08Z</time>
      </trkpt>
      <trkpt lat="50.01653" lon="4.24989">
        <ele>293.4</ele>
        <time>2024-05-04T07:28:09Z</time>
      </trkpt>
      <trkpt lat="50.01655" lon="4.24981">
        <ele>293.4</ele>
        <time>2024-05-04T07:28:10Z</time>
      </trkpt>
      <trkpt lat="50.01656" lon="4.24974">
        <ele>293.6</ele>
        <time>2024-05-04T07:28:11Z</time>
      </trkpt>
      <trkpt lat="50.01659" lon="4.24967">
        <ele>293.4</ele>
        <time>2024-05-04T07:28:12Z</time>
      </trkpt>
      <trkpt lat="50.01661" lon="4.2496">
        <ele>293.6</ele>
        <time>2024-05-04T07:28:13Z</time>
      </trkpt>
      <trkpt lat="50.01663" lon="4.24953">
        <ele>293.4</ele>
        <time>2024-05-04T07:28:14Z</time>
      </trkpt>
      <trkpt lat="50.01666" lon="4.24946">
        <ele>293.6</ele>
        <time>2024-05-04T07:28:15Z</time>
      </trkpt>
      <trkpt lat="50.01668" lon="4.24939">
        <ele>293.6</ele>
        <time>2024-05-04T07:28:16Z</time>
      </trkpt>
      <trkpt lat="50.01671" lon="4.24933">
        <ele>293.8</ele>
        <time>2024-05-04T07:28:17Z</time>
      </trkpt>
      <trkpt lat="50.01674" lon="4.24926">
        <ele>293.8</ele>
        <time>2024-05-04T07:28:18Z</time>
      </trkpt>
      <trkpt lat="50.01677" lon="4.2492">
        <ele>294</ele>
        <time>2024-05-04T07:28:19Z</time>
      </trkpt>
      <trkpt lat="50.0168" lon="4.24914">
        <ele>294</ele>
        <time>2024-05-04T07:28:20Z</time>
      </trkpt>
      <trkpt lat="50.01684" lon="4.24908">
        <ele>294.2</ele>
        <time>2024-05-04T07:28:21Z</time>
      </trkpt>
      <trkpt lat="50.01688" lon="4.24902">
        <ele>294.4</ele>
        <time>2024-05-04T07:28:22Z</time>
      </trkpt>
      <trkpt lat="50.01691" lon="4.24896">
        <ele>294.6</ele>
        <time>2024-05-04T07:28:23Z</time>
      </trkpt>
      <trkpt lat="50.01695" lon="4.2489">
        <ele>294.8</ele>
        <time>2024-05-04T07:28:24Z</time>
      </trkpt>
      <trkpt lat="50.01699" lon="4.24884">
        <ele>295</ele>
        <time>2024-05-04T07:28:25Z</time>
      </trkpt>
      <trkpt lat="50.01703" lon="4.24879">
        <ele>294.8</ele>
        <time>2024-05-04T07:28:26Z</time>
      </trkpt>
      <trkpt lat="50.01708" lon="4.24874">
        <ele>295</ele>
        <time>2024-05-04T07:28:27Z</time>
      </trkpt>
      <trkpt lat="50.01712" lon="4.24868">
        <ele>295.4</ele>
        <time>2024-05-04T07:28:28Z</time>
      </trkpt>
      <trkpt lat="50.01717" lon="4.24863">
        <ele>295.4</ele>
        <time>2024-05-04T07:28:29Z</time>
      </trkpt>
      <trkpt lat="50.01721" lon="4.24858">
        <ele>295.6</ele>
        <time>2024-05-04T07:28:30Z</time>
      </trkpt>
      <trkpt lat="50.01726" lon="4.24852">
        <ele>296</ele>
        <time>2024-05-04T07:28:31Z</time>
      </trkpt>
      <trkpt lat="50.01731" lon="4.24847">
        <ele>296</ele>
        <time>2024-05-04T07:28:32Z</time>
      </trkpt>
      <trkpt lat="50.01736" lon="4.24842">
        <ele>296</ele>
        <time>2024-05-04T07:28:33Z</time>
      </trkpt>
      <trkpt lat="50.01741" lon="4.24836">
        <ele>296</ele>
        <time>2024-05-04T07:28:34Z</time>
      </trkpt>
      <trkpt lat="50.01746" lon="4.24831">
        <ele>296</ele>
        <time>2024-05-04T07:28:35Z</time>
      </trkpt>
      <trkpt lat="50.01752" lon="4.24825">
        <ele>296</ele>
        <time>2024-05-04T07:28:36Z</time>
      </trkpt>
      <trkpt lat="50.01757" lon="4.24819">
        <ele>296</ele>
        <time>2024-05-04T07:28:37Z</time>
      </trkpt>
      <trkpt lat="50.01763" lon="4.24813">
        <ele>296</ele>
        <time>2024-05-04T07:28:38Z</time>
      </trkpt>
      <trkpt lat="50.01769" lon="4.24807">
        <ele>296</ele>
        <time>2024-05-04T07:28:39Z</time>
      </trkpt>
      <trkpt lat="50.01774" lon="4.248">
        <ele>296</ele>
        <time>2024-05-04T07:28:40Z</time>
      </trkpt>
      <trkpt lat="50.0178" lon="4.24793">
        <ele>296</ele>
        <time>2024-05-04T07:28:41Z</time>
      </trkpt>
      <trkpt lat="50.01785" lon="4.24786">
        <ele>295.8</ele>
        <time>2024-05-04T07:28:42Z</time>
      </trkpt>
      <trkpt lat="50.01791" lon="4.24779">
        <ele>295.8</ele>
        <time>2024-05-04T07:28:43Z</time>
      </trkpt>
      <trkpt lat="50.01797" lon="4.24771">
        <ele>295.6</ele>
        <time>2024-05-04T07:28:44Z</time>
      </trkpt>
      <trkpt lat="50.01802" lon="4.24763">
        <ele>295.6</ele>
        <time>2024-05-04T07:28:45Z</time>
      </trkpt>
      <trkpt lat="50.01808" lon="4.24754">
        <ele>295.6</ele>
        <time>2024-05-04T07:28:46Z</time>
      </trkpt>
      <trkpt lat="50.01814" lon="4.24745">
        <ele>295.4</ele>
        <time>2024-05-04T07:28:47Z</time>
      </trkpt>
      <trkpt lat="50.01819" lon="4.24736">
        <ele>295.2</ele>
        <time>2024-05-04T07:28:48Z</time>
      </trkpt>
      <trkpt lat="50.01825" lon="4.24726">
        <ele>295</ele>
        <time>2024-05-04T07:28:49Z</time>
      </trkpt>
      <trkpt lat="50.0183" lon="4.24717">
        <ele>294.8</ele>
        <time>2024-05-04T07:28:50Z</time>
      </trkpt>
      <trkpt lat="50.01836" lon="4.24706">
        <ele>294.6</ele>
        <time>2024-05-04T07:28:51Z</time>
      </trkpt>
      <trkpt lat="50.01841" lon="4.24695">
        <ele>294.4</ele>
        <time>2024-05-04T07:28:52Z</time>
      </trkpt>
      <trkpt lat="50.01845" lon="4.24684">
        <ele>294.2</ele>
        <time>2024-05-04T07:28:53Z</time>
      </trkpt>
      <trkpt lat="50.01849" lon="4.24671">
        <ele>294</ele>
        <time>2024-05-04T07:28:54Z</time>
      </trkpt>
      <trkpt lat="50.01852" lon="4.24658">
        <ele>293.6</ele>
        <time>2024-05-04T07:28:55Z</time>
      </trkpt>
      <trkpt lat="50.01855" lon="4.24645">
        <ele>293.4</ele>
        <time>2024-05-04T07:28:56Z</time>
      </trkpt>
      <trkpt lat="50.01857" lon="4.24631">
        <ele>293</ele>
        <time>2024-05-04T07:28:57Z</time>
      </trkpt>
      <trkpt lat="50.01859" lon="4.24617">
        <ele>292.8</ele>
        <time>2024-05-04T07:28:58Z</time>
      </trkpt>
      <trkpt lat="50.0186" lon="4.24604">
        <ele>292.4</ele>
        <time>2024-05-04T07:28:59Z</time>
      </trkpt>
      <trkpt lat="50.01861" lon="4.2459">
        <ele>292.2</ele>
        <time>2024-05-04T07:29:00Z</time>
      </trkpt>
      <trkpt lat="50.01861" lon="4.24576">
        <ele>292.2</ele>
        <time>2024-05-04T07:29:01Z</time>
      </trkpt>
      <trkpt lat="50.01861" lon="4.24562">
        <ele>292.2</ele>
        <time>2024-05-04T07:29:02Z</time>
      </trkpt>
      <trkpt lat="50.01861" lon="4.24548">
        <ele>291.6</ele>
        <time>2024-05-04T07:29:03Z</time>
      </trkpt>
      <trkpt lat="50.0186" lon="4.24534">
        <ele>291.6</ele>
        <time>2024-05-04T07:29:04Z</time>
      </trkpt>
      <trkpt lat="50.01859" lon="4.2452">
        <ele>291</ele>
        <time>2024-05-04T07:29:05Z</time>
      </trkpt>
      <trkpt lat="50.01859" lon="4.24507">
        <ele>290.8</ele>
        <time>2024-05-04T07:29:06Z</time>
      </trkpt>
      <trkpt lat="50.01858" lon="4.24493">
        <ele>290.4</ele>
        <time>2024-05-04T07:29:07Z</time>
      </trkpt>
      <trkpt lat="50.01857" lon="4.24479">
        <ele>290.2</ele>
        <time>2024-05-04T07:29:08Z</time>
      </trkpt>
      <trkpt lat="50.01855" lon="4.24466">
        <ele>290</ele>
        <time>2024-05-04T07:29:09Z</time>
      </trkpt>
      <trkpt lat="50.01853" lon="4.24452">
        <ele>290</ele>
        <time>2024-05-04T07:29:10Z</time>
      </trkpt>
      <trkpt lat="50.0185" lon="4.24439">
        <ele>289.8</ele>
        <time>2024-05-04T07:29:11Z</time>
      </trkpt>
      <trkpt lat="50.01848" lon="4.24427">
        <ele>289.4</ele>
        <time>2024-05-04T07:29:12Z</time>
      </trkpt>
      <trkpt lat="50.01844" lon="4.24414">
        <ele>289.4</ele>
        <time>2024-05-04T07:29:13Z</time>
      </trkpt>
      <trkpt lat="50.01841" lon="4.24401">
        <ele>289.2</ele>
        <time>2024-05-04T07:29:14Z</time>
      </trkpt>
      <trkpt lat="50.01837" lon="4.24389">
        <ele>289</ele>
        <time>2024-05-04T07:29:15Z</time>
      </trkpt>
      <trkpt lat="50.01834" lon="4.24377">
        <ele>288.8</ele>
        <time>2024-05-04T07:29:16Z</time>
      </trkpt>
      <trkpt lat="50.0183" lon="4.24365">
        <ele>288.4</ele>
        <time>2024-05-04T07:29:17Z</time>
      </trkpt>
      <trkpt lat="50.01827" lon="4.24352">
        <ele>288.4</ele>
        <time>2024-05-04T07:29:18Z</time>
      </trkpt>
      <trkpt lat="50.01824" lon="4.2434">
        <ele>288.2</ele>
        <time>2024-05-04T07:29:19Z</time>
      </trkpt>
      <trkpt lat="50.0182" lon="4.24328">
        <ele>288.2</ele>
        <time>2024-05-04T07:29:20Z</time>
      </trkpt>
      <trkpt lat="50.01816" lon="4.24316">
        <ele>288</ele>
        <time>2024-05-04T07:29:21Z</time>
      </trkpt>
      <trkpt lat="50.01813" lon="4.24303">
        <ele>287.6</ele>
        <time>2024-05-04T07:29:22Z</time>
      </trkpt>
      <trkpt lat="50.01809" lon="4.24291">
        <ele>287.4</ele>
        <time>2024-05-04T07:29:23Z</time>
      </trkpt>
      <trkpt lat="50.01806" lon="4.24279">
        <ele>287.2</ele>
        <time>2024-05-04T07:29:24Z</time>
      </trkpt>
      <trkpt lat="50.01802" lon="4.24266">
        <ele>287</ele>
        <time>2024-05-04T07:29:25Z</time>
      </trkpt>
      <trkpt lat="50.01799" lon="4.24253">
        <ele>287</ele>
        <time>2024-05-04T07:29:26Z</time>
      </trkpt>
      <trkpt lat="50.01795" lon="4.24241">
        <ele>287</ele>
        <time>2024-05-04T07:29:27Z</time>
      </trkpt>
      <trkpt lat="50.01792" lon="4.24228">
        <ele>287</ele>
        <time>2024-05-04T07:29:28Z</time>
      </trkpt>
      <trkpt lat="50.01788" lon="4.24215">
        <ele>287</ele>
        <time>2024-05-04T07:29:29Z</time>
      </trkpt>
      <trkpt lat="50.01785" lon="4.24202">
        <ele>287</ele>
        <time>2024-05-04T07:29:30Z</time>
      </trkpt>
      <trkpt lat="50.01781" lon="4.24189">
        <ele>287</ele>
        <time>2024-05-04T07:29:31Z</time>
      </trkpt>
      <trkpt lat="50.01777" lon="4.24176">
        <ele>286.2</ele>
        <time>2024-05-04T07:29:32Z</time>
      </trkpt>
      <trkpt lat="50.01774" lon="4.24163">
        <ele>285.6</ele>
        <time>2024-05-04T07:29:33Z</time>
      </trkpt>
      <trkpt lat="50.0177" lon="4.24149">
        <ele>285.2</ele>
        <time>2024-05-04T07:29:34Z</time>
      </trkpt>
      <trkpt lat="50.01766" lon="4.24135">
        <ele>285.2</ele>
        <time>2024-05-04T07:29:35Z</time>
      </trkpt>
      <trkpt lat="50.01761" lon="4.24121">
        <ele>284.6</ele>
        <time>2024-05-04T07:29:36Z</time>
      </trkpt>
      <trkpt lat="50.01756" lon="4.24108">
        <ele>284.2</ele>
        <time>2024-05-04T07:29:37Z</time>
      </trkpt>
      <trkpt lat="50.0175" lon="4.24095">
        <ele>284</ele>
        <time>2024-05-04T07:29:38Z</time>
      </trkpt>
      <trkpt lat="50.01744" lon="4.24082">
        <ele>283.6</ele>
        <time>2024-05-04T07:29:39Z</time>
      </trkpt>
      <trkpt lat="50.01738" lon="4.24069">
        <ele>283</ele>
        <time>2024-05-04T07:29:40Z</time>
      </trkpt>
      <trkpt lat="50.01731" lon="4.24056">
        <ele>282.2</ele>
        <time>2024-05-04T07:29:41Z</time>
      </trkpt>
      <trkpt lat="50.01724" lon="4.24043">
        <ele>281.6</ele>
        <time>2024-05-04T07:29:42Z</time>
      </trkpt>
      <trkpt lat="50.01717" lon="4.2403">
        <ele>281.2</ele>
        <time>2024-05-04T07:29:43Z</time>
      </trkpt>
      <trkpt lat="50.0171" lon="4.24017">
        <ele>280.8</ele>
        <time>2024-05-04T07:29:44Z</time>
      </trkpt>
      <trkpt lat="50.01703" lon="4.24004">
        <ele>280</ele>
        <time>2024-05-04T07:29:45Z</time>
      </trkpt>
      <trkpt lat="50.01697" lon="4.23989">
        <ele>279</ele>
        <time>2024-05-04T07:29:46Z</time>
      </trkpt>
      <trkpt lat="50.01691" lon="4.23974">
        <ele>278.6</ele>
        <time>2024-05-04T07:29:47Z</time>
      </trkpt>
      <trkpt lat="50.01687" lon="4.23957">
        <ele>277.6</ele>
        <time>2024-05-04T07:29:48Z</time>
      </trkpt>
      <trkpt lat="50.01684" lon="4.2394">
        <ele>276.8</ele>
        <time>2024-05-04T07:29:49Z</time>
      </trkpt>
      <trkpt lat="50.01682" lon="4.23922">
        <ele>276.2</ele>
        <time>2024-05-04T07:29:50Z</time>
      </trkpt>
      <trkpt lat="50.0168" lon="4.23905">
        <ele>275.8</ele>
        <time>2024-05-04T07:29:51Z</time>
      </trkpt>
      <trkpt lat="50.01678" lon="4.23889">
        <ele>275.8</ele>
        <time>2024-05-04T07:29:52Z</time>
      </trkpt>
      <trkpt lat="50.01676" lon="4.23873">
        <ele>275.4</ele>
        <time>2024-05-04T07:29:53Z</time>
      </trkpt>
      <trkpt lat="50.01677" lon="4.23857">
        <ele>274.6</ele>
        <time>2024-05-04T07:29:54Z</time>
      </trkpt>
      <trkpt lat="50.01679" lon="4.23843">
        <ele>274.4</ele>
        <time>2024-05-04T07:29:55Z</time>
      </trkpt>
      <trkpt lat="50.01682" lon="4.23831">
        <ele>274.2</ele>
        <time>2024-05-04T07:29:56Z</time>
      </trkpt>
      <trkpt lat="50.01686" lon="4.23819">
        <ele>274</ele>
        <time>2024-05-04T07:29:57Z</time>
      </trkpt>
      <trkpt lat="50.0169" lon="4.23808">
        <ele>274</ele>
        <time>2024-05-04T07:29:58Z</time>
      </trkpt>
      <trkpt lat="50.01693" lon="4.23798">
        <ele>274</ele>
        <time>2024-05-04T07:29:59Z</time>
      </trkpt>
      <trkpt lat="50.01697" lon="4.23788">
        <ele>274</ele>
        <time>2024-05-04T07:30:00Z</time>
      </trkpt>
      <trkpt lat="50.01701" lon="4.23778">
        <ele>274</ele>
        <time>2024-05-04T07:30:01Z</time>
      </trkpt>
      <trkpt lat="50.01705" lon="4.23768">
        <ele>274</ele>
        <time>2024-05-04T07:30:02Z</time>
      </trkpt>
      <trkpt lat="50.01708" lon="4.23759">
        <ele>274</ele>
        <time>2024-05-04T07:30:03Z</time>
      </trkpt>
      <trkpt lat="50.01712" lon="4.23749">
        <ele>274</ele>
        <time>2024-05-04T07:30:04Z</time>
      </trkpt>
      <trkpt lat="50.01715" lon="4.2374">
        <ele>274.4</ele>
        <time>2024-05-04T07:30:05Z</time>
      </trkpt>
      <trkpt lat="50.01718" lon="4.2373">
        <ele>275</ele>
        <time>2024-05-04T07:30:06Z</time>
      </trkpt>
      <trkpt lat="50.01722" lon="4.23721">
        <ele>276</ele>
        <time>2024-05-04T07:30:07Z</time>
      </trkpt>
      <trkpt lat="50.01725" lon="4.23712">
        <ele>276.6</ele>
        <time>2024-05-04T07:30:08Z</time>
      </trkpt>
      <trkpt lat="50.01728" lon="4.23703">
        <ele>276.6</ele>
        <time>2024-05-04T07:30:09Z</time>
      </trkpt>
      <trkpt lat="50.01732" lon="4.23693">
        <ele>277.2</ele>
        <time>2024-05-04T07:30:10Z</time>
      </trkpt>
      <trkpt lat="50.01735" lon="4.23684">
        <ele>277.4</ele>
        <time>2024-05-04T07:30:11Z</time>
      </trkpt>
      <trkpt lat="50.01738" lon="4.23675">
        <ele>277.8</ele>
        <time>2024-05-04T07:30:12Z</time>
      </trkpt>
      <trkpt lat="50.01741" lon="4.23665">
        <ele>278</ele>
        <time>2024-05-04T07:30:13Z</time>
      </trkpt>
      <trkpt lat="50.01745" lon="4.23655">
        <ele>278.2</ele>
        <time>2024-05-04T07:30:14Z</time>
      </trkpt>
      <trkpt lat="50.01748" lon="4.23645">
        <ele>278.6</ele>
        <time>2024-05-04T07:30:15Z</time>
      </trkpt>
      <trkpt lat="50.01751" lon="4.23635">
        <ele>278.6</ele>
        <time>2024-05-04T07:30:16Z</time>
      </trkpt>
      <trkpt lat="50.01753" lon="4.23625">
        <ele>278.8</ele>
        <time>2024-05-04T07:30:17Z</time>
      </trkpt>
      <trkpt lat="50.01756" lon="4.23614">
        <ele>278.8</ele>
        <time>2024-05-04T07:30:18Z</time>
      </trkpt>
      <trkpt lat="50.01759" lon="4.23604">
        <ele>278.6</ele>
        <time>2024-05-04T07:30:19Z</time>
      </trkpt>
      <trkpt lat="50.01761" lon="4.23593">
        <ele>278.8</ele>
        <time>2024-05-04T07:30:20Z</time>
      </trkpt>
      <trkpt lat="50.01764" lon="4.23583">
        <ele>278.8</ele>
        <time>2024-05-04T07:30:21Z</time>
      </trkpt>
      <trkpt lat="50.01767" lon="4.23573">
        <ele>279</ele>
        <time>2024-05-04T07:30:22Z</time>
      </trkpt>
      <trkpt lat="50.01769" lon="4.23562">
        <ele>279</ele>
        <time>2024-05-04T07:30:23Z</time>
      </trkpt>
      <trkpt lat="50.01771" lon="4.23552">
        <ele>279</ele>
        <time>2024-05-04T07:30:24Z</time>
      </trkpt>
      <trkpt lat="50.01773" lon="4.23542">
        <ele>279.2</ele>
        <time>2024-05-04T07:30:25Z</time>
      </trkpt>
      <trkpt lat="50.01776" lon="4.23533">
        <ele>279.2</ele>
        <time>2024-05-04T07:30:26Z</time>
      </trkpt>
      <trkpt lat="50.01778" lon="4.23523">
        <ele>279.2</ele>
        <time>2024-05-04T07:30:27Z</time>
      </trkpt>
      <trkpt lat="50.0178" lon="4.23514">
        <ele>279.2</ele>
        <time>2024-05-04T07:30:28Z</time>
      </trkpt>
      <trkpt lat="50.01782" lon="4.23506">
        <ele>279.2</ele>
        <time>2024-05-04T07:30:29Z</time>
      </trkpt>
      <trkpt lat="50.01784" lon="4.23497">
        <ele>279.2</ele>
        <time>2024-05-04T07:30:30Z</time>
      </trkpt>
      <trkpt lat="50.01786" lon="4.23489">
        <ele>279.2</ele>
        <time>2024-05-04T07:30:31Z</time>
      </trkpt>
      <trkpt lat="50.01788" lon="4.23481">
        <ele>279.2</ele>
        <time>2024-05-04T07:30:32Z</time>
      </trkpt>
      <trkpt lat="50.01789" lon="4.23473">
        <ele>279.2</ele>
        <time>2024-05-04T07:30:33Z</time>
      </trkpt>
      <trkpt lat="50.01791" lon="4.23465">
        <ele>279.4</ele>
        <time>2024-05-04T07:30:34Z</time>
      </trkpt>
      <trkpt lat="50.01792" lon="4.23458">
        <ele>279.6</ele>
        <time>2024-05-04T07:30:35Z</time>
      </trkpt>
      <trkpt lat="50.01794" lon="4.2345">
        <ele>279.8</ele>
        <time>2024-05-04T07:30:36Z</time>
      </trkpt>
      <trkpt lat="50.01797" lon="4.23443">
        <ele>280</ele>
        <time>2024-05-04T07:30:37Z</time>
      </trkpt>
      <trkpt lat="50.01798" lon="4.23436">
        <ele>280.6</ele>
        <time>2024-05-04T07:30:38Z</time>
      </trkpt>
      <trkpt lat="50.018" lon="4.2343">
        <ele>281.2</ele>
        <time>2024-05-04T07:30:39Z</time>
      </trkpt>
      <trkpt lat="50.01802" lon="4.23423">
        <ele>281.6</ele>
        <time>2024-05-04T07:30:40Z</time>
      </trkpt>
      <trkpt lat="50.01803" lon="4.23416">
        <ele>282</ele>
        <time>2024-05-04T07:30:41Z</time>
      </trkpt>
      <trkpt lat="50.01804" lon="4.23409">
        <ele>282.6</ele>
        <time>2024-05-04T07:30:42Z</time>
      </trkpt>
      <trkpt lat="50.01806" lon="4.23402">
        <ele>282.6</ele>
        <time>2024-05-04T07:30:43Z</time>
      </trkpt>
      <trkpt lat="50.01807" lon="4.23395">
        <ele>283</ele>
        <time>2024-05-04T07:30:44Z</time>
      </trkpt>
      <trkpt lat="50.01809" lon="4.23387">
        <ele>283.4</ele>
        <time>2024-05-04T07:30:45Z</time>
      </trkpt>
      <trkpt lat="50.01811" lon="4.2338">
        <ele>283.6</ele>
        <time>2024-05-04T07:30:46Z</time>
      </trkpt>
      <trkpt lat="50.01813" lon="4.23373">
        <ele>284</ele>
        <time>2024-05-04T07:30:47Z</time>
      </trkpt>
      <trkpt lat="50.01814" lon="4.23365">
        <ele>284.2</ele>
        <time>2024-05-04T07:30:48Z</time>
      </trkpt>
      <trkpt lat="50.01816" lon="4.23358">
        <ele>284.6</ele>
        <time>2024-05-04T07:30:49Z</time>
      </trkpt>
      <trkpt lat="50.01819" lon="4.23351">
        <ele>284.6</ele>
        <time>2024-05-04T07:30:50Z</time>
      </trkpt>
      <trkpt lat="50.01821" lon="4.23344">
        <ele>284.8</ele>
        <time>2024-05-04T07:30:51Z</time>
      </trkpt>
      <trkpt lat="50.01823" lon="4.23337">
        <ele>285</ele>
        <time>2024-05-04T07:30:52Z</time>
      </trkpt>
      <trkpt lat="50.01824" lon="4.23331">
        <ele>285</ele>
        <time>2024-05-04T07:30:53Z</time>
      </trkpt>
      <trkpt lat="50.01826" lon="4.23324">
        <ele>285.4</ele>
        <time>2024-05-04T07:30:54Z</time>
      </trkpt>
      <trkpt lat="50.01827" lon="4.23318">
        <ele>285.6</ele>
        <time>2024-05-04T07:30:55Z</time>
      </trkpt>
      <trkpt lat="50.01829" lon="4.23311">
        <ele>286</ele>
        <time>2024-05-04T07:30:56Z</time>
      </trkpt>
      <trkpt lat="50.01831" lon="4.23304">
        <ele>286.2</ele>
        <time>2024-05-04T07:30:57Z</time>
      </trkpt>
      <trkpt lat="50.01833" lon="4.23297">
        <ele>286.4</ele>
        <time>2024-05-04T07:30:58Z</time>
      </trkpt>
      <trkpt lat="50.01834" lon="4.2329">
        <ele>286.4</ele>
        <time>2024-05-04T07:30:59Z</time>
      </trkpt>
      <trkpt lat="50.01836" lon="4.23283">
        <ele>286.4</ele>
        <time>2024-05-04T07:31:00Z</time>
      </trkpt>
      <trkpt lat="50.01837" lon="4.23277">
        <ele>286.8</ele>
        <time>2024-05-04T07:31:01Z</time>
      </trkpt>
      <trkpt lat="50.01839" lon="4.2327">
        <ele>287</ele>
        <time>2024-05-04T07:31:02Z</time>
      </trkpt>
      <trkpt lat="50.01841" lon="4.23264">
        <ele>287.4</ele>
        <time>2024-05-04T07:31:03Z</time>
      </trkpt>
      <trkpt lat="50.01842" lon="4.23258">
        <ele>287.6</ele>
        <time>2024-05-04T07:31:04Z</time>
      </trkpt>
      <trkpt lat="50.01844" lon="4.23253">
        <ele>287.8</ele>
        <time>2024-05-04T07:31:05Z</time>
      </trkpt>
      <trkpt lat="50.01846" lon="4.23248">
        <ele>287.8</ele>
        <time>2024-05-04T07:31:06Z</time>
      </trkpt>
      <trkpt lat="50.01848" lon="4.23243">
        <ele>288.2</ele>
        <time>2024-05-04T07:31:07Z</time>
      </trkpt>
      <trkpt lat="50.0185" lon="4.23238">
        <ele>288.2</ele>
        <time>2024-05-04T07:31:08Z</time>
      </trkpt>
      <trkpt lat="50.01853" lon="4.23233">
        <ele>288.2</ele>
        <time>2024-05-04T07:31:09Z</time>
      </trkpt>
      <trkpt lat="50.01856" lon="4.23227">
        <ele>288.4</ele>
        <time>2024-05-04T07:31:10Z</time>
      </trkpt>
      <trkpt lat="50.01858" lon="4.23222">
        <ele>288.6</ele>
        <time>2024-05-04T07:31:11Z</time>
      </trkpt>
      <trkpt lat="50.01861" lon="4.23217">
        <ele>288.8</ele>
        <time>2024-05-04T07:31:12Z</time>
      </trkpt>
      <trkpt lat="50.01864" lon="4.23212">
        <ele>289.2</ele>
        <time>2024-05-04T07:31:13Z</time>
      </trkpt>
      <trkpt lat="50.01868" lon="4.23208">
        <ele>289.4</ele>
        <time>2024-05-04T07:31:14Z</time>
      </trkpt>
      <trkpt lat="50.01871" lon="4.23203">
        <ele>289.8</ele>
        <time>2024-05-04T07:31:15Z</time>
      </trkpt>
      <trkpt lat="50.01875" lon="4.23198">
        <ele>289.8</ele>
        <time>2024-05-04T07:31:16Z</time>
      </trkpt>
      <trkpt lat="50.01879" lon="4.23194">
        <ele>289.8</ele>
        <time>2024-05-04T07:31:17Z</time>
      </trkpt>
      <trkpt lat="50.01883" lon="4.2319">
        <ele>290</ele>
        <time>2024-05-04T07:31:18Z</time>
      </trkpt>
      <trkpt lat="50.01887" lon="4.23185">
        <ele>290.2</ele>
        <time>2024-05-04T07:31:19Z</time>
      </trkpt>
      <trkpt lat="50.01891" lon="4.23182">
        <ele>290.4</ele>
        <time>2024-05-04T07:31:20Z</time>
      </trkpt>
      <trkpt lat="50.01895" lon="4.23178">
        <ele>290.6</ele>
        <time>2024-05-04T07:31:21Z</time>
      </trkpt>
      <trkpt lat="50.01899" lon="4.23176">
        <ele>290.4</ele>
        <time>2024-05-04T07:31:22Z</time>
      </trkpt>
      <trkpt lat="50.01903" lon="4.23173">
        <ele>290.4</ele>
        <time>2024-05-04T07:31:23Z</time>
      </trkpt>
      <trkpt lat="50.01907" lon="4.2317">
        <ele>290.8</ele>
        <time>2024-05-04T07:31:24Z</time>
      </trkpt>
      <trkpt lat="50.01911" lon="4.23167">
        <ele>290.6</ele>
        <time>2024-05-04T07:31:25Z</time>
      </trkpt>
      <trkpt lat="50.01915" lon="4.23165">
        <ele>290.8</ele>
        <time>2024-05-04T07:31:26Z</time>
      </trkpt>
      <trkpt lat="50.01919" lon="4.23163">
        <ele>290.8</ele>
        <time>2024-05-04T07:31:27Z</time>
      </trkpt>
      <trkpt lat="50.01922" lon="4.23161">
        <ele>291</ele>
        <time>2024-05-04T07:31:28Z</time>
      </trkpt>
      <trkpt lat="50.01926" lon="4.23158">
        <ele>291</ele>
        <time>2024-05-04T07:31:29Z</time>
      </trkpt>
      <trkpt lat="50.01931" lon="4.23156">
        <ele>291</ele>
        <time>2024-05-04T07:31:30Z</time>
      </trkpt>
      <trkpt lat="50.01935" lon="4.23154">
        <ele>291.4</ele>
        <time>2024-05-04T07:31:31Z</time>
      </trkpt>
      <trkpt lat="50.0194" lon="4.23152">
        <ele>291.8</ele>
        <time>2024-05-04T07:31:32Z</time>
      </trkpt>
      <trkpt lat="50.01944" lon="4.2315">
        <ele>292.2</ele>
        <time>2024-05-04T07:31:33Z</time>
      </trkpt>
      <trkpt lat="50.01948" lon="4.23148">
        <ele>292.6</ele>
        <time>2024-05-04T07:31:34Z</time>
      </trkpt>
      <trkpt lat="50.01953" lon="4.23146">
        <ele>292.6</ele>
        <time>2024-05-04T07:31:35Z</time>
      </trkpt>
      <trkpt lat="50.01957" lon="4.23144">
        <ele>292.6</ele>
        <time>2024-05-04T07:31:36Z</time>
      </trkpt>
      <trkpt lat="50.01962" lon="4.23141">
        <ele>292.6</ele>
        <time>2024-05-04T07:31:37Z</time>
      </trkpt>
      <trkpt lat="50.01967" lon="4.23139">
        <ele>292.6</ele>
        <time>2024-05-04T07:31:38Z</time>
      </trkpt>
      <trkpt lat="50.01972" lon="4.23137">
        <ele>292.6</ele>
        <time>2024-05-04T07:31:39Z</time>
      </trkpt>
      <trkpt lat="50.01977" lon="4.23135">
        <ele>292.6</ele>
        <time>2024-05-04T07:31:40Z</time>
      </trkpt>
      <trkpt lat="50.01982" lon="4.23133">
        <ele>292.8</ele>
        <time>2024-05-04T07:31:41Z</time>
      </trkpt>
      <trkpt lat="50.01988" lon="4.2313">
        <ele>292.6</ele>
        <time>2024-05-04T07:31:42Z</time>
      </trkpt>
      <trkpt lat="50.01994" lon="4.23128">
        <ele>292.6</ele>
        <time>2024-05-04T07:31:43Z</time>
      </trkpt>
      <trkpt lat="50.02" lon="4.23125">
        <ele>292.8</ele>
        <time>2024-05-04T07:31:44Z</time>
      </trkpt>
      <trkpt lat="50.02005" lon="4.23123">
        <ele>292.8</ele>
        <time>2024-05-04T07:31:45Z</time>
      </trkpt>
      <trkpt lat="50.02011" lon="4.23121">
        <ele>292.6</ele>
        <time>2024-05-04T07:31:46Z</time>
      </trkpt>
      <trkpt lat="50.02017" lon="4.2312">
        <ele>292.6</ele>
        <time>2024-05-04T07:31:47Z</time>
      </trkpt>
      <trkpt lat="50.02022" lon="4.23118">
        <ele>292.6</ele>
        <time>2024-05-04T07:31:48Z</time>
      </trkpt>
      <trkpt lat="50.02028" lon="4.23115">
        <ele>292.6</ele>
        <time>2024-05-04T07:31:49Z</time>
      </trkpt>
      <trkpt lat="50.02034" lon="4.23113">
        <ele>292.8</ele>
        <time>2024-05-04T07:31:50Z</time>
      </trkpt>
      <trkpt lat="50.0204" lon="4.23111">
        <ele>292.6</ele>
        <time>2024-05-04T07:31:51Z</time>
      </trkpt>
      <trkpt lat="50.02045" lon="4.23108">
        <ele>292.6</ele>
        <time>2024-05-04T07:31:52Z</time>
      </trkpt>
      <trkpt lat="50.02051" lon="4.23106">
        <ele>292.6</ele>
        <time>2024-05-04T07:31:53Z</time>
      </trkpt>
      <trkpt lat="50.02057" lon="4.23104">
        <ele>292.6</ele>
        <time>2024-05-04T07:31:54Z</time>
      </trkpt>
      <trkpt lat="50.02063" lon="4.23101">
        <ele>292.8</ele>
        <time>2024-05-04T07:31:55Z</time>
      </trkpt>
      <trkpt lat="50.02069" lon="4.23099">
        <ele>293</ele>
        <time>2024-05-04T07:31:56Z</time>
      </trkpt>
      <trkpt lat="50.02075" lon="4.23097">
        <ele>293.4</ele>
        <time>2024-05-04T07:31:57Z</time>
      </trkpt>
      <trkpt lat="50.0208" lon="4.23095">
        <ele>293.6</ele>
        <time>2024-05-04T07:31:58Z</time>
      </trkpt>
      <trkpt lat="50.02086" lon="4.23093">
        <ele>293.8</ele>
        <time>2024-05-04T07:31:59Z</time>
      </trkpt>
      <trkpt lat="50.02092" lon="4.2309">
        <ele>293.8</ele>
        <time>2024-05-04T07:32:00Z</time>
      </trkpt>
      <trkpt lat="50.02098" lon="4.23088">
        <ele>293.8</ele>
        <time>2024-05-04T07:32:01Z</time>
      </trkpt>
      <trkpt lat="50.02104" lon="4.23086">
        <ele>293.6</ele>
        <time>2024-05-04T07:32:02Z</time>
      </trkpt>
      <trkpt lat="50.0211" lon="4.23084">
        <ele>293.6</ele>
        <time>2024-05-04T07:32:03Z</time>
      </trkpt>
      <trkpt lat="50.02115" lon="4.23081">
        <ele>293.8</ele>
        <time>2024-05-04T07:32:04Z</time>
      </trkpt>
      <trkpt lat="50.02121" lon="4.23079">
        <ele>293.6</ele>
        <time>2024-05-04T07:32:05Z</time>
      </trkpt>
      <trkpt lat="50.02126" lon="4.23077">
        <ele>294</ele>
        <time>2024-05-04T07:32:06Z</time>
      </trkpt>
      <trkpt lat="50.02132" lon="4.23075">
        <ele>293.8</ele>
        <time>2024-05-04T07:32:07Z</time>
      </trkpt>
      <trkpt lat="50.02138" lon="4.23073">
        <ele>293.8</ele>
        <time>2024-05-04T07:32:08Z</time>
      </trkpt>
      <trkpt lat="50.02143" lon="4.23072">
        <ele>293.8</ele>
        <time>2024-05-04T07:32:09Z</time>
      </trkpt>
      <trkpt lat="50.02149" lon="4.23069">
        <ele>293.8</ele>
        <time>2024-05-04T07:32:10Z</time>
      </trkpt>
      <trkpt lat="50.02155" lon="4.23067">
        <ele>293.8</ele>
        <time>2024-05-04T07:32:11Z</time>
      </trkpt>
      <trkpt lat="50.02161" lon="4.23064">
        <ele>293.8</ele>
        <time>2024-05-04T07:32:12Z</time>
      </trkpt>
      <trkpt lat="50.02167" lon="4.23062">
        <ele>293.8</ele>
        <time>2024-05-04T07:32:13Z</time>
      </trkpt>
      <trkpt lat="50.02173" lon="4.23059">
        <ele>293.8</ele>
        <time>2024-05-04T07:32:14Z</time>
      </trkpt>
      <trkpt lat="50.02179" lon="4.23057">
        <ele>293.6</ele>
        <time>2024-05-04T07:32:15Z</time>
      </trkpt>
      <trkpt lat="50.02185" lon="4.23055">
        <ele>293.8</ele>
        <time>2024-05-04T07:32:16Z</time>
      </trkpt>
      <trkpt lat="50.02192" lon="4.23053">
        <ele>293.6</ele>
        <time>2024-05-04T07:32:17Z</time>
      </trkpt>
      <trkpt lat="50.02198" lon="4.2305">
        <ele>293.6</ele>
        <time>2024-05-04T07:32:18Z</time>
      </trkpt>
      <trkpt lat="50.02204" lon="4.23048">
        <ele>293.6</ele>
        <time>2024-05-04T07:32:19Z</time>
      </trkpt>
      <trkpt lat="50.0221" lon="4.23045">
        <ele>293.6</ele>
        <time>2024-05-04T07:32:20Z</time>
      </trkpt>
      <trkpt lat="50.02216" lon="4.23042">
        <ele>293.6</ele>
        <time>2024-05-04T07:32:21Z</time>
      </trkpt>
      <trkpt lat="50.02222" lon="4.2304">
        <ele>293.6</ele>
        <time>2024-05-04T07:32:22Z</time>
      </trkpt>
      <trkpt lat="50.02228" lon="4.23038">
        <ele>293.6</ele>
        <time>2024-05-04T07:32:23Z</time>
      </trkpt>
      <trkpt lat="50.02235" lon="4.23035">
        <ele>293.6</ele>
        <time>2024-05-04T07:32:24Z</time>
      </trkpt>
      <trkpt lat="50.02241" lon="4.23032">
        <ele>293.6</ele>
        <time>2024-05-04T07:32:25Z</time>
      </trkpt>
      <trkpt lat="50.02247" lon="4.2303">
        <ele>293.6</ele>
        <time>2024-05-04T07:32:26Z</time>
      </trkpt>
      <trkpt lat="50.02253" lon="4.23028">
        <ele>293.6</ele>
        <time>2024-05-04T07:32:27Z</time>
      </trkpt>
      <trkpt lat="50.02258" lon="4.23025">
        <ele>293.6</ele>
        <time>2024-05-04T07:32:28Z</time>
      </trkpt>
      <trkpt lat="50.02264" lon="4.23023">
        <ele>293.4</ele>
        <time>2024-05-04T07:32:29Z</time>
      </trkpt>
      <trkpt lat="50.02271" lon="4.2302">
        <ele>293.6</ele>
        <time>2024-05-04T07:32:30Z</time>
      </trkpt>
      <trkpt lat="50.02277" lon="4.23018">
        <ele>293.6</ele>
        <time>2024-05-04T07:32:31Z</time>
      </trkpt>
      <trkpt lat="50.02284" lon="4.23016">
        <ele>293.4</ele>
        <time>2024-05-04T07:32:32Z</time>
      </trkpt>
      <trkpt lat="50.0229" lon="4.23013">
        <ele>293.6</ele>
        <time>2024-05-04T07:32:33Z</time>
      </trkpt>
      <trkpt lat="50.02296" lon="4.2301">
        <ele>293.4</ele>
        <time>2024-05-04T07:32:34Z</time>
      </trkpt>
      <trkpt lat="50.02303" lon="4.23008">
        <ele>293.4</ele>
        <time>2024-05-04T07:32:35Z</time>
      </trkpt>
      <trkpt lat="50.02309" lon="4.23005">
        <ele>293.4</ele>
        <time>2024-05-04T07:32:36Z</time>
      </trkpt>
      <trkpt lat="50.02315" lon="4.23002">
        <ele>293.2</ele>
        <time>2024-05-04T07:32:37Z</time>
      </trkpt>
      <trkpt lat="50.02321" lon="4.22999">
        <ele>293.2</ele>
        <time>2024-05-04T07:32:38Z</time>
      </trkpt>
      <trkpt lat="50.02328" lon="4.22997">
        <ele>293.2</ele>
        <time>2024-05-04T07:32:39Z</time>
      </trkpt>
      <trkpt lat="50.02334" lon="4.22994">
        <ele>293.2</ele>
        <time>2024-05-04T07:32:40Z</time>
      </trkpt>
      <trkpt lat="50.02341" lon="4.22992">
        <ele>293.2</ele>
        <time>2024-05-04T07:32:41Z</time>
      </trkpt>
      <trkpt lat="50.02347" lon="4.22989">
        <ele>293</ele>
        <time>2024-05-04T07:32:42Z</time>
      </trkpt>
      <trkpt lat="50.02354" lon="4.22986">
        <ele>293</ele>
        <time>2024-05-04T07:32:43Z</time>
      </trkpt>
      <trkpt lat="50.0236" lon="4.22984">
        <ele>292.8</ele>
        <time>2024-05-04T07:32:44Z</time>
      </trkpt>
      <trkpt lat="50.02367" lon="4.22981">
        <ele>292.6</ele>
        <time>2024-05-04T07:32:45Z</time>
      </trkpt>
      <trkpt lat="50.02373" lon="4.22978">
        <ele>292.6</ele>
        <time>2024-05-04T07:32:46Z</time>
      </trkpt>
      <trkpt lat="50.0238" lon="4.22975">
        <ele>292.4</ele>
        <time>2024-05-04T07:32:47Z</time>
      </trkpt>
      <trkpt lat="50.02387" lon="4.22973">
        <ele>292.2</ele>
        <time>2024-05-04T07:32:48Z</time>
      </trkpt>
      <trkpt lat="50.02395" lon="4.2297">
        <ele>292.2</ele>
        <time>2024-05-04T07:32:49Z</time>
      </trkpt>
      <trkpt lat="50.02402" lon="4.22967">
        <ele>292.2</ele>
        <time>2024-05-04T07:32:50Z</time>
      </trkpt>
      <trkpt lat="50.02409" lon="4.22964">
        <ele>292.2</ele>
        <time>2024-05-04T07:32:51Z</time>
      </trkpt>
      <trkpt lat="50.02416" lon="4.2296">
        <ele>292.2</ele>
        <time>2024-05-04T07:32:52Z</time>
      </trkpt>
      <trkpt lat="50.02424" lon="4.22957">
        <ele>292</ele>
        <time>2024-05-04T07:32:53Z</time>
      </trkpt>
      <trkpt lat="50.02431" lon="4.22954">
        <ele>292</ele>
        <time>2024-05-04T07:32:54Z</time>
      </trkpt>
      <trkpt lat="50.02439" lon="4.22952">
        <ele>292.2</ele>
        <time>2024-05-04T07:32:55Z</time>
      </trkpt>
      <trkpt lat="50.02446" lon="4.22949">
        <ele>292.2</ele>
        <time>2024-05-04T07:32:56Z</time>
      </trkpt>
      <trkpt lat="50.02454" lon="4.22946">
        <ele>291.8</ele>
        <time>2024-05-04T07:32:57Z</time>
      </trkpt>
      <trkpt lat="50.02461" lon="4.22944">
        <ele>291.8</ele>
        <time>2024-05-04T07:32:58Z</time>
      </trkpt>
      <trkpt lat="50.02469" lon="4.22941">
        <ele>291.6</ele>
        <time>2024-05-04T07:32:59Z</time>
      </trkpt>
      <trkpt lat="50.02477" lon="4.22938">
        <ele>291.6</ele>
        <time>2024-05-04T07:33:00Z</time>
      </trkpt>
      <trkpt lat="50.02484" lon="4.22935">
        <ele>291.2</ele>
        <time>2024-05-04T07:33:01Z</time>
      </trkpt>
      <trkpt lat="50.02492" lon="4.22933">
        <ele>290.8</ele>
        <time>2024-05-04T07:33:02Z</time>
      </trkpt>
      <trkpt lat="50.02499" lon="4.22929">
        <ele>290.8</ele>
        <time>2024-05-04T07:33:03Z</time>
      </trkpt>
      <trkpt lat="50.02506" lon="4.22927">
        <ele>290.6</ele>
        <time>2024-05-04T07:33:04Z</time>
      </trkpt>
      <trkpt lat="50.02514" lon="4.22924">
        <ele>290.6</ele>
        <time>2024-05-04T07:33:05Z</time>
      </trkpt>
      <trkpt lat="50.02522" lon="4.2292">
        <ele>290.4</ele>
        <time>2024-05-04T07:33:06Z</time>
      </trkpt>
      <trkpt lat="50.0253" lon="4.22917">
        <ele>290.2</ele>
        <time>2024-05-04T07:33:07Z</time>
      </trkpt>
      <trkpt lat="50.02538" lon="4.22914">
        <ele>289.8</ele>
        <time>2024-05-04T07:33:08Z</time>
      </trkpt>
      <trkpt lat="50.02546" lon="4.22911">
        <ele>289.8</ele>
        <time>2024-05-04T07:33:09Z</time>
      </trkpt>
      <trkpt lat="50.02554" lon="4.22908">
        <ele>288.8</ele>
        <time>2024-05-04T07:33:10Z</time>
      </trkpt>
      <trkpt lat="50.02562" lon="4.22904">
        <ele>288.4</ele>
        <time>2024-05-04T07:33:11Z</time>
      </trkpt>
      <trkpt lat="50.02571" lon="4.22901">
        <ele>288</ele>
        <time>2024-05-04T07:33:12Z</time>
      </trkpt>
      <trkpt lat="50.02579" lon="4.22897">
        <ele>288</ele>
        <time>2024-05-04T07:33:13Z</time>
      </trkpt>
      <trkpt lat="50.02587" lon="4.22894">
        <ele>287.6</ele>
        <time>2024-05-04T07:33:14Z</time>
      </trkpt>
      <trkpt lat="50.02595" lon="4.22891">
        <ele>287.4</ele>
        <time>2024-05-04T07:33:15Z</time>
      </trkpt>
      <trkpt lat="50.02603" lon="4.22888">
        <ele>287.2</ele>
        <time>2024-05-04T07:33:16Z</time>
      </trkpt>
      <trkpt lat="50.02611" lon="4.22884">
        <ele>287</ele>
        <time>2024-05-04T07:33:17Z</time>
      </trkpt>
      <trkpt lat="50.02619" lon="4.22881">
        <ele>287</ele>
        <time>2024-05-04T07:33:18Z</time>
      </trkpt>
      <trkpt lat="50.02628" lon="4.22877">
        <ele>286.6</ele>
        <time>2024-05-04T07:33:19Z</time>
      </trkpt>
      <trkpt lat="50.02636" lon="4.22873">
        <ele>286.2</ele>
        <time>2024-05-04T07:33:20Z</time>
      </trkpt>
      <trkpt lat="50.02645" lon="4.22869">
        <ele>285.8</ele>
        <time>2024-05-04T07:33:21Z</time>
      </trkpt>
      <trkpt lat="50.02654" lon="4.22866">
        <ele>285.6</ele>
        <time>2024-05-04T07:33:22Z</time>
      </trkpt>
      <trkpt lat="50.02663" lon="4.22862">
        <ele>285.4</ele>
        <time>2024-05-04T07:33:23Z</time>
      </trkpt>
      <trkpt lat="50.02672" lon="4.22858">
        <ele>285.4</ele>
        <time>2024-05-04T07:33:24Z</time>
      </trkpt>
      <trkpt lat="50.02681" lon="4.22854">
        <ele>285.2</ele>
        <time>2024-05-04T07:33:25Z</time>
      </trkpt>
      <trkpt lat="50.0269" lon="4.2285">
        <ele>285</ele>
        <time>2024-05-04T07:33:26Z</time>
      </trkpt>
      <trkpt lat="50.02699" lon="4.22846">
        <ele>285</ele>
        <time>2024-05-04T07:33:27Z</time>
      </trkpt>
      <trkpt lat="50.02709" lon="4.22842">
        <ele>285</ele>
        <time>2024-05-04T07:33:28Z</time>
      </trkpt>
      <trkpt lat="50.02718" lon="4.22839">
        <ele>285</ele>
        <time>2024-05-04T07:33:29Z</time>
      </trkpt>
      <trkpt lat="50.02728" lon="4.22835">
        <ele>284.4</ele>
        <time>2024-05-04T07:33:30Z</time>
      </trkpt>
      <trkpt lat="50.02737" lon="4.22831">
        <ele>283.8</ele>
        <time>2024-05-04T07:33:31Z</time>
      </trkpt>
      <trkpt lat="50.02747" lon="4.22827">
        <ele>283.4</ele>
        <time>2024-05-04T07:33:32Z</time>
      </trkpt>
      <trkpt lat="50.02757" lon="4.22823">
        <ele>283.2</ele>
        <time>2024-05-04T07:33:33Z</time>
      </trkpt>
      <trkpt lat="50.02767" lon="4.22819">
        <ele>283</ele>
        <time>2024-05-04T07:33:34Z</time>
      </trkpt>
      <trkpt lat="50.02777" lon="4.22815">
        <ele>282.8</ele>
        <time>2024-05-04T07:33:35Z</time>
      </trkpt>
      <trkpt lat="50.02787" lon="4.22811">
        <ele>282.6</ele>
        <time>2024-05-04T07:33:36Z</time>
      </trkpt>
      <trkpt lat="50.02796" lon="4.22807">
        <ele>282.4</ele>
        <time>2024-05-04T07:33:37Z</time>
      </trkpt>
      <trkpt lat="50.02805" lon="4.22804">
        <ele>282</ele>
        <time>2024-05-04T07:33:38Z</time>
      </trkpt>
      <trkpt lat="50.02815" lon="4.228">
        <ele>281.2</ele>
        <time>2024-05-04T07:33:39Z</time>
      </trkpt>
      <trkpt lat="50.02825" lon="4.22796">
        <ele>280.8</ele>
        <time>2024-05-04T07:33:40Z</time>
      </trkpt>
      <trkpt lat="50.02833" lon="4.22791">
        <ele>280.2</ele>
        <time>2024-05-04T07:33:41Z</time>
      </trkpt>
      <trkpt lat="50.02842" lon="4.22787">
        <ele>279.6</ele>
        <time>2024-05-04T07:33:42Z</time>
      </trkpt>
      <trkpt lat="50.02851" lon="4.22783">
        <ele>279.2</ele>
        <time>2024-05-04T07:33:43Z</time>
      </trkpt>
      <trkpt lat="50.02858" lon="4.2278">
        <ele>279.2</ele>
        <time>2024-05-04T07:33:44Z</time>
      </trkpt>
      <trkpt lat="50.02866" lon="4.22777">
        <ele>279.2</ele>
        <time>2024-05-04T07:33:45Z</time>
      </trkpt>
      <trkpt lat="50.02875" lon="4.22774">
        <ele>279.2</ele>
        <time>2024-05-04T07:33:46Z</time>
      </trkpt>
      <trkpt lat="50.02882" lon="4.2277">
        <ele>279</ele>
        <time>2024-05-04T07:33:47Z</time>
      </trkpt>
      <trkpt lat="50.0289" lon="4.22768">
        <ele>279</ele>
        <time>2024-05-04T07:33:48Z</time>
      </trkpt>
      <trkpt lat="50.02898" lon="4.22765">
        <ele>279</ele>
        <time>2024-05-04T07:33:49Z</time>
      </trkpt>
      <trkpt lat="50.02905" lon="4.22763">
        <ele>279.2</ele>
        <time>2024-05-04T07:33:50Z</time>
      </trkpt>
      <trkpt lat="50.02912" lon="4.2276">
        <ele>279</ele>
        <time>2024-05-04T07:33:51Z</time>
      </trkpt>
      <trkpt lat="50.02919" lon="4.22758">
        <ele>279</ele>
        <time>2024-05-04T07:33:52Z</time>
      </trkpt>
      <trkpt lat="50.02926" lon="4.22756">
        <ele>279.4</ele>
        <time>2024-05-04T07:33:53Z</time>
      </trkpt>
      <trkpt lat="50.02932" lon="4.22753">
        <ele>279.4</ele>
        <time>2024-05-04T07:33:54Z</time>
      </trkpt>
      <trkpt lat="50.02939" lon="4.22751">
        <ele>279.6</ele>
        <time>2024-05-04T07:33:55Z</time>
      </trkpt>
      <trkpt lat="50.02945" lon="4.22749">
        <ele>280.4</ele>
        <time>2024-05-04T07:33:56Z</time>
      </trkpt>
      <trkpt lat="50.02951" lon="4.22746">
        <ele>280.8</ele>
        <time>2024-05-04T07:33:57Z</time>
      </trkpt>
      <trkpt lat="50.02957" lon="4.22744">
        <ele>281.2</ele>
        <time>2024-05-04T07:33:58Z</time>
      </trkpt>
      <trkpt lat="50.02962" lon="4.22742">
        <ele>281.4</ele>
        <time>2024-05-04T07:33:59Z</time>
      </trkpt>
      <trkpt lat="50.02968" lon="4.2274">
        <ele>281.6</ele>
        <time>2024-05-04T07:34:00Z</time>
      </trkpt>
      <trkpt lat="50.02974" lon="4.22737">
        <ele>281.8</ele>
        <time>2024-05-04T07:34:01Z</time>
      </trkpt>
      <trkpt lat="50.0298" lon="4.22736">
        <ele>281.8</ele>
        <time>2024-05-04T07:34:02Z</time>
      </trkpt>
      <trkpt lat="50.02986" lon="4.22734">
        <ele>282</ele>
        <time>2024-05-04T07:34:03Z</time>
      </trkpt>
      <trkpt lat="50.02992" lon="4.22731">
        <ele>282.4</ele>
        <time>2024-05-04T07:34:04Z</time>
      </trkpt>
      <trkpt lat="50.02999" lon="4.22729">
        <ele>282.6</ele>
        <time>2024-05-04T07:34:05Z</time>
      </trkpt>
      <trkpt lat="50.03005" lon="4.22727">
        <ele>283</ele>
        <time>2024-05-04T07:34:06Z</time>
      </trkpt>
      <trkpt lat="50.03011" lon="4.22725">
        <ele>283.2</ele>
        <time>2024-05-04T07:34:07Z</time>
      </trkpt>
      <trkpt lat="50.03018" lon="4.22723">
        <ele>283.6</ele>
        <time>2024-05-04T07:34:08Z</time>
      </trkpt>
      <trkpt lat="50.03024" lon="4.2272">
        <ele>283.8</ele>
        <time>2024-05-04T07:34:09Z</time>
      </trkpt>
      <trkpt lat="50.0303" lon="4.22718">
        <ele>283.8</ele>
        <time>2024-05-04T07:34:10Z</time>
      </trkpt>
      <trkpt lat="50.03036" lon="4.22716">
        <ele>284</ele>
        <time>2024-05-04T07:34:11Z</time>
      </trkpt>
      <trkpt lat="50.03043" lon="4.22714">
        <ele>284.2</ele>
        <time>2024-05-04T07:34:12Z</time>
      </trkpt>
      <trkpt lat="50.03049" lon="4.22712">
        <ele>284.4</ele>
        <time>2024-05-04T07:34:13Z</time>
      </trkpt>
      <trkpt lat="50.03055" lon="4.2271">
        <ele>284.6</ele>
        <time>2024-05-04T07:34:14Z</time>
      </trkpt>
      <trkpt lat="50.03062" lon="4.22708">
        <ele>284.8</ele>
        <time>2024-05-04T07:34:15Z</time>
      </trkpt>
      <trkpt lat="50.03068" lon="4.22706">
        <ele>285</ele>
        <time>2024-05-04T07:34:16Z</time>
      </trkpt>
      <trkpt lat="50.03075" lon="4.22704">
        <ele>284.8</ele>
        <time>2024-05-04T07:34:17Z</time>
      </trkpt>
      <trkpt lat="50.03083" lon="4.22702">
        <ele>285</ele>
        <time>2024-05-04T07:34:18Z</time>
      </trkpt>
      <trkpt lat="50.03089" lon="4.227">
        <ele>285.2</ele>
        <time>2024-05-04T07:34:19Z</time>
      </trkpt>
      <trkpt lat="50.03096" lon="4.22697">
        <ele>285.2</ele>
        <time>2024-05-04T07:34:20Z</time>
      </trkpt>
      <trkpt lat="50.03103" lon="4.22694">
        <ele>285.2</ele>
        <time>2024-05-04T07:34:21Z</time>
      </trkpt>
      <trkpt lat="50.0311" lon="4.22692">
        <ele>285.2</ele>
        <time>2024-05-04T07:34:22Z</time>
      </trkpt>
      <trkpt lat="50.03118" lon="4.2269">
        <ele>285.2</ele>
        <time>2024-05-04T07:34:23Z</time>
      </trkpt>
      <trkpt lat="50.03126" lon="4.22687">
        <ele>285</ele>
        <time>2024-05-04T07:34:24Z</time>
      </trkpt>
      <trkpt lat="50.03134" lon="4.22684">
        <ele>285.2</ele>
        <time>2024-05-04T07:34:25Z</time>
      </trkpt>
      <trkpt lat="50.03142" lon="4.22679">
        <ele>285.2</ele>
        <time>2024-05-04T07:34:26Z</time>
      </trkpt>
      <trkpt lat="50.0315" lon="4.22674">
        <ele>285.2</ele>
        <time>2024-05-04T07:34:27Z</time>
      </trkpt>
      <trkpt lat="50.03157" lon="4.22668">
        <ele>285.2</ele>
        <time>2024-05-04T07:34:28Z</time>
      </trkpt>
      <trkpt lat="50.03164" lon="4.22662">
        <ele>285</ele>
        <time>2024-05-04T07:34:29Z</time>
      </trkpt>
      <trkpt lat="50.03171" lon="4.22654">
        <ele>285</ele>
        <time>2024-05-04T07:34:30Z</time>
      </trkpt>
      <trkpt lat="50.03178" lon="4.22646">
        <ele>284.6</ele>
        <time>2024-05-04T07:34:31Z</time>
      </trkpt>
      <trkpt lat="50.03185" lon="4.22639">
        <ele>284.6</ele>
        <time>2024-05-04T07:34:32Z</time>
      </trkpt>
      <trkpt lat="50.03192" lon="4.22631">
        <ele>284.4</ele>
        <time>2024-05-04T07:34:33Z</time>
      </trkpt>
      <trkpt lat="50.03199" lon="4.22622">
        <ele>284.2</ele>
        <time>2024-05-04T07:34:34Z</time>
      </trkpt>
      <trkpt lat="50.03205" lon="4.22614">
        <ele>284</ele>
        <time>2024-05-04T07:34:35Z</time>
      </trkpt>
      <trkpt lat="50.03212" lon="4.22606">
        <ele>284</ele>
        <time>2024-05-04T07:34:36Z</time>
      </trkpt>
      <trkpt lat="50.03219" lon="4.22598">
        <ele>283.8</ele>
        <time>2024-05-04T07:34:37Z</time>
      </trkpt>
      <trkpt lat="50.03226" lon="4.2259">
        <ele>283.6</ele>
        <time>2024-05-04T07:34:38Z</time>
      </trkpt>
      <trkpt lat="50.03233" lon="4.22582">
        <ele>282.8</ele>
        <time>2024-05-04T07:34:39Z</time>
      </trkpt>
      <trkpt lat="50.0324" lon="4.22574">
        <ele>282.6</ele>
        <time>2024-05-04T07:34:40Z</time>
      </trkpt>
      <trkpt lat="50.03248" lon="4.22566">
        <ele>282.4</ele>
        <time>2024-05-04T07:34:41Z</time>
      </trkpt>
      <trkpt lat="50.03255" lon="4.22557">
        <ele>282</ele>
        <time>2024-05-04T07:34:42Z</time>
      </trkpt>
      <trkpt lat="50.03262" lon="4.22549">
        <ele>281.8</ele>
        <time>2024-05-04T07:34:43Z</time>
      </trkpt>
      <trkpt lat="50.03269" lon="4.2254">
        <ele>281</ele>
        <time>2024-05-04T07:34:44Z</time>
      </trkpt>
      <trkpt lat="50.03277" lon="4.22531">
        <ele>280.8</ele>
        <time>2024-05-04T07:34:45Z</time>
      </trkpt>
      <trkpt lat="50.03285" lon="4.22522">
        <ele>280.6</ele>
        <time>2024-05-04T07:34:46Z</time>
      </trkpt>
      <trkpt lat="50.03292" lon="4.22513">
        <ele>280.4</ele>
        <time>2024-05-04T07:34:47Z</time>
      </trkpt>
      <trkpt lat="50.033" lon="4.22504">
        <ele>280.4</ele>
        <time>2024-05-04T07:34:48Z</time>
      </trkpt>
      <trkpt lat="50.03309" lon="4.22495">
        <ele>280</ele>
        <time>2024-05-04T07:34:49Z</time>
      </trkpt>
      <trkpt lat="50.03318" lon="4.22489">
        <ele>279.6</ele>
        <time>2024-05-04T07:34:50Z</time>
      </trkpt>
      <trkpt lat="50.03329" lon="4.22484">
        <ele>278.2</ele>
        <time>2024-05-04T07:34:51Z</time>
      </trkpt>
      <trkpt lat="50.03339" lon="4.22482">
        <ele>277.6</ele>
        <time>2024-05-04T07:34:52Z</time>
      </trkpt>
      <trkpt lat="50.0335" lon="4.22482">
        <ele>277.4</ele>
        <time>2024-05-04T07:34:53Z</time>
      </trkpt>
      <trkpt lat="50.03361" lon="4.22482">
        <ele>277.4</ele>
        <time>2024-05-04T07:34:54Z</time>
      </trkpt>
      <trkpt lat="50.03371" lon="4.22482">
        <ele>276.8</ele>
        <time>2024-05-04T07:34:55Z</time>
      </trkpt>
      <trkpt lat="50.03382" lon="4.22482">
        <ele>276.2</ele>
        <time>2024-05-04T07:34:56Z</time>
      </trkpt>
      <trkpt lat="50.03393" lon="4.22482">
        <ele>275.6</ele>
        <time>2024-05-04T07:34:57Z</time>
      </trkpt>
      <trkpt lat="50.03404" lon="4.22481">
        <ele>275</ele>
        <time>2024-05-04T07:34:58Z</time>
      </trkpt>
      <trkpt lat="50.03415" lon="4.2248">
        <ele>273.8</ele>
        <time>2024-05-04T07:34:59Z</time>
      </trkpt>
      <trkpt lat="50.03426" lon="4.2248">
        <ele>273.2</ele>
        <time>2024-05-04T07:35:00Z</time>
      </trkpt>
      <trkpt lat="50.03437" lon="4.22481">
        <ele>272.2</ele>
        <time>2024-05-04T07:35:01Z</time>
      </trkpt>
      <trkpt lat="50.03448" lon="4.2248">
        <ele>271.6</ele>
        <time>2024-05-04T07:35:02Z</time>
      </trkpt>
      <trkpt lat="50.03459" lon="4.22479">
        <ele>271</ele>
        <time>2024-05-04T07:35:03Z</time>
      </trkpt>
      <trkpt lat="50.0347" lon="4.22477">
        <ele>270.4</ele>
        <time>2024-05-04T07:35:04Z</time>
      </trkpt>
      <trkpt lat="50.03481" lon="4.22474">
        <ele>270</ele>
        <time>2024-05-04T07:35:05Z</time>
      </trkpt>
      <trkpt lat="50.03492" lon="4.22469">
        <ele>269.4</ele>
        <time>2024-05-04T07:35:06Z</time>
      </trkpt>
      <trkpt lat="50.03501" lon="4.22462">
        <ele>269.2</ele>
        <time>2024-05-04T07:35:07Z</time>
      </trkpt>
      <trkpt lat="50.0351" lon="4.22453">
        <ele>268.8</ele>
        <time>2024-05-04T07:35:08Z</time>
      </trkpt>
      <trkpt lat="50.03518" lon="4.22442">
        <ele>268.4</ele>
        <time>2024-05-04T07:35:09Z</time>
      </trkpt>
      <trkpt lat="50.03525" lon="4.22431">
        <ele>268.2</ele>
        <time>2024-05-04T07:35:10Z</time>
      </trkpt>
      <trkpt lat="50.03532" lon="4.22419">
        <ele>267</ele>
        <time>2024-05-04T07:35:11Z</time>
      </trkpt>
      <trkpt lat="50.03539" lon="4.22408">
        <ele>266.2</ele>
        <time>2024-05-04T07:35:12Z</time>
      </trkpt>
      <trkpt lat="50.03546" lon="4.22398">
        <ele>266.2</ele>
        <time>2024-05-04T07:35:13Z</time>
      </trkpt>
      <trkpt lat="50.03553" lon="4.22389">
        <ele>265.2</ele>
        <time>2024-05-04T07:35:14Z</time>
      </trkpt>
      <trkpt lat="50.03561" lon="4.22383">
        <ele>264.4</ele>
        <time>2024-05-04T07:35:15Z</time>
      </trkpt>
      <trkpt lat="50.03569" lon="4.22382">
        <ele>264</ele>
        <time>2024-05-04T07:35:16Z</time>
      </trkpt>
      <trkpt lat="50.03578" lon="4.22384">
        <ele>263.4</ele>
        <time>2024-05-04T07:35:17Z</time>
      </trkpt>
      <trkpt lat="50.03585" lon="4.2239">
        <ele>262.6</ele>
        <time>2024-05-04T07:35:18Z</time>
      </trkpt>
      <trkpt lat="50.03594" lon="4.22398">
        <ele>261.4</ele>
        <time>2024-05-04T07:35:19Z</time>
      </trkpt>
      <trkpt lat="50.03601" lon="4.22406">
        <ele>260.8</ele>
        <time>2024-05-04T07:35:20Z</time>
      </trkpt>
      <trkpt lat="50.0361" lon="4.22412">
        <ele>260.6</ele>
        <time>2024-05-04T07:35:21Z</time>
      </trkpt>
      <trkpt lat="50.03618" lon="4.22417">
        <ele>260</ele>
        <time>2024-05-04T07:35:22Z</time>
      </trkpt>
      <trkpt lat="50.03627" lon="4.22419">
        <ele>259.8</ele>
        <time>2024-05-04T07:35:23Z</time>
      </trkpt>
      <trkpt lat="50.03636" lon="4.22418">
        <ele>259.6</ele>
        <time>2024-05-04T07:35:24Z</time>
      </trkpt>
      <trkpt lat="50.03644" lon="4.22413">
        <ele>259.4</ele>
        <time>2024-05-04T07:35:25Z</time>
      </trkpt>
      <trkpt lat="50.03652" lon="4.22406">
        <ele>259.4</ele>
        <time>2024-05-04T07:35:26Z</time>
      </trkpt>
      <trkpt lat="50.03659" lon="4.22397">
        <ele>259.2</ele>
        <time>2024-05-04T07:35:27Z</time>
      </trkpt>
      <trkpt lat="50.03665" lon="4.22387">
        <ele>259.2</ele>
        <time>2024-05-04T07:35:28Z</time>
      </trkpt>
      <trkpt lat="50.03672" lon="4.22378">
        <ele>259.2</ele>
        <time>2024-05-04T07:35:29Z</time>
      </trkpt>
      <trkpt lat="50.03679" lon="4.22369">
        <ele>259</ele>
        <time>2024-05-04T07:35:30Z</time>
      </trkpt>
      <trkpt lat="50.03686" lon="4.2236">
        <ele>258.8</ele>
        <time>2024-05-04T07:35:31Z</time>
      </trkpt>
      <trkpt lat="50.03694" lon="4.22352">
        <ele>258.6</ele>
        <time>2024-05-04T07:35:32Z</time>
      </trkpt>
      <trkpt lat="50.03702" lon="4.22344">
        <ele>258.6</ele>
        <time>2024-05-04T07:35:33Z</time>
      </trkpt>
      <trkpt lat="50.0371" lon="4.22337">
        <ele>258.4</ele>
        <time>2024-05-04T07:35:34Z</time>
      </trkpt>
      <trkpt lat="50.03718" lon="4.22331">
        <ele>258.2</ele>
        <time>2024-05-04T07:35:35Z</time>
      </trkpt>
      <trkpt lat="50.03727" lon="4.22324">
        <ele>258.2</ele>
        <time>2024-05-04T07:35:36Z</time>
      </trkpt>
      <trkpt lat="50.03736" lon="4.22319">
        <ele>258</ele>
        <time>2024-05-04T07:35:37Z</time>
      </trkpt>
      <trkpt lat="50.03745" lon="4.22315">
        <ele>257.8</ele>
        <time>2024-05-04T07:35:38Z</time>
      </trkpt>
      <trkpt lat="50.03753" lon="4.2231">
        <ele>257.4</ele>
        <time>2024-05-04T07:35:39Z</time>
      </trkpt>
      <trkpt lat="50.03761" lon="4.22305">
        <ele>257</ele>
        <time>2024-05-04T07:35:40Z</time>
      </trkpt>
      <trkpt lat="50.03769" lon="4.22299">
        <ele>256.8</ele>
        <time>2024-05-04T07:35:41Z</time>
      </trkpt>
      <trkpt lat="50.03775" lon="4.22291">
        <ele>256.6</ele>
        <time>2024-05-04T07:35:42Z</time>
      </trkpt>
      <trkpt lat="50.03781" lon="4.22281">
        <ele>256.4</ele>
        <time>2024-05-04T07:35:43Z</time>
      </trkpt>
      <trkpt lat="50.03785" lon="4.22271">
        <ele>256.6</ele>
        <time>2024-05-04T07:35:44Z</time>
      </trkpt>
      <trkpt lat="50.03788" lon="4.22261">
        <ele>256.4</ele>
        <time>2024-05-04T07:35:45Z</time>
      </trkpt>
      <trkpt lat="50.03789" lon="4.2225">
        <ele>256.4</ele>
        <time>2024-05-04T07:35:46Z</time>
      </trkpt>
      <trkpt lat="50.0379" lon="4.2224">
        <ele>256.4</ele>
        <time>2024-05-04T07:35:47Z</time>
      </trkpt>
      <trkpt lat="50.03792" lon="4.2223">
        <ele>256.4</ele>
        <time>2024-05-04T07:35:48Z</time>
      </trkpt>
      <trkpt lat="50.03793" lon="4.2222">
        <ele>256.4</ele>
        <time>2024-05-04T07:35:49Z</time>
      </trkpt>
      <trkpt lat="50.03794" lon="4.22211">
        <ele>256.4</ele>
        <time>2024-05-04T07:35:50Z</time>
      </trkpt>
      <trkpt lat="50.03796" lon="4.22203">
        <ele>256.4</ele>
        <time>2024-05-04T07:35:51Z</time>
      </trkpt>
      <trkpt lat="50.03797" lon="4.22195">
        <ele>256.6</ele>
        <time>2024-05-04T07:35:52Z</time>
      </trkpt>
      <trkpt lat="50.03799" lon="4.22187">
        <ele>256.8</ele>
        <time>2024-05-04T07:35:53Z</time>
      </trkpt>
      <trkpt lat="50.038" lon="4.22179">
        <ele>257.4</ele>
        <time>2024-05-04T07:35:54Z</time>
      </trkpt>
      <trkpt lat="50.03802" lon="4.22172">
        <ele>258</ele>
        <time>2024-05-04T07:35:55Z</time>
      </trkpt>
      <trkpt lat="50.03804" lon="4.22165">
        <ele>258.8</ele>
        <time>2024-05-04T07:35:56Z</time>
      </trkpt>
      <trkpt lat="50.03806" lon="4.22159">
        <ele>259.6</ele>
        <time>2024-05-04T07:35:57Z</time>
      </trkpt>
      <trkpt lat="50.03808" lon="4.22153">
        <ele>260.2</ele>
        <time>2024-05-04T07:35:58Z</time>
      </trkpt>
      <trkpt lat="50.0381" lon="4.22147">
        <ele>260.6</ele>
        <time>2024-05-04T07:35:59Z</time>
      </trkpt>
      <trkpt lat="50.03813" lon="4.22141">
        <ele>261</ele>
        <time>2024-05-04T07:36:00Z</time>
      </trkpt>
      <trkpt lat="50.03815" lon="4.22135">
        <ele>261.8</ele>
        <time>2024-05-04T07:36:01Z</time>
      </trkpt>
      <trkpt lat="50.03817" lon="4.22129">
        <ele>262.4</ele>
        <time>2024-05-04T07:36:02Z</time>
      </trkpt>
      <trkpt lat="50.03819" lon="4.22122">
        <ele>262.4</ele>
        <time>2024-05-04T07:36:03Z</time>
      </trkpt>
      <trkpt lat="50.0382" lon="4.22116">
        <ele>263</ele>
        <time>2024-05-04T07:36:04Z</time>
      </trkpt>
      <trkpt lat="50.03822" lon="4.22109">
        <ele>263.4</ele>
        <time>2024-05-04T07:36:05Z</time>
      </trkpt>
      <trkpt lat="50.03823" lon="4.22103">
        <ele>263.6</ele>
        <time>2024-05-04T07:36:06Z</time>
      </trkpt>
      <trkpt lat="50.03824" lon="4.22097">
        <ele>264</ele>
        <time>2024-05-04T07:36:07Z</time>
      </trkpt>
      <trkpt lat="50.03826" lon="4.2209">
        <ele>264.4</ele>
        <time>2024-05-04T07:36:08Z</time>
      </trkpt>
      <trkpt lat="50.03827" lon="4.22084">
        <ele>264.8</ele>
        <time>2024-05-04T07:36:09Z</time>
      </trkpt>
      <trkpt lat="50.03828" lon="4.22077">
        <ele>265.2</ele>
        <time>2024-05-04T07:36:10Z</time>
      </trkpt>
      <trkpt lat="50.03828" lon="4.2207">
        <ele>265.4</ele>
        <time>2024-05-04T07:36:11Z</time>
      </trkpt>
      <trkpt lat="50.03829" lon="4.22063">
        <ele>265.4</ele>
        <time>2024-05-04T07:36:12Z</time>
      </trkpt>
      <trkpt lat="50.0383" lon="4.22056">
        <ele>265.6</ele>
        <time>2024-05-04T07:36:13Z</time>
      </trkpt>
      <trkpt lat="50.03832" lon="4.2205">
        <ele>265.6</ele>
        <time>2024-05-04T07:36:14Z</time>
      </trkpt>
      <trkpt lat="50.03833" lon="4.22044">
        <ele>265.8</ele>
        <time>2024-05-04T07:36:15Z</time>
      </trkpt>
      <trkpt lat="50.03835" lon="4.22037">
        <ele>266</ele>
        <time>2024-05-04T07:36:16Z</time>
      </trkpt>
      <trkpt lat="50.03836" lon="4.2203">
        <ele>266.2</ele>
        <time>2024-05-04T07:36:17Z</time>
      </trkpt>
      <trkpt lat="50.03837" lon="4.22023">
        <ele>266.2</ele>
        <time>2024-05-04T07:36:18Z</time>
      </trkpt>
      <trkpt lat="50.03838" lon="4.22017">
        <ele>266.4</ele>
        <time>2024-05-04T07:36:19Z</time>
      </trkpt>
      <trkpt lat="50.03839" lon="4.2201">
        <ele>266.4</ele>
        <time>2024-05-04T07:36:20Z</time>
      </trkpt>
      <trkpt lat="50.0384" lon="4.22003">
        <ele>266.4</ele>
        <time>2024-05-04T07:36:21Z</time>
      </trkpt>
      <trkpt lat="50.03842" lon="4.21997">
        <ele>266.4</ele>
        <time>2024-05-04T07:36:22Z</time>
      </trkpt>
      <trkpt lat="50.03843" lon="4.2199">
        <ele>266.8</ele>
        <time>2024-05-04T07:36:23Z</time>
      </trkpt>
      <trkpt lat="50.03844" lon="4.21984">
        <ele>267.2</ele>
        <time>2024-05-04T07:36:24Z</time>
      </trkpt>
      <trkpt lat="50.03845" lon="4.21977">
        <ele>268</ele>
        <time>2024-05-04T07:36:25Z</time>
      </trkpt>
      <trkpt lat="50.03846" lon="4.21971">
        <ele>268.6</ele>
        <time>2024-05-04T07:36:26Z</time>
      </trkpt>
      <trkpt lat="50.03847" lon="4.21965">
        <ele>268.8</ele>
        <time>2024-05-04T07:36:27Z</time>
      </trkpt>
      <trkpt lat="50.03848" lon="4.21959">
        <ele>269.4</ele>
        <time>2024-05-04T07:36:28Z</time>
      </trkpt>
      <trkpt lat="50.03849" lon="4.21953">
        <ele>269.4</ele>
        <time>2024-05-04T07:36:29Z</time>
      </trkpt>
      <trkpt lat="50.03851" lon="4.21947">
        <ele>269.8</ele>
        <time>2024-05-04T07:36:30Z</time>
      </trkpt>
      <trkpt lat="50.03852" lon="4.2194">
        <ele>270.2</ele>
        <time>2024-05-04T07:36:31Z</time>
      </trkpt>
      <trkpt lat="50.03853" lon="4.21934">
        <ele>270.4</ele>
        <time>2024-05-04T07:36:32Z</time>
      </trkpt>
      <trkpt lat="50.03854" lon="4.21927">
        <ele>270.6</ele>
        <time>2024-05-04T07:36:33Z</time>
      </trkpt>
      <trkpt lat="50.03855" lon="4.2192">
        <ele>270.6</ele>
        <time>2024-05-04T07:36:34Z</time>
      </trkpt>
      <trkpt lat="50.03856" lon="4.21913">
        <ele>270.8</ele>
        <time>2024-05-04T07:36:35Z</time>
      </trkpt>
      <trkpt lat="50.03857" lon="4.21906">
        <ele>270.8</ele>
        <time>2024-05-04T07:36:36Z</time>
      </trkpt>
      <trkpt lat="50.03859" lon="4.21899">
        <ele>271</ele>
        <time>2024-05-04T07:36:37Z</time>
      </trkpt>
      <trkpt lat="50.0386" lon="4.21892">
        <ele>271</ele>
        <time>2024-05-04T07:36:38Z</time>
      </trkpt>
      <trkpt lat="50.03861" lon="4.21885">
        <ele>271.2</ele>
        <time>2024-05-04T07:36:39Z</time>
      </trkpt>
      <trkpt lat="50.03862" lon="4.21878">
        <ele>271.2</ele>
        <time>2024-05-04T07:36:40Z</time>
      </trkpt>
      <trkpt lat="50.03864" lon="4.21871">
        <ele>271.4</ele>
        <time>2024-05-04T07:36:41Z</time>
      </trkpt>
      <trkpt lat="50.03865" lon="4.21863">
        <ele>271.8</ele>
        <time>2024-05-04T07:36:42Z</time>
      </trkpt>
      <trkpt lat="50.03866" lon="4.21856">
        <ele>271.8</ele>
        <time>2024-05-04T07:36:43Z</time>
      </trkpt>
      <trkpt lat="50.03868" lon="4.21848">
        <ele>272.4</ele>
        <time>2024-05-04T07:36:44Z</time>
      </trkpt>
      <trkpt lat="50.03869" lon="4.2184">
        <ele>272.4</ele>
        <time>2024-05-04T07:36:45Z</time>
      </trkpt>
      <trkpt lat="50.03871" lon="4.21832">
        <ele>272.8</ele>
        <time>2024-05-04T07:36:46Z</time>
      </trkpt>
      <trkpt lat="50.03873" lon="4.21824">
        <ele>272.8</ele>
        <time>2024-05-04T07:36:47Z</time>
      </trkpt>
      <trkpt lat="50.03874" lon="4.21815">
        <ele>272.6</ele>
        <time>2024-05-04T07:36:48Z</time>
      </trkpt>
      <trkpt lat="50.03876" lon="4.21807">
        <ele>272.8</ele>
        <time>2024-05-04T07:36:49Z</time>
      </trkpt>
      <trkpt lat="50.03878" lon="4.21798">
        <ele>272.8</ele>
        <time>2024-05-04T07:36:50Z</time>
      </trkpt>
      <trkpt lat="50.0388" lon="4.21789">
        <ele>272.8</ele>
        <time>2024-05-04T07:36:51Z</time>
      </trkpt>
      <trkpt lat="50.03883" lon="4.21781">
        <ele>272.8</ele>
        <time>2024-05-04T07:36:52Z</time>
      </trkpt>
      <trkpt lat="50.03886" lon="4.21773">
        <ele>273</ele>
        <time>2024-05-04T07:36:53Z</time>
      </trkpt>
      <trkpt lat="50.03889" lon="4.21764">
        <ele>272.8</ele>
        <time>2024-05-04T07:36:54Z</time>
      </trkpt>
      <trkpt lat="50.03893" lon="4.21756">
        <ele>272.8</ele>
        <time>2024-05-04T07:36:55Z</time>
      </trkpt>
      <trkpt lat="50.03897" lon="4.21748">
        <ele>272.8</ele>
        <time>2024-05-04T07:36:56Z</time>
      </trkpt>
      <trkpt lat="50.03901" lon="4.2174">
        <ele>272.8</ele>
        <time>2024-05-04T07:36:57Z</time>
      </trkpt>
      <trkpt lat="50.03906" lon="4.21733">
        <ele>272.6</ele>
        <time>2024-05-04T07:36:58Z</time>
      </trkpt>
      <trkpt lat="50.0391" lon="4.21725">
        <ele>272.4</ele>
        <time>2024-05-04T07:36:59Z</time>
      </trkpt>
      <trkpt lat="50.03915" lon="4.21717">
        <ele>272.4</ele>
        <time>2024-05-04T07:37:00Z</time>
      </trkpt>
      <trkpt lat="50.0392" lon="4.21709">
        <ele>272.2</ele>
        <time>2024-05-04T07:37:01Z</time>
      </trkpt>
      <trkpt lat="50.03924" lon="4.21701">
        <ele>272</ele>
        <time>2024-05-04T07:37:02Z</time>
      </trkpt>
      <trkpt lat="50.03929" lon="4.21693">
        <ele>271.8</ele>
        <time>2024-05-04T07:37:03Z</time>
      </trkpt>
      <trkpt lat="50.03934" lon="4.21685">
        <ele>271.6</ele>
        <time>2024-05-04T07:37:04Z</time>
      </trkpt>
      <trkpt lat="50.03939" lon="4.21677">
        <ele>271.4</ele>
        <time>2024-05-04T07:37:05Z</time>
      </trkpt>
      <trkpt lat="50.03944" lon="4.2167">
        <ele>271.4</ele>
        <time>2024-05-04T07:37:06Z</time>
      </trkpt>
      <trkpt lat="50.03949" lon="4.21663">
        <ele>271.2</ele>
        <time>2024-05-04T07:37:07Z</time>
      </trkpt>
      <trkpt lat="50.03956" lon="4.21657">
        <ele>271.2</ele>
        <time>2024-05-04T07:37:08Z</time>
      </trkpt>
      <trkpt lat="50.03962" lon="4.21652">
        <ele>271.2</ele>
        <time>2024-05-04T07:37:09Z</time>
      </trkpt>
      <trkpt lat="50.03969" lon="4.2165">
        <ele>271</ele>
        <time>2024-05-04T07:37:10Z</time>
      </trkpt>
      <trkpt lat="50.03977" lon="4.21648">
        <ele>271</ele>
        <time>2024-05-04T07:37:11Z</time>
      </trkpt>
      <trkpt lat="50.03984" lon="4.21647">
        <ele>271</ele>
        <time>2024-05-04T07:37:12Z</time>
      </trkpt>
      <trkpt lat="50.03991" lon="4.21647">
        <ele>271</ele>
        <time>2024-05-04T07:37:13Z</time>
      </trkpt>
      <trkpt lat="50.03999" lon="4.21647">
        <ele>270.8</ele>
        <time>2024-05-04T07:37:14Z</time>
      </trkpt>
      <trkpt lat="50.04006" lon="4.21647">
        <ele>270.6</ele>
        <time>2024-05-04T07:37:15Z</time>
      </trkpt>
      <trkpt lat="50.04014" lon="4.21646">
        <ele>270.6</ele>
        <time>2024-05-04T07:37:16Z</time>
      </trkpt>
      <trkpt lat="50.04021" lon="4.21643">
        <ele>270.4</ele>
        <time>2024-05-04T07:37:17Z</time>
      </trkpt>
      <trkpt lat="50.04028" lon="4.21638">
        <ele>270.4</ele>
        <time>2024-05-04T07:37:18Z</time>
      </trkpt>
      <trkpt lat="50.04034" lon="4.21631">
        <ele>270.2</ele>
        <time>2024-05-04T07:37:19Z</time>
      </trkpt>
      <trkpt lat="50.0404" lon="4.21623">
        <ele>270</ele>
        <time>2024-05-04T07:37:20Z</time>
      </trkpt>
      <trkpt lat="50.04045" lon="4.21614">
        <ele>270</ele>
        <time>2024-05-04T07:37:21Z</time>
      </trkpt>
      <trkpt lat="50.04051" lon="4.21604">
        <ele>269.6</ele>
        <time>2024-05-04T07:37:22Z</time>
      </trkpt>
      <trkpt lat="50.04056" lon="4.21595">
        <ele>269.4</ele>
        <time>2024-05-04T07:37:23Z</time>
      </trkpt>
      <trkpt lat="50.04061" lon="4.21586">
        <ele>269.2</ele>
        <time>2024-05-04T07:37:24Z</time>
      </trkpt>
      <trkpt lat="50.04067" lon="4.21578">
        <ele>269</ele>
        <time>2024-05-04T07:37:25Z</time>
      </trkpt>
      <trkpt lat="50.04074" lon="4.2157">
        <ele>268.6</ele>
        <time>2024-05-04T07:37:26Z</time>
      </trkpt>
      <trkpt lat="50.04081" lon="4.21564">
        <ele>268.6</ele>
        <time>2024-05-04T07:37:27Z</time>
      </trkpt>
      <trkpt lat="50.04089" lon="4.21559">
        <ele>268.2</ele>
        <time>2024-05-04T07:37:28Z</time>
      </trkpt>
      <trkpt lat="50.04097" lon="4.21555">
        <ele>267.8</ele>
        <time>2024-05-04T07:37:29Z</time>
      </trkpt>
      <trkpt lat="50.04106" lon="4.21553">
        <ele>267.8</ele>
        <time>2024-05-04T07:37:30Z</time>
      </trkpt>
      <trkpt lat="50.04115" lon="4.21552">
        <ele>267.6</ele>
        <time>2024-05-04T07:37:31Z</time>
      </trkpt>
      <trkpt lat="50.04124" lon="4.21551">
        <ele>267.2</ele>
        <time>2024-05-04T07:37:32Z</time>
      </trkpt>
      <trkpt lat="50.04134" lon="4.21551">
        <ele>267</ele>
        <time>2024-05-04T07:37:33Z</time>
      </trkpt>
      <trkpt lat="50.04144" lon="4.21551">
        <ele>266.8</ele>
        <time>2024-05-04T07:37:34Z</time>
      </trkpt>
      <trkpt lat="50.04155" lon="4.21551">
        <ele>266.6</ele>
        <time>2024-05-04T07:37:35Z</time>
      </trkpt>
      <trkpt lat="50.04166" lon="4.21551">
        <ele>266.4</ele>
        <time>2024-05-04T07:37:36Z</time>
      </trkpt>
      <trkpt lat="50.04177" lon="4.21551">
        <ele>266</ele>
        <time>2024-05-04T07:37:37Z</time>
      </trkpt>
      <trkpt lat="50.04189" lon="4.21551">
        <ele>265.2</ele>
        <time>2024-05-04T07:37:38Z</time>
      </trkpt>
      <trkpt lat="50.04201" lon="4.21551">
        <ele>264.4</ele>
        <time>2024-05-04T07:37:39Z</time>
      </trkpt>
      <trkpt lat="50.04214" lon="4.21552">
        <ele>264</ele>
        <time>2024-05-04T07:37:40Z</time>
      </trkpt>
      <trkpt lat="50.04226" lon="4.21552">
        <ele>263.2</ele>
        <time>2024-05-04T07:37:41Z</time>
      </trkpt>
      <trkpt lat="50.04238" lon="4.21553">
        <ele>262.4</ele>
        <time>2024-05-04T07:37:42Z</time>
      </trkpt>
      <trkpt lat="50.0425" lon="4.21553">
        <ele>261.4</ele>
        <time>2024-05-04T07:37:43Z</time>
      </trkpt>
      <trkpt lat="50.04262" lon="4.21553">
        <ele>260.2</ele>
        <time>2024-05-04T07:37:44Z</time>
      </trkpt>
      <trkpt lat="50.04273" lon="4.21553">
        <ele>259.2</ele>
        <time>2024-05-04T07:37:45Z</time>
      </trkpt>
      <trkpt lat="50.04284" lon="4.21553">
        <ele>258</ele>
        <time>2024-05-04T07:37:46Z</time>
      </trkpt>
      <trkpt lat="50.04295" lon="4.21551">
        <ele>256.8</ele>
        <time>2024-05-04T07:37:47Z</time>
      </trkpt>
      <trkpt lat="50.04306" lon="4.21547">
        <ele>256.8</ele>
        <time>2024-05-04T07:37:48Z</time>
      </trkpt>
      <trkpt lat="50.04316" lon="4.2154">
        <ele>255.2</ele>
        <time>2024-05-04T07:37:49Z</time>
      </trkpt>
      <trkpt lat="50.04326" lon="4.2153">
        <ele>254</ele>
        <time>2024-05-04T07:37:50Z</time>
      </trkpt>
      <trkpt lat="50.04335" lon="4.21517">
        <ele>253</ele>
        <time>2024-05-04T07:37:51Z</time>
      </trkpt>
      <trkpt lat="50.04343" lon="4.21504">
        <ele>251.8</ele>
        <time>2024-05-04T07:37:52Z</time>
      </trkpt>
      <trkpt lat="50.04352" lon="4.21489">
        <ele>251.2</ele>
        <time>2024-05-04T07:37:53Z</time>
      </trkpt>
      <trkpt lat="50.04361" lon="4.21474">
        <ele>250.4</ele>
        <time>2024-05-04T07:37:54Z</time>
      </trkpt>
      <trkpt lat="50.0437" lon="4.21459">
        <ele>249.8</ele>
        <time>2024-05-04T07:37:55Z</time>
      </trkpt>
      <trkpt lat="50.04378" lon="4.21442">
        <ele>249.2</ele>
        <time>2024-05-04T07:37:56Z</time>
      </trkpt>
      <trkpt lat="50.04387" lon="4.21425">
        <ele>248.8</ele>
        <time>2024-05-04T07:37:57Z</time>
      </trkpt>
      <trkpt lat="50.04394" lon="4.21407">
        <ele>248.4</ele>
        <time>2024-05-04T07:37:58Z</time>
      </trkpt>
      <trkpt lat="50.04402" lon="4.21389">
        <ele>247.6</ele>
        <time>2024-05-04T07:37:59Z</time>
      </trkpt>
      <trkpt lat="50.04409" lon="4.2137">
        <ele>246.4</ele>
        <time>2024-05-04T07:38:00Z</time>
      </trkpt>
      <trkpt lat="50.04416" lon="4.21351">
        <ele>245.2</ele>
        <time>2024-05-04T07:38:01Z</time>
      </trkpt>
      <trkpt lat="50.04424" lon="4.21332">
        <ele>244.2</ele>
        <time>2024-05-04T07:38:02Z</time>
      </trkpt>
      <trkpt lat="50.04431" lon="4.21314">
        <ele>242.4</ele>
        <time>2024-05-04T07:38:03Z</time>
      </trkpt>
      <trkpt lat="50.04439" lon="4.21296">
        <ele>242.4</ele>
        <time>2024-05-04T07:38:04Z</time>
      </trkpt>
      <trkpt lat="50.04447" lon="4.21279">
        <ele>240.4</ele>
        <time>2024-05-04T07:38:05Z</time>
      </trkpt>
      <trkpt lat="50.04455" lon="4.21262">
        <ele>238.8</ele>
        <time>2024-05-04T07:38:06Z</time>
      </trkpt>
      <trkpt lat="50.04463" lon="4.21246">
        <ele>237.2</ele>
        <time>2024-05-04T07:38:07Z</time>
      </trkpt>
      <trkpt lat="50.04472" lon="4.21231">
        <ele>235.8</ele>
        <time>2024-05-04T07:38:08Z</time>
      </trkpt>
      <trkpt lat="50.04481" lon="4.21217">
        <ele>234.4</ele>
        <time>2024-05-04T07:38:09Z</time>
      </trkpt>
      <trkpt lat="50.04491" lon="4.21204">
        <ele>233.6</ele>
        <time>2024-05-04T07:38:10Z</time>
      </trkpt>
      <trkpt lat="50.045" lon="4.21192">
        <ele>232.4</ele>
        <time>2024-05-04T07:38:11Z</time>
      </trkpt>
      <trkpt lat="50.0451" lon="4.2118">
        <ele>232</ele>
        <time>2024-05-04T07:38:12Z</time>
      </trkpt>
      <trkpt lat="50.0452" lon="4.21169">
        <ele>231.4</ele>
        <time>2024-05-04T07:38:13Z</time>
      </trkpt>
      <trkpt lat="50.04529" lon="4.21159">
        <ele>231.2</ele>
        <time>2024-05-04T07:38:14Z</time>
      </trkpt>
      <trkpt lat="50.04539" lon="4.2115">
        <ele>231</ele>
        <time>2024-05-04T07:38:15Z</time>
      </trkpt>
      <trkpt lat="50.04549" lon="4.21142">
        <ele>231.2</ele>
        <time>2024-05-04T07:38:16Z</time>
      </trkpt>
      <trkpt lat="50.04559" lon="4.21134">
        <ele>231.2</ele>
        <time>2024-05-04T07:38:17Z</time>
      </trkpt>
      <trkpt lat="50.04569" lon="4.21127">
        <ele>231</ele>
        <time>2024-05-04T07:38:18Z</time>
      </trkpt>
      <trkpt lat="50.04579" lon="4.2112">
        <ele>231</ele>
        <time>2024-05-04T07:38:19Z</time>
      </trkpt>
      <trkpt lat="50.04589" lon="4.21115">
        <ele>230.8</ele>
        <time>2024-05-04T07:38:20Z</time>
      </trkpt>
      <trkpt lat="50.04599" lon="4.2111">
        <ele>230.6</ele>
        <time>2024-05-04T07:38:21Z</time>
      </trkpt>
      <trkpt lat="50.04609" lon="4.21106">
        <ele>230.6</ele>
        <time>2024-05-04T07:38:22Z</time>
      </trkpt>
      <trkpt lat="50.04619" lon="4.21102">
        <ele>230.8</ele>
        <time>2024-05-04T07:38:23Z</time>
      </trkpt>
      <trkpt lat="50.04629" lon="4.21097">
        <ele>230.6</ele>
        <time>2024-05-04T07:38:24Z</time>
      </trkpt>
      <trkpt lat="50.04639" lon="4.21094">
        <ele>230.4</ele>
        <time>2024-05-04T07:38:25Z</time>
      </trkpt>
      <trkpt lat="50.04648" lon="4.2109">
        <ele>230.2</ele>
        <time>2024-05-04T07:38:26Z</time>
      </trkpt>
      <trkpt lat="50.04658" lon="4.21085">
        <ele>230.2</ele>
        <time>2024-05-04T07:38:27Z</time>
      </trkpt>
      <trkpt lat="50.04667" lon="4.21081">
        <ele>230</ele>
        <time>2024-05-04T07:38:28Z</time>
      </trkpt>
      <trkpt lat="50.04677" lon="4.21077">
        <ele>230</ele>
        <time>2024-05-04T07:38:29Z</time>
      </trkpt>
      <trkpt lat="50.04686" lon="4.21073">
        <ele>229.8</ele>
        <time>2024-05-04T07:38:30Z</time>
      </trkpt>
      <trkpt lat="50.04696" lon="4.21069">
        <ele>229.6</ele>
        <time>2024-05-04T07:38:31Z</time>
      </trkpt>
      <trkpt lat="50.04706" lon="4.21065">
        <ele>229.6</ele>
        <time>2024-05-04T07:38:32Z</time>
      </trkpt>
      <trkpt lat="50.04715" lon="4.21061">
        <ele>229.6</ele>
        <time>2024-05-04T07:38:33Z</time>
      </trkpt>
      <trkpt lat="50.04725" lon="4.21056">
        <ele>229.4</ele>
        <time>2024-05-04T07:38:34Z</time>
      </trkpt>
      <trkpt lat="50.04735" lon="4.21052">
        <ele>229.4</ele>
        <time>2024-05-04T07:38:35Z</time>
      </trkpt>
      <trkpt lat="50.04745" lon="4.21048">
        <ele>229.2</ele>
        <time>2024-05-04T07:38:36Z</time>
      </trkpt>
      <trkpt lat="50.04754" lon="4.21043">
        <ele>229.2</ele>
        <time>2024-05-04T07:38:37Z</time>
      </trkpt>
      <trkpt lat="50.04764" lon="4.21038">
        <ele>229.2</ele>
        <time>2024-05-04T07:38:38Z</time>
      </trkpt>
      <trkpt lat="50.04773" lon="4.21032">
        <ele>229</ele>
        <time>2024-05-04T07:38:39Z</time>
      </trkpt>
      <trkpt lat="50.04783" lon="4.21025">
        <ele>229</ele>
        <time>2024-05-04T07:38:40Z</time>
      </trkpt>
      <trkpt lat="50.04792" lon="4.21019">
        <ele>229</ele>
        <time>2024-05-04T07:38:41Z</time>
      </trkpt>
      <trkpt lat="50.04801" lon="4.21011">
        <ele>228.8</ele>
        <time>2024-05-04T07:38:42Z</time>
      </trkpt>
      <trkpt lat="50.0481" lon="4.21004">
        <ele>229</ele>
        <time>2024-05-04T07:38:43Z</time>
      </trkpt>
      <trkpt lat="50.04818" lon="4.20996">
        <ele>228.8</ele>
        <time>2024-05-04T07:38:44Z</time>
      </trkpt>
      <trkpt lat="50.04827" lon="4.20988">
        <ele>228.8</ele>
        <time>2024-05-04T07:38:45Z</time>
      </trkpt>
      <trkpt lat="50.04835" lon="4.2098">
        <ele>228.6</ele>
        <time>2024-05-04T07:38:46Z</time>
      </trkpt>
      <trkpt lat="50.04844" lon="4.20971">
        <ele>228.6</ele>
        <time>2024-05-04T07:38:47Z</time>
      </trkpt>
      <trkpt lat="50.04852" lon="4.20963">
        <ele>228.6</ele>
        <time>2024-05-04T07:38:48Z</time>
      </trkpt>
      <trkpt lat="50.04861" lon="4.20954">
        <ele>228.6</ele>
        <time>2024-05-04T07:38:49Z</time>
      </trkpt>
      <trkpt lat="50.04869" lon="4.20945">
        <ele>228.4</ele>
        <time>2024-05-04T07:38:50Z</time>
      </trkpt>
      <trkpt lat="50.04878" lon="4.20936">
        <ele>228</ele>
        <time>2024-05-04T07:38:51Z</time>
      </trkpt>
      <trkpt lat="50.04886" lon="4.20926">
        <ele>227.8</ele>
        <time>2024-05-04T07:38:52Z</time>
      </trkpt>
      <trkpt lat="50.04894" lon="4.20914">
        <ele>227.6</ele>
        <time>2024-05-04T07:38:53Z</time>
      </trkpt>
      <trkpt lat="50.04901" lon="4.20902">
        <ele>227.2</ele>
        <time>2024-05-04T07:38:54Z</time>
      </trkpt>
      <trkpt lat="50.04908" lon="4.20889">
        <ele>227.2</ele>
        <time>2024-05-04T07:38:55Z</time>
      </trkpt>
      <trkpt lat="50.04916" lon="4.20876">
        <ele>227.2</ele>
        <time>2024-05-04T07:38:56Z</time>
      </trkpt>
      <trkpt lat="50.04924" lon="4.20865">
        <ele>226.6</ele>
        <time>2024-05-04T07:38:57Z</time>
      </trkpt>
      <trkpt lat="50.04934" lon="4.20856">
        <ele>226.2</ele>
        <time>2024-05-04T07:38:58Z</time>
      </trkpt>
      <trkpt lat="50.04945" lon="4.20849">
        <ele>226</ele>
        <time>2024-05-04T07:38:59Z</time>
      </trkpt>
      <trkpt lat="50.04957" lon="4.20845">
        <ele>225.6</ele>
        <time>2024-05-04T07:39:00Z</time>
      </trkpt>
      <trkpt lat="50.04969" lon="4.20843">
        <ele>225</ele>
        <time>2024-05-04T07:39:01Z</time>
      </trkpt>
      <trkpt lat="50.04982" lon="4.20845">
        <ele>224.2</ele>
        <time>2024-05-04T07:39:02Z</time>
      </trkpt>
      <trkpt lat="50.04994" lon="4.2085">
        <ele>223.4</ele>
        <time>2024-05-04T07:39:03Z</time>
      </trkpt>
      <trkpt lat="50.05006" lon="4.20857">
        <ele>222.4</ele>
        <time>2024-05-04T07:39:04Z</time>
      </trkpt>
      <trkpt lat="50.05017" lon="4.20865">
        <ele>221.2</ele>
        <time>2024-05-04T07:39:05Z</time>
      </trkpt>
      <trkpt lat="50.05028" lon="4.20872">
        <ele>220</ele>
        <time>2024-05-04T07:39:06Z</time>
      </trkpt>
      <trkpt lat="50.05038" lon="4.20878">
        <ele>218.8</ele>
        <time>2024-05-04T07:39:07Z</time>
      </trkpt>
      <trkpt lat="50.05047" lon="4.20885">
        <ele>217.4</ele>
        <time>2024-05-04T07:39:08Z</time>
      </trkpt>
      <trkpt lat="50.05054" lon="4.20891">
        <ele>216</ele>
        <time>2024-05-04T07:39:09Z</time>
      </trkpt>
      <trkpt lat="50.05061" lon="4.20896">
        <ele>214.4</ele>
        <time>2024-05-04T07:39:10Z</time>
      </trkpt>
      <trkpt lat="50.05069" lon="4.20901">
        <ele>213.2</ele>
        <time>2024-05-04T07:39:11Z</time>
      </trkpt>
      <trkpt lat="50.05077" lon="4.20907">
        <ele>212.2</ele>
        <time>2024-05-04T07:39:12Z</time>
      </trkpt>
      <trkpt lat="50.05083" lon="4.20913">
        <ele>211.4</ele>
        <time>2024-05-04T07:39:13Z</time>
      </trkpt>
      <trkpt lat="50.05089" lon="4.20921">
        <ele>211.2</ele>
        <time>2024-05-04T07:39:14Z</time>
      </trkpt>
      <trkpt lat="50.05095" lon="4.20928">
        <ele>211.2</ele>
        <time>2024-05-04T07:39:15Z</time>
      </trkpt>
      <trkpt lat="50.05101" lon="4.20936">
        <ele>210.8</ele>
        <time>2024-05-04T07:39:16Z</time>
      </trkpt>
      <trkpt lat="50.05107" lon="4.20944">
        <ele>210.6</ele>
        <time>2024-05-04T07:39:17Z</time>
      </trkpt>
      <trkpt lat="50.05113" lon="4.20951">
        <ele>210.4</ele>
        <time>2024-05-04T07:39:18Z</time>
      </trkpt>
      <trkpt lat="50.0512" lon="4.20958">
        <ele>210.2</ele>
        <time>2024-05-04T07:39:19Z</time>
      </trkpt>
      <trkpt lat="50.05126" lon="4.20964">
        <ele>210.2</ele>
        <time>2024-05-04T07:39:20Z</time>
      </trkpt>
      <trkpt lat="50.05132" lon="4.20971">
        <ele>210.2</ele>
        <time>2024-05-04T07:39:21Z</time>
      </trkpt>
      <trkpt lat="50.05138" lon="4.20976">
        <ele>210.2</ele>
        <time>2024-05-04T07:39:22Z</time>
      </trkpt>
      <trkpt lat="50.05143" lon="4.20982">
        <ele>210.2</ele>
        <time>2024-05-04T07:39:23Z</time>
      </trkpt>
      <trkpt lat="50.05149" lon="4.20987">
        <ele>210.2</ele>
        <time>2024-05-04T07:39:24Z</time>
      </trkpt>
      <trkpt lat="50.05154" lon="4.20992">
        <ele>210.2</ele>
        <time>2024-05-04T07:39:25Z</time>
      </trkpt>
      <trkpt lat="50.0516" lon="4.20996">
        <ele>210.4</ele>
        <time>2024-05-04T07:39:26Z</time>
      </trkpt>
      <trkpt lat="50.05165" lon="4.21">
        <ele>210.6</ele>
        <time>2024-05-04T07:39:27Z</time>
      </trkpt>
      <trkpt lat="50.0517" lon="4.21003">
        <ele>210.6</ele>
        <time>2024-05-04T07:39:28Z</time>
      </trkpt>
      <trkpt lat="50.05175" lon="4.21005">
        <ele>211</ele>
        <time>2024-05-04T07:39:29Z</time>
      </trkpt>
      <trkpt lat="50.0518" lon="4.21006">
        <ele>211.4</ele>
        <time>2024-05-04T07:39:30Z</time>
      </trkpt>
      <trkpt lat="50.05184" lon="4.21006">
        <ele>211.8</ele>
        <time>2024-05-04T07:39:31Z</time>
      </trkpt>
      <trkpt lat="50.05189" lon="4.21007">
        <ele>211.8</ele>
        <time>2024-05-04T07:39:32Z</time>
      </trkpt>
      <trkpt lat="50.05193" lon="4.21007">
        <ele>212</ele>
        <time>2024-05-04T07:39:33Z</time>
      </trkpt>
      <trkpt lat="50.05197" lon="4.21007">
        <ele>212.4</ele>
        <time>2024-05-04T07:39:34Z</time>
      </trkpt>
      <trkpt lat="50.05201" lon="4.21007">
        <ele>212.8</ele>
        <time>2024-05-04T07:39:35Z</time>
      </trkpt>
      <trkpt lat="50.05206" lon="4.21007">
        <ele>213</ele>
        <time>2024-05-04T07:39:36Z</time>
      </trkpt>
      <trkpt lat="50.0521" lon="4.21006">
        <ele>213.2</ele>
        <time>2024-05-04T07:39:37Z</time>
      </trkpt>
      <trkpt lat="50.05214" lon="4.21006">
        <ele>213.6</ele>
        <time>2024-05-04T07:39:38Z</time>
      </trkpt>
      <trkpt lat="50.05218" lon="4.21006">
        <ele>213.6</ele>
        <time>2024-05-04T07:39:39Z</time>
      </trkpt>
      <trkpt lat="50.05221" lon="4.21006">
        <ele>214</ele>
        <time>2024-05-04T07:39:40Z</time>
      </trkpt>
      <trkpt lat="50.05226" lon="4.21004">
        <ele>214.4</ele>
        <time>2024-05-04T07:39:41Z</time>
      </trkpt>
      <trkpt lat="50.0523" lon="4.21003">
        <ele>215.2</ele>
        <time>2024-05-04T07:39:42Z</time>
      </trkpt>
      <trkpt lat="50.05235" lon="4.21001">
        <ele>216</ele>
        <time>2024-05-04T07:39:43Z</time>
      </trkpt>
      <trkpt lat="50.0524" lon="4.21">
        <ele>216.2</ele>
        <time>2024-05-04T07:39:44Z</time>
      </trkpt>
      <trkpt lat="50.05245" lon="4.20999">
        <ele>216.4</ele>
        <time>2024-05-04T07:39:45Z</time>
      </trkpt>
      <trkpt lat="50.05251" lon="4.20998">
        <ele>216.6</ele>
        <time>2024-05-04T07:39:46Z</time>
      </trkpt>
      <trkpt lat="50.05257" lon="4.20997">
        <ele>217</ele>
        <time>2024-05-04T07:39:47Z</time>
      </trkpt>
      <trkpt lat="50.05264" lon="4.20996">
        <ele>217</ele>
        <time>2024-05-04T07:39:48Z</time>
      </trkpt>
      <trkpt lat="50.0527" lon="4.20995">
        <ele>217.2</ele>
        <time>2024-05-04T07:39:49Z</time>
      </trkpt>
      <trkpt lat="50.05277" lon="4.20995">
        <ele>217.2</ele>
        <time>2024-05-04T07:39:50Z</time>
      </trkpt>
      <trkpt lat="50.05284" lon="4.20994">
        <ele>217.2</ele>
        <time>2024-05-04T07:39:51Z</time>
      </trkpt>
      <trkpt lat="50.0529" lon="4.20994">
        <ele>217</ele>
        <time>2024-05-04T07:39:52Z</time>
      </trkpt>
      <trkpt lat="50.05297" lon="4.20993">
        <ele>217.2</ele>
        <time>2024-05-04T07:39:53Z</time>
      </trkpt>
      <trkpt lat="50.05304" lon="4.20993">
        <ele>217.2</ele>
        <time>2024-05-04T07:39:54Z</time>
      </trkpt>
      <trkpt lat="50.0531" lon="4.20992">
        <ele>217</ele>
        <time>2024-05-04T07:39:55Z</time>
      </trkpt>
      <trkpt lat="50.05317" lon="4.20992">
        <ele>216.8</ele>
        <time>2024-05-04T07:39:56Z</time>
      </trkpt>
      <trkpt lat="50.05323" lon="4.20991">
        <ele>217</ele>
        <time>2024-05-04T07:39:57Z</time>
      </trkpt>
      <trkpt lat="50.0533" lon="4.20991">
        <ele>216.8</ele>
        <time>2024-05-04T07:39:58Z</time>
      </trkpt>
      <trkpt lat="50.05337" lon="4.20991">
        <ele>216.8</ele>
        <time>2024-05-04T07:39:59Z</time>
      </trkpt>
      <trkpt lat="50.05343" lon="4.2099">
        <ele>216.8</ele>
        <time>2024-05-04T07:40:00Z</time>
      </trkpt>
      <trkpt lat="50.05349" lon="4.2099">
        <ele>216.6</ele>
        <time>2024-05-04T07:40:01Z</time>
      </trkpt>
      <trkpt lat="50.05356" lon="4.2099">
        <ele>216.8</ele>
        <time>2024-05-04T07:40:02Z</time>
      </trkpt>
      <trkpt lat="50.05362" lon="4.2099">
        <ele>216.8</ele>
        <time>2024-05-04T07:40:03Z</time>
      </trkpt>
      <trkpt lat="50.05368" lon="4.20989">
        <ele>216.6</ele>
        <time>2024-05-04T07:40:04Z</time>
      </trkpt>
      <trkpt lat="50.05373" lon="4.20989">
        <ele>217</ele>
        <time>2024-05-04T07:40:05Z</time>
      </trkpt>
      <trkpt lat="50.05379" lon="4.20989">
        <ele>217</ele>
        <time>2024-05-04T07:40:06Z</time>
      </trkpt>
      <trkpt lat="50.05384" lon="4.20989">
        <ele>217</ele>
        <time>2024-05-04T07:40:07Z</time>
      </trkpt>
      <trkpt lat="50.05389" lon="4.2099">
        <ele>217</ele>
        <time>2024-05-04T07:40:08Z</time>
      </trkpt>
      <trkpt lat="50.05395" lon="4.2099">
        <ele>217.2</ele>
        <time>2024-05-04T07:40:09Z</time>
      </trkpt>
      <trkpt lat="50.054" lon="4.20991">
        <ele>217.2</ele>
        <time>2024-05-04T07:40:10Z</time>
      </trkpt>
      <trkpt lat="50.05405" lon="4.20991">
        <ele>217.2</ele>
        <time>2024-05-04T07:40:11Z</time>
      </trkpt>
      <trkpt lat="50.0541" lon="4.20992">
        <ele>217.4</ele>
        <time>2024-05-04T07:40:12Z</time>
      </trkpt>
      <trkpt lat="50.05415" lon="4.20992">
        <ele>218</ele>
        <time>2024-05-04T07:40:13Z</time>
      </trkpt>
      <trkpt lat="50.0542" lon="4.20993">
        <ele>218.4</ele>
        <time>2024-05-04T07:40:14Z</time>
      </trkpt>
      <trkpt lat="50.05426" lon="4.20993">
        <ele>218.6</ele>
        <time>2024-05-04T07:40:15Z</time>
      </trkpt>
      <trkpt lat="50.05431" lon="4.20993">
        <ele>218.8</ele>
        <time>2024-05-04T07:40:16Z</time>
      </trkpt>
      <trkpt lat="50.05436" lon="4.20993">
        <ele>219.2</ele>
        <time>2024-05-04T07:40:17Z</time>
      </trkpt>
      <trkpt lat="50.0544" lon="4.20991">
        <ele>219.2</ele>
        <time>2024-05-04T07:40:18Z</time>
      </trkpt>
      <trkpt lat="50.05445" lon="4.20989">
        <ele>219.2</ele>
        <time>2024-05-04T07:40:19Z</time>
      </trkpt>
      <trkpt lat="50.05449" lon="4.20987">
        <ele>219.6</ele>
        <time>2024-05-04T07:40:20Z</time>
      </trkpt>
      <trkpt lat="50.05453" lon="4.20984">
        <ele>219.8</ele>
        <time>2024-05-04T07:40:21Z</time>
      </trkpt>
      <trkpt lat="50.05457" lon="4.20982">
        <ele>219.8</ele>
        <time>2024-05-04T07:40:22Z</time>
      </trkpt>
      <trkpt lat="50.05461" lon="4.20979">
        <ele>219.8</ele>
        <time>2024-05-04T07:40:23Z</time>
      </trkpt>
      <trkpt lat="50.05465" lon="4.20976">
        <ele>219.8</ele>
        <time>2024-05-04T07:40:24Z</time>
      </trkpt>
      <trkpt lat="50.0547" lon="4.20973">
        <ele>219.8</ele>
        <time>2024-05-04T07:40:25Z</time>
      </trkpt>
      <trkpt lat="50.05474" lon="4.2097">
        <ele>219.8</ele>
        <time>2024-05-04T07:40:26Z</time>
      </trkpt>
      <trkpt lat="50.05478" lon="4.20967">
        <ele>220.4</ele>
        <time>2024-05-04T07:40:27Z</time>
      </trkpt>
      <trkpt lat="50.05482" lon="4.20964">
        <ele>220.4</ele>
        <time>2024-05-04T07:40:28Z</time>
      </trkpt>
      <trkpt lat="50.05486" lon="4.20961">
        <ele>220.4</ele>
        <time>2024-05-04T07:40:29Z</time>
      </trkpt>
      <trkpt lat="50.0549" lon="4.20957">
        <ele>221</ele>
        <time>2024-05-04T07:40:30Z</time>
      </trkpt>
      <trkpt lat="50.05495" lon="4.20954">
        <ele>221.2</ele>
        <time>2024-05-04T07:40:31Z</time>
      </trkpt>
      <trkpt lat="50.05499" lon="4.2095">
        <ele>221.4</ele>
        <time>2024-05-04T07:40:32Z</time>
      </trkpt>
      <trkpt lat="50.05504" lon="4.20946">
        <ele>221.4</ele>
        <time>2024-05-04T07:40:33Z</time>
      </trkpt>
      <trkpt lat="50.05509" lon="4.20942">
        <ele>221.4</ele>
        <time>2024-05-04T07:40:34Z</time>
      </trkpt>
      <trkpt lat="50.05514" lon="4.20938">
        <ele>221.4</ele>
        <time>2024-05-04T07:40:35Z</time>
      </trkpt>
      <trkpt lat="50.0552" lon="4.20934">
        <ele>221.6</ele>
        <time>2024-05-04T07:40:36Z</time>
      </trkpt>
      <trkpt lat="50.05525" lon="4.20929">
        <ele>221.6</ele>
        <time>2024-05-04T07:40:37Z</time>
      </trkpt>
      <trkpt lat="50.05531" lon="4.20925">
        <ele>221.4</ele>
        <time>2024-05-04T07:40:38Z</time>
      </trkpt>
      <trkpt lat="50.05537" lon="4.2092">
        <ele>221.4</ele>
        <time>2024-05-04T07:40:39Z</time>
      </trkpt>
      <trkpt lat="50.05544" lon="4.20915">
        <ele>221.4</ele>
        <time>2024-05-04T07:40:40Z</time>
      </trkpt>
      <trkpt lat="50.0555" lon="4.2091">
        <ele>221.6</ele>
        <time>2024-05-04T07:40:41Z</time>
      </trkpt>
      <trkpt lat="50.05557" lon="4.20905">
        <ele>221.6</ele>
        <time>2024-05-04T07:40:42Z</time>
      </trkpt>
      <trkpt lat="50.05564" lon="4.20899">
        <ele>221.6</ele>
        <time>2024-05-04T07:40:43Z</time>
      </trkpt>
      <trkpt lat="50.05571" lon="4.20894">
        <ele>221.4</ele>
        <time>2024-05-04T07:40:44Z</time>
      </trkpt>
      <trkpt lat="50.05578" lon="4.20888">
        <ele>221.4</ele>
        <time>2024-05-04T07:40:45Z</time>
      </trkpt>
      <trkpt lat="50.05585" lon="4.20883">
        <ele>221</ele>
        <time>2024-05-04T07:40:46Z</time>
      </trkpt>
      <trkpt lat="50.05593" lon="4.20877">
        <ele>220.8</ele>
        <time>2024-05-04T07:40:47Z</time>
      </trkpt>
      <trkpt lat="50.056" lon="4.20871">
        <ele>220.4</ele>
        <time>2024-05-04T07:40:48Z</time>
      </trkpt>
      <trkpt lat="50.05607" lon="4.20865">
        <ele>220.4</ele>
        <time>2024-05-04T07:40:49Z</time>
      </trkpt>
      <trkpt lat="50.05615" lon="4.20858">
        <ele>220.2</ele>
        <time>2024-05-04T07:40:50Z</time>
      </trkpt>
      <trkpt lat="50.05622" lon="4.20852">
        <ele>219.8</ele>
        <time>2024-05-04T07:40:51Z</time>
      </trkpt>
      <trkpt lat="50.0563" lon="4.20846">
        <ele>219</ele>
        <time>2024-05-04T07:40:52Z</time>
      </trkpt>
      <trkpt lat="50.05638" lon="4.2084">
        <ele>218.6</ele>
        <time>2024-05-04T07:40:53Z</time>
      </trkpt>
      <trkpt lat="50.05646" lon="4.20834">
        <ele>218.2</ele>
        <time>2024-05-04T07:40:54Z</time>
      </trkpt>
      <trkpt lat="50.05654" lon="4.20828">
        <ele>217.8</ele>
        <time>2024-05-04T07:40:55Z</time>
      </trkpt>
      <trkpt lat="50.05662" lon="4.20821">
        <ele>217.6</ele>
        <time>2024-05-04T07:40:56Z</time>
      </trkpt>
      <trkpt lat="50.05669" lon="4.20815">
        <ele>217.6</ele>
        <time>2024-05-04T07:40:57Z</time>
      </trkpt>
      <trkpt lat="50.05677" lon="4.20809">
        <ele>217.2</ele>
        <time>2024-05-04T07:40:58Z</time>
      </trkpt>
      <trkpt lat="50.05684" lon="4.20803">
        <ele>217.2</ele>
        <time>2024-05-04T07:40:59Z</time>
      </trkpt>
      <trkpt lat="50.05692" lon="4.20796">
        <ele>217</ele>
        <time>2024-05-04T07:41:00Z</time>
      </trkpt>
      <trkpt lat="50.05699" lon="4.2079">
        <ele>217</ele>
        <time>2024-05-04T07:41:01Z</time>
      </trkpt>
      <trkpt lat="50.05706" lon="4.20785">
        <ele>216.6</ele>
        <time>2024-05-04T07:41:02Z</time>
      </trkpt>
      <trkpt lat="50.05713" lon="4.20779">
        <ele>216.4</ele>
        <time>2024-05-04T07:41:03Z</time>
      </trkpt>
      <trkpt lat="50.05719" lon="4.20774">
        <ele>215.8</ele>
        <time>2024-05-04T07:41:04Z</time>
      </trkpt>
      <trkpt lat="50.05725" lon="4.20769">
        <ele>215.6</ele>
        <time>2024-05-04T07:41:05Z</time>
      </trkpt>
      <trkpt lat="50.05731" lon="4.20765">
        <ele>215.6</ele>
        <time>2024-05-04T07:41:06Z</time>
      </trkpt>
      <trkpt lat="50.05736" lon="4.2076">
        <ele>215.6</ele>
        <time>2024-05-04T07:41:07Z</time>
      </trkpt>
      <trkpt lat="50.05741" lon="4.20756">
        <ele>215.4</ele>
        <time>2024-05-04T07:41:08Z</time>
      </trkpt>
      <trkpt lat="50.05746" lon="4.20752">
        <ele>215.4</ele>
        <time>2024-05-04T07:41:09Z</time>
      </trkpt>
      <trkpt lat="50.05751" lon="4.20748">
        <ele>215.6</ele>
        <time>2024-05-04T07:41:10Z</time>
      </trkpt>
      <trkpt lat="50.05756" lon="4.20744">
        <ele>215.4</ele>
        <time>2024-05-04T07:41:11Z</time>
      </trkpt>
      <trkpt lat="50.0576" lon="4.2074">
        <ele>215.4</ele>
        <time>2024-05-04T07:41:12Z</time>
      </trkpt>
      <trkpt lat="50.05764" lon="4.20736">
        <ele>215.6</ele>
        <time>2024-05-04T07:41:13Z</time>
      </trkpt>
      <trkpt lat="50.05769" lon="4.20733">
        <ele>215.6</ele>
        <time>2024-05-04T07:41:14Z</time>
      </trkpt>
      <trkpt lat="50.05773" lon="4.2073">
        <ele>215.6</ele>
        <time>2024-05-04T07:41:15Z</time>
      </trkpt>
      <trkpt lat="50.05777" lon="4.20726">
        <ele>216</ele>
        <time>2024-05-04T07:41:16Z</time>
      </trkpt>
      <trkpt lat="50.05781" lon="4.20723">
        <ele>216.6</ele>
        <time>2024-05-04T07:41:17Z</time>
      </trkpt>
      <trkpt lat="50.05786" lon="4.20719">
        <ele>217.6</ele>
        <time>2024-05-04T07:41:18Z</time>
      </trkpt>
      <trkpt lat="50.05791" lon="4.20716">
        <ele>217.6</ele>
        <time>2024-05-04T07:41:19Z</time>
      </trkpt>
      <trkpt lat="50.05796" lon="4.20713">
        <ele>218.4</ele>
        <time>2024-05-04T07:41:20Z</time>
      </trkpt>
      <trkpt lat="50.058" lon="4.20709">
        <ele>219.2</ele>
        <time>2024-05-04T07:41:21Z</time>
      </trkpt>
      <trkpt lat="50.05804" lon="4.20706">
        <ele>219.4</ele>
        <time>2024-05-04T07:41:22Z</time>
      </trkpt>
      <trkpt lat="50.05809" lon="4.20702">
        <ele>219.6</ele>
        <time>2024-05-04T07:41:23Z</time>
      </trkpt>
      <trkpt lat="50.05814" lon="4.20699">
        <ele>220.2</ele>
        <time>2024-05-04T07:41:24Z</time>
      </trkpt>
      <trkpt lat="50.05818" lon="4.20695">
        <ele>220.2</ele>
        <time>2024-05-04T07:41:25Z</time>
      </trkpt>
      <trkpt lat="50.05823" lon="4.20691">
        <ele>220.6</ele>
        <time>2024-05-04T07:41:26Z</time>
      </trkpt>
      <trkpt lat="50.05829" lon="4.20687">
        <ele>220.6</ele>
        <time>2024-05-04T07:41:27Z</time>
      </trkpt>
      <trkpt lat="50.05834" lon="4.20683">
        <ele>221</ele>
        <time>2024-05-04T07:41:28Z</time>
      </trkpt>
      <trkpt lat="50.05839" lon="4.20679">
        <ele>221.2</ele>
        <time>2024-05-04T07:41:29Z</time>
      </trkpt>
      <trkpt lat="50.05844" lon="4.20674">
        <ele>221.2</ele>
        <time>2024-05-04T07:41:30Z</time>
      </trkpt>
      <trkpt lat="50.0585" lon="4.2067">
        <ele>221.2</ele>
        <time>2024-05-04T07:41:31Z</time>
      </trkpt>
      <trkpt lat="50.05856" lon="4.20665">
        <ele>221.4</ele>
        <time>2024-05-04T07:41:32Z</time>
      </trkpt>
      <trkpt lat="50.05862" lon="4.2066">
        <ele>221.4</ele>
        <time>2024-05-04T07:41:33Z</time>
      </trkpt>
      <trkpt lat="50.05868" lon="4.20655">
        <ele>221.6</ele>
        <time>2024-05-04T07:41:34Z</time>
      </trkpt>
      <trkpt lat="50.05875" lon="4.20649">
        <ele>221.6</ele>
        <time>2024-05-04T07:41:35Z</time>
      </trkpt>
      <trkpt lat="50.05882" lon="4.20643">
        <ele>221.6</ele>
        <time>2024-05-04T07:41:36Z</time>
      </trkpt>
      <trkpt lat="50.0589" lon="4.20637">
        <ele>221.4</ele>
        <time>2024-05-04T07:41:37Z</time>
      </trkpt>
      <trkpt lat="50.05898" lon="4.20631">
        <ele>221.4</ele>
        <time>2024-05-04T07:41:38Z</time>
      </trkpt>
      <trkpt lat="50.05907" lon="4.20625">
        <ele>221.6</ele>
        <time>2024-05-04T07:41:39Z</time>
      </trkpt>
      <trkpt lat="50.05916" lon="4.20619">
        <ele>221.4</ele>
        <time>2024-05-04T07:41:40Z</time>
      </trkpt>
      <trkpt lat="50.05925" lon="4.20614">
        <ele>221.4</ele>
        <time>2024-05-04T07:41:41Z</time>
      </trkpt>
      <trkpt lat="50.05935" lon="4.20609">
        <ele>221.2</ele>
        <time>2024-05-04T07:41:42Z</time>
      </trkpt>
      <trkpt lat="50.05944" lon="4.20603">
        <ele>221.2</ele>
        <time>2024-05-04T07:41:43Z</time>
      </trkpt>
      <trkpt lat="50.05954" lon="4.20597">
        <ele>220.8</ele>
        <time>2024-05-04T07:41:44Z</time>
      </trkpt>
      <trkpt lat="50.05965" lon="4.2059">
        <ele>220.2</ele>
        <time>2024-05-04T07:41:45Z</time>
      </trkpt>
      <trkpt lat="50.05976" lon="4.20584">
        <ele>219.2</ele>
        <time>2024-05-04T07:41:46Z</time>
      </trkpt>
      <trkpt lat="50.05987" lon="4.20577">
        <ele>218.6</ele>
        <time>2024-05-04T07:41:47Z</time>
      </trkpt>
      <trkpt lat="50.05998" lon="4.20571">
        <ele>218</ele>
        <time>2024-05-04T07:41:48Z</time>
      </trkpt>
      <trkpt lat="50.0601" lon="4.20564">
        <ele>217</ele>
        <time>2024-05-04T07:41:49Z</time>
      </trkpt>
      <trkpt lat="50.06022" lon="4.20557">
        <ele>216.2</ele>
        <time>2024-05-04T07:41:50Z</time>
      </trkpt>
      <trkpt lat="50.06034" lon="4.2055">
        <ele>215.6</ele>
        <time>2024-05-04T07:41:51Z</time>
      </trkpt>
      <trkpt lat="50.06046" lon="4.20543">
        <ele>214.6</ele>
        <time>2024-05-04T07:41:52Z</time>
      </trkpt>
      <trkpt lat="50.06058" lon="4.20536">
        <ele>214.6</ele>
        <time>2024-05-04T07:41:53Z</time>
      </trkpt>
      <trkpt lat="50.06071" lon="4.20529">
        <ele>213.6</ele>
        <time>2024-05-04T07:41:54Z</time>
      </trkpt>
      <trkpt lat="50.06083" lon="4.20522">
        <ele>212.4</ele>
        <time>2024-05-04T07:41:55Z</time>
      </trkpt>
      <trkpt lat="50.06096" lon="4.20515">
        <ele>211</ele>
        <time>2024-05-04T07:41:56Z</time>
      </trkpt>
      <trkpt lat="50.06109" lon="4.20508">
        <ele>209.6</ele>
        <time>2024-05-04T07:41:57Z</time>
      </trkpt>
      <trkpt lat="50.06121" lon="4.20501">
        <ele>208.2</ele>
        <time>2024-05-04T07:41:58Z</time>
      </trkpt>
      <trkpt lat="50.06134" lon="4.20494">
        <ele>206.8</ele>
        <time>2024-05-04T07:41:59Z</time>
      </trkpt>
      <trkpt lat="50.06145" lon="4.20487">
        <ele>205.8</ele>
        <time>2024-05-04T07:42:00Z</time>
      </trkpt>
      <trkpt lat="50.06157" lon="4.20481">
        <ele>204.6</ele>
        <time>2024-05-04T07:42:01Z</time>
      </trkpt>
      <trkpt lat="50.06169" lon="4.20475">
        <ele>203.2</ele>
        <time>2024-05-04T07:42:02Z</time>
      </trkpt>
      <trkpt lat="50.0618" lon="4.20469">
        <ele>202</ele>
        <time>2024-05-04T07:42:03Z</time>
      </trkpt>
      <trkpt lat="50.06191" lon="4.20463">
        <ele>201.2</ele>
        <time>2024-05-04T07:42:04Z</time>
      </trkpt>
      <trkpt lat="50.06202" lon="4.20456">
        <ele>200.6</ele>
        <time>2024-05-04T07:42:05Z</time>
      </trkpt>
      <trkpt lat="50.06212" lon="4.20451">
        <ele>200.4</ele>
        <time>2024-05-04T07:42:06Z</time>
      </trkpt>
      <trkpt lat="50.06222" lon="4.20445">
        <ele>200</ele>
        <time>2024-05-04T07:42:07Z</time>
      </trkpt>
      <trkpt lat="50.06231" lon="4.2044">
        <ele>200.2</ele>
        <time>2024-05-04T07:42:08Z</time>
      </trkpt>
      <trkpt lat="50.06241" lon="4.20435">
        <ele>200</ele>
        <time>2024-05-04T07:42:09Z</time>
      </trkpt>
      <trkpt lat="50.06249" lon="4.2043">
        <ele>200</ele>
        <time>2024-05-04T07:42:10Z</time>
      </trkpt>
      <trkpt lat="50.06257" lon="4.20426">
        <ele>200</ele>
        <time>2024-05-04T07:42:11Z</time>
      </trkpt>
      <trkpt lat="50.06264" lon="4.20421">
        <ele>200</ele>
        <time>2024-05-04T07:42:12Z</time>
      </trkpt>
      <trkpt lat="50.06271" lon="4.20417">
        <ele>200</ele>
        <time>2024-05-04T07:42:13Z</time>
      </trkpt>
      <trkpt lat="50.06277" lon="4.20413">
        <ele>200</ele>
        <time>2024-05-04T07:42:14Z</time>
      </trkpt>
      <trkpt lat="50.06283" lon="4.20412">
        <ele>200.2</ele>
        <time>2024-05-04T07:42:15Z</time>
      </trkpt>
      <trkpt lat="50.06286" lon="4.20411">
        <ele>200.2</ele>
        <time>2024-05-04T07:42:16Z</time>
      </trkpt>
      <trkpt lat="50.06289" lon="4.20412">
        <ele>200.8</ele>
        <time>2024-05-04T07:42:17Z</time>
      </trkpt>
      <trkpt lat="50.06291" lon="4.20411">
        <ele>201.4</ele>
        <time>2024-05-04T07:42:18Z</time>
      </trkpt>
      <trkpt lat="50.06294" lon="4.20408">
        <ele>201.6</ele>
        <time>2024-05-04T07:42:19Z</time>
      </trkpt>
      <trkpt lat="50.06294" lon="4.20403">
        <ele>202.4</ele>
        <time>2024-05-04T07:42:20Z</time>
      </trkpt>
      <trkpt lat="50.06295" lon="4.20396">
        <ele>203.4</ele>
        <time>2024-05-04T07:42:21Z</time>
      </trkpt>
      <trkpt lat="50.06295" lon="4.20389">
        <ele>204.2</ele>
        <time>2024-05-04T07:42:22Z</time>
      </trkpt>
      <trkpt lat="50.06295" lon="4.2038">
        <ele>204.8</ele>
        <time>2024-05-04T07:42:23Z</time>
      </trkpt>
      <trkpt lat="50.06295" lon="4.20371">
        <ele>205.4</ele>
        <time>2024-05-04T07:42:24Z</time>
      </trkpt>
      <trkpt lat="50.06295" lon="4.20362">
        <ele>205.8</ele>
        <time>2024-05-04T07:42:25Z</time>
      </trkpt>
      <trkpt lat="50.06295" lon="4.20352">
        <ele>205.8</ele>
        <time>2024-05-04T07:42:26Z</time>
      </trkpt>
      <trkpt lat="50.06296" lon="4.20341">
        <ele>206</ele>
        <time>2024-05-04T07:42:27Z</time>
      </trkpt>
      <trkpt lat="50.06296" lon="4.20331">
        <ele>206</ele>
        <time>2024-05-04T07:42:28Z</time>
      </trkpt>
      <trkpt lat="50.06296" lon="4.2032">
        <ele>206.2</ele>
        <time>2024-05-04T07:42:29Z</time>
      </trkpt>
      <trkpt lat="50.06297" lon="4.20308">
        <ele>206</ele>
        <time>2024-05-04T07:42:30Z</time>
      </trkpt>
      <trkpt lat="50.06297" lon="4.20297">
        <ele>206.2</ele>
        <time>2024-05-04T07:42:31Z</time>
      </trkpt>
      <trkpt lat="50.06298" lon="4.20285">
        <ele>206.2</ele>
        <time>2024-05-04T07:42:32Z</time>
      </trkpt>
      <trkpt lat="50.06298" lon="4.20274">
        <ele>206.2</ele>
        <time>2024-05-04T07:42:33Z</time>
      </trkpt>
      <trkpt lat="50.06298" lon="4.20262">
        <ele>206</ele>
        <time>2024-05-04T07:42:34Z</time>
      </trkpt>
      <trkpt lat="50.06299" lon="4.2025">
        <ele>206.2</ele>
        <time>2024-05-04T07:42:35Z</time>
      </trkpt>
      <trkpt lat="50.06299" lon="4.20239">
        <ele>206</ele>
        <time>2024-05-04T07:42:36Z</time>
      </trkpt>
      <trkpt lat="50.063" lon="4.20227">
        <ele>205.8</ele>
        <time>2024-05-04T07:42:37Z</time>
      </trkpt>
      <trkpt lat="50.063" lon="4.20215">
        <ele>205.4</ele>
        <time>2024-05-04T07:42:38Z</time>
      </trkpt>
      <trkpt lat="50.06301" lon="4.20203">
        <ele>205.2</ele>
        <time>2024-05-04T07:42:39Z</time>
      </trkpt>
      <trkpt lat="50.06301" lon="4.20191">
        <ele>205</ele>
        <time>2024-05-04T07:42:40Z</time>
      </trkpt>
      <trkpt lat="50.06301" lon="4.20178">
        <ele>204.6</ele>
        <time>2024-05-04T07:42:41Z</time>
      </trkpt>
      <trkpt lat="50.06302" lon="4.20166">
        <ele>204.6</ele>
        <time>2024-05-04T07:42:42Z</time>
      </trkpt>
      <trkpt lat="50.06302" lon="4.20152">
        <ele>204.6</ele>
        <time>2024-05-04T07:42:43Z</time>
      </trkpt>
      <trkpt lat="50.06303" lon="4.20139">
        <ele>204.4</ele>
        <time>2024-05-04T07:42:44Z</time>
      </trkpt>
      <trkpt lat="50.06304" lon="4.20126">
        <ele>204.2</ele>
        <time>2024-05-04T07:42:45Z</time>
      </trkpt>
      <trkpt lat="50.06304" lon="4.20112">
        <ele>204</ele>
        <time>2024-05-04T07:42:46Z</time>
      </trkpt>
      <trkpt lat="50.06305" lon="4.20099">
        <ele>204</ele>
        <time>2024-05-04T07:42:47Z</time>
      </trkpt>
      <trkpt lat="50.06307" lon="4.20086">
        <ele>203.8</ele>
        <time>2024-05-04T07:42:48Z</time>
      </trkpt>
      <trkpt lat="50.0631" lon="4.20073">
        <ele>203.8</ele>
        <time>2024-05-04T07:42:49Z</time>
      </trkpt>
      <trkpt lat="50.06313" lon="4.20061">
        <ele>203.6</ele>
        <time>2024-05-04T07:42:50Z</time>
      </trkpt>
      <trkpt lat="50.06317" lon="4.20048">
        <ele>203.4</ele>
        <time>2024-05-04T07:42:51Z</time>
      </trkpt>
      <trkpt lat="50.06319" lon="4.20035">
        <ele>202.8</ele>
        <time>2024-05-04T07:42:52Z</time>
      </trkpt>
      <trkpt lat="50.06321" lon="4.20022">
        <ele>202</ele>
        <time>2024-05-04T07:42:53Z</time>
      </trkpt>
      <trkpt lat="50.06321" lon="4.20008">
        <ele>201.4</ele>
        <time>2024-05-04T07:42:54Z</time>
      </trkpt>
      <trkpt lat="50.0632" lon="4.19995">
        <ele>201</ele>
        <time>2024-05-04T07:42:55Z</time>
      </trkpt>
      <trkpt lat="50.0632" lon="4.19981">
        <ele>200.6</ele>
        <time>2024-05-04T07:42:56Z</time>
      </trkpt>
      <trkpt lat="50.0632" lon="4.19968">
        <ele>200.6</ele>
        <time>2024-05-04T07:42:57Z</time>
      </trkpt>
      <trkpt lat="50.06324" lon="4.19955">
        <ele>200.2</ele>
        <time>2024-05-04T07:42:58Z</time>
      </trkpt>
      <trkpt lat="50.06329" lon="4.19943">
        <ele>200.4</ele>
        <time>2024-05-04T07:42:59Z</time>
      </trkpt>
      <trkpt lat="50.06337" lon="4.19932">
        <ele>200.4</ele>
        <time>2024-05-04T07:43:00Z</time>
      </trkpt>
      <trkpt lat="50.06346" lon="4.19924">
        <ele>200.2</ele>
        <time>2024-05-04T07:43:01Z</time>
      </trkpt>
      <trkpt lat="50.06355" lon="4.19916">
        <ele>200</ele>
        <time>2024-05-04T07:43:02Z</time>
      </trkpt>
      <trkpt lat="50.06365" lon="4.1991">
        <ele>199.8</ele>
        <time>2024-05-04T07:43:03Z</time>
      </trkpt>
      <trkpt lat="50.06375" lon="4.19905">
        <ele>199.6</ele>
        <time>2024-05-04T07:43:04Z</time>
      </trkpt>
      <trkpt lat="50.06385" lon="4.19899">
        <ele>199</ele>
        <time>2024-05-04T07:43:05Z</time>
      </trkpt>
      <trkpt lat="50.06395" lon="4.19893">
        <ele>198.4</ele>
        <time>2024-05-04T07:43:06Z</time>
      </trkpt>
      <trkpt lat="50.06404" lon="4.19887">
        <ele>198.4</ele>
        <time>2024-05-04T07:43:07Z</time>
      </trkpt>
      <trkpt lat="50.06412" lon="4.19877">
        <ele>197.8</ele>
        <time>2024-05-04T07:43:08Z</time>
      </trkpt>
      <trkpt lat="50.06418" lon="4.19865">
        <ele>197</ele>
        <time>2024-05-04T07:43:09Z</time>
      </trkpt>
      <trkpt lat="50.06422" lon="4.19852">
        <ele>195.8</ele>
        <time>2024-05-04T07:43:10Z</time>
      </trkpt>
      <trkpt lat="50.06426" lon="4.19838">
        <ele>195.4</ele>
        <time>2024-05-04T07:43:11Z</time>
      </trkpt>
      <trkpt lat="50.06429" lon="4.19824">
        <ele>195</ele>
        <time>2024-05-04T07:43:12Z</time>
      </trkpt>
      <trkpt lat="50.06431" lon="4.1981">
        <ele>194.8</ele>
        <time>2024-05-04T07:43:13Z</time>
      </trkpt>
      <trkpt lat="50.06434" lon="4.19796">
        <ele>194.6</ele>
        <time>2024-05-04T07:43:14Z</time>
      </trkpt>
      <trkpt lat="50.06437" lon="4.19782">
        <ele>194.2</ele>
        <time>2024-05-04T07:43:15Z</time>
      </trkpt>
      <trkpt lat="50.0644" lon="4.19769">
        <ele>194</ele>
        <time>2024-05-04T07:43:16Z</time>
      </trkpt>
      <trkpt lat="50.06442" lon="4.19755">
        <ele>194</ele>
        <time>2024-05-04T07:43:17Z</time>
      </trkpt>
      <trkpt lat="50.06444" lon="4.19741">
        <ele>194</ele>
        <time>2024-05-04T07:43:18Z</time>
      </trkpt>
      <trkpt lat="50.06446" lon="4.19728">
        <ele>194</ele>
        <time>2024-05-04T07:43:19Z</time>
      </trkpt>
      <trkpt lat="50.06448" lon="4.19715">
        <ele>194</ele>
        <time>2024-05-04T07:43:20Z</time>
      </trkpt>
      <trkpt lat="50.06449" lon="4.19701">
        <ele>193.8</ele>
        <time>2024-05-04T07:43:21Z</time>
      </trkpt>
      <trkpt lat="50.0645" lon="4.19688">
        <ele>194</ele>
        <time>2024-05-04T07:43:22Z</time>
      </trkpt>
      <trkpt lat="50.06451" lon="4.19676">
        <ele>194</ele>
        <time>2024-05-04T07:43:23Z</time>
      </trkpt>
      <trkpt lat="50.06452" lon="4.19663">
        <ele>194.2</ele>
        <time>2024-05-04T07:43:24Z</time>
      </trkpt>
      <trkpt lat="50.06453" lon="4.19651">
        <ele>194.4</ele>
        <time>2024-05-04T07:43:25Z</time>
      </trkpt>
      <trkpt lat="50.06454" lon="4.1964">
        <ele>194.4</ele>
        <time>2024-05-04T07:43:26Z</time>
      </trkpt>
      <trkpt lat="50.06456" lon="4.19628">
        <ele>194.8</ele>
        <time>2024-05-04T07:43:27Z</time>
      </trkpt>
      <trkpt lat="50.0646" lon="4.19618">
        <ele>194.6</ele>
        <time>2024-05-04T07:43:28Z</time>
      </trkpt>
      <trkpt lat="50.06463" lon="4.19609">
        <ele>194.8</ele>
        <time>2024-05-04T07:43:29Z</time>
      </trkpt>
      <trkpt lat="50.06467" lon="4.19601">
        <ele>194.8</ele>
        <time>2024-05-04T07:43:30Z</time>
      </trkpt>
      <trkpt lat="50.06471" lon="4.19593">
        <ele>195</ele>
        <time>2024-05-04T07:43:31Z</time>
      </trkpt>
      <trkpt lat="50.06475" lon="4.19585">
        <ele>195.2</ele>
        <time>2024-05-04T07:43:32Z</time>
      </trkpt>
      <trkpt lat="50.06479" lon="4.19578">
        <ele>195.2</ele>
        <time>2024-05-04T07:43:33Z</time>
      </trkpt>
      <trkpt lat="50.06484" lon="4.19571">
        <ele>195.4</ele>
        <time>2024-05-04T07:43:34Z</time>
      </trkpt>
      <trkpt lat="50.06489" lon="4.19564">
        <ele>195.6</ele>
        <time>2024-05-04T07:43:35Z</time>
      </trkpt>
      <trkpt lat="50.06493" lon="4.19558">
        <ele>195.8</ele>
        <time>2024-05-04T07:43:36Z</time>
      </trkpt>
      <trkpt lat="50.06499" lon="4.19553">
        <ele>195.8</ele>
        <time>2024-05-04T07:43:37Z</time>
      </trkpt>
      <trkpt lat="50.06505" lon="4.19549">
        <ele>196.4</ele>
        <time>2024-05-04T07:43:38Z</time>
      </trkpt>
      <trkpt lat="50.06512" lon="4.19546">
        <ele>196.6</ele>
        <time>2024-05-04T07:43:39Z</time>
      </trkpt>
      <trkpt lat="50.06519" lon="4.19545">
        <ele>197</ele>
        <time>2024-05-04T07:43:40Z</time>
      </trkpt>
      <trkpt lat="50.06526" lon="4.19545">
        <ele>197.6</ele>
        <time>2024-05-04T07:43:41Z</time>
      </trkpt>
      <trkpt lat="50.06533" lon="4.19545">
        <ele>198</ele>
        <time>2024-05-04T07:43:42Z</time>
      </trkpt>
      <trkpt lat="50.0654" lon="4.19545">
        <ele>198.4</ele>
        <time>2024-05-04T07:43:43Z</time>
      </trkpt>
      <trkpt lat="50.06548" lon="4.19545">
        <ele>198.6</ele>
        <time>2024-05-04T07:43:44Z</time>
      </trkpt>
      <trkpt lat="50.06555" lon="4.19546">
        <ele>198.6</ele>
        <time>2024-05-04T07:43:45Z</time>
      </trkpt>
      <trkpt lat="50.06563" lon="4.19546">
        <ele>198.8</ele>
        <time>2024-05-04T07:43:46Z</time>
      </trkpt>
      <trkpt lat="50.0657" lon="4.19546">
        <ele>199</ele>
        <time>2024-05-04T07:43:47Z</time>
      </trkpt>
      <trkpt lat="50.06578" lon="4.19546">
        <ele>199</ele>
        <time>2024-05-04T07:43:48Z</time>
      </trkpt>
      <trkpt lat="50.06586" lon="4.19546">
        <ele>199</ele>
        <time>2024-05-04T07:43:49Z</time>
      </trkpt>
      <trkpt lat="50.06593" lon="4.19546">
        <ele>198.8</ele>
        <time>2024-05-04T07:43:50Z</time>
      </trkpt>
      <trkpt lat="50.06601" lon="4.19545">
        <ele>199</ele>
        <time>2024-05-04T07:43:51Z</time>
      </trkpt>
      <trkpt lat="50.06608" lon="4.19545">
        <ele>199</ele>
        <time>2024-05-04T07:43:52Z</time>
      </trkpt>
      <trkpt lat="50.06616" lon="4.19545">
        <ele>199</ele>
        <time>2024-05-04T07:43:53Z</time>
      </trkpt>
      <trkpt lat="50.06624" lon="4.19545">
        <ele>198.8</ele>
        <time>2024-05-04T07:43:54Z</time>
      </trkpt>
      <trkpt lat="50.06632" lon="4.19545">
        <ele>198.6</ele>
        <time>2024-05-04T07:43:55Z</time>
      </trkpt>
      <trkpt lat="50.06639" lon="4.19544">
        <ele>198.6</ele>
        <time>2024-05-04T07:43:56Z</time>
      </trkpt>
      <trkpt lat="50.06647" lon="4.19544">
        <ele>198.4</ele>
        <time>2024-05-04T07:43:57Z</time>
      </trkpt>
      <trkpt lat="50.06654" lon="4.19544">
        <ele>198.4</ele>
        <time>2024-05-04T07:43:58Z</time>
      </trkpt>
      <trkpt lat="50.06662" lon="4.19543">
        <ele>198</ele>
        <time>2024-05-04T07:43:59Z</time>
      </trkpt>
      <trkpt lat="50.06669" lon="4.19543">
        <ele>198</ele>
        <time>2024-05-04T07:44:00Z</time>
      </trkpt>
      <trkpt lat="50.06677" lon="4.19543">
        <ele>198</ele>
        <time>2024-05-04T07:44:01Z</time>
      </trkpt>
      <trkpt lat="50.06684" lon="4.19543">
        <ele>198.2</ele>
        <time>2024-05-04T07:44:02Z</time>
      </trkpt>
      <trkpt lat="50.06691" lon="4.19542">
        <ele>198</ele>
        <time>2024-05-04T07:44:03Z</time>
      </trkpt>
      <trkpt lat="50.06698" lon="4.19542">
        <ele>198</ele>
        <time>2024-05-04T07:44:04Z</time>
      </trkpt>
      <trkpt lat="50.06705" lon="4.19543">
        <ele>198.2</ele>
        <time>2024-05-04T07:44:05Z</time>
      </trkpt>
      <trkpt lat="50.06712" lon="4.19543">
        <ele>198.2</ele>
        <time>2024-05-04T07:44:06Z</time>
      </trkpt>
      <trkpt lat="50.06719" lon="4.19544">
        <ele>198.2</ele>
        <time>2024-05-04T07:44:07Z</time>
      </trkpt>
      <trkpt lat="50.06726" lon="4.19545">
        <ele>198.2</ele>
        <time>2024-05-04T07:44:08Z</time>
      </trkpt>
      <trkpt lat="50.06733" lon="4.19547">
        <ele>198.2</ele>
        <time>2024-05-04T07:44:09Z</time>
      </trkpt>
      <trkpt lat="50.06739" lon="4.19548">
        <ele>198.2</ele>
        <time>2024-05-04T07:44:10Z</time>
      </trkpt>
      <trkpt lat="50.06746" lon="4.1955">
        <ele>198.4</ele>
        <time>2024-05-04T07:44:11Z</time>
      </trkpt>
      <trkpt lat="50.06752" lon="4.19552">
        <ele>198.4</ele>
        <time>2024-05-04T07:44:12Z</time>
      </trkpt>
      <trkpt lat="50.06758" lon="4.19553">
        <ele>198.4</ele>
        <time>2024-05-04T07:44:13Z</time>
      </trkpt>
      <trkpt lat="50.06764" lon="4.19555">
        <ele>198.6</ele>
        <time>2024-05-04T07:44:14Z</time>
      </trkpt>
      <trkpt lat="50.0677" lon="4.19557">
        <ele>198.6</ele>
        <time>2024-05-04T07:44:15Z</time>
      </trkpt>
      <trkpt lat="50.06776" lon="4.19559">
        <ele>198.8</ele>
        <time>2024-05-04T07:44:16Z</time>
      </trkpt>
      <trkpt lat="50.06782" lon="4.19561">
        <ele>199</ele>
        <time>2024-05-04T07:44:17Z</time>
      </trkpt>
      <trkpt lat="50.06788" lon="4.19563">
        <ele>199</ele>
        <time>2024-05-04T07:44:18Z</time>
      </trkpt>
      <trkpt lat="50.06794" lon="4.19565">
        <ele>199.4</ele>
        <time>2024-05-04T07:44:19Z</time>
      </trkpt>
      <trkpt lat="50.06799" lon="4.19567">
        <ele>199.6</ele>
        <time>2024-05-04T07:44:20Z</time>
      </trkpt>
      <trkpt lat="50.06805" lon="4.19569">
        <ele>199.8</ele>
        <time>2024-05-04T07:44:21Z</time>
      </trkpt>
      <trkpt lat="50.06811" lon="4.19572">
        <ele>200.2</ele>
        <time>2024-05-04T07:44:22Z</time>
      </trkpt>
      <trkpt lat="50.06817" lon="4.19574">
        <ele>200.4</ele>
        <time>2024-05-04T07:44:23Z</time>
      </trkpt>
      <trkpt lat="50.06824" lon="4.19576">
        <ele>200.6</ele>
        <time>2024-05-04T07:44:24Z</time>
      </trkpt>
      <trkpt lat="50.0683" lon="4.19579">
        <ele>200.8</ele>
        <time>2024-05-04T07:44:25Z</time>
      </trkpt>
      <trkpt lat="50.06836" lon="4.19581">
        <ele>200.8</ele>
        <time>2024-05-04T07:44:26Z</time>
      </trkpt>
      <trkpt lat="50.06843" lon="4.19584">
        <ele>201</ele>
        <time>2024-05-04T07:44:27Z</time>
      </trkpt>
      <trkpt lat="50.0685" lon="4.19586">
        <ele>201</ele>
        <time>2024-05-04T07:44:28Z</time>
      </trkpt>
      <trkpt lat="50.06857" lon="4.19588">
        <ele>201.2</ele>
        <time>2024-05-04T07:44:29Z</time>
      </trkpt>
      <trkpt lat="50.06864" lon="4.19591">
        <ele>201.2</ele>
        <time>2024-05-04T07:44:30Z</time>
      </trkpt>
      <trkpt lat="50.06871" lon="4.19593">
        <ele>201</ele>
        <time>2024-05-04T07:44:31Z</time>
      </trkpt>
      <trkpt lat="50.06878" lon="4.19596">
        <ele>201</ele>
        <time>2024-05-04T07:44:32Z</time>
      </trkpt>
      <trkpt lat="50.06886" lon="4.19598">
        <ele>201</ele>
        <time>2024-05-04T07:44:33Z</time>
      </trkpt>
      <trkpt lat="50.06894" lon="4.19601">
        <ele>201</ele>
        <time>2024-05-04T07:44:34Z</time>
      </trkpt>
      <trkpt lat="50.06901" lon="4.19603">
        <ele>201</ele>
        <time>2024-05-04T07:44:35Z</time>
      </trkpt>
      <trkpt lat="50.06909" lon="4.19604">
        <ele>201</ele>
        <time>2024-05-04T07:44:36Z</time>
      </trkpt>
      <trkpt lat="50.06917" lon="4.19606">
        <ele>200.8</ele>
        <time>2024-05-04T07:44:37Z</time>
      </trkpt>
      <trkpt lat="50.06925" lon="4.19606">
        <ele>200.4</ele>
        <time>2024-05-04T07:44:38Z</time>
      </trkpt>
      <trkpt lat="50.06933" lon="4.19607">
        <ele>200.2</ele>
        <time>2024-05-04T07:44:39Z</time>
      </trkpt>
      <trkpt lat="50.06941" lon="4.19607">
        <ele>200</ele>
        <time>2024-05-04T07:44:40Z</time>
      </trkpt>
      <trkpt lat="50.06949" lon="4.19606">
        <ele>199.8</ele>
        <time>2024-05-04T07:44:41Z</time>
      </trkpt>
      <trkpt lat="50.06956" lon="4.19606">
        <ele>199.2</ele>
        <time>2024-05-04T07:44:42Z</time>
      </trkpt>
      <trkpt lat="50.06964" lon="4.19604">
        <ele>198.8</ele>
        <time>2024-05-04T07:44:43Z</time>
      </trkpt>
      <trkpt lat="50.06972" lon="4.19603">
        <ele>198.8</ele>
        <time>2024-05-04T07:44:44Z</time>
      </trkpt>
      <trkpt lat="50.0698" lon="4.19602">
        <ele>198.2</ele>
        <time>2024-05-04T07:44:45Z</time>
      </trkpt>
      <trkpt lat="50.06988" lon="4.19601">
        <ele>198</ele>
        <time>2024-05-04T07:44:46Z</time>
      </trkpt>
      <trkpt lat="50.06995" lon="4.196">
        <ele>198</ele>
        <time>2024-05-04T07:44:47Z</time>
      </trkpt>
      <trkpt lat="50.07003" lon="4.19599">
        <ele>197.8</ele>
        <time>2024-05-04T07:44:48Z</time>
      </trkpt>
      <trkpt lat="50.07011" lon="4.19598">
        <ele>197.8</ele>
        <time>2024-05-04T07:44:49Z</time>
      </trkpt>
      <trkpt lat="50.07018" lon="4.19596">
        <ele>197.8</ele>
        <time>2024-05-04T07:44:50Z</time>
      </trkpt>
      <trkpt lat="50.07026" lon="4.19595">
        <ele>197.6</ele>
        <time>2024-05-04T07:44:51Z</time>
      </trkpt>
      <trkpt lat="50.07034" lon="4.19593">
        <ele>197.6</ele>
        <time>2024-05-04T07:44:52Z</time>
      </trkpt>
      <trkpt lat="50.07041" lon="4.19592">
        <ele>197.4</ele>
        <time>2024-05-04T07:44:53Z</time>
      </trkpt>
      <trkpt lat="50.07049" lon="4.19591">
        <ele>197.4</ele>
        <time>2024-05-04T07:44:54Z</time>
      </trkpt>
      <trkpt lat="50.07057" lon="4.1959">
        <ele>197.2</ele>
        <time>2024-05-04T07:44:55Z</time>
      </trkpt>
      <trkpt lat="50.07064" lon="4.19588">
        <ele>197.2</ele>
        <time>2024-05-04T07:44:56Z</time>
      </trkpt>
      <trkpt lat="50.07072" lon="4.19587">
        <ele>197.2</ele>
        <time>2024-05-04T07:44:57Z</time>
      </trkpt>
      <trkpt lat="50.0708" lon="4.19585">
        <ele>197</ele>
        <time>2024-05-04T07:44:58Z</time>
      </trkpt>
      <trkpt lat="50.07088" lon="4.19584">
        <ele>197</ele>
        <time>2024-05-04T07:44:59Z</time>
      </trkpt>
      <trkpt lat="50.07095" lon="4.19583">
        <ele>196.8</ele>
        <time>2024-05-04T07:45:00Z</time>
      </trkpt>
      <trkpt lat="50.07103" lon="4.19581">
        <ele>197</ele>
        <time>2024-05-04T07:45:01Z</time>
      </trkpt>
      <trkpt lat="50.07111" lon="4.1958">
        <ele>196.8</ele>
        <time>2024-05-04T07:45:02Z</time>
      </trkpt>
      <trkpt lat="50.07119" lon="4.19579">
        <ele>196.8</ele>
        <time>2024-05-04T07:45:03Z</time>
      </trkpt>
      <trkpt lat="50.07127" lon="4.19578">
        <ele>196.8</ele>
        <time>2024-05-04T07:45:04Z</time>
      </trkpt>
      <trkpt lat="50.07135" lon="4.19577">
        <ele>196.8</ele>
        <time>2024-05-04T07:45:05Z</time>
      </trkpt>
      <trkpt lat="50.07143" lon="4.19576">
        <ele>196.4</ele>
        <time>2024-05-04T07:45:06Z</time>
      </trkpt>
      <trkpt lat="50.07151" lon="4.19575">
        <ele>196.6</ele>
        <time>2024-05-04T07:45:07Z</time>
      </trkpt>
      <trkpt lat="50.07158" lon="4.19574">
        <ele>196.4</ele>
        <time>2024-05-04T07:45:08Z</time>
      </trkpt>
      <trkpt lat="50.07166" lon="4.19573">
        <ele>196.4</ele>
        <time>2024-05-04T07:45:09Z</time>
      </trkpt>
      <trkpt lat="50.07175" lon="4.19572">
        <ele>196.4</ele>
        <time>2024-05-04T07:45:10Z</time>
      </trkpt>
      <trkpt lat="50.07182" lon="4.19571">
        <ele>196.2</ele>
        <time>2024-05-04T07:45:11Z</time>
      </trkpt>
      <trkpt lat="50.0719" lon="4.1957">
        <ele>196.2</ele>
        <time>2024-05-04T07:45:12Z</time>
      </trkpt>
      <trkpt lat="50.07198" lon="4.19569">
        <ele>196.2</ele>
        <time>2024-05-04T07:45:13Z</time>
      </trkpt>
      <trkpt lat="50.07206" lon="4.19568">
        <ele>196.2</ele>
        <time>2024-05-04T07:45:14Z</time>
      </trkpt>
      <trkpt lat="50.07213" lon="4.19567">
        <ele>196</ele>
        <time>2024-05-04T07:45:15Z</time>
      </trkpt>
      <trkpt lat="50.07221" lon="4.19566">
        <ele>196</ele>
        <time>2024-05-04T07:45:16Z</time>
      </trkpt>
      <trkpt lat="50.07229" lon="4.19565">
        <ele>195.8</ele>
        <time>2024-05-04T07:45:17Z</time>
      </trkpt>
      <trkpt lat="50.07236" lon="4.19564">
        <ele>195.6</ele>
        <time>2024-05-04T07:45:18Z</time>
      </trkpt>
      <trkpt lat="50.07244" lon="4.19564">
        <ele>195.6</ele>
        <time>2024-05-04T07:45:19Z</time>
      </trkpt>
      <trkpt lat="50.07252" lon="4.19563">
        <ele>195.6</ele>
        <time>2024-05-04T07:45:20Z</time>
      </trkpt>
      <trkpt lat="50.0726" lon="4.19562">
        <ele>195.4</ele>
        <time>2024-05-04T07:45:21Z</time>
      </trkpt>
      <trkpt lat="50.07267" lon="4.19561">
        <ele>195.4</ele>
        <time>2024-05-04T07:45:22Z</time>
      </trkpt>
      <trkpt lat="50.07275" lon="4.1956">
        <ele>195.4</ele>
        <time>2024-05-04T07:45:23Z</time>
      </trkpt>
      <trkpt lat="50.07283" lon="4.1956">
        <ele>195.4</ele>
        <time>2024-05-04T07:45:24Z</time>
      </trkpt>
      <trkpt lat="50.07291" lon="4.19559">
        <ele>195.2</ele>
        <time>2024-05-04T07:45:25Z</time>
      </trkpt>
      <trkpt lat="50.07299" lon="4.19558">
        <ele>195.2</ele>
        <time>2024-05-04T07:45:26Z</time>
      </trkpt>
      <trkpt lat="50.07307" lon="4.19557">
        <ele>195</ele>
        <time>2024-05-04T07:45:27Z</time>
      </trkpt>
      <trkpt lat="50.07315" lon="4.19557">
        <ele>195</ele>
        <time>2024-05-04T07:45:28Z</time>
      </trkpt>
      <trkpt lat="50.07323" lon="4.19556">
        <ele>195</ele>
        <time>2024-05-04T07:45:29Z</time>
      </trkpt>
      <trkpt lat="50.07331" lon="4.19555">
        <ele>195</ele>
        <time>2024-05-04T07:45:30Z</time>
      </trkpt>
      <trkpt lat="50.07339" lon="4.19555">
        <ele>194.8</ele>
        <time>2024-05-04T07:45:31Z</time>
      </trkpt>
      <trkpt lat="50.07347" lon="4.19554">
        <ele>194.8</ele>
        <time>2024-05-04T07:45:32Z</time>
      </trkpt>
      <trkpt lat="50.07356" lon="4.19554">
        <ele>194.6</ele>
        <time>2024-05-04T07:45:33Z</time>
      </trkpt>
      <trkpt lat="50.07364" lon="4.19553">
        <ele>194.6</ele>
        <time>2024-05-04T07:45:34Z</time>
      </trkpt>
      <trkpt lat="50.07372" lon="4.19552">
        <ele>194.2</ele>
        <time>2024-05-04T07:45:35Z</time>
      </trkpt>
      <trkpt lat="50.0738" lon="4.19552">
        <ele>194</ele>
        <time>2024-05-04T07:45:36Z</time>
      </trkpt>
      <trkpt lat="50.07388" lon="4.19552">
        <ele>193.8</ele>
        <time>2024-05-04T07:45:37Z</time>
      </trkpt>
      <trkpt lat="50.07396" lon="4.19552">
        <ele>193.8</ele>
        <time>2024-05-04T07:45:38Z</time>
      </trkpt>
      <trkpt lat="50.07404" lon="4.19552">
        <ele>193.8</ele>
        <time>2024-05-04T07:45:39Z</time>
      </trkpt>
      <trkpt lat="50.07413" lon="4.19552">
        <ele>193.6</ele>
        <time>2024-05-04T07:45:40Z</time>
      </trkpt>
      <trkpt lat="50.07421" lon="4.19553">
        <ele>193</ele>
        <time>2024-05-04T07:45:41Z</time>
      </trkpt>
      <trkpt lat="50.07429" lon="4.19554">
        <ele>192.6</ele>
        <time>2024-05-04T07:45:42Z</time>
      </trkpt>
      <trkpt lat="50.07438" lon="4.19556">
        <ele>192.4</ele>
        <time>2024-05-04T07:45:43Z</time>
      </trkpt>
      <trkpt lat="50.07446" lon="4.19557">
        <ele>192.2</ele>
        <time>2024-05-04T07:45:44Z</time>
      </trkpt>
      <trkpt lat="50.07455" lon="4.19558">
        <ele>192</ele>
        <time>2024-05-04T07:45:45Z</time>
      </trkpt>
      <trkpt lat="50.07464" lon="4.19559">
        <ele>191.8</ele>
        <time>2024-05-04T07:45:46Z</time>
      </trkpt>
      <trkpt lat="50.07472" lon="4.1956">
        <ele>191.6</ele>
        <time>2024-05-04T07:45:47Z</time>
      </trkpt>
      <trkpt lat="50.07481" lon="4.19562">
        <ele>191.4</ele>
        <time>2024-05-04T07:45:48Z</time>
      </trkpt>
      <trkpt lat="50.07489" lon="4.19562">
        <ele>191.4</ele>
        <time>2024-05-04T07:45:49Z</time>
      </trkpt>
      <trkpt lat="50.07498" lon="4.19562">
        <ele>191.2</ele>
        <time>2024-05-04T07:45:50Z</time>
      </trkpt>
      <trkpt lat="50.07506" lon="4.1956">
        <ele>191.2</ele>
        <time>2024-05-04T07:45:51Z</time>
      </trkpt>
      <trkpt lat="50.07513" lon="4.19557">
        <ele>191</ele>
        <time>2024-05-04T07:45:52Z</time>
      </trkpt>
      <trkpt lat="50.0752" lon="4.19552">
        <ele>191</ele>
        <time>2024-05-04T07:45:53Z</time>
      </trkpt>
      <trkpt lat="50.07527" lon="4.19544">
        <ele>191</ele>
        <time>2024-05-04T07:45:54Z</time>
      </trkpt>
      <trkpt lat="50.07533" lon="4.19536">
        <ele>190.6</ele>
        <time>2024-05-04T07:45:55Z</time>
      </trkpt>
      <trkpt lat="50.07538" lon="4.19526">
        <ele>190.6</ele>
        <time>2024-05-04T07:45:56Z</time>
      </trkpt>
      <trkpt lat="50.07543" lon="4.19515">
        <ele>190.2</ele>
        <time>2024-05-04T07:45:57Z</time>
      </trkpt>
      <trkpt lat="50.07547" lon="4.19504">
        <ele>189.8</ele>
        <time>2024-05-04T07:45:58Z</time>
      </trkpt>
      <trkpt lat="50.07551" lon="4.19493">
        <ele>189.8</ele>
        <time>2024-05-04T07:45:59Z</time>
      </trkpt>
      <trkpt lat="50.07555" lon="4.19482">
        <ele>189.6</ele>
        <time>2024-05-04T07:46:00Z</time>
      </trkpt>
      <trkpt lat="50.07559" lon="4.19471">
        <ele>189.4</ele>
        <time>2024-05-04T07:46:01Z</time>
      </trkpt>
      <trkpt lat="50.07562" lon="4.1946">
        <ele>189.2</ele>
        <time>2024-05-04T07:46:02Z</time>
      </trkpt>
      <trkpt lat="50.07566" lon="4.1945">
        <ele>189.2</ele>
        <time>2024-05-04T07:46:03Z</time>
      </trkpt>
      <trkpt lat="50.0757" lon="4.1944">
        <ele>189.2</ele>
        <time>2024-05-04T07:46:04Z</time>
      </trkpt>
      <trkpt lat="50.07574" lon="4.1943">
        <ele>189.2</ele>
        <time>2024-05-04T07:46:05Z</time>
      </trkpt>
      <trkpt lat="50.07578" lon="4.1942">
        <ele>189</ele>
        <time>2024-05-04T07:46:06Z</time>
      </trkpt>
      <trkpt lat="50.07583" lon="4.19411">
        <ele>189.2</ele>
        <time>2024-05-04T07:46:07Z</time>
      </trkpt>
      <trkpt lat="50.07588" lon="4.19401">
        <ele>189.2</ele>
        <time>2024-05-04T07:46:08Z</time>
      </trkpt>
      <trkpt lat="50.07593" lon="4.19393">
        <ele>189.2</ele>
        <time>2024-05-04T07:46:09Z</time>
      </trkpt>
      <trkpt lat="50.07599" lon="4.19385">
        <ele>189.2</ele>
        <time>2024-05-04T07:46:10Z</time>
      </trkpt>
      <trkpt lat="50.07605" lon="4.19378">
        <ele>189.2</ele>
        <time>2024-05-04T07:46:11Z</time>
      </trkpt>
      <trkpt lat="50.07611" lon="4.19371">
        <ele>189.2</ele>
        <time>2024-05-04T07:46:12Z</time>
      </trkpt>
      <trkpt lat="50.07618" lon="4.19366">
        <ele>189.4</ele>
        <time>2024-05-04T07:46:13Z</time>
      </trkpt>
      <trkpt lat="50.07624" lon="4.19361">
        <ele>189.4</ele>
        <time>2024-05-04T07:46:14Z</time>
      </trkpt>
      <trkpt lat="50.0763" lon="4.19356">
        <ele>189.6</ele>
        <time>2024-05-04T07:46:15Z</time>
      </trkpt>
      <trkpt lat="50.07636" lon="4.19352">
        <ele>189.6</ele>
        <time>2024-05-04T07:46:16Z</time>
      </trkpt>
      <trkpt lat="50.07642" lon="4.19347">
        <ele>189.6</ele>
        <time>2024-05-04T07:46:17Z</time>
      </trkpt>
      <trkpt lat="50.07647" lon="4.19342">
        <ele>189.8</ele>
        <time>2024-05-04T07:46:18Z</time>
      </trkpt>
      <trkpt lat="50.07653" lon="4.19337">
        <ele>189.8</ele>
        <time>2024-05-04T07:46:19Z</time>
      </trkpt>
      <trkpt lat="50.07658" lon="4.19333">
        <ele>190</ele>
        <time>2024-05-04T07:46:20Z</time>
      </trkpt>
      <trkpt lat="50.07663" lon="4.19328">
        <ele>190.4</ele>
        <time>2024-05-04T07:46:21Z</time>
      </trkpt>
      <trkpt lat="50.07668" lon="4.19324">
        <ele>190.6</ele>
        <time>2024-05-04T07:46:22Z</time>
      </trkpt>
      <trkpt lat="50.07674" lon="4.1932">
        <ele>190.8</ele>
        <time>2024-05-04T07:46:23Z</time>
      </trkpt>
      <trkpt lat="50.07679" lon="4.19315">
        <ele>191</ele>
        <time>2024-05-04T07:46:24Z</time>
      </trkpt>
      <trkpt lat="50.07684" lon="4.19311">
        <ele>191.4</ele>
        <time>2024-05-04T07:46:25Z</time>
      </trkpt>
      <trkpt lat="50.0769" lon="4.19307">
        <ele>191.8</ele>
        <time>2024-05-04T07:46:26Z</time>
      </trkpt>
      <trkpt lat="50.07695" lon="4.19303">
        <ele>192.2</ele>
        <time>2024-05-04T07:46:27Z</time>
      </trkpt>
      <trkpt lat="50.077" lon="4.19299">
        <ele>192.2</ele>
        <time>2024-05-04T07:46:28Z</time>
      </trkpt>
      <trkpt lat="50.07706" lon="4.19296">
        <ele>192.6</ele>
        <time>2024-05-04T07:46:29Z</time>
      </trkpt>
      <trkpt lat="50.07711" lon="4.19293">
        <ele>193.2</ele>
        <time>2024-05-04T07:46:30Z</time>
      </trkpt>
      <trkpt lat="50.07717" lon="4.1929">
        <ele>193.4</ele>
        <time>2024-05-04T07:46:31Z</time>
      </trkpt>
      <trkpt lat="50.07722" lon="4.19286">
        <ele>193.6</ele>
        <time>2024-05-04T07:46:32Z</time>
      </trkpt>
      <trkpt lat="50.07728" lon="4.19283">
        <ele>194</ele>
        <time>2024-05-04T07:46:33Z</time>
      </trkpt>
      <trkpt lat="50.07733" lon="4.1928">
        <ele>194.2</ele>
        <time>2024-05-04T07:46:34Z</time>
      </trkpt>
      <trkpt lat="50.07738" lon="4.19277">
        <ele>194.2</ele>
        <time>2024-05-04T07:46:35Z</time>
      </trkpt>
      <trkpt lat="50.07743" lon="4.19274">
        <ele>194.6</ele>
        <time>2024-05-04T07:46:36Z</time>
      </trkpt>
      <trkpt lat="50.07749" lon="4.19271">
        <ele>194.6</ele>
        <time>2024-05-04T07:46:37Z</time>
      </trkpt>
      <trkpt lat="50.07754" lon="4.19267">
        <ele>195</ele>
        <time>2024-05-04T07:46:38Z</time>
      </trkpt>
      <trkpt lat="50.0776" lon="4.19263">
        <ele>195.4</ele>
        <time>2024-05-04T07:46:39Z</time>
      </trkpt>
      <trkpt lat="50.07766" lon="4.19259">
        <ele>195.8</ele>
        <time>2024-05-04T07:46:40Z</time>
      </trkpt>
      <trkpt lat="50.07771" lon="4.19255">
        <ele>195.8</ele>
        <time>2024-05-04T07:46:41Z</time>
      </trkpt>
      <trkpt lat="50.07777" lon="4.19251">
        <ele>195.8</ele>
        <time>2024-05-04T07:46:42Z</time>
      </trkpt>
      <trkpt lat="50.07783" lon="4.19246">
        <ele>196</ele>
        <time>2024-05-04T07:46:43Z</time>
      </trkpt>
      <trkpt lat="50.07789" lon="4.19241">
        <ele>196</ele>
        <time>2024-05-04T07:46:44Z</time>
      </trkpt>
      <trkpt lat="50.07796" lon="4.19237">
        <ele>196</ele>
        <time>2024-05-04T07:46:45Z</time>
      </trkpt>
      <trkpt lat="50.07802" lon="4.19232">
        <ele>195.8</ele>
        <time>2024-05-04T07:46:46Z</time>
      </trkpt>
      <trkpt lat="50.07808" lon="4.19227">
        <ele>196</ele>
        <time>2024-05-04T07:46:47Z</time>
      </trkpt>
      <trkpt lat="50.07814" lon="4.19222">
        <ele>196</ele>
        <time>2024-05-04T07:46:48Z</time>
      </trkpt>
      <trkpt lat="50.0782" lon="4.19217">
        <ele>196</ele>
        <time>2024-05-04T07:46:49Z</time>
      </trkpt>
      <trkpt lat="50.07826" lon="4.19212">
        <ele>196</ele>
        <time>2024-05-04T07:46:50Z</time>
      </trkpt>
      <trkpt lat="50.07832" lon="4.19208">
        <ele>196</ele>
        <time>2024-05-04T07:46:51Z</time>
      </trkpt>
      <trkpt lat="50.07838" lon="4.19203">
        <ele>195.8</ele>
        <time>2024-05-04T07:46:52Z</time>
      </trkpt>
      <trkpt lat="50.07845" lon="4.19198">
        <ele>196</ele>
        <time>2024-05-04T07:46:53Z</time>
      </trkpt>
      <trkpt lat="50.07851" lon="4.19193">
        <ele>196</ele>
        <time>2024-05-04T07:46:54Z</time>
      </trkpt>
      <trkpt lat="50.07858" lon="4.19188">
        <ele>196</ele>
        <time>2024-05-04T07:46:55Z</time>
      </trkpt>
      <trkpt lat="50.07864" lon="4.19183">
        <ele>195.8</ele>
        <time>2024-05-04T07:46:56Z</time>
      </trkpt>
      <trkpt lat="50.07871" lon="4.19179">
        <ele>195.8</ele>
        <time>2024-05-04T07:46:57Z</time>
      </trkpt>
      <trkpt lat="50.07878" lon="4.19175">
        <ele>195.8</ele>
        <time>2024-05-04T07:46:58Z</time>
      </trkpt>
      <trkpt lat="50.07885" lon="4.1917">
        <ele>195.8</ele>
        <time>2024-05-04T07:46:59Z</time>
      </trkpt>
      <trkpt lat="50.07892" lon="4.19166">
        <ele>195.6</ele>
        <time>2024-05-04T07:47:00Z</time>
      </trkpt>
      <trkpt lat="50.079" lon="4.19161">
        <ele>195.6</ele>
        <time>2024-05-04T07:47:01Z</time>
      </trkpt>
      <trkpt lat="50.07907" lon="4.19156">
        <ele>195.6</ele>
        <time>2024-05-04T07:47:02Z</time>
      </trkpt>
      <trkpt lat="50.07915" lon="4.19151">
        <ele>195.6</ele>
        <time>2024-05-04T07:47:03Z</time>
      </trkpt>
      <trkpt lat="50.07923" lon="4.19146">
        <ele>195.6</ele>
        <time>2024-05-04T07:47:04Z</time>
      </trkpt>
      <trkpt lat="50.07931" lon="4.19141">
        <ele>195.6</ele>
        <time>2024-05-04T07:47:05Z</time>
      </trkpt>
      <trkpt lat="50.07939" lon="4.19136">
        <ele>195.2</ele>
        <time>2024-05-04T07:47:06Z</time>
      </trkpt>
      <trkpt lat="50.07947" lon="4.19131">
        <ele>195.2</ele>
        <time>2024-05-04T07:47:07Z</time>
      </trkpt>
      <trkpt lat="50.07955" lon="4.19126">
        <ele>194.8</ele>
        <time>2024-05-04T07:47:08Z</time>
      </trkpt>
      <trkpt lat="50.07963" lon="4.19121">
        <ele>194.4</ele>
        <time>2024-05-04T07:47:09Z</time>
      </trkpt>
      <trkpt lat="50.07971" lon="4.19116">
        <ele>194</ele>
        <time>2024-05-04T07:47:10Z</time>
      </trkpt>
      <trkpt lat="50.0798" lon="4.19112">
        <ele>193.6</ele>
        <time>2024-05-04T07:47:11Z</time>
      </trkpt>
      <trkpt lat="50.07988" lon="4.19109">
        <ele>193.2</ele>
        <time>2024-05-04T07:47:12Z</time>
      </trkpt>
      <trkpt lat="50.07996" lon="4.19106">
        <ele>192.8</ele>
        <time>2024-05-04T07:47:13Z</time>
      </trkpt>
      <trkpt lat="50.08004" lon="4.19103">
        <ele>192.2</ele>
        <time>2024-05-04T07:47:14Z</time>
      </trkpt>
      <trkpt lat="50.08012" lon="4.191">
        <ele>192</ele>
        <time>2024-05-04T07:47:15Z</time>
      </trkpt>
      <trkpt lat="50.0802" lon="4.19098">
        <ele>192</ele>
        <time>2024-05-04T07:47:16Z</time>
      </trkpt>
      <trkpt lat="50.08028" lon="4.19096">
        <ele>191.8</ele>
        <time>2024-05-04T07:47:17Z</time>
      </trkpt>
      <trkpt lat="50.08036" lon="4.19093">
        <ele>191.8</ele>
        <time>2024-05-04T07:47:18Z</time>
      </trkpt>
      <trkpt lat="50.08044" lon="4.19092">
        <ele>191.8</ele>
        <time>2024-05-04T07:47:19Z</time>
      </trkpt>
      <trkpt lat="50.08052" lon="4.19091">
        <ele>191.8</ele>
        <time>2024-05-04T07:47:20Z</time>
      </trkpt>
      <trkpt lat="50.0806" lon="4.1909">
        <ele>191.8</ele>
        <time>2024-05-04T07:47:21Z</time>
      </trkpt>
      <trkpt lat="50.08068" lon="4.1909">
        <ele>192</ele>
        <time>2024-05-04T07:47:22Z</time>
      </trkpt>
      <trkpt lat="50.08076" lon="4.19089">
        <ele>191.8</ele>
        <time>2024-05-04T07:47:23Z</time>
      </trkpt>
      <trkpt lat="50.08084" lon="4.19089">
        <ele>191.8</ele>
        <time>2024-05-04T07:47:24Z</time>
      </trkpt>
      <trkpt lat="50.08092" lon="4.19088">
        <ele>191.8</ele>
        <time>2024-05-04T07:47:25Z</time>
      </trkpt>
      <trkpt lat="50.08099" lon="4.19087">
        <ele>191.8</ele>
        <time>2024-05-04T07:47:26Z</time>
      </trkpt>
      <trkpt lat="50.08107" lon="4.19087">
        <ele>191.8</ele>
        <time>2024-05-04T07:47:27Z</time>
      </trkpt>
      <trkpt lat="50.08115" lon="4.19086">
        <ele>191.8</ele>
        <time>2024-05-04T07:47:28Z</time>
      </trkpt>
      <trkpt lat="50.08123" lon="4.19085">
        <ele>191.8</ele>
        <time>2024-05-04T07:47:29Z</time>
      </trkpt>
      <trkpt lat="50.08131" lon="4.19084">
        <ele>191.8</ele>
        <time>2024-05-04T07:47:30Z</time>
      </trkpt>
      <trkpt lat="50.08138" lon="4.19084">
        <ele>192</ele>
        <time>2024-05-04T07:47:31Z</time>
      </trkpt>
      <trkpt lat="50.08146" lon="4.19083">
        <ele>192</ele>
        <time>2024-05-04T07:47:32Z</time>
      </trkpt>
      <trkpt lat="50.08154" lon="4.19083">
        <ele>191.8</ele>
        <time>2024-05-04T07:47:33Z</time>
      </trkpt>
      <trkpt lat="50.08161" lon="4.19083">
        <ele>191.8</ele>
        <time>2024-05-04T07:47:34Z</time>
      </trkpt>
      <trkpt lat="50.08169" lon="4.19083">
        <ele>192</ele>
        <time>2024-05-04T07:47:35Z</time>
      </trkpt>
      <trkpt lat="50.08176" lon="4.19085">
        <ele>192</ele>
        <time>2024-05-04T07:47:36Z</time>
      </trkpt>
      <trkpt lat="50.08183" lon="4.19087">
        <ele>192</ele>
        <time>2024-05-04T07:47:37Z</time>
      </trkpt>
      <trkpt lat="50.08189" lon="4.19089">
        <ele>192.2</ele>
        <time>2024-05-04T07:47:38Z</time>
      </trkpt>
      <trkpt lat="50.08196" lon="4.19092">
        <ele>192</ele>
        <time>2024-05-04T07:47:39Z</time>
      </trkpt>
      <trkpt lat="50.08202" lon="4.19095">
        <ele>192</ele>
        <time>2024-05-04T07:47:40Z</time>
      </trkpt>
      <trkpt lat="50.08208" lon="4.19098">
        <ele>192</ele>
        <time>2024-05-04T07:47:41Z</time>
      </trkpt>
      <trkpt lat="50.08214" lon="4.19101">
        <ele>192.2</ele>
        <time>2024-05-04T07:47:42Z</time>
      </trkpt>
      <trkpt lat="50.0822" lon="4.19104">
        <ele>192</ele>
        <time>2024-05-04T07:47:43Z</time>
      </trkpt>
      <trkpt lat="50.08226" lon="4.19107">
        <ele>192.2</ele>
        <time>2024-05-04T07:47:44Z</time>
      </trkpt>
      <trkpt lat="50.08232" lon="4.19111">
        <ele>192.4</ele>
        <time>2024-05-04T07:47:45Z</time>
      </trkpt>
      <trkpt lat="50.08238" lon="4.19114">
        <ele>192.4</ele>
        <time>2024-05-04T07:47:46Z</time>
      </trkpt>
      <trkpt lat="50.08244" lon="4.19118">
        <ele>192.4</ele>
        <time>2024-05-04T07:47:47Z</time>
      </trkpt>
      <trkpt lat="50.0825" lon="4.19122">
        <ele>192.8</ele>
        <time>2024-05-04T07:47:48Z</time>
      </trkpt>
      <trkpt lat="50.08256" lon="4.19125">
        <ele>192.6</ele>
        <time>2024-05-04T07:47:49Z</time>
      </trkpt>
      <trkpt lat="50.08262" lon="4.19129">
        <ele>192.8</ele>
        <time>2024-05-04T07:47:50Z</time>
      </trkpt>
      <trkpt lat="50.08268" lon="4.19133">
        <ele>193</ele>
        <time>2024-05-04T07:47:51Z</time>
      </trkpt>
      <trkpt lat="50.08274" lon="4.19137">
        <ele>193.2</ele>
        <time>2024-05-04T07:47:52Z</time>
      </trkpt>
      <trkpt lat="50.0828" lon="4.19141">
        <ele>193.2</ele>
        <time>2024-05-04T07:47:53Z</time>
      </trkpt>
      <trkpt lat="50.08285" lon="4.19145">
        <ele>193.2</ele>
        <time>2024-05-04T07:47:54Z</time>
      </trkpt>
      <trkpt lat="50.08291" lon="4.19149">
        <ele>193.6</ele>
        <time>2024-05-04T07:47:55Z</time>
      </trkpt>
      <trkpt lat="50.08297" lon="4.19153">
        <ele>194.2</ele>
        <time>2024-05-04T07:47:56Z</time>
      </trkpt>
      <trkpt lat="50.08303" lon="4.19158">
        <ele>194.4</ele>
        <time>2024-05-04T07:47:57Z</time>
      </trkpt>
      <trkpt lat="50.08308" lon="4.19162">
        <ele>194.8</ele>
        <time>2024-05-04T07:47:58Z</time>
      </trkpt>
      <trkpt lat="50.08314" lon="4.19165">
        <ele>195</ele>
        <time>2024-05-04T07:47:59Z</time>
      </trkpt>
      <trkpt lat="50.0832" lon="4.19169">
        <ele>195</ele>
        <time>2024-05-04T07:48:00Z</time>
      </trkpt>
      <trkpt lat="50.08325" lon="4.19173">
        <ele>195.2</ele>
        <time>2024-05-04T07:48:01Z</time>
      </trkpt>
      <trkpt lat="50.08331" lon="4.19176">
        <ele>195.4</ele>
        <time>2024-05-04T07:48:02Z</time>
      </trkpt>
      <trkpt lat="50.08337" lon="4.19179">
        <ele>195.8</ele>
        <time>2024-05-04T07:48:03Z</time>
      </trkpt>
      <trkpt lat="50.08343" lon="4.19182">
        <ele>196</ele>
        <time>2024-05-04T07:48:04Z</time>
      </trkpt>
      <trkpt lat="50.08349" lon="4.19185">
        <ele>196.2</ele>
        <time>2024-05-04T07:48:05Z</time>
      </trkpt>
      <trkpt lat="50.08355" lon="4.19187">
        <ele>196</ele>
        <time>2024-05-04T07:48:06Z</time>
      </trkpt>
      <trkpt lat="50.08361" lon="4.19189">
        <ele>196.2</ele>
        <time>2024-05-04T07:48:07Z</time>
      </trkpt>
      <trkpt lat="50.08367" lon="4.19191">
        <ele>196.4</ele>
        <time>2024-05-04T07:48:08Z</time>
      </trkpt>
      <trkpt lat="50.08373" lon="4.19192">
        <ele>196.6</ele>
        <time>2024-05-04T07:48:09Z</time>
      </trkpt>
      <trkpt lat="50.08379" lon="4.19194">
        <ele>196.6</ele>
        <time>2024-05-04T07:48:10Z</time>
      </trkpt>
      <trkpt lat="50.08386" lon="4.19196">
        <ele>197</ele>
        <time>2024-05-04T07:48:11Z</time>
      </trkpt>
      <trkpt lat="50.08392" lon="4.19197">
        <ele>197</ele>
        <time>2024-05-04T07:48:12Z</time>
      </trkpt>
      <trkpt lat="50.08399" lon="4.19199">
        <ele>197.4</ele>
        <time>2024-05-04T07:48:13Z</time>
      </trkpt>
      <trkpt lat="50.08405" lon="4.192">
        <ele>197.8</ele>
        <time>2024-05-04T07:48:14Z</time>
      </trkpt>
      <trkpt lat="50.08412" lon="4.19201">
        <ele>197.8</ele>
        <time>2024-05-04T07:48:15Z</time>
      </trkpt>
      <trkpt lat="50.08418" lon="4.19203">
        <ele>198.2</ele>
        <time>2024-05-04T07:48:16Z</time>
      </trkpt>
      <trkpt lat="50.08425" lon="4.19204">
        <ele>198.4</ele>
        <time>2024-05-04T07:48:17Z</time>
      </trkpt>
      <trkpt lat="50.08431" lon="4.19205">
        <ele>198.8</ele>
        <time>2024-05-04T07:48:18Z</time>
      </trkpt>
      <trkpt lat="50.08438" lon="4.19207">
        <ele>199</ele>
        <time>2024-05-04T07:48:19Z</time>
      </trkpt>
      <trkpt lat="50.08444" lon="4.19208">
        <ele>199</ele>
        <time>2024-05-04T07:48:20Z</time>
      </trkpt>
      <trkpt lat="50.08451" lon="4.1921">
        <ele>198.8</ele>
        <time>2024-05-04T07:48:21Z</time>
      </trkpt>
      <trkpt lat="50.08457" lon="4.19212">
        <ele>199</ele>
        <time>2024-05-04T07:48:22Z</time>
      </trkpt>
      <trkpt lat="50.08464" lon="4.19215">
        <ele>199</ele>
        <time>2024-05-04T07:48:23Z</time>
      </trkpt>
      <trkpt lat="50.08471" lon="4.19217">
        <ele>199</ele>
        <time>2024-05-04T07:48:24Z</time>
      </trkpt>
      <trkpt lat="50.08478" lon="4.1922">
        <ele>199</ele>
        <time>2024-05-04T07:48:25Z</time>
      </trkpt>
      <trkpt lat="50.08485" lon="4.19223">
        <ele>199</ele>
        <time>2024-05-04T07:48:26Z</time>
      </trkpt>
      <trkpt lat="50.08492" lon="4.19226">
        <ele>199</ele>
        <time>2024-05-04T07:48:27Z</time>
      </trkpt>
      <trkpt lat="50.08499" lon="4.1923">
        <ele>199</ele>
        <time>2024-05-04T07:48:28Z</time>
      </trkpt>
      <trkpt lat="50.08506" lon="4.19234">
        <ele>199</ele>
        <time>2024-05-04T07:48:29Z</time>
      </trkpt>
      <trkpt lat="50.08514" lon="4.19238">
        <ele>198.8</ele>
        <time>2024-05-04T07:48:30Z</time>
      </trkpt>
      <trkpt lat="50.08521" lon="4.19243">
        <ele>198.8</ele>
        <time>2024-05-04T07:48:31Z</time>
      </trkpt>
      <trkpt lat="50.08529" lon="4.19247">
        <ele>198.4</ele>
        <time>2024-05-04T07:48:32Z</time>
      </trkpt>
      <trkpt lat="50.08537" lon="4.19252">
        <ele>198.6</ele>
        <time>2024-05-04T07:48:33Z</time>
      </trkpt>
      <trkpt lat="50.08545" lon="4.19257">
        <ele>198.4</ele>
        <time>2024-05-04T07:48:34Z</time>
      </trkpt>
      <trkpt lat="50.08553" lon="4.19261">
        <ele>198</ele>
        <time>2024-05-04T07:48:35Z</time>
      </trkpt>
      <trkpt lat="50.08561" lon="4.19266">
        <ele>197.8</ele>
        <time>2024-05-04T07:48:36Z</time>
      </trkpt>
      <trkpt lat="50.0857" lon="4.19271">
        <ele>197.2</ele>
        <time>2024-05-04T07:48:37Z</time>
      </trkpt>
      <trkpt lat="50.08579" lon="4.19276">
        <ele>196.4</ele>
        <time>2024-05-04T07:48:38Z</time>
      </trkpt>
      <trkpt lat="50.08588" lon="4.19282">
        <ele>195.6</ele>
        <time>2024-05-04T07:48:39Z</time>
      </trkpt>
      <trkpt lat="50.08597" lon="4.19286">
        <ele>195.2</ele>
        <time>2024-05-04T07:48:40Z</time>
      </trkpt>
      <trkpt lat="50.08606" lon="4.19291">
        <ele>194.4</ele>
        <time>2024-05-04T07:48:41Z</time>
      </trkpt>
      <trkpt lat="50.08615" lon="4.19296">
        <ele>194.4</ele>
        <time>2024-05-04T07:48:42Z</time>
      </trkpt>
      <trkpt lat="50.08624" lon="4.193">
        <ele>193.6</ele>
        <time>2024-05-04T07:48:43Z</time>
      </trkpt>
      <trkpt lat="50.08634" lon="4.19305">
        <ele>193.2</ele>
        <time>2024-05-04T07:48:44Z</time>
      </trkpt>
      <trkpt lat="50.08644" lon="4.19309">
        <ele>192.6</ele>
        <time>2024-05-04T07:48:45Z</time>
      </trkpt>
      <trkpt lat="50.08653" lon="4.19312">
        <ele>192</ele>
        <time>2024-05-04T07:48:46Z</time>
      </trkpt>
      <trkpt lat="50.08663" lon="4.19315">
        <ele>191.4</ele>
        <time>2024-05-04T07:48:47Z</time>
      </trkpt>
      <trkpt lat="50.08672" lon="4.19319">
        <ele>191</ele>
        <time>2024-05-04T07:48:48Z</time>
      </trkpt>
      <trkpt lat="50.08682" lon="4.19322">
        <ele>190.6</ele>
        <time>2024-05-04T07:48:49Z</time>
      </trkpt>
      <trkpt lat="50.08692" lon="4.19325">
        <ele>190.2</ele>
        <time>2024-05-04T07:48:50Z</time>
      </trkpt>
      <trkpt lat="50.08701" lon="4.19327">
        <ele>189.8</ele>
        <time>2024-05-04T07:48:51Z</time>
      </trkpt>
      <trkpt lat="50.08711" lon="4.19329">
        <ele>189.6</ele>
        <time>2024-05-04T07:48:52Z</time>
      </trkpt>
      <trkpt lat="50.0872" lon="4.1933">
        <ele>189.4</ele>
        <time>2024-05-04T07:48:53Z</time>
      </trkpt>
      <trkpt lat="50.0873" lon="4.19331">
        <ele>189.4</ele>
        <time>2024-05-04T07:48:54Z</time>
      </trkpt>
      <trkpt lat="50.08739" lon="4.19331">
        <ele>189.2</ele>
        <time>2024-05-04T07:48:55Z</time>
      </trkpt>
      <trkpt lat="50.08748" lon="4.1933">
        <ele>189</ele>
        <time>2024-05-04T07:48:56Z</time>
      </trkpt>
      <trkpt lat="50.08757" lon="4.19329">
        <ele>188.8</ele>
        <time>2024-05-04T07:48:57Z</time>
      </trkpt>
      <trkpt lat="50.08766" lon="4.19329">
        <ele>188.6</ele>
        <time>2024-05-04T07:48:58Z</time>
      </trkpt>
      <trkpt lat="50.08775" lon="4.19328">
        <ele>188</ele>
        <time>2024-05-04T07:48:59Z</time>
      </trkpt>
      <trkpt lat="50.08784" lon="4.19327">
        <ele>188</ele>
        <time>2024-05-04T07:49:00Z</time>
      </trkpt>
      <trkpt lat="50.08793" lon="4.19326">
        <ele>187.6</ele>
        <time>2024-05-04T07:49:01Z</time>
      </trkpt>
      <trkpt lat="50.08801" lon="4.19326">
        <ele>187.4</ele>
        <time>2024-05-04T07:49:02Z</time>
      </trkpt>
      <trkpt lat="50.0881" lon="4.19325">
        <ele>187.2</ele>
        <time>2024-05-04T07:49:03Z</time>
      </trkpt>
      <trkpt lat="50.08818" lon="4.19324">
        <ele>187</ele>
        <time>2024-05-04T07:49:04Z</time>
      </trkpt>
      <trkpt lat="50.08826" lon="4.19322">
        <ele>187.2</ele>
        <time>2024-05-04T07:49:05Z</time>
      </trkpt>
      <trkpt lat="50.08835" lon="4.19321">
        <ele>187</ele>
        <time>2024-05-04T07:49:06Z</time>
      </trkpt>
      <trkpt lat="50.08843" lon="4.1932">
        <ele>187</ele>
        <time>2024-05-04T07:49:07Z</time>
      </trkpt>
      <trkpt lat="50.08851" lon="4.19319">
        <ele>186.8</ele>
        <time>2024-05-04T07:49:08Z</time>
      </trkpt>
      <trkpt lat="50.08859" lon="4.19318">
        <ele>186.8</ele>
        <time>2024-05-04T07:49:09Z</time>
      </trkpt>
      <trkpt lat="50.08867" lon="4.19317">
        <ele>187</ele>
        <time>2024-05-04T07:49:10Z</time>
      </trkpt>
      <trkpt lat="50.08875" lon="4.19316">
        <ele>186.8</ele>
        <time>2024-05-04T07:49:11Z</time>
      </trkpt>
      <trkpt lat="50.08883" lon="4.19315">
        <ele>187</ele>
        <time>2024-05-04T07:49:12Z</time>
      </trkpt>
      <trkpt lat="50.08891" lon="4.19314">
        <ele>187.2</ele>
        <time>2024-05-04T07:49:13Z</time>
      </trkpt>
      <trkpt lat="50.08899" lon="4.19315">
        <ele>187.2</ele>
        <time>2024-05-04T07:49:14Z</time>
      </trkpt>
      <trkpt lat="50.08906" lon="4.19315">
        <ele>187.2</ele>
        <time>2024-05-04T07:49:15Z</time>
      </trkpt>
      <trkpt lat="50.08914" lon="4.19317">
        <ele>187.2</ele>
        <time>2024-05-04T07:49:16Z</time>
      </trkpt>
      <trkpt lat="50.08921" lon="4.1932">
        <ele>187.2</ele>
        <time>2024-05-04T07:49:17Z</time>
      </trkpt>
      <trkpt lat="50.08929" lon="4.19323">
        <ele>187.4</ele>
        <time>2024-05-04T07:49:18Z</time>
      </trkpt>
      <trkpt lat="50.08936" lon="4.19326">
        <ele>187.6</ele>
        <time>2024-05-04T07:49:19Z</time>
      </trkpt>
      <trkpt lat="50.08943" lon="4.19329">
        <ele>187.6</ele>
        <time>2024-05-04T07:49:20Z</time>
      </trkpt>
      <trkpt lat="50.0895" lon="4.19332">
        <ele>187.8</ele>
        <time>2024-05-04T07:49:21Z</time>
      </trkpt>
      <trkpt lat="50.08957" lon="4.19335">
        <ele>188</ele>
        <time>2024-05-04T07:49:22Z</time>
      </trkpt>
      <trkpt lat="50.08964" lon="4.19338">
        <ele>188</ele>
        <time>2024-05-04T07:49:23Z</time>
      </trkpt>
      <trkpt lat="50.0897" lon="4.19341">
        <ele>188.2</ele>
        <time>2024-05-04T07:49:24Z</time>
      </trkpt>
      <trkpt lat="50.08977" lon="4.19343">
        <ele>188.4</ele>
        <time>2024-05-04T07:49:25Z</time>
      </trkpt>
      <trkpt lat="50.08983" lon="4.19346">
        <ele>188.6</ele>
        <time>2024-05-04T07:49:26Z</time>
      </trkpt>
      <trkpt lat="50.08989" lon="4.19348">
        <ele>188.8</ele>
        <time>2024-05-04T07:49:27Z</time>
      </trkpt>
      <trkpt lat="50.08995" lon="4.1935">
        <ele>189</ele>
        <time>2024-05-04T07:49:28Z</time>
      </trkpt>
      <trkpt lat="50.09001" lon="4.19353">
        <ele>189.4</ele>
        <time>2024-05-04T07:49:29Z</time>
      </trkpt>
      <trkpt lat="50.09008" lon="4.19354">
        <ele>189.6</ele>
        <time>2024-05-04T07:49:30Z</time>
      </trkpt>
      <trkpt lat="50.09014" lon="4.19356">
        <ele>189.6</ele>
        <time>2024-05-04T07:49:31Z</time>
      </trkpt>
      <trkpt lat="50.0902" lon="4.19357">
        <ele>189.6</ele>
        <time>2024-05-04T07:49:32Z</time>
      </trkpt>
      <trkpt lat="50.09026" lon="4.19357">
        <ele>189.8</ele>
        <time>2024-05-04T07:49:33Z</time>
      </trkpt>
      <trkpt lat="50.09033" lon="4.19358">
        <ele>189.8</ele>
        <time>2024-05-04T07:49:34Z</time>
      </trkpt>
      <trkpt lat="50.09039" lon="4.19358">
        <ele>190.2</ele>
        <time>2024-05-04T07:49:35Z</time>
      </trkpt>
      <trkpt lat="50.09045" lon="4.19359">
        <ele>190.2</ele>
        <time>2024-05-04T07:49:36Z</time>
      </trkpt>
      <trkpt lat="50.09051" lon="4.19359">
        <ele>190.2</ele>
        <time>2024-05-04T07:49:37Z</time>
      </trkpt>
      <trkpt lat="50.09058" lon="4.19359">
        <ele>190.8</ele>
        <time>2024-05-04T07:49:38Z</time>
      </trkpt>
      <trkpt lat="50.09064" lon="4.19359">
        <ele>191.2</ele>
        <time>2024-05-04T07:49:39Z</time>
      </trkpt>
      <trkpt lat="50.0907" lon="4.19359">
        <ele>191.4</ele>
        <time>2024-05-04T07:49:40Z</time>
      </trkpt>
      <trkpt lat="50.09077" lon="4.19359">
        <ele>191.6</ele>
        <time>2024-05-04T07:49:41Z</time>
      </trkpt>
      <trkpt lat="50.09083" lon="4.19359">
        <ele>191.6</ele>
        <time>2024-05-04T07:49:42Z</time>
      </trkpt>
      <trkpt lat="50.09089" lon="4.19359">
        <ele>192</ele>
        <time>2024-05-04T07:49:43Z</time>
      </trkpt>
      <trkpt lat="50.09095" lon="4.19359">
        <ele>192</ele>
        <time>2024-05-04T07:49:44Z</time>
      </trkpt>
      <trkpt lat="50.09101" lon="4.19359">
        <ele>192.4</ele>
        <time>2024-05-04T07:49:45Z</time>
      </trkpt>
      <trkpt lat="50.09107" lon="4.19359">
        <ele>192.6</ele>
        <time>2024-05-04T07:49:46Z</time>
      </trkpt>
      <trkpt lat="50.09114" lon="4.19359">
        <ele>192.6</ele>
        <time>2024-05-04T07:49:47Z</time>
      </trkpt>
      <trkpt lat="50.0912" lon="4.19359">
        <ele>192.6</ele>
        <time>2024-05-04T07:49:48Z</time>
      </trkpt>
      <trkpt lat="50.09126" lon="4.19359">
        <ele>192.8</ele>
        <time>2024-05-04T07:49:49Z</time>
      </trkpt>
      <trkpt lat="50.09133" lon="4.1936">
        <ele>193</ele>
        <time>2024-05-04T07:49:50Z</time>
      </trkpt>
      <trkpt lat="50.09139" lon="4.1936">
        <ele>193</ele>
        <time>2024-05-04T07:49:51Z</time>
      </trkpt>
      <trkpt lat="50.09145" lon="4.1936">
        <ele>193.2</ele>
        <time>2024-05-04T07:49:52Z</time>
      </trkpt>
      <trkpt lat="50.09152" lon="4.19361">
        <ele>193</ele>
        <time>2024-05-04T07:49:53Z</time>
      </trkpt>
      <trkpt lat="50.09159" lon="4.1936">
        <ele>193.2</ele>
        <time>2024-05-04T07:49:54Z</time>
      </trkpt>
      <trkpt lat="50.09165" lon="4.1936">
        <ele>193.2</ele>
        <time>2024-05-04T07:49:55Z</time>
      </trkpt>
      <trkpt lat="50.09172" lon="4.1936">
        <ele>193.4</ele>
        <time>2024-05-04T07:49:56Z</time>
      </trkpt>
      <trkpt lat="50.0918" lon="4.19359">
        <ele>193.4</ele>
        <time>2024-05-04T07:49:57Z</time>
      </trkpt>
      <trkpt lat="50.09187" lon="4.19359">
        <ele>193.4</ele>
        <time>2024-05-04T07:49:58Z</time>
      </trkpt>
      <trkpt lat="50.09194" lon="4.19358">
        <ele>193.2</ele>
        <time>2024-05-04T07:49:59Z</time>
      </trkpt>
      <trkpt lat="50.09202" lon="4.19357">
        <ele>193.4</ele>
        <time>2024-05-04T07:50:00Z</time>
      </trkpt>
      <trkpt lat="50.0921" lon="4.19355">
        <ele>193.4</ele>
        <time>2024-05-04T07:50:01Z</time>
      </trkpt>
      <trkpt lat="50.09217" lon="4.19353">
        <ele>193.4</ele>
        <time>2024-05-04T07:50:02Z</time>
      </trkpt>
      <trkpt lat="50.09225" lon="4.19351">
        <ele>193.4</ele>
        <time>2024-05-04T07:50:03Z</time>
      </trkpt>
      <trkpt lat="50.09232" lon="4.19349">
        <ele>193.4</ele>
        <time>2024-05-04T07:50:04Z</time>
      </trkpt>
      <trkpt lat="50.0924" lon="4.19346">
        <ele>193.4</ele>
        <time>2024-05-04T07:50:05Z</time>
      </trkpt>
      <trkpt lat="50.09248" lon="4.19343">
        <ele>193.4</ele>
        <time>2024-05-04T07:50:06Z</time>
      </trkpt>
      <trkpt lat="50.09256" lon="4.1934">
        <ele>193.2</ele>
        <time>2024-05-04T07:50:07Z</time>
      </trkpt>
      <trkpt lat="50.09263" lon="4.19337">
        <ele>193.2</ele>
        <time>2024-05-04T07:50:08Z</time>
      </trkpt>
      <trkpt lat="50.09271" lon="4.19334">
        <ele>192.8</ele>
        <time>2024-05-04T07:50:09Z</time>
      </trkpt>
      <trkpt lat="50.09279" lon="4.19332">
        <ele>192</ele>
        <time>2024-05-04T07:50:10Z</time>
      </trkpt>
      <trkpt lat="50.09287" lon="4.1933">
        <ele>191.2</ele>
        <time>2024-05-04T07:50:11Z</time>
      </trkpt>
      <trkpt lat="50.09295" lon="4.19329">
        <ele>191</ele>
        <time>2024-05-04T07:50:12Z</time>
      </trkpt>
      <trkpt lat="50.09303" lon="4.19328">
        <ele>190.6</ele>
        <time>2024-05-04T07:50:13Z</time>
      </trkpt>
      <trkpt lat="50.09311" lon="4.19328">
        <ele>190.6</ele>
        <time>2024-05-04T07:50:14Z</time>
      </trkpt>
      <trkpt lat="50.0932" lon="4.19328">
        <ele>190.6</ele>
        <time>2024-05-04T07:50:15Z</time>
      </trkpt>
      <trkpt lat="50.09328" lon="4.19328">
        <ele>190.4</ele>
        <time>2024-05-04T07:50:16Z</time>
      </trkpt>
      <trkpt lat="50.09336" lon="4.19329">
        <ele>190.4</ele>
        <time>2024-05-04T07:50:17Z</time>
      </trkpt>
      <trkpt lat="50.09344" lon="4.19329">
        <ele>190.4</ele>
        <time>2024-05-04T07:50:18Z</time>
      </trkpt>
      <trkpt lat="50.09352" lon="4.19331">
        <ele>190.2</ele>
        <time>2024-05-04T07:50:19Z</time>
      </trkpt>
      <trkpt lat="50.0936" lon="4.19333">
        <ele>190.2</ele>
        <time>2024-05-04T07:50:20Z</time>
      </trkpt>
      <trkpt lat="50.09367" lon="4.19336">
        <ele>190</ele>
        <time>2024-05-04T07:50:21Z</time>
      </trkpt>
      <trkpt lat="50.09375" lon="4.19341">
        <ele>190</ele>
        <time>2024-05-04T07:50:22Z</time>
      </trkpt>
      <trkpt lat="50.09383" lon="4.19347">
        <ele>190</ele>
        <time>2024-05-04T07:50:23Z</time>
      </trkpt>
      <trkpt lat="50.0939" lon="4.19353">
        <ele>190</ele>
        <time>2024-05-04T07:50:24Z</time>
      </trkpt>
      <trkpt lat="50.09397" lon="4.19361">
        <ele>189.8</ele>
        <time>2024-05-04T07:50:25Z</time>
      </trkpt>
      <trkpt lat="50.09403" lon="4.19369">
        <ele>189.4</ele>
        <time>2024-05-04T07:50:26Z</time>
      </trkpt>
      <trkpt lat="50.09409" lon="4.19378">
        <ele>189.2</ele>
        <time>2024-05-04T07:50:27Z</time>
      </trkpt>
      <trkpt lat="50.09415" lon="4.19387">
        <ele>189</ele>
        <time>2024-05-04T07:50:28Z</time>
      </trkpt>
      <trkpt lat="50.09421" lon="4.19396">
        <ele>189</ele>
        <time>2024-05-04T07:50:29Z</time>
      </trkpt>
      <trkpt lat="50.09426" lon="4.19405">
        <ele>188.8</ele>
        <time>2024-05-04T07:50:30Z</time>
      </trkpt>
      <trkpt lat="50.09432" lon="4.19414">
        <ele>188.8</ele>
        <time>2024-05-04T07:50:31Z</time>
      </trkpt>
      <trkpt lat="50.09437" lon="4.19424">
        <ele>188.6</ele>
        <time>2024-05-04T07:50:32Z</time>
      </trkpt>
      <trkpt lat="50.09443" lon="4.19433">
        <ele>188.8</ele>
        <time>2024-05-04T07:50:33Z</time>
      </trkpt>
      <trkpt lat="50.09448" lon="4.19442">
        <ele>188.8</ele>
        <time>2024-05-04T07:50:34Z</time>
      </trkpt>
      <trkpt lat="50.09454" lon="4.19452">
        <ele>188.6</ele>
        <time>2024-05-04T07:50:35Z</time>
      </trkpt>
      <trkpt lat="50.09459" lon="4.19461">
        <ele>188.6</ele>
        <time>2024-05-04T07:50:36Z</time>
      </trkpt>
      <trkpt lat="50.09465" lon="4.1947">
        <ele>188.4</ele>
        <time>2024-05-04T07:50:37Z</time>
      </trkpt>
      <trkpt lat="50.0947" lon="4.19479">
        <ele>188.4</ele>
        <time>2024-05-04T07:50:38Z</time>
      </trkpt>
      <trkpt lat="50.09475" lon="4.19488">
        <ele>188</ele>
        <time>2024-05-04T07:50:39Z</time>
      </trkpt>
      <trkpt lat="50.0948" lon="4.19498">
        <ele>188</ele>
        <time>2024-05-04T07:50:40Z</time>
      </trkpt>
      <trkpt lat="50.09485" lon="4.19507">
        <ele>188</ele>
        <time>2024-05-04T07:50:41Z</time>
      </trkpt>
      <trkpt lat="50.0949" lon="4.19516">
        <ele>187.8</ele>
        <time>2024-05-04T07:50:42Z</time>
      </trkpt>
      <trkpt lat="50.09496" lon="4.19524">
        <ele>188</ele>
        <time>2024-05-04T07:50:43Z</time>
      </trkpt>
      <trkpt lat="50.09501" lon="4.19532">
        <ele>187.8</ele>
        <time>2024-05-04T07:50:44Z</time>
      </trkpt>
      <trkpt lat="50.09507" lon="4.19538">
        <ele>187.8</ele>
        <time>2024-05-04T07:50:45Z</time>
      </trkpt>
      <trkpt lat="50.09514" lon="4.19543">
        <ele>187.6</ele>
        <time>2024-05-04T07:50:46Z</time>
      </trkpt>
      <trkpt lat="50.09521" lon="4.19547">
        <ele>187.6</ele>
        <time>2024-05-04T07:50:47Z</time>
      </trkpt>
      <trkpt lat="50.09528" lon="4.19549">
        <ele>187.6</ele>
        <time>2024-05-04T07:50:48Z</time>
      </trkpt>
      <trkpt lat="50.09536" lon="4.19551">
        <ele>187.6</ele>
        <time>2024-05-04T07:50:49Z</time>
      </trkpt>
      <trkpt lat="50.09544" lon="4.19551">
        <ele>187.4</ele>
        <time>2024-05-04T07:50:50Z</time>
      </trkpt>
      <trkpt lat="50.09553" lon="4.19551">
        <ele>187.4</ele>
        <time>2024-05-04T07:50:51Z</time>
      </trkpt>
      <trkpt lat="50.09561" lon="4.19551">
        <ele>187.4</ele>
        <time>2024-05-04T07:50:52Z</time>
      </trkpt>
      <trkpt lat="50.0957" lon="4.19551">
        <ele>187.4</ele>
        <time>2024-05-04T07:50:53Z</time>
      </trkpt>
      <trkpt lat="50.09579" lon="4.1955">
        <ele>187.2</ele>
        <time>2024-05-04T07:50:54Z</time>
      </trkpt>
      <trkpt lat="50.09587" lon="4.19549">
        <ele>187.2</ele>
        <time>2024-05-04T07:50:55Z</time>
      </trkpt>
      <trkpt lat="50.09596" lon="4.19546">
        <ele>187</ele>
        <time>2024-05-04T07:50:56Z</time>
      </trkpt>
      <trkpt lat="50.09604" lon="4.19542">
        <ele>187</ele>
        <time>2024-05-04T07:50:57Z</time>
      </trkpt>
      <trkpt lat="50.09612" lon="4.19536">
        <ele>187</ele>
        <time>2024-05-04T07:50:58Z</time>
      </trkpt>
      <trkpt lat="50.09619" lon="4.19528">
        <ele>186.8</ele>
        <time>2024-05-04T07:50:59Z</time>
      </trkpt>
      <trkpt lat="50.09626" lon="4.1952">
        <ele>186.6</ele>
        <time>2024-05-04T07:51:00Z</time>
      </trkpt>
      <trkpt lat="50.09632" lon="4.1951">
        <ele>186.6</ele>
        <time>2024-05-04T07:51:01Z</time>
      </trkpt>
      <trkpt lat="50.09638" lon="4.19501">
        <ele>186.2</ele>
        <time>2024-05-04T07:51:02Z</time>
      </trkpt>
      <trkpt lat="50.09644" lon="4.19493">
        <ele>185.8</ele>
        <time>2024-05-04T07:51:03Z</time>
      </trkpt>
      <trkpt lat="50.09651" lon="4.19485">
        <ele>185.6</ele>
        <time>2024-05-04T07:51:04Z</time>
      </trkpt>
      <trkpt lat="50.09658" lon="4.19477">
        <ele>185.4</ele>
        <time>2024-05-04T07:51:05Z</time>
      </trkpt>
      <trkpt lat="50.09664" lon="4.1947">
        <ele>185.4</ele>
        <time>2024-05-04T07:51:06Z</time>
      </trkpt>
      <trkpt lat="50.09671" lon="4.19463">
        <ele>185.4</ele>
        <time>2024-05-04T07:51:07Z</time>
      </trkpt>
      <trkpt lat="50.09677" lon="4.19456">
        <ele>185</ele>
        <time>2024-05-04T07:51:08Z</time>
      </trkpt>
      <trkpt lat="50.09684" lon="4.1945">
        <ele>185</ele>
        <time>2024-05-04T07:51:09Z</time>
      </trkpt>
      <trkpt lat="50.0969" lon="4.19443">
        <ele>184.8</ele>
        <time>2024-05-04T07:51:10Z</time>
      </trkpt>
      <trkpt lat="50.09696" lon="4.19437">
        <ele>184.8</ele>
        <time>2024-05-04T07:51:11Z</time>
      </trkpt>
      <trkpt lat="50.09703" lon="4.19431">
        <ele>184.8</ele>
        <time>2024-05-04T07:51:12Z</time>
      </trkpt>
      <trkpt lat="50.09709" lon="4.19424">
        <ele>184.8</ele>
        <time>2024-05-04T07:51:13Z</time>
      </trkpt>
      <trkpt lat="50.09715" lon="4.19419">
        <ele>184.8</ele>
        <time>2024-05-04T07:51:14Z</time>
      </trkpt>
      <trkpt lat="50.09722" lon="4.19414">
        <ele>185</ele>
        <time>2024-05-04T07:51:15Z</time>
      </trkpt>
      <trkpt lat="50.09729" lon="4.1941">
        <ele>185</ele>
        <time>2024-05-04T07:51:16Z</time>
      </trkpt>
      <trkpt lat="50.09737" lon="4.19407">
        <ele>185</ele>
        <time>2024-05-04T07:51:17Z</time>
      </trkpt>
      <trkpt lat="50.09744" lon="4.19406">
        <ele>185</ele>
        <time>2024-05-04T07:51:18Z</time>
      </trkpt>
      <trkpt lat="50.09751" lon="4.19405">
        <ele>185.2</ele>
        <time>2024-05-04T07:51:19Z</time>
      </trkpt>
      <trkpt lat="50.09758" lon="4.19404">
        <ele>185</ele>
        <time>2024-05-04T07:51:20Z</time>
      </trkpt>
      <trkpt lat="50.09765" lon="4.19404">
        <ele>185.2</ele>
        <time>2024-05-04T07:51:21Z</time>
      </trkpt>
      <trkpt lat="50.09772" lon="4.19404">
        <ele>185.2</ele>
        <time>2024-05-04T07:51:22Z</time>
      </trkpt>
      <trkpt lat="50.0978" lon="4.19404">
        <ele>185.2</ele>
        <time>2024-05-04T07:51:23Z</time>
      </trkpt>
      <trkpt lat="50.09787" lon="4.19405">
        <ele>185.4</ele>
        <time>2024-05-04T07:51:24Z</time>
      </trkpt>
      <trkpt lat="50.09794" lon="4.19405">
        <ele>185.4</ele>
        <time>2024-05-04T07:51:25Z</time>
      </trkpt>
      <trkpt lat="50.09801" lon="4.19405">
        <ele>185.4</ele>
        <time>2024-05-04T07:51:26Z</time>
      </trkpt>
      <trkpt lat="50.09809" lon="4.19405">
        <ele>185.4</ele>
        <time>2024-05-04T07:51:27Z</time>
      </trkpt>
      <trkpt lat="50.09817" lon="4.19406">
        <ele>185.2</ele>
        <time>2024-05-04T07:51:28Z</time>
      </trkpt>
      <trkpt lat="50.09824" lon="4.19406">
        <ele>185.4</ele>
        <time>2024-05-04T07:51:29Z</time>
      </trkpt>
      <trkpt lat="50.09832" lon="4.19406">
        <ele>185.4</ele>
        <time>2024-05-04T07:51:30Z</time>
      </trkpt>
      <trkpt lat="50.09839" lon="4.19406">
        <ele>185.4</ele>
        <time>2024-05-04T07:51:31Z</time>
      </trkpt>
      <trkpt lat="50.09846" lon="4.19407">
        <ele>185.4</ele>
        <time>2024-05-04T07:51:32Z</time>
      </trkpt>
      <trkpt lat="50.09854" lon="4.19407">
        <ele>185.4</ele>
        <time>2024-05-04T07:51:33Z</time>
      </trkpt>
      <trkpt lat="50.09861" lon="4.19407">
        <ele>185.4</ele>
        <time>2024-05-04T07:51:34Z</time>
      </trkpt>
      <trkpt lat="50.09868" lon="4.19407">
        <ele>185.4</ele>
        <time>2024-05-04T07:51:35Z</time>
      </trkpt>
      <trkpt lat="50.09874" lon="4.19407">
        <ele>185.6</ele>
        <time>2024-05-04T07:51:36Z</time>
      </trkpt>
      <trkpt lat="50.0988" lon="4.19407">
        <ele>185.6</ele>
        <time>2024-05-04T07:51:37Z</time>
      </trkpt>
      <trkpt lat="50.09886" lon="4.19407">
        <ele>185.6</ele>
        <time>2024-05-04T07:51:38Z</time>
      </trkpt>
      <trkpt lat="50.09892" lon="4.19407">
        <ele>185.8</ele>
        <time>2024-05-04T07:51:39Z</time>
      </trkpt>
      <trkpt lat="50.09897" lon="4.19407">
        <ele>185.8</ele>
        <time>2024-05-04T07:51:40Z</time>
      </trkpt>
      <trkpt lat="50.09903" lon="4.19407">
        <ele>186</ele>
        <time>2024-05-04T07:51:41Z</time>
      </trkpt>
      <trkpt lat="50.09908" lon="4.19407">
        <ele>185.8</ele>
        <time>2024-05-04T07:51:42Z</time>
      </trkpt>
      <trkpt lat="50.09913" lon="4.19406">
        <ele>186.4</ele>
        <time>2024-05-04T07:51:43Z</time>
      </trkpt>
      <trkpt lat="50.09918" lon="4.19406">
        <ele>186.6</ele>
        <time>2024-05-04T07:51:44Z</time>
      </trkpt>
      <trkpt lat="50.09923" lon="4.19405">
        <ele>187.2</ele>
        <time>2024-05-04T07:51:45Z</time>
      </trkpt>
      <trkpt lat="50.09928" lon="4.19405">
        <ele>187.8</ele>
        <time>2024-05-04T07:51:46Z</time>
      </trkpt>
      <trkpt lat="50.09933" lon="4.19404">
        <ele>188.2</ele>
        <time>2024-05-04T07:51:47Z</time>
      </trkpt>
      <trkpt lat="50.09938" lon="4.19404">
        <ele>188.8</ele>
        <time>2024-05-04T07:51:48Z</time>
      </trkpt>
      <trkpt lat="50.09943" lon="4.19403">
        <ele>189</ele>
        <time>2024-05-04T07:51:49Z</time>
      </trkpt>
      <trkpt lat="50.09948" lon="4.19403">
        <ele>189.6</ele>
        <time>2024-05-04T07:51:50Z</time>
      </trkpt>
      <trkpt lat="50.09953" lon="4.19402">
        <ele>189.6</ele>
        <time>2024-05-04T07:51:51Z</time>
      </trkpt>
      <trkpt lat="50.09958" lon="4.19402">
        <ele>190</ele>
        <time>2024-05-04T07:51:52Z</time>
      </trkpt>
      <trkpt lat="50.09963" lon="4.19401">
        <ele>190.2</ele>
        <time>2024-05-04T07:51:53Z</time>
      </trkpt>
      <trkpt lat="50.09968" lon="4.19401">
        <ele>190.2</ele>
        <time>2024-05-04T07:51:54Z</time>
      </trkpt>
      <trkpt lat="50.09973" lon="4.194">
        <ele>190.6</ele>
        <time>2024-05-04T07:51:55Z</time>
      </trkpt>
      <trkpt lat="50.09978" lon="4.19399">
        <ele>190.6</ele>
        <time>2024-05-04T07:51:56Z</time>
      </trkpt>
      <trkpt lat="50.09983" lon="4.19399">
        <ele>190.8</ele>
        <time>2024-05-04T07:51:57Z</time>
      </trkpt>
      <trkpt lat="50.09987" lon="4.19398">
        <ele>190.8</ele>
        <time>2024-05-04T07:51:58Z</time>
      </trkpt>
      <trkpt lat="50.09992" lon="4.19398">
        <ele>191</ele>
        <time>2024-05-04T07:51:59Z</time>
      </trkpt>
      <trkpt lat="50.09997" lon="4.19397">
        <ele>191</ele>
        <time>2024-05-04T07:52:00Z</time>
      </trkpt>
      <trkpt lat="50.10001" lon="4.19397">
        <ele>191.2</ele>
        <time>2024-05-04T07:52:01Z</time>
      </trkpt>
      <trkpt lat="50.10006" lon="4.19396">
        <ele>191.2</ele>
        <time>2024-05-04T07:52:02Z</time>
      </trkpt>
      <trkpt lat="50.10011" lon="4.19395">
        <ele>191.2</ele>
        <time>2024-05-04T07:52:03Z</time>
      </trkpt>
      <trkpt lat="50.10016" lon="4.19394">
        <ele>191.4</ele>
        <time>2024-05-04T07:52:04Z</time>
      </trkpt>
      <trkpt lat="50.10021" lon="4.19393">
        <ele>191.4</ele>
        <time>2024-05-04T07:52:05Z</time>
      </trkpt>
      <trkpt lat="50.10026" lon="4.19392">
        <ele>192</ele>
        <time>2024-05-04T07:52:06Z</time>
      </trkpt>
      <trkpt lat="50.10031" lon="4.1939">
        <ele>192.6</ele>
        <time>2024-05-04T07:52:07Z</time>
      </trkpt>
      <trkpt lat="50.10036" lon="4.19388">
        <ele>192.6</ele>
        <time>2024-05-04T07:52:08Z</time>
      </trkpt>
      <trkpt lat="50.10041" lon="4.19386">
        <ele>193</ele>
        <time>2024-05-04T07:52:09Z</time>
      </trkpt>
      <trkpt lat="50.10046" lon="4.19383">
        <ele>193.2</ele>
        <time>2024-05-04T07:52:10Z</time>
      </trkpt>
      <trkpt lat="50.10051" lon="4.1938">
        <ele>193.4</ele>
        <time>2024-05-04T07:52:11Z</time>
      </trkpt>
      <trkpt lat="50.10056" lon="4.19377">
        <ele>193.2</ele>
        <time>2024-05-04T07:52:12Z</time>
      </trkpt>
      <trkpt lat="50.10062" lon="4.19374">
        <ele>193.4</ele>
        <time>2024-05-04T07:52:13Z</time>
      </trkpt>
      <trkpt lat="50.10067" lon="4.1937">
        <ele>193.4</ele>
        <time>2024-05-04T07:52:14Z</time>
      </trkpt>
      <trkpt lat="50.10072" lon="4.19366">
        <ele>193.4</ele>
        <time>2024-05-04T07:52:15Z</time>
      </trkpt>
      <trkpt lat="50.10078" lon="4.19362">
        <ele>193.8</ele>
        <time>2024-05-04T07:52:16Z</time>
      </trkpt>
      <trkpt lat="50.10083" lon="4.19358">
        <ele>194</ele>
        <time>2024-05-04T07:52:17Z</time>
      </trkpt>
      <trkpt lat="50.10089" lon="4.19354">
        <ele>194</ele>
        <time>2024-05-04T07:52:18Z</time>
      </trkpt>
      <trkpt lat="50.10095" lon="4.19349">
        <ele>194</ele>
        <time>2024-05-04T07:52:19Z</time>
      </trkpt>
      <trkpt lat="50.101" lon="4.19345">
        <ele>194.2</ele>
        <time>2024-05-04T07:52:20Z</time>
      </trkpt>
      <trkpt lat="50.10107" lon="4.1934">
        <ele>194.2</ele>
        <time>2024-05-04T07:52:21Z</time>
      </trkpt>
      <trkpt lat="50.10113" lon="4.19335">
        <ele>194.4</ele>
        <time>2024-05-04T07:52:22Z</time>
      </trkpt>
      <trkpt lat="50.10121" lon="4.19331">
        <ele>194.2</ele>
        <time>2024-05-04T07:52:23Z</time>
      </trkpt>
      <trkpt lat="50.10128" lon="4.19328">
        <ele>194.2</ele>
        <time>2024-05-04T07:52:24Z</time>
      </trkpt>
      <trkpt lat="50.10136" lon="4.19325">
        <ele>194.2</ele>
        <time>2024-05-04T07:52:25Z</time>
      </trkpt>
      <trkpt lat="50.10144" lon="4.19323">
        <ele>194.2</ele>
        <time>2024-05-04T07:52:26Z</time>
      </trkpt>
      <trkpt lat="50.10152" lon="4.19321">
        <ele>194.2</ele>
        <time>2024-05-04T07:52:27Z</time>
      </trkpt>
      <trkpt lat="50.10161" lon="4.19321">
        <ele>194.2</ele>
        <time>2024-05-04T07:52:28Z</time>
      </trkpt>
      <trkpt lat="50.10169" lon="4.1932">
        <ele>194</ele>
        <time>2024-05-04T07:52:29Z</time>
      </trkpt>
      <trkpt lat="50.10178" lon="4.1932">
        <ele>194.2</ele>
        <time>2024-05-04T07:52:30Z</time>
      </trkpt>
      <trkpt lat="50.10187" lon="4.1932">
        <ele>194.2</ele>
        <time>2024-05-04T07:52:31Z</time>
      </trkpt>
      <trkpt lat="50.10195" lon="4.1932">
        <ele>194.2</ele>
        <time>2024-05-04T07:52:32Z</time>
      </trkpt>
      <trkpt lat="50.10204" lon="4.1932">
        <ele>193.8</ele>
        <time>2024-05-04T07:52:33Z</time>
      </trkpt>
      <trkpt lat="50.10212" lon="4.19321">
        <ele>193.2</ele>
        <time>2024-05-04T07:52:34Z</time>
      </trkpt>
      <trkpt lat="50.10221" lon="4.19321">
        <ele>192.6</ele>
        <time>2024-05-04T07:52:35Z</time>
      </trkpt>
      <trkpt lat="50.1023" lon="4.19321">
        <ele>192.2</ele>
        <time>2024-05-04T07:52:36Z</time>
      </trkpt>
      <trkpt lat="50.10238" lon="4.19321">
        <ele>191.4</ele>
        <time>2024-05-04T07:52:37Z</time>
      </trkpt>
      <trkpt lat="50.10247" lon="4.19321">
        <ele>190.8</ele>
        <time>2024-05-04T07:52:38Z</time>
      </trkpt>
      <trkpt lat="50.10256" lon="4.19321">
        <ele>190.6</ele>
        <time>2024-05-04T07:52:39Z</time>
      </trkpt>
      <trkpt lat="50.10264" lon="4.19321">
        <ele>190.2</ele>
        <time>2024-05-04T07:52:40Z</time>
      </trkpt>
      <trkpt lat="50.10273" lon="4.19321">
        <ele>190</ele>
        <time>2024-05-04T07:52:41Z</time>
      </trkpt>
      <trkpt lat="50.10282" lon="4.19321">
        <ele>189.8</ele>
        <time>2024-05-04T07:52:42Z</time>
      </trkpt>
      <trkpt lat="50.10291" lon="4.19321">
        <ele>189.8</ele>
        <time>2024-05-04T07:52:43Z</time>
      </trkpt>
      <trkpt lat="50.103" lon="4.19321">
        <ele>189.8</ele>
        <time>2024-05-04T07:52:44Z</time>
      </trkpt>
      <trkpt lat="50.10309" lon="4.19321">
        <ele>189.6</ele>
        <time>2024-05-04T07:52:45Z</time>
      </trkpt>
      <trkpt lat="50.10318" lon="4.19321">
        <ele>189.4</ele>
        <time>2024-05-04T07:52:46Z</time>
      </trkpt>
      <trkpt lat="50.10328" lon="4.19321">
        <ele>189.2</ele>
        <time>2024-05-04T07:52:47Z</time>
      </trkpt>
      <trkpt lat="50.10337" lon="4.19321">
        <ele>188.8</ele>
        <time>2024-05-04T07:52:48Z</time>
      </trkpt>
      <trkpt lat="50.10347" lon="4.19321">
        <ele>188.4</ele>
        <time>2024-05-04T07:52:49Z</time>
      </trkpt>
      <trkpt lat="50.10356" lon="4.19321">
        <ele>188.4</ele>
        <time>2024-05-04T07:52:50Z</time>
      </trkpt>
      <trkpt lat="50.10366" lon="4.1932">
        <ele>188.2</ele>
        <time>2024-05-04T07:52:51Z</time>
      </trkpt>
      <trkpt lat="50.10376" lon="4.1932">
        <ele>188</ele>
        <time>2024-05-04T07:52:52Z</time>
      </trkpt>
      <trkpt lat="50.10385" lon="4.1932">
        <ele>187.8</ele>
        <time>2024-05-04T07:52:53Z</time>
      </trkpt>
      <trkpt lat="50.10395" lon="4.1932">
        <ele>187.8</ele>
        <time>2024-05-04T07:52:54Z</time>
      </trkpt>
      <trkpt lat="50.10405" lon="4.1932">
        <ele>187.6</ele>
        <time>2024-05-04T07:52:55Z</time>
      </trkpt>
      <trkpt lat="50.10414" lon="4.19321">
        <ele>186.8</ele>
        <time>2024-05-04T07:52:56Z</time>
      </trkpt>
      <trkpt lat="50.10424" lon="4.19322">
        <ele>186.2</ele>
        <time>2024-05-04T07:52:57Z</time>
      </trkpt>
      <trkpt lat="50.10433" lon="4.19323">
        <ele>185.6</ele>
        <time>2024-05-04T07:52:58Z</time>
      </trkpt>
      <trkpt lat="50.10442" lon="4.19325">
        <ele>185.2</ele>
        <time>2024-05-04T07:52:59Z</time>
      </trkpt>
      <trkpt lat="50.1045" lon="4.19327">
        <ele>185</ele>
        <time>2024-05-04T07:53:00Z</time>
      </trkpt>
      <trkpt lat="50.10459" lon="4.19328">
        <ele>185</ele>
        <time>2024-05-04T07:53:01Z</time>
      </trkpt>
      <trkpt lat="50.10468" lon="4.1933">
        <ele>184.8</ele>
        <time>2024-05-04T07:53:02Z</time>
      </trkpt>
      <trkpt lat="50.10476" lon="4.19331">
        <ele>185</ele>
        <time>2024-05-04T07:53:03Z</time>
      </trkpt>
      <trkpt lat="50.10484" lon="4.19332">
        <ele>184.8</ele>
        <time>2024-05-04T07:53:04Z</time>
      </trkpt>
      <trkpt lat="50.10492" lon="4.19333">
        <ele>185</ele>
        <time>2024-05-04T07:53:05Z</time>
      </trkpt>
      <trkpt lat="50.105" lon="4.19334">
        <ele>184.8</ele>
        <time>2024-05-04T07:53:06Z</time>
      </trkpt>
      <trkpt lat="50.10507" lon="4.19334">
        <ele>185</ele>
        <time>2024-05-04T07:53:07Z</time>
      </trkpt>
      <trkpt lat="50.10514" lon="4.19335">
        <ele>184.8</ele>
        <time>2024-05-04T07:53:08Z</time>
      </trkpt>
      <trkpt lat="50.10521" lon="4.19337">
        <ele>184.8</ele>
        <time>2024-05-04T07:53:09Z</time>
      </trkpt>
      <trkpt lat="50.10528" lon="4.19338">
        <ele>185</ele>
        <time>2024-05-04T07:53:10Z</time>
      </trkpt>
      <trkpt lat="50.10534" lon="4.19339">
        <ele>184.8</ele>
        <time>2024-05-04T07:53:11Z</time>
      </trkpt>
      <trkpt lat="50.10541" lon="4.19341">
        <ele>185.4</ele>
        <time>2024-05-04T07:53:12Z</time>
      </trkpt>
      <trkpt lat="50.10548" lon="4.19342">
        <ele>185.6</ele>
        <time>2024-05-04T07:53:13Z</time>
      </trkpt>
      <trkpt lat="50.10555" lon="4.19344">
        <ele>186</ele>
        <time>2024-05-04T07:53:14Z</time>
      </trkpt>
      <trkpt lat="50.10562" lon="4.19345">
        <ele>186.4</ele>
        <time>2024-05-04T07:53:15Z</time>
      </trkpt>
      <trkpt lat="50.1057" lon="4.19347">
        <ele>186.4</ele>
        <time>2024-05-04T07:53:16Z</time>
      </trkpt>
      <trkpt lat="50.10578" lon="4.19348">
        <ele>186.6</ele>
        <time>2024-05-04T07:53:17Z</time>
      </trkpt>
      <trkpt lat="50.10587" lon="4.19348">
        <ele>186.6</ele>
        <time>2024-05-04T07:53:18Z</time>
      </trkpt>
      <trkpt lat="50.10595" lon="4.19347">
        <ele>186.6</ele>
        <time>2024-05-04T07:53:19Z</time>
      </trkpt>
      <trkpt lat="50.10604" lon="4.19347">
        <ele>186.8</ele>
        <time>2024-05-04T07:53:20Z</time>
      </trkpt>
      <trkpt lat="50.10612" lon="4.19346">
        <ele>186.6</ele>
        <time>2024-05-04T07:53:21Z</time>
      </trkpt>
      <trkpt lat="50.10621" lon="4.19345">
        <ele>186.6</ele>
        <time>2024-05-04T07:53:22Z</time>
      </trkpt>
      <trkpt lat="50.10629" lon="4.19343">
        <ele>186.8</ele>
        <time>2024-05-04T07:53:23Z</time>
      </trkpt>
      <trkpt lat="50.10638" lon="4.19342">
        <ele>186.6</ele>
        <time>2024-05-04T07:53:24Z</time>
      </trkpt>
      <trkpt lat="50.10646" lon="4.1934">
        <ele>186.6</ele>
        <time>2024-05-04T07:53:25Z</time>
      </trkpt>
      <trkpt lat="50.10654" lon="4.19336">
        <ele>186.2</ele>
        <time>2024-05-04T07:53:26Z</time>
      </trkpt>
      <trkpt lat="50.10661" lon="4.19331">
        <ele>185.8</ele>
        <time>2024-05-04T07:53:27Z</time>
      </trkpt>
      <trkpt lat="50.10668" lon="4.19324">
        <ele>185.6</ele>
        <time>2024-05-04T07:53:28Z</time>
      </trkpt>
      <trkpt lat="50.10674" lon="4.19316">
        <ele>185.2</ele>
        <time>2024-05-04T07:53:29Z</time>
      </trkpt>
      <trkpt lat="50.1068" lon="4.19308">
        <ele>185.2</ele>
        <time>2024-05-04T07:53:30Z</time>
      </trkpt>
      <trkpt lat="50.10685" lon="4.19299">
        <ele>185</ele>
        <time>2024-05-04T07:53:31Z</time>
      </trkpt>
      <trkpt lat="50.1069" lon="4.1929">
        <ele>185</ele>
        <time>2024-05-04T07:53:32Z</time>
      </trkpt>
      <trkpt lat="50.10695" lon="4.19281">
        <ele>184.8</ele>
        <time>2024-05-04T07:53:33Z</time>
      </trkpt>
      <trkpt lat="50.107" lon="4.19272">
        <ele>184.8</ele>
        <time>2024-05-04T07:53:34Z</time>
      </trkpt>
      <trkpt lat="50.10705" lon="4.19264">
        <ele>185</ele>
        <time>2024-05-04T07:53:35Z</time>
      </trkpt>
      <trkpt lat="50.1071" lon="4.19256">
        <ele>185</ele>
        <time>2024-05-04T07:53:36Z</time>
      </trkpt>
      <trkpt lat="50.10715" lon="4.19248">
        <ele>184.8</ele>
        <time>2024-05-04T07:53:37Z</time>
      </trkpt>
      <trkpt lat="50.1072" lon="4.19241">
        <ele>185</ele>
        <time>2024-05-04T07:53:38Z</time>
      </trkpt>
      <trkpt lat="50.10725" lon="4.19234">
        <ele>184.8</ele>
        <time>2024-05-04T07:53:39Z</time>
      </trkpt>
      <trkpt lat="50.10731" lon="4.19227">
        <ele>185.2</ele>
        <time>2024-05-04T07:53:40Z</time>
      </trkpt>
      <trkpt lat="50.10736" lon="4.19221">
        <ele>185.6</ele>
        <time>2024-05-04T07:53:41Z</time>
      </trkpt>
      <trkpt lat="50.1074" lon="4.19214">
        <ele>186.2</ele>
        <time>2024-05-04T07:53:42Z</time>
      </trkpt>
      <trkpt lat="50.10744" lon="4.19207">
        <ele>186.6</ele>
        <time>2024-05-04T07:53:43Z</time>
      </trkpt>
      <trkpt lat="50.10748" lon="4.19201">
        <ele>187</ele>
        <time>2024-05-04T07:53:44Z</time>
      </trkpt>
      <trkpt lat="50.10752" lon="4.19196">
        <ele>187</ele>
        <time>2024-05-04T07:53:45Z</time>
      </trkpt>
      <trkpt lat="50.10756" lon="4.1919">
        <ele>187.6</ele>
        <time>2024-05-04T07:53:46Z</time>
      </trkpt>
      <trkpt lat="50.1076" lon="4.19183">
        <ele>188</ele>
        <time>2024-05-04T07:53:47Z</time>
      </trkpt>
      <trkpt lat="50.10764" lon="4.19177">
        <ele>188.4</ele>
        <time>2024-05-04T07:53:48Z</time>
      </trkpt>
      <trkpt lat="50.10767" lon="4.1917">
        <ele>188.6</ele>
        <time>2024-05-04T07:53:49Z</time>
      </trkpt>
      <trkpt lat="50.10771" lon="4.19164">
        <ele>188.8</ele>
        <time>2024-05-04T07:53:50Z</time>
      </trkpt>
      <trkpt lat="50.10774" lon="4.19156">
        <ele>188.8</ele>
        <time>2024-05-04T07:53:51Z</time>
      </trkpt>
      <trkpt lat="50.10778" lon="4.19148">
        <ele>189.2</ele>
        <time>2024-05-04T07:53:52Z</time>
      </trkpt>
      <trkpt lat="50.10781" lon="4.19139">
        <ele>189.2</ele>
        <time>2024-05-04T07:53:53Z</time>
      </trkpt>
      <trkpt lat="50.10785" lon="4.19129">
        <ele>189.2</ele>
        <time>2024-05-04T07:53:54Z</time>
      </trkpt>
      <trkpt lat="50.10788" lon="4.19119">
        <ele>189.2</ele>
        <time>2024-05-04T07:53:55Z</time>
      </trkpt>
      <trkpt lat="50.10792" lon="4.19109">
        <ele>189.2</ele>
        <time>2024-05-04T07:53:56Z</time>
      </trkpt>
      <trkpt lat="50.10796" lon="4.19098">
        <ele>189.2</ele>
        <time>2024-05-04T07:53:57Z</time>
      </trkpt>
      <trkpt lat="50.10799" lon="4.19086">
        <ele>189.2</ele>
        <time>2024-05-04T07:53:58Z</time>
      </trkpt>
      <trkpt lat="50.10803" lon="4.19074">
        <ele>189.2</ele>
        <time>2024-05-04T07:53:59Z</time>
      </trkpt>
      <trkpt lat="50.10806" lon="4.1906">
        <ele>189.2</ele>
        <time>2024-05-04T07:54:00Z</time>
      </trkpt>
      <trkpt lat="50.10809" lon="4.19047">
        <ele>189.2</ele>
        <time>2024-05-04T07:54:01Z</time>
      </trkpt>
      <trkpt lat="50.10812" lon="4.19033">
        <ele>189.2</ele>
        <time>2024-05-04T07:54:02Z</time>
      </trkpt>
      <trkpt lat="50.10814" lon="4.19019">
        <ele>188.8</ele>
        <time>2024-05-04T07:54:03Z</time>
      </trkpt>
      <trkpt lat="50.10816" lon="4.19005">
        <ele>188</ele>
        <time>2024-05-04T07:54:04Z</time>
      </trkpt>
      <trkpt lat="50.10818" lon="4.1899">
        <ele>187.4</ele>
        <time>2024-05-04T07:54:05Z</time>
      </trkpt>
      <trkpt lat="50.1082" lon="4.18975">
        <ele>187</ele>
        <time>2024-05-04T07:54:06Z</time>
      </trkpt>
      <trkpt lat="50.10821" lon="4.1896">
        <ele>186.8</ele>
        <time>2024-05-04T07:54:07Z</time>
      </trkpt>
      <trkpt lat="50.10822" lon="4.18946">
        <ele>185.8</ele>
        <time>2024-05-04T07:54:08Z</time>
      </trkpt>
      <trkpt lat="50.10824" lon="4.18931">
        <ele>185.2</ele>
        <time>2024-05-04T07:54:09Z</time>
      </trkpt>
      <trkpt lat="50.10825" lon="4.18916">
        <ele>185</ele>
        <time>2024-05-04T07:54:10Z</time>
      </trkpt>
      <trkpt lat="50.10828" lon="4.18902">
        <ele>184.8</ele>
        <time>2024-05-04T07:54:11Z</time>
      </trkpt>
      <trkpt lat="50.1083" lon="4.18888">
        <ele>184.6</ele>
        <time>2024-05-04T07:54:12Z</time>
      </trkpt>
      <trkpt lat="50.10834" lon="4.18875">
        <ele>184.6</ele>
        <time>2024-05-04T07:54:13Z</time>
      </trkpt>
      <trkpt lat="50.10838" lon="4.18863">
        <ele>184.4</ele>
        <time>2024-05-04T07:54:14Z</time>
      </trkpt>
      <trkpt lat="50.10842" lon="4.18852">
        <ele>184.2</ele>
        <time>2024-05-04T07:54:15Z</time>
      </trkpt>
      <trkpt lat="50.10847" lon="4.18841">
        <ele>184</ele>
        <time>2024-05-04T07:54:16Z</time>
      </trkpt>
      <trkpt lat="50.10851" lon="4.1883">
        <ele>184.2</ele>
        <time>2024-05-04T07:54:17Z</time>
      </trkpt>
      <trkpt lat="50.10855" lon="4.18819">
        <ele>184</ele>
        <time>2024-05-04T07:54:18Z</time>
      </trkpt>
      <trkpt lat="50.1086" lon="4.18809">
        <ele>184</ele>
        <time>2024-05-04T07:54:19Z</time>
      </trkpt>
      <trkpt lat="50.10864" lon="4.18799">
        <ele>184</ele>
        <time>2024-05-04T07:54:20Z</time>
      </trkpt>
      <trkpt lat="50.10868" lon="4.1879">
        <ele>184</ele>
        <time>2024-05-04T07:54:21Z</time>
      </trkpt>
      <trkpt lat="50.10872" lon="4.1878">
        <ele>184.2</ele>
        <time>2024-05-04T07:54:22Z</time>
      </trkpt>
      <trkpt lat="50.10876" lon="4.18771">
        <ele>184</ele>
        <time>2024-05-04T07:54:23Z</time>
      </trkpt>
      <trkpt lat="50.1088" lon="4.18763">
        <ele>184</ele>
        <time>2024-05-04T07:54:24Z</time>
      </trkpt>
      <trkpt lat="50.10884" lon="4.18754">
        <ele>184</ele>
        <time>2024-05-04T07:54:25Z</time>
      </trkpt>
      <trkpt lat="50.10888" lon="4.18746">
        <ele>184</ele>
        <time>2024-05-04T07:54:26Z</time>
      </trkpt>
      <trkpt lat="50.10892" lon="4.18738">
        <ele>184.4</ele>
        <time>2024-05-04T07:54:27Z</time>
      </trkpt>
      <trkpt lat="50.10896" lon="4.1873">
        <ele>184.4</ele>
        <time>2024-05-04T07:54:28Z</time>
      </trkpt>
      <trkpt lat="50.10899" lon="4.18722">
        <ele>184.6</ele>
        <time>2024-05-04T07:54:29Z</time>
      </trkpt>
      <trkpt lat="50.10903" lon="4.18715">
        <ele>184.8</ele>
        <time>2024-05-04T07:54:30Z</time>
      </trkpt>
      <trkpt lat="50.10906" lon="4.18707">
        <ele>184.8</ele>
        <time>2024-05-04T07:54:31Z</time>
      </trkpt>
      <trkpt lat="50.1091" lon="4.187">
        <ele>184.8</ele>
        <time>2024-05-04T07:54:32Z</time>
      </trkpt>
      <trkpt lat="50.10913" lon="4.18692">
        <ele>185</ele>
        <time>2024-05-04T07:54:33Z</time>
      </trkpt>
      <trkpt lat="50.10917" lon="4.18685">
        <ele>185.2</ele>
        <time>2024-05-04T07:54:34Z</time>
      </trkpt>
      <trkpt lat="50.1092" lon="4.18678">
        <ele>185.4</ele>
        <time>2024-05-04T07:54:35Z</time>
      </trkpt>
      <trkpt lat="50.10923" lon="4.18671">
        <ele>185.6</ele>
        <time>2024-05-04T07:54:36Z</time>
      </trkpt>
      <trkpt lat="50.10926" lon="4.18664">
        <ele>185.6</ele>
        <time>2024-05-04T07:54:37Z</time>
      </trkpt>
      <trkpt lat="50.1093" lon="4.18657">
        <ele>185.8</ele>
        <time>2024-05-04T07:54:38Z</time>
      </trkpt>
      <trkpt lat="50.10933" lon="4.1865">
        <ele>185.8</ele>
        <time>2024-05-04T07:54:39Z</time>
      </trkpt>
      <trkpt lat="50.10936" lon="4.18643">
        <ele>186</ele>
        <time>2024-05-04T07:54:40Z</time>
      </trkpt>
      <trkpt lat="50.10939" lon="4.18637">
        <ele>186</ele>
        <time>2024-05-04T07:54:41Z</time>
      </trkpt>
      <trkpt lat="50.10942" lon="4.1863">
        <ele>186.2</ele>
        <time>2024-05-04T07:54:42Z</time>
      </trkpt>
      <trkpt lat="50.10945" lon="4.18623">
        <ele>186.4</ele>
        <time>2024-05-04T07:54:43Z</time>
      </trkpt>
      <trkpt lat="50.10948" lon="4.18617">
        <ele>186.8</ele>
        <time>2024-05-04T07:54:44Z</time>
      </trkpt>
      <trkpt lat="50.10951" lon="4.18611">
        <ele>187</ele>
        <time>2024-05-04T07:54:45Z</time>
      </trkpt>
      <trkpt lat="50.10955" lon="4.18606">
        <ele>187.4</ele>
        <time>2024-05-04T07:54:46Z</time>
      </trkpt>
      <trkpt lat="50.10958" lon="4.186">
        <ele>187.6</ele>
        <time>2024-05-04T07:54:47Z</time>
      </trkpt>
      <trkpt lat="50.10962" lon="4.18594">
        <ele>187.6</ele>
        <time>2024-05-04T07:54:48Z</time>
      </trkpt>
      <trkpt lat="50.10965" lon="4.18589">
        <ele>188</ele>
        <time>2024-05-04T07:54:49Z</time>
      </trkpt>
      <trkpt lat="50.10968" lon="4.18584">
        <ele>188.6</ele>
        <time>2024-05-04T07:54:50Z</time>
      </trkpt>
      <trkpt lat="50.10972" lon="4.18578">
        <ele>189.4</ele>
        <time>2024-05-04T07:54:51Z</time>
      </trkpt>
      <trkpt lat="50.10975" lon="4.18573">
        <ele>190.2</ele>
        <time>2024-05-04T07:54:52Z</time>
      </trkpt>
      <trkpt lat="50.10979" lon="4.18568">
        <ele>190.4</ele>
        <time>2024-05-04T07:54:53Z</time>
      </trkpt>
      <trkpt lat="50.10982" lon="4.18563">
        <ele>190.8</ele>
        <time>2024-05-04T07:54:54Z</time>
      </trkpt>
      <trkpt lat="50.10986" lon="4.18558">
        <ele>191</ele>
        <time>2024-05-04T07:54:55Z</time>
      </trkpt>
      <trkpt lat="50.10989" lon="4.18553">
        <ele>191.2</ele>
        <time>2024-05-04T07:54:56Z</time>
      </trkpt>
      <trkpt lat="50.10993" lon="4.18547">
        <ele>191.4</ele>
        <time>2024-05-04T07:54:57Z</time>
      </trkpt>
      <trkpt lat="50.10997" lon="4.18542">
        <ele>191.4</ele>
        <time>2024-05-04T07:54:58Z</time>
      </trkpt>
      <trkpt lat="50.11" lon="4.18537">
        <ele>191.6</ele>
        <time>2024-05-04T07:54:59Z</time>
      </trkpt>
      <trkpt lat="50.11004" lon="4.18532">
        <ele>191.8</ele>
        <time>2024-05-04T07:55:00Z</time>
      </trkpt>
      <trkpt lat="50.11008" lon="4.18526">
        <ele>192</ele>
        <time>2024-05-04T07:55:01Z</time>
      </trkpt>
      <trkpt lat="50.11012" lon="4.18521">
        <ele>192.2</ele>
        <time>2024-05-04T07:55:02Z</time>
      </trkpt>
      <trkpt lat="50.11015" lon="4.18515">
        <ele>192.2</ele>
        <time>2024-05-04T07:55:03Z</time>
      </trkpt>
      <trkpt lat="50.11019" lon="4.1851">
        <ele>192.4</ele>
        <time>2024-05-04T07:55:04Z</time>
      </trkpt>
      <trkpt lat="50.11022" lon="4.18504">
        <ele>192.4</ele>
        <time>2024-05-04T07:55:05Z</time>
      </trkpt>
      <trkpt lat="50.11025" lon="4.18499">
        <ele>192.4</ele>
        <time>2024-05-04T07:55:06Z</time>
      </trkpt>
      <trkpt lat="50.11029" lon="4.18493">
        <ele>192.8</ele>
        <time>2024-05-04T07:55:07Z</time>
      </trkpt>
      <trkpt lat="50.11032" lon="4.18488">
        <ele>193</ele>
        <time>2024-05-04T07:55:08Z</time>
      </trkpt>
      <trkpt lat="50.11035" lon="4.18482">
        <ele>193.2</ele>
        <time>2024-05-04T07:55:09Z</time>
      </trkpt>
      <trkpt lat="50.11038" lon="4.18477">
        <ele>193.4</ele>
        <time>2024-05-04T07:55:10Z</time>
      </trkpt>
      <trkpt lat="50.11042" lon="4.18471">
        <ele>193.4</ele>
        <time>2024-05-04T07:55:11Z</time>
      </trkpt>
      <trkpt lat="50.11045" lon="4.18466">
        <ele>193.6</ele>
        <time>2024-05-04T07:55:12Z</time>
      </trkpt>
      <trkpt lat="50.11048" lon="4.1846">
        <ele>193.8</ele>
        <time>2024-05-04T07:55:13Z</time>
      </trkpt>
      <trkpt lat="50.11051" lon="4.18454">
        <ele>194</ele>
        <time>2024-05-04T07:55:14Z</time>
      </trkpt>
      <trkpt lat="50.11054" lon="4.18449">
        <ele>194.2</ele>
        <time>2024-05-04T07:55:15Z</time>
      </trkpt>
      <trkpt lat="50.11057" lon="4.18443">
        <ele>194.2</ele>
        <time>2024-05-04T07:55:16Z</time>
      </trkpt>
      <trkpt lat="50.1106" lon="4.18437">
        <ele>194.4</ele>
        <time>2024-05-04T07:55:17Z</time>
      </trkpt>
      <trkpt lat="50.11063" lon="4.18431">
        <ele>194.6</ele>
        <time>2024-05-04T07:55:18Z</time>
      </trkpt>
      <trkpt lat="50.11066" lon="4.18424">
        <ele>194.6</ele>
        <time>2024-05-04T07:55:19Z</time>
      </trkpt>
      <trkpt lat="50.11069" lon="4.18418">
        <ele>194.8</ele>
        <time>2024-05-04T07:55:20Z</time>
      </trkpt>
      <trkpt lat="50.11074" lon="4.18412">
        <ele>194.8</ele>
        <time>2024-05-04T07:55:21Z</time>
      </trkpt>
      <trkpt lat="50.11078" lon="4.18406">
        <ele>194.6</ele>
        <time>2024-05-04T07:55:22Z</time>
      </trkpt>
      <trkpt lat="50.11082" lon="4.184">
        <ele>194.6</ele>
        <time>2024-05-04T07:55:23Z</time>
      </trkpt>
      <trkpt lat="50.11087" lon="4.18395">
        <ele>194.6</ele>
        <time>2024-05-04T07:55:24Z</time>
      </trkpt>
      <trkpt lat="50.11092" lon="4.18389">
        <ele>194.6</ele>
        <time>2024-05-04T07:55:25Z</time>
      </trkpt>
      <trkpt lat="50.11098" lon="4.18385">
        <ele>194.6</ele>
        <time>2024-05-04T07:55:26Z</time>
      </trkpt>
      <trkpt lat="50.11104" lon="4.1838">
        <ele>194.6</ele>
        <time>2024-05-04T07:55:27Z</time>
      </trkpt>
      <trkpt lat="50.1111" lon="4.18376">
        <ele>194.4</ele>
        <time>2024-05-04T07:55:28Z</time>
      </trkpt>
      <trkpt lat="50.11117" lon="4.18372">
        <ele>194.4</ele>
        <time>2024-05-04T07:55:29Z</time>
      </trkpt>
      <trkpt lat="50.11123" lon="4.18368">
        <ele>194</ele>
        <time>2024-05-04T07:55:30Z</time>
      </trkpt>
      <trkpt lat="50.11131" lon="4.18364">
        <ele>194</ele>
        <time>2024-05-04T07:55:31Z</time>
      </trkpt>
      <trkpt lat="50.11138" lon="4.1836">
        <ele>193.8</ele>
        <time>2024-05-04T07:55:32Z</time>
      </trkpt>
      <trkpt lat="50.11146" lon="4.18356">
        <ele>193.4</ele>
        <time>2024-05-04T07:55:33Z</time>
      </trkpt>
      <trkpt lat="50.11154" lon="4.18353">
        <ele>193</ele>
        <time>2024-05-04T07:55:34Z</time>
      </trkpt>
      <trkpt lat="50.11163" lon="4.1835">
        <ele>192.6</ele>
        <time>2024-05-04T07:55:35Z</time>
      </trkpt>
      <trkpt lat="50.11172" lon="4.18348">
        <ele>192.2</ele>
        <time>2024-05-04T07:55:36Z</time>
      </trkpt>
      <trkpt lat="50.11182" lon="4.18345">
        <ele>192.2</ele>
        <time>2024-05-04T07:55:37Z</time>
      </trkpt>
      <trkpt lat="50.11192" lon="4.18343">
        <ele>192</ele>
        <time>2024-05-04T07:55:38Z</time>
      </trkpt>
      <trkpt lat="50.11202" lon="4.18341">
        <ele>191.6</ele>
        <time>2024-05-04T07:55:39Z</time>
      </trkpt>
      <trkpt lat="50.11212" lon="4.18338">
        <ele>191</ele>
        <time>2024-05-04T07:55:40Z</time>
      </trkpt>
      <trkpt lat="50.11222" lon="4.18335">
        <ele>190.8</ele>
        <time>2024-05-04T07:55:41Z</time>
      </trkpt>
      <trkpt lat="50.11232" lon="4.18331">
        <ele>190.4</ele>
        <time>2024-05-04T07:55:42Z</time>
      </trkpt>
      <trkpt lat="50.11242" lon="4.18328">
        <ele>190.2</ele>
        <time>2024-05-04T07:55:43Z</time>
      </trkpt>
      <trkpt lat="50.11251" lon="4.18324">
        <ele>189.6</ele>
        <time>2024-05-04T07:55:44Z</time>
      </trkpt>
      <trkpt lat="50.11261" lon="4.1832">
        <ele>188.2</ele>
        <time>2024-05-04T07:55:45Z</time>
      </trkpt>
      <trkpt lat="50.11269" lon="4.18316">
        <ele>187.2</ele>
        <time>2024-05-04T07:55:46Z</time>
      </trkpt>
      <trkpt lat="50.11278" lon="4.18312">
        <ele>186.8</ele>
        <time>2024-05-04T07:55:47Z</time>
      </trkpt>
      <trkpt lat="50.11286" lon="4.18308">
        <ele>186.4</ele>
        <time>2024-05-04T07:55:48Z</time>
      </trkpt>
      <trkpt lat="50.11293" lon="4.18303">
        <ele>186.4</ele>
        <time>2024-05-04T07:55:49Z</time>
      </trkpt>
      <trkpt lat="50.113" lon="4.18298">
        <ele>186.2</ele>
        <time>2024-05-04T07:55:50Z</time>
      </trkpt>
      <trkpt lat="50.11307" lon="4.18293">
        <ele>186</ele>
        <time>2024-05-04T07:55:51Z</time>
      </trkpt>
      <trkpt lat="50.11314" lon="4.18287">
        <ele>186.2</ele>
        <time>2024-05-04T07:55:52Z</time>
      </trkpt>
      <trkpt lat="50.1132" lon="4.18282">
        <ele>186.2</ele>
        <time>2024-05-04T07:55:53Z</time>
      </trkpt>
      <trkpt lat="50.11326" lon="4.18276">
        <ele>186</ele>
        <time>2024-05-04T07:55:54Z</time>
      </trkpt>
      <trkpt lat="50.11332" lon="4.18269">
        <ele>186</ele>
        <time>2024-05-04T07:55:55Z</time>
      </trkpt>
      <trkpt lat="50.11339" lon="4.18263">
        <ele>185.8</ele>
        <time>2024-05-04T07:55:56Z</time>
      </trkpt>
      <trkpt lat="50.11345" lon="4.18256">
        <ele>185.4</ele>
        <time>2024-05-04T07:55:57Z</time>
      </trkpt>
      <trkpt lat="50.11352" lon="4.1825">
        <ele>185.2</ele>
        <time>2024-05-04T07:55:58Z</time>
      </trkpt>
      <trkpt lat="50.11359" lon="4.18244">
        <ele>185.4</ele>
        <time>2024-05-04T07:55:59Z</time>
      </trkpt>
      <trkpt lat="50.11366" lon="4.18237">
        <ele>185.4</ele>
        <time>2024-05-04T07:56:00Z</time>
      </trkpt>
      <trkpt lat="50.11373" lon="4.1823">
        <ele>185.4</ele>
        <time>2024-05-04T07:56:01Z</time>
      </trkpt>
      <trkpt lat="50.11381" lon="4.18224">
        <ele>185.4</ele>
        <time>2024-05-04T07:56:02Z</time>
      </trkpt>
      <trkpt lat="50.11389" lon="4.18217">
        <ele>185.4</ele>
        <time>2024-05-04T07:56:03Z</time>
      </trkpt>
      <trkpt lat="50.11396" lon="4.18211">
        <ele>185.4</ele>
        <time>2024-05-04T07:56:04Z</time>
      </trkpt>
      <trkpt lat="50.11404" lon="4.18205">
        <ele>185.4</ele>
        <time>2024-05-04T07:56:05Z</time>
      </trkpt>
      <trkpt lat="50.11412" lon="4.18199">
        <ele>185.4</ele>
        <time>2024-05-04T07:56:06Z</time>
      </trkpt>
      <trkpt lat="50.11419" lon="4.18193">
        <ele>185.4</ele>
        <time>2024-05-04T07:56:07Z</time>
      </trkpt>
      <trkpt lat="50.11426" lon="4.18188">
        <ele>185.4</ele>
        <time>2024-05-04T07:56:08Z</time>
      </trkpt>
      <trkpt lat="50.11433" lon="4.18182">
        <ele>185.2</ele>
        <time>2024-05-04T07:56:09Z</time>
      </trkpt>
      <trkpt lat="50.11439" lon="4.18178">
        <ele>185.2</ele>
        <time>2024-05-04T07:56:10Z</time>
      </trkpt>
      <trkpt lat="50.11445" lon="4.18173">
        <ele>185.2</ele>
        <time>2024-05-04T07:56:11Z</time>
      </trkpt>
      <trkpt lat="50.1145" lon="4.18169">
        <ele>185.4</ele>
        <time>2024-05-04T07:56:12Z</time>
      </trkpt>
      <trkpt lat="50.11455" lon="4.18165">
        <ele>185.2</ele>
        <time>2024-05-04T07:56:13Z</time>
      </trkpt>
      <trkpt lat="50.1146" lon="4.18162">
        <ele>185.2</ele>
        <time>2024-05-04T07:56:14Z</time>
      </trkpt>
      <trkpt lat="50.11464" lon="4.18158">
        <ele>185.2</ele>
        <time>2024-05-04T07:56:15Z</time>
      </trkpt>
      <trkpt lat="50.11468" lon="4.18154">
        <ele>185.2</ele>
        <time>2024-05-04T07:56:16Z</time>
      </trkpt>
      <trkpt lat="50.11472" lon="4.1815">
        <ele>185.2</ele>
        <time>2024-05-04T07:56:17Z</time>
      </trkpt>
      <trkpt lat="50.11475" lon="4.18146">
        <ele>185.4</ele>
        <time>2024-05-04T07:56:18Z</time>
      </trkpt>
      <trkpt lat="50.11478" lon="4.18143">
        <ele>185.4</ele>
        <time>2024-05-04T07:56:19Z</time>
      </trkpt>
      <trkpt lat="50.11482" lon="4.18139">
        <ele>185.4</ele>
        <time>2024-05-04T07:56:20Z</time>
      </trkpt>
      <trkpt lat="50.11485" lon="4.18136">
        <ele>185.6</ele>
        <time>2024-05-04T07:56:21Z</time>
      </trkpt>
      <trkpt lat="50.11487" lon="4.18132">
        <ele>186.2</ele>
        <time>2024-05-04T07:56:22Z</time>
      </trkpt>
      <trkpt lat="50.1149" lon="4.18128">
        <ele>186.4</ele>
        <time>2024-05-04T07:56:23Z</time>
      </trkpt>
      <trkpt lat="50.11493" lon="4.18125">
        <ele>186.6</ele>
        <time>2024-05-04T07:56:24Z</time>
      </trkpt>
      <trkpt lat="50.11495" lon="4.18121">
        <ele>187.2</ele>
        <time>2024-05-04T07:56:25Z</time>
      </trkpt>
      <trkpt lat="50.11497" lon="4.18117">
        <ele>187.2</ele>
        <time>2024-05-04T07:56:26Z</time>
      </trkpt>
      <trkpt lat="50.115" lon="4.18113">
        <ele>188.2</ele>
        <time>2024-05-04T07:56:27Z</time>
      </trkpt>
      <trkpt lat="50.11503" lon="4.18109">
        <ele>189</ele>
        <time>2024-05-04T07:56:28Z</time>
      </trkpt>
      <trkpt lat="50.11505" lon="4.18106">
        <ele>189.8</ele>
        <time>2024-05-04T07:56:29Z</time>
      </trkpt>
      <trkpt lat="50.11508" lon="4.18102">
        <ele>190.2</ele>
        <time>2024-05-04T07:56:30Z</time>
      </trkpt>
      <trkpt lat="50.1151" lon="4.18099">
        <ele>191</ele>
        <time>2024-05-04T07:56:31Z</time>
      </trkpt>
      <trkpt lat="50.11513" lon="4.18096">
        <ele>191.4</ele>
        <time>2024-05-04T07:56:32Z</time>
      </trkpt>
      <trkpt lat="50.11516" lon="4.18093">
        <ele>191.6</ele>
        <time>2024-05-04T07:56:33Z</time>
      </trkpt>
      <trkpt lat="50.1152" lon="4.18091">
        <ele>192</ele>
        <time>2024-05-04T07:56:34Z</time>
      </trkpt>
      <trkpt lat="50.11523" lon="4.18088">
        <ele>192.4</ele>
        <time>2024-05-04T07:56:35Z</time>
      </trkpt>
      <trkpt lat="50.11526" lon="4.18085">
        <ele>192.8</ele>
        <time>2024-05-04T07:56:36Z</time>
      </trkpt>
      <trkpt lat="50.11529" lon="4.18083">
        <ele>193.4</ele>
        <time>2024-05-04T07:56:37Z</time>
      </trkpt>
      <trkpt lat="50.11532" lon="4.1808">
        <ele>193.6</ele>
        <time>2024-05-04T07:56:38Z</time>
      </trkpt>
      <trkpt lat="50.11535" lon="4.18077">
        <ele>193.8</ele>
        <time>2024-05-04T07:56:39Z</time>
      </trkpt>
      <trkpt lat="50.11538" lon="4.18074">
        <ele>194.2</ele>
        <time>2024-05-04T07:56:40Z</time>
      </trkpt>
      <trkpt lat="50.11541" lon="4.18071">
        <ele>194.4</ele>
        <time>2024-05-04T07:56:41Z</time>
      </trkpt>
      <trkpt lat="50.11544" lon="4.18067">
        <ele>194.8</ele>
        <time>2024-05-04T07:56:42Z</time>
      </trkpt>
      <trkpt lat="50.11547" lon="4.18063">
        <ele>195.2</ele>
        <time>2024-05-04T07:56:43Z</time>
      </trkpt>
      <trkpt lat="50.1155" lon="4.18059">
        <ele>195.2</ele>
        <time>2024-05-04T07:56:44Z</time>
      </trkpt>
      <trkpt lat="50.11553" lon="4.18055">
        <ele>195.4</ele>
        <time>2024-05-04T07:56:45Z</time>
      </trkpt>
      <trkpt lat="50.11556" lon="4.1805">
        <ele>195.6</ele>
        <time>2024-05-04T07:56:46Z</time>
      </trkpt>
      <trkpt lat="50.11558" lon="4.18046">
        <ele>195.8</ele>
        <time>2024-05-04T07:56:47Z</time>
      </trkpt>
      <trkpt lat="50.11561" lon="4.18041">
        <ele>196</ele>
        <time>2024-05-04T07:56:48Z</time>
      </trkpt>
      <trkpt lat="50.11565" lon="4.18036">
        <ele>196</ele>
        <time>2024-05-04T07:56:49Z</time>
      </trkpt>
      <trkpt lat="50.11568" lon="4.18031">
        <ele>195.8</ele>
        <time>2024-05-04T07:56:50Z</time>
      </trkpt>
      <trkpt lat="50.11572" lon="4.18025">
        <ele>196</ele>
        <time>2024-05-04T07:56:51Z</time>
      </trkpt>
      <trkpt lat="50.11576" lon="4.18019">
        <ele>196</ele>
        <time>2024-05-04T07:56:52Z</time>
      </trkpt>
      <trkpt lat="50.1158" lon="4.18012">
        <ele>196</ele>
        <time>2024-05-04T07:56:53Z</time>
      </trkpt>
      <trkpt lat="50.11585" lon="4.18005">
        <ele>196</ele>
        <time>2024-05-04T07:56:54Z</time>
      </trkpt>
      <trkpt lat="50.11591" lon="4.17997">
        <ele>196</ele>
        <time>2024-05-04T07:56:55Z</time>
      </trkpt>
      <trkpt lat="50.11597" lon="4.1799">
        <ele>196</ele>
        <time>2024-05-04T07:56:56Z</time>
      </trkpt>
      <trkpt lat="50.11603" lon="4.17982">
        <ele>196</ele>
        <time>2024-05-04T07:56:57Z</time>
      </trkpt>
      <trkpt lat="50.1161" lon="4.17974">
        <ele>195.8</ele>
        <time>2024-05-04T07:56:58Z</time>
      </trkpt>
      <trkpt lat="50.11617" lon="4.17967">
        <ele>195.6</ele>
        <time>2024-05-04T07:56:59Z</time>
      </trkpt>
      <trkpt lat="50.11625" lon="4.17959">
        <ele>195.8</ele>
        <time>2024-05-04T07:57:00Z</time>
      </trkpt>
      <trkpt lat="50.11633" lon="4.1795">
        <ele>195.6</ele>
        <time>2024-05-04T07:57:01Z</time>
      </trkpt>
      <trkpt lat="50.11641" lon="4.17942">
        <ele>195.4</ele>
        <time>2024-05-04T07:57:02Z</time>
      </trkpt>
      <trkpt lat="50.1165" lon="4.17933">
        <ele>195.4</ele>
        <time>2024-05-04T07:57:03Z</time>
      </trkpt>
      <trkpt lat="50.1166" lon="4.17925">
        <ele>195.4</ele>
        <time>2024-05-04T07:57:04Z</time>
      </trkpt>
      <trkpt lat="50.1167" lon="4.17916">
        <ele>194.4</ele>
        <time>2024-05-04T07:57:05Z</time>
      </trkpt>
      <trkpt lat="50.1168" lon="4.17908">
        <ele>193.4</ele>
        <time>2024-05-04T07:57:06Z</time>
      </trkpt>
      <trkpt lat="50.11691" lon="4.179">
        <ele>192.6</ele>
        <time>2024-05-04T07:57:07Z</time>
      </trkpt>
      <trkpt lat="50.11703" lon="4.17893">
        <ele>191.8</ele>
        <time>2024-05-04T07:57:08Z</time>
      </trkpt>
      <trkpt lat="50.11715" lon="4.17887">
        <ele>190.8</ele>
        <time>2024-05-04T07:57:09Z</time>
      </trkpt>
      <trkpt lat="50.11727" lon="4.17882">
        <ele>190</ele>
        <time>2024-05-04T07:57:10Z</time>
      </trkpt>
      <trkpt lat="50.11738" lon="4.17877">
        <ele>189</ele>
        <time>2024-05-04T07:57:11Z</time>
      </trkpt>
      <trkpt lat="50.1175" lon="4.17873">
        <ele>188</ele>
        <time>2024-05-04T07:57:12Z</time>
      </trkpt>
      <trkpt lat="50.11761" lon="4.17868">
        <ele>186.4</ele>
        <time>2024-05-04T07:57:13Z</time>
      </trkpt>
      <trkpt lat="50.11772" lon="4.17862">
        <ele>184.6</ele>
        <time>2024-05-04T07:57:14Z</time>
      </trkpt>
      <trkpt lat="50.11781" lon="4.17855">
        <ele>183.6</ele>
        <time>2024-05-04T07:57:15Z</time>
      </trkpt>
      <trkpt lat="50.1179" lon="4.17847">
        <ele>182.4</ele>
        <time>2024-05-04T07:57:16Z</time>
      </trkpt>
      <trkpt lat="50.11797" lon="4.17837">
        <ele>182.2</ele>
        <time>2024-05-04T07:57:17Z</time>
      </trkpt>
      <trkpt lat="50.11805" lon="4.17829">
        <ele>181.6</ele>
        <time>2024-05-04T07:57:18Z</time>
      </trkpt>
      <trkpt lat="50.11813" lon="4.1782">
        <ele>181</ele>
        <time>2024-05-04T07:57:19Z</time>
      </trkpt>
      <trkpt lat="50.1182" lon="4.17812">
        <ele>180.8</ele>
        <time>2024-05-04T07:57:20Z</time>
      </trkpt>
      <trkpt lat="50.11828" lon="4.17805">
        <ele>180.8</ele>
        <time>2024-05-04T07:57:21Z</time>
      </trkpt>
      <trkpt lat="50.11836" lon="4.17798">
        <ele>180.6</ele>
        <time>2024-05-04T07:57:22Z</time>
      </trkpt>
      <trkpt lat="50.11844" lon="4.17792">
        <ele>180.2</ele>
        <time>2024-05-04T07:57:23Z</time>
      </trkpt>
      <trkpt lat="50.11853" lon="4.17788">
        <ele>180.2</ele>
        <time>2024-05-04T07:57:24Z</time>
      </trkpt>
      <trkpt lat="50.11862" lon="4.17786">
        <ele>180.2</ele>
        <time>2024-05-04T07:57:25Z</time>
      </trkpt>
      <trkpt lat="50.11871" lon="4.17785">
        <ele>180.2</ele>
        <time>2024-05-04T07:57:26Z</time>
      </trkpt>
      <trkpt lat="50.1188" lon="4.17785">
        <ele>180.2</ele>
        <time>2024-05-04T07:57:27Z</time>
      </trkpt>
      <trkpt lat="50.11889" lon="4.17786">
        <ele>180.2</ele>
        <time>2024-05-04T07:57:28Z</time>
      </trkpt>
      <trkpt lat="50.11897" lon="4.17786">
        <ele>180.4</ele>
        <time>2024-05-04T07:57:29Z</time>
      </trkpt>
      <trkpt lat="50.11906" lon="4.17787">
        <ele>180.4</ele>
        <time>2024-05-04T07:57:30Z</time>
      </trkpt>
      <trkpt lat="50.11914" lon="4.17788">
        <ele>180.4</ele>
        <time>2024-05-04T07:57:31Z</time>
      </trkpt>
      <trkpt lat="50.11922" lon="4.17788">
        <ele>180.6</ele>
        <time>2024-05-04T07:57:32Z</time>
      </trkpt>
      <trkpt lat="50.1193" lon="4.17788">
        <ele>180.6</ele>
        <time>2024-05-04T07:57:33Z</time>
      </trkpt>
      <trkpt lat="50.11937" lon="4.17787">
        <ele>180.8</ele>
        <time>2024-05-04T07:57:34Z</time>
      </trkpt>
      <trkpt lat="50.11944" lon="4.17787">
        <ele>180.8</ele>
        <time>2024-05-04T07:57:35Z</time>
      </trkpt>
      <trkpt lat="50.1195" lon="4.17785">
        <ele>180.8</ele>
        <time>2024-05-04T07:57:36Z</time>
      </trkpt>
      <trkpt lat="50.11956" lon="4.17783">
        <ele>180.8</ele>
        <time>2024-05-04T07:57:37Z</time>
      </trkpt>
      <trkpt lat="50.11961" lon="4.1778">
        <ele>181</ele>
        <time>2024-05-04T07:57:38Z</time>
      </trkpt>
      <trkpt lat="50.11966" lon="4.17775">
        <ele>181.4</ele>
        <time>2024-05-04T07:57:39Z</time>
      </trkpt>
      <trkpt lat="50.11971" lon="4.1777">
        <ele>181.6</ele>
        <time>2024-05-04T07:57:40Z</time>
      </trkpt>
      <trkpt lat="50.11974" lon="4.17764">
        <ele>181.8</ele>
        <time>2024-05-04T07:57:41Z</time>
      </trkpt>
      <trkpt lat="50.11978" lon="4.17758">
        <ele>182.2</ele>
        <time>2024-05-04T07:57:42Z</time>
      </trkpt>
      <trkpt lat="50.1198" lon="4.17751">
        <ele>182.6</ele>
        <time>2024-05-04T07:57:43Z</time>
      </trkpt>
      <trkpt lat="50.11982" lon="4.17745">
        <ele>182.8</ele>
        <time>2024-05-04T07:57:44Z</time>
      </trkpt>
      <trkpt lat="50.11984" lon="4.17738">
        <ele>183.4</ele>
        <time>2024-05-04T07:57:45Z</time>
      </trkpt>
      <trkpt lat="50.11986" lon="4.17731">
        <ele>184</ele>
        <time>2024-05-04T07:57:46Z</time>
      </trkpt>
      <trkpt lat="50.11987" lon="4.17724">
        <ele>184.4</ele>
        <time>2024-05-04T07:57:47Z</time>
      </trkpt>
      <trkpt lat="50.11988" lon="4.17717">
        <ele>185</ele>
        <time>2024-05-04T07:57:48Z</time>
      </trkpt>
      <trkpt lat="50.11989" lon="4.1771">
        <ele>185.6</ele>
        <time>2024-05-04T07:57:49Z</time>
      </trkpt>
      <trkpt lat="50.1199" lon="4.17704">
        <ele>186</ele>
        <time>2024-05-04T07:57:50Z</time>
      </trkpt>
      <trkpt lat="50.11991" lon="4.17697">
        <ele>186.4</ele>
        <time>2024-05-04T07:57:51Z</time>
      </trkpt>
      <trkpt lat="50.11992" lon="4.1769">
        <ele>186.8</ele>
        <time>2024-05-04T07:57:52Z</time>
      </trkpt>
      <trkpt lat="50.11993" lon="4.17682">
        <ele>187</ele>
        <time>2024-05-04T07:57:53Z</time>
      </trkpt>
      <trkpt lat="50.11994" lon="4.17675">
        <ele>187.4</ele>
        <time>2024-05-04T07:57:54Z</time>
      </trkpt>
      <trkpt lat="50.11995" lon="4.17668">
        <ele>187.4</ele>
        <time>2024-05-04T07:57:55Z</time>
      </trkpt>
      <trkpt lat="50.11996" lon="4.17661">
        <ele>187.6</ele>
        <time>2024-05-04T07:57:56Z</time>
      </trkpt>
      <trkpt lat="50.11996" lon="4.17654">
        <ele>188</ele>
        <time>2024-05-04T07:57:57Z</time>
      </trkpt>
      <trkpt lat="50.11997" lon="4.17646">
        <ele>188.4</ele>
        <time>2024-05-04T07:57:58Z</time>
      </trkpt>
      <trkpt lat="50.11998" lon="4.17639">
        <ele>188.8</ele>
        <time>2024-05-04T07:57:59Z</time>
      </trkpt>
      <trkpt lat="50.12" lon="4.17631">
        <ele>189.2</ele>
        <time>2024-05-04T07:58:00Z</time>
      </trkpt>
      <trkpt lat="50.12001" lon="4.17623">
        <ele>189.2</ele>
        <time>2024-05-04T07:58:01Z</time>
      </trkpt>
      <trkpt lat="50.12002" lon="4.17616">
        <ele>189.4</ele>
        <time>2024-05-04T07:58:02Z</time>
      </trkpt>
      <trkpt lat="50.12004" lon="4.17607">
        <ele>189.8</ele>
        <time>2024-05-04T07:58:03Z</time>
      </trkpt>
      <trkpt lat="50.12006" lon="4.17599">
        <ele>189.8</ele>
        <time>2024-05-04T07:58:04Z</time>
      </trkpt>
      <trkpt lat="50.12007" lon="4.1759">
        <ele>190</ele>
        <time>2024-05-04T07:58:05Z</time>
      </trkpt>
      <trkpt lat="50.12009" lon="4.17582">
        <ele>190</ele>
        <time>2024-05-04T07:58:06Z</time>
      </trkpt>
      <trkpt lat="50.12011" lon="4.17573">
        <ele>189.8</ele>
        <time>2024-05-04T07:58:07Z</time>
      </trkpt>
      <trkpt lat="50.12013" lon="4.17564">
        <ele>190</ele>
        <time>2024-05-04T07:58:08Z</time>
      </trkpt>
      <trkpt lat="50.12015" lon="4.17555">
        <ele>190</ele>
        <time>2024-05-04T07:58:09Z</time>
      </trkpt>
      <trkpt lat="50.12016" lon="4.17546">
        <ele>190</ele>
        <time>2024-05-04T07:58:10Z</time>
      </trkpt>
      <trkpt lat="50.12018" lon="4.17536">
        <ele>190</ele>
        <time>2024-05-04T07:58:11Z</time>
      </trkpt>
      <trkpt lat="50.1202" lon="4.17527">
        <ele>190</ele>
        <time>2024-05-04T07:58:12Z</time>
      </trkpt>
      <trkpt lat="50.12023" lon="4.17517">
        <ele>190</ele>
        <time>2024-05-04T07:58:13Z</time>
      </trkpt>
      <trkpt lat="50.12025" lon="4.17508">
        <ele>190</ele>
        <time>2024-05-04T07:58:14Z</time>
      </trkpt>
      <trkpt lat="50.12027" lon="4.17498">
        <ele>190</ele>
        <time>2024-05-04T07:58:15Z</time>
      </trkpt>
      <trkpt lat="50.12029" lon="4.17488">
        <ele>190</ele>
        <time>2024-05-04T07:58:16Z</time>
      </trkpt>
      <trkpt lat="50.12032" lon="4.17478">
        <ele>189.8</ele>
        <time>2024-05-04T07:58:17Z</time>
      </trkpt>
      <trkpt lat="50.12034" lon="4.17468">
        <ele>189.8</ele>
        <time>2024-05-04T07:58:18Z</time>
      </trkpt>
      <trkpt lat="50.12037" lon="4.17458">
        <ele>189.8</ele>
        <time>2024-05-04T07:58:19Z</time>
      </trkpt>
      <trkpt lat="50.12039" lon="4.17448">
        <ele>189.6</ele>
        <time>2024-05-04T07:58:20Z</time>
      </trkpt>
      <trkpt lat="50.12042" lon="4.17437">
        <ele>189.4</ele>
        <time>2024-05-04T07:58:21Z</time>
      </trkpt>
      <trkpt lat="50.12045" lon="4.17427">
        <ele>189.4</ele>
        <time>2024-05-04T07:58:22Z</time>
      </trkpt>
      <trkpt lat="50.12047" lon="4.17416">
        <ele>189.2</ele>
        <time>2024-05-04T07:58:23Z</time>
      </trkpt>
      <trkpt lat="50.12049" lon="4.17406">
        <ele>189.2</ele>
        <time>2024-05-04T07:58:24Z</time>
      </trkpt>
      <trkpt lat="50.12051" lon="4.17395">
        <ele>189</ele>
        <time>2024-05-04T07:58:25Z</time>
      </trkpt>
      <trkpt lat="50.12053" lon="4.17384">
        <ele>189</ele>
        <time>2024-05-04T07:58:26Z</time>
      </trkpt>
      <trkpt lat="50.12055" lon="4.17373">
        <ele>188.8</ele>
        <time>2024-05-04T07:58:27Z</time>
      </trkpt>
      <trkpt lat="50.12057" lon="4.17362">
        <ele>188.8</ele>
        <time>2024-05-04T07:58:28Z</time>
      </trkpt>
      <trkpt lat="50.12059" lon="4.17352">
        <ele>188.8</ele>
        <time>2024-05-04T07:58:29Z</time>
      </trkpt>
      <trkpt lat="50.1206" lon="4.17341">
        <ele>188.8</ele>
        <time>2024-05-04T07:58:30Z</time>
      </trkpt>
      <trkpt lat="50.12062" lon="4.17331">
        <ele>188.4</ele>
        <time>2024-05-04T07:58:31Z</time>
      </trkpt>
      <trkpt lat="50.12064" lon="4.1732">
        <ele>188.2</ele>
        <time>2024-05-04T07:58:32Z</time>
      </trkpt>
      <trkpt lat="50.12065" lon="4.1731">
        <ele>188</ele>
        <time>2024-05-04T07:58:33Z</time>
      </trkpt>
      <trkpt lat="50.12067" lon="4.173">
        <ele>188</ele>
        <time>2024-05-04T07:58:34Z</time>
      </trkpt>
      <trkpt lat="50.12069" lon="4.1729">
        <ele>188.2</ele>
        <time>2024-05-04T07:58:35Z</time>
      </trkpt>
      <trkpt lat="50.1207" lon="4.1728">
        <ele>188</ele>
        <time>2024-05-04T07:58:36Z</time>
      </trkpt>
      <trkpt lat="50.12072" lon="4.1727">
        <ele>188</ele>
        <time>2024-05-04T07:58:37Z</time>
      </trkpt>
      <trkpt lat="50.12074" lon="4.17259">
        <ele>188</ele>
        <time>2024-05-04T07:58:38Z</time>
      </trkpt>
      <trkpt lat="50.12075" lon="4.17249">
        <ele>188.2</ele>
        <time>2024-05-04T07:58:39Z</time>
      </trkpt>
      <trkpt lat="50.12076" lon="4.17238">
        <ele>188</ele>
        <time>2024-05-04T07:58:40Z</time>
      </trkpt>
      <trkpt lat="50.12078" lon="4.17227">
        <ele>188</ele>
        <time>2024-05-04T07:58:41Z</time>
      </trkpt>
      <trkpt lat="50.12079" lon="4.17216">
        <ele>188</ele>
        <time>2024-05-04T07:58:42Z</time>
      </trkpt>
      <trkpt lat="50.12081" lon="4.17204">
        <ele>188</ele>
        <time>2024-05-04T07:58:43Z</time>
      </trkpt>
      <trkpt lat="50.12082" lon="4.17193">
        <ele>188.2</ele>
        <time>2024-05-04T07:58:44Z</time>
      </trkpt>
      <trkpt lat="50.12083" lon="4.17181">
        <ele>188</ele>
        <time>2024-05-04T07:58:45Z</time>
      </trkpt>
      <trkpt lat="50.12084" lon="4.17169">
        <ele>188.2</ele>
        <time>2024-05-04T07:58:46Z</time>
      </trkpt>
      <trkpt lat="50.12085" lon="4.17158">
        <ele>188</ele>
        <time>2024-05-04T07:58:47Z</time>
      </trkpt>
      <trkpt lat="50.12086" lon="4.17146">
        <ele>188</ele>
        <time>2024-05-04T07:58:48Z</time>
      </trkpt>
      <trkpt lat="50.12087" lon="4.17134">
        <ele>188</ele>
        <time>2024-05-04T07:58:49Z</time>
      </trkpt>
      <trkpt lat="50.12088" lon="4.17122">
        <ele>188.2</ele>
        <time>2024-05-04T07:58:50Z</time>
      </trkpt>
      <trkpt lat="50.12089" lon="4.17111">
        <ele>188</ele>
        <time>2024-05-04T07:58:51Z</time>
      </trkpt>
      <trkpt lat="50.12091" lon="4.171">
        <ele>187.8</ele>
        <time>2024-05-04T07:58:52Z</time>
      </trkpt>
      <trkpt lat="50.12092" lon="4.17089">
        <ele>187.4</ele>
        <time>2024-05-04T07:58:53Z</time>
      </trkpt>
      <trkpt lat="50.12094" lon="4.17078">
        <ele>187.2</ele>
        <time>2024-05-04T07:58:54Z</time>
      </trkpt>
      <trkpt lat="50.12097" lon="4.17068">
        <ele>187.2</ele>
        <time>2024-05-04T07:58:55Z</time>
      </trkpt>
      <trkpt lat="50.12099" lon="4.17058">
        <ele>187.2</ele>
        <time>2024-05-04T07:58:56Z</time>
      </trkpt>
      <trkpt lat="50.12101" lon="4.17048">
        <ele>187.4</ele>
        <time>2024-05-04T07:58:57Z</time>
      </trkpt>
      <trkpt lat="50.12104" lon="4.17038">
        <ele>187.4</ele>
        <time>2024-05-04T07:58:58Z</time>
      </trkpt>
      <trkpt lat="50.12106" lon="4.17028">
        <ele>187.4</ele>
        <time>2024-05-04T07:58:59Z</time>
      </trkpt>
      <trkpt lat="50.12108" lon="4.17017">
        <ele>187.2</ele>
        <time>2024-05-04T07:59:00Z</time>
      </trkpt>
      <trkpt lat="50.1211" lon="4.17007">
        <ele>187.2</ele>
        <time>2024-05-04T07:59:01Z</time>
      </trkpt>
      <trkpt lat="50.12112" lon="4.16996">
        <ele>187.2</ele>
        <time>2024-05-04T07:59:02Z</time>
      </trkpt>
      <trkpt lat="50.12113" lon="4.16986">
        <ele>187.2</ele>
        <time>2024-05-04T07:59:03Z</time>
      </trkpt>
      <trkpt lat="50.12115" lon="4.16975">
        <ele>187.4</ele>
        <time>2024-05-04T07:59:04Z</time>
      </trkpt>
      <trkpt lat="50.12116" lon="4.16963">
        <ele>187.2</ele>
        <time>2024-05-04T07:59:05Z</time>
      </trkpt>
      <trkpt lat="50.12118" lon="4.16952">
        <ele>187.2</ele>
        <time>2024-05-04T07:59:06Z</time>
      </trkpt>
      <trkpt lat="50.12119" lon="4.16941">
        <ele>187.4</ele>
        <time>2024-05-04T07:59:07Z</time>
      </trkpt>
      <trkpt lat="50.12121" lon="4.16929">
        <ele>187.4</ele>
        <time>2024-05-04T07:59:08Z</time>
      </trkpt>
      <trkpt lat="50.12122" lon="4.16917">
        <ele>187.4</ele>
        <time>2024-05-04T07:59:09Z</time>
      </trkpt>
      <trkpt lat="50.12124" lon="4.16905">
        <ele>187.4</ele>
        <time>2024-05-04T07:59:10Z</time>
      </trkpt>
      <trkpt lat="50.12125" lon="4.16893">
        <ele>187.2</ele>
        <time>2024-05-04T07:59:11Z</time>
      </trkpt>
      <trkpt lat="50.12127" lon="4.16881">
        <ele>187.4</ele>
        <time>2024-05-04T07:59:12Z</time>
      </trkpt>
      <trkpt lat="50.12129" lon="4.16868">
        <ele>187.2</ele>
        <time>2024-05-04T07:59:13Z</time>
      </trkpt>
      <trkpt lat="50.12131" lon="4.16856">
        <ele>187</ele>
        <time>2024-05-04T07:59:14Z</time>
      </trkpt>
      <trkpt lat="50.12133" lon="4.16843">
        <ele>186.8</ele>
        <time>2024-05-04T07:59:15Z</time>
      </trkpt>
      <trkpt lat="50.12136" lon="4.1683">
        <ele>186.6</ele>
        <time>2024-05-04T07:59:16Z</time>
      </trkpt>
      <trkpt lat="50.12139" lon="4.16817">
        <ele>186.4</ele>
        <time>2024-05-04T07:59:17Z</time>
      </trkpt>
      <trkpt lat="50.12143" lon="4.16803">
        <ele>186.2</ele>
        <time>2024-05-04T07:59:18Z</time>
      </trkpt>
      <trkpt lat="50.12147" lon="4.1679">
        <ele>186</ele>
        <time>2024-05-04T07:59:19Z</time>
      </trkpt>
      <trkpt lat="50.12152" lon="4.16777">
        <ele>185.6</ele>
        <time>2024-05-04T07:59:20Z</time>
      </trkpt>
      <trkpt lat="50.12156" lon="4.16764">
        <ele>185.4</ele>
        <time>2024-05-04T07:59:21Z</time>
      </trkpt>
      <trkpt lat="50.12161" lon="4.16752">
        <ele>185.4</ele>
        <time>2024-05-04T07:59:22Z</time>
      </trkpt>
      <trkpt lat="50.12166" lon="4.1674">
        <ele>185.4</ele>
        <time>2024-05-04T07:59:23Z</time>
      </trkpt>
      <trkpt lat="50.12171" lon="4.16728">
        <ele>185.4</ele>
        <time>2024-05-04T07:59:24Z</time>
      </trkpt>
      <trkpt lat="50.12176" lon="4.16716">
        <ele>184.6</ele>
        <time>2024-05-04T07:59:25Z</time>
      </trkpt>
      <trkpt lat="50.12181" lon="4.16704">
        <ele>183.8</ele>
        <time>2024-05-04T07:59:26Z</time>
      </trkpt>
      <trkpt lat="50.12185" lon="4.16694">
        <ele>183.4</ele>
        <time>2024-05-04T07:59:27Z</time>
      </trkpt>
      <trkpt lat="50.1219" lon="4.16683">
        <ele>183.2</ele>
        <time>2024-05-04T07:59:28Z</time>
      </trkpt>
      <trkpt lat="50.12194" lon="4.16674">
        <ele>183</ele>
        <time>2024-05-04T07:59:29Z</time>
      </trkpt>
      <trkpt lat="50.12199" lon="4.16665">
        <ele>182.6</ele>
        <time>2024-05-04T07:59:30Z</time>
      </trkpt>
      <trkpt lat="50.12204" lon="4.16656">
        <ele>182.4</ele>
        <time>2024-05-04T07:59:31Z</time>
      </trkpt>
      <trkpt lat="50.12208" lon="4.16648">
        <ele>182.4</ele>
        <time>2024-05-04T07:59:32Z</time>
      </trkpt>
      <trkpt lat="50.12213" lon="4.1664">
        <ele>182.6</ele>
        <time>2024-05-04T07:59:33Z</time>
      </trkpt>
      <trkpt lat="50.12217" lon="4.16633">
        <ele>182.6</ele>
        <time>2024-05-04T07:59:34Z</time>
      </trkpt>
      <trkpt lat="50.12221" lon="4.16626">
        <ele>182.4</ele>
        <time>2024-05-04T07:59:35Z</time>
      </trkpt>
      <trkpt lat="50.12224" lon="4.16619">
        <ele>182.6</ele>
        <time>2024-05-04T07:59:36Z</time>
      </trkpt>
      <trkpt lat="50.12228" lon="4.16613">
        <ele>182.4</ele>
        <time>2024-05-04T07:59:37Z</time>
      </trkpt>
      <trkpt lat="50.12232" lon="4.16607">
        <ele>182.4</ele>
        <time>2024-05-04T07:59:38Z</time>
      </trkpt>
      <trkpt lat="50.12235" lon="4.16601">
        <ele>183</ele>
        <time>2024-05-04T07:59:39Z</time>
      </trkpt>
      <trkpt lat="50.12238" lon="4.16595">
        <ele>183</ele>
        <time>2024-05-04T07:59:40Z</time>
      </trkpt>
      <trkpt lat="50.12241" lon="4.16589">
        <ele>183.4</ele>
        <time>2024-05-04T07:59:41Z</time>
      </trkpt>
      <trkpt lat="50.12243" lon="4.16583">
        <ele>184.2</ele>
        <time>2024-05-04T07:59:42Z</time>
      </trkpt>
      <trkpt lat="50.12245" lon="4.16577">
        <ele>184.6</ele>
        <time>2024-05-04T07:59:43Z</time>
      </trkpt>
      <trkpt lat="50.12247" lon="4.1657">
        <ele>185</ele>
        <time>2024-05-04T07:59:44Z</time>
      </trkpt>
      <trkpt lat="50.12249" lon="4.16564">
        <ele>185.8</ele>
        <time>2024-05-04T07:59:45Z</time>
      </trkpt>
      <trkpt lat="50.12251" lon="4.16557">
        <ele>186.2</ele>
        <time>2024-05-04T07:59:46Z</time>
      </trkpt>
      <trkpt lat="50.12252" lon="4.1655">
        <ele>186.6</ele>
        <time>2024-05-04T07:59:47Z</time>
      </trkpt>
      <trkpt lat="50.12254" lon="4.16542">
        <ele>186.8</ele>
        <time>2024-05-04T07:59:48Z</time>
      </trkpt>
      <trkpt lat="50.12255" lon="4.16535">
        <ele>187</ele>
        <time>2024-05-04T07:59:49Z</time>
      </trkpt>
      <trkpt lat="50.12256" lon="4.16528">
        <ele>187.6</ele>
        <time>2024-05-04T07:59:50Z</time>
      </trkpt>
      <trkpt lat="50.12257" lon="4.1652">
        <ele>188.2</ele>
        <time>2024-05-04T07:59:51Z</time>
      </trkpt>
      <trkpt lat="50.12258" lon="4.16513">
        <ele>188.6</ele>
        <time>2024-05-04T07:59:52Z</time>
      </trkpt>
      <trkpt lat="50.12258" lon="4.16505">
        <ele>189</ele>
        <time>2024-05-04T07:59:53Z</time>
      </trkpt>
      <trkpt lat="50.1226" lon="4.16497">
        <ele>189.2</ele>
        <time>2024-05-04T07:59:54Z</time>
      </trkpt>
      <trkpt lat="50.12261" lon="4.16489">
        <ele>189.6</ele>
        <time>2024-05-04T07:59:55Z</time>
      </trkpt>
      <trkpt lat="50.12262" lon="4.16482">
        <ele>189.6</ele>
        <time>2024-05-04T07:59:56Z</time>
      </trkpt>
      <trkpt lat="50.12264" lon="4.16474">
        <ele>189.8</ele>
        <time>2024-05-04T07:59:57Z</time>
      </trkpt>
      <trkpt lat="50.12266" lon="4.16467">
        <ele>190</ele>
        <time>2024-05-04T07:59:58Z</time>
      </trkpt>
      <trkpt lat="50.12269" lon="4.16459">
        <ele>190.2</ele>
        <time>2024-05-04T07:59:59Z</time>
      </trkpt>
      <trkpt lat="50.12271" lon="4.16452">
        <ele>190.2</ele>
        <time>2024-05-04T08:00:00Z</time>
      </trkpt>
      <trkpt lat="50.12274" lon="4.16444">
        <ele>190.2</ele>
        <time>2024-05-04T08:00:01Z</time>
      </trkpt>
      <trkpt lat="50.12277" lon="4.16437">
        <ele>190.2</ele>
        <time>2024-05-04T08:00:02Z</time>
      </trkpt>
      <trkpt lat="50.12281" lon="4.1643">
        <ele>190.4</ele>
        <time>2024-05-04T08:00:03Z</time>
      </trkpt>
      <trkpt lat="50.12284" lon="4.16423">
        <ele>190.4</ele>
        <time>2024-05-04T08:00:04Z</time>
      </trkpt>
      <trkpt lat="50.12287" lon="4.16416">
        <ele>190.6</ele>
        <time>2024-05-04T08:00:05Z</time>
      </trkpt>
      <trkpt lat="50.1229" lon="4.16409">
        <ele>190.6</ele>
        <time>2024-05-04T08:00:06Z</time>
      </trkpt>
      <trkpt lat="50.12293" lon="4.16402">
        <ele>190.8</ele>
        <time>2024-05-04T08:00:07Z</time>
      </trkpt>
      <trkpt lat="50.12296" lon="4.16395">
        <ele>190.6</ele>
        <time>2024-05-04T08:00:08Z</time>
      </trkpt>
      <trkpt lat="50.12299" lon="4.16388">
        <ele>190.8</ele>
        <time>2024-05-04T08:00:09Z</time>
      </trkpt>
      <trkpt lat="50.12302" lon="4.16381">
        <ele>190.8</ele>
        <time>2024-05-04T08:00:10Z</time>
      </trkpt>
      <trkpt lat="50.12305" lon="4.16375">
        <ele>190.8</ele>
        <time>2024-05-04T08:00:11Z</time>
      </trkpt>
      <trkpt lat="50.12307" lon="4.16368">
        <ele>191</ele>
        <time>2024-05-04T08:00:12Z</time>
      </trkpt>
      <trkpt lat="50.1231" lon="4.16361">
        <ele>191</ele>
        <time>2024-05-04T08:00:13Z</time>
      </trkpt>
      <trkpt lat="50.12312" lon="4.16354">
        <ele>191</ele>
        <time>2024-05-04T08:00:14Z</time>
      </trkpt>
      <trkpt lat="50.12315" lon="4.16347">
        <ele>191</ele>
        <time>2024-05-04T08:00:15Z</time>
      </trkpt>
      <trkpt lat="50.12317" lon="4.1634">
        <ele>191</ele>
        <time>2024-05-04T08:00:16Z</time>
      </trkpt>
      <trkpt lat="50.12318" lon="4.16333">
        <ele>191.2</ele>
        <time>2024-05-04T08:00:17Z</time>
      </trkpt>
      <trkpt lat="50.1232" lon="4.16326">
        <ele>191.4</ele>
        <time>2024-05-04T08:00:18Z</time>
      </trkpt>
      <trkpt lat="50.12321" lon="4.16319">
        <ele>191.6</ele>
        <time>2024-05-04T08:00:19Z</time>
      </trkpt>
      <trkpt lat="50.12322" lon="4.16311">
        <ele>192</ele>
        <time>2024-05-04T08:00:20Z</time>
      </trkpt>
      <trkpt lat="50.12322" lon="4.16304">
        <ele>192.2</ele>
        <time>2024-05-04T08:00:21Z</time>
      </trkpt>
      <trkpt lat="50.12323" lon="4.16296">
        <ele>192.6</ele>
        <time>2024-05-04T08:00:22Z</time>
      </trkpt>
      <trkpt lat="50.12323" lon="4.16289">
        <ele>193.2</ele>
        <time>2024-05-04T08:00:23Z</time>
      </trkpt>
      <trkpt lat="50.12323" lon="4.16282">
        <ele>193.4</ele>
        <time>2024-05-04T08:00:24Z</time>
      </trkpt>
      <trkpt lat="50.12323" lon="4.16275">
        <ele>193.8</ele>
        <time>2024-05-04T08:00:25Z</time>
      </trkpt>
      <trkpt lat="50.12322" lon="4.16268">
        <ele>194.2</ele>
        <time>2024-05-04T08:00:26Z</time>
      </trkpt>
      <trkpt lat="50.12321" lon="4.16261">
        <ele>194.4</ele>
        <time>2024-05-04T08:00:27Z</time>
      </trkpt>
      <trkpt lat="50.1232" lon="4.16255">
        <ele>194.8</ele>
        <time>2024-05-04T08:00:28Z</time>
      </trkpt>
      <trkpt lat="50.12319" lon="4.16248">
        <ele>195</ele>
        <time>2024-05-04T08:00:29Z</time>
      </trkpt>
      <trkpt lat="50.12318" lon="4.16242">
        <ele>195</ele>
        <time>2024-05-04T08:00:30Z</time>
      </trkpt>
      <trkpt lat="50.12316" lon="4.16235">
        <ele>195</ele>
        <time>2024-05-04T08:00:31Z</time>
      </trkpt>
      <trkpt lat="50.12314" lon="4.16229">
        <ele>195.2</ele>
        <time>2024-05-04T08:00:32Z</time>
      </trkpt>
      <trkpt lat="50.12312" lon="4.16223">
        <ele>195.4</ele>
        <time>2024-05-04T08:00:33Z</time>
      </trkpt>
      <trkpt lat="50.1231" lon="4.16218">
        <ele>195.8</ele>
        <time>2024-05-04T08:00:34Z</time>
      </trkpt>
      <trkpt lat="50.12308" lon="4.16212">
        <ele>196</ele>
        <time>2024-05-04T08:00:35Z</time>
      </trkpt>
      <trkpt lat="50.12306" lon="4.16207">
        <ele>196.2</ele>
        <time>2024-05-04T08:00:36Z</time>
      </trkpt>
      <trkpt lat="50.12303" lon="4.16201">
        <ele>196.4</ele>
        <time>2024-05-04T08:00:37Z</time>
      </trkpt>
      <trkpt lat="50.12301" lon="4.16196">
        <ele>196.6</ele>
        <time>2024-05-04T08:00:38Z</time>
      </trkpt>
      <trkpt lat="50.12298" lon="4.16191">
        <ele>196.8</ele>
        <time>2024-05-04T08:00:39Z</time>
      </trkpt>
      <trkpt lat="50.12295" lon="4.16186">
        <ele>197.2</ele>
        <time>2024-05-04T08:00:40Z</time>
      </trkpt>
      <trkpt lat="50.12292" lon="4.16181">
        <ele>197.4</ele>
        <time>2024-05-04T08:00:41Z</time>
      </trkpt>
      <trkpt lat="50.12289" lon="4.16177">
        <ele>197.4</ele>
        <time>2024-05-04T08:00:42Z</time>
      </trkpt>
      <trkpt lat="50.12286" lon="4.16172">
        <ele>197.6</ele>
        <time>2024-05-04T08:00:43Z</time>
      </trkpt>
      <trkpt lat="50.12283" lon="4.16167">
        <ele>197.8</ele>
        <time>2024-05-04T08:00:44Z</time>
      </trkpt>
      <trkpt lat="50.1228" lon="4.16162">
        <ele>198</ele>
        <time>2024-05-04T08:00:45Z</time>
      </trkpt>
      <trkpt lat="50.12277" lon="4.16158">
        <ele>198</ele>
        <time>2024-05-04T08:00:46Z</time>
      </trkpt>
      <trkpt lat="50.12274" lon="4.16153">
        <ele>198</ele>
        <time>2024-05-04T08:00:47Z</time>
      </trkpt>
      <trkpt lat="50.12271" lon="4.16148">
        <ele>198</ele>
        <time>2024-05-04T08:00:48Z</time>
      </trkpt>
      <trkpt lat="50.12268" lon="4.16143">
        <ele>198</ele>
        <time>2024-05-04T08:00:49Z</time>
      </trkpt>
      <trkpt lat="50.12264" lon="4.16138">
        <ele>198.2</ele>
        <time>2024-05-04T08:00:50Z</time>
      </trkpt>
      <trkpt lat="50.12261" lon="4.16133">
        <ele>198.2</ele>
        <time>2024-05-04T08:00:51Z</time>
      </trkpt>
      <trkpt lat="50.12258" lon="4.16128">
        <ele>198.4</ele>
        <time>2024-05-04T08:00:52Z</time>
      </trkpt>
      <trkpt lat="50.12255" lon="4.16123">
        <ele>198.6</ele>
        <time>2024-05-04T08:00:53Z</time>
      </trkpt>
      <trkpt lat="50.12252" lon="4.16118">
        <ele>198.8</ele>
        <time>2024-05-04T08:00:54Z</time>
      </trkpt>
      <trkpt lat="50.12248" lon="4.16112">
        <ele>198.8</ele>
        <time>2024-05-04T08:00:55Z</time>
      </trkpt>
      <trkpt lat="50.12245" lon="4.16107">
        <ele>199.2</ele>
        <time>2024-05-04T08:00:56Z</time>
      </trkpt>
      <trkpt lat="50.12242" lon="4.16102">
        <ele>199.2</ele>
        <time>2024-05-04T08:00:57Z</time>
      </trkpt>
      <trkpt lat="50.12238" lon="4.16097">
        <ele>199.4</ele>
        <time>2024-05-04T08:00:58Z</time>
      </trkpt>
      <trkpt lat="50.12235" lon="4.16091">
        <ele>199.4</ele>
        <time>2024-05-04T08:00:59Z</time>
      </trkpt>
      <trkpt lat="50.12232" lon="4.16086">
        <ele>199.8</ele>
        <time>2024-05-04T08:01:00Z</time>
      </trkpt>
      <trkpt lat="50.12228" lon="4.16081">
        <ele>200.2</ele>
        <time>2024-05-04T08:01:01Z</time>
      </trkpt>
      <trkpt lat="50.12225" lon="4.16075">
        <ele>200.6</ele>
        <time>2024-05-04T08:01:02Z</time>
      </trkpt>
      <trkpt lat="50.12222" lon="4.1607">
        <ele>200.8</ele>
        <time>2024-05-04T08:01:03Z</time>
      </trkpt>
      <trkpt lat="50.12218" lon="4.16064">
        <ele>201</ele>
        <time>2024-05-04T08:01:04Z</time>
      </trkpt>
      <trkpt lat="50.12215" lon="4.16059">
        <ele>201</ele>
        <time>2024-05-04T08:01:05Z</time>
      </trkpt>
      <trkpt lat="50.12212" lon="4.16054">
        <ele>201</ele>
        <time>2024-05-04T08:01:06Z</time>
      </trkpt>
      <trkpt lat="50.12208" lon="4.16048">
        <ele>201.2</ele>
        <time>2024-05-04T08:01:07Z</time>
      </trkpt>
      <trkpt lat="50.12205" lon="4.16043">
        <ele>201.4</ele>
        <time>2024-05-04T08:01:08Z</time>
      </trkpt>
      <trkpt lat="50.12201" lon="4.16037">
        <ele>201.4</ele>
        <time>2024-05-04T08:01:09Z</time>
      </trkpt>
      <trkpt lat="50.12198" lon="4.16032">
        <ele>201.4</ele>
        <time>2024-05-04T08:01:10Z</time>
      </trkpt>
      <trkpt lat="50.12195" lon="4.16027">
        <ele>201.4</ele>
        <time>2024-05-04T08:01:11Z</time>
      </trkpt>
      <trkpt lat="50.12191" lon="4.16021">
        <ele>201.4</ele>
        <time>2024-05-04T08:01:12Z</time>
      </trkpt>
      <trkpt lat="50.12188" lon="4.16016">
        <ele>201.4</ele>
        <time>2024-05-04T08:01:13Z</time>
      </trkpt>
      <trkpt lat="50.12184" lon="4.1601">
        <ele>201.6</ele>
        <time>2024-05-04T08:01:14Z</time>
      </trkpt>
      <trkpt lat="50.12181" lon="4.16004">
        <ele>201.8</ele>
        <time>2024-05-04T08:01:15Z</time>
      </trkpt>
      <trkpt lat="50.12178" lon="4.15998">
        <ele>201.8</ele>
        <time>2024-05-04T08:01:16Z</time>
      </trkpt>
      <trkpt lat="50.12175" lon="4.15992">
        <ele>201.8</ele>
        <time>2024-05-04T08:01:17Z</time>
      </trkpt>
      <trkpt lat="50.12172" lon="4.15986">
        <ele>202</ele>
        <time>2024-05-04T08:01:18Z</time>
      </trkpt>
      <trkpt lat="50.1217" lon="4.1598">
        <ele>201.8</ele>
        <time>2024-05-04T08:01:19Z</time>
      </trkpt>
      <trkpt lat="50.12168" lon="4.15973">
        <ele>202</ele>
        <time>2024-05-04T08:01:20Z</time>
      </trkpt>
      <trkpt lat="50.12166" lon="4.15967">
        <ele>202</ele>
        <time>2024-05-04T08:01:21Z</time>
      </trkpt>
      <trkpt lat="50.12164" lon="4.15961">
        <ele>202</ele>
        <time>2024-05-04T08:01:22Z</time>
      </trkpt>
      <trkpt lat="50.12163" lon="4.15954">
        <ele>202</ele>
        <time>2024-05-04T08:01:23Z</time>
      </trkpt>
      <trkpt lat="50.12162" lon="4.15948">
        <ele>202</ele>
        <time>2024-05-04T08:01:24Z</time>
      </trkpt>
      <trkpt lat="50.12161" lon="4.15942">
        <ele>202</ele>
        <time>2024-05-04T08:01:25Z</time>
      </trkpt>
      <trkpt lat="50.12161" lon="4.15936">
        <ele>202.2</ele>
        <time>2024-05-04T08:01:26Z</time>
      </trkpt>
      <trkpt lat="50.12161" lon="4.1593">
        <ele>202.2</ele>
        <time>2024-05-04T08:01:27Z</time>
      </trkpt>
      <trkpt lat="50.12161" lon="4.15924">
        <ele>202.4</ele>
        <time>2024-05-04T08:01:28Z</time>
      </trkpt>
      <trkpt lat="50.12162" lon="4.15918">
        <ele>202.6</ele>
        <time>2024-05-04T08:01:29Z</time>
      </trkpt>
      <trkpt lat="50.12162" lon="4.15912">
        <ele>202.4</ele>
        <time>2024-05-04T08:01:30Z</time>
      </trkpt>
      <trkpt lat="50.12163" lon="4.15906">
        <ele>202.6</ele>
        <time>2024-05-04T08:01:31Z</time>
      </trkpt>
      <trkpt lat="50.12164" lon="4.159">
        <ele>202.8</ele>
        <time>2024-05-04T08:01:32Z</time>
      </trkpt>
      <trkpt lat="50.12165" lon="4.15894">
        <ele>203.4</ele>
        <time>2024-05-04T08:01:33Z</time>
      </trkpt>
      <trkpt lat="50.12166" lon="4.15888">
        <ele>204.2</ele>
        <time>2024-05-04T08:01:34Z</time>
      </trkpt>
      <trkpt lat="50.12168" lon="4.15882">
        <ele>204.6</ele>
        <time>2024-05-04T08:01:35Z</time>
      </trkpt>
      <trkpt lat="50.12169" lon="4.15876">
        <ele>205</ele>
        <time>2024-05-04T08:01:36Z</time>
      </trkpt>
      <trkpt lat="50.12171" lon="4.1587">
        <ele>205.4</ele>
        <time>2024-05-04T08:01:37Z</time>
      </trkpt>
      <trkpt lat="50.12172" lon="4.15865">
        <ele>205.4</ele>
        <time>2024-05-04T08:01:38Z</time>
      </trkpt>
      <trkpt lat="50.12174" lon="4.15859">
        <ele>205.4</ele>
        <time>2024-05-04T08:01:39Z</time>
      </trkpt>
      <trkpt lat="50.12176" lon="4.15852">
        <ele>205.8</ele>
        <time>2024-05-04T08:01:40Z</time>
      </trkpt>
      <trkpt lat="50.12178" lon="4.15846">
        <ele>205.8</ele>
        <time>2024-05-04T08:01:41Z</time>
      </trkpt>
      <trkpt lat="50.12179" lon="4.1584">
        <ele>205.8</ele>
        <time>2024-05-04T08:01:42Z</time>
      </trkpt>
      <trkpt lat="50.12181" lon="4.15833">
        <ele>205.8</ele>
        <time>2024-05-04T08:01:43Z</time>
      </trkpt>
      <trkpt lat="50.12183" lon="4.15826">
        <ele>205.8</ele>
        <time>2024-05-04T08:01:44Z</time>
      </trkpt>
      <trkpt lat="50.12185" lon="4.15819">
        <ele>205.8</ele>
        <time>2024-05-04T08:01:45Z</time>
      </trkpt>
      <trkpt lat="50.12187" lon="4.15811">
        <ele>206</ele>
        <time>2024-05-04T08:01:46Z</time>
      </trkpt>
      <trkpt lat="50.1219" lon="4.15803">
        <ele>206</ele>
        <time>2024-05-04T08:01:47Z</time>
      </trkpt>
      <trkpt lat="50.12192" lon="4.15794">
        <ele>205.8</ele>
        <time>2024-05-04T08:01:48Z</time>
      </trkpt>
      <trkpt lat="50.12195" lon="4.15784">
        <ele>205.8</ele>
        <time>2024-05-04T08:01:49Z</time>
      </trkpt>
      <trkpt lat="50.12198" lon="4.15774">
        <ele>205.8</ele>
        <time>2024-05-04T08:01:50Z</time>
      </trkpt>
      <trkpt lat="50.12201" lon="4.15764">
        <ele>206</ele>
        <time>2024-05-04T08:01:51Z</time>
      </trkpt>
      <trkpt lat="50.12204" lon="4.15752">
        <ele>205.6</ele>
        <time>2024-05-04T08:01:52Z</time>
      </trkpt>
      <trkpt lat="50.12207" lon="4.15741">
        <ele>205.2</ele>
        <time>2024-05-04T08:01:53Z</time>
      </trkpt>
      <trkpt lat="50.1221" lon="4.15728">
        <ele>204.8</ele>
        <time>2024-05-04T08:01:54Z</time>
      </trkpt>
      <trkpt lat="50.12214" lon="4.15716">
        <ele>204.8</ele>
        <time>2024-05-04T08:01:55Z</time>
      </trkpt>
      <trkpt lat="50.12217" lon="4.15702">
        <ele>204.8</ele>
        <time>2024-05-04T08:01:56Z</time>
      </trkpt>
      <trkpt lat="50.1222" lon="4.15688">
        <ele>204.8</ele>
        <time>2024-05-04T08:01:57Z</time>
      </trkpt>
      <trkpt lat="50.12223" lon="4.15673">
        <ele>204.6</ele>
        <time>2024-05-04T08:01:58Z</time>
      </trkpt>
      <trkpt lat="50.12226" lon="4.15658">
        <ele>204.4</ele>
        <time>2024-05-04T08:01:59Z</time>
      </trkpt>
      <trkpt lat="50.12229" lon="4.15642">
        <ele>203.4</ele>
        <time>2024-05-04T08:02:00Z</time>
      </trkpt>
      <trkpt lat="50.12232" lon="4.15625">
        <ele>203</ele>
        <time>2024-05-04T08:02:01Z</time>
      </trkpt>
      <trkpt lat="50.12234" lon="4.15608">
        <ele>202.8</ele>
        <time>2024-05-04T08:02:02Z</time>
      </trkpt>
      <trkpt lat="50.12237" lon="4.1559">
        <ele>202</ele>
        <time>2024-05-04T08:02:03Z</time>
      </trkpt>
      <trkpt lat="50.1224" lon="4.15572">
        <ele>201.2</ele>
        <time>2024-05-04T08:02:04Z</time>
      </trkpt>
      <trkpt lat="50.12243" lon="4.15553">
        <ele>200.4</ele>
        <time>2024-05-04T08:02:05Z</time>
      </trkpt>
      <trkpt lat="50.12248" lon="4.15535">
        <ele>199.4</ele>
        <time>2024-05-04T08:02:06Z</time>
      </trkpt>
      <trkpt lat="50.12254" lon="4.15517">
        <ele>199</ele>
        <time>2024-05-04T08:02:07Z</time>
      </trkpt>
      <trkpt lat="50.12261" lon="4.155">
        <ele>198.4</ele>
        <time>2024-05-04T08:02:08Z</time>
      </trkpt>
      <trkpt lat="50.12268" lon="4.15483">
        <ele>197.4</ele>
        <time>2024-05-04T08:02:09Z</time>
      </trkpt>
      <trkpt lat="50.12276" lon="4.15466">
        <ele>196.2</ele>
        <time>2024-05-04T08:02:10Z</time>
      </trkpt>
      <trkpt lat="50.12283" lon="4.15449">
        <ele>195</ele>
        <time>2024-05-04T08:02:11Z</time>
      </trkpt>
      <trkpt lat="50.12291" lon="4.15432">
        <ele>193.6</ele>
        <time>2024-05-04T08:02:12Z</time>
      </trkpt>
      <trkpt lat="50.123" lon="4.15415">
        <ele>192</ele>
        <time>2024-05-04T08:02:13Z</time>
      </trkpt>
      <trkpt lat="50.12309" lon="4.154">
        <ele>192</ele>
        <time>2024-05-04T08:02:14Z</time>
      </trkpt>
      <trkpt lat="50.12318" lon="4.15385">
        <ele>190.6</ele>
        <time>2024-05-04T08:02:15Z</time>
      </trkpt>
      <trkpt lat="50.12327" lon="4.15371">
        <ele>189.4</ele>
        <time>2024-05-04T08:02:16Z</time>
      </trkpt>
      <trkpt lat="50.12337" lon="4.15357">
        <ele>188.4</ele>
        <time>2024-05-04T08:02:17Z</time>
      </trkpt>
      <trkpt lat="50.12346" lon="4.15344">
        <ele>187.2</ele>
        <time>2024-05-04T08:02:18Z</time>
      </trkpt>
      <trkpt lat="50.12355" lon="4.15333">
        <ele>186</ele>
        <time>2024-05-04T08:02:19Z</time>
      </trkpt>
      <trkpt lat="50.12365" lon="4.15322">
        <ele>185</ele>
        <time>2024-05-04T08:02:20Z</time>
      </trkpt>
      <trkpt lat="50.12373" lon="4.15312">
        <ele>184.6</ele>
        <time>2024-05-04T08:02:21Z</time>
      </trkpt>
      <trkpt lat="50.12382" lon="4.15302">
        <ele>184.4</ele>
        <time>2024-05-04T08:02:22Z</time>
      </trkpt>
      <trkpt lat="50.1239" lon="4.15292">
        <ele>184.2</ele>
        <time>2024-05-04T08:02:23Z</time>
      </trkpt>
      <trkpt lat="50.12397" lon="4.15284">
        <ele>184.2</ele>
        <time>2024-05-04T08:02:24Z</time>
      </trkpt>
      <trkpt lat="50.12403" lon="4.15276">
        <ele>184.2</ele>
        <time>2024-05-04T08:02:25Z</time>
      </trkpt>
      <trkpt lat="50.1241" lon="4.15269">
        <ele>184.2</ele>
        <time>2024-05-04T08:02:26Z</time>
      </trkpt>
      <trkpt lat="50.12416" lon="4.15262">
        <ele>184.2</ele>
        <time>2024-05-04T08:02:27Z</time>
      </trkpt>
      <trkpt lat="50.12421" lon="4.15255">
        <ele>184.2</ele>
        <time>2024-05-04T08:02:28Z</time>
      </trkpt>
      <trkpt lat="50.12426" lon="4.15249">
        <ele>184.2</ele>
        <time>2024-05-04T08:02:29Z</time>
      </trkpt>
      <trkpt lat="50.12431" lon="4.15244">
        <ele>184.2</ele>
        <time>2024-05-04T08:02:30Z</time>
      </trkpt>
      <trkpt lat="50.12436" lon="4.15238">
        <ele>184.4</ele>
        <time>2024-05-04T08:02:31Z</time>
      </trkpt>
      <trkpt lat="50.12441" lon="4.15233">
        <ele>184.4</ele>
        <time>2024-05-04T08:02:32Z</time>
      </trkpt>
      <trkpt lat="50.12445" lon="4.15228">
        <ele>185.2</ele>
        <time>2024-05-04T08:02:33Z</time>
      </trkpt>
      <trkpt lat="50.12449" lon="4.15224">
        <ele>186.4</ele>
        <time>2024-05-04T08:02:34Z</time>
      </trkpt>
      <trkpt lat="50.12453" lon="4.15219">
        <ele>187</ele>
        <time>2024-05-04T08:02:35Z</time>
      </trkpt>
      <trkpt lat="50.12457" lon="4.15215">
        <ele>188</ele>
        <time>2024-05-04T08:02:36Z</time>
      </trkpt>
      <trkpt lat="50.1246" lon="4.1521">
        <ele>188.8</ele>
        <time>2024-05-04T08:02:37Z</time>
      </trkpt>
      <trkpt lat="50.12463" lon="4.15206">
        <ele>189.6</ele>
        <time>2024-05-04T08:02:38Z</time>
      </trkpt>
      <trkpt lat="50.12466" lon="4.15202">
        <ele>190.2</ele>
        <time>2024-05-04T08:02:39Z</time>
      </trkpt>
      <trkpt lat="50.1247" lon="4.15198">
        <ele>191</ele>
        <time>2024-05-04T08:02:40Z</time>
      </trkpt>
      <trkpt lat="50.12472" lon="4.15193">
        <ele>191.4</ele>
        <time>2024-05-04T08:02:41Z</time>
      </trkpt>
      <trkpt lat="50.12475" lon="4.15189">
        <ele>192</ele>
        <time>2024-05-04T08:02:42Z</time>
      </trkpt>
      <trkpt lat="50.12478" lon="4.15185">
        <ele>192.2</ele>
        <time>2024-05-04T08:02:43Z</time>
      </trkpt>
      <trkpt lat="50.12481" lon="4.15181">
        <ele>192.6</ele>
        <time>2024-05-04T08:02:44Z</time>
      </trkpt>
      <trkpt lat="50.12484" lon="4.15177">
        <ele>193.2</ele>
        <time>2024-05-04T08:02:45Z</time>
      </trkpt>
      <trkpt lat="50.12487" lon="4.15172">
        <ele>193.6</ele>
        <time>2024-05-04T08:02:46Z</time>
      </trkpt>
      <trkpt lat="50.12489" lon="4.15168">
        <ele>194.2</ele>
        <time>2024-05-04T08:02:47Z</time>
      </trkpt>
      <trkpt lat="50.12492" lon="4.15163">
        <ele>194.6</ele>
        <time>2024-05-04T08:02:48Z</time>
      </trkpt>
      <trkpt lat="50.12495" lon="4.15158">
        <ele>195</ele>
        <time>2024-05-04T08:02:49Z</time>
      </trkpt>
      <trkpt lat="50.12497" lon="4.15153">
        <ele>195</ele>
        <time>2024-05-04T08:02:50Z</time>
      </trkpt>
      <trkpt lat="50.125" lon="4.15149">
        <ele>195.2</ele>
        <time>2024-05-04T08:02:51Z</time>
      </trkpt>
      <trkpt lat="50.12502" lon="4.15144">
        <ele>195.6</ele>
        <time>2024-05-04T08:02:52Z</time>
      </trkpt>
      <trkpt lat="50.12505" lon="4.15139">
        <ele>195.8</ele>
        <time>2024-05-04T08:02:53Z</time>
      </trkpt>
      <trkpt lat="50.12507" lon="4.15135">
        <ele>196.2</ele>
        <time>2024-05-04T08:02:54Z</time>
      </trkpt>
      <trkpt lat="50.12509" lon="4.1513">
        <ele>196.6</ele>
        <time>2024-05-04T08:02:55Z</time>
      </trkpt>
      <trkpt lat="50.12511" lon="4.15125">
        <ele>197</ele>
        <time>2024-05-04T08:02:56Z</time>
      </trkpt>
      <trkpt lat="50.12514" lon="4.1512">
        <ele>197.4</ele>
        <time>2024-05-04T08:02:57Z</time>
      </trkpt>
      <trkpt lat="50.12516" lon="4.15115">
        <ele>197.4</ele>
        <time>2024-05-04T08:02:58Z</time>
      </trkpt>
      <trkpt lat="50.12518" lon="4.1511">
        <ele>197.6</ele>
        <time>2024-05-04T08:02:59Z</time>
      </trkpt>
      <trkpt lat="50.1252" lon="4.15105">
        <ele>197.8</ele>
        <time>2024-05-04T08:03:00Z</time>
      </trkpt>
      <trkpt lat="50.12521" lon="4.15101">
        <ele>198.2</ele>
        <time>2024-05-04T08:03:01Z</time>
      </trkpt>
      <trkpt lat="50.12523" lon="4.15096">
        <ele>198.2</ele>
        <time>2024-05-04T08:03:02Z</time>
      </trkpt>
      <trkpt lat="50.12525" lon="4.15092">
        <ele>198.4</ele>
        <time>2024-05-04T08:03:03Z</time>
      </trkpt>
      <trkpt lat="50.12527" lon="4.15087">
        <ele>198.8</ele>
        <time>2024-05-04T08:03:04Z</time>
      </trkpt>
      <trkpt lat="50.12529" lon="4.15083">
        <ele>199.2</ele>
        <time>2024-05-04T08:03:05Z</time>
      </trkpt>
      <trkpt lat="50.12531" lon="4.15079">
        <ele>199.4</ele>
        <time>2024-05-04T08:03:06Z</time>
      </trkpt>
      <trkpt lat="50.12532" lon="4.15074">
        <ele>199.4</ele>
        <time>2024-05-04T08:03:07Z</time>
      </trkpt>
      <trkpt lat="50.12534" lon="4.1507">
        <ele>199.8</ele>
        <time>2024-05-04T08:03:08Z</time>
      </trkpt>
      <trkpt lat="50.12536" lon="4.15065">
        <ele>200.8</ele>
        <time>2024-05-04T08:03:09Z</time>
      </trkpt>
      <trkpt lat="50.12537" lon="4.15061">
        <ele>201.2</ele>
        <time>2024-05-04T08:03:10Z</time>
      </trkpt>
      <trkpt lat="50.12539" lon="4.15056">
        <ele>202</ele>
        <time>2024-05-04T08:03:11Z</time>
      </trkpt>
      <trkpt lat="50.1254" lon="4.15051">
        <ele>202.4</ele>
        <time>2024-05-04T08:03:12Z</time>
      </trkpt>
      <trkpt lat="50.12541" lon="4.15046">
        <ele>202.8</ele>
        <time>2024-05-04T08:03:13Z</time>
      </trkpt>
      <trkpt lat="50.12543" lon="4.15042">
        <ele>203</ele>
        <time>2024-05-04T08:03:14Z</time>
      </trkpt>
      <trkpt lat="50.12544" lon="4.15037">
        <ele>203.2</ele>
        <time>2024-05-04T08:03:15Z</time>
      </trkpt>
      <trkpt lat="50.12544" lon="4.15032">
        <ele>203.6</ele>
        <time>2024-05-04T08:03:16Z</time>
      </trkpt>
      <trkpt lat="50.12545" lon="4.15027">
        <ele>204</ele>
        <time>2024-05-04T08:03:17Z</time>
      </trkpt>
      <trkpt lat="50.12546" lon="4.15022">
        <ele>204.4</ele>
        <time>2024-05-04T08:03:18Z</time>
      </trkpt>
      <trkpt lat="50.12546" lon="4.15017">
        <ele>204.6</ele>
        <time>2024-05-04T08:03:19Z</time>
      </trkpt>
      <trkpt lat="50.12547" lon="4.15012">
        <ele>205</ele>
        <time>2024-05-04T08:03:20Z</time>
      </trkpt>
      <trkpt lat="50.12547" lon="4.15007">
        <ele>205.2</ele>
        <time>2024-05-04T08:03:21Z</time>
      </trkpt>
      <trkpt lat="50.12547" lon="4.15002">
        <ele>205.6</ele>
        <time>2024-05-04T08:03:22Z</time>
      </trkpt>
      <trkpt lat="50.12547" lon="4.14997">
        <ele>205.8</ele>
        <time>2024-05-04T08:03:23Z</time>
      </trkpt>
      <trkpt lat="50.12547" lon="4.14992">
        <ele>205.8</ele>
        <time>2024-05-04T08:03:24Z</time>
      </trkpt>
      <trkpt lat="50.12547" lon="4.14988">
        <ele>206</ele>
        <time>2024-05-04T08:03:25Z</time>
      </trkpt>
      <trkpt lat="50.12547" lon="4.14983">
        <ele>206.2</ele>
        <time>2024-05-04T08:03:26Z</time>
      </trkpt>
      <trkpt lat="50.12547" lon="4.14978">
        <ele>206.4</ele>
        <time>2024-05-04T08:03:27Z</time>
      </trkpt>
      <trkpt lat="50.12547" lon="4.14973">
        <ele>206.6</ele>
        <time>2024-05-04T08:03:28Z</time>
      </trkpt>
      <trkpt lat="50.12546" lon="4.14969">
        <ele>207</ele>
        <time>2024-05-04T08:03:29Z</time>
      </trkpt>
      <trkpt lat="50.12546" lon="4.14964">
        <ele>207.2</ele>
        <time>2024-05-04T08:03:30Z</time>
      </trkpt>
      <trkpt lat="50.12546" lon="4.1496">
        <ele>207.4</ele>
        <time>2024-05-04T08:03:31Z</time>
      </trkpt>
      <trkpt lat="50.12545" lon="4.14955">
        <ele>207.6</ele>
        <time>2024-05-04T08:03:32Z</time>
      </trkpt>
      <trkpt lat="50.12545" lon="4.1495">
        <ele>207.6</ele>
        <time>2024-05-04T08:03:33Z</time>
      </trkpt>
      <trkpt lat="50.12545" lon="4.14945">
        <ele>207.8</ele>
        <time>2024-05-04T08:03:34Z</time>
      </trkpt>
      <trkpt lat="50.12544" lon="4.1494">
        <ele>208</ele>
        <time>2024-05-04T08:03:35Z</time>
      </trkpt>
      <trkpt lat="50.12544" lon="4.14935">
        <ele>208.2</ele>
        <time>2024-05-04T08:03:36Z</time>
      </trkpt>
      <trkpt lat="50.12543" lon="4.14931">
        <ele>208.4</ele>
        <time>2024-05-04T08:03:37Z</time>
      </trkpt>
      <trkpt lat="50.12542" lon="4.14926">
        <ele>208.6</ele>
        <time>2024-05-04T08:03:38Z</time>
      </trkpt>
      <trkpt lat="50.12541" lon="4.14921">
        <ele>208.6</ele>
        <time>2024-05-04T08:03:39Z</time>
      </trkpt>
      <trkpt lat="50.12541" lon="4.14916">
        <ele>209</ele>
        <time>2024-05-04T08:03:40Z</time>
      </trkpt>
      <trkpt lat="50.1254" lon="4.14912">
        <ele>209.2</ele>
        <time>2024-05-04T08:03:41Z</time>
      </trkpt>
      <trkpt lat="50.12539" lon="4.14907">
        <ele>209.6</ele>
        <time>2024-05-04T08:03:42Z</time>
      </trkpt>
      <trkpt lat="50.12538" lon="4.14902">
        <ele>209.8</ele>
        <time>2024-05-04T08:03:43Z</time>
      </trkpt>
      <trkpt lat="50.12537" lon="4.14897">
        <ele>210</ele>
        <time>2024-05-04T08:03:44Z</time>
      </trkpt>
      <trkpt lat="50.12536" lon="4.14892">
        <ele>210.2</ele>
        <time>2024-05-04T08:03:45Z</time>
      </trkpt>
      <trkpt lat="50.12535" lon="4.14888">
        <ele>210.6</ele>
        <time>2024-05-04T08:03:46Z</time>
      </trkpt>
      <trkpt lat="50.12535" lon="4.14882">
        <ele>210.8</ele>
        <time>2024-05-04T08:03:47Z</time>
      </trkpt>
      <trkpt lat="50.12534" lon="4.14877">
        <ele>211.2</ele>
        <time>2024-05-04T08:03:48Z</time>
      </trkpt>
      <trkpt lat="50.12533" lon="4.14872">
        <ele>211.4</ele>
        <time>2024-05-04T08:03:49Z</time>
      </trkpt>
      <trkpt lat="50.12532" lon="4.14867">
        <ele>211.6</ele>
        <time>2024-05-04T08:03:50Z</time>
      </trkpt>
      <trkpt lat="50.1253" lon="4.14862">
        <ele>212</ele>
        <time>2024-05-04T08:03:51Z</time>
      </trkpt>
      <trkpt lat="50.12529" lon="4.14857">
        <ele>212.2</ele>
        <time>2024-05-04T08:03:52Z</time>
      </trkpt>
      <trkpt lat="50.12528" lon="4.14852">
        <ele>212.4</ele>
        <time>2024-05-04T08:03:53Z</time>
      </trkpt>
      <trkpt lat="50.12527" lon="4.14847">
        <ele>212.6</ele>
        <time>2024-05-04T08:03:54Z</time>
      </trkpt>
      <trkpt lat="50.12526" lon="4.14842">
        <ele>212.8</ele>
        <time>2024-05-04T08:03:55Z</time>
      </trkpt>
      <trkpt lat="50.12525" lon="4.14837">
        <ele>212.8</ele>
        <time>2024-05-04T08:03:56Z</time>
      </trkpt>
      <trkpt lat="50.12525" lon="4.14833">
        <ele>213</ele>
        <time>2024-05-04T08:03:57Z</time>
      </trkpt>
      <trkpt lat="50.12524" lon="4.14828">
        <ele>213</ele>
        <time>2024-05-04T08:03:58Z</time>
      </trkpt>
      <trkpt lat="50.12523" lon="4.14823">
        <ele>213</ele>
        <time>2024-05-04T08:03:59Z</time>
      </trkpt>
      <trkpt lat="50.12522" lon="4.14818">
        <ele>213.2</ele>
        <time>2024-05-04T08:04:00Z</time>
      </trkpt>
      <trkpt lat="50.12522" lon="4.14813">
        <ele>213.2</ele>
        <time>2024-05-04T08:04:01Z</time>
      </trkpt>
      <trkpt lat="50.12521" lon="4.14808">
        <ele>213.4</ele>
        <time>2024-05-04T08:04:02Z</time>
      </trkpt>
      <trkpt lat="50.12521" lon="4.14803">
        <ele>213.4</ele>
        <time>2024-05-04T08:04:03Z</time>
      </trkpt>
      <trkpt lat="50.12521" lon="4.14798">
        <ele>213.4</ele>
        <time>2024-05-04T08:04:04Z</time>
      </trkpt>
      <trkpt lat="50.12521" lon="4.14793">
        <ele>213.4</ele>
        <time>2024-05-04T08:04:05Z</time>
      </trkpt>
      <trkpt lat="50.12521" lon="4.14788">
        <ele>213.6</ele>
        <time>2024-05-04T08:04:06Z</time>
      </trkpt>
      <trkpt lat="50.12521" lon="4.14783">
        <ele>213.8</ele>
        <time>2024-05-04T08:04:07Z</time>
      </trkpt>
      <trkpt lat="50.1252" lon="4.14778">
        <ele>214</ele>
        <time>2024-05-04T08:04:08Z</time>
      </trkpt>
      <trkpt lat="50.1252" lon="4.14773">
        <ele>214.4</ele>
        <time>2024-05-04T08:04:09Z</time>
      </trkpt>
      <trkpt lat="50.12519" lon="4.14768">
        <ele>215</ele>
        <time>2024-05-04T08:04:10Z</time>
      </trkpt>
      <trkpt lat="50.12518" lon="4.14764">
        <ele>215.4</ele>
        <time>2024-05-04T08:04:11Z</time>
      </trkpt>
      <trkpt lat="50.12517" lon="4.14759">
        <ele>215.6</ele>
        <time>2024-05-04T08:04:12Z</time>
      </trkpt>
      <trkpt lat="50.12515" lon="4.14755">
        <ele>215.8</ele>
        <time>2024-05-04T08:04:13Z</time>
      </trkpt>
      <trkpt lat="50.12513" lon="4.14752">
        <ele>215.8</ele>
        <time>2024-05-04T08:04:14Z</time>
      </trkpt>
      <trkpt lat="50.1251" lon="4.14749">
        <ele>216</ele>
        <time>2024-05-04T08:04:15Z</time>
      </trkpt>
      <trkpt lat="50.12507" lon="4.14747">
        <ele>216.2</ele>
        <time>2024-05-04T08:04:16Z</time>
      </trkpt>
      <trkpt lat="50.12504" lon="4.14745">
        <ele>216.4</ele>
        <time>2024-05-04T08:04:17Z</time>
      </trkpt>
      <trkpt lat="50.125" lon="4.14744">
        <ele>216.8</ele>
        <time>2024-05-04T08:04:18Z</time>
      </trkpt>
      <trkpt lat="50.12496" lon="4.14743">
        <ele>217.2</ele>
        <time>2024-05-04T08:04:19Z</time>
      </trkpt>
      <trkpt lat="50.12493" lon="4.14742">
        <ele>217.2</ele>
        <time>2024-05-04T08:04:20Z</time>
      </trkpt>
      <trkpt lat="50.12488" lon="4.14742">
        <ele>217.6</ele>
        <time>2024-05-04T08:04:21Z</time>
      </trkpt>
      <trkpt lat="50.12484" lon="4.14741">
        <ele>217.6</ele>
        <time>2024-05-04T08:04:22Z</time>
      </trkpt>
      <trkpt lat="50.12479" lon="4.1474">
        <ele>217.6</ele>
        <time>2024-05-04T08:04:23Z</time>
      </trkpt>
      <trkpt lat="50.12475" lon="4.14738">
        <ele>217.8</ele>
        <time>2024-05-04T08:04:24Z</time>
      </trkpt>
      <trkpt lat="50.12471" lon="4.14736">
        <ele>218</ele>
        <time>2024-05-04T08:04:25Z</time>
      </trkpt>
      <trkpt lat="50.12467" lon="4.14733">
        <ele>218.2</ele>
        <time>2024-05-04T08:04:26Z</time>
      </trkpt>
      <trkpt lat="50.12463" lon="4.1473">
        <ele>218.4</ele>
        <time>2024-05-04T08:04:27Z</time>
      </trkpt>
      <trkpt lat="50.12459" lon="4.14727">
        <ele>218.6</ele>
        <time>2024-05-04T08:04:28Z</time>
      </trkpt>
      <trkpt lat="50.12456" lon="4.14724">
        <ele>218.6</ele>
        <time>2024-05-04T08:04:29Z</time>
      </trkpt>
      <trkpt lat="50.12452" lon="4.1472">
        <ele>218.6</ele>
        <time>2024-05-04T08:04:30Z</time>
      </trkpt>
      <trkpt lat="50.12449" lon="4.14716">
        <ele>218.6</ele>
        <time>2024-05-04T08:04:31Z</time>
      </trkpt>
      <trkpt lat="50.12446" lon="4.14713">
        <ele>218.8</ele>
        <time>2024-05-04T08:04:32Z</time>
      </trkpt>
      <trkpt lat="50.12442" lon="4.14709">
        <ele>219</ele>
        <time>2024-05-04T08:04:33Z</time>
      </trkpt>
      <trkpt lat="50.12439" lon="4.14705">
        <ele>219</ele>
        <time>2024-05-04T08:04:34Z</time>
      </trkpt>
      <trkpt lat="50.12436" lon="4.14701">
        <ele>219.2</ele>
        <time>2024-05-04T08:04:35Z</time>
      </trkpt>
      <trkpt lat="50.12433" lon="4.14696">
        <ele>219</ele>
        <time>2024-05-04T08:04:36Z</time>
      </trkpt>
      <trkpt lat="50.12429" lon="4.14692">
        <ele>219.2</ele>
        <time>2024-05-04T08:04:37Z</time>
      </trkpt>
      <trkpt lat="50.12426" lon="4.14687">
        <ele>219.2</ele>
        <time>2024-05-04T08:04:38Z</time>
      </trkpt>
      <trkpt lat="50.12423" lon="4.14681">
        <ele>219.4</ele>
        <time>2024-05-04T08:04:39Z</time>
      </trkpt>
      <trkpt lat="50.1242" lon="4.14676">
        <ele>219.6</ele>
        <time>2024-05-04T08:04:40Z</time>
      </trkpt>
      <trkpt lat="50.12417" lon="4.1467">
        <ele>219.4</ele>
        <time>2024-05-04T08:04:41Z</time>
      </trkpt>
      <trkpt lat="50.12414" lon="4.14664">
        <ele>219.6</ele>
        <time>2024-05-04T08:04:42Z</time>
      </trkpt>
      <trkpt lat="50.12411" lon="4.14658">
        <ele>219.6</ele>
        <time>2024-05-04T08:04:43Z</time>
      </trkpt>
      <trkpt lat="50.12408" lon="4.14652">
        <ele>219.6</ele>
        <time>2024-05-04T08:04:44Z</time>
      </trkpt>
      <trkpt lat="50.12405" lon="4.14646">
        <ele>219.6</ele>
        <time>2024-05-04T08:04:45Z</time>
      </trkpt>
      <trkpt lat="50.12402" lon="4.14639">
        <ele>219.6</ele>
        <time>2024-05-04T08:04:46Z</time>
      </trkpt>
      <trkpt lat="50.12399" lon="4.14632">
        <ele>219.8</ele>
        <time>2024-05-04T08:04:47Z</time>
      </trkpt>
      <trkpt lat="50.12396" lon="4.14626">
        <ele>219.8</ele>
        <time>2024-05-04T08:04:48Z</time>
      </trkpt>
      <trkpt lat="50.12392" lon="4.14619">
        <ele>219.8</ele>
        <time>2024-05-04T08:04:49Z</time>
      </trkpt>
      <trkpt lat="50.12389" lon="4.14612">
        <ele>219.8</ele>
        <time>2024-05-04T08:04:50Z</time>
      </trkpt>
      <trkpt lat="50.12385" lon="4.14605">
        <ele>219.8</ele>
        <time>2024-05-04T08:04:51Z</time>
      </trkpt>
      <trkpt lat="50.12381" lon="4.14597">
        <ele>219.8</ele>
        <time>2024-05-04T08:04:52Z</time>
      </trkpt>
      <trkpt lat="50.12378" lon="4.1459">
        <ele>219.6</ele>
        <time>2024-05-04T08:04:53Z</time>
      </trkpt>
      <trkpt lat="50.12374" lon="4.14582">
        <ele>219.8</ele>
        <time>2024-05-04T08:04:54Z</time>
      </trkpt>
      <trkpt lat="50.1237" lon="4.14574">
        <ele>219.6</ele>
        <time>2024-05-04T08:04:55Z</time>
      </trkpt>
      <trkpt lat="50.12366" lon="4.14565">
        <ele>219.6</ele>
        <time>2024-05-04T08:04:56Z</time>
      </trkpt>
      <trkpt lat="50.12362" lon="4.14557">
        <ele>219.6</ele>
        <time>2024-05-04T08:04:57Z</time>
      </trkpt>
      <trkpt lat="50.12358" lon="4.14548">
        <ele>219.6</ele>
        <time>2024-05-04T08:04:58Z</time>
      </trkpt>
      <trkpt lat="50.12353" lon="4.14538">
        <ele>219.4</ele>
        <time>2024-05-04T08:04:59Z</time>
      </trkpt>
      <trkpt lat="50.12348" lon="4.14528">
        <ele>219.2</ele>
        <time>2024-05-04T08:05:00Z</time>
      </trkpt>
      <trkpt lat="50.12344" lon="4.14518">
        <ele>218.6</ele>
        <time>2024-05-04T08:05:01Z</time>
      </trkpt>
      <trkpt lat="50.12339" lon="4.14508">
        <ele>218</ele>
        <time>2024-05-04T08:05:02Z</time>
      </trkpt>
      <trkpt lat="50.12334" lon="4.14497">
        <ele>217.8</ele>
        <time>2024-05-04T08:05:03Z</time>
      </trkpt>
      <trkpt lat="50.12329" lon="4.14486">
        <ele>217.8</ele>
        <time>2024-05-04T08:05:04Z</time>
      </trkpt>
      <trkpt lat="50.12323" lon="4.14475">
        <ele>217.6</ele>
        <time>2024-05-04T08:05:05Z</time>
      </trkpt>
      <trkpt lat="50.12318" lon="4.14463">
        <ele>217</ele>
        <time>2024-05-04T08:05:06Z</time>
      </trkpt>
      <trkpt lat="50.12313" lon="4.14451">
        <ele>217</ele>
        <time>2024-05-04T08:05:07Z</time>
      </trkpt>
      <trkpt lat="50.12307" lon="4.14439">
        <ele>216.8</ele>
        <time>2024-05-04T08:05:08Z</time>
      </trkpt>
      <trkpt lat="50.12302" lon="4.14427">
        <ele>216.6</ele>
        <time>2024-05-04T08:05:09Z</time>
      </trkpt>
      <trkpt lat="50.12296" lon="4.14415">
        <ele>216.4</ele>
        <time>2024-05-04T08:05:10Z</time>
      </trkpt>
      <trkpt lat="50.12291" lon="4.14403">
        <ele>216.2</ele>
        <time>2024-05-04T08:05:11Z</time>
      </trkpt>
      <trkpt lat="50.12286" lon="4.14392">
        <ele>215.4</ele>
        <time>2024-05-04T08:05:12Z</time>
      </trkpt>
      <trkpt lat="50.1228" lon="4.1438">
        <ele>214.8</ele>
        <time>2024-05-04T08:05:13Z</time>
      </trkpt>
      <trkpt lat="50.12275" lon="4.14369">
        <ele>213.8</ele>
        <time>2024-05-04T08:05:14Z</time>
      </trkpt>
      <trkpt lat="50.1227" lon="4.14358">
        <ele>213</ele>
        <time>2024-05-04T08:05:15Z</time>
      </trkpt>
      <trkpt lat="50.12266" lon="4.14348">
        <ele>212.6</ele>
        <time>2024-05-04T08:05:16Z</time>
      </trkpt>
      <trkpt lat="50.12261" lon="4.14338">
        <ele>212.2</ele>
        <time>2024-05-04T08:05:17Z</time>
      </trkpt>
      <trkpt lat="50.12257" lon="4.14328">
        <ele>212</ele>
        <time>2024-05-04T08:05:18Z</time>
      </trkpt>
      <trkpt lat="50.12253" lon="4.14319">
        <ele>212</ele>
        <time>2024-05-04T08:05:19Z</time>
      </trkpt>
      <trkpt lat="50.12249" lon="4.1431">
        <ele>212</ele>
        <time>2024-05-04T08:05:20Z</time>
      </trkpt>
      <trkpt lat="50.12245" lon="4.14302">
        <ele>212</ele>
        <time>2024-05-04T08:05:21Z</time>
      </trkpt>
      <trkpt lat="50.12242" lon="4.14294">
        <ele>212</ele>
        <time>2024-05-04T08:05:22Z</time>
      </trkpt>
      <trkpt lat="50.12239" lon="4.14286">
        <ele>212</ele>
        <time>2024-05-04T08:05:23Z</time>
      </trkpt>
      <trkpt lat="50.12236" lon="4.14279">
        <ele>211.8</ele>
        <time>2024-05-04T08:05:24Z</time>
      </trkpt>
      <trkpt lat="50.12233" lon="4.14272">
        <ele>212</ele>
        <time>2024-05-04T08:05:25Z</time>
      </trkpt>
      <trkpt lat="50.1223" lon="4.14265">
        <ele>212</ele>
        <time>2024-05-04T08:05:26Z</time>
      </trkpt>
      <trkpt lat="50.12227" lon="4.14259">
        <ele>212.2</ele>
        <time>2024-05-04T08:05:27Z</time>
      </trkpt>
      <trkpt lat="50.12224" lon="4.14253">
        <ele>212.4</ele>
        <time>2024-05-04T08:05:28Z</time>
      </trkpt>
      <trkpt lat="50.12221" lon="4.14247">
        <ele>212.4</ele>
        <time>2024-05-04T08:05:29Z</time>
      </trkpt>
      <trkpt lat="50.12219" lon="4.14242">
        <ele>213</ele>
        <time>2024-05-04T08:05:30Z</time>
      </trkpt>
      <trkpt lat="50.12217" lon="4.14236">
        <ele>213.4</ele>
        <time>2024-05-04T08:05:31Z</time>
      </trkpt>
      <trkpt lat="50.12214" lon="4.14231">
        <ele>213.8</ele>
        <time>2024-05-04T08:05:32Z</time>
      </trkpt>
      <trkpt lat="50.12212" lon="4.14227">
        <ele>214.4</ele>
        <time>2024-05-04T08:05:33Z</time>
      </trkpt>
      <trkpt lat="50.1221" lon="4.14223">
        <ele>215</ele>
        <time>2024-05-04T08:05:34Z</time>
      </trkpt>
      <trkpt lat="50.12208" lon="4.14219">
        <ele>215.2</ele>
        <time>2024-05-04T08:05:35Z</time>
      </trkpt>
      <trkpt lat="50.12206" lon="4.14216">
        <ele>215.8</ele>
        <time>2024-05-04T08:05:36Z</time>
      </trkpt>
      <trkpt lat="50.12204" lon="4.14212">
        <ele>215.8</ele>
        <time>2024-05-04T08:05:37Z</time>
      </trkpt>
      <trkpt lat="50.12202" lon="4.14207">
        <ele>216.4</ele>
        <time>2024-05-04T08:05:38Z</time>
      </trkpt>
      <trkpt lat="50.122" lon="4.14203">
        <ele>217</ele>
        <time>2024-05-04T08:05:39Z</time>
      </trkpt>
      <trkpt lat="50.12198" lon="4.14199">
        <ele>217.4</ele>
        <time>2024-05-04T08:05:40Z</time>
      </trkpt>
      <trkpt lat="50.12196" lon="4.14195">
        <ele>217.6</ele>
        <time>2024-05-04T08:05:41Z</time>
      </trkpt>
      <trkpt lat="50.12193" lon="4.1419">
        <ele>218.2</ele>
        <time>2024-05-04T08:05:42Z</time>
      </trkpt>
      <trkpt lat="50.12191" lon="4.14185">
        <ele>218.6</ele>
        <time>2024-05-04T08:05:43Z</time>
      </trkpt>
      <trkpt lat="50.12189" lon="4.1418">
        <ele>218.8</ele>
        <time>2024-05-04T08:05:44Z</time>
      </trkpt>
      <trkpt lat="50.12187" lon="4.14175">
        <ele>219.2</ele>
        <time>2024-05-04T08:05:45Z</time>
      </trkpt>
      <trkpt lat="50.12185" lon="4.1417">
        <ele>219.4</ele>
        <time>2024-05-04T08:05:46Z</time>
      </trkpt>
      <trkpt lat="50.12184" lon="4.14165">
        <ele>219.8</ele>
        <time>2024-05-04T08:05:47Z</time>
      </trkpt>
      <trkpt lat="50.12182" lon="4.14159">
        <ele>220.2</ele>
        <time>2024-05-04T08:05:48Z</time>
      </trkpt>
      <trkpt lat="50.1218" lon="4.14154">
        <ele>220.8</ele>
        <time>2024-05-04T08:05:49Z</time>
      </trkpt>
      <trkpt lat="50.12178" lon="4.14148">
        <ele>221.2</ele>
        <time>2024-05-04T08:05:50Z</time>
      </trkpt>
      <trkpt lat="50.12176" lon="4.14142">
        <ele>221.6</ele>
        <time>2024-05-04T08:05:51Z</time>
      </trkpt>
      <trkpt lat="50.12175" lon="4.14136">
        <ele>221.6</ele>
        <time>2024-05-04T08:05:52Z</time>
      </trkpt>
      <trkpt lat="50.12173" lon="4.1413">
        <ele>221.8</ele>
        <time>2024-05-04T08:05:53Z</time>
      </trkpt>
      <trkpt lat="50.1217" lon="4.14124">
        <ele>222</ele>
        <time>2024-05-04T08:05:54Z</time>
      </trkpt>
      <trkpt lat="50.12169" lon="4.14117">
        <ele>222.2</ele>
        <time>2024-05-04T08:05:55Z</time>
      </trkpt>
      <trkpt lat="50.12167" lon="4.14111">
        <ele>222.2</ele>
        <time>2024-05-04T08:05:56Z</time>
      </trkpt>
      <trkpt lat="50.12165" lon="4.14104">
        <ele>222.4</ele>
        <time>2024-05-04T08:05:57Z</time>
      </trkpt>
      <trkpt lat="50.12163" lon="4.14097">
        <ele>222.6</ele>
        <time>2024-05-04T08:05:58Z</time>
      </trkpt>
      <trkpt lat="50.12161" lon="4.1409">
        <ele>222.6</ele>
        <time>2024-05-04T08:05:59Z</time>
      </trkpt>
      <trkpt lat="50.1216" lon="4.14084">
        <ele>222.8</ele>
        <time>2024-05-04T08:06:00Z</time>
      </trkpt>
      <trkpt lat="50.12158" lon="4.14077">
        <ele>223</ele>
        <time>2024-05-04T08:06:01Z</time>
      </trkpt>
      <trkpt lat="50.12157" lon="4.1407">
        <ele>223.2</ele>
        <time>2024-05-04T08:06:02Z</time>
      </trkpt>
      <trkpt lat="50.12155" lon="4.14062">
        <ele>223.4</ele>
        <time>2024-05-04T08:06:03Z</time>
      </trkpt>
      <trkpt lat="50.12154" lon="4.14054">
        <ele>223.2</ele>
        <time>2024-05-04T08:06:04Z</time>
      </trkpt>
      <trkpt lat="50.12153" lon="4.14046">
        <ele>223.4</ele>
        <time>2024-05-04T08:06:05Z</time>
      </trkpt>
      <trkpt lat="50.12152" lon="4.14037">
        <ele>223.4</ele>
        <time>2024-05-04T08:06:06Z</time>
      </trkpt>
      <trkpt lat="50.1215" lon="4.14029">
        <ele>223.4</ele>
        <time>2024-05-04T08:06:07Z</time>
      </trkpt>
      <trkpt lat="50.12149" lon="4.14019">
        <ele>223.4</ele>
        <time>2024-05-04T08:06:08Z</time>
      </trkpt>
      <trkpt lat="50.12148" lon="4.14009">
        <ele>223.4</ele>
        <time>2024-05-04T08:06:09Z</time>
      </trkpt>
      <trkpt lat="50.12148" lon="4.13998">
        <ele>223.4</ele>
        <time>2024-05-04T08:06:10Z</time>
      </trkpt>
      <trkpt lat="50.12147" lon="4.13987">
        <ele>223.4</ele>
        <time>2024-05-04T08:06:11Z</time>
      </trkpt>
      <trkpt lat="50.12147" lon="4.13976">
        <ele>223.4</ele>
        <time>2024-05-04T08:06:12Z</time>
      </trkpt>
      <trkpt lat="50.12147" lon="4.13964">
        <ele>223.6</ele>
        <time>2024-05-04T08:06:13Z</time>
      </trkpt>
      <trkpt lat="50.12147" lon="4.13951">
        <ele>223.2</ele>
        <time>2024-05-04T08:06:14Z</time>
      </trkpt>
      <trkpt lat="50.12148" lon="4.13938">
        <ele>223.2</ele>
        <time>2024-05-04T08:06:15Z</time>
      </trkpt>
      <trkpt lat="50.12149" lon="4.13924">
        <ele>223</ele>
        <time>2024-05-04T08:06:16Z</time>
      </trkpt>
      <trkpt lat="50.1215" lon="4.1391">
        <ele>222.8</ele>
        <time>2024-05-04T08:06:17Z</time>
      </trkpt>
      <trkpt lat="50.12153" lon="4.13895">
        <ele>222.6</ele>
        <time>2024-05-04T08:06:18Z</time>
      </trkpt>
      <trkpt lat="50.12155" lon="4.1388">
        <ele>222.2</ele>
        <time>2024-05-04T08:06:19Z</time>
      </trkpt>
      <trkpt lat="50.12159" lon="4.13864">
        <ele>222</ele>
        <time>2024-05-04T08:06:20Z</time>
      </trkpt>
      <trkpt lat="50.12163" lon="4.13848">
        <ele>221.6</ele>
        <time>2024-05-04T08:06:21Z</time>
      </trkpt>
      <trkpt lat="50.12167" lon="4.13831">
        <ele>221</ele>
        <time>2024-05-04T08:06:22Z</time>
      </trkpt>
      <trkpt lat="50.12172" lon="4.13814">
        <ele>220.2</ele>
        <time>2024-05-04T08:06:23Z</time>
      </trkpt>
      <trkpt lat="50.12178" lon="4.13797">
        <ele>219.2</ele>
        <time>2024-05-04T08:06:24Z</time>
      </trkpt>
      <trkpt lat="50.12185" lon="4.1378">
        <ele>218</ele>
        <time>2024-05-04T08:06:25Z</time>
      </trkpt>
      <trkpt lat="50.12193" lon="4.13764">
        <ele>218</ele>
        <time>2024-05-04T08:06:26Z</time>
      </trkpt>
      <trkpt lat="50.12201" lon="4.13747">
        <ele>217.2</ele>
        <time>2024-05-04T08:06:27Z</time>
      </trkpt>
      <trkpt lat="50.12209" lon="4.13731">
        <ele>216</ele>
        <time>2024-05-04T08:06:28Z</time>
      </trkpt>
      <trkpt lat="50.12217" lon="4.13713">
        <ele>214.8</ele>
        <time>2024-05-04T08:06:29Z</time>
      </trkpt>
      <trkpt lat="50.12225" lon="4.13696">
        <ele>213</ele>
        <time>2024-05-04T08:06:30Z</time>
      </trkpt>
      <trkpt lat="50.12233" lon="4.13679">
        <ele>211.4</ele>
        <time>2024-05-04T08:06:31Z</time>
      </trkpt>
      <trkpt lat="50.1224" lon="4.13663">
        <ele>209.8</ele>
        <time>2024-05-04T08:06:32Z</time>
      </trkpt>
      <trkpt lat="50.12248" lon="4.13647">
        <ele>208.8</ele>
        <time>2024-05-04T08:06:33Z</time>
      </trkpt>
      <trkpt lat="50.12255" lon="4.13631">
        <ele>207</ele>
        <time>2024-05-04T08:06:34Z</time>
      </trkpt>
      <trkpt lat="50.12263" lon="4.13615">
        <ele>205</ele>
        <time>2024-05-04T08:06:35Z</time>
      </trkpt>
      <trkpt lat="50.1227" lon="4.136">
        <ele>203</ele>
        <time>2024-05-04T08:06:36Z</time>
      </trkpt>
      <trkpt lat="50.12277" lon="4.13586">
        <ele>201.4</ele>
        <time>2024-05-04T08:06:37Z</time>
      </trkpt>
      <trkpt lat="50.12284" lon="4.13573">
        <ele>200.4</ele>
        <time>2024-05-04T08:06:38Z</time>
      </trkpt>
      <trkpt lat="50.1229" lon="4.1356">
        <ele>199.8</ele>
        <time>2024-05-04T08:06:39Z</time>
      </trkpt>
      <trkpt lat="50.12296" lon="4.13548">
        <ele>199.6</ele>
        <time>2024-05-04T08:06:40Z</time>
      </trkpt>
      <trkpt lat="50.12301" lon="4.13536">
        <ele>199.4</ele>
        <time>2024-05-04T08:06:41Z</time>
      </trkpt>
      <trkpt lat="50.12306" lon="4.13526">
        <ele>199.4</ele>
        <time>2024-05-04T08:06:42Z</time>
      </trkpt>
      <trkpt lat="50.1231" lon="4.13516">
        <ele>199.4</ele>
        <time>2024-05-04T08:06:43Z</time>
      </trkpt>
      <trkpt lat="50.12315" lon="4.13506">
        <ele>199.4</ele>
        <time>2024-05-04T08:06:44Z</time>
      </trkpt>
      <trkpt lat="50.12318" lon="4.13498">
        <ele>199.2</ele>
        <time>2024-05-04T08:06:45Z</time>
      </trkpt>
      <trkpt lat="50.12322" lon="4.13489">
        <ele>199.4</ele>
        <time>2024-05-04T08:06:46Z</time>
      </trkpt>
      <trkpt lat="50.12325" lon="4.13482">
        <ele>199.4</ele>
        <time>2024-05-04T08:06:47Z</time>
      </trkpt>
      <trkpt lat="50.12328" lon="4.13475">
        <ele>199.4</ele>
        <time>2024-05-04T08:06:48Z</time>
      </trkpt>
      <trkpt lat="50.1233" lon="4.13469">
        <ele>200</ele>
        <time>2024-05-04T08:06:49Z</time>
      </trkpt>
      <trkpt lat="50.12332" lon="4.13463">
        <ele>201</ele>
        <time>2024-05-04T08:06:50Z</time>
      </trkpt>
      <trkpt lat="50.12335" lon="4.13458">
        <ele>202</ele>
        <time>2024-05-04T08:06:51Z</time>
      </trkpt>
      <trkpt lat="50.12337" lon="4.13453">
        <ele>202.6</ele>
        <time>2024-05-04T08:06:52Z</time>
      </trkpt>
      <trkpt lat="50.12339" lon="4.13448">
        <ele>203.2</ele>
        <time>2024-05-04T08:06:53Z</time>
      </trkpt>
      <trkpt lat="50.1234" lon="4.13443">
        <ele>204</ele>
        <time>2024-05-04T08:06:54Z</time>
      </trkpt>
      <trkpt lat="50.12342" lon="4.13438">
        <ele>204.6</ele>
        <time>2024-05-04T08:06:55Z</time>
      </trkpt>
      <trkpt lat="50.12343" lon="4.13433">
        <ele>205.4</ele>
        <time>2024-05-04T08:06:56Z</time>
      </trkpt>
      <trkpt lat="50.12345" lon="4.13428">
        <ele>206.2</ele>
        <time>2024-05-04T08:06:57Z</time>
      </trkpt>
      <trkpt lat="50.12346" lon="4.13423">
        <ele>206.2</ele>
        <time>2024-05-04T08:06:58Z</time>
      </trkpt>
      <trkpt lat="50.12348" lon="4.13418">
        <ele>207.4</ele>
        <time>2024-05-04T08:06:59Z</time>
      </trkpt>
      <trkpt lat="50.12349" lon="4.13413">
        <ele>208.2</ele>
        <time>2024-05-04T08:07:00Z</time>
      </trkpt>
      <trkpt lat="50.12351" lon="4.13409">
        <ele>209</ele>
        <time>2024-05-04T08:07:01Z</time>
      </trkpt>
      <trkpt lat="50.12353" lon="4.13404">
        <ele>209.8</ele>
        <time>2024-05-04T08:07:02Z</time>
      </trkpt>
      <trkpt lat="50.12355" lon="4.13399">
        <ele>210</ele>
        <time>2024-05-04T08:07:03Z</time>
      </trkpt>
      <trkpt lat="50.12357" lon="4.13394">
        <ele>210.2</ele>
        <time>2024-05-04T08:07:04Z</time>
      </trkpt>
      <trkpt lat="50.12358" lon="4.1339">
        <ele>210.6</ele>
        <time>2024-05-04T08:07:05Z</time>
      </trkpt>
      <trkpt lat="50.1236" lon="4.13385">
        <ele>211</ele>
        <time>2024-05-04T08:07:06Z</time>
      </trkpt>
      <trkpt lat="50.12361" lon="4.1338">
        <ele>211.6</ele>
        <time>2024-05-04T08:07:07Z</time>
      </trkpt>
      <trkpt lat="50.12363" lon="4.13374">
        <ele>211.8</ele>
        <time>2024-05-04T08:07:08Z</time>
      </trkpt>
      <trkpt lat="50.12364" lon="4.13369">
        <ele>212</ele>
        <time>2024-05-04T08:07:09Z</time>
      </trkpt>
      <trkpt lat="50.12365" lon="4.13364">
        <ele>212</ele>
        <time>2024-05-04T08:07:10Z</time>
      </trkpt>
      <trkpt lat="50.12367" lon="4.13359">
        <ele>212.2</ele>
        <time>2024-05-04T08:07:11Z</time>
      </trkpt>
      <trkpt lat="50.12368" lon="4.13354">
        <ele>212.4</ele>
        <time>2024-05-04T08:07:12Z</time>
      </trkpt>
      <trkpt lat="50.1237" lon="4.13349">
        <ele>212.8</ele>
        <time>2024-05-04T08:07:13Z</time>
      </trkpt>
      <trkpt lat="50.12372" lon="4.13344">
        <ele>213</ele>
        <time>2024-05-04T08:07:14Z</time>
      </trkpt>
      <trkpt lat="50.12373" lon="4.13339">
        <ele>213</ele>
        <time>2024-05-04T08:07:15Z</time>
      </trkpt>
      <trkpt lat="50.12375" lon="4.13334">
        <ele>213</ele>
        <time>2024-05-04T08:07:16Z</time>
      </trkpt>
      <trkpt lat="50.12376" lon="4.13328">
        <ele>213.4</ele>
        <time>2024-05-04T08:07:17Z</time>
      </trkpt>
      <trkpt lat="50.12378" lon="4.13323">
        <ele>214.2</ele>
        <time>2024-05-04T08:07:18Z</time>
      </trkpt>
      <trkpt lat="50.12379" lon="4.13317">
        <ele>214.6</ele>
        <time>2024-05-04T08:07:19Z</time>
      </trkpt>
      <trkpt lat="50.12381" lon="4.13312">
        <ele>214.8</ele>
        <time>2024-05-04T08:07:20Z</time>
      </trkpt>
      <trkpt lat="50.12383" lon="4.13306">
        <ele>215</ele>
        <time>2024-05-04T08:07:21Z</time>
      </trkpt>
      <trkpt lat="50.12385" lon="4.13301">
        <ele>215.4</ele>
        <time>2024-05-04T08:07:22Z</time>
      </trkpt>
      <trkpt lat="50.12387" lon="4.13295">
        <ele>215.6</ele>
        <time>2024-05-04T08:07:23Z</time>
      </trkpt>
      <trkpt lat="50.12388" lon="4.1329">
        <ele>215.8</ele>
        <time>2024-05-04T08:07:24Z</time>
      </trkpt>
      <trkpt lat="50.1239" lon="4.13284">
        <ele>216</ele>
        <time>2024-05-04T08:07:25Z</time>
      </trkpt>
      <trkpt lat="50.12392" lon="4.13278">
        <ele>216.2</ele>
        <time>2024-05-04T08:07:26Z</time>
      </trkpt>
      <trkpt lat="50.12394" lon="4.13273">
        <ele>216.6</ele>
        <time>2024-05-04T08:07:27Z</time>
      </trkpt>
      <trkpt lat="50.12396" lon="4.13267">
        <ele>217</ele>
        <time>2024-05-04T08:07:28Z</time>
      </trkpt>
      <trkpt lat="50.12397" lon="4.13261">
        <ele>217.2</ele>
        <time>2024-05-04T08:07:29Z</time>
      </trkpt>
      <trkpt lat="50.12399" lon="4.13255">
        <ele>217.6</ele>
        <time>2024-05-04T08:07:30Z</time>
      </trkpt>
      <trkpt lat="50.12401" lon="4.13249">
        <ele>217.6</ele>
        <time>2024-05-04T08:07:31Z</time>
      </trkpt>
      <trkpt lat="50.12402" lon="4.13243">
        <ele>217.8</ele>
        <time>2024-05-04T08:07:32Z</time>
      </trkpt>
      <trkpt lat="50.12404" lon="4.13237">
        <ele>218</ele>
        <time>2024-05-04T08:07:33Z</time>
      </trkpt>
      <trkpt lat="50.12406" lon="4.13231">
        <ele>218</ele>
        <time>2024-05-04T08:07:34Z</time>
      </trkpt>
      <trkpt lat="50.12408" lon="4.13225">
        <ele>218</ele>
        <time>2024-05-04T08:07:35Z</time>
      </trkpt>
      <trkpt lat="50.1241" lon="4.13218">
        <ele>218.2</ele>
        <time>2024-05-04T08:07:36Z</time>
      </trkpt>
      <trkpt lat="50.12412" lon="4.13212">
        <ele>218.2</ele>
        <time>2024-05-04T08:07:37Z</time>
      </trkpt>
      <trkpt lat="50.12413" lon="4.13205">
        <ele>218.2</ele>
        <time>2024-05-04T08:07:38Z</time>
      </trkpt>
      <trkpt lat="50.12415" lon="4.13198">
        <ele>218.2</ele>
        <time>2024-05-04T08:07:39Z</time>
      </trkpt>
      <trkpt lat="50.12418" lon="4.13191">
        <ele>218</ele>
        <time>2024-05-04T08:07:40Z</time>
      </trkpt>
      <trkpt lat="50.1242" lon="4.13184">
        <ele>218.2</ele>
        <time>2024-05-04T08:07:41Z</time>
      </trkpt>
      <trkpt lat="50.12422" lon="4.13176">
        <ele>218.2</ele>
        <time>2024-05-04T08:07:42Z</time>
      </trkpt>
      <trkpt lat="50.12424" lon="4.13169">
        <ele>218.2</ele>
        <time>2024-05-04T08:07:43Z</time>
      </trkpt>
      <trkpt lat="50.12427" lon="4.13161">
        <ele>218.2</ele>
        <time>2024-05-04T08:07:44Z</time>
      </trkpt>
      <trkpt lat="50.12429" lon="4.13152">
        <ele>218.2</ele>
        <time>2024-05-04T08:07:45Z</time>
      </trkpt>
      <trkpt lat="50.12432" lon="4.13144">
        <ele>218.2</ele>
        <time>2024-05-04T08:07:46Z</time>
      </trkpt>
      <trkpt lat="50.12434" lon="4.13135">
        <ele>217.8</ele>
        <time>2024-05-04T08:07:47Z</time>
      </trkpt>
      <trkpt lat="50.12437" lon="4.13126">
        <ele>217.6</ele>
        <time>2024-05-04T08:07:48Z</time>
      </trkpt>
      <trkpt lat="50.1244" lon="4.13116">
        <ele>217.4</ele>
        <time>2024-05-04T08:07:49Z</time>
      </trkpt>
      <trkpt lat="50.12442" lon="4.13106">
        <ele>217.4</ele>
        <time>2024-05-04T08:07:50Z</time>
      </trkpt>
      <trkpt lat="50.12444" lon="4.13096">
        <ele>217.4</ele>
        <time>2024-05-04T08:07:51Z</time>
      </trkpt>
      <trkpt lat="50.12447" lon="4.13084">
        <ele>217</ele>
        <time>2024-05-04T08:07:52Z</time>
      </trkpt>
      <trkpt lat="50.1245" lon="4.13073">
        <ele>217.2</ele>
        <time>2024-05-04T08:07:53Z</time>
      </trkpt>
      <trkpt lat="50.12452" lon="4.1306">
        <ele>217</ele>
        <time>2024-05-04T08:07:54Z</time>
      </trkpt>
      <trkpt lat="50.12454" lon="4.13048">
        <ele>216.8</ele>
        <time>2024-05-04T08:07:55Z</time>
      </trkpt>
      <trkpt lat="50.12456" lon="4.13034">
        <ele>216.6</ele>
        <time>2024-05-04T08:07:56Z</time>
      </trkpt>
      <trkpt lat="50.12458" lon="4.1302">
        <ele>216.6</ele>
        <time>2024-05-04T08:07:57Z</time>
      </trkpt>
      <trkpt lat="50.12461" lon="4.13005">
        <ele>216.4</ele>
        <time>2024-05-04T08:07:58Z</time>
      </trkpt>
      <trkpt lat="50.12463" lon="4.12989">
        <ele>216.4</ele>
        <time>2024-05-04T08:07:59Z</time>
      </trkpt>
      <trkpt lat="50.12466" lon="4.12973">
        <ele>216.2</ele>
        <time>2024-05-04T08:08:00Z</time>
      </trkpt>
      <trkpt lat="50.12468" lon="4.12956">
        <ele>216</ele>
        <time>2024-05-04T08:08:01Z</time>
      </trkpt>
      <trkpt lat="50.12471" lon="4.12938">
        <ele>215.4</ele>
        <time>2024-05-04T08:08:02Z</time>
      </trkpt>
      <trkpt lat="50.12474" lon="4.12919">
        <ele>215.2</ele>
        <time>2024-05-04T08:08:03Z</time>
      </trkpt>
      <trkpt lat="50.12477" lon="4.12901">
        <ele>214.6</ele>
        <time>2024-05-04T08:08:04Z</time>
      </trkpt>
      <trkpt lat="50.12479" lon="4.12881">
        <ele>214.6</ele>
        <time>2024-05-04T08:08:05Z</time>
      </trkpt>
      <trkpt lat="50.12481" lon="4.12861">
        <ele>213.6</ele>
        <time>2024-05-04T08:08:06Z</time>
      </trkpt>
      <trkpt lat="50.12482" lon="4.12841">
        <ele>212.6</ele>
        <time>2024-05-04T08:08:07Z</time>
      </trkpt>
      <trkpt lat="50.12483" lon="4.1282">
        <ele>211.6</ele>
        <time>2024-05-04T08:08:08Z</time>
      </trkpt>
      <trkpt lat="50.12482" lon="4.128">
        <ele>210</ele>
        <time>2024-05-04T08:08:09Z</time>
      </trkpt>
      <trkpt lat="50.1248" lon="4.12779">
        <ele>209</ele>
        <time>2024-05-04T08:08:10Z</time>
      </trkpt>
      <trkpt lat="50.12477" lon="4.12759">
        <ele>207.2</ele>
        <time>2024-05-04T08:08:11Z</time>
      </trkpt>
      <trkpt lat="50.12474" lon="4.12739">
        <ele>205.6</ele>
        <time>2024-05-04T08:08:12Z</time>
      </trkpt>
      <trkpt lat="50.1247" lon="4.1272">
        <ele>204.8</ele>
        <time>2024-05-04T08:08:13Z</time>
      </trkpt>
      <trkpt lat="50.12465" lon="4.12702">
        <ele>202.6</ele>
        <time>2024-05-04T08:08:14Z</time>
      </trkpt>
      <trkpt lat="50.12459" lon="4.12685">
        <ele>200.6</ele>
        <time>2024-05-04T08:08:15Z</time>
      </trkpt>
      <trkpt lat="50.12453" lon="4.12669">
        <ele>198.4</ele>
        <time>2024-05-04T08:08:16Z</time>
      </trkpt>
      <trkpt lat="50.12446" lon="4.12653">
        <ele>196.4</ele>
        <time>2024-05-04T08:08:17Z</time>
      </trkpt>
      <trkpt lat="50.12439" lon="4.1264">
        <ele>195.6</ele>
        <time>2024-05-04T08:08:18Z</time>
      </trkpt>
      <trkpt lat="50.12433" lon="4.12628">
        <ele>195</ele>
        <time>2024-05-04T08:08:19Z</time>
      </trkpt>
      <trkpt lat="50.12426" lon="4.12617">
        <ele>194.6</ele>
        <time>2024-05-04T08:08:20Z</time>
      </trkpt>
      <trkpt lat="50.1242" lon="4.12606">
        <ele>194.4</ele>
        <time>2024-05-04T08:08:21Z</time>
      </trkpt>
      <trkpt lat="50.12414" lon="4.12595">
        <ele>194.4</ele>
        <time>2024-05-04T08:08:22Z</time>
      </trkpt>
      <trkpt lat="50.1241" lon="4.12584">
        <ele>194.4</ele>
        <time>2024-05-04T08:08:23Z</time>
      </trkpt>
      <trkpt lat="50.12407" lon="4.12573">
        <ele>194.2</ele>
        <time>2024-05-04T08:08:24Z</time>
      </trkpt>
      <trkpt lat="50.12404" lon="4.12562">
        <ele>194.4</ele>
        <time>2024-05-04T08:08:25Z</time>
      </trkpt>
      <trkpt lat="50.12402" lon="4.12552">
        <ele>194.4</ele>
        <time>2024-05-04T08:08:26Z</time>
      </trkpt>
      <trkpt lat="50.12399" lon="4.12543">
        <ele>194.2</ele>
        <time>2024-05-04T08:08:27Z</time>
      </trkpt>
      <trkpt lat="50.12395" lon="4.12535">
        <ele>194.4</ele>
        <time>2024-05-04T08:08:28Z</time>
      </trkpt>
      <trkpt lat="50.12391" lon="4.12527">
        <ele>194.4</ele>
        <time>2024-05-04T08:08:29Z</time>
      </trkpt>
      <trkpt lat="50.12385" lon="4.12522">
        <ele>194.6</ele>
        <time>2024-05-04T08:08:30Z</time>
      </trkpt>
      <trkpt lat="50.12378" lon="4.12517">
        <ele>195.4</ele>
        <time>2024-05-04T08:08:31Z</time>
      </trkpt>
      <trkpt lat="50.12371" lon="4.12512">
        <ele>195.6</ele>
        <time>2024-05-04T08:08:32Z</time>
      </trkpt>
      <trkpt lat="50.12364" lon="4.12509">
        <ele>196</ele>
        <time>2024-05-04T08:08:33Z</time>
      </trkpt>
      <trkpt lat="50.12356" lon="4.12505">
        <ele>196</ele>
        <time>2024-05-04T08:08:34Z</time>
      </trkpt>
      <trkpt lat="50.12349" lon="4.125">
        <ele>196</ele>
        <time>2024-05-04T08:08:35Z</time>
      </trkpt>
      <trkpt lat="50.12341" lon="4.12494">
        <ele>196</ele>
        <time>2024-05-04T08:08:36Z</time>
      </trkpt>
      <trkpt lat="50.12334" lon="4.12486">
        <ele>196</ele>
        <time>2024-05-04T08:08:37Z</time>
      </trkpt>
      <trkpt lat="50.12328" lon="4.12476">
        <ele>196</ele>
        <time>2024-05-04T08:08:38Z</time>
      </trkpt>
      <trkpt lat="50.12321" lon="4.12465">
        <ele>196</ele>
        <time>2024-05-04T08:08:39Z</time>
      </trkpt>
      <trkpt lat="50.12316" lon="4.12453">
        <ele>196.2</ele>
        <time>2024-05-04T08:08:40Z</time>
      </trkpt>
      <trkpt lat="50.12311" lon="4.1244">
        <ele>195.8</ele>
        <time>2024-05-04T08:08:41Z</time>
      </trkpt>
      <trkpt lat="50.12306" lon="4.12426">
        <ele>195.8</ele>
        <time>2024-05-04T08:08:42Z</time>
      </trkpt>
      <trkpt lat="50.12302" lon="4.12412">
        <ele>195.8</ele>
        <time>2024-05-04T08:08:43Z</time>
      </trkpt>
      <trkpt lat="50.12297" lon="4.12398">
        <ele>195.6</ele>
        <time>2024-05-04T08:08:44Z</time>
      </trkpt>
      <trkpt lat="50.12293" lon="4.12384">
        <ele>194.6</ele>
        <time>2024-05-04T08:08:45Z</time>
      </trkpt>
      <trkpt lat="50.12288" lon="4.12371">
        <ele>194.2</ele>
        <time>2024-05-04T08:08:46Z</time>
      </trkpt>
      <trkpt lat="50.12284" lon="4.12357">
        <ele>193.4</ele>
        <time>2024-05-04T08:08:47Z</time>
      </trkpt>
      <trkpt lat="50.12279" lon="4.12343">
        <ele>193</ele>
        <time>2024-05-04T08:08:48Z</time>
      </trkpt>
      <trkpt lat="50.12275" lon="4.1233">
        <ele>192.6</ele>
        <time>2024-05-04T08:08:49Z</time>
      </trkpt>
      <trkpt lat="50.12271" lon="4.12317">
        <ele>192</ele>
        <time>2024-05-04T08:08:50Z</time>
      </trkpt>
      <trkpt lat="50.12267" lon="4.12303">
        <ele>191.6</ele>
        <time>2024-05-04T08:08:51Z</time>
      </trkpt>
      <trkpt lat="50.12263" lon="4.1229">
        <ele>191.2</ele>
        <time>2024-05-04T08:08:52Z</time>
      </trkpt>
      <trkpt lat="50.1226" lon="4.12277">
        <ele>191</ele>
        <time>2024-05-04T08:08:53Z</time>
      </trkpt>
      <trkpt lat="50.12257" lon="4.12264">
        <ele>191</ele>
        <time>2024-05-04T08:08:54Z</time>
      </trkpt>
      <trkpt lat="50.12254" lon="4.12251">
        <ele>190.8</ele>
        <time>2024-05-04T08:08:55Z</time>
      </trkpt>
      <trkpt lat="50.12252" lon="4.12238">
        <ele>190.8</ele>
        <time>2024-05-04T08:08:56Z</time>
      </trkpt>
      <trkpt lat="50.1225" lon="4.12225">
        <ele>190.8</ele>
        <time>2024-05-04T08:08:57Z</time>
      </trkpt>
      <trkpt lat="50.12248" lon="4.12211">
        <ele>190.8</ele>
        <time>2024-05-04T08:08:58Z</time>
      </trkpt>
      <trkpt lat="50.12246" lon="4.12199">
        <ele>190.6</ele>
        <time>2024-05-04T08:08:59Z</time>
      </trkpt>
      <trkpt lat="50.12244" lon="4.12186">
        <ele>190.6</ele>
        <time>2024-05-04T08:09:00Z</time>
      </trkpt>
      <trkpt lat="50.12243" lon="4.12173">
        <ele>190.6</ele>
        <time>2024-05-04T08:09:01Z</time>
      </trkpt>
      <trkpt lat="50.12242" lon="4.1216">
        <ele>190.6</ele>
        <time>2024-05-04T08:09:02Z</time>
      </trkpt>
      <trkpt lat="50.12241" lon="4.12147">
        <ele>190.6</ele>
        <time>2024-05-04T08:09:03Z</time>
      </trkpt>
      <trkpt lat="50.12239" lon="4.12134">
        <ele>190.6</ele>
        <time>2024-05-04T08:09:04Z</time>
      </trkpt>
      <trkpt lat="50.12238" lon="4.12121">
        <ele>190.6</ele>
        <time>2024-05-04T08:09:05Z</time>
      </trkpt>
      <trkpt lat="50.12237" lon="4.12108">
        <ele>190.6</ele>
        <time>2024-05-04T08:09:06Z</time>
      </trkpt>
      <trkpt lat="50.12236" lon="4.12095">
        <ele>190.6</ele>
        <time>2024-05-04T08:09:07Z</time>
      </trkpt>
      <trkpt lat="50.12235" lon="4.12081">
        <ele>190.6</ele>
        <time>2024-05-04T08:09:08Z</time>
      </trkpt>
      <trkpt lat="50.12233" lon="4.12068">
        <ele>190.4</ele>
        <time>2024-05-04T08:09:09Z</time>
      </trkpt>
      <trkpt lat="50.12231" lon="4.12054">
        <ele>190.4</ele>
        <time>2024-05-04T08:09:10Z</time>
      </trkpt>
      <trkpt lat="50.1223" lon="4.1204">
        <ele>190.4</ele>
        <time>2024-05-04T08:09:11Z</time>
      </trkpt>
      <trkpt lat="50.12228" lon="4.12025">
        <ele>190.4</ele>
        <time>2024-05-04T08:09:12Z</time>
      </trkpt>
      <trkpt lat="50.12226" lon="4.12011">
        <ele>190.4</ele>
        <time>2024-05-04T08:09:13Z</time>
      </trkpt>
      <trkpt lat="50.12223" lon="4.11996">
        <ele>190.4</ele>
        <time>2024-05-04T08:09:14Z</time>
      </trkpt>
      <trkpt lat="50.12221" lon="4.11981">
        <ele>190.4</ele>
        <time>2024-05-04T08:09:15Z</time>
      </trkpt>
      <trkpt lat="50.12218" lon="4.11965">
        <ele>190.2</ele>
        <time>2024-05-04T08:09:16Z</time>
      </trkpt>
      <trkpt lat="50.12215" lon="4.1195">
        <ele>190.2</ele>
        <time>2024-05-04T08:09:17Z</time>
      </trkpt>
      <trkpt lat="50.12211" lon="4.11934">
        <ele>190.4</ele>
        <time>2024-05-04T08:09:18Z</time>
      </trkpt>
      <trkpt lat="50.12208" lon="4.11918">
        <ele>190.2</ele>
        <time>2024-05-04T08:09:19Z</time>
      </trkpt>
      <trkpt lat="50.12205" lon="4.11903">
        <ele>189.2</ele>
        <time>2024-05-04T08:09:20Z</time>
      </trkpt>
      <trkpt lat="50.12202" lon="4.11888">
        <ele>188.4</ele>
        <time>2024-05-04T08:09:21Z</time>
      </trkpt>
      <trkpt lat="50.12199" lon="4.11873">
        <ele>187.4</ele>
        <time>2024-05-04T08:09:22Z</time>
      </trkpt>
      <trkpt lat="50.12196" lon="4.11858">
        <ele>186.4</ele>
        <time>2024-05-04T08:09:23Z</time>
      </trkpt>
      <trkpt lat="50.12193" lon="4.11844">
        <ele>185.8</ele>
        <time>2024-05-04T08:09:24Z</time>
      </trkpt>
      <trkpt lat="50.1219" lon="4.11829">
        <ele>185.4</ele>
        <time>2024-05-04T08:09:25Z</time>
      </trkpt>
      <trkpt lat="50.12188" lon="4.11815">
        <ele>184.8</ele>
        <time>2024-05-04T08:09:26Z</time>
      </trkpt>
      <trkpt lat="50.12185" lon="4.11801">
        <ele>184</ele>
        <time>2024-05-04T08:09:27Z</time>
      </trkpt>
      <trkpt lat="50.12182" lon="4.11787">
        <ele>183.8</ele>
        <time>2024-05-04T08:09:28Z</time>
      </trkpt>
      <trkpt lat="50.12179" lon="4.11774">
        <ele>183.6</ele>
        <time>2024-05-04T08:09:29Z</time>
      </trkpt>
      <trkpt lat="50.12176" lon="4.11761">
        <ele>183.6</ele>
        <time>2024-05-04T08:09:30Z</time>
      </trkpt>
      <trkpt lat="50.12174" lon="4.11747">
        <ele>183.4</ele>
        <time>2024-05-04T08:09:31Z</time>
      </trkpt>
      <trkpt lat="50.12171" lon="4.11734">
        <ele>182.8</ele>
        <time>2024-05-04T08:09:32Z</time>
      </trkpt>
      <trkpt lat="50.12169" lon="4.11721">
        <ele>182.6</ele>
        <time>2024-05-04T08:09:33Z</time>
      </trkpt>
      <trkpt lat="50.12166" lon="4.11709">
        <ele>182.4</ele>
        <time>2024-05-04T08:09:34Z</time>
      </trkpt>
      <trkpt lat="50.12164" lon="4.11696">
        <ele>182.6</ele>
        <time>2024-05-04T08:09:35Z</time>
      </trkpt>
      <trkpt lat="50.12161" lon="4.11684">
        <ele>182.4</ele>
        <time>2024-05-04T08:09:36Z</time>
      </trkpt>
      <trkpt lat="50.12159" lon="4.11672">
        <ele>182.4</ele>
        <time>2024-05-04T08:09:37Z</time>
      </trkpt>
      <trkpt lat="50.12156" lon="4.1166">
        <ele>182.4</ele>
        <time>2024-05-04T08:09:38Z</time>
      </trkpt>
      <trkpt lat="50.12154" lon="4.11648">
        <ele>182.4</ele>
        <time>2024-05-04T08:09:39Z</time>
      </trkpt>
      <trkpt lat="50.12152" lon="4.11637">
        <ele>182.4</ele>
        <time>2024-05-04T08:09:40Z</time>
      </trkpt>
      <trkpt lat="50.1215" lon="4.11627">
        <ele>182.4</ele>
        <time>2024-05-04T08:09:41Z</time>
      </trkpt>
      <trkpt lat="50.12148" lon="4.11617">
        <ele>182.6</ele>
        <time>2024-05-04T08:09:42Z</time>
      </trkpt>
      <trkpt lat="50.12146" lon="4.11608">
        <ele>183.2</ele>
        <time>2024-05-04T08:09:43Z</time>
      </trkpt>
      <trkpt lat="50.12144" lon="4.11599">
        <ele>183.4</ele>
        <time>2024-05-04T08:09:44Z</time>
      </trkpt>
      <trkpt lat="50.12142" lon="4.1159">
        <ele>183.6</ele>
        <time>2024-05-04T08:09:45Z</time>
      </trkpt>
      <trkpt lat="50.1214" lon="4.11582">
        <ele>183.8</ele>
        <time>2024-05-04T08:09:46Z</time>
      </trkpt>
      <trkpt lat="50.12137" lon="4.11574">
        <ele>183.8</ele>
        <time>2024-05-04T08:09:47Z</time>
      </trkpt>
      <trkpt lat="50.12135" lon="4.11566">
        <ele>183.8</ele>
        <time>2024-05-04T08:09:48Z</time>
      </trkpt>
      <trkpt lat="50.12133" lon="4.11559">
        <ele>184.2</ele>
        <time>2024-05-04T08:09:49Z</time>
      </trkpt>
      <trkpt lat="50.12131" lon="4.11551">
        <ele>184.2</ele>
        <time>2024-05-04T08:09:50Z</time>
      </trkpt>
      <trkpt lat="50.12128" lon="4.11544">
        <ele>184.6</ele>
        <time>2024-05-04T08:09:51Z</time>
      </trkpt>
      <trkpt lat="50.12126" lon="4.11536">
        <ele>184.6</ele>
        <time>2024-05-04T08:09:52Z</time>
      </trkpt>
      <trkpt lat="50.12124" lon="4.11529">
        <ele>184.8</ele>
        <time>2024-05-04T08:09:53Z</time>
      </trkpt>
      <trkpt lat="50.12121" lon="4.11522">
        <ele>185</ele>
        <time>2024-05-04T08:09:54Z</time>
      </trkpt>
      <trkpt lat="50.12118" lon="4.11515">
        <ele>185</ele>
        <time>2024-05-04T08:09:55Z</time>
      </trkpt>
      <trkpt lat="50.12116" lon="4.11507">
        <ele>185.6</ele>
        <time>2024-05-04T08:09:56Z</time>
      </trkpt>
      <trkpt lat="50.12113" lon="4.115">
        <ele>186</ele>
        <time>2024-05-04T08:09:57Z</time>
      </trkpt>
      <trkpt lat="50.1211" lon="4.11493">
        <ele>186.8</ele>
        <time>2024-05-04T08:09:58Z</time>
      </trkpt>
      <trkpt lat="50.12108" lon="4.11485">
        <ele>187.2</ele>
        <time>2024-05-04T08:09:59Z</time>
      </trkpt>
      <trkpt lat="50.12105" lon="4.11478">
        <ele>187.4</ele>
        <time>2024-05-04T08:10:00Z</time>
      </trkpt>
      <trkpt lat="50.12103" lon="4.1147">
        <ele>187.8</ele>
        <time>2024-05-04T08:10:01Z</time>
      </trkpt>
      <trkpt lat="50.121" lon="4.11463">
        <ele>188</ele>
        <time>2024-05-04T08:10:02Z</time>
      </trkpt>
      <trkpt lat="50.12097" lon="4.11456">
        <ele>188</ele>
        <time>2024-05-04T08:10:03Z</time>
      </trkpt>
      <trkpt lat="50.12095" lon="4.11449">
        <ele>188.2</ele>
        <time>2024-05-04T08:10:04Z</time>
      </trkpt>
      <trkpt lat="50.12092" lon="4.11442">
        <ele>188.4</ele>
        <time>2024-05-04T08:10:05Z</time>
      </trkpt>
      <trkpt lat="50.1209" lon="4.11436">
        <ele>188.6</ele>
        <time>2024-05-04T08:10:06Z</time>
      </trkpt>
      <trkpt lat="50.12087" lon="4.11429">
        <ele>188.8</ele>
        <time>2024-05-04T08:10:07Z</time>
      </trkpt>
      <trkpt lat="50.12085" lon="4.11422">
        <ele>189</ele>
        <time>2024-05-04T08:10:08Z</time>
      </trkpt>
      <trkpt lat="50.12082" lon="4.11415">
        <ele>189.2</ele>
        <time>2024-05-04T08:10:09Z</time>
      </trkpt>
      <trkpt lat="50.1208" lon="4.11408">
        <ele>189.4</ele>
        <time>2024-05-04T08:10:10Z</time>
      </trkpt>
      <trkpt lat="50.12077" lon="4.11401">
        <ele>189.4</ele>
        <time>2024-05-04T08:10:11Z</time>
      </trkpt>
      <trkpt lat="50.12075" lon="4.11393">
        <ele>190</ele>
        <time>2024-05-04T08:10:12Z</time>
      </trkpt>
      <trkpt lat="50.12073" lon="4.11386">
        <ele>190.4</ele>
        <time>2024-05-04T08:10:13Z</time>
      </trkpt>
      <trkpt lat="50.1207" lon="4.11379">
        <ele>190.6</ele>
        <time>2024-05-04T08:10:14Z</time>
      </trkpt>
      <trkpt lat="50.12068" lon="4.11371">
        <ele>190.6</ele>
        <time>2024-05-04T08:10:15Z</time>
      </trkpt>
      <trkpt lat="50.12066" lon="4.11363">
        <ele>190.6</ele>
        <time>2024-05-04T08:10:16Z</time>
      </trkpt>
      <trkpt lat="50.12063" lon="4.11355">
        <ele>190.8</ele>
        <time>2024-05-04T08:10:17Z</time>
      </trkpt>
      <trkpt lat="50.12061" lon="4.11347">
        <ele>190.8</ele>
        <time>2024-05-04T08:10:18Z</time>
      </trkpt>
      <trkpt lat="50.12059" lon="4.11339">
        <ele>190.8</ele>
        <time>2024-05-04T08:10:19Z</time>
      </trkpt>
      <trkpt lat="50.12057" lon="4.1133">
        <ele>190.8</ele>
        <time>2024-05-04T08:10:20Z</time>
      </trkpt>
      <trkpt lat="50.12055" lon="4.11321">
        <ele>190.8</ele>
        <time>2024-05-04T08:10:21Z</time>
      </trkpt>
      <trkpt lat="50.12052" lon="4.11312">
        <ele>190.8</ele>
        <time>2024-05-04T08:10:22Z</time>
      </trkpt>
      <trkpt lat="50.1205" lon="4.11303">
        <ele>190.8</ele>
        <time>2024-05-04T08:10:23Z</time>
      </trkpt>
      <trkpt lat="50.12049" lon="4.11293">
        <ele>191</ele>
        <time>2024-05-04T08:10:24Z</time>
      </trkpt>
      <trkpt lat="50.12047" lon="4.11284">
        <ele>190.8</ele>
        <time>2024-05-04T08:10:25Z</time>
      </trkpt>
      <trkpt lat="50.12045" lon="4.11273">
        <ele>190.8</ele>
        <time>2024-05-04T08:10:26Z</time>
      </trkpt>
      <trkpt lat="50.12043" lon="4.11263">
        <ele>190.8</ele>
        <time>2024-05-04T08:10:27Z</time>
      </trkpt>
      <trkpt lat="50.12042" lon="4.11251">
        <ele>190.6</ele>
        <time>2024-05-04T08:10:28Z</time>
      </trkpt>
      <trkpt lat="50.1204" lon="4.1124">
        <ele>190.4</ele>
        <time>2024-05-04T08:10:29Z</time>
      </trkpt>
      <trkpt lat="50.12038" lon="4.11228">
        <ele>190.2</ele>
        <time>2024-05-04T08:10:30Z</time>
      </trkpt>
      <trkpt lat="50.12037" lon="4.11215">
        <ele>190</ele>
        <time>2024-05-04T08:10:31Z</time>
      </trkpt>
      <trkpt lat="50.12035" lon="4.11202">
        <ele>190</ele>
        <time>2024-05-04T08:10:32Z</time>
      </trkpt>
      <trkpt lat="50.12034" lon="4.11189">
        <ele>189.6</ele>
        <time>2024-05-04T08:10:33Z</time>
      </trkpt>
      <trkpt lat="50.12034" lon="4.11174">
        <ele>189.6</ele>
        <time>2024-05-04T08:10:34Z</time>
      </trkpt>
      <trkpt lat="50.12033" lon="4.1116">
        <ele>189.6</ele>
        <time>2024-05-04T08:10:35Z</time>
      </trkpt>
      <trkpt lat="50.12033" lon="4.11144">
        <ele>189.4</ele>
        <time>2024-05-04T08:10:36Z</time>
      </trkpt>
      <trkpt lat="50.12032" lon="4.11129">
        <ele>189.2</ele>
        <time>2024-05-04T08:10:37Z</time>
      </trkpt>
      <trkpt lat="50.12032" lon="4.11113">
        <ele>189.2</ele>
        <time>2024-05-04T08:10:38Z</time>
      </trkpt>
      <trkpt lat="50.12031" lon="4.11097">
        <ele>189</ele>
        <time>2024-05-04T08:10:39Z</time>
      </trkpt>
      <trkpt lat="50.12031" lon="4.1108">
        <ele>188.8</ele>
        <time>2024-05-04T08:10:40Z</time>
      </trkpt>
      <trkpt lat="50.1203" lon="4.11064">
        <ele>188.2</ele>
        <time>2024-05-04T08:10:41Z</time>
      </trkpt>
      <trkpt lat="50.1203" lon="4.11048">
        <ele>187.8</ele>
        <time>2024-05-04T08:10:42Z</time>
      </trkpt>
      <trkpt lat="50.12029" lon="4.11032">
        <ele>186.8</ele>
        <time>2024-05-04T08:10:43Z</time>
      </trkpt>
      <trkpt lat="50.12028" lon="4.11017">
        <ele>186</ele>
        <time>2024-05-04T08:10:44Z</time>
      </trkpt>
      <trkpt lat="50.12028" lon="4.11002">
        <ele>185.4</ele>
        <time>2024-05-04T08:10:45Z</time>
      </trkpt>
      <trkpt lat="50.12027" lon="4.10988">
        <ele>184.6</ele>
        <time>2024-05-04T08:10:46Z</time>
      </trkpt>
      <trkpt lat="50.12027" lon="4.10974">
        <ele>183.6</ele>
        <time>2024-05-04T08:10:47Z</time>
      </trkpt>
      <trkpt lat="50.12026" lon="4.1096">
        <ele>183.2</ele>
        <time>2024-05-04T08:10:48Z</time>
      </trkpt>
      <trkpt lat="50.12026" lon="4.10947">
        <ele>183</ele>
        <time>2024-05-04T08:10:49Z</time>
      </trkpt>
      <trkpt lat="50.12025" lon="4.10935">
        <ele>182.8</ele>
        <time>2024-05-04T08:10:50Z</time>
      </trkpt>
      <trkpt lat="50.12024" lon="4.10922">
        <ele>182.6</ele>
        <time>2024-05-04T08:10:51Z</time>
      </trkpt>
      <trkpt lat="50.12023" lon="4.10909">
        <ele>182.6</ele>
        <time>2024-05-04T08:10:52Z</time>
      </trkpt>
      <trkpt lat="50.12022" lon="4.10897">
        <ele>182.6</ele>
        <time>2024-05-04T08:10:53Z</time>
      </trkpt>
      <trkpt lat="50.12021" lon="4.10885">
        <ele>182.6</ele>
        <time>2024-05-04T08:10:54Z</time>
      </trkpt>
      <trkpt lat="50.1202" lon="4.10873">
        <ele>182.6</ele>
        <time>2024-05-04T08:10:55Z</time>
      </trkpt>
      <trkpt lat="50.12019" lon="4.10861">
        <ele>182.6</ele>
        <time>2024-05-04T08:10:56Z</time>
      </trkpt>
      <trkpt lat="50.12017" lon="4.10849">
        <ele>182.8</ele>
        <time>2024-05-04T08:10:57Z</time>
      </trkpt>
      <trkpt lat="50.12016" lon="4.10838">
        <ele>183</ele>
        <time>2024-05-04T08:10:58Z</time>
      </trkpt>
      <trkpt lat="50.12014" lon="4.10826">
        <ele>183.2</ele>
        <time>2024-05-04T08:10:59Z</time>
      </trkpt>
      <trkpt lat="50.12013" lon="4.10815">
        <ele>183.4</ele>
        <time>2024-05-04T08:11:00Z</time>
      </trkpt>
      <trkpt lat="50.12011" lon="4.10804">
        <ele>183.6</ele>
        <time>2024-05-04T08:11:01Z</time>
      </trkpt>
      <trkpt lat="50.12009" lon="4.10793">
        <ele>183.8</ele>
        <time>2024-05-04T08:11:02Z</time>
      </trkpt>
      <trkpt lat="50.12007" lon="4.10782">
        <ele>184</ele>
        <time>2024-05-04T08:11:03Z</time>
      </trkpt>
      <trkpt lat="50.12006" lon="4.10772">
        <ele>184</ele>
        <time>2024-05-04T08:11:04Z</time>
      </trkpt>
      <trkpt lat="50.12004" lon="4.10761">
        <ele>184.2</ele>
        <time>2024-05-04T08:11:05Z</time>
      </trkpt>
      <trkpt lat="50.12003" lon="4.10751">
        <ele>184.4</ele>
        <time>2024-05-04T08:11:06Z</time>
      </trkpt>
      <trkpt lat="50.12001" lon="4.1074">
        <ele>184.6</ele>
        <time>2024-05-04T08:11:07Z</time>
      </trkpt>
      <trkpt lat="50.12" lon="4.1073">
        <ele>184.4</ele>
        <time>2024-05-04T08:11:08Z</time>
      </trkpt>
      <trkpt lat="50.11998" lon="4.1072">
        <ele>184.6</ele>
        <time>2024-05-04T08:11:09Z</time>
      </trkpt>
      <trkpt lat="50.11997" lon="4.1071">
        <ele>184.6</ele>
        <time>2024-05-04T08:11:10Z</time>
      </trkpt>
      <trkpt lat="50.11996" lon="4.107">
        <ele>184.6</ele>
        <time>2024-05-04T08:11:11Z</time>
      </trkpt>
      <trkpt lat="50.11996" lon="4.1069">
        <ele>184.6</ele>
        <time>2024-05-04T08:11:12Z</time>
      </trkpt>
      <trkpt lat="50.11996" lon="4.1068">
        <ele>184.8</ele>
        <time>2024-05-04T08:11:13Z</time>
      </trkpt>
      <trkpt lat="50.11997" lon="4.10669">
        <ele>184.8</ele>
        <time>2024-05-04T08:11:14Z</time>
      </trkpt>
      <trkpt lat="50.11998" lon="4.10659">
        <ele>185</ele>
        <time>2024-05-04T08:11:15Z</time>
      </trkpt>
      <trkpt lat="50.12" lon="4.10648">
        <ele>185</ele>
        <time>2024-05-04T08:11:16Z</time>
      </trkpt>
      <trkpt lat="50.12002" lon="4.10637">
        <ele>185.4</ele>
        <time>2024-05-04T08:11:17Z</time>
      </trkpt>
      <trkpt lat="50.12005" lon="4.10627">
        <ele>185.4</ele>
        <time>2024-05-04T08:11:18Z</time>
      </trkpt>
      <trkpt lat="50.12008" lon="4.10616">
        <ele>185.6</ele>
        <time>2024-05-04T08:11:19Z</time>
      </trkpt>
      <trkpt lat="50.12011" lon="4.10605">
        <ele>185.6</ele>
        <time>2024-05-04T08:11:20Z</time>
      </trkpt>
      <trkpt lat="50.12015" lon="4.10594">
        <ele>185.6</ele>
        <time>2024-05-04T08:11:21Z</time>
      </trkpt>
      <trkpt lat="50.12018" lon="4.10582">
        <ele>185.6</ele>
        <time>2024-05-04T08:11:22Z</time>
      </trkpt>
      <trkpt lat="50.12022" lon="4.10569">
        <ele>185.8</ele>
        <time>2024-05-04T08:11:23Z</time>
      </trkpt>
      <trkpt lat="50.12026" lon="4.10556">
        <ele>185.6</ele>
        <time>2024-05-04T08:11:24Z</time>
      </trkpt>
      <trkpt lat="50.1203" lon="4.10543">
        <ele>185.6</ele>
        <time>2024-05-04T08:11:25Z</time>
      </trkpt>
      <trkpt lat="50.12035" lon="4.10529">
        <ele>185.6</ele>
        <time>2024-05-04T08:11:26Z</time>
      </trkpt>
      <trkpt lat="50.12039" lon="4.10515">
        <ele>185.6</ele>
        <time>2024-05-04T08:11:27Z</time>
      </trkpt>
      <trkpt lat="50.12044" lon="4.105">
        <ele>185.6</ele>
        <time>2024-05-04T08:11:28Z</time>
      </trkpt>
      <trkpt lat="50.12048" lon="4.10484">
        <ele>185.6</ele>
        <time>2024-05-04T08:11:29Z</time>
      </trkpt>
      <trkpt lat="50.12053" lon="4.10468">
        <ele>185.2</ele>
        <time>2024-05-04T08:11:30Z</time>
      </trkpt>
      <trkpt lat="50.12057" lon="4.10452">
        <ele>184.4</ele>
        <time>2024-05-04T08:11:31Z</time>
      </trkpt>
      <trkpt lat="50.12062" lon="4.10436">
        <ele>183.8</ele>
        <time>2024-05-04T08:11:32Z</time>
      </trkpt>
      <trkpt lat="50.12066" lon="4.1042">
        <ele>183</ele>
        <time>2024-05-04T08:11:33Z</time>
      </trkpt>
      <trkpt lat="50.12069" lon="4.10404">
        <ele>182.4</ele>
        <time>2024-05-04T08:11:34Z</time>
      </trkpt>
      <trkpt lat="50.12072" lon="4.10388">
        <ele>181.8</ele>
        <time>2024-05-04T08:11:35Z</time>
      </trkpt>
      <trkpt lat="50.12073" lon="4.10372">
        <ele>180.8</ele>
        <time>2024-05-04T08:11:36Z</time>
      </trkpt>
      <trkpt lat="50.12075" lon="4.10357">
        <ele>179.8</ele>
        <time>2024-05-04T08:11:37Z</time>
      </trkpt>
      <trkpt lat="50.12076" lon="4.10342">
        <ele>178.4</ele>
        <time>2024-05-04T08:11:38Z</time>
      </trkpt>
      <trkpt lat="50.12076" lon="4.10328">
        <ele>177.4</ele>
        <time>2024-05-04T08:11:39Z</time>
      </trkpt>
      <trkpt lat="50.12076" lon="4.10314">
        <ele>177</ele>
        <time>2024-05-04T08:11:40Z</time>
      </trkpt>
      <trkpt lat="50.12076" lon="4.103">
        <ele>177</ele>
        <time>2024-05-04T08:11:41Z</time>
      </trkpt>
      <trkpt lat="50.12076" lon="4.10287">
        <ele>176.8</ele>
        <time>2024-05-04T08:11:42Z</time>
      </trkpt>
      <trkpt lat="50.12077" lon="4.10274">
        <ele>176.6</ele>
        <time>2024-05-04T08:11:43Z</time>
      </trkpt>
      <trkpt lat="50.12077" lon="4.10261">
        <ele>176.6</ele>
        <time>2024-05-04T08:11:44Z</time>
      </trkpt>
      <trkpt lat="50.12077" lon="4.10248">
        <ele>176.8</ele>
        <time>2024-05-04T08:11:45Z</time>
      </trkpt>
      <trkpt lat="50.12078" lon="4.10236">
        <ele>176.6</ele>
        <time>2024-05-04T08:11:46Z</time>
      </trkpt>
      <trkpt lat="50.12078" lon="4.10224">
        <ele>176.6</ele>
        <time>2024-05-04T08:11:47Z</time>
      </trkpt>
      <trkpt lat="50.12079" lon="4.10212">
        <ele>176.6</ele>
        <time>2024-05-04T08:11:48Z</time>
      </trkpt>
      <trkpt lat="50.12079" lon="4.10201">
        <ele>176.6</ele>
        <time>2024-05-04T08:11:49Z</time>
      </trkpt>
      <trkpt lat="50.1208" lon="4.10189">
        <ele>176.8</ele>
        <time>2024-05-04T08:11:50Z</time>
      </trkpt>
      <trkpt lat="50.12081" lon="4.10178">
        <ele>177</ele>
        <time>2024-05-04T08:11:51Z</time>
      </trkpt>
      <trkpt lat="50.12082" lon="4.10167">
        <ele>177.6</ele>
        <time>2024-05-04T08:11:52Z</time>
      </trkpt>
      <trkpt lat="50.12084" lon="4.10157">
        <ele>178</ele>
        <time>2024-05-04T08:11:53Z</time>
      </trkpt>
      <trkpt lat="50.12086" lon="4.10146">
        <ele>178.6</ele>
        <time>2024-05-04T08:11:54Z</time>
      </trkpt>
      <trkpt lat="50.12088" lon="4.10136">
        <ele>179</ele>
        <time>2024-05-04T08:11:55Z</time>
      </trkpt>
      <trkpt lat="50.1209" lon="4.10126">
        <ele>179.4</ele>
        <time>2024-05-04T08:11:56Z</time>
      </trkpt>
      <trkpt lat="50.12091" lon="4.10116">
        <ele>179.4</ele>
        <time>2024-05-04T08:11:57Z</time>
      </trkpt>
      <trkpt lat="50.12093" lon="4.10106">
        <ele>179.4</ele>
        <time>2024-05-04T08:11:58Z</time>
      </trkpt>
      <trkpt lat="50.12093" lon="4.10096">
        <ele>179.8</ele>
        <time>2024-05-04T08:11:59Z</time>
      </trkpt>
      <trkpt lat="50.12095" lon="4.10086">
        <ele>180.2</ele>
        <time>2024-05-04T08:12:00Z</time>
      </trkpt>
      <trkpt lat="50.12097" lon="4.10077">
        <ele>180.8</ele>
        <time>2024-05-04T08:12:01Z</time>
      </trkpt>
      <trkpt lat="50.12099" lon="4.10069">
        <ele>181</ele>
        <time>2024-05-04T08:12:02Z</time>
      </trkpt>
      <trkpt lat="50.121" lon="4.10061">
        <ele>181</ele>
        <time>2024-05-04T08:12:03Z</time>
      </trkpt>
      <trkpt lat="50.12102" lon="4.10055">
        <ele>181.4</ele>
        <time>2024-05-04T08:12:04Z</time>
      </trkpt>
      <trkpt lat="50.12102" lon="4.10051">
        <ele>181.4</ele>
        <time>2024-05-04T08:12:05Z</time>
      </trkpt>
      <trkpt lat="50.12102" lon="4.10047">
        <ele>181.4</ele>
        <time>2024-05-04T08:12:06Z</time>
      </trkpt>
      <trkpt lat="50.12102" lon="4.10045">
        <ele>181.4</ele>
        <time>2024-05-04T08:12:07Z</time>
      </trkpt>
      <trkpt lat="50.12102" lon="4.10044">
        <ele>181.2</ele>
        <time>2024-05-04T08:12:08Z</time>
      </trkpt>
      <trkpt lat="50.12102" lon="4.10045">
        <ele>181.6</ele>
        <time>2024-05-04T08:12:09Z</time>
      </trkpt>
      <trkpt lat="50.12104" lon="4.10039">
        <ele>181.8</ele>
        <time>2024-05-04T08:12:40Z</time>
      </trkpt>
      <trkpt lat="50.12106" lon="4.10037">
        <ele>182</ele>
        <time>2024-05-04T08:12:41Z</time>
      </trkpt>
      <trkpt lat="50.12107" lon="4.10036">
        <ele>181.8</ele>
        <time>2024-05-04T08:12:42Z</time>
      </trkpt>
      <trkpt lat="50.12109" lon="4.10034">
        <ele>182</ele>
        <time>2024-05-04T08:12:43Z</time>
      </trkpt>
      <trkpt lat="50.1211" lon="4.10032">
        <ele>182</ele>
        <time>2024-05-04T08:12:44Z</time>
      </trkpt>
      <trkpt lat="50.12111" lon="4.10029">
        <ele>182</ele>
        <time>2024-05-04T08:12:45Z</time>
      </trkpt>
      <trkpt lat="50.12112" lon="4.10026">
        <ele>181.8</ele>
        <time>2024-05-04T08:12:46Z</time>
      </trkpt>
      <trkpt lat="50.12113" lon="4.10023">
        <ele>181.8</ele>
        <time>2024-05-04T08:12:47Z</time>
      </trkpt>
      <trkpt lat="50.12113" lon="4.10019">
        <ele>181.8</ele>
        <time>2024-05-04T08:12:48Z</time>
      </trkpt>
      <trkpt lat="50.12115" lon="4.10014">
        <ele>182</ele>
        <time>2024-05-04T08:12:49Z</time>
      </trkpt>
      <trkpt lat="50.12116" lon="4.1001">
        <ele>181.8</ele>
        <time>2024-05-04T08:12:50Z</time>
      </trkpt>
      <trkpt lat="50.12117" lon="4.10005">
        <ele>181.8</ele>
        <time>2024-05-04T08:12:51Z</time>
      </trkpt>
      <trkpt lat="50.12117" lon="4.09999">
        <ele>181.8</ele>
        <time>2024-05-04T08:12:52Z</time>
      </trkpt>
      <trkpt lat="50.12118" lon="4.09994">
        <ele>182</ele>
        <time>2024-05-04T08:12:53Z</time>
      </trkpt>
      <trkpt lat="50.12118" lon="4.09988">
        <ele>182</ele>
        <time>2024-05-04T08:12:54Z</time>
      </trkpt>
      <trkpt lat="50.12118" lon="4.09982">
        <ele>182</ele>
        <time>2024-05-04T08:12:55Z</time>
      </trkpt>
      <trkpt lat="50.12118" lon="4.09977">
        <ele>182</ele>
        <time>2024-05-04T08:12:56Z</time>
      </trkpt>
      <trkpt lat="50.12118" lon="4.09972">
        <ele>182</ele>
        <time>2024-05-04T08:12:57Z</time>
      </trkpt>
      <trkpt lat="50.12118" lon="4.09968">
        <ele>182</ele>
        <time>2024-05-04T08:12:58Z</time>
      </trkpt>
      <trkpt lat="50.12117" lon="4.09963">
        <ele>182</ele>
        <time>2024-05-04T08:12:59Z</time>
      </trkpt>
      <trkpt lat="50.12116" lon="4.09959">
        <ele>182</ele>
        <time>2024-05-04T08:13:00Z</time>
      </trkpt>
      <trkpt lat="50.12114" lon="4.09955">
        <ele>182</ele>
        <time>2024-05-04T08:13:01Z</time>
      </trkpt>
      <trkpt lat="50.12111" lon="4.09952">
        <ele>182</ele>
        <time>2024-05-04T08:13:02Z</time>
      </trkpt>
      <trkpt lat="50.12108" lon="4.09951">
        <ele>182.2</ele>
        <time>2024-05-04T08:13:03Z</time>
      </trkpt>
      <trkpt lat="50.12104" lon="4.0995">
        <ele>182.2</ele>
        <time>2024-05-04T08:13:04Z</time>
      </trkpt>
      <trkpt lat="50.121" lon="4.09948">
        <ele>182</ele>
        <time>2024-05-04T08:13:05Z</time>
      </trkpt>
      <trkpt lat="50.12095" lon="4.09947">
        <ele>182</ele>
        <time>2024-05-04T08:13:06Z</time>
      </trkpt>
      <trkpt lat="50.12089" lon="4.09945">
        <ele>182</ele>
        <time>2024-05-04T08:13:07Z</time>
      </trkpt>
      <trkpt lat="50.12083" lon="4.09943">
        <ele>182</ele>
        <time>2024-05-04T08:13:08Z</time>
      </trkpt>
      <trkpt lat="50.12077" lon="4.09941">
        <ele>182</ele>
        <time>2024-05-04T08:13:09Z</time>
      </trkpt>
      <trkpt lat="50.12071" lon="4.09939">
        <ele>182</ele>
        <time>2024-05-04T08:13:10Z</time>
      </trkpt>
      <trkpt lat="50.12064" lon="4.09938">
        <ele>182</ele>
        <time>2024-05-04T08:13:11Z</time>
      </trkpt>
      <trkpt lat="50.12057" lon="4.09936">
        <ele>182</ele>
        <time>2024-05-04T08:13:12Z</time>
      </trkpt>
      <trkpt lat="50.1205" lon="4.09934">
        <ele>181.8</ele>
        <time>2024-05-04T08:13:13Z</time>
      </trkpt>
      <trkpt lat="50.12044" lon="4.09931">
        <ele>181.8</ele>
        <time>2024-05-04T08:13:14Z</time>
      </trkpt>
      <trkpt lat="50.12037" lon="4.09928">
        <ele>181.2</ele>
        <time>2024-05-04T08:13:15Z</time>
      </trkpt>
      <trkpt lat="50.1203" lon="4.09925">
        <ele>180.6</ele>
        <time>2024-05-04T08:13:16Z</time>
      </trkpt>
      <trkpt lat="50.12024" lon="4.09921">
        <ele>180</ele>
        <time>2024-05-04T08:13:17Z</time>
      </trkpt>
      <trkpt lat="50.12017" lon="4.09917">
        <ele>179.4</ele>
        <time>2024-05-04T08:13:18Z</time>
      </trkpt>
      <trkpt lat="50.12011" lon="4.09913">
        <ele>178.8</ele>
        <time>2024-05-04T08:13:19Z</time>
      </trkpt>
      <trkpt lat="50.12004" lon="4.09909">
        <ele>178.8</ele>
        <time>2024-05-04T08:13:20Z</time>
      </trkpt>
      <trkpt lat="50.11998" lon="4.09904">
        <ele>178.6</ele>
        <time>2024-05-04T08:13:21Z</time>
      </trkpt>
      <trkpt lat="50.11991" lon="4.099">
        <ele>178.2</ele>
        <time>2024-05-04T08:13:22Z</time>
      </trkpt>
      <trkpt lat="50.11984" lon="4.09895">
        <ele>177.4</ele>
        <time>2024-05-04T08:13:23Z</time>
      </trkpt>
      <trkpt lat="50.11978" lon="4.09891">
        <ele>176.4</ele>
        <time>2024-05-04T08:13:24Z</time>
      </trkpt>
      <trkpt lat="50.11971" lon="4.09887">
        <ele>175.4</ele>
        <time>2024-05-04T08:13:25Z</time>
      </trkpt>
      <trkpt lat="50.11964" lon="4.09884">
        <ele>175.2</ele>
        <time>2024-05-04T08:13:26Z</time>
      </trkpt>
      <trkpt lat="50.11957" lon="4.09881">
        <ele>174.8</ele>
        <time>2024-05-04T08:13:27Z</time>
      </trkpt>
      <trkpt lat="50.1195" lon="4.09878">
        <ele>174.4</ele>
        <time>2024-05-04T08:13:28Z</time>
      </trkpt>
      <trkpt lat="50.11942" lon="4.09876">
        <ele>174.4</ele>
        <time>2024-05-04T08:13:29Z</time>
      </trkpt>
      <trkpt lat="50.11935" lon="4.09874">
        <ele>174</ele>
        <time>2024-05-04T08:13:30Z</time>
      </trkpt>
      <trkpt lat="50.11928" lon="4.09873">
        <ele>173.8</ele>
        <time>2024-05-04T08:13:31Z</time>
      </trkpt>
      <trkpt lat="50.11922" lon="4.09871">
        <ele>173.2</ele>
        <time>2024-05-04T08:13:32Z</time>
      </trkpt>
      <trkpt lat="50.11915" lon="4.09869">
        <ele>172.6</ele>
        <time>2024-05-04T08:13:33Z</time>
      </trkpt>
      <trkpt lat="50.11909" lon="4.09868">
        <ele>171.8</ele>
        <time>2024-05-04T08:13:34Z</time>
      </trkpt>
      <trkpt lat="50.11902" lon="4.09866">
        <ele>171.4</ele>
        <time>2024-05-04T08:13:35Z</time>
      </trkpt>
      <trkpt lat="50.11895" lon="4.09865">
        <ele>171.2</ele>
        <time>2024-05-04T08:13:36Z</time>
      </trkpt>
      <trkpt lat="50.11888" lon="4.09863">
        <ele>171</ele>
        <time>2024-05-04T08:13:37Z</time>
      </trkpt>
      <trkpt lat="50.11881" lon="4.09862">
        <ele>171</ele>
        <time>2024-05-04T08:13:38Z</time>
      </trkpt>
      <trkpt lat="50.11873" lon="4.0986">
        <ele>170.8</ele>
        <time>2024-05-04T08:13:39Z</time>
      </trkpt>
      <trkpt lat="50.11866" lon="4.09858">
        <ele>170.6</ele>
        <time>2024-05-04T08:13:40Z</time>
      </trkpt>
      <trkpt lat="50.11858" lon="4.09857">
        <ele>170.4</ele>
        <time>2024-05-04T08:13:41Z</time>
      </trkpt>
      <trkpt lat="50.11851" lon="4.09855">
        <ele>170.2</ele>
        <time>2024-05-04T08:13:42Z</time>
      </trkpt>
      <trkpt lat="50.11844" lon="4.09852">
        <ele>170</ele>
        <time>2024-05-04T08:13:43Z</time>
      </trkpt>
      <trkpt lat="50.11837" lon="4.0985">
        <ele>169.8</ele>
        <time>2024-05-04T08:13:44Z</time>
      </trkpt>
      <trkpt lat="50.1183" lon="4.09847">
        <ele>169.6</ele>
        <time>2024-05-04T08:13:45Z</time>
      </trkpt>
      <trkpt lat="50.11823" lon="4.09845">
        <ele>169.4</ele>
        <time>2024-05-04T08:13:46Z</time>
      </trkpt>
      <trkpt lat="50.11816" lon="4.09842">
        <ele>169.4</ele>
        <time>2024-05-04T08:13:47Z</time>
      </trkpt>
      <trkpt lat="50.11809" lon="4.0984">
        <ele>169.4</ele>
        <time>2024-05-04T08:13:48Z</time>
      </trkpt>
      <trkpt lat="50.11802" lon="4.09837">
        <ele>169.2</ele>
        <time>2024-05-04T08:13:49Z</time>
      </trkpt>
      <trkpt lat="50.11795" lon="4.09834">
        <ele>169.2</ele>
        <time>2024-05-04T08:13:50Z</time>
      </trkpt>
      <trkpt lat="50.11789" lon="4.09831">
        <ele>168.8</ele>
        <time>2024-05-04T08:13:51Z</time>
      </trkpt>
      <trkpt lat="50.11782" lon="4.09828">
        <ele>168.2</ele>
        <time>2024-05-04T08:13:52Z</time>
      </trkpt>
      <trkpt lat="50.11775" lon="4.09825">
        <ele>167.8</ele>
        <time>2024-05-04T08:13:53Z</time>
      </trkpt>
      <trkpt lat="50.11768" lon="4.09822">
        <ele>167.8</ele>
        <time>2024-05-04T08:13:54Z</time>
      </trkpt>
      <trkpt lat="50.11762" lon="4.09819">
        <ele>167.6</ele>
        <time>2024-05-04T08:13:55Z</time>
      </trkpt>
      <trkpt lat="50.11755" lon="4.09815">
        <ele>167.6</ele>
        <time>2024-05-04T08:13:56Z</time>
      </trkpt>
      <trkpt lat="50.11748" lon="4.09812">
        <ele>167.6</ele>
        <time>2024-05-04T08:13:57Z</time>
      </trkpt>
      <trkpt lat="50.11741" lon="4.0981">
        <ele>167.6</ele>
        <time>2024-05-04T08:13:58Z</time>
      </trkpt>
      <trkpt lat="50.11734" lon="4.09808">
        <ele>167.4</ele>
        <time>2024-05-04T08:13:59Z</time>
      </trkpt>
      <trkpt lat="50.11727" lon="4.09808">
        <ele>167.4</ele>
        <time>2024-05-04T08:14:00Z</time>
      </trkpt>
      <trkpt lat="50.1172" lon="4.09809">
        <ele>167.4</ele>
        <time>2024-05-04T08:14:01Z</time>
      </trkpt>
      <trkpt lat="50.11713" lon="4.09812">
        <ele>167.4</ele>
        <time>2024-05-04T08:14:02Z</time>
      </trkpt>
      <trkpt lat="50.11706" lon="4.09816">
        <ele>167.4</ele>
        <time>2024-05-04T08:14:03Z</time>
      </trkpt>
      <trkpt lat="50.117" lon="4.09821">
        <ele>167.4</ele>
        <time>2024-05-04T08:14:04Z</time>
      </trkpt>
      <trkpt lat="50.11694" lon="4.09827">
        <ele>167.6</ele>
        <time>2024-05-04T08:14:05Z</time>
      </trkpt>
      <trkpt lat="50.11689" lon="4.09834">
        <ele>167.4</ele>
        <time>2024-05-04T08:14:06Z</time>
      </trkpt>
      <trkpt lat="50.11684" lon="4.09842">
        <ele>167.4</ele>
        <time>2024-05-04T08:14:07Z</time>
      </trkpt>
      <trkpt lat="50.1168" lon="4.09851">
        <ele>167.4</ele>
        <time>2024-05-04T08:14:08Z</time>
      </trkpt>
      <trkpt lat="50.11677" lon="4.0986">
        <ele>167.6</ele>
        <time>2024-05-04T08:14:09Z</time>
      </trkpt>
      <trkpt lat="50.11673" lon="4.09869">
        <ele>167.4</ele>
        <time>2024-05-04T08:14:10Z</time>
      </trkpt>
      <trkpt lat="50.1167" lon="4.09878">
        <ele>167.6</ele>
        <time>2024-05-04T08:14:11Z</time>
      </trkpt>
      <trkpt lat="50.11667" lon="4.09887">
        <ele>167.4</ele>
        <time>2024-05-04T08:14:12Z</time>
      </trkpt>
      <trkpt lat="50.11664" lon="4.09895">
        <ele>167.4</ele>
        <time>2024-05-04T08:14:13Z</time>
      </trkpt>
      <trkpt lat="50.11661" lon="4.09904">
        <ele>167.6</ele>
        <time>2024-05-04T08:14:14Z</time>
      </trkpt>
      <trkpt lat="50.11659" lon="4.09912">
        <ele>167.6</ele>
        <time>2024-05-04T08:14:15Z</time>
      </trkpt>
      <trkpt lat="50.11656" lon="4.09919">
        <ele>167.4</ele>
        <time>2024-05-04T08:14:16Z</time>
      </trkpt>
      <trkpt lat="50.11654" lon="4.09926">
        <ele>167.6</ele>
        <time>2024-05-04T08:14:17Z</time>
      </trkpt>
      <trkpt lat="50.11651" lon="4.09932">
        <ele>167.4</ele>
        <time>2024-05-04T08:14:18Z</time>
      </trkpt>
      <trkpt lat="50.11649" lon="4.09938">
        <ele>167.6</ele>
        <time>2024-05-04T08:14:19Z</time>
      </trkpt>
      <trkpt lat="50.11646" lon="4.09944">
        <ele>167.8</ele>
        <time>2024-05-04T08:14:20Z</time>
      </trkpt>
      <trkpt lat="50.11644" lon="4.0995">
        <ele>167.8</ele>
        <time>2024-05-04T08:14:21Z</time>
      </trkpt>
      <trkpt lat="50.11642" lon="4.09956">
        <ele>168.2</ele>
        <time>2024-05-04T08:14:22Z</time>
      </trkpt>
      <trkpt lat="50.11639" lon="4.09962">
        <ele>169</ele>
        <time>2024-05-04T08:14:23Z</time>
      </trkpt>
      <trkpt lat="50.11637" lon="4.09968">
        <ele>169.4</ele>
        <time>2024-05-04T08:14:24Z</time>
      </trkpt>
      <trkpt lat="50.11634" lon="4.09974">
        <ele>170.2</ele>
        <time>2024-05-04T08:14:25Z</time>
      </trkpt>
      <trkpt lat="50.11632" lon="4.0998">
        <ele>170.8</ele>
        <time>2024-05-04T08:14:26Z</time>
      </trkpt>
      <trkpt lat="50.1163" lon="4.09986">
        <ele>171.4</ele>
        <time>2024-05-04T08:14:27Z</time>
      </trkpt>
      <trkpt lat="50.11627" lon="4.09991">
        <ele>172</ele>
        <time>2024-05-04T08:14:28Z</time>
      </trkpt>
      <trkpt lat="50.11625" lon="4.09997">
        <ele>172.2</ele>
        <time>2024-05-04T08:14:29Z</time>
      </trkpt>
      <trkpt lat="50.11622" lon="4.10003">
        <ele>172.6</ele>
        <time>2024-05-04T08:14:30Z</time>
      </trkpt>
      <trkpt lat="50.1162" lon="4.10009">
        <ele>173</ele>
        <time>2024-05-04T08:14:31Z</time>
      </trkpt>
      <trkpt lat="50.11617" lon="4.10016">
        <ele>173.2</ele>
        <time>2024-05-04T08:14:32Z</time>
      </trkpt>
      <trkpt lat="50.11615" lon="4.10022">
        <ele>173.6</ele>
        <time>2024-05-04T08:14:33Z</time>
      </trkpt>
      <trkpt lat="50.11613" lon="4.10028">
        <ele>173.6</ele>
        <time>2024-05-04T08:14:34Z</time>
      </trkpt>
      <trkpt lat="50.11611" lon="4.10035">
        <ele>174</ele>
        <time>2024-05-04T08:14:35Z</time>
      </trkpt>
      <trkpt lat="50.11609" lon="4.10041">
        <ele>174.4</ele>
        <time>2024-05-04T08:14:36Z</time>
      </trkpt>
      <trkpt lat="50.11607" lon="4.10049">
        <ele>174.6</ele>
        <time>2024-05-04T08:14:37Z</time>
      </trkpt>
      <trkpt lat="50.11605" lon="4.10056">
        <ele>174.6</ele>
        <time>2024-05-04T08:14:38Z</time>
      </trkpt>
      <trkpt lat="50.11603" lon="4.10064">
        <ele>174.8</ele>
        <time>2024-05-04T08:14:39Z</time>
      </trkpt>
      <trkpt lat="50.11601" lon="4.10071">
        <ele>174.8</ele>
        <time>2024-05-04T08:14:40Z</time>
      </trkpt>
      <trkpt lat="50.116" lon="4.1008">
        <ele>174.8</ele>
        <time>2024-05-04T08:14:41Z</time>
      </trkpt>
      <trkpt lat="50.11598" lon="4.10088">
        <ele>174.8</ele>
        <time>2024-05-04T08:14:42Z</time>
      </trkpt>
      <trkpt lat="50.11596" lon="4.10097">
        <ele>174.8</ele>
        <time>2024-05-04T08:14:43Z</time>
      </trkpt>
      <trkpt lat="50.11593" lon="4.10106">
        <ele>174.8</ele>
        <time>2024-05-04T08:14:44Z</time>
      </trkpt>
      <trkpt lat="50.1159" lon="4.10115">
        <ele>174.8</ele>
        <time>2024-05-04T08:14:45Z</time>
      </trkpt>
      <trkpt lat="50.11587" lon="4.10123">
        <ele>174.8</ele>
        <time>2024-05-04T08:14:46Z</time>
      </trkpt>
      <trkpt lat="50.11583" lon="4.10132">
        <ele>174.6</ele>
        <time>2024-05-04T08:14:47Z</time>
      </trkpt>
      <trkpt lat="50.11579" lon="4.1014">
        <ele>174.6</ele>
        <time>2024-05-04T08:14:48Z</time>
      </trkpt>
      <trkpt lat="50.11574" lon="4.10148">
        <ele>174.4</ele>
        <time>2024-05-04T08:14:49Z</time>
      </trkpt>
      <trkpt lat="50.11569" lon="4.10155">
        <ele>174.4</ele>
        <time>2024-05-04T08:14:50Z</time>
      </trkpt>
      <trkpt lat="50.11564" lon="4.10162">
        <ele>174.4</ele>
        <time>2024-05-04T08:14:51Z</time>
      </trkpt>
      <trkpt lat="50.11559" lon="4.10168">
        <ele>174</ele>
        <time>2024-05-04T08:14:52Z</time>
      </trkpt>
      <trkpt lat="50.11553" lon="4.10174">
        <ele>173.8</ele>
        <time>2024-05-04T08:14:53Z</time>
      </trkpt>
      <trkpt lat="50.11548" lon="4.1018">
        <ele>173.8</ele>
        <time>2024-05-04T08:14:54Z</time>
      </trkpt>
      <trkpt lat="50.11543" lon="4.10186">
        <ele>173.6</ele>
        <time>2024-05-04T08:14:55Z</time>
      </trkpt>
      <trkpt lat="50.11538" lon="4.10191">
        <ele>173.4</ele>
        <time>2024-05-04T08:14:56Z</time>
      </trkpt>
      <trkpt lat="50.11532" lon="4.10196">
        <ele>173.4</ele>
        <time>2024-05-04T08:14:57Z</time>
      </trkpt>
      <trkpt lat="50.11527" lon="4.10201">
        <ele>173.4</ele>
        <time>2024-05-04T08:14:58Z</time>
      </trkpt>
      <trkpt lat="50.11522" lon="4.10206">
        <ele>173.4</ele>
        <time>2024-05-04T08:14:59Z</time>
      </trkpt>
      <trkpt lat="50.11518" lon="4.10211">
        <ele>173.4</ele>
        <time>2024-05-04T08:15:00Z</time>
      </trkpt>
      <trkpt lat="50.11513" lon="4.10215">
        <ele>173.4</ele>
        <time>2024-05-04T08:15:01Z</time>
      </trkpt>
      <trkpt lat="50.11509" lon="4.1022">
        <ele>173.4</ele>
        <time>2024-05-04T08:15:02Z</time>
      </trkpt>
      <trkpt lat="50.11504" lon="4.10224">
        <ele>173.4</ele>
        <time>2024-05-04T08:15:03Z</time>
      </trkpt>
      <trkpt lat="50.115" lon="4.10228">
        <ele>173.4</ele>
        <time>2024-05-04T08:15:04Z</time>
      </trkpt>
      <trkpt lat="50.11496" lon="4.10232">
        <ele>173.6</ele>
        <time>2024-05-04T08:15:05Z</time>
      </trkpt>
      <trkpt lat="50.11492" lon="4.10236">
        <ele>173.8</ele>
        <time>2024-05-04T08:15:06Z</time>
      </trkpt>
      <trkpt lat="50.11488" lon="4.1024">
        <ele>173.8</ele>
        <time>2024-05-04T08:15:07Z</time>
      </trkpt>
      <trkpt lat="50.11484" lon="4.10244">
        <ele>173.8</ele>
        <time>2024-05-04T08:15:08Z</time>
      </trkpt>
      <trkpt lat="50.11481" lon="4.10248">
        <ele>174</ele>
        <time>2024-05-04T08:15:09Z</time>
      </trkpt>
      <trkpt lat="50.11478" lon="4.10251">
        <ele>174.2</ele>
        <time>2024-05-04T08:15:10Z</time>
      </trkpt>
      <trkpt lat="50.11475" lon="4.10255">
        <ele>174.8</ele>
        <time>2024-05-04T08:15:11Z</time>
      </trkpt>
      <trkpt lat="50.11472" lon="4.10259">
        <ele>175.2</ele>
        <time>2024-05-04T08:15:12Z</time>
      </trkpt>
      <trkpt lat="50.11469" lon="4.10263">
        <ele>175.6</ele>
        <time>2024-05-04T08:15:13Z</time>
      </trkpt>
      <trkpt lat="50.11467" lon="4.10268">
        <ele>176</ele>
        <time>2024-05-04T08:15:14Z</time>
      </trkpt>
      <trkpt lat="50.11465" lon="4.10273">
        <ele>176</ele>
        <time>2024-05-04T08:15:15Z</time>
      </trkpt>
      <trkpt lat="50.11464" lon="4.10278">
        <ele>176.2</ele>
        <time>2024-05-04T08:15:16Z</time>
      </trkpt>
      <trkpt lat="50.11463" lon="4.10283">
        <ele>176.4</ele>
        <time>2024-05-04T08:15:17Z</time>
      </trkpt>
      <trkpt lat="50.11462" lon="4.10289">
        <ele>176.6</ele>
        <time>2024-05-04T08:15:18Z</time>
      </trkpt>
      <trkpt lat="50.11462" lon="4.10295">
        <ele>176.8</ele>
        <time>2024-05-04T08:15:19Z</time>
      </trkpt>
      <trkpt lat="50.11462" lon="4.10301">
        <ele>177.4</ele>
        <time>2024-05-04T08:15:20Z</time>
      </trkpt>
      <trkpt lat="50.11463" lon="4.10307">
        <ele>177.6</ele>
        <time>2024-05-04T08:15:21Z</time>
      </trkpt>
      <trkpt lat="50.11463" lon="4.10313">
        <ele>177.8</ele>
        <time>2024-05-04T08:15:22Z</time>
      </trkpt>
      <trkpt lat="50.11464" lon="4.10319">
        <ele>177.8</ele>
        <time>2024-05-04T08:15:23Z</time>
      </trkpt>
      <trkpt lat="50.11464" lon="4.10325">
        <ele>178</ele>
        <time>2024-05-04T08:15:24Z</time>
      </trkpt>
      <trkpt lat="50.11465" lon="4.1033">
        <ele>178.4</ele>
        <time>2024-05-04T08:15:25Z</time>
      </trkpt>
      <trkpt lat="50.11465" lon="4.10336">
        <ele>179</ele>
        <time>2024-05-04T08:15:26Z</time>
      </trkpt>
      <trkpt lat="50.11466" lon="4.10341">
        <ele>179.4</ele>
        <time>2024-05-04T08:15:27Z</time>
      </trkpt>
      <trkpt lat="50.11467" lon="4.10347">
        <ele>180.2</ele>
        <time>2024-05-04T08:15:28Z</time>
      </trkpt>
      <trkpt lat="50.11467" lon="4.10352">
        <ele>181.2</ele>
        <time>2024-05-04T08:15:29Z</time>
      </trkpt>
      <trkpt lat="50.11468" lon="4.10358">
        <ele>181.8</ele>
        <time>2024-05-04T08:15:30Z</time>
      </trkpt>
      <trkpt lat="50.11469" lon="4.10363">
        <ele>182</ele>
        <time>2024-05-04T08:15:31Z</time>
      </trkpt>
      <trkpt lat="50.11469" lon="4.10369">
        <ele>182.4</ele>
        <time>2024-05-04T08:15:32Z</time>
      </trkpt>
      <trkpt lat="50.1147" lon="4.10374">
        <ele>182.6</ele>
        <time>2024-05-04T08:15:33Z</time>
      </trkpt>
      <trkpt lat="50.11471" lon="4.10379">
        <ele>183</ele>
        <time>2024-05-04T08:15:34Z</time>
      </trkpt>
      <trkpt lat="50.11472" lon="4.10384">
        <ele>183.4</ele>
        <time>2024-05-04T08:15:35Z</time>
      </trkpt>
      <trkpt lat="50.11473" lon="4.10389">
        <ele>183.8</ele>
        <time>2024-05-04T08:15:36Z</time>
      </trkpt>
      <trkpt lat="50.11474" lon="4.10394">
        <ele>184</ele>
        <time>2024-05-04T08:15:37Z</time>
      </trkpt>
      <trkpt lat="50.11474" lon="4.10399">
        <ele>184.2</ele>
        <time>2024-05-04T08:15:38Z</time>
      </trkpt>
      <trkpt lat="50.11475" lon="4.10404">
        <ele>184.6</ele>
        <time>2024-05-04T08:15:39Z</time>
      </trkpt>
      <trkpt lat="50.11475" lon="4.10409">
        <ele>184.6</ele>
        <time>2024-05-04T08:15:40Z</time>
      </trkpt>
      <trkpt lat="50.11476" lon="4.10414">
        <ele>184.8</ele>
        <time>2024-05-04T08:15:41Z</time>
      </trkpt>
      <trkpt lat="50.11476" lon="4.10419">
        <ele>185.2</ele>
        <time>2024-05-04T08:15:42Z</time>
      </trkpt>
      <trkpt lat="50.11477" lon="4.10424">
        <ele>185.8</ele>
        <time>2024-05-04T08:15:43Z</time>
      </trkpt>
      <trkpt lat="50.11477" lon="4.10429">
        <ele>186</ele>
        <time>2024-05-04T08:15:44Z</time>
      </trkpt>
      <trkpt lat="50.11477" lon="4.10433">
        <ele>186.2</ele>
        <time>2024-05-04T08:15:45Z</time>
      </trkpt>
      <trkpt lat="50.11477" lon="4.10438">
        <ele>186.6</ele>
        <time>2024-05-04T08:15:46Z</time>
      </trkpt>
      <trkpt lat="50.11477" lon="4.10443">
        <ele>187</ele>
        <time>2024-05-04T08:15:47Z</time>
      </trkpt>
      <trkpt lat="50.11476" lon="4.10448">
        <ele>187.2</ele>
        <time>2024-05-04T08:15:48Z</time>
      </trkpt>
      <trkpt lat="50.11476" lon="4.10453">
        <ele>187.4</ele>
        <time>2024-05-04T08:15:49Z</time>
      </trkpt>
      <trkpt lat="50.11476" lon="4.10457">
        <ele>187.8</ele>
        <time>2024-05-04T08:15:50Z</time>
      </trkpt>
      <trkpt lat="50.11475" lon="4.10462">
        <ele>188</ele>
        <time>2024-05-04T08:15:51Z</time>
      </trkpt>
      <trkpt lat="50.11475" lon="4.10466">
        <ele>188.4</ele>
        <time>2024-05-04T08:15:52Z</time>
      </trkpt>
      <trkpt lat="50.11474" lon="4.1047">
        <ele>189</ele>
        <time>2024-05-04T08:15:53Z</time>
      </trkpt>
      <trkpt lat="50.11474" lon="4.10474">
        <ele>189.2</ele>
        <time>2024-05-04T08:15:54Z</time>
      </trkpt>
      <trkpt lat="50.11473" lon="4.10478">
        <ele>189.6</ele>
        <time>2024-05-04T08:15:55Z</time>
      </trkpt>
      <trkpt lat="50.11472" lon="4.10482">
        <ele>189.6</ele>
        <time>2024-05-04T08:15:56Z</time>
      </trkpt>
      <trkpt lat="50.11471" lon="4.10486">
        <ele>190</ele>
        <time>2024-05-04T08:15:57Z</time>
      </trkpt>
      <trkpt lat="50.11471" lon="4.1049">
        <ele>190.4</ele>
        <time>2024-05-04T08:15:58Z</time>
      </trkpt>
      <trkpt lat="50.1147" lon="4.10494">
        <ele>190.6</ele>
        <time>2024-05-04T08:15:59Z</time>
      </trkpt>
      <trkpt lat="50.11469" lon="4.10497">
        <ele>190.8</ele>
        <time>2024-05-04T08:16:00Z</time>
      </trkpt>
      <trkpt lat="50.11469" lon="4.10501">
        <ele>191.4</ele>
        <time>2024-05-04T08:16:01Z</time>
      </trkpt>
      <trkpt lat="50.11468" lon="4.10504">
        <ele>191.8</ele>
        <time>2024-05-04T08:16:02Z</time>
      </trkpt>
      <trkpt lat="50.11467" lon="4.10508">
        <ele>192.2</ele>
        <time>2024-05-04T08:16:03Z</time>
      </trkpt>
      <trkpt lat="50.11466" lon="4.10511">
        <ele>192.4</ele>
        <time>2024-05-04T08:16:04Z</time>
      </trkpt>
      <trkpt lat="50.11465" lon="4.10515">
        <ele>192.6</ele>
        <time>2024-05-04T08:16:05Z</time>
      </trkpt>
      <trkpt lat="50.11465" lon="4.10518">
        <ele>193</ele>
        <time>2024-05-04T08:16:06Z</time>
      </trkpt>
      <trkpt lat="50.11464" lon="4.10521">
        <ele>193</ele>
        <time>2024-05-04T08:16:07Z</time>
      </trkpt>
      <trkpt lat="50.11463" lon="4.10525">
        <ele>193.2</ele>
        <time>2024-05-04T08:16:08Z</time>
      </trkpt>
      <trkpt lat="50.11462" lon="4.10528">
        <ele>193.4</ele>
        <time>2024-05-04T08:16:09Z</time>
      </trkpt>
      <trkpt lat="50.11461" lon="4.10531">
        <ele>193.4</ele>
        <time>2024-05-04T08:16:10Z</time>
      </trkpt>
      <trkpt lat="50.1146" lon="4.10534">
        <ele>193.6</ele>
        <time>2024-05-04T08:16:11Z</time>
      </trkpt>
      <trkpt lat="50.1146" lon="4.10538">
        <ele>193.8</ele>
        <time>2024-05-04T08:16:12Z</time>
      </trkpt>
      <trkpt lat="50.11459" lon="4.10541">
        <ele>194</ele>
        <time>2024-05-04T08:16:13Z</time>
      </trkpt>
      <trkpt lat="50.11458" lon="4.10544">
        <ele>194.2</ele>
        <time>2024-05-04T08:16:14Z</time>
      </trkpt>
      <trkpt lat="50.11456" lon="4.10547">
        <ele>194.2</ele>
        <time>2024-05-04T08:16:15Z</time>
      </trkpt>
      <trkpt lat="50.11455" lon="4.10551">
        <ele>194.4</ele>
        <time>2024-05-04T08:16:16Z</time>
      </trkpt>
      <trkpt lat="50.11454" lon="4.10554">
        <ele>194.6</ele>
        <time>2024-05-04T08:16:17Z</time>
      </trkpt>
      <trkpt lat="50.11452" lon="4.10557">
        <ele>195</ele>
        <time>2024-05-04T08:16:18Z</time>
      </trkpt>
      <trkpt lat="50.1145" lon="4.1056">
        <ele>195.4</ele>
        <time>2024-05-04T08:16:19Z</time>
      </trkpt>
      <trkpt lat="50.11448" lon="4.10563">
        <ele>195.6</ele>
        <time>2024-05-04T08:16:20Z</time>
      </trkpt>
      <trkpt lat="50.11447" lon="4.10566">
        <ele>196</ele>
        <time>2024-05-04T08:16:21Z</time>
      </trkpt>
      <trkpt lat="50.11445" lon="4.10569">
        <ele>196.6</ele>
        <time>2024-05-04T08:16:22Z</time>
      </trkpt>
      <trkpt lat="50.11443" lon="4.10572">
        <ele>196.6</ele>
        <time>2024-05-04T08:16:23Z</time>
      </trkpt>
      <trkpt lat="50.11441" lon="4.10575">
        <ele>197</ele>
        <time>2024-05-04T08:16:24Z</time>
      </trkpt>
      <trkpt lat="50.11439" lon="4.10577">
        <ele>197.4</ele>
        <time>2024-05-04T08:16:25Z</time>
      </trkpt>
      <trkpt lat="50.11438" lon="4.10579">
        <ele>197.8</ele>
        <time>2024-05-04T08:16:26Z</time>
      </trkpt>
      <trkpt lat="50.11436" lon="4.10581">
        <ele>198.2</ele>
        <time>2024-05-04T08:16:27Z</time>
      </trkpt>
      <trkpt lat="50.11434" lon="4.10583">
        <ele>198.6</ele>
        <time>2024-05-04T08:16:28Z</time>
      </trkpt>
      <trkpt lat="50.11431" lon="4.10586">
        <ele>199</ele>
        <time>2024-05-04T08:16:29Z</time>
      </trkpt>
      <trkpt lat="50.11428" lon="4.1059">
        <ele>199.2</ele>
        <time>2024-05-04T08:16:30Z</time>
      </trkpt>
      <trkpt lat="50.11426" lon="4.10593">
        <ele>199.2</ele>
        <time>2024-05-04T08:16:31Z</time>
      </trkpt>
      <trkpt lat="50.11423" lon="4.10595">
        <ele>199.6</ele>
        <time>2024-05-04T08:16:32Z</time>
      </trkpt>
      <trkpt lat="50.1142" lon="4.10598">
        <ele>200</ele>
        <time>2024-05-04T08:16:33Z</time>
      </trkpt>
      <trkpt lat="50.11418" lon="4.106">
        <ele>200.2</ele>
        <time>2024-05-04T08:16:34Z</time>
      </trkpt>
      <trkpt lat="50.11415" lon="4.10603">
        <ele>200.8</ele>
        <time>2024-05-04T08:16:35Z</time>
      </trkpt>
      <trkpt lat="50.11413" lon="4.10605">
        <ele>201.4</ele>
        <time>2024-05-04T08:16:36Z</time>
      </trkpt>
      <trkpt lat="50.1141" lon="4.10608">
        <ele>202</ele>
        <time>2024-05-04T08:16:37Z</time>
      </trkpt>
      <trkpt lat="50.11407" lon="4.10611">
        <ele>202.2</ele>
        <time>2024-05-04T08:16:38Z</time>
      </trkpt>
      <trkpt lat="50.11405" lon="4.10613">
        <ele>202.6</ele>
        <time>2024-05-04T08:16:39Z</time>
      </trkpt>
      <trkpt lat="50.11402" lon="4.10616">
        <ele>203</ele>
        <time>2024-05-04T08:16:40Z</time>
      </trkpt>
      <trkpt lat="50.114" lon="4.10619">
        <ele>203.2</ele>
        <time>2024-05-04T08:16:41Z</time>
      </trkpt>
      <trkpt lat="50.11397" lon="4.10621">
        <ele>203.4</ele>
        <time>2024-05-04T08:16:42Z</time>
      </trkpt>
      <trkpt lat="50.11395" lon="4.10624">
        <ele>203.8</ele>
        <time>2024-05-04T08:16:43Z</time>
      </trkpt>
      <trkpt lat="50.11392" lon="4.10627">
        <ele>204</ele>
        <time>2024-05-04T08:16:44Z</time>
      </trkpt>
      <trkpt lat="50.11389" lon="4.1063">
        <ele>204.6</ele>
        <time>2024-05-04T08:16:45Z</time>
      </trkpt>
      <trkpt lat="50.11387" lon="4.10634">
        <ele>205</ele>
        <time>2024-05-04T08:16:46Z</time>
      </trkpt>
      <trkpt lat="50.11384" lon="4.10637">
        <ele>205.4</ele>
        <time>2024-05-04T08:16:47Z</time>
      </trkpt>
      <trkpt lat="50.11381" lon="4.1064">
        <ele>205.4</ele>
        <time>2024-05-04T08:16:48Z</time>
      </trkpt>
      <trkpt lat="50.11379" lon="4.10644">
        <ele>205.8</ele>
        <time>2024-05-04T08:16:49Z</time>
      </trkpt>
      <trkpt lat="50.11376" lon="4.10648">
        <ele>206</ele>
        <time>2024-05-04T08:16:50Z</time>
      </trkpt>
      <trkpt lat="50.11373" lon="4.10651">
        <ele>206.2</ele>
        <time>2024-05-04T08:16:51Z</time>
      </trkpt>
      <trkpt lat="50.11371" lon="4.10655">
        <ele>206.6</ele>
        <time>2024-05-04T08:16:52Z</time>
      </trkpt>
      <trkpt lat="50.11368" lon="4.10658">
        <ele>206.8</ele>
        <time>2024-05-04T08:16:53Z</time>
      </trkpt>
      <trkpt lat="50.11365" lon="4.10662">
        <ele>207.2</ele>
        <time>2024-05-04T08:16:54Z</time>
      </trkpt>
      <trkpt lat="50.11362" lon="4.10666">
        <ele>207.6</ele>
        <time>2024-05-04T08:16:55Z</time>
      </trkpt>
      <trkpt lat="50.1136" lon="4.1067">
        <ele>207.8</ele>
        <time>2024-05-04T08:16:56Z</time>
      </trkpt>
      <trkpt lat="50.11357" lon="4.10674">
        <ele>208</ele>
        <time>2024-05-04T08:16:57Z</time>
      </trkpt>
      <trkpt lat="50.11354" lon="4.10677">
        <ele>208.2</ele>
        <time>2024-05-04T08:16:58Z</time>
      </trkpt>
      <trkpt lat="50.11352" lon="4.10681">
        <ele>208.2</ele>
        <time>2024-05-04T08:16:59Z</time>
      </trkpt>
      <trkpt lat="50.1135" lon="4.10685">
        <ele>208.4</ele>
        <time>2024-05-04T08:17:00Z</time>
      </trkpt>
      <trkpt lat="50.11348" lon="4.10689">
        <ele>208.6</ele>
        <time>2024-05-04T08:17:01Z</time>
      </trkpt>
      <trkpt lat="50.11346" lon="4.10693">
        <ele>208.8</ele>
        <time>2024-05-04T08:17:02Z</time>
      </trkpt>
      <trkpt lat="50.11344" lon="4.10697">
        <ele>209</ele>
        <time>2024-05-04T08:17:03Z</time>
      </trkpt>
      <trkpt lat="50.11341" lon="4.10701">
        <ele>209.2</ele>
        <time>2024-05-04T08:17:04Z</time>
      </trkpt>
      <trkpt lat="50.11339" lon="4.10705">
        <ele>209.2</ele>
        <time>2024-05-04T08:17:05Z</time>
      </trkpt>
      <trkpt lat="50.11337" lon="4.10709">
        <ele>209.2</ele>
        <time>2024-05-04T08:17:06Z</time>
      </trkpt>
      <trkpt lat="50.11335" lon="4.10713">
        <ele>209.6</ele>
        <time>2024-05-04T08:17:07Z</time>
      </trkpt>
      <trkpt lat="50.11333" lon="4.10717">
        <ele>209.6</ele>
        <time>2024-05-04T08:17:08Z</time>
      </trkpt>
      <trkpt lat="50.11331" lon="4.10721">
        <ele>209.8</ele>
        <time>2024-05-04T08:17:09Z</time>
      </trkpt>
      <trkpt lat="50.11328" lon="4.10725">
        <ele>210</ele>
        <time>2024-05-04T08:17:10Z</time>
      </trkpt>
      <trkpt lat="50.11326" lon="4.10729">
        <ele>210</ele>
        <time>2024-05-04T08:17:11Z</time>
      </trkpt>
      <trkpt lat="50.11324" lon="4.10733">
        <ele>210.2</ele>
        <time>2024-05-04T08:17:12Z</time>
      </trkpt>
      <trkpt lat="50.11322" lon="4.10737">
        <ele>210.4</ele>
        <time>2024-05-04T08:17:13Z</time>
      </trkpt>
      <trkpt lat="50.1132" lon="4.1074">
        <ele>210.6</ele>
        <time>2024-05-04T08:17:14Z</time>
      </trkpt>
      <trkpt lat="50.11317" lon="4.10744">
        <ele>210.8</ele>
        <time>2024-05-04T08:17:15Z</time>
      </trkpt>
      <trkpt lat="50.11315" lon="4.10748">
        <ele>210.8</ele>
        <time>2024-05-04T08:17:16Z</time>
      </trkpt>
      <trkpt lat="50.11313" lon="4.10751">
        <ele>211.2</ele>
        <time>2024-05-04T08:17:17Z</time>
      </trkpt>
      <trkpt lat="50.1131" lon="4.10755">
        <ele>211.6</ele>
        <time>2024-05-04T08:17:18Z</time>
      </trkpt>
      <trkpt lat="50.11308" lon="4.10759">
        <ele>212</ele>
        <time>2024-05-04T08:17:19Z</time>
      </trkpt>
      <trkpt lat="50.11305" lon="4.10763">
        <ele>212.4</ele>
        <time>2024-05-04T08:17:20Z</time>
      </trkpt>
      <trkpt lat="50.11302" lon="4.10767">
        <ele>212.4</ele>
        <time>2024-05-04T08:17:21Z</time>
      </trkpt>
      <trkpt lat="50.113" lon="4.1077">
        <ele>212.4</ele>
        <time>2024-05-04T08:17:22Z</time>
      </trkpt>
      <trkpt lat="50.11297" lon="4.10774">
        <ele>212.6</ele>
        <time>2024-05-04T08:17:23Z</time>
      </trkpt>
      <trkpt lat="50.11295" lon="4.10778">
        <ele>213</ele>
        <time>2024-05-04T08:17:24Z</time>
      </trkpt>
      <trkpt lat="50.11292" lon="4.10782">
        <ele>213</ele>
        <time>2024-05-04T08:17:25Z</time>
      </trkpt>
      <trkpt lat="50.1129" lon="4.10786">
        <ele>213.4</ele>
        <time>2024-05-04T08:17:26Z</time>
      </trkpt>
      <trkpt lat="50.11287" lon="4.1079">
        <ele>213.4</ele>
        <time>2024-05-04T08:17:27Z</time>
      </trkpt>
      <trkpt lat="50.11284" lon="4.10794">
        <ele>213.8</ele>
        <time>2024-05-04T08:17:28Z</time>
      </trkpt>
      <trkpt lat="50.11282" lon="4.10798">
        <ele>214</ele>
        <time>2024-05-04T08:17:29Z</time>
      </trkpt>
      <trkpt lat="50.11279" lon="4.10802">
        <ele>214.4</ele>
        <time>2024-05-04T08:17:30Z</time>
      </trkpt>
      <trkpt lat="50.11276" lon="4.10807">
        <ele>214.4</ele>
        <time>2024-05-04T08:17:31Z</time>
      </trkpt>
      <trkpt lat="50.11273" lon="4.10812">
        <ele>214.6</ele>
        <time>2024-05-04T08:17:32Z</time>
      </trkpt>
      <trkpt lat="50.11271" lon="4.10816">
        <ele>214.8</ele>
        <time>2024-05-04T08:17:33Z</time>
      </trkpt>
      <trkpt lat="50.11268" lon="4.10821">
        <ele>215</ele>
        <time>2024-05-04T08:17:34Z</time>
      </trkpt>
      <trkpt lat="50.11265" lon="4.10827">
        <ele>215.4</ele>
        <time>2024-05-04T08:17:35Z</time>
      </trkpt>
      <trkpt lat="50.11263" lon="4.10832">
        <ele>215.4</ele>
        <time>2024-05-04T08:17:36Z</time>
      </trkpt>
      <trkpt lat="50.1126" lon="4.10838">
        <ele>215.4</ele>
        <time>2024-05-04T08:17:37Z</time>
      </trkpt>
      <trkpt lat="50.11259" lon="4.10843">
        <ele>215.4</ele>
        <time>2024-05-04T08:17:38Z</time>
      </trkpt>
      <trkpt lat="50.11257" lon="4.10849">
        <ele>215.8</ele>
        <time>2024-05-04T08:17:39Z</time>
      </trkpt>
      <trkpt lat="50.11255" lon="4.10855">
        <ele>216</ele>
        <time>2024-05-04T08:17:40Z</time>
      </trkpt>
      <trkpt lat="50.11254" lon="4.10861">
        <ele>216</ele>
        <time>2024-05-04T08:17:41Z</time>
      </trkpt>
      <trkpt lat="50.11252" lon="4.10867">
        <ele>216</ele>
        <time>2024-05-04T08:17:42Z</time>
      </trkpt>
      <trkpt lat="50.11251" lon="4.10874">
        <ele>216</ele>
        <time>2024-05-04T08:17:43Z</time>
      </trkpt>
      <trkpt lat="50.1125" lon="4.1088">
        <ele>216.2</ele>
        <time>2024-05-04T08:17:44Z</time>
      </trkpt>
      <trkpt lat="50.11248" lon="4.10887">
        <ele>216.2</ele>
        <time>2024-05-04T08:17:45Z</time>
      </trkpt>
      <trkpt lat="50.11247" lon="4.10894">
        <ele>216.2</ele>
        <time>2024-05-04T08:17:46Z</time>
      </trkpt>
      <trkpt lat="50.11245" lon="4.109">
        <ele>216.4</ele>
        <time>2024-05-04T08:17:47Z</time>
      </trkpt>
      <trkpt lat="50.11244" lon="4.10907">
        <ele>216.6</ele>
        <time>2024-05-04T08:17:48Z</time>
      </trkpt>
      <trkpt lat="50.11243" lon="4.10913">
        <ele>216.6</ele>
        <time>2024-05-04T08:17:49Z</time>
      </trkpt>
      <trkpt lat="50.11241" lon="4.1092">
        <ele>216.8</ele>
        <time>2024-05-04T08:17:50Z</time>
      </trkpt>
      <trkpt lat="50.1124" lon="4.10927">
        <ele>216.6</ele>
        <time>2024-05-04T08:17:51Z</time>
      </trkpt>
      <trkpt lat="50.11239" lon="4.10933">
        <ele>217</ele>
        <time>2024-05-04T08:17:52Z</time>
      </trkpt>
      <trkpt lat="50.11238" lon="4.1094">
        <ele>216.8</ele>
        <time>2024-05-04T08:17:53Z</time>
      </trkpt>
      <trkpt lat="50.11237" lon="4.10947">
        <ele>216.8</ele>
        <time>2024-05-04T08:17:54Z</time>
      </trkpt>
      <trkpt lat="50.11235" lon="4.10954">
        <ele>217.2</ele>
        <time>2024-05-04T08:17:55Z</time>
      </trkpt>
      <trkpt lat="50.11235" lon="4.10961">
        <ele>217.2</ele>
        <time>2024-05-04T08:17:56Z</time>
      </trkpt>
      <trkpt lat="50.11234" lon="4.10968">
        <ele>217.2</ele>
        <time>2024-05-04T08:17:57Z</time>
      </trkpt>
      <trkpt lat="50.11234" lon="4.10976">
        <ele>217.4</ele>
        <time>2024-05-04T08:17:58Z</time>
      </trkpt>
      <trkpt lat="50.11234" lon="4.10983">
        <ele>217.4</ele>
        <time>2024-05-04T08:17:59Z</time>
      </trkpt>
      <trkpt lat="50.11234" lon="4.1099">
        <ele>217.6</ele>
        <time>2024-05-04T08:18:00Z</time>
      </trkpt>
      <trkpt lat="50.11235" lon="4.10997">
        <ele>217.6</ele>
        <time>2024-05-04T08:18:01Z</time>
      </trkpt>
      <trkpt lat="50.11236" lon="4.11004">
        <ele>217.6</ele>
        <time>2024-05-04T08:18:02Z</time>
      </trkpt>
      <trkpt lat="50.11238" lon="4.11011">
        <ele>217.8</ele>
        <time>2024-05-04T08:18:03Z</time>
      </trkpt>
      <trkpt lat="50.1124" lon="4.11018">
        <ele>217.8</ele>
        <time>2024-05-04T08:18:04Z</time>
      </trkpt>
      <trkpt lat="50.11242" lon="4.11024">
        <ele>218</ele>
        <time>2024-05-04T08:18:05Z</time>
      </trkpt>
      <trkpt lat="50.11244" lon="4.11031">
        <ele>218</ele>
        <time>2024-05-04T08:18:06Z</time>
      </trkpt>
      <trkpt lat="50.11245" lon="4.11037">
        <ele>218</ele>
        <time>2024-05-04T08:18:07Z</time>
      </trkpt>
      <trkpt lat="50.11247" lon="4.11043">
        <ele>218.2</ele>
        <time>2024-05-04T08:18:08Z</time>
      </trkpt>
      <trkpt lat="50.11249" lon="4.1105">
        <ele>218.2</ele>
        <time>2024-05-04T08:18:09Z</time>
      </trkpt>
      <trkpt lat="50.11251" lon="4.11056">
        <ele>218.2</ele>
        <time>2024-05-04T08:18:10Z</time>
      </trkpt>
      <trkpt lat="50.11252" lon="4.11063">
        <ele>218.2</ele>
        <time>2024-05-04T08:18:11Z</time>
      </trkpt>
      <trkpt lat="50.11254" lon="4.1107">
        <ele>218.6</ele>
        <time>2024-05-04T08:18:12Z</time>
      </trkpt>
      <trkpt lat="50.11255" lon="4.11077">
        <ele>218.8</ele>
        <time>2024-05-04T08:18:13Z</time>
      </trkpt>
      <trkpt lat="50.11256" lon="4.11084">
        <ele>219</ele>
        <time>2024-05-04T08:18:14Z</time>
      </trkpt>
      <trkpt lat="50.11257" lon="4.11091">
        <ele>219</ele>
        <time>2024-05-04T08:18:15Z</time>
      </trkpt>
      <trkpt lat="50.11257" lon="4.11099">
        <ele>219.2</ele>
        <time>2024-05-04T08:18:16Z</time>
      </trkpt>
      <trkpt lat="50.11256" lon="4.11106">
        <ele>219.4</ele>
        <time>2024-05-04T08:18:17Z</time>
      </trkpt>
      <trkpt lat="50.11254" lon="4.11112">
        <ele>219.6</ele>
        <time>2024-05-04T08:18:18Z</time>
      </trkpt>
      <trkpt lat="50.11251" lon="4.11118">
        <ele>219.6</ele>
        <time>2024-05-04T08:18:19Z</time>
      </trkpt>
      <trkpt lat="50.11247" lon="4.11123">
        <ele>219.6</ele>
        <time>2024-05-04T08:18:20Z</time>
      </trkpt>
      <trkpt lat="50.11243" lon="4.11128">
        <ele>219.6</ele>
        <time>2024-05-04T08:18:21Z</time>
      </trkpt>
      <trkpt lat="50.11239" lon="4.11133">
        <ele>219.8</ele>
        <time>2024-05-04T08:18:22Z</time>
      </trkpt>
      <trkpt lat="50.11235" lon="4.11138">
        <ele>219.8</ele>
        <time>2024-05-04T08:18:23Z</time>
      </trkpt>
      <trkpt lat="50.11232" lon="4.11143">
        <ele>219.8</ele>
        <time>2024-05-04T08:18:24Z</time>
      </trkpt>
      <trkpt lat="50.11228" lon="4.11147">
        <ele>219.8</ele>
        <time>2024-05-04T08:18:25Z</time>
      </trkpt>
      <trkpt lat="50.11224" lon="4.11152">
        <ele>219.8</ele>
        <time>2024-05-04T08:18:26Z</time>
      </trkpt>
      <trkpt lat="50.1122" lon="4.11157">
        <ele>219.8</ele>
        <time>2024-05-04T08:18:27Z</time>
      </trkpt>
      <trkpt lat="50.11216" lon="4.11162">
        <ele>219.8</ele>
        <time>2024-05-04T08:18:28Z</time>
      </trkpt>
      <trkpt lat="50.11212" lon="4.11167">
        <ele>220</ele>
        <time>2024-05-04T08:18:29Z</time>
      </trkpt>
      <trkpt lat="50.11208" lon="4.11172">
        <ele>220</ele>
        <time>2024-05-04T08:18:30Z</time>
      </trkpt>
      <trkpt lat="50.11204" lon="4.11177">
        <ele>220.2</ele>
        <time>2024-05-04T08:18:31Z</time>
      </trkpt>
      <trkpt lat="50.112" lon="4.11182">
        <ele>220.6</ele>
        <time>2024-05-04T08:18:32Z</time>
      </trkpt>
      <trkpt lat="50.11195" lon="4.11187">
        <ele>220.8</ele>
        <time>2024-05-04T08:18:33Z</time>
      </trkpt>
      <trkpt lat="50.11191" lon="4.11192">
        <ele>220.8</ele>
        <time>2024-05-04T08:18:34Z</time>
      </trkpt>
      <trkpt lat="50.11187" lon="4.11197">
        <ele>220.8</ele>
        <time>2024-05-04T08:18:35Z</time>
      </trkpt>
      <trkpt lat="50.11183" lon="4.11203">
        <ele>221</ele>
        <time>2024-05-04T08:18:36Z</time>
      </trkpt>
      <trkpt lat="50.11178" lon="4.11208">
        <ele>221.2</ele>
        <time>2024-05-04T08:18:37Z</time>
      </trkpt>
      <trkpt lat="50.11174" lon="4.11214">
        <ele>221.2</ele>
        <time>2024-05-04T08:18:38Z</time>
      </trkpt>
      <trkpt lat="50.11169" lon="4.1122">
        <ele>221.2</ele>
        <time>2024-05-04T08:18:39Z</time>
      </trkpt>
      <trkpt lat="50.11164" lon="4.11225">
        <ele>221.4</ele>
        <time>2024-05-04T08:18:40Z</time>
      </trkpt>
      <trkpt lat="50.1116" lon="4.11231">
        <ele>221.4</ele>
        <time>2024-05-04T08:18:41Z</time>
      </trkpt>
      <trkpt lat="50.11155" lon="4.11237">
        <ele>221.6</ele>
        <time>2024-05-04T08:18:42Z</time>
      </trkpt>
      <trkpt lat="50.1115" lon="4.11242">
        <ele>221.6</ele>
        <time>2024-05-04T08:18:43Z</time>
      </trkpt>
      <trkpt lat="50.11146" lon="4.11248">
        <ele>221.4</ele>
        <time>2024-05-04T08:18:44Z</time>
      </trkpt>
      <trkpt lat="50.11141" lon="4.11253">
        <ele>221.6</ele>
        <time>2024-05-04T08:18:45Z</time>
      </trkpt>
      <trkpt lat="50.11136" lon="4.11259">
        <ele>221.6</ele>
        <time>2024-05-04T08:18:46Z</time>
      </trkpt>
      <trkpt lat="50.11132" lon="4.11264">
        <ele>221.6</ele>
        <time>2024-05-04T08:18:47Z</time>
      </trkpt>
      <trkpt lat="50.11127" lon="4.11269">
        <ele>221.6</ele>
        <time>2024-05-04T08:18:48Z</time>
      </trkpt>
      <trkpt lat="50.11122" lon="4.11273">
        <ele>221.4</ele>
        <time>2024-05-04T08:18:49Z</time>
      </trkpt>
      <trkpt lat="50.11117" lon="4.11277">
        <ele>221.6</ele>
        <time>2024-05-04T08:18:50Z</time>
      </trkpt>
      <trkpt lat="50.11113" lon="4.1128">
        <ele>221.6</ele>
        <time>2024-05-04T08:18:51Z</time>
      </trkpt>
      <trkpt lat="50.11108" lon="4.11282">
        <ele>221.6</ele>
        <time>2024-05-04T08:18:52Z</time>
      </trkpt>
      <trkpt lat="50.11102" lon="4.11284">
        <ele>221.6</ele>
        <time>2024-05-04T08:18:53Z</time>
      </trkpt>
      <trkpt lat="50.11097" lon="4.11286">
        <ele>221.8</ele>
        <time>2024-05-04T08:18:54Z</time>
      </trkpt>
      <trkpt lat="50.11091" lon="4.11288">
        <ele>221.8</ele>
        <time>2024-05-04T08:18:55Z</time>
      </trkpt>
      <trkpt lat="50.11085" lon="4.1129">
        <ele>221.8</ele>
        <time>2024-05-04T08:18:56Z</time>
      </trkpt>
      <trkpt lat="50.1108" lon="4.11292">
        <ele>221.8</ele>
        <time>2024-05-04T08:18:57Z</time>
      </trkpt>
      <trkpt lat="50.11074" lon="4.11294">
        <ele>222</ele>
        <time>2024-05-04T08:18:58Z</time>
      </trkpt>
      <trkpt lat="50.11068" lon="4.11296">
        <ele>221.8</ele>
        <time>2024-05-04T08:18:59Z</time>
      </trkpt>
      <trkpt lat="50.11062" lon="4.11299">
        <ele>222</ele>
        <time>2024-05-04T08:19:00Z</time>
      </trkpt>
      <trkpt lat="50.11056" lon="4.11301">
        <ele>222</ele>
        <time>2024-05-04T08:19:01Z</time>
      </trkpt>
      <trkpt lat="50.1105" lon="4.11304">
        <ele>222</ele>
        <time>2024-05-04T08:19:02Z</time>
      </trkpt>
      <trkpt lat="50.11044" lon="4.11306">
        <ele>222</ele>
        <time>2024-05-04T08:19:03Z</time>
      </trkpt>
      <trkpt lat="50.11038" lon="4.11309">
        <ele>222</ele>
        <time>2024-05-04T08:19:04Z</time>
      </trkpt>
      <trkpt lat="50.11031" lon="4.11312">
        <ele>222</ele>
        <time>2024-05-04T08:19:05Z</time>
      </trkpt>
      <trkpt lat="50.11025" lon="4.11314">
        <ele>222</ele>
        <time>2024-05-04T08:19:06Z</time>
      </trkpt>
      <trkpt lat="50.11018" lon="4.11317">
        <ele>221.8</ele>
        <time>2024-05-04T08:19:07Z</time>
      </trkpt>
      <trkpt lat="50.11012" lon="4.1132">
        <ele>222</ele>
        <time>2024-05-04T08:19:08Z</time>
      </trkpt>
      <trkpt lat="50.11006" lon="4.11322">
        <ele>221.8</ele>
        <time>2024-05-04T08:19:09Z</time>
      </trkpt>
      <trkpt lat="50.11" lon="4.11325">
        <ele>222</ele>
        <time>2024-05-04T08:19:10Z</time>
      </trkpt>
      <trkpt lat="50.10994" lon="4.11327">
        <ele>222</ele>
        <time>2024-05-04T08:19:11Z</time>
      </trkpt>
      <trkpt lat="50.10987" lon="4.1133">
        <ele>222.2</ele>
        <time>2024-05-04T08:19:12Z</time>
      </trkpt>
      <trkpt lat="50.10981" lon="4.11332">
        <ele>222</ele>
        <time>2024-05-04T08:19:13Z</time>
      </trkpt>
      <trkpt lat="50.10975" lon="4.11335">
        <ele>222</ele>
        <time>2024-05-04T08:19:14Z</time>
      </trkpt>
      <trkpt lat="50.10968" lon="4.11338">
        <ele>222.2</ele>
        <time>2024-05-04T08:19:15Z</time>
      </trkpt>
      <trkpt lat="50.10962" lon="4.1134">
        <ele>222.2</ele>
        <time>2024-05-04T08:19:16Z</time>
      </trkpt>
      <trkpt lat="50.10956" lon="4.11342">
        <ele>222</ele>
        <time>2024-05-04T08:19:17Z</time>
      </trkpt>
      <trkpt lat="50.1095" lon="4.11344">
        <ele>222</ele>
        <time>2024-05-04T08:19:18Z</time>
      </trkpt>
      <trkpt lat="50.10944" lon="4.11345">
        <ele>222.2</ele>
        <time>2024-05-04T08:19:19Z</time>
      </trkpt>
      <trkpt lat="50.10938" lon="4.11344">
        <ele>222.2</ele>
        <time>2024-05-04T08:19:20Z</time>
      </trkpt>
      <trkpt lat="50.10932" lon="4.11343">
        <ele>222.2</ele>
        <time>2024-05-04T08:19:21Z</time>
      </trkpt>
      <trkpt lat="50.10926" lon="4.11341">
        <ele>222.2</ele>
        <time>2024-05-04T08:19:22Z</time>
      </trkpt>
      <trkpt lat="50.1092" lon="4.11339">
        <ele>222.2</ele>
        <time>2024-05-04T08:19:23Z</time>
      </trkpt>
      <trkpt lat="50.10914" lon="4.11337">
        <ele>222.2</ele>
        <time>2024-05-04T08:19:24Z</time>
      </trkpt>
      <trkpt lat="50.10908" lon="4.11334">
        <ele>222.2</ele>
        <time>2024-05-04T08:19:25Z</time>
      </trkpt>
      <trkpt lat="50.10902" lon="4.11332">
        <ele>222.2</ele>
        <time>2024-05-04T08:19:26Z</time>
      </trkpt>
      <trkpt lat="50.10895" lon="4.1133">
        <ele>222</ele>
        <time>2024-05-04T08:19:27Z</time>
      </trkpt>
      <trkpt lat="50.10889" lon="4.11328">
        <ele>222.2</ele>
        <time>2024-05-04T08:19:28Z</time>
      </trkpt>
      <trkpt lat="50.10883" lon="4.11327">
        <ele>222</ele>
        <time>2024-05-04T08:19:29Z</time>
      </trkpt>
      <trkpt lat="50.10876" lon="4.11325">
        <ele>222.2</ele>
        <time>2024-05-04T08:19:30Z</time>
      </trkpt>
      <trkpt lat="50.10869" lon="4.11324">
        <ele>222</ele>
        <time>2024-05-04T08:19:31Z</time>
      </trkpt>
      <trkpt lat="50.10863" lon="4.11324">
        <ele>222</ele>
        <time>2024-05-04T08:19:32Z</time>
      </trkpt>
      <trkpt lat="50.10856" lon="4.11325">
        <ele>221.8</ele>
        <time>2024-05-04T08:19:33Z</time>
      </trkpt>
      <trkpt lat="50.10849" lon="4.11327">
        <ele>221.8</ele>
        <time>2024-05-04T08:19:34Z</time>
      </trkpt>
      <trkpt lat="50.10843" lon="4.1133">
        <ele>221.8</ele>
        <time>2024-05-04T08:19:35Z</time>
      </trkpt>
      <trkpt lat="50.10836" lon="4.11336">
        <ele>221.8</ele>
        <time>2024-05-04T08:19:36Z</time>
      </trkpt>
      <trkpt lat="50.10831" lon="4.11343">
        <ele>221.8</ele>
        <time>2024-05-04T08:19:37Z</time>
      </trkpt>
      <trkpt lat="50.10826" lon="4.11352">
        <ele>221.6</ele>
        <time>2024-05-04T08:19:38Z</time>
      </trkpt>
      <trkpt lat="50.10822" lon="4.1136">
        <ele>221.6</ele>
        <time>2024-05-04T08:19:39Z</time>
      </trkpt>
      <trkpt lat="50.10818" lon="4.11368">
        <ele>221.6</ele>
        <time>2024-05-04T08:19:40Z</time>
      </trkpt>
      <trkpt lat="50.10814" lon="4.11377">
        <ele>221.6</ele>
        <time>2024-05-04T08:19:41Z</time>
      </trkpt>
      <trkpt lat="50.1081" lon="4.11385">
        <ele>221.6</ele>
        <time>2024-05-04T08:19:42Z</time>
      </trkpt>
      <trkpt lat="50.10807" lon="4.11394">
        <ele>221.6</ele>
        <time>2024-05-04T08:19:43Z</time>
      </trkpt>
      <trkpt lat="50.10803" lon="4.11402">
        <ele>221.6</ele>
        <time>2024-05-04T08:19:44Z</time>
      </trkpt>
      <trkpt lat="50.10799" lon="4.1141">
        <ele>221.6</ele>
        <time>2024-05-04T08:19:45Z</time>
      </trkpt>
      <trkpt lat="50.10796" lon="4.11419">
        <ele>221.8</ele>
        <time>2024-05-04T08:19:46Z</time>
      </trkpt>
      <trkpt lat="50.10792" lon="4.11428">
        <ele>221.8</ele>
        <time>2024-05-04T08:19:47Z</time>
      </trkpt>
      <trkpt lat="50.10788" lon="4.11437">
        <ele>221.8</ele>
        <time>2024-05-04T08:19:48Z</time>
      </trkpt>
      <trkpt lat="50.10784" lon="4.11446">
        <ele>221.8</ele>
        <time>2024-05-04T08:19:49Z</time>
      </trkpt>
      <trkpt lat="50.1078" lon="4.11454">
        <ele>222</ele>
        <time>2024-05-04T08:19:50Z</time>
      </trkpt>
      <trkpt lat="50.10776" lon="4.11463">
        <ele>221.8</ele>
        <time>2024-05-04T08:19:51Z</time>
      </trkpt>
      <trkpt lat="50.10773" lon="4.11471">
        <ele>222</ele>
        <time>2024-05-04T08:19:52Z</time>
      </trkpt>
      <trkpt lat="50.10769" lon="4.11479">
        <ele>222</ele>
        <time>2024-05-04T08:19:53Z</time>
      </trkpt>
      <trkpt lat="50.10765" lon="4.11487">
        <ele>222.4</ele>
        <time>2024-05-04T08:19:54Z</time>
      </trkpt>
      <trkpt lat="50.10761" lon="4.11496">
        <ele>222.4</ele>
        <time>2024-05-04T08:19:55Z</time>
      </trkpt>
      <trkpt lat="50.10757" lon="4.11504">
        <ele>222.4</ele>
        <time>2024-05-04T08:19:56Z</time>
      </trkpt>
      <trkpt lat="50.10754" lon="4.11512">
        <ele>222.6</ele>
        <time>2024-05-04T08:19:57Z</time>
      </trkpt>
      <trkpt lat="50.1075" lon="4.11521">
        <ele>222.4</ele>
        <time>2024-05-04T08:19:58Z</time>
      </trkpt>
      <trkpt lat="50.10746" lon="4.11529">
        <ele>222.6</ele>
        <time>2024-05-04T08:19:59Z</time>
      </trkpt>
      <trkpt lat="50.10742" lon="4.11537">
        <ele>222.6</ele>
        <time>2024-05-04T08:20:00Z</time>
      </trkpt>
      <trkpt lat="50.10738" lon="4.11546">
        <ele>222.6</ele>
        <time>2024-05-04T08:20:01Z</time>
      </trkpt>
      <trkpt lat="50.10735" lon="4.11555">
        <ele>222.6</ele>
        <time>2024-05-04T08:20:02Z</time>
      </trkpt>
      <trkpt lat="50.10731" lon="4.11564">
        <ele>222.6</ele>
        <time>2024-05-04T08:20:03Z</time>
      </trkpt>
      <trkpt lat="50.10728" lon="4.11573">
        <ele>222.6</ele>
        <time>2024-05-04T08:20:04Z</time>
      </trkpt>
      <trkpt lat="50.10724" lon="4.11582">
        <ele>222.6</ele>
        <time>2024-05-04T08:20:05Z</time>
      </trkpt>
      <trkpt lat="50.1072" lon="4.11591">
        <ele>222.6</ele>
        <time>2024-05-04T08:20:06Z</time>
      </trkpt>
      <trkpt lat="50.10716" lon="4.116">
        <ele>222.6</ele>
        <time>2024-05-04T08:20:07Z</time>
      </trkpt>
      <trkpt lat="50.10712" lon="4.11609">
        <ele>222.6</ele>
        <time>2024-05-04T08:20:08Z</time>
      </trkpt>
      <trkpt lat="50.10708" lon="4.11617">
        <ele>222.6</ele>
        <time>2024-05-04T08:20:09Z</time>
      </trkpt>
      <trkpt lat="50.10705" lon="4.11626">
        <ele>222.6</ele>
        <time>2024-05-04T08:20:10Z</time>
      </trkpt>
      <trkpt lat="50.10701" lon="4.11634">
        <ele>222.6</ele>
        <time>2024-05-04T08:20:11Z</time>
      </trkpt>
      <trkpt lat="50.10697" lon="4.11643">
        <ele>222.6</ele>
        <time>2024-05-04T08:20:12Z</time>
      </trkpt>
      <trkpt lat="50.10694" lon="4.11651">
        <ele>222.6</ele>
        <time>2024-05-04T08:20:13Z</time>
      </trkpt>
      <trkpt lat="50.10691" lon="4.11659">
        <ele>222.6</ele>
        <time>2024-05-04T08:20:14Z</time>
      </trkpt>
      <trkpt lat="50.10688" lon="4.11667">
        <ele>222.6</ele>
        <time>2024-05-04T08:20:15Z</time>
      </trkpt>
      <trkpt lat="50.10686" lon="4.11676">
        <ele>222.8</ele>
        <time>2024-05-04T08:20:16Z</time>
      </trkpt>
      <trkpt lat="50.10683" lon="4.11685">
        <ele>223.4</ele>
        <time>2024-05-04T08:20:17Z</time>
      </trkpt>
      <trkpt lat="50.10681" lon="4.11695">
        <ele>223.6</ele>
        <time>2024-05-04T08:20:18Z</time>
      </trkpt>
      <trkpt lat="50.10679" lon="4.11704">
        <ele>223.8</ele>
        <time>2024-05-04T08:20:19Z</time>
      </trkpt>
      <trkpt lat="50.10677" lon="4.11714">
        <ele>223.8</ele>
        <time>2024-05-04T08:20:20Z</time>
      </trkpt>
      <trkpt lat="50.10676" lon="4.11723">
        <ele>223.8</ele>
        <time>2024-05-04T08:20:21Z</time>
      </trkpt>
      <trkpt lat="50.10675" lon="4.11732">
        <ele>224</ele>
        <time>2024-05-04T08:20:22Z</time>
      </trkpt>
      <trkpt lat="50.10673" lon="4.11742">
        <ele>224</ele>
        <time>2024-05-04T08:20:23Z</time>
      </trkpt>
      <trkpt lat="50.10672" lon="4.11751">
        <ele>224.2</ele>
        <time>2024-05-04T08:20:24Z</time>
      </trkpt>
      <trkpt lat="50.10671" lon="4.11759">
        <ele>224.2</ele>
        <time>2024-05-04T08:20:25Z</time>
      </trkpt>
      <trkpt lat="50.10669" lon="4.11768">
        <ele>224.4</ele>
        <time>2024-05-04T08:20:26Z</time>
      </trkpt>
      <trkpt lat="50.10668" lon="4.11776">
        <ele>224.4</ele>
        <time>2024-05-04T08:20:27Z</time>
      </trkpt>
      <trkpt lat="50.10667" lon="4.11783">
        <ele>224.4</ele>
        <time>2024-05-04T08:20:28Z</time>
      </trkpt>
      <trkpt lat="50.10665" lon="4.11791">
        <ele>224.6</ele>
        <time>2024-05-04T08:20:29Z</time>
      </trkpt>
      <trkpt lat="50.10664" lon="4.118">
        <ele>224.8</ele>
        <time>2024-05-04T08:20:30Z</time>
      </trkpt>
      <trkpt lat="50.10663" lon="4.11808">
        <ele>224.8</ele>
        <time>2024-05-04T08:20:31Z</time>
      </trkpt>
      <trkpt lat="50.10662" lon="4.11816">
        <ele>225.4</ele>
        <time>2024-05-04T08:20:32Z</time>
      </trkpt>
      <trkpt lat="50.10661" lon="4.11823">
        <ele>225.8</ele>
        <time>2024-05-04T08:20:33Z</time>
      </trkpt>
      <trkpt lat="50.1066" lon="4.11829">
        <ele>226.4</ele>
        <time>2024-05-04T08:20:34Z</time>
      </trkpt>
      <trkpt lat="50.10658" lon="4.11836">
        <ele>226.6</ele>
        <time>2024-05-04T08:20:35Z</time>
      </trkpt>
      <trkpt lat="50.10657" lon="4.11843">
        <ele>227.2</ele>
        <time>2024-05-04T08:20:36Z</time>
      </trkpt>
      <trkpt lat="50.10656" lon="4.1185">
        <ele>227.4</ele>
        <time>2024-05-04T08:20:37Z</time>
      </trkpt>
      <trkpt lat="50.10654" lon="4.11857">
        <ele>227.8</ele>
        <time>2024-05-04T08:20:38Z</time>
      </trkpt>
      <trkpt lat="50.10652" lon="4.11864">
        <ele>228.2</ele>
        <time>2024-05-04T08:20:39Z</time>
      </trkpt>
      <trkpt lat="50.1065" lon="4.11872">
        <ele>228.4</ele>
        <time>2024-05-04T08:20:40Z</time>
      </trkpt>
      <trkpt lat="50.10649" lon="4.11879">
        <ele>228.4</ele>
        <time>2024-05-04T08:20:41Z</time>
      </trkpt>
      <trkpt lat="50.10647" lon="4.11887">
        <ele>228.8</ele>
        <time>2024-05-04T08:20:42Z</time>
      </trkpt>
      <trkpt lat="50.10645" lon="4.11895">
        <ele>229</ele>
        <time>2024-05-04T08:20:43Z</time>
      </trkpt>
      <trkpt lat="50.10642" lon="4.11902">
        <ele>229.6</ele>
        <time>2024-05-04T08:20:44Z</time>
      </trkpt>
      <trkpt lat="50.1064" lon="4.1191">
        <ele>229.8</ele>
        <time>2024-05-04T08:20:45Z</time>
      </trkpt>
      <trkpt lat="50.10638" lon="4.11918">
        <ele>229.8</ele>
        <time>2024-05-04T08:20:46Z</time>
      </trkpt>
      <trkpt lat="50.10635" lon="4.11925">
        <ele>230.4</ele>
        <time>2024-05-04T08:20:47Z</time>
      </trkpt>
      <trkpt lat="50.10633" lon="4.11932">
        <ele>230.8</ele>
        <time>2024-05-04T08:20:48Z</time>
      </trkpt>
      <trkpt lat="50.10631" lon="4.1194">
        <ele>231</ele>
        <time>2024-05-04T08:20:49Z</time>
      </trkpt>
      <trkpt lat="50.10629" lon="4.11947">
        <ele>231.4</ele>
        <time>2024-05-04T08:20:50Z</time>
      </trkpt>
      <trkpt lat="50.10627" lon="4.11954">
        <ele>231.4</ele>
        <time>2024-05-04T08:20:51Z</time>
      </trkpt>
      <trkpt lat="50.10624" lon="4.11961">
        <ele>231.6</ele>
        <time>2024-05-04T08:20:52Z</time>
      </trkpt>
      <trkpt lat="50.10621" lon="4.11967">
        <ele>231.6</ele>
        <time>2024-05-04T08:20:53Z</time>
      </trkpt>
      <trkpt lat="50.10619" lon="4.11974">
        <ele>231.6</ele>
        <time>2024-05-04T08:20:54Z</time>
      </trkpt>
      <trkpt lat="50.10616" lon="4.11981">
        <ele>232</ele>
        <time>2024-05-04T08:20:55Z</time>
      </trkpt>
      <trkpt lat="50.10613" lon="4.11988">
        <ele>232.4</ele>
        <time>2024-05-04T08:20:56Z</time>
      </trkpt>
      <trkpt lat="50.10611" lon="4.11996">
        <ele>232.6</ele>
        <time>2024-05-04T08:20:57Z</time>
      </trkpt>
      <trkpt lat="50.10609" lon="4.12003">
        <ele>232.8</ele>
        <time>2024-05-04T08:20:58Z</time>
      </trkpt>
      <trkpt lat="50.10606" lon="4.1201">
        <ele>233</ele>
        <time>2024-05-04T08:20:59Z</time>
      </trkpt>
      <trkpt lat="50.10604" lon="4.12018">
        <ele>233</ele>
        <time>2024-05-04T08:21:00Z</time>
      </trkpt>
      <trkpt lat="50.10602" lon="4.12025">
        <ele>233</ele>
        <time>2024-05-04T08:21:01Z</time>
      </trkpt>
      <trkpt lat="50.10599" lon="4.12032">
        <ele>233.2</ele>
        <time>2024-05-04T08:21:02Z</time>
      </trkpt>
      <trkpt lat="50.10597" lon="4.12039">
        <ele>233</ele>
        <time>2024-05-04T08:21:03Z</time>
      </trkpt>
      <trkpt lat="50.10594" lon="4.12046">
        <ele>233</ele>
        <time>2024-05-04T08:21:04Z</time>
      </trkpt>
      <trkpt lat="50.10592" lon="4.12053">
        <ele>233.4</ele>
        <time>2024-05-04T08:21:05Z</time>
      </trkpt>
      <trkpt lat="50.1059" lon="4.12061">
        <ele>233.4</ele>
        <time>2024-05-04T08:21:06Z</time>
      </trkpt>
      <trkpt lat="50.10588" lon="4.12069">
        <ele>233.4</ele>
        <time>2024-05-04T08:21:07Z</time>
      </trkpt>
      <trkpt lat="50.10586" lon="4.12076">
        <ele>233.4</ele>
        <time>2024-05-04T08:21:08Z</time>
      </trkpt>
      <trkpt lat="50.10584" lon="4.12084">
        <ele>233.4</ele>
        <time>2024-05-04T08:21:09Z</time>
      </trkpt>
      <trkpt lat="50.10581" lon="4.12092">
        <ele>233.4</ele>
        <time>2024-05-04T08:21:10Z</time>
      </trkpt>
      <trkpt lat="50.10579" lon="4.12099">
        <ele>233.4</ele>
        <time>2024-05-04T08:21:11Z</time>
      </trkpt>
      <trkpt lat="50.10576" lon="4.12107">
        <ele>233.6</ele>
        <time>2024-05-04T08:21:12Z</time>
      </trkpt>
      <trkpt lat="50.10574" lon="4.12115">
        <ele>233.6</ele>
        <time>2024-05-04T08:21:13Z</time>
      </trkpt>
      <trkpt lat="50.10571" lon="4.12123">
        <ele>233.6</ele>
        <time>2024-05-04T08:21:14Z</time>
      </trkpt>
      <trkpt lat="50.10569" lon="4.12131">
        <ele>233.6</ele>
        <time>2024-05-04T08:21:15Z</time>
      </trkpt>
      <trkpt lat="50.10565" lon="4.12138">
        <ele>233.6</ele>
        <time>2024-05-04T08:21:16Z</time>
      </trkpt>
      <trkpt lat="50.1056" lon="4.12143">
        <ele>233.8</ele>
        <time>2024-05-04T08:21:17Z</time>
      </trkpt>
      <trkpt lat="50.10554" lon="4.12146">
        <ele>233.8</ele>
        <time>2024-05-04T08:21:18Z</time>
      </trkpt>
      <trkpt lat="50.10549" lon="4.12148">
        <ele>234</ele>
        <time>2024-05-04T08:21:19Z</time>
      </trkpt>
      <trkpt lat="50.10544" lon="4.12149">
        <ele>234.4</ele>
        <time>2024-05-04T08:21:20Z</time>
      </trkpt>
      <trkpt lat="50.10538" lon="4.12149">
        <ele>234.4</ele>
        <time>2024-05-04T08:21:21Z</time>
      </trkpt>
      <trkpt lat="50.10532" lon="4.12148">
        <ele>234.4</ele>
        <time>2024-05-04T08:21:22Z</time>
      </trkpt>
      <trkpt lat="50.10526" lon="4.12148">
        <ele>234.6</ele>
        <time>2024-05-04T08:21:23Z</time>
      </trkpt>
      <trkpt lat="50.1052" lon="4.12147">
        <ele>234.6</ele>
        <time>2024-05-04T08:21:24Z</time>
      </trkpt>
      <trkpt lat="50.10514" lon="4.12147">
        <ele>234.6</ele>
        <time>2024-05-04T08:21:25Z</time>
      </trkpt>
      <trkpt lat="50.10508" lon="4.12147">
        <ele>234.6</ele>
        <time>2024-05-04T08:21:26Z</time>
      </trkpt>
      <trkpt lat="50.10502" lon="4.12147">
        <ele>234.8</ele>
        <time>2024-05-04T08:21:27Z</time>
      </trkpt>
      <trkpt lat="50.10496" lon="4.12146">
        <ele>234.8</ele>
        <time>2024-05-04T08:21:28Z</time>
      </trkpt>
      <trkpt lat="50.1049" lon="4.12146">
        <ele>234.8</ele>
        <time>2024-05-04T08:21:29Z</time>
      </trkpt>
      <trkpt lat="50.10484" lon="4.12145">
        <ele>234.6</ele>
        <time>2024-05-04T08:21:30Z</time>
      </trkpt>
      <trkpt lat="50.10478" lon="4.12145">
        <ele>234.6</ele>
        <time>2024-05-04T08:21:31Z</time>
      </trkpt>
      <trkpt lat="50.10472" lon="4.12144">
        <ele>234.6</ele>
        <time>2024-05-04T08:21:32Z</time>
      </trkpt>
      <trkpt lat="50.10466" lon="4.12143">
        <ele>234.6</ele>
        <time>2024-05-04T08:21:33Z</time>
      </trkpt>
      <trkpt lat="50.10461" lon="4.12143">
        <ele>234.6</ele>
        <time>2024-05-04T08:21:34Z</time>
      </trkpt>
      <trkpt lat="50.10454" lon="4.12143">
        <ele>234.4</ele>
        <time>2024-05-04T08:21:35Z</time>
      </trkpt>
      <trkpt lat="50.10448" lon="4.12142">
        <ele>234.4</ele>
        <time>2024-05-04T08:21:36Z</time>
      </trkpt>
      <trkpt lat="50.10441" lon="4.12142">
        <ele>234.6</ele>
        <time>2024-05-04T08:21:37Z</time>
      </trkpt>
      <trkpt lat="50.10435" lon="4.12141">
        <ele>234.4</ele>
        <time>2024-05-04T08:21:38Z</time>
      </trkpt>
      <trkpt lat="50.10428" lon="4.1214">
        <ele>234.4</ele>
        <time>2024-05-04T08:21:39Z</time>
      </trkpt>
      <trkpt lat="50.10422" lon="4.12139">
        <ele>234.4</ele>
        <time>2024-05-04T08:21:40Z</time>
      </trkpt>
      <trkpt lat="50.10415" lon="4.12137">
        <ele>234.4</ele>
        <time>2024-05-04T08:21:41Z</time>
      </trkpt>
      <trkpt lat="50.10409" lon="4.12134">
        <ele>234.4</ele>
        <time>2024-05-04T08:21:42Z</time>
      </trkpt>
      <trkpt lat="50.10403" lon="4.12131">
        <ele>234.4</ele>
        <time>2024-05-04T08:21:43Z</time>
      </trkpt>
      <trkpt lat="50.10398" lon="4.12128">
        <ele>234.4</ele>
        <time>2024-05-04T08:21:44Z</time>
      </trkpt>
      <trkpt lat="50.10392" lon="4.12125">
        <ele>234.2</ele>
        <time>2024-05-04T08:21:45Z</time>
      </trkpt>
      <trkpt lat="50.10386" lon="4.12121">
        <ele>234.2</ele>
        <time>2024-05-04T08:21:46Z</time>
      </trkpt>
      <trkpt lat="50.1038" lon="4.12118">
        <ele>234</ele>
        <time>2024-05-04T08:21:47Z</time>
      </trkpt>
      <trkpt lat="50.10374" lon="4.12114">
        <ele>234</ele>
        <time>2024-05-04T08:21:48Z</time>
      </trkpt>
      <trkpt lat="50.10368" lon="4.1211">
        <ele>233.8</ele>
        <time>2024-05-04T08:21:49Z</time>
      </trkpt>
      <trkpt lat="50.10361" lon="4.12106">
        <ele>233.8</ele>
        <time>2024-05-04T08:21:50Z</time>
      </trkpt>
      <trkpt lat="50.10355" lon="4.12103">
        <ele>233.8</ele>
        <time>2024-05-04T08:21:51Z</time>
      </trkpt>
      <trkpt lat="50.10349" lon="4.12099">
        <ele>233.6</ele>
        <time>2024-05-04T08:21:52Z</time>
      </trkpt>
      <trkpt lat="50.10343" lon="4.12096">
        <ele>233.4</ele>
        <time>2024-05-04T08:21:53Z</time>
      </trkpt>
      <trkpt lat="50.10336" lon="4.12092">
        <ele>233.2</ele>
        <time>2024-05-04T08:21:54Z</time>
      </trkpt>
      <trkpt lat="50.1033" lon="4.12087">
        <ele>233.2</ele>
        <time>2024-05-04T08:21:55Z</time>
      </trkpt>
      <trkpt lat="50.10324" lon="4.12083">
        <ele>232.8</ele>
        <time>2024-05-04T08:21:56Z</time>
      </trkpt>
      <trkpt lat="50.10317" lon="4.12079">
        <ele>232.6</ele>
        <time>2024-05-04T08:21:57Z</time>
      </trkpt>
      <trkpt lat="50.10311" lon="4.12075">
        <ele>232.4</ele>
        <time>2024-05-04T08:21:58Z</time>
      </trkpt>
      <trkpt lat="50.10305" lon="4.12071">
        <ele>232.2</ele>
        <time>2024-05-04T08:21:59Z</time>
      </trkpt>
      <trkpt lat="50.10298" lon="4.12067">
        <ele>232</ele>
        <time>2024-05-04T08:22:00Z</time>
      </trkpt>
      <trkpt lat="50.10291" lon="4.12063">
        <ele>232.2</ele>
        <time>2024-05-04T08:22:01Z</time>
      </trkpt>
      <trkpt lat="50.10284" lon="4.12059">
        <ele>232</ele>
        <time>2024-05-04T08:22:02Z</time>
      </trkpt>
      <trkpt lat="50.10278" lon="4.12055">
        <ele>232.2</ele>
        <time>2024-05-04T08:22:03Z</time>
      </trkpt>
      <trkpt lat="50.10271" lon="4.1205">
        <ele>232</ele>
        <time>2024-05-04T08:22:04Z</time>
      </trkpt>
      <trkpt lat="50.10264" lon="4.12046">
        <ele>232</ele>
        <time>2024-05-04T08:22:05Z</time>
      </trkpt>
      <trkpt lat="50.10256" lon="4.12042">
        <ele>232</ele>
        <time>2024-05-04T08:22:06Z</time>
      </trkpt>
      <trkpt lat="50.10249" lon="4.12037">
        <ele>231.8</ele>
        <time>2024-05-04T08:22:07Z</time>
      </trkpt>
      <trkpt lat="50.10241" lon="4.12032">
        <ele>231.8</ele>
        <time>2024-05-04T08:22:08Z</time>
      </trkpt>
      <trkpt lat="50.10233" lon="4.12028">
        <ele>231.6</ele>
        <time>2024-05-04T08:22:09Z</time>
      </trkpt>
      <trkpt lat="50.10226" lon="4.12023">
        <ele>231.2</ele>
        <time>2024-05-04T08:22:10Z</time>
      </trkpt>
      <trkpt lat="50.10219" lon="4.12018">
        <ele>231</ele>
        <time>2024-05-04T08:22:11Z</time>
      </trkpt>
      <trkpt lat="50.10212" lon="4.12013">
        <ele>230.8</ele>
        <time>2024-05-04T08:22:12Z</time>
      </trkpt>
      <trkpt lat="50.10204" lon="4.12009">
        <ele>230.2</ele>
        <time>2024-05-04T08:22:13Z</time>
      </trkpt>
      <trkpt lat="50.10197" lon="4.12004">
        <ele>230.2</ele>
        <time>2024-05-04T08:22:14Z</time>
      </trkpt>
      <trkpt lat="50.1019" lon="4.12">
        <ele>230</ele>
        <time>2024-05-04T08:22:15Z</time>
      </trkpt>
      <trkpt lat="50.10182" lon="4.11997">
        <ele>229.6</ele>
        <time>2024-05-04T08:22:16Z</time>
      </trkpt>
      <trkpt lat="50.10175" lon="4.11993">
        <ele>229.2</ele>
        <time>2024-05-04T08:22:17Z</time>
      </trkpt>
      <trkpt lat="50.10168" lon="4.1199">
        <ele>229</ele>
        <time>2024-05-04T08:22:18Z</time>
      </trkpt>
      <trkpt lat="50.10161" lon="4.11987">
        <ele>228.6</ele>
        <time>2024-05-04T08:22:19Z</time>
      </trkpt>
      <trkpt lat="50.10153" lon="4.11984">
        <ele>228.4</ele>
        <time>2024-05-04T08:22:20Z</time>
      </trkpt>
      <trkpt lat="50.10146" lon="4.11981">
        <ele>228</ele>
        <time>2024-05-04T08:22:21Z</time>
      </trkpt>
      <trkpt lat="50.10138" lon="4.11978">
        <ele>228</ele>
        <time>2024-05-04T08:22:22Z</time>
      </trkpt>
      <trkpt lat="50.10131" lon="4.11975">
        <ele>227.8</ele>
        <time>2024-05-04T08:22:23Z</time>
      </trkpt>
      <trkpt lat="50.10123" lon="4.11972">
        <ele>227.6</ele>
        <time>2024-05-04T08:22:24Z</time>
      </trkpt>
      <trkpt lat="50.10115" lon="4.11969">
        <ele>227.4</ele>
        <time>2024-05-04T08:22:25Z</time>
      </trkpt>
      <trkpt lat="50.10108" lon="4.11966">
        <ele>227.2</ele>
        <time>2024-05-04T08:22:26Z</time>
      </trkpt>
      <trkpt lat="50.101" lon="4.11962">
        <ele>226.8</ele>
        <time>2024-05-04T08:22:27Z</time>
      </trkpt>
      <trkpt lat="50.10092" lon="4.11959">
        <ele>226.6</ele>
        <time>2024-05-04T08:22:28Z</time>
      </trkpt>
      <trkpt lat="50.10085" lon="4.11955">
        <ele>226.2</ele>
        <time>2024-05-04T08:22:29Z</time>
      </trkpt>
      <trkpt lat="50.10077" lon="4.11952">
        <ele>226</ele>
        <time>2024-05-04T08:22:30Z</time>
      </trkpt>
      <trkpt lat="50.10069" lon="4.11948">
        <ele>225.8</ele>
        <time>2024-05-04T08:22:31Z</time>
      </trkpt>
      <trkpt lat="50.10061" lon="4.11944">
        <ele>225.6</ele>
        <time>2024-05-04T08:22:32Z</time>
      </trkpt>
      <trkpt lat="50.10054" lon="4.1194">
        <ele>225.6</ele>
        <time>2024-05-04T08:22:33Z</time>
      </trkpt>
      <trkpt lat="50.10046" lon="4.11935">
        <ele>225.2</ele>
        <time>2024-05-04T08:22:34Z</time>
      </trkpt>
      <trkpt lat="50.10038" lon="4.11931">
        <ele>225</ele>
        <time>2024-05-04T08:22:35Z</time>
      </trkpt>
      <trkpt lat="50.10031" lon="4.11927">
        <ele>225</ele>
        <time>2024-05-04T08:22:36Z</time>
      </trkpt>
      <trkpt lat="50.10023" lon="4.11923">
        <ele>224.8</ele>
        <time>2024-05-04T08:22:37Z</time>
      </trkpt>
      <trkpt lat="50.10015" lon="4.11919">
        <ele>224.8</ele>
        <time>2024-05-04T08:22:38Z</time>
      </trkpt>
      <trkpt lat="50.10007" lon="4.11916">
        <ele>224.6</ele>
        <time>2024-05-04T08:22:39Z</time>
      </trkpt>
      <trkpt lat="50.09999" lon="4.11912">
        <ele>224.4</ele>
        <time>2024-05-04T08:22:40Z</time>
      </trkpt>
      <trkpt lat="50.09991" lon="4.11908">
        <ele>224.4</ele>
        <time>2024-05-04T08:22:41Z</time>
      </trkpt>
      <trkpt lat="50.09982" lon="4.11904">
        <ele>224.2</ele>
        <time>2024-05-04T08:22:42Z</time>
      </trkpt>
      <trkpt lat="50.09974" lon="4.11901">
        <ele>223.8</ele>
        <time>2024-05-04T08:22:43Z</time>
      </trkpt>
      <trkpt lat="50.09965" lon="4.11898">
        <ele>223.4</ele>
        <time>2024-05-04T08:22:44Z</time>
      </trkpt>
      <trkpt lat="50.09957" lon="4.11894">
        <ele>223</ele>
        <time>2024-05-04T08:22:45Z</time>
      </trkpt>
      <trkpt lat="50.09948" lon="4.11891">
        <ele>222.6</ele>
        <time>2024-05-04T08:22:46Z</time>
      </trkpt>
      <trkpt lat="50.09939" lon="4.11888">
        <ele>222.2</ele>
        <time>2024-05-04T08:22:47Z</time>
      </trkpt>
      <trkpt lat="50.09929" lon="4.11885">
        <ele>222</ele>
        <time>2024-05-04T08:22:48Z</time>
      </trkpt>
      <trkpt lat="50.09919" lon="4.11881">
        <ele>221.6</ele>
        <time>2024-05-04T08:22:49Z</time>
      </trkpt>
      <trkpt lat="50.09909" lon="4.11878">
        <ele>221.4</ele>
        <time>2024-05-04T08:22:50Z</time>
      </trkpt>
      <trkpt lat="50.09898" lon="4.11874">
        <ele>221.4</ele>
        <time>2024-05-04T08:22:51Z</time>
      </trkpt>
      <trkpt lat="50.09887" lon="4.1187">
        <ele>220.8</ele>
        <time>2024-05-04T08:22:52Z</time>
      </trkpt>
      <trkpt lat="50.09875" lon="4.11866">
        <ele>219.8</ele>
        <time>2024-05-04T08:22:53Z</time>
      </trkpt>
      <trkpt lat="50.09864" lon="4.11862">
        <ele>218.8</ele>
        <time>2024-05-04T08:22:54Z</time>
      </trkpt>
      <trkpt lat="50.09851" lon="4.11858">
        <ele>218.8</ele>
        <time>2024-05-04T08:22:55Z</time>
      </trkpt>
      <trkpt lat="50.09839" lon="4.11853">
        <ele>218.2</ele>
        <time>2024-05-04T08:22:56Z</time>
      </trkpt>
      <trkpt lat="50.09828" lon="4.11846">
        <ele>217.8</ele>
        <time>2024-05-04T08:22:57Z</time>
      </trkpt>
      <trkpt lat="50.09817" lon="4.11839">
        <ele>216.8</ele>
        <time>2024-05-04T08:22:58Z</time>
      </trkpt>
      <trkpt lat="50.09806" lon="4.1183">
        <ele>215.4</ele>
        <time>2024-05-04T08:22:59Z</time>
      </trkpt>
      <trkpt lat="50.09796" lon="4.1182">
        <ele>214.4</ele>
        <time>2024-05-04T08:23:00Z</time>
      </trkpt>
      <trkpt lat="50.09786" lon="4.11809">
        <ele>213</ele>
        <time>2024-05-04T08:23:01Z</time>
      </trkpt>
      <trkpt lat="50.09777" lon="4.11797">
        <ele>212</ele>
        <time>2024-05-04T08:23:02Z</time>
      </trkpt>
      <trkpt lat="50.09768" lon="4.11785">
        <ele>211</ele>
        <time>2024-05-04T08:23:03Z</time>
      </trkpt>
      <trkpt lat="50.0976" lon="4.11773">
        <ele>210.2</ele>
        <time>2024-05-04T08:23:04Z</time>
      </trkpt>
      <trkpt lat="50.09752" lon="4.11761">
        <ele>209.8</ele>
        <time>2024-05-04T08:23:05Z</time>
      </trkpt>
      <trkpt lat="50.09744" lon="4.11749">
        <ele>209</ele>
        <time>2024-05-04T08:23:06Z</time>
      </trkpt>
      <trkpt lat="50.09736" lon="4.11738">
        <ele>208.6</ele>
        <time>2024-05-04T08:23:07Z</time>
      </trkpt>
      <trkpt lat="50.09728" lon="4.11727">
        <ele>207.8</ele>
        <time>2024-05-04T08:23:08Z</time>
      </trkpt>
      <trkpt lat="50.0972" lon="4.11716">
        <ele>206.8</ele>
        <time>2024-05-04T08:23:09Z</time>
      </trkpt>
      <trkpt lat="50.09713" lon="4.11705">
        <ele>206.2</ele>
        <time>2024-05-04T08:23:10Z</time>
      </trkpt>
      <trkpt lat="50.09705" lon="4.11694">
        <ele>206</ele>
        <time>2024-05-04T08:23:11Z</time>
      </trkpt>
      <trkpt lat="50.09697" lon="4.11683">
        <ele>205.6</ele>
        <time>2024-05-04T08:23:12Z</time>
      </trkpt>
      <trkpt lat="50.0969" lon="4.11672">
        <ele>205.6</ele>
        <time>2024-05-04T08:23:13Z</time>
      </trkpt>
      <trkpt lat="50.09682" lon="4.11661">
        <ele>205.4</ele>
        <time>2024-05-04T08:23:14Z</time>
      </trkpt>
      <trkpt lat="50.09674" lon="4.1165">
        <ele>205.2</ele>
        <time>2024-05-04T08:23:15Z</time>
      </trkpt>
      <trkpt lat="50.09666" lon="4.11638">
        <ele>204.6</ele>
        <time>2024-05-04T08:23:16Z</time>
      </trkpt>
      <trkpt lat="50.09658" lon="4.11627">
        <ele>204.4</ele>
        <time>2024-05-04T08:23:17Z</time>
      </trkpt>
      <trkpt lat="50.0965" lon="4.11615">
        <ele>203.8</ele>
        <time>2024-05-04T08:23:18Z</time>
      </trkpt>
      <trkpt lat="50.09642" lon="4.11603">
        <ele>202.6</ele>
        <time>2024-05-04T08:23:19Z</time>
      </trkpt>
      <trkpt lat="50.09634" lon="4.11591">
        <ele>202</ele>
        <time>2024-05-04T08:23:20Z</time>
      </trkpt>
      <trkpt lat="50.09626" lon="4.11579">
        <ele>201.6</ele>
        <time>2024-05-04T08:23:21Z</time>
      </trkpt>
      <trkpt lat="50.09617" lon="4.11567">
        <ele>200.8</ele>
        <time>2024-05-04T08:23:22Z</time>
      </trkpt>
      <trkpt lat="50.09609" lon="4.11555">
        <ele>199.8</ele>
        <time>2024-05-04T08:23:23Z</time>
      </trkpt>
      <trkpt lat="50.09601" lon="4.11544">
        <ele>199.4</ele>
        <time>2024-05-04T08:23:24Z</time>
      </trkpt>
      <trkpt lat="50.09593" lon="4.11532">
        <ele>198.8</ele>
        <time>2024-05-04T08:23:25Z</time>
      </trkpt>
      <trkpt lat="50.09585" lon="4.11521">
        <ele>198.6</ele>
        <time>2024-05-04T08:23:26Z</time>
      </trkpt>
      <trkpt lat="50.09576" lon="4.11509">
        <ele>197.8</ele>
        <time>2024-05-04T08:23:27Z</time>
      </trkpt>
      <trkpt lat="50.09568" lon="4.11497">
        <ele>196.8</ele>
        <time>2024-05-04T08:23:28Z</time>
      </trkpt>
      <trkpt lat="50.0956" lon="4.11485">
        <ele>196.8</ele>
        <time>2024-05-04T08:23:29Z</time>
      </trkpt>
      <trkpt lat="50.09552" lon="4.11473">
        <ele>195</ele>
        <time>2024-05-04T08:23:30Z</time>
      </trkpt>
      <trkpt lat="50.09546" lon="4.11461">
        <ele>194.2</ele>
        <time>2024-05-04T08:23:31Z</time>
      </trkpt>
      <trkpt lat="50.09543" lon="4.11447">
        <ele>193.4</ele>
        <time>2024-05-04T08:23:32Z</time>
      </trkpt>
      <trkpt lat="50.09541" lon="4.11432">
        <ele>193</ele>
        <time>2024-05-04T08:23:33Z</time>
      </trkpt>
      <trkpt lat="50.09539" lon="4.11417">
        <ele>192.4</ele>
        <time>2024-05-04T08:23:34Z</time>
      </trkpt>
      <trkpt lat="50.09538" lon="4.11401">
        <ele>191.8</ele>
        <time>2024-05-04T08:23:35Z</time>
      </trkpt>
      <trkpt lat="50.09537" lon="4.11386">
        <ele>191.6</ele>
        <time>2024-05-04T08:23:36Z</time>
      </trkpt>
      <trkpt lat="50.09537" lon="4.11372">
        <ele>191.4</ele>
        <time>2024-05-04T08:23:37Z</time>
      </trkpt>
      <trkpt lat="50.09536" lon="4.11357">
        <ele>190.6</ele>
        <time>2024-05-04T08:23:38Z</time>
      </trkpt>
      <trkpt lat="50.09535" lon="4.11343">
        <ele>190.2</ele>
        <time>2024-05-04T08:23:39Z</time>
      </trkpt>
      <trkpt lat="50.09533" lon="4.11328">
        <ele>189.6</ele>
        <time>2024-05-04T08:23:40Z</time>
      </trkpt>
      <trkpt lat="50.09531" lon="4.11314">
        <ele>189.4</ele>
        <time>2024-05-04T08:23:41Z</time>
      </trkpt>
      <trkpt lat="50.09528" lon="4.113">
        <ele>189.2</ele>
        <time>2024-05-04T08:23:42Z</time>
      </trkpt>
      <trkpt lat="50.09525" lon="4.11286">
        <ele>189</ele>
        <time>2024-05-04T08:23:43Z</time>
      </trkpt>
      <trkpt lat="50.09522" lon="4.11273">
        <ele>189</ele>
        <time>2024-05-04T08:23:44Z</time>
      </trkpt>
      <trkpt lat="50.09519" lon="4.1126">
        <ele>189</ele>
        <time>2024-05-04T08:23:45Z</time>
      </trkpt>
      <trkpt lat="50.09517" lon="4.11247">
        <ele>189</ele>
        <time>2024-05-04T08:23:46Z</time>
      </trkpt>
      <trkpt lat="50.09516" lon="4.11234">
        <ele>189</ele>
        <time>2024-05-04T08:23:47Z</time>
      </trkpt>
      <trkpt lat="50.09516" lon="4.11221">
        <ele>188.8</ele>
        <time>2024-05-04T08:23:48Z</time>
      </trkpt>
      <trkpt lat="50.09517" lon="4.11208">
        <ele>188.8</ele>
        <time>2024-05-04T08:23:49Z</time>
      </trkpt>
      <trkpt lat="50.09519" lon="4.11196">
        <ele>188.8</ele>
        <time>2024-05-04T08:23:50Z</time>
      </trkpt>
      <trkpt lat="50.09522" lon="4.11185">
        <ele>188.8</ele>
        <time>2024-05-04T08:23:51Z</time>
      </trkpt>
      <trkpt lat="50.09527" lon="4.11175">
        <ele>189</ele>
        <time>2024-05-04T08:23:52Z</time>
      </trkpt>
      <trkpt lat="50.09531" lon="4.11166">
        <ele>188.8</ele>
        <time>2024-05-04T08:23:53Z</time>
      </trkpt>
      <trkpt lat="50.09536" lon="4.11157">
        <ele>188.8</ele>
        <time>2024-05-04T08:23:54Z</time>
      </trkpt>
      <trkpt lat="50.09541" lon="4.11149">
        <ele>189.2</ele>
        <time>2024-05-04T08:23:55Z</time>
      </trkpt>
      <trkpt lat="50.09546" lon="4.11141">
        <ele>189.8</ele>
        <time>2024-05-04T08:23:56Z</time>
      </trkpt>
      <trkpt lat="50.09551" lon="4.11133">
        <ele>190.2</ele>
        <time>2024-05-04T08:23:57Z</time>
      </trkpt>
      <trkpt lat="50.09556" lon="4.11126">
        <ele>190.4</ele>
        <time>2024-05-04T08:23:58Z</time>
      </trkpt>
      <trkpt lat="50.0956" lon="4.11118">
        <ele>190.6</ele>
        <time>2024-05-04T08:23:59Z</time>
      </trkpt>
      <trkpt lat="50.09565" lon="4.11109">
        <ele>191</ele>
        <time>2024-05-04T08:24:00Z</time>
      </trkpt>
      <trkpt lat="50.09569" lon="4.111">
        <ele>191</ele>
        <time>2024-05-04T08:24:01Z</time>
      </trkpt>
      <trkpt lat="50.09573" lon="4.1109">
        <ele>191.2</ele>
        <time>2024-05-04T08:24:02Z</time>
      </trkpt>
      <trkpt lat="50.09576" lon="4.11081">
        <ele>192</ele>
        <time>2024-05-04T08:24:03Z</time>
      </trkpt>
      <trkpt lat="50.0958" lon="4.11071">
        <ele>192</ele>
        <time>2024-05-04T08:24:04Z</time>
      </trkpt>
      <trkpt lat="50.09583" lon="4.11061">
        <ele>192.4</ele>
        <time>2024-05-04T08:24:05Z</time>
      </trkpt>
      <trkpt lat="50.09586" lon="4.1105">
        <ele>193</ele>
        <time>2024-05-04T08:24:06Z</time>
      </trkpt>
      <trkpt lat="50.0959" lon="4.1104">
        <ele>193.2</ele>
        <time>2024-05-04T08:24:07Z</time>
      </trkpt>
      <trkpt lat="50.09593" lon="4.11029">
        <ele>193.8</ele>
        <time>2024-05-04T08:24:08Z</time>
      </trkpt>
      <trkpt lat="50.09596" lon="4.11017">
        <ele>194.4</ele>
        <time>2024-05-04T08:24:09Z</time>
      </trkpt>
      <trkpt lat="50.09599" lon="4.11007">
        <ele>194.8</ele>
        <time>2024-05-04T08:24:10Z</time>
      </trkpt>
      <trkpt lat="50.09602" lon="4.10996">
        <ele>195.2</ele>
        <time>2024-05-04T08:24:11Z</time>
      </trkpt>
      <trkpt lat="50.09605" lon="4.10985">
        <ele>195</ele>
        <time>2024-05-04T08:24:12Z</time>
      </trkpt>
      <trkpt lat="50.09609" lon="4.10975">
        <ele>195.2</ele>
        <time>2024-05-04T08:24:13Z</time>
      </trkpt>
      <trkpt lat="50.09612" lon="4.10964">
        <ele>195.2</ele>
        <time>2024-05-04T08:24:14Z</time>
      </trkpt>
      <trkpt lat="50.09616" lon="4.10954">
        <ele>195.2</ele>
        <time>2024-05-04T08:24:15Z</time>
      </trkpt>
      <trkpt lat="50.09619" lon="4.10943">
        <ele>195.4</ele>
        <time>2024-05-04T08:24:16Z</time>
      </trkpt>
      <trkpt lat="50.09621" lon="4.10932">
        <ele>195.4</ele>
        <time>2024-05-04T08:24:17Z</time>
      </trkpt>
      <trkpt lat="50.09623" lon="4.10921">
        <ele>195.4</ele>
        <time>2024-05-04T08:24:18Z</time>
      </trkpt>
      <trkpt lat="50.09624" lon="4.1091">
        <ele>195.4</ele>
        <time>2024-05-04T08:24:19Z</time>
      </trkpt>
      <trkpt lat="50.09625" lon="4.10898">
        <ele>195.4</ele>
        <time>2024-05-04T08:24:20Z</time>
      </trkpt>
      <trkpt lat="50.09624" lon="4.10887">
        <ele>195.4</ele>
        <time>2024-05-04T08:24:21Z</time>
      </trkpt>
      <trkpt lat="50.09623" lon="4.10875">
        <ele>195.6</ele>
        <time>2024-05-04T08:24:22Z</time>
      </trkpt>
      <trkpt lat="50.09621" lon="4.10865">
        <ele>195.4</ele>
        <time>2024-05-04T08:24:23Z</time>
      </trkpt>
      <trkpt lat="50.09618" lon="4.10854">
        <ele>195.6</ele>
        <time>2024-05-04T08:24:24Z</time>
      </trkpt>
      <trkpt lat="50.09615" lon="4.10844">
        <ele>195.6</ele>
        <time>2024-05-04T08:24:25Z</time>
      </trkpt>
      <trkpt lat="50.09612" lon="4.10834">
        <ele>195.4</ele>
        <time>2024-05-04T08:24:26Z</time>
      </trkpt>
      <trkpt lat="50.09609" lon="4.10824">
        <ele>195.6</ele>
        <time>2024-05-04T08:24:27Z</time>
      </trkpt>
      <trkpt lat="50.09607" lon="4.10814">
        <ele>195.6</ele>
        <time>2024-05-04T08:24:28Z</time>
      </trkpt>
      <trkpt lat="50.09605" lon="4.10802">
        <ele>195.6</ele>
        <time>2024-05-04T08:24:29Z</time>
      </trkpt>
      <trkpt lat="50.09604" lon="4.10791">
        <ele>195.6</ele>
        <time>2024-05-04T08:24:30Z</time>
      </trkpt>
      <trkpt lat="50.09604" lon="4.10779">
        <ele>195.8</ele>
        <time>2024-05-04T08:24:31Z</time>
      </trkpt>
      <trkpt lat="50.09606" lon="4.10766">
        <ele>195.6</ele>
        <time>2024-05-04T08:24:32Z</time>
      </trkpt>
      <trkpt lat="50.09608" lon="4.10753">
        <ele>195.6</ele>
        <time>2024-05-04T08:24:33Z</time>
      </trkpt>
      <trkpt lat="50.09611" lon="4.1074">
        <ele>195.8</ele>
        <time>2024-05-04T08:24:34Z</time>
      </trkpt>
      <trkpt lat="50.09615" lon="4.10726">
        <ele>195.8</ele>
        <time>2024-05-04T08:24:35Z</time>
      </trkpt>
      <trkpt lat="50.09618" lon="4.10714">
        <ele>195.6</ele>
        <time>2024-05-04T08:24:36Z</time>
      </trkpt>
      <trkpt lat="50.09622" lon="4.10702">
        <ele>195.8</ele>
        <time>2024-05-04T08:24:37Z</time>
      </trkpt>
      <trkpt lat="50.09625" lon="4.10692">
        <ele>195.8</ele>
        <time>2024-05-04T08:24:38Z</time>
      </trkpt>
      <trkpt lat="50.09629" lon="4.10683">
        <ele>195.8</ele>
        <time>2024-05-04T08:24:39Z</time>
      </trkpt>
      <trkpt lat="50.09632" lon="4.10676">
        <ele>195.8</ele>
        <time>2024-05-04T08:24:40Z</time>
      </trkpt>
      <trkpt lat="50.09635" lon="4.1067">
        <ele>195.8</ele>
        <time>2024-05-04T08:24:41Z</time>
      </trkpt>
      <trkpt lat="50.09638" lon="4.10664">
        <ele>196.4</ele>
        <time>2024-05-04T08:24:42Z</time>
      </trkpt>
      <trkpt lat="50.09642" lon="4.10659">
        <ele>196.6</ele>
        <time>2024-05-04T08:24:43Z</time>
      </trkpt>
      <trkpt lat="50.09646" lon="4.10656">
        <ele>196.8</ele>
        <time>2024-05-04T08:24:44Z</time>
      </trkpt>
      <trkpt lat="50.09651" lon="4.10654">
        <ele>197</ele>
        <time>2024-05-04T08:24:45Z</time>
      </trkpt>
      <trkpt lat="50.09655" lon="4.10653">
        <ele>196.8</ele>
        <time>2024-05-04T08:24:46Z</time>
      </trkpt>
      <trkpt lat="50.0966" lon="4.10653">
        <ele>196.8</ele>
        <time>2024-05-04T08:24:47Z</time>
      </trkpt>
      <trkpt lat="50.09665" lon="4.10655">
        <ele>197.4</ele>
        <time>2024-05-04T08:24:48Z</time>
      </trkpt>
      <trkpt lat="50.0967" lon="4.10658">
        <ele>198.4</ele>
        <time>2024-05-04T08:24:49Z</time>
      </trkpt>
      <trkpt lat="50.09674" lon="4.10661">
        <ele>199.2</ele>
        <time>2024-05-04T08:24:50Z</time>
      </trkpt>
      <trkpt lat="50.09679" lon="4.10666">
        <ele>199.6</ele>
        <time>2024-05-04T08:24:51Z</time>
      </trkpt>
      <trkpt lat="50.09684" lon="4.10672">
        <ele>200</ele>
        <time>2024-05-04T08:24:52Z</time>
      </trkpt>
      <trkpt lat="50.09689" lon="4.10677">
        <ele>200.2</ele>
        <time>2024-05-04T08:24:53Z</time>
      </trkpt>
      <trkpt lat="50.09694" lon="4.10682">
        <ele>200.4</ele>
        <time>2024-05-04T08:24:54Z</time>
      </trkpt>
      <trkpt lat="50.097" lon="4.10687">
        <ele>200.6</ele>
        <time>2024-05-04T08:24:55Z</time>
      </trkpt>
      <trkpt lat="50.09706" lon="4.1069">
        <ele>200.8</ele>
        <time>2024-05-04T08:24:56Z</time>
      </trkpt>
      <trkpt lat="50.09712" lon="4.10693">
        <ele>200.8</ele>
        <time>2024-05-04T08:24:57Z</time>
      </trkpt>
      <trkpt lat="50.09718" lon="4.10696">
        <ele>200.8</ele>
        <time>2024-05-04T08:24:58Z</time>
      </trkpt>
      <trkpt lat="50.09725" lon="4.10699">
        <ele>200.8</ele>
        <time>2024-05-04T08:24:59Z</time>
      </trkpt>
      <trkpt lat="50.09731" lon="4.10701">
        <ele>200.8</ele>
        <time>2024-05-04T08:25:00Z</time>
      </trkpt>
      <trkpt lat="50.09738" lon="4.10703">
        <ele>200.8</ele>
        <time>2024-05-04T08:25:01Z</time>
      </trkpt>
      <trkpt lat="50.09745" lon="4.10703">
        <ele>200.8</ele>
        <time>2024-05-04T08:25:02Z</time>
      </trkpt>
      <trkpt lat="50.09752" lon="4.10703">
        <ele>200.8</ele>
        <time>2024-05-04T08:25:03Z</time>
      </trkpt>
      <trkpt lat="50.09759" lon="4.10701">
        <ele>200.8</ele>
        <time>2024-05-04T08:25:04Z</time>
      </trkpt>
      <trkpt lat="50.09766" lon="4.10698">
        <ele>200.6</ele>
        <time>2024-05-04T08:25:05Z</time>
      </trkpt>
      <trkpt lat="50.09773" lon="4.10694">
        <ele>200.6</ele>
        <time>2024-05-04T08:25:06Z</time>
      </trkpt>
      <trkpt lat="50.09781" lon="4.10689">
        <ele>200.4</ele>
        <time>2024-05-04T08:25:07Z</time>
      </trkpt>
      <trkpt lat="50.09789" lon="4.10683">
        <ele>200.4</ele>
        <time>2024-05-04T08:25:08Z</time>
      </trkpt>
      <trkpt lat="50.09797" lon="4.10676">
        <ele>200</ele>
        <time>2024-05-04T08:25:09Z</time>
      </trkpt>
      <trkpt lat="50.09806" lon="4.10668">
        <ele>199.8</ele>
        <time>2024-05-04T08:25:10Z</time>
      </trkpt>
      <trkpt lat="50.09814" lon="4.1066">
        <ele>199.8</ele>
        <time>2024-05-04T08:25:11Z</time>
      </trkpt>
      <trkpt lat="50.09823" lon="4.10652">
        <ele>199.6</ele>
        <time>2024-05-04T08:25:12Z</time>
      </trkpt>
      <trkpt lat="50.09832" lon="4.10646">
        <ele>199.6</ele>
        <time>2024-05-04T08:25:13Z</time>
      </trkpt>
      <trkpt lat="50.09839" lon="4.10639">
        <ele>199.6</ele>
        <time>2024-05-04T08:25:14Z</time>
      </trkpt>
      <trkpt lat="50.09847" lon="4.10632">
        <ele>199.2</ele>
        <time>2024-05-04T08:25:15Z</time>
      </trkpt>
      <trkpt lat="50.09854" lon="4.10625">
        <ele>198.8</ele>
        <time>2024-05-04T08:25:16Z</time>
      </trkpt>
      <trkpt lat="50.0986" lon="4.10619">
        <ele>198</ele>
        <time>2024-05-04T08:25:17Z</time>
      </trkpt>
      <trkpt lat="50.09867" lon="4.10613">
        <ele>197.6</ele>
        <time>2024-05-04T08:25:18Z</time>
      </trkpt>
      <trkpt lat="50.09873" lon="4.10607">
        <ele>197.6</ele>
        <time>2024-05-04T08:25:19Z</time>
      </trkpt>
      <trkpt lat="50.0988" lon="4.10602">
        <ele>197.4</ele>
        <time>2024-05-04T08:25:20Z</time>
      </trkpt>
      <trkpt lat="50.09885" lon="4.10597">
        <ele>197.4</ele>
        <time>2024-05-04T08:25:21Z</time>
      </trkpt>
      <trkpt lat="50.09891" lon="4.10592">
        <ele>197.4</ele>
        <time>2024-05-04T08:25:22Z</time>
      </trkpt>
      <trkpt lat="50.09895" lon="4.10588">
        <ele>197.4</ele>
        <time>2024-05-04T08:25:23Z</time>
      </trkpt>
      <trkpt lat="50.099" lon="4.10584">
        <ele>197.4</ele>
        <time>2024-05-04T08:25:24Z</time>
      </trkpt>
      <trkpt lat="50.09904" lon="4.1058">
        <ele>197.4</ele>
        <time>2024-05-04T08:25:25Z</time>
      </trkpt>
      <trkpt lat="50.09908" lon="4.10577">
        <ele>197.4</ele>
        <time>2024-05-04T08:25:26Z</time>
      </trkpt>
      <trkpt lat="50.09912" lon="4.10574">
        <ele>197.6</ele>
        <time>2024-05-04T08:25:27Z</time>
      </trkpt>
      <trkpt lat="50.09915" lon="4.10571">
        <ele>197.6</ele>
        <time>2024-05-04T08:25:28Z</time>
      </trkpt>
      <trkpt lat="50.09919" lon="4.10567">
        <ele>198.2</ele>
        <time>2024-05-04T08:25:29Z</time>
      </trkpt>
      <trkpt lat="50.09922" lon="4.10564">
        <ele>198.2</ele>
        <time>2024-05-04T08:25:30Z</time>
      </trkpt>
      <trkpt lat="50.09925" lon="4.1056">
        <ele>198.2</ele>
        <time>2024-05-04T08:25:31Z</time>
      </trkpt>
      <trkpt lat="50.09928" lon="4.10556">
        <ele>199</ele>
        <time>2024-05-04T08:25:32Z</time>
      </trkpt>
      <trkpt lat="50.09929" lon="4.10552">
        <ele>199.4</ele>
        <time>2024-05-04T08:25:33Z</time>
      </trkpt>
      <trkpt lat="50.0993" lon="4.10547">
        <ele>199.8</ele>
        <time>2024-05-04T08:25:34Z</time>
      </trkpt>
      <trkpt lat="50.09932" lon="4.10542">
        <ele>200.6</ele>
        <time>2024-05-04T08:25:35Z</time>
      </trkpt>
      <trkpt lat="50.09934" lon="4.10537">
        <ele>201.2</ele>
        <time>2024-05-04T08:25:36Z</time>
      </trkpt>
      <trkpt lat="50.09935" lon="4.10532">
        <ele>201.6</ele>
        <time>2024-05-04T08:25:37Z</time>
      </trkpt>
      <trkpt lat="50.09937" lon="4.10526">
        <ele>201.8</ele>
        <time>2024-05-04T08:25:38Z</time>
      </trkpt>
      <trkpt lat="50.09938" lon="4.1052">
        <ele>202</ele>
        <time>2024-05-04T08:25:39Z</time>
      </trkpt>
      <trkpt lat="50.09939" lon="4.10514">
        <ele>202.8</ele>
        <time>2024-05-04T08:25:40Z</time>
      </trkpt>
      <trkpt lat="50.09939" lon="4.10508">
        <ele>203.6</ele>
        <time>2024-05-04T08:25:41Z</time>
      </trkpt>
      <trkpt lat="50.09939" lon="4.10502">
        <ele>204.2</ele>
        <time>2024-05-04T08:25:42Z</time>
      </trkpt>
      <trkpt lat="50.09938" lon="4.10497">
        <ele>204.4</ele>
        <time>2024-05-04T08:25:43Z</time>
      </trkpt>
      <trkpt lat="50.09937" lon="4.10491">
        <ele>204.8</ele>
        <time>2024-05-04T08:25:44Z</time>
      </trkpt>
      <trkpt lat="50.09936" lon="4.10486">
        <ele>205.2</ele>
        <time>2024-05-04T08:25:45Z</time>
      </trkpt>
      <trkpt lat="50.09935" lon="4.10481">
        <ele>205.8</ele>
        <time>2024-05-04T08:25:46Z</time>
      </trkpt>
      <trkpt lat="50.09934" lon="4.10477">
        <ele>205.8</ele>
        <time>2024-05-04T08:25:47Z</time>
      </trkpt>
      <trkpt lat="50.09933" lon="4.10473">
        <ele>206.2</ele>
        <time>2024-05-04T08:25:48Z</time>
      </trkpt>
      <trkpt lat="50.09931" lon="4.10469">
        <ele>206.6</ele>
        <time>2024-05-04T08:25:49Z</time>
      </trkpt>
      <trkpt lat="50.09928" lon="4.10465">
        <ele>206.8</ele>
        <time>2024-05-04T08:25:50Z</time>
      </trkpt>
      <trkpt lat="50.09925" lon="4.10461">
        <ele>206.8</ele>
        <time>2024-05-04T08:25:51Z</time>
      </trkpt>
      <trkpt lat="50.09922" lon="4.10458">
        <ele>207.4</ele>
        <time>2024-05-04T08:25:52Z</time>
      </trkpt>
      <trkpt lat="50.09919" lon="4.10454">
        <ele>207.8</ele>
        <time>2024-05-04T08:25:53Z</time>
      </trkpt>
      <trkpt lat="50.09915" lon="4.10451">
        <ele>208.2</ele>
        <time>2024-05-04T08:25:54Z</time>
      </trkpt>
      <trkpt lat="50.09912" lon="4.10449">
        <ele>208.6</ele>
        <time>2024-05-04T08:25:55Z</time>
      </trkpt>
      <trkpt lat="50.09908" lon="4.10447">
        <ele>209</ele>
        <time>2024-05-04T08:25:56Z</time>
      </trkpt>
      <trkpt lat="50.09904" lon="4.10444">
        <ele>209</ele>
        <time>2024-05-04T08:25:57Z</time>
      </trkpt>
      <trkpt lat="50.09899" lon="4.10442">
        <ele>209.2</ele>
        <time>2024-05-04T08:25:58Z</time>
      </trkpt>
      <trkpt lat="50.09895" lon="4.10439">
        <ele>209.2</ele>
        <time>2024-05-04T08:25:59Z</time>
      </trkpt>
      <trkpt lat="50.0989" lon="4.10437">
        <ele>209.4</ele>
        <time>2024-05-04T08:26:00Z</time>
      </trkpt>
      <trkpt lat="50.09885" lon="4.10434">
        <ele>209.6</ele>
        <time>2024-05-04T08:26:01Z</time>
      </trkpt>
      <trkpt lat="50.0988" lon="4.10432">
        <ele>209.6</ele>
        <time>2024-05-04T08:26:02Z</time>
      </trkpt>
      <trkpt lat="50.09875" lon="4.1043">
        <ele>209.8</ele>
        <time>2024-05-04T08:26:03Z</time>
      </trkpt>
      <trkpt lat="50.09869" lon="4.10428">
        <ele>210</ele>
        <time>2024-05-04T08:26:04Z</time>
      </trkpt>
      <trkpt lat="50.09864" lon="4.10425">
        <ele>210</ele>
        <time>2024-05-04T08:26:05Z</time>
      </trkpt>
      <trkpt lat="50.0986" lon="4.10422">
        <ele>210</ele>
        <time>2024-05-04T08:26:06Z</time>
      </trkpt>
      <trkpt lat="50.09855" lon="4.10419">
        <ele>210.2</ele>
        <time>2024-05-04T08:26:07Z</time>
      </trkpt>
      <trkpt lat="50.0985" lon="4.10416">
        <ele>210.2</ele>
        <time>2024-05-04T08:26:08Z</time>
      </trkpt>
      <trkpt lat="50.09846" lon="4.10413">
        <ele>210.2</ele>
        <time>2024-05-04T08:26:09Z</time>
      </trkpt>
      <trkpt lat="50.09841" lon="4.10409">
        <ele>210.2</ele>
        <time>2024-05-04T08:26:10Z</time>
      </trkpt>
      <trkpt lat="50.09836" lon="4.10407">
        <ele>210.2</ele>
        <time>2024-05-04T08:26:11Z</time>
      </trkpt>
      <trkpt lat="50.0983" lon="4.10404">
        <ele>210.4</ele>
        <time>2024-05-04T08:26:12Z</time>
      </trkpt>
      <trkpt lat="50.09825" lon="4.10402">
        <ele>210.6</ele>
        <time>2024-05-04T08:26:13Z</time>
      </trkpt>
      <trkpt lat="50.09821" lon="4.104">
        <ele>210.8</ele>
        <time>2024-05-04T08:26:14Z</time>
      </trkpt>
      <trkpt lat="50.09816" lon="4.10397">
        <ele>211</ele>
        <time>2024-05-04T08:26:15Z</time>
      </trkpt>
      <trkpt lat="50.09811" lon="4.10395">
        <ele>211</ele>
        <time>2024-05-04T08:26:16Z</time>
      </trkpt>
      <trkpt lat="50.09806" lon="4.10393">
        <ele>211.4</ele>
        <time>2024-05-04T08:26:17Z</time>
      </trkpt>
      <trkpt lat="50.09802" lon="4.10391">
        <ele>211.4</ele>
        <time>2024-05-04T08:26:18Z</time>
      </trkpt>
      <trkpt lat="50.09797" lon="4.10389">
        <ele>211.4</ele>
        <time>2024-05-04T08:26:19Z</time>
      </trkpt>
      <trkpt lat="50.09792" lon="4.10388">
        <ele>211.6</ele>
        <time>2024-05-04T08:26:20Z</time>
      </trkpt>
      <trkpt lat="50.09787" lon="4.10386">
        <ele>212</ele>
        <time>2024-05-04T08:26:21Z</time>
      </trkpt>
      <trkpt lat="50.09782" lon="4.10385">
        <ele>212</ele>
        <time>2024-05-04T08:26:22Z</time>
      </trkpt>
      <trkpt lat="50.09776" lon="4.10384">
        <ele>212.4</ele>
        <time>2024-05-04T08:26:23Z</time>
      </trkpt>
      <trkpt lat="50.0977" lon="4.10383">
        <ele>212.6</ele>
        <time>2024-05-04T08:26:24Z</time>
      </trkpt>
      <trkpt lat="50.09765" lon="4.10382">
        <ele>213</ele>
        <time>2024-05-04T08:26:25Z</time>
      </trkpt>
      <trkpt lat="50.09758" lon="4.10382">
        <ele>213</ele>
        <time>2024-05-04T08:26:26Z</time>
      </trkpt>
      <trkpt lat="50.09752" lon="4.10382">
        <ele>213.2</ele>
        <time>2024-05-04T08:26:27Z</time>
      </trkpt>
      <trkpt lat="50.09746" lon="4.10382">
        <ele>213.4</ele>
        <time>2024-05-04T08:26:28Z</time>
      </trkpt>
      <trkpt lat="50.09739" lon="4.10382">
        <ele>213.4</ele>
        <time>2024-05-04T08:26:29Z</time>
      </trkpt>
      <trkpt lat="50.09734" lon="4.10382">
        <ele>213.6</ele>
        <time>2024-05-04T08:26:30Z</time>
      </trkpt>
      <trkpt lat="50.09728" lon="4.10382">
        <ele>213.8</ele>
        <time>2024-05-04T08:26:31Z</time>
      </trkpt>
      <trkpt lat="50.09722" lon="4.10382">
        <ele>214.2</ele>
        <time>2024-05-04T08:26:32Z</time>
      </trkpt>
      <trkpt lat="50.09716" lon="4.10383">
        <ele>214.6</ele>
        <time>2024-05-04T08:26:33Z</time>
      </trkpt>
      <trkpt lat="50.0971" lon="4.10383">
        <ele>214.8</ele>
        <time>2024-05-04T08:26:34Z</time>
      </trkpt>
      <trkpt lat="50.09704" lon="4.10382">
        <ele>214.8</ele>
        <time>2024-05-04T08:26:35Z</time>
      </trkpt>
      <trkpt lat="50.09697" lon="4.10382">
        <ele>215.2</ele>
        <time>2024-05-04T08:26:36Z</time>
      </trkpt>
      <trkpt lat="50.09691" lon="4.10383">
        <ele>215.2</ele>
        <time>2024-05-04T08:26:37Z</time>
      </trkpt>
      <trkpt lat="50.09684" lon="4.10383">
        <ele>215.4</ele>
        <time>2024-05-04T08:26:38Z</time>
      </trkpt>
      <trkpt lat="50.09677" lon="4.10383">
        <ele>215.8</ele>
        <time>2024-05-04T08:26:39Z</time>
      </trkpt>
      <trkpt lat="50.0967" lon="4.10383">
        <ele>215.8</ele>
        <time>2024-05-04T08:26:40Z</time>
      </trkpt>
      <trkpt lat="50.09663" lon="4.10383">
        <ele>216.2</ele>
        <time>2024-05-04T08:26:41Z</time>
      </trkpt>
      <trkpt lat="50.09656" lon="4.10383">
        <ele>216.2</ele>
        <time>2024-05-04T08:26:42Z</time>
      </trkpt>
      <trkpt lat="50.09649" lon="4.10383">
        <ele>216.4</ele>
        <time>2024-05-04T08:26:43Z</time>
      </trkpt>
      <trkpt lat="50.09642" lon="4.10383">
        <ele>216.4</ele>
        <time>2024-05-04T08:26:44Z</time>
      </trkpt>
      <trkpt lat="50.09635" lon="4.10383">
        <ele>216.2</ele>
        <time>2024-05-04T08:26:45Z</time>
      </trkpt>
      <trkpt lat="50.09628" lon="4.10383">
        <ele>216.4</ele>
        <time>2024-05-04T08:26:46Z</time>
      </trkpt>
      <trkpt lat="50.0962" lon="4.10383">
        <ele>216.4</ele>
        <time>2024-05-04T08:26:47Z</time>
      </trkpt>
      <trkpt lat="50.09613" lon="4.10384">
        <ele>216.4</ele>
        <time>2024-05-04T08:26:48Z</time>
      </trkpt>
      <trkpt lat="50.09605" lon="4.10384">
        <ele>216.4</ele>
        <time>2024-05-04T08:26:49Z</time>
      </trkpt>
      <trkpt lat="50.09597" lon="4.10384">
        <ele>216.4</ele>
        <time>2024-05-04T08:26:50Z</time>
      </trkpt>
      <trkpt lat="50.09589" lon="4.10384">
        <ele>216.4</ele>
        <time>2024-05-04T08:26:51Z</time>
      </trkpt>
      <trkpt lat="50.0958" lon="4.10384">
        <ele>216.4</ele>
        <time>2024-05-04T08:26:52Z</time>
      </trkpt>
      <trkpt lat="50.09571" lon="4.10384">
        <ele>216.4</ele>
        <time>2024-05-04T08:26:53Z</time>
      </trkpt>
      <trkpt lat="50.09562" lon="4.10384">
        <ele>216.2</ele>
        <time>2024-05-04T08:26:54Z</time>
      </trkpt>
      <trkpt lat="50.09552" lon="4.10383">
        <ele>216.2</ele>
        <time>2024-05-04T08:26:55Z</time>
      </trkpt>
      <trkpt lat="50.09543" lon="4.10383">
        <ele>216.2</ele>
        <time>2024-05-04T08:26:56Z</time>
      </trkpt>
      <trkpt lat="50.09533" lon="4.10383">
        <ele>216</ele>
        <time>2024-05-04T08:26:57Z</time>
      </trkpt>
      <trkpt lat="50.09524" lon="4.10383">
        <ele>215.8</ele>
        <time>2024-05-04T08:26:58Z</time>
      </trkpt>
      <trkpt lat="50.09514" lon="4.10383">
        <ele>215.4</ele>
        <time>2024-05-04T08:26:59Z</time>
      </trkpt>
      <trkpt lat="50.09504" lon="4.10382">
        <ele>215.2</ele>
        <time>2024-05-04T08:27:00Z</time>
      </trkpt>
      <trkpt lat="50.09495" lon="4.10381">
        <ele>214.4</ele>
        <time>2024-05-04T08:27:01Z</time>
      </trkpt>
      <trkpt lat="50.09485" lon="4.10378">
        <ele>214</ele>
        <time>2024-05-04T08:27:02Z</time>
      </trkpt>
      <trkpt lat="50.09476" lon="4.10375">
        <ele>213.4</ele>
        <time>2024-05-04T08:27:03Z</time>
      </trkpt>
      <trkpt lat="50.09467" lon="4.10371">
        <ele>212.4</ele>
        <time>2024-05-04T08:27:04Z</time>
      </trkpt>
      <trkpt lat="50.09458" lon="4.10366">
        <ele>211.6</ele>
        <time>2024-05-04T08:27:05Z</time>
      </trkpt>
      <trkpt lat="50.09449" lon="4.10361">
        <ele>210.2</ele>
        <time>2024-05-04T08:27:06Z</time>
      </trkpt>
      <trkpt lat="50.0944" lon="4.10356">
        <ele>209.6</ele>
        <time>2024-05-04T08:27:07Z</time>
      </trkpt>
      <trkpt lat="50.09432" lon="4.10352">
        <ele>209.4</ele>
        <time>2024-05-04T08:27:08Z</time>
      </trkpt>
      <trkpt lat="50.09424" lon="4.10348">
        <ele>209.4</ele>
        <time>2024-05-04T08:27:09Z</time>
      </trkpt>
      <trkpt lat="50.09415" lon="4.10343">
        <ele>209.2</ele>
        <time>2024-05-04T08:27:10Z</time>
      </trkpt>
      <trkpt lat="50.09407" lon="4.10339">
        <ele>209</ele>
        <time>2024-05-04T08:27:11Z</time>
      </trkpt>
      <trkpt lat="50.09398" lon="4.10335">
        <ele>209.2</ele>
        <time>2024-05-04T08:27:12Z</time>
      </trkpt>
      <trkpt lat="50.0939" lon="4.1033">
        <ele>209.2</ele>
        <time>2024-05-04T08:27:13Z</time>
      </trkpt>
      <trkpt lat="50.09381" lon="4.10326">
        <ele>209.2</ele>
        <time>2024-05-04T08:27:14Z</time>
      </trkpt>
      <trkpt lat="50.09373" lon="4.10322">
        <ele>209</ele>
        <time>2024-05-04T08:27:15Z</time>
      </trkpt>
      <trkpt lat="50.09365" lon="4.10318">
        <ele>209.2</ele>
        <time>2024-05-04T08:27:16Z</time>
      </trkpt>
      <trkpt lat="50.09356" lon="4.10313">
        <ele>209.4</ele>
        <time>2024-05-04T08:27:17Z</time>
      </trkpt>
      <trkpt lat="50.09348" lon="4.10309">
        <ele>209.4</ele>
        <time>2024-05-04T08:27:18Z</time>
      </trkpt>
      <trkpt lat="50.09339" lon="4.10304">
        <ele>209.4</ele>
        <time>2024-05-04T08:27:19Z</time>
      </trkpt>
      <trkpt lat="50.0933" lon="4.10299">
        <ele>209.4</ele>
        <time>2024-05-04T08:27:20Z</time>
      </trkpt>
      <trkpt lat="50.09321" lon="4.10295">
        <ele>209.4</ele>
        <time>2024-05-04T08:27:21Z</time>
      </trkpt>
      <trkpt lat="50.09313" lon="4.1029">
        <ele>209.4</ele>
        <time>2024-05-04T08:27:22Z</time>
      </trkpt>
      <trkpt lat="50.09304" lon="4.10286">
        <ele>209.4</ele>
        <time>2024-05-04T08:27:23Z</time>
      </trkpt>
      <trkpt lat="50.09296" lon="4.10282">
        <ele>209.4</ele>
        <time>2024-05-04T08:27:24Z</time>
      </trkpt>
      <trkpt lat="50.09288" lon="4.10277">
        <ele>209.4</ele>
        <time>2024-05-04T08:27:25Z</time>
      </trkpt>
      <trkpt lat="50.0928" lon="4.10273">
        <ele>209.4</ele>
        <time>2024-05-04T08:27:26Z</time>
      </trkpt>
      <trkpt lat="50.09272" lon="4.10268">
        <ele>209.6</ele>
        <time>2024-05-04T08:27:27Z</time>
      </trkpt>
      <trkpt lat="50.09264" lon="4.10264">
        <ele>209.6</ele>
        <time>2024-05-04T08:27:28Z</time>
      </trkpt>
      <trkpt lat="50.09257" lon="4.1026">
        <ele>209.8</ele>
        <time>2024-05-04T08:27:29Z</time>
      </trkpt>
      <trkpt lat="50.09249" lon="4.10257">
        <ele>209.6</ele>
        <time>2024-05-04T08:27:30Z</time>
      </trkpt>
      <trkpt lat="50.09241" lon="4.10252">
        <ele>209.8</ele>
        <time>2024-05-04T08:27:31Z</time>
      </trkpt>
      <trkpt lat="50.09234" lon="4.10248">
        <ele>209.8</ele>
        <time>2024-05-04T08:27:32Z</time>
      </trkpt>
      <trkpt lat="50.09226" lon="4.10243">
        <ele>210</ele>
        <time>2024-05-04T08:27:33Z</time>
      </trkpt>
      <trkpt lat="50.09217" lon="4.10239">
        <ele>209.8</ele>
        <time>2024-05-04T08:27:34Z</time>
      </trkpt>
      <trkpt lat="50.0921" lon="4.10235">
        <ele>209.8</ele>
        <time>2024-05-04T08:27:35Z</time>
      </trkpt>
      <trkpt lat="50.09202" lon="4.1023">
        <ele>210</ele>
        <time>2024-05-04T08:27:36Z</time>
      </trkpt>
      <trkpt lat="50.09194" lon="4.10226">
        <ele>209.8</ele>
        <time>2024-05-04T08:27:37Z</time>
      </trkpt>
      <trkpt lat="50.09186" lon="4.10221">
        <ele>210</ele>
        <time>2024-05-04T08:27:38Z</time>
      </trkpt>
      <trkpt lat="50.09178" lon="4.10217">
        <ele>210.2</ele>
        <time>2024-05-04T08:27:39Z</time>
      </trkpt>
      <trkpt lat="50.09169" lon="4.10213">
        <ele>210.2</ele>
        <time>2024-05-04T08:27:40Z</time>
      </trkpt>
      <trkpt lat="50.09162" lon="4.10209">
        <ele>210.2</ele>
        <time>2024-05-04T08:27:41Z</time>
      </trkpt>
      <trkpt lat="50.09154" lon="4.10204">
        <ele>210.2</ele>
        <time>2024-05-04T08:27:42Z</time>
      </trkpt>
      <trkpt lat="50.09146" lon="4.102">
        <ele>210.2</ele>
        <time>2024-05-04T08:27:43Z</time>
      </trkpt>
      <trkpt lat="50.09138" lon="4.10196">
        <ele>210.4</ele>
        <time>2024-05-04T08:27:44Z</time>
      </trkpt>
      <trkpt lat="50.09129" lon="4.10192">
        <ele>210.4</ele>
        <time>2024-05-04T08:27:45Z</time>
      </trkpt>
      <trkpt lat="50.09121" lon="4.10188">
        <ele>210.4</ele>
        <time>2024-05-04T08:27:46Z</time>
      </trkpt>
      <trkpt lat="50.09114" lon="4.10184">
        <ele>210.4</ele>
        <time>2024-05-04T08:27:47Z</time>
      </trkpt>
      <trkpt lat="50.09105" lon="4.10179">
        <ele>210.4</ele>
        <time>2024-05-04T08:27:48Z</time>
      </trkpt>
      <trkpt lat="50.09096" lon="4.10175">
        <ele>210.2</ele>
        <time>2024-05-04T08:27:49Z</time>
      </trkpt>
      <trkpt lat="50.09087" lon="4.10171">
        <ele>210.2</ele>
        <time>2024-05-04T08:27:50Z</time>
      </trkpt>
      <trkpt lat="50.09079" lon="4.10167">
        <ele>210</ele>
        <time>2024-05-04T08:27:51Z</time>
      </trkpt>
      <trkpt lat="50.09069" lon="4.10162">
        <ele>209.8</ele>
        <time>2024-05-04T08:27:52Z</time>
      </trkpt>
      <trkpt lat="50.0906" lon="4.10158">
        <ele>209.4</ele>
        <time>2024-05-04T08:27:53Z</time>
      </trkpt>
      <trkpt lat="50.09051" lon="4.10153">
        <ele>209.4</ele>
        <time>2024-05-04T08:27:54Z</time>
      </trkpt>
      <trkpt lat="50.09042" lon="4.10148">
        <ele>209</ele>
        <time>2024-05-04T08:27:55Z</time>
      </trkpt>
      <trkpt lat="50.09033" lon="4.10143">
        <ele>209</ele>
        <time>2024-05-04T08:27:56Z</time>
      </trkpt>
      <trkpt lat="50.09024" lon="4.10138">
        <ele>208.6</ele>
        <time>2024-05-04T08:27:57Z</time>
      </trkpt>
      <trkpt lat="50.09014" lon="4.10132">
        <ele>208.6</ele>
        <time>2024-05-04T08:27:58Z</time>
      </trkpt>
      <trkpt lat="50.09004" lon="4.10127">
        <ele>208.2</ele>
        <time>2024-05-04T08:27:59Z</time>
      </trkpt>
      <trkpt lat="50.08995" lon="4.10122">
        <ele>207.6</ele>
        <time>2024-05-04T08:28:00Z</time>
      </trkpt>
      <trkpt lat="50.08984" lon="4.10117">
        <ele>207.2</ele>
        <time>2024-05-04T08:28:01Z</time>
      </trkpt>
      <trkpt lat="50.08974" lon="4.10111">
        <ele>207</ele>
        <time>2024-05-04T08:28:02Z</time>
      </trkpt>
      <trkpt lat="50.08964" lon="4.10106">
        <ele>207</ele>
        <time>2024-05-04T08:28:03Z</time>
      </trkpt>
      <trkpt lat="50.08954" lon="4.101">
        <ele>206.6</ele>
        <time>2024-05-04T08:28:04Z</time>
      </trkpt>
      <trkpt lat="50.08943" lon="4.10095">
        <ele>206.2</ele>
        <time>2024-05-04T08:28:05Z</time>
      </trkpt>
      <trkpt lat="50.08932" lon="4.10089">
        <ele>205.8</ele>
        <time>2024-05-04T08:28:06Z</time>
      </trkpt>
      <trkpt lat="50.08922" lon="4.10084">
        <ele>205.4</ele>
        <time>2024-05-04T08:28:07Z</time>
      </trkpt>
      <trkpt lat="50.08911" lon="4.10078">
        <ele>205.2</ele>
        <time>2024-05-04T08:28:08Z</time>
      </trkpt>
      <trkpt lat="50.089" lon="4.10073">
        <ele>204.8</ele>
        <time>2024-05-04T08:28:09Z</time>
      </trkpt>
      <trkpt lat="50.08888" lon="4.10068">
        <ele>204.6</ele>
        <time>2024-05-04T08:28:10Z</time>
      </trkpt>
      <trkpt lat="50.08877" lon="4.10063">
        <ele>203.8</ele>
        <time>2024-05-04T08:28:11Z</time>
      </trkpt>
      <trkpt lat="50.08867" lon="4.10057">
        <ele>203.4</ele>
        <time>2024-05-04T08:28:12Z</time>
      </trkpt>
      <trkpt lat="50.08856" lon="4.10052">
        <ele>202.4</ele>
        <time>2024-05-04T08:28:13Z</time>
      </trkpt>
      <trkpt lat="50.08846" lon="4.10046">
        <ele>201.4</ele>
        <time>2024-05-04T08:28:14Z</time>
      </trkpt>
      <trkpt lat="50.08836" lon="4.10041">
        <ele>201.4</ele>
        <time>2024-05-04T08:28:15Z</time>
      </trkpt>
      <trkpt lat="50.08826" lon="4.10036">
        <ele>200.4</ele>
        <time>2024-05-04T08:28:16Z</time>
      </trkpt>
      <trkpt lat="50.08816" lon="4.10031">
        <ele>199.8</ele>
        <time>2024-05-04T08:28:17Z</time>
      </trkpt>
      <trkpt lat="50.08808" lon="4.10027">
        <ele>199.4</ele>
        <time>2024-05-04T08:28:18Z</time>
      </trkpt>
      <trkpt lat="50.088" lon="4.10023">
        <ele>198.8</ele>
        <time>2024-05-04T08:28:19Z</time>
      </trkpt>
      <trkpt lat="50.08793" lon="4.1002">
        <ele>198</ele>
        <time>2024-05-04T08:28:20Z</time>
      </trkpt>
      <trkpt lat="50.08786" lon="4.10016">
        <ele>196.8</ele>
        <time>2024-05-04T08:28:21Z</time>
      </trkpt>
      <trkpt lat="50.08779" lon="4.10013">
        <ele>196</ele>
        <time>2024-05-04T08:28:22Z</time>
      </trkpt>
      <trkpt lat="50.08772" lon="4.10009">
        <ele>195.2</ele>
        <time>2024-05-04T08:28:23Z</time>
      </trkpt>
      <trkpt lat="50.08766" lon="4.10006">
        <ele>194.4</ele>
        <time>2024-05-04T08:28:24Z</time>
      </trkpt>
      <trkpt lat="50.08761" lon="4.10003">
        <ele>194.2</ele>
        <time>2024-05-04T08:28:25Z</time>
      </trkpt>
      <trkpt lat="50.08755" lon="4.1">
        <ele>193.8</ele>
        <time>2024-05-04T08:28:26Z</time>
      </trkpt>
      <trkpt lat="50.08751" lon="4.09997">
        <ele>193.6</ele>
        <time>2024-05-04T08:28:27Z</time>
      </trkpt>
      <trkpt lat="50.08746" lon="4.09993">
        <ele>193.4</ele>
        <time>2024-05-04T08:28:28Z</time>
      </trkpt>
      <trkpt lat="50.08743" lon="4.09988">
        <ele>193.4</ele>
        <time>2024-05-04T08:28:29Z</time>
      </trkpt>
      <trkpt lat="50.08741" lon="4.09985">
        <ele>193.2</ele>
        <time>2024-05-04T08:28:30Z</time>
      </trkpt>
      <trkpt lat="50.0874" lon="4.09982">
        <ele>193.4</ele>
        <time>2024-05-04T08:28:31Z</time>
      </trkpt>
      <trkpt lat="50.0874" lon="4.0998">
        <ele>193.2</ele>
        <time>2024-05-04T08:28:32Z</time>
      </trkpt>
      <trkpt lat="50.0874" lon="4.0998">
        <ele>193.2</ele>
        <time>2024-05-04T08:28:33Z</time>
      </trkpt>
      <trkpt lat="50.0874" lon="4.0998">
        <ele>193.2</ele>
        <time>2024-05-04T08:28:34Z</time>
      </trkpt>
      <trkpt lat="50.08739" lon="4.09976">
        <ele>193.4</ele>
        <time>2024-05-04T08:30:06Z</time>
      </trkpt>
      <trkpt lat="50.08739" lon="4.09975">
        <ele>192.8</ele>
        <time>2024-05-04T08:30:07Z</time>
      </trkpt>
      <trkpt lat="50.08738" lon="4.09973">
        <ele>192.6</ele>
        <time>2024-05-04T08:30:08Z</time>
      </trkpt>
      <trkpt lat="50.08736" lon="4.09972">
        <ele>192.4</ele>
        <time>2024-05-04T08:30:09Z</time>
      </trkpt>
      <trkpt lat="50.08734" lon="4.09972">
        <ele>192.2</ele>
        <time>2024-05-04T08:30:10Z</time>
      </trkpt>
      <trkpt lat="50.08732" lon="4.09972">
        <ele>192.2</ele>
        <time>2024-05-04T08:30:11Z</time>
      </trkpt>
      <trkpt lat="50.08729" lon="4.09973">
        <ele>192</ele>
        <time>2024-05-04T08:30:12Z</time>
      </trkpt>
      <trkpt lat="50.08727" lon="4.09975">
        <ele>192.2</ele>
        <time>2024-05-04T08:30:13Z</time>
      </trkpt>
      <trkpt lat="50.08724" lon="4.09976">
        <ele>192</ele>
        <time>2024-05-04T08:30:14Z</time>
      </trkpt>
      <trkpt lat="50.0872" lon="4.09978">
        <ele>192</ele>
        <time>2024-05-04T08:30:15Z</time>
      </trkpt>
      <trkpt lat="50.08717" lon="4.0998">
        <ele>192.2</ele>
        <time>2024-05-04T08:30:16Z</time>
      </trkpt>
      <trkpt lat="50.08713" lon="4.09982">
        <ele>192.2</ele>
        <time>2024-05-04T08:30:17Z</time>
      </trkpt>
      <trkpt lat="50.08709" lon="4.09985">
        <ele>192.2</ele>
        <time>2024-05-04T08:30:18Z</time>
      </trkpt>
      <trkpt lat="50.08704" lon="4.09987">
        <ele>192.2</ele>
        <time>2024-05-04T08:30:19Z</time>
      </trkpt>
      <trkpt lat="50.087" lon="4.09989">
        <ele>192.2</ele>
        <time>2024-05-04T08:30:20Z</time>
      </trkpt>
      <trkpt lat="50.08694" lon="4.09992">
        <ele>192.2</ele>
        <time>2024-05-04T08:30:21Z</time>
      </trkpt>
      <trkpt lat="50.0869" lon="4.09995">
        <ele>192.2</ele>
        <time>2024-05-04T08:30:22Z</time>
      </trkpt>
      <trkpt lat="50.08684" lon="4.09998">
        <ele>192.2</ele>
        <time>2024-05-04T08:30:23Z</time>
      </trkpt>
      <trkpt lat="50.08679" lon="4.10001">
        <ele>192.2</ele>
        <time>2024-05-04T08:30:24Z</time>
      </trkpt>
      <trkpt lat="50.08673" lon="4.10004">
        <ele>192.2</ele>
        <time>2024-05-04T08:30:25Z</time>
      </trkpt>
      <trkpt lat="50.08667" lon="4.10007">
        <ele>192.2</ele>
        <time>2024-05-04T08:30:26Z</time>
      </trkpt>
      <trkpt lat="50.08661" lon="4.1001">
        <ele>192.2</ele>
        <time>2024-05-04T08:30:27Z</time>
      </trkpt>
      <trkpt lat="50.08656" lon="4.10014">
        <ele>192.2</ele>
        <time>2024-05-04T08:30:28Z</time>
      </trkpt>
      <trkpt lat="50.0865" lon="4.10017">
        <ele>192</ele>
        <time>2024-05-04T08:30:29Z</time>
      </trkpt>
      <trkpt lat="50.08644" lon="4.10021">
        <ele>191.6</ele>
        <time>2024-05-04T08:30:30Z</time>
      </trkpt>
      <trkpt lat="50.08638" lon="4.10024">
        <ele>191.4</ele>
        <time>2024-05-04T08:30:31Z</time>
      </trkpt>
      <trkpt lat="50.08632" lon="4.10028">
        <ele>191</ele>
        <time>2024-05-04T08:30:32Z</time>
      </trkpt>
      <trkpt lat="50.08626" lon="4.10031">
        <ele>190.8</ele>
        <time>2024-05-04T08:30:33Z</time>
      </trkpt>
      <trkpt lat="50.0862" lon="4.10035">
        <ele>190.8</ele>
        <time>2024-05-04T08:30:34Z</time>
      </trkpt>
      <trkpt lat="50.08614" lon="4.10038">
        <ele>190.6</ele>
        <time>2024-05-04T08:30:35Z</time>
      </trkpt>
      <trkpt lat="50.08608" lon="4.10042">
        <ele>190.6</ele>
        <time>2024-05-04T08:30:36Z</time>
      </trkpt>
      <trkpt lat="50.08602" lon="4.10045">
        <ele>190.6</ele>
        <time>2024-05-04T08:30:37Z</time>
      </trkpt>
      <trkpt lat="50.08597" lon="4.10049">
        <ele>190.6</ele>
        <time>2024-05-04T08:30:38Z</time>
      </trkpt>
      <trkpt lat="50.08591" lon="4.10052">
        <ele>190.4</ele>
        <time>2024-05-04T08:30:39Z</time>
      </trkpt>
      <trkpt lat="50.08586" lon="4.10055">
        <ele>190.4</ele>
        <time>2024-05-04T08:30:40Z</time>
      </trkpt>
      <trkpt lat="50.08581" lon="4.10059">
        <ele>190.4</ele>
        <time>2024-05-04T08:30:41Z</time>
      </trkpt>
      <trkpt lat="50.08575" lon="4.10062">
        <ele>190.4</ele>
        <time>2024-05-04T08:30:42Z</time>
      </trkpt>
      <trkpt lat="50.0857" lon="4.10065">
        <ele>190.4</ele>
        <time>2024-05-04T08:30:43Z</time>
      </trkpt>
      <trkpt lat="50.08565" lon="4.10067">
        <ele>190.4</ele>
        <time>2024-05-04T08:30:44Z</time>
      </trkpt>
      <trkpt lat="50.0856" lon="4.1007">
        <ele>190.4</ele>
        <time>2024-05-04T08:30:45Z</time>
      </trkpt>
      <trkpt lat="50.08555" lon="4.10073">
        <ele>190.6</ele>
        <time>2024-05-04T08:30:46Z</time>
      </trkpt>
      <trkpt lat="50.0855" lon="4.10076">
        <ele>190.8</ele>
        <time>2024-05-04T08:30:47Z</time>
      </trkpt>
      <trkpt lat="50.08545" lon="4.10079">
        <ele>190.8</ele>
        <time>2024-05-04T08:30:48Z</time>
      </trkpt>
      <trkpt lat="50.0854" lon="4.10082">
        <ele>191.2</ele>
        <time>2024-05-04T08:30:49Z</time>
      </trkpt>
      <trkpt lat="50.08535" lon="4.10085">
        <ele>191.2</ele>
        <time>2024-05-04T08:30:50Z</time>
      </trkpt>
      <trkpt lat="50.0853" lon="4.10087">
        <ele>191.4</ele>
        <time>2024-05-04T08:30:51Z</time>
      </trkpt>
      <trkpt lat="50.08525" lon="4.1009">
        <ele>191.6</ele>
        <time>2024-05-04T08:30:52Z</time>
      </trkpt>
      <trkpt lat="50.0852" lon="4.10093">
        <ele>191.6</ele>
        <time>2024-05-04T08:30:53Z</time>
      </trkpt>
      <trkpt lat="50.08516" lon="4.10096">
        <ele>191.8</ele>
        <time>2024-05-04T08:30:54Z</time>
      </trkpt>
      <trkpt lat="50.0851" lon="4.10099">
        <ele>192</ele>
        <time>2024-05-04T08:30:55Z</time>
      </trkpt>
      <trkpt lat="50.08506" lon="4.10102">
        <ele>192.4</ele>
        <time>2024-05-04T08:30:56Z</time>
      </trkpt>
      <trkpt lat="50.08501" lon="4.10104">
        <ele>192.6</ele>
        <time>2024-05-04T08:30:57Z</time>
      </trkpt>
      <trkpt lat="50.08496" lon="4.10107">
        <ele>193.2</ele>
        <time>2024-05-04T08:30:58Z</time>
      </trkpt>
      <trkpt lat="50.08491" lon="4.1011">
        <ele>193.4</ele>
        <time>2024-05-04T08:30:59Z</time>
      </trkpt>
      <trkpt lat="50.08486" lon="4.10113">
        <ele>193.4</ele>
        <time>2024-05-04T08:31:00Z</time>
      </trkpt>
      <trkpt lat="50.08481" lon="4.10116">
        <ele>193.8</ele>
        <time>2024-05-04T08:31:01Z</time>
      </trkpt>
      <trkpt lat="50.08476" lon="4.10119">
        <ele>193.8</ele>
        <time>2024-05-04T08:31:02Z</time>
      </trkpt>
      <trkpt lat="50.08471" lon="4.10121">
        <ele>194</ele>
        <time>2024-05-04T08:31:03Z</time>
      </trkpt>
      <trkpt lat="50.08466" lon="4.10124">
        <ele>194.2</ele>
        <time>2024-05-04T08:31:04Z</time>
      </trkpt>
      <trkpt lat="50.08461" lon="4.10127">
        <ele>194.8</ele>
        <time>2024-05-04T08:31:05Z</time>
      </trkpt>
      <trkpt lat="50.08457" lon="4.10129">
        <ele>195</ele>
        <time>2024-05-04T08:31:06Z</time>
      </trkpt>
      <trkpt lat="50.08452" lon="4.10132">
        <ele>195</ele>
        <time>2024-05-04T08:31:07Z</time>
      </trkpt>
      <trkpt lat="50.08447" lon="4.10135">
        <ele>195</ele>
        <time>2024-05-04T08:31:08Z</time>
      </trkpt>
      <trkpt lat="50.08442" lon="4.10137">
        <ele>195.2</ele>
        <time>2024-05-04T08:31:09Z</time>
      </trkpt>
      <trkpt lat="50.08437" lon="4.1014">
        <ele>195.8</ele>
        <time>2024-05-04T08:31:10Z</time>
      </trkpt>
      <trkpt lat="50.08432" lon="4.10142">
        <ele>196.6</ele>
        <time>2024-05-04T08:31:11Z</time>
      </trkpt>
      <trkpt lat="50.08427" lon="4.10144">
        <ele>196.8</ele>
        <time>2024-05-04T08:31:12Z</time>
      </trkpt>
      <trkpt lat="50.08423" lon="4.10146">
        <ele>197.2</ele>
        <time>2024-05-04T08:31:13Z</time>
      </trkpt>
      <trkpt lat="50.08418" lon="4.10149">
        <ele>197.6</ele>
        <time>2024-05-04T08:31:14Z</time>
      </trkpt>
      <trkpt lat="50.08413" lon="4.10151">
        <ele>197.8</ele>
        <time>2024-05-04T08:31:15Z</time>
      </trkpt>
      <trkpt lat="50.08408" lon="4.10154">
        <ele>198.4</ele>
        <time>2024-05-04T08:31:16Z</time>
      </trkpt>
      <trkpt lat="50.08403" lon="4.10157">
        <ele>198.4</ele>
        <time>2024-05-04T08:31:17Z</time>
      </trkpt>
      <trkpt lat="50.08398" lon="4.1016">
        <ele>199.2</ele>
        <time>2024-05-04T08:31:18Z</time>
      </trkpt>
      <trkpt lat="50.08393" lon="4.10163">
        <ele>199.6</ele>
        <time>2024-05-04T08:31:19Z</time>
      </trkpt>
      <trkpt lat="50.08388" lon="4.10166">
        <ele>200</ele>
        <time>2024-05-04T08:31:20Z</time>
      </trkpt>
      <trkpt lat="50.08383" lon="4.10169">
        <ele>200.2</ele>
        <time>2024-05-04T08:31:21Z</time>
      </trkpt>
      <trkpt lat="50.08378" lon="4.10172">
        <ele>200.6</ele>
        <time>2024-05-04T08:31:22Z</time>
      </trkpt>
      <trkpt lat="50.08373" lon="4.10175">
        <ele>200.8</ele>
        <time>2024-05-04T08:31:23Z</time>
      </trkpt>
      <trkpt lat="50.08368" lon="4.10178">
        <ele>201.2</ele>
        <time>2024-05-04T08:31:24Z</time>
      </trkpt>
      <trkpt lat="50.08363" lon="4.10181">
        <ele>201.2</ele>
        <time>2024-05-04T08:31:25Z</time>
      </trkpt>
      <trkpt lat="50.08357" lon="4.10184">
        <ele>201.4</ele>
        <time>2024-05-04T08:31:26Z</time>
      </trkpt>
      <trkpt lat="50.08352" lon="4.10187">
        <ele>201.6</ele>
        <time>2024-05-04T08:31:27Z</time>
      </trkpt>
      <trkpt lat="50.08347" lon="4.1019">
        <ele>202</ele>
        <time>2024-05-04T08:31:28Z</time>
      </trkpt>
      <trkpt lat="50.08341" lon="4.10194">
        <ele>202.2</ele>
        <time>2024-05-04T08:31:29Z</time>
      </trkpt>
      <trkpt lat="50.08336" lon="4.10197">
        <ele>202.4</ele>
        <time>2024-05-04T08:31:30Z</time>
      </trkpt>
      <trkpt lat="50.0833" lon="4.102">
        <ele>202.4</ele>
        <time>2024-05-04T08:31:31Z</time>
      </trkpt>
      <trkpt lat="50.08324" lon="4.10203">
        <ele>202.4</ele>
        <time>2024-05-04T08:31:32Z</time>
      </trkpt>
      <trkpt lat="50.08319" lon="4.10206">
        <ele>202.6</ele>
        <time>2024-05-04T08:31:33Z</time>
      </trkpt>
      <trkpt lat="50.08313" lon="4.1021">
        <ele>202.6</ele>
        <time>2024-05-04T08:31:34Z</time>
      </trkpt>
      <trkpt lat="50.08307" lon="4.10213">
        <ele>202.4</ele>
        <time>2024-05-04T08:31:35Z</time>
      </trkpt>
      <trkpt lat="50.08301" lon="4.10216">
        <ele>202.4</ele>
        <time>2024-05-04T08:31:36Z</time>
      </trkpt>
      <trkpt lat="50.08295" lon="4.10219">
        <ele>202.6</ele>
        <time>2024-05-04T08:31:37Z</time>
      </trkpt>
      <trkpt lat="50.08289" lon="4.10223">
        <ele>202.4</ele>
        <time>2024-05-04T08:31:38Z</time>
      </trkpt>
      <trkpt lat="50.08282" lon="4.10226">
        <ele>202.4</ele>
        <time>2024-05-04T08:31:39Z</time>
      </trkpt>
      <trkpt lat="50.08276" lon="4.1023">
        <ele>202.6</ele>
        <time>2024-05-04T08:31:40Z</time>
      </trkpt>
      <trkpt lat="50.08269" lon="4.10233">
        <ele>202.4</ele>
        <time>2024-05-04T08:31:41Z</time>
      </trkpt>
      <trkpt lat="50.08262" lon="4.10237">
        <ele>202.2</ele>
        <time>2024-05-04T08:31:42Z</time>
      </trkpt>
      <trkpt lat="50.08254" lon="4.10241">
        <ele>201.8</ele>
        <time>2024-05-04T08:31:43Z</time>
      </trkpt>
      <trkpt lat="50.08247" lon="4.10246">
        <ele>201.8</ele>
        <time>2024-05-04T08:31:44Z</time>
      </trkpt>
      <trkpt lat="50.08239" lon="4.1025">
        <ele>201.6</ele>
        <time>2024-05-04T08:31:45Z</time>
      </trkpt>
      <trkpt lat="50.08231" lon="4.10255">
        <ele>201.4</ele>
        <time>2024-05-04T08:31:46Z</time>
      </trkpt>
      <trkpt lat="50.08222" lon="4.1026">
        <ele>201</ele>
        <time>2024-05-04T08:31:47Z</time>
      </trkpt>
      <trkpt lat="50.08214" lon="4.10265">
        <ele>200.4</ele>
        <time>2024-05-04T08:31:48Z</time>
      </trkpt>
      <trkpt lat="50.08205" lon="4.1027">
        <ele>200.2</ele>
        <time>2024-05-04T08:31:49Z</time>
      </trkpt>
      <trkpt lat="50.08196" lon="4.10275">
        <ele>199.8</ele>
        <time>2024-05-04T08:31:50Z</time>
      </trkpt>
      <trkpt lat="50.08186" lon="4.1028">
        <ele>199.6</ele>
        <time>2024-05-04T08:31:51Z</time>
      </trkpt>
      <trkpt lat="50.08177" lon="4.10286">
        <ele>199.2</ele>
        <time>2024-05-04T08:31:52Z</time>
      </trkpt>
      <trkpt lat="50.08168" lon="4.10291">
        <ele>199</ele>
        <time>2024-05-04T08:31:53Z</time>
      </trkpt>
      <trkpt lat="50.08158" lon="4.10297">
        <ele>198.2</ele>
        <time>2024-05-04T08:31:54Z</time>
      </trkpt>
      <trkpt lat="50.08148" lon="4.10303">
        <ele>198</ele>
        <time>2024-05-04T08:31:55Z</time>
      </trkpt>
      <trkpt lat="50.08139" lon="4.10308">
        <ele>197.8</ele>
        <time>2024-05-04T08:31:56Z</time>
      </trkpt>
      <trkpt lat="50.08129" lon="4.10314">
        <ele>197</ele>
        <time>2024-05-04T08:31:57Z</time>
      </trkpt>
      <trkpt lat="50.0812" lon="4.1032">
        <ele>196.2</ele>
        <time>2024-05-04T08:31:58Z</time>
      </trkpt>
      <trkpt lat="50.0811" lon="4.10326">
        <ele>195.6</ele>
        <time>2024-05-04T08:31:59Z</time>
      </trkpt>
      <trkpt lat="50.08101" lon="4.10331">
        <ele>195.2</ele>
        <time>2024-05-04T08:32:00Z</time>
      </trkpt>
      <trkpt lat="50.08091" lon="4.10337">
        <ele>194.2</ele>
        <time>2024-05-04T08:32:01Z</time>
      </trkpt>
      <trkpt lat="50.08081" lon="4.10343">
        <ele>194.2</ele>
        <time>2024-05-04T08:32:02Z</time>
      </trkpt>
      <trkpt lat="50.08071" lon="4.10348">
        <ele>193.6</ele>
        <time>2024-05-04T08:32:03Z</time>
      </trkpt>
      <trkpt lat="50.08061" lon="4.10354">
        <ele>193.2</ele>
        <time>2024-05-04T08:32:04Z</time>
      </trkpt>
      <trkpt lat="50.08051" lon="4.10359">
        <ele>192.8</ele>
        <time>2024-05-04T08:32:05Z</time>
      </trkpt>
      <trkpt lat="50.08042" lon="4.10365">
        <ele>192.8</ele>
        <time>2024-05-04T08:32:06Z</time>
      </trkpt>
      <trkpt lat="50.08033" lon="4.1037">
        <ele>192.6</ele>
        <time>2024-05-04T08:32:07Z</time>
      </trkpt>
      <trkpt lat="50.08023" lon="4.10375">
        <ele>192.6</ele>
        <time>2024-05-04T08:32:08Z</time>
      </trkpt>
      <trkpt lat="50.08015" lon="4.1038">
        <ele>192.2</ele>
        <time>2024-05-04T08:32:09Z</time>
      </trkpt>
      <trkpt lat="50.08006" lon="4.10386">
        <ele>192</ele>
        <time>2024-05-04T08:32:10Z</time>
      </trkpt>
      <trkpt lat="50.07998" lon="4.10391">
        <ele>191.8</ele>
        <time>2024-05-04T08:32:11Z</time>
      </trkpt>
      <trkpt lat="50.07989" lon="4.10397">
        <ele>191.8</ele>
        <time>2024-05-04T08:32:12Z</time>
      </trkpt>
      <trkpt lat="50.07981" lon="4.10401">
        <ele>191.8</ele>
        <time>2024-05-04T08:32:13Z</time>
      </trkpt>
      <trkpt lat="50.07972" lon="4.10406">
        <ele>192</ele>
        <time>2024-05-04T08:32:14Z</time>
      </trkpt>
      <trkpt lat="50.07964" lon="4.10411">
        <ele>191.8</ele>
        <time>2024-05-04T08:32:15Z</time>
      </trkpt>
      <trkpt lat="50.07955" lon="4.10416">
        <ele>191.8</ele>
        <time>2024-05-04T08:32:16Z</time>
      </trkpt>
      <trkpt lat="50.07946" lon="4.10421">
        <ele>191.6</ele>
        <time>2024-05-04T08:32:17Z</time>
      </trkpt>
      <trkpt lat="50.07936" lon="4.10427">
        <ele>191.4</ele>
        <time>2024-05-04T08:32:18Z</time>
      </trkpt>
      <trkpt lat="50.07927" lon="4.10433">
        <ele>191.4</ele>
        <time>2024-05-04T08:32:19Z</time>
      </trkpt>
      <trkpt lat="50.07918" lon="4.10438">
        <ele>191.4</ele>
        <time>2024-05-04T08:32:20Z</time>
      </trkpt>
      <trkpt lat="50.07908" lon="4.10444">
        <ele>191.6</ele>
        <time>2024-05-04T08:32:21Z</time>
      </trkpt>
      <trkpt lat="50.07899" lon="4.1045">
        <ele>191.6</ele>
        <time>2024-05-04T08:32:22Z</time>
      </trkpt>
      <trkpt lat="50.0789" lon="4.10455">
        <ele>191.4</ele>
        <time>2024-05-04T08:32:23Z</time>
      </trkpt>
      <trkpt lat="50.0788" lon="4.10461">
        <ele>191.6</ele>
        <time>2024-05-04T08:32:24Z</time>
      </trkpt>
      <trkpt lat="50.07872" lon="4.10466">
        <ele>191.4</ele>
        <time>2024-05-04T08:32:25Z</time>
      </trkpt>
      <trkpt lat="50.07863" lon="4.10471">
        <ele>191.4</ele>
        <time>2024-05-04T08:32:26Z</time>
      </trkpt>
      <trkpt lat="50.07854" lon="4.10476">
        <ele>191.2</ele>
        <time>2024-05-04T08:32:27Z</time>
      </trkpt>
      <trkpt lat="50.07845" lon="4.10482">
        <ele>191.2</ele>
        <time>2024-05-04T08:32:28Z</time>
      </trkpt>
      <trkpt lat="50.07836" lon="4.10487">
        <ele>191</ele>
        <time>2024-05-04T08:32:29Z</time>
      </trkpt>
      <trkpt lat="50.07827" lon="4.10492">
        <ele>190.4</ele>
        <time>2024-05-04T08:32:30Z</time>
      </trkpt>
      <trkpt lat="50.07818" lon="4.10497">
        <ele>189.6</ele>
        <time>2024-05-04T08:32:31Z</time>
      </trkpt>
      <trkpt lat="50.07809" lon="4.10502">
        <ele>188.8</ele>
        <time>2024-05-04T08:32:32Z</time>
      </trkpt>
      <trkpt lat="50.078" lon="4.10507">
        <ele>188.2</ele>
        <time>2024-05-04T08:32:33Z</time>
      </trkpt>
      <trkpt lat="50.07792" lon="4.10512">
        <ele>187.8</ele>
        <time>2024-05-04T08:32:34Z</time>
      </trkpt>
      <trkpt lat="50.07783" lon="4.10517">
        <ele>187.4</ele>
        <time>2024-05-04T08:32:35Z</time>
      </trkpt>
      <trkpt lat="50.07775" lon="4.10522">
        <ele>186.4</ele>
        <time>2024-05-04T08:32:36Z</time>
      </trkpt>
      <trkpt lat="50.07766" lon="4.10527">
        <ele>186.4</ele>
        <time>2024-05-04T08:32:37Z</time>
      </trkpt>
      <trkpt lat="50.07758" lon="4.10532">
        <ele>186</ele>
        <time>2024-05-04T08:32:38Z</time>
      </trkpt>
      <trkpt lat="50.07749" lon="4.10537">
        <ele>185.8</ele>
        <time>2024-05-04T08:32:39Z</time>
      </trkpt>
      <trkpt lat="50.07741" lon="4.10542">
        <ele>185.6</ele>
        <time>2024-05-04T08:32:40Z</time>
      </trkpt>
      <trkpt lat="50.07733" lon="4.10547">
        <ele>185.4</ele>
        <time>2024-05-04T08:32:41Z</time>
      </trkpt>
      <trkpt lat="50.07724" lon="4.10552">
        <ele>185.6</ele>
        <time>2024-05-04T08:32:42Z</time>
      </trkpt>
      <trkpt lat="50.07717" lon="4.10556">
        <ele>185.4</ele>
        <time>2024-05-04T08:32:43Z</time>
      </trkpt>
      <trkpt lat="50.07709" lon="4.10561">
        <ele>185.4</ele>
        <time>2024-05-04T08:32:44Z</time>
      </trkpt>
      <trkpt lat="50.07702" lon="4.10566">
        <ele>185.6</ele>
        <time>2024-05-04T08:32:45Z</time>
      </trkpt>
      <trkpt lat="50.07695" lon="4.1057">
        <ele>185.4</ele>
        <time>2024-05-04T08:32:46Z</time>
      </trkpt>
      <trkpt lat="50.07688" lon="4.10574">
        <ele>185.8</ele>
        <time>2024-05-04T08:32:47Z</time>
      </trkpt>
      <trkpt lat="50.0768" lon="4.10578">
        <ele>185.8</ele>
        <time>2024-05-04T08:32:48Z</time>
      </trkpt>
      <trkpt lat="50.07673" lon="4.10582">
        <ele>186</ele>
        <time>2024-05-04T08:32:49Z</time>
      </trkpt>
      <trkpt lat="50.07666" lon="4.10586">
        <ele>186.4</ele>
        <time>2024-05-04T08:32:50Z</time>
      </trkpt>
      <trkpt lat="50.07659" lon="4.10589">
        <ele>186.6</ele>
        <time>2024-05-04T08:32:51Z</time>
      </trkpt>
      <trkpt lat="50.07651" lon="4.10593">
        <ele>186.8</ele>
        <time>2024-05-04T08:32:52Z</time>
      </trkpt>
      <trkpt lat="50.07644" lon="4.10597">
        <ele>186.8</ele>
        <time>2024-05-04T08:32:53Z</time>
      </trkpt>
      <trkpt lat="50.07637" lon="4.10601">
        <ele>187</ele>
        <time>2024-05-04T08:32:54Z</time>
      </trkpt>
      <trkpt lat="50.0763" lon="4.10605">
        <ele>187.4</ele>
        <time>2024-05-04T08:32:55Z</time>
      </trkpt>
      <trkpt lat="50.07623" lon="4.10609">
        <ele>187.8</ele>
        <time>2024-05-04T08:32:56Z</time>
      </trkpt>
      <trkpt lat="50.07616" lon="4.10613">
        <ele>188.4</ele>
        <time>2024-05-04T08:32:57Z</time>
      </trkpt>
      <trkpt lat="50.07609" lon="4.10617">
        <ele>188.6</ele>
        <time>2024-05-04T08:32:58Z</time>
      </trkpt>
      <trkpt lat="50.07601" lon="4.10621">
        <ele>188.6</ele>
        <time>2024-05-04T08:32:59Z</time>
      </trkpt>
      <trkpt lat="50.07594" lon="4.10625">
        <ele>188.8</ele>
        <time>2024-05-04T08:33:00Z</time>
      </trkpt>
      <trkpt lat="50.07587" lon="4.10629">
        <ele>189.2</ele>
        <time>2024-05-04T08:33:01Z</time>
      </trkpt>
      <trkpt lat="50.07581" lon="4.10632">
        <ele>189</ele>
        <time>2024-05-04T08:33:02Z</time>
      </trkpt>
      <trkpt lat="50.07574" lon="4.10636">
        <ele>189.2</ele>
        <time>2024-05-04T08:33:03Z</time>
      </trkpt>
      <trkpt lat="50.07567" lon="4.1064">
        <ele>189.2</ele>
        <time>2024-05-04T08:33:04Z</time>
      </trkpt>
      <trkpt lat="50.07561" lon="4.10643">
        <ele>189</ele>
        <time>2024-05-04T08:33:05Z</time>
      </trkpt>
      <trkpt lat="50.07554" lon="4.10646">
        <ele>189.2</ele>
        <time>2024-05-04T08:33:06Z</time>
      </trkpt>
      <trkpt lat="50.07548" lon="4.10649">
        <ele>189.2</ele>
        <time>2024-05-04T08:33:07Z</time>
      </trkpt>
      <trkpt lat="50.07542" lon="4.10653">
        <ele>189.4</ele>
        <time>2024-05-04T08:33:08Z</time>
      </trkpt>
      <trkpt lat="50.07536" lon="4.10657">
        <ele>189.4</ele>
        <time>2024-05-04T08:33:09Z</time>
      </trkpt>
      <trkpt lat="50.07529" lon="4.10661">
        <ele>189.4</ele>
        <time>2024-05-04T08:33:10Z</time>
      </trkpt>
      <trkpt lat="50.07522" lon="4.10666">
        <ele>189.4</ele>
        <time>2024-05-04T08:33:11Z</time>
      </trkpt>
      <trkpt lat="50.07516" lon="4.1067">
        <ele>189.4</ele>
        <time>2024-05-04T08:33:12Z</time>
      </trkpt>
      <trkpt lat="50.07509" lon="4.10673">
        <ele>189.4</ele>
        <time>2024-05-04T08:33:13Z</time>
      </trkpt>
      <trkpt lat="50.07502" lon="4.10677">
        <ele>189.6</ele>
        <time>2024-05-04T08:33:14Z</time>
      </trkpt>
      <trkpt lat="50.07496" lon="4.10681">
        <ele>189.6</ele>
        <time>2024-05-04T08:33:15Z</time>
      </trkpt>
      <trkpt lat="50.07489" lon="4.10684">
        <ele>189.6</ele>
        <time>2024-05-04T08:33:16Z</time>
      </trkpt>
      <trkpt lat="50.07482" lon="4.10688">
        <ele>189.8</ele>
        <time>2024-05-04T08:33:17Z</time>
      </trkpt>
      <trkpt lat="50.07475" lon="4.10692">
        <ele>189.8</ele>
        <time>2024-05-04T08:33:18Z</time>
      </trkpt>
      <trkpt lat="50.07468" lon="4.10696">
        <ele>190</ele>
        <time>2024-05-04T08:33:19Z</time>
      </trkpt>
      <trkpt lat="50.0746" lon="4.107">
        <ele>190.4</ele>
        <time>2024-05-04T08:33:20Z</time>
      </trkpt>
      <trkpt lat="50.07453" lon="4.10704">
        <ele>191</ele>
        <time>2024-05-04T08:33:21Z</time>
      </trkpt>
      <trkpt lat="50.07445" lon="4.10709">
        <ele>191.4</ele>
        <time>2024-05-04T08:33:22Z</time>
      </trkpt>
      <trkpt lat="50.07438" lon="4.10713">
        <ele>191.4</ele>
        <time>2024-05-04T08:33:23Z</time>
      </trkpt>
      <trkpt lat="50.0743" lon="4.10718">
        <ele>191.4</ele>
        <time>2024-05-04T08:33:24Z</time>
      </trkpt>
      <trkpt lat="50.07422" lon="4.10722">
        <ele>191.6</ele>
        <time>2024-05-04T08:33:25Z</time>
      </trkpt>
      <trkpt lat="50.07415" lon="4.10727">
        <ele>191.6</ele>
        <time>2024-05-04T08:33:26Z</time>
      </trkpt>
      <trkpt lat="50.07408" lon="4.10731">
        <ele>191.4</ele>
        <time>2024-05-04T08:33:27Z</time>
      </trkpt>
      <trkpt lat="50.07401" lon="4.10735">
        <ele>191.6</ele>
        <time>2024-05-04T08:33:28Z</time>
      </trkpt>
      <trkpt lat="50.07394" lon="4.1074">
        <ele>191.6</ele>
        <time>2024-05-04T08:33:29Z</time>
      </trkpt>
      <trkpt lat="50.07387" lon="4.10744">
        <ele>191.8</ele>
        <time>2024-05-04T08:33:30Z</time>
      </trkpt>
      <trkpt lat="50.0738" lon="4.10748">
        <ele>191.8</ele>
        <time>2024-05-04T08:33:31Z</time>
      </trkpt>
      <trkpt lat="50.07374" lon="4.10751">
        <ele>191.8</ele>
        <time>2024-05-04T08:33:32Z</time>
      </trkpt>
      <trkpt lat="50.07367" lon="4.10755">
        <ele>191.8</ele>
        <time>2024-05-04T08:33:33Z</time>
      </trkpt>
      <trkpt lat="50.07361" lon="4.10759">
        <ele>191.8</ele>
        <time>2024-05-04T08:33:34Z</time>
      </trkpt>
      <trkpt lat="50.07354" lon="4.10763">
        <ele>192</ele>
        <time>2024-05-04T08:33:35Z</time>
      </trkpt>
      <trkpt lat="50.07348" lon="4.10766">
        <ele>192</ele>
        <time>2024-05-04T08:33:36Z</time>
      </trkpt>
      <trkpt lat="50.07341" lon="4.1077">
        <ele>192</ele>
        <time>2024-05-04T08:33:37Z</time>
      </trkpt>
      <trkpt lat="50.07335" lon="4.10774">
        <ele>192.4</ele>
        <time>2024-05-04T08:33:38Z</time>
      </trkpt>
      <trkpt lat="50.07329" lon="4.10777">
        <ele>192.2</ele>
        <time>2024-05-04T08:33:39Z</time>
      </trkpt>
      <trkpt lat="50.07323" lon="4.10781">
        <ele>192.6</ele>
        <time>2024-05-04T08:33:40Z</time>
      </trkpt>
      <trkpt lat="50.07317" lon="4.10785">
        <ele>192.8</ele>
        <time>2024-05-04T08:33:41Z</time>
      </trkpt>
      <trkpt lat="50.07311" lon="4.10788">
        <ele>192.8</ele>
        <time>2024-05-04T08:33:42Z</time>
      </trkpt>
      <trkpt lat="50.07305" lon="4.10792">
        <ele>193</ele>
        <time>2024-05-04T08:33:43Z</time>
      </trkpt>
      <trkpt lat="50.07298" lon="4.10796">
        <ele>193.4</ele>
        <time>2024-05-04T08:33:44Z</time>
      </trkpt>
      <trkpt lat="50.07292" lon="4.108">
        <ele>193.4</ele>
        <time>2024-05-04T08:33:45Z</time>
      </trkpt>
      <trkpt lat="50.07286" lon="4.10804">
        <ele>193.4</ele>
        <time>2024-05-04T08:33:46Z</time>
      </trkpt>
      <trkpt lat="50.07279" lon="4.10807">
        <ele>194</ele>
        <time>2024-05-04T08:33:47Z</time>
      </trkpt>
      <trkpt lat="50.07273" lon="4.1081">
        <ele>194.4</ele>
        <time>2024-05-04T08:33:48Z</time>
      </trkpt>
      <trkpt lat="50.07267" lon="4.10814">
        <ele>194.6</ele>
        <time>2024-05-04T08:33:49Z</time>
      </trkpt>
      <trkpt lat="50.0726" lon="4.10817">
        <ele>194.6</ele>
        <time>2024-05-04T08:33:50Z</time>
      </trkpt>
      <trkpt lat="50.07254" lon="4.10819">
        <ele>194.6</ele>
        <time>2024-05-04T08:33:51Z</time>
      </trkpt>
      <trkpt lat="50.07247" lon="4.10821">
        <ele>194.8</ele>
        <time>2024-05-04T08:33:52Z</time>
      </trkpt>
      <trkpt lat="50.0724" lon="4.10822">
        <ele>194.8</ele>
        <time>2024-05-04T08:33:53Z</time>
      </trkpt>
      <trkpt lat="50.07233" lon="4.10823">
        <ele>194.8</ele>
        <time>2024-05-04T08:33:54Z</time>
      </trkpt>
      <trkpt lat="50.07226" lon="4.10824">
        <ele>194.8</ele>
        <time>2024-05-04T08:33:55Z</time>
      </trkpt>
      <trkpt lat="50.07219" lon="4.10823">
        <ele>194.8</ele>
        <time>2024-05-04T08:33:56Z</time>
      </trkpt>
      <trkpt lat="50.07211" lon="4.10823">
        <ele>194.8</ele>
        <time>2024-05-04T08:33:57Z</time>
      </trkpt>
      <trkpt lat="50.07204" lon="4.10821">
        <ele>194.8</ele>
        <time>2024-05-04T08:33:58Z</time>
      </trkpt>
      <trkpt lat="50.07196" lon="4.10819">
        <ele>194.6</ele>
        <time>2024-05-04T08:33:59Z</time>
      </trkpt>
      <trkpt lat="50.07189" lon="4.10817">
        <ele>194.6</ele>
        <time>2024-05-04T08:34:00Z</time>
      </trkpt>
      <trkpt lat="50.07182" lon="4.10813">
        <ele>194</ele>
        <time>2024-05-04T08:34:01Z</time>
      </trkpt>
      <trkpt lat="50.07176" lon="4.1081">
        <ele>193.8</ele>
        <time>2024-05-04T08:34:02Z</time>
      </trkpt>
      <trkpt lat="50.07169" lon="4.10809">
        <ele>193.6</ele>
        <time>2024-05-04T08:34:03Z</time>
      </trkpt>
      <trkpt lat="50.07164" lon="4.10812">
        <ele>193.4</ele>
        <time>2024-05-04T08:34:04Z</time>
      </trkpt>
      <trkpt lat="50.07159" lon="4.10816">
        <ele>193.4</ele>
        <time>2024-05-04T08:34:05Z</time>
      </trkpt>
      <trkpt lat="50.07156" lon="4.10823">
        <ele>193</ele>
        <time>2024-05-04T08:34:06Z</time>
      </trkpt>
      <trkpt lat="50.07154" lon="4.10832">
        <ele>192.8</ele>
        <time>2024-05-04T08:34:07Z</time>
      </trkpt>
      <trkpt lat="50.07152" lon="4.10842">
        <ele>192.6</ele>
        <time>2024-05-04T08:34:08Z</time>
      </trkpt>
      <trkpt lat="50.07151" lon="4.10852">
        <ele>192.6</ele>
        <time>2024-05-04T08:34:09Z</time>
      </trkpt>
      <trkpt lat="50.0715" lon="4.10862">
        <ele>192.2</ele>
        <time>2024-05-04T08:34:10Z</time>
      </trkpt>
      <trkpt lat="50.07148" lon="4.10872">
        <ele>192</ele>
        <time>2024-05-04T08:34:11Z</time>
      </trkpt>
      <trkpt lat="50.07147" lon="4.10883">
        <ele>191.6</ele>
        <time>2024-05-04T08:34:12Z</time>
      </trkpt>
      <trkpt lat="50.07145" lon="4.10894">
        <ele>191.2</ele>
        <time>2024-05-04T08:34:13Z</time>
      </trkpt>
      <trkpt lat="50.07144" lon="4.10905">
        <ele>190.8</ele>
        <time>2024-05-04T08:34:14Z</time>
      </trkpt>
      <trkpt lat="50.07143" lon="4.10917">
        <ele>190.4</ele>
        <time>2024-05-04T08:34:15Z</time>
      </trkpt>
      <trkpt lat="50.07143" lon="4.10928">
        <ele>189.8</ele>
        <time>2024-05-04T08:34:16Z</time>
      </trkpt>
      <trkpt lat="50.07142" lon="4.1094">
        <ele>189.8</ele>
        <time>2024-05-04T08:34:17Z</time>
      </trkpt>
      <trkpt lat="50.07141" lon="4.10951">
        <ele>189.6</ele>
        <time>2024-05-04T08:34:18Z</time>
      </trkpt>
      <trkpt lat="50.0714" lon="4.10962">
        <ele>189.6</ele>
        <time>2024-05-04T08:34:19Z</time>
      </trkpt>
      <trkpt lat="50.07139" lon="4.10972">
        <ele>189.4</ele>
        <time>2024-05-04T08:34:20Z</time>
      </trkpt>
      <trkpt lat="50.07138" lon="4.10983">
        <ele>189.2</ele>
        <time>2024-05-04T08:34:21Z</time>
      </trkpt>
      <trkpt lat="50.07138" lon="4.10993">
        <ele>189.4</ele>
        <time>2024-05-04T08:34:22Z</time>
      </trkpt>
      <trkpt lat="50.07137" lon="4.11004">
        <ele>189</ele>
        <time>2024-05-04T08:34:23Z</time>
      </trkpt>
      <trkpt lat="50.07136" lon="4.11013">
        <ele>189.2</ele>
        <time>2024-05-04T08:34:24Z</time>
      </trkpt>
      <trkpt lat="50.07135" lon="4.11025">
        <ele>189.2</ele>
        <time>2024-05-04T08:34:25Z</time>
      </trkpt>
      <trkpt lat="50.07135" lon="4.11036">
        <ele>189.2</ele>
        <time>2024-05-04T08:34:26Z</time>
      </trkpt>
      <trkpt lat="50.07134" lon="4.11048">
        <ele>189.2</ele>
        <time>2024-05-04T08:34:27Z</time>
      </trkpt>
      <trkpt lat="50.07133" lon="4.1106">
        <ele>189.2</ele>
        <time>2024-05-04T08:34:28Z</time>
      </trkpt>
      <trkpt lat="50.07133" lon="4.11071">
        <ele>189.2</ele>
        <time>2024-05-04T08:34:29Z</time>
      </trkpt>
      <trkpt lat="50.07132" lon="4.11083">
        <ele>189.4</ele>
        <time>2024-05-04T08:34:30Z</time>
      </trkpt>
      <trkpt lat="50.07132" lon="4.11095">
        <ele>189.6</ele>
        <time>2024-05-04T08:34:31Z</time>
      </trkpt>
      <trkpt lat="50.07131" lon="4.11108">
        <ele>189.8</ele>
        <time>2024-05-04T08:34:32Z</time>
      </trkpt>
      <trkpt lat="50.07131" lon="4.1112">
        <ele>189.8</ele>
        <time>2024-05-04T08:34:33Z</time>
      </trkpt>
      <trkpt lat="50.07131" lon="4.11132">
        <ele>190</ele>
        <time>2024-05-04T08:34:34Z</time>
      </trkpt>
      <trkpt lat="50.0713" lon="4.11144">
        <ele>190</ele>
        <time>2024-05-04T08:34:35Z</time>
      </trkpt>
      <trkpt lat="50.0713" lon="4.11156">
        <ele>190.2</ele>
        <time>2024-05-04T08:34:36Z</time>
      </trkpt>
      <trkpt lat="50.07129" lon="4.11168">
        <ele>190.2</ele>
        <time>2024-05-04T08:34:37Z</time>
      </trkpt>
      <trkpt lat="50.07128" lon="4.1118">
        <ele>190.2</ele>
        <time>2024-05-04T08:34:38Z</time>
      </trkpt>
      <trkpt lat="50.07127" lon="4.11191">
        <ele>190.2</ele>
        <time>2024-05-04T08:34:39Z</time>
      </trkpt>
      <trkpt lat="50.07126" lon="4.11202">
        <ele>190.2</ele>
        <time>2024-05-04T08:34:40Z</time>
      </trkpt>
      <trkpt lat="50.07125" lon="4.11214">
        <ele>190.2</ele>
        <time>2024-05-04T08:34:41Z</time>
      </trkpt>
      <trkpt lat="50.07124" lon="4.11225">
        <ele>190.4</ele>
        <time>2024-05-04T08:34:42Z</time>
      </trkpt>
      <trkpt lat="50.07123" lon="4.11236">
        <ele>190.2</ele>
        <time>2024-05-04T08:34:43Z</time>
      </trkpt>
      <trkpt lat="50.07123" lon="4.11248">
        <ele>190.4</ele>
        <time>2024-05-04T08:34:44Z</time>
      </trkpt>
      <trkpt lat="50.07122" lon="4.1126">
        <ele>190.2</ele>
        <time>2024-05-04T08:34:45Z</time>
      </trkpt>
      <trkpt lat="50.07122" lon="4.11272">
        <ele>190.2</ele>
        <time>2024-05-04T08:34:46Z</time>
      </trkpt>
      <trkpt lat="50.07121" lon="4.11284">
        <ele>190.4</ele>
        <time>2024-05-04T08:34:47Z</time>
      </trkpt>
      <trkpt lat="50.0712" lon="4.11296">
        <ele>190.4</ele>
        <time>2024-05-04T08:34:48Z</time>
      </trkpt>
      <trkpt lat="50.07119" lon="4.11308">
        <ele>190.6</ele>
        <time>2024-05-04T08:34:49Z</time>
      </trkpt>
      <trkpt lat="50.07119" lon="4.1132">
        <ele>190.6</ele>
        <time>2024-05-04T08:34:50Z</time>
      </trkpt>
      <trkpt lat="50.07118" lon="4.11332">
        <ele>190.6</ele>
        <time>2024-05-04T08:34:51Z</time>
      </trkpt>
      <trkpt lat="50.07117" lon="4.11344">
        <ele>190.6</ele>
        <time>2024-05-04T08:34:52Z</time>
      </trkpt>
      <trkpt lat="50.07116" lon="4.11356">
        <ele>190.6</ele>
        <time>2024-05-04T08:34:53Z</time>
      </trkpt>
      <trkpt lat="50.07115" lon="4.11367">
        <ele>190.8</ele>
        <time>2024-05-04T08:34:54Z</time>
      </trkpt>
      <trkpt lat="50.07114" lon="4.11379">
        <ele>190.8</ele>
        <time>2024-05-04T08:34:55Z</time>
      </trkpt>
      <trkpt lat="50.07114" lon="4.1139">
        <ele>191</ele>
        <time>2024-05-04T08:34:56Z</time>
      </trkpt>
      <trkpt lat="50.07113" lon="4.11401">
        <ele>191</ele>
        <time>2024-05-04T08:34:57Z</time>
      </trkpt>
      <trkpt lat="50.07113" lon="4.11413">
        <ele>191</ele>
        <time>2024-05-04T08:34:58Z</time>
      </trkpt>
      <trkpt lat="50.07115" lon="4.11423">
        <ele>191</ele>
        <time>2024-05-04T08:34:59Z</time>
      </trkpt>
      <trkpt lat="50.07118" lon="4.11434">
        <ele>191</ele>
        <time>2024-05-04T08:35:00Z</time>
      </trkpt>
      <trkpt lat="50.07123" lon="4.11444">
        <ele>191</ele>
        <time>2024-05-04T08:35:01Z</time>
      </trkpt>
      <trkpt lat="50.07127" lon="4.11452">
        <ele>191</ele>
        <time>2024-05-04T08:35:02Z</time>
      </trkpt>
      <trkpt lat="50.07133" lon="4.1146">
        <ele>191.2</ele>
        <time>2024-05-04T08:35:03Z</time>
      </trkpt>
      <trkpt lat="50.07138" lon="4.11467">
        <ele>191.2</ele>
        <time>2024-05-04T08:35:04Z</time>
      </trkpt>
      <trkpt lat="50.07144" lon="4.11472">
        <ele>191</ele>
        <time>2024-05-04T08:35:05Z</time>
      </trkpt>
      <trkpt lat="50.0715" lon="4.11478">
        <ele>191.2</ele>
        <time>2024-05-04T08:35:06Z</time>
      </trkpt>
      <trkpt lat="50.07155" lon="4.11483">
        <ele>191</ele>
        <time>2024-05-04T08:35:07Z</time>
      </trkpt>
      <trkpt lat="50.07161" lon="4.11489">
        <ele>191.2</ele>
        <time>2024-05-04T08:35:08Z</time>
      </trkpt>
      <trkpt lat="50.07166" lon="4.11494">
        <ele>191.4</ele>
        <time>2024-05-04T08:35:09Z</time>
      </trkpt>
      <trkpt lat="50.07171" lon="4.115">
        <ele>191.4</ele>
        <time>2024-05-04T08:35:10Z</time>
      </trkpt>
      <trkpt lat="50.07175" lon="4.11505">
        <ele>191.6</ele>
        <time>2024-05-04T08:35:11Z</time>
      </trkpt>
      <trkpt lat="50.07181" lon="4.1151">
        <ele>191.6</ele>
        <time>2024-05-04T08:35:12Z</time>
      </trkpt>
      <trkpt lat="50.07186" lon="4.11515">
        <ele>191.8</ele>
        <time>2024-05-04T08:35:13Z</time>
      </trkpt>
      <trkpt lat="50.07191" lon="4.1152">
        <ele>192.4</ele>
        <time>2024-05-04T08:35:14Z</time>
      </trkpt>
      <trkpt lat="50.07196" lon="4.11526">
        <ele>193</ele>
        <time>2024-05-04T08:35:15Z</time>
      </trkpt>
      <trkpt lat="50.07201" lon="4.11531">
        <ele>193.2</ele>
        <time>2024-05-04T08:35:16Z</time>
      </trkpt>
      <trkpt lat="50.07206" lon="4.11536">
        <ele>193.4</ele>
        <time>2024-05-04T08:35:17Z</time>
      </trkpt>
      <trkpt lat="50.07211" lon="4.11541">
        <ele>194</ele>
        <time>2024-05-04T08:35:18Z</time>
      </trkpt>
      <trkpt lat="50.07217" lon="4.11546">
        <ele>194.4</ele>
        <time>2024-05-04T08:35:19Z</time>
      </trkpt>
      <trkpt lat="50.07222" lon="4.11551">
        <ele>194.8</ele>
        <time>2024-05-04T08:35:20Z</time>
      </trkpt>
      <trkpt lat="50.07227" lon="4.11556">
        <ele>195.2</ele>
        <time>2024-05-04T08:35:21Z</time>
      </trkpt>
      <trkpt lat="50.07232" lon="4.11561">
        <ele>195.6</ele>
        <time>2024-05-04T08:35:22Z</time>
      </trkpt>
      <trkpt lat="50.07237" lon="4.11566">
        <ele>195.8</ele>
        <time>2024-05-04T08:35:23Z</time>
      </trkpt>
      <trkpt lat="50.07242" lon="4.11571">
        <ele>195.8</ele>
        <time>2024-05-04T08:35:24Z</time>
      </trkpt>
      <trkpt lat="50.07247" lon="4.11576">
        <ele>196.2</ele>
        <time>2024-05-04T08:35:25Z</time>
      </trkpt>
      <trkpt lat="50.07252" lon="4.11581">
        <ele>196.4</ele>
        <time>2024-05-04T08:35:26Z</time>
      </trkpt>
      <trkpt lat="50.07257" lon="4.11586">
        <ele>196.8</ele>
        <time>2024-05-04T08:35:27Z</time>
      </trkpt>
      <trkpt lat="50.07262" lon="4.11592">
        <ele>197.2</ele>
        <time>2024-05-04T08:35:28Z</time>
      </trkpt>
      <trkpt lat="50.07267" lon="4.11597">
        <ele>197.2</ele>
        <time>2024-05-04T08:35:29Z</time>
      </trkpt>
      <trkpt lat="50.07272" lon="4.11602">
        <ele>197.8</ele>
        <time>2024-05-04T08:35:30Z</time>
      </trkpt>
      <trkpt lat="50.07277" lon="4.11607">
        <ele>198.2</ele>
        <time>2024-05-04T08:35:31Z</time>
      </trkpt>
      <trkpt lat="50.07281" lon="4.11612">
        <ele>198.6</ele>
        <time>2024-05-04T08:35:32Z</time>
      </trkpt>
      <trkpt lat="50.07286" lon="4.11617">
        <ele>199</ele>
        <time>2024-05-04T08:35:33Z</time>
      </trkpt>
      <trkpt lat="50.07291" lon="4.11623">
        <ele>199.2</ele>
        <time>2024-05-04T08:35:34Z</time>
      </trkpt>
      <trkpt lat="50.07297" lon="4.11628">
        <ele>199.2</ele>
        <time>2024-05-04T08:35:35Z</time>
      </trkpt>
      <trkpt lat="50.07303" lon="4.11634">
        <ele>199.4</ele>
        <time>2024-05-04T08:35:36Z</time>
      </trkpt>
      <trkpt lat="50.07308" lon="4.11639">
        <ele>199.8</ele>
        <time>2024-05-04T08:35:37Z</time>
      </trkpt>
      <trkpt lat="50.07314" lon="4.11644">
        <ele>199.8</ele>
        <time>2024-05-04T08:35:38Z</time>
      </trkpt>
      <trkpt lat="50.0732" lon="4.11649">
        <ele>200.2</ele>
        <time>2024-05-04T08:35:39Z</time>
      </trkpt>
      <trkpt lat="50.07325" lon="4.11654">
        <ele>200.2</ele>
        <time>2024-05-04T08:35:40Z</time>
      </trkpt>
      <trkpt lat="50.0733" lon="4.1166">
        <ele>200.6</ele>
        <time>2024-05-04T08:35:41Z</time>
      </trkpt>
      <trkpt lat="50.07335" lon="4.11666">
        <ele>200.6</ele>
        <time>2024-05-04T08:35:42Z</time>
      </trkpt>
      <trkpt lat="50.0734" lon="4.11671">
        <ele>201</ele>
        <time>2024-05-04T08:35:43Z</time>
      </trkpt>
      <trkpt lat="50.07345" lon="4.11677">
        <ele>201.4</ele>
        <time>2024-05-04T08:35:44Z</time>
      </trkpt>
      <trkpt lat="50.0735" lon="4.11682">
        <ele>201.4</ele>
        <time>2024-05-04T08:35:45Z</time>
      </trkpt>
      <trkpt lat="50.07355" lon="4.11686">
        <ele>201.4</ele>
        <time>2024-05-04T08:35:46Z</time>
      </trkpt>
      <trkpt lat="50.0736" lon="4.11691">
        <ele>201.8</ele>
        <time>2024-05-04T08:35:47Z</time>
      </trkpt>
      <trkpt lat="50.07365" lon="4.11696">
        <ele>202.2</ele>
        <time>2024-05-04T08:35:48Z</time>
      </trkpt>
      <trkpt lat="50.07371" lon="4.11701">
        <ele>202.4</ele>
        <time>2024-05-04T08:35:49Z</time>
      </trkpt>
      <trkpt lat="50.07376" lon="4.11706">
        <ele>202.8</ele>
        <time>2024-05-04T08:35:50Z</time>
      </trkpt>
      <trkpt lat="50.07381" lon="4.11711">
        <ele>203</ele>
        <time>2024-05-04T08:35:51Z</time>
      </trkpt>
      <trkpt lat="50.07386" lon="4.11716">
        <ele>203.4</ele>
        <time>2024-05-04T08:35:52Z</time>
      </trkpt>
      <trkpt lat="50.07392" lon="4.11722">
        <ele>203.4</ele>
        <time>2024-05-04T08:35:53Z</time>
      </trkpt>
      <trkpt lat="50.07397" lon="4.11727">
        <ele>203.6</ele>
        <time>2024-05-04T08:35:54Z</time>
      </trkpt>
      <trkpt lat="50.07402" lon="4.11733">
        <ele>204</ele>
        <time>2024-05-04T08:35:55Z</time>
      </trkpt>
      <trkpt lat="50.07408" lon="4.11738">
        <ele>204</ele>
        <time>2024-05-04T08:35:56Z</time>
      </trkpt>
      <trkpt lat="50.07413" lon="4.11743">
        <ele>204.2</ele>
        <time>2024-05-04T08:35:57Z</time>
      </trkpt>
      <trkpt lat="50.07419" lon="4.11749">
        <ele>204.2</ele>
        <time>2024-05-04T08:35:58Z</time>
      </trkpt>
      <trkpt lat="50.07424" lon="4.11755">
        <ele>204.2</ele>
        <time>2024-05-04T08:35:59Z</time>
      </trkpt>
      <trkpt lat="50.07429" lon="4.1176">
        <ele>204.4</ele>
        <time>2024-05-04T08:36:00Z</time>
      </trkpt>
      <trkpt lat="50.07435" lon="4.11765">
        <ele>204.4</ele>
        <time>2024-05-04T08:36:01Z</time>
      </trkpt>
      <trkpt lat="50.07441" lon="4.11771">
        <ele>204.2</ele>
        <time>2024-05-04T08:36:02Z</time>
      </trkpt>
      <trkpt lat="50.07447" lon="4.11777">
        <ele>204.2</ele>
        <time>2024-05-04T08:36:03Z</time>
      </trkpt>
      <trkpt lat="50.07454" lon="4.11783">
        <ele>204.2</ele>
        <time>2024-05-04T08:36:04Z</time>
      </trkpt>
      <trkpt lat="50.0746" lon="4.11789">
        <ele>204.2</ele>
        <time>2024-05-04T08:36:05Z</time>
      </trkpt>
      <trkpt lat="50.07466" lon="4.11796">
        <ele>204.4</ele>
        <time>2024-05-04T08:36:06Z</time>
      </trkpt>
      <trkpt lat="50.07472" lon="4.11801">
        <ele>204.2</ele>
        <time>2024-05-04T08:36:07Z</time>
      </trkpt>
      <trkpt lat="50.07478" lon="4.11807">
        <ele>204.2</ele>
        <time>2024-05-04T08:36:08Z</time>
      </trkpt>
      <trkpt lat="50.07485" lon="4.11814">
        <ele>204</ele>
        <time>2024-05-04T08:36:09Z</time>
      </trkpt>
      <trkpt lat="50.07491" lon="4.1182">
        <ele>203.6</ele>
        <time>2024-05-04T08:36:10Z</time>
      </trkpt>
      <trkpt lat="50.07498" lon="4.11827">
        <ele>203.4</ele>
        <time>2024-05-04T08:36:11Z</time>
      </trkpt>
      <trkpt lat="50.07504" lon="4.11833">
        <ele>203.2</ele>
        <time>2024-05-04T08:36:12Z</time>
      </trkpt>
      <trkpt lat="50.0751" lon="4.11839">
        <ele>203</ele>
        <time>2024-05-04T08:36:13Z</time>
      </trkpt>
      <trkpt lat="50.07517" lon="4.11846">
        <ele>202.8</ele>
        <time>2024-05-04T08:36:14Z</time>
      </trkpt>
      <trkpt lat="50.07523" lon="4.11853">
        <ele>202.8</ele>
        <time>2024-05-04T08:36:15Z</time>
      </trkpt>
      <trkpt lat="50.0753" lon="4.1186">
        <ele>202.4</ele>
        <time>2024-05-04T08:36:16Z</time>
      </trkpt>
      <trkpt lat="50.07536" lon="4.11866">
        <ele>202.2</ele>
        <time>2024-05-04T08:36:17Z</time>
      </trkpt>
      <trkpt lat="50.07542" lon="4.11873">
        <ele>202.2</ele>
        <time>2024-05-04T08:36:18Z</time>
      </trkpt>
      <trkpt lat="50.07548" lon="4.11879">
        <ele>202.2</ele>
        <time>2024-05-04T08:36:19Z</time>
      </trkpt>
      <trkpt lat="50.07554" lon="4.11885">
        <ele>202</ele>
        <time>2024-05-04T08:36:20Z</time>
      </trkpt>
      <trkpt lat="50.07559" lon="4.11891">
        <ele>202</ele>
        <time>2024-05-04T08:36:21Z</time>
      </trkpt>
      <trkpt lat="50.07565" lon="4.11897">
        <ele>202.2</ele>
        <time>2024-05-04T08:36:22Z</time>
      </trkpt>
      <trkpt lat="50.07571" lon="4.11903">
        <ele>202.2</ele>
        <time>2024-05-04T08:36:23Z</time>
      </trkpt>
      <trkpt lat="50.07577" lon="4.11909">
        <ele>202.2</ele>
        <time>2024-05-04T08:36:24Z</time>
      </trkpt>
      <trkpt lat="50.07583" lon="4.11915">
        <ele>202.2</ele>
        <time>2024-05-04T08:36:25Z</time>
      </trkpt>
      <trkpt lat="50.07589" lon="4.1192">
        <ele>202</ele>
        <time>2024-05-04T08:36:26Z</time>
      </trkpt>
      <trkpt lat="50.07594" lon="4.11925">
        <ele>203</ele>
        <time>2024-05-04T08:36:27Z</time>
      </trkpt>
      <trkpt lat="50.07599" lon="4.11931">
        <ele>203.6</ele>
        <time>2024-05-04T08:36:28Z</time>
      </trkpt>
      <trkpt lat="50.07605" lon="4.11937">
        <ele>203.8</ele>
        <time>2024-05-04T08:36:29Z</time>
      </trkpt>
      <trkpt lat="50.07611" lon="4.11942">
        <ele>204.2</ele>
        <time>2024-05-04T08:36:30Z</time>
      </trkpt>
      <trkpt lat="50.07617" lon="4.11948">
        <ele>204.4</ele>
        <time>2024-05-04T08:36:31Z</time>
      </trkpt>
      <trkpt lat="50.07623" lon="4.11954">
        <ele>204.4</ele>
        <time>2024-05-04T08:36:32Z</time>
      </trkpt>
      <trkpt lat="50.07629" lon="4.1196">
        <ele>204.8</ele>
        <time>2024-05-04T08:36:33Z</time>
      </trkpt>
      <trkpt lat="50.07635" lon="4.11966">
        <ele>205.2</ele>
        <time>2024-05-04T08:36:34Z</time>
      </trkpt>
      <trkpt lat="50.0764" lon="4.11972">
        <ele>205.2</ele>
        <time>2024-05-04T08:36:35Z</time>
      </trkpt>
      <trkpt lat="50.07646" lon="4.11978">
        <ele>205.4</ele>
        <time>2024-05-04T08:36:36Z</time>
      </trkpt>
      <trkpt lat="50.07651" lon="4.11984">
        <ele>205.4</ele>
        <time>2024-05-04T08:36:37Z</time>
      </trkpt>
      <trkpt lat="50.07657" lon="4.1199">
        <ele>205.6</ele>
        <time>2024-05-04T08:36:38Z</time>
      </trkpt>
      <trkpt lat="50.07664" lon="4.11996">
        <ele>205.6</ele>
        <time>2024-05-04T08:36:39Z</time>
      </trkpt>
      <trkpt lat="50.0767" lon="4.12003">
        <ele>205.4</ele>
        <time>2024-05-04T08:36:40Z</time>
      </trkpt>
      <trkpt lat="50.07677" lon="4.12009">
        <ele>205.6</ele>
        <time>2024-05-04T08:36:41Z</time>
      </trkpt>
      <trkpt lat="50.07683" lon="4.12016">
        <ele>205.6</ele>
        <time>2024-05-04T08:36:42Z</time>
      </trkpt>
      <trkpt lat="50.0769" lon="4.12023">
        <ele>205.6</ele>
        <time>2024-05-04T08:36:43Z</time>
      </trkpt>
      <trkpt lat="50.07697" lon="4.12029">
        <ele>205.6</ele>
        <time>2024-05-04T08:36:44Z</time>
      </trkpt>
      <trkpt lat="50.07703" lon="4.12036">
        <ele>205.6</ele>
        <time>2024-05-04T08:36:45Z</time>
      </trkpt>
      <trkpt lat="50.07709" lon="4.12043">
        <ele>205.6</ele>
        <time>2024-05-04T08:36:46Z</time>
      </trkpt>
      <trkpt lat="50.07715" lon="4.12049">
        <ele>205.6</ele>
        <time>2024-05-04T08:36:47Z</time>
      </trkpt>
      <trkpt lat="50.07721" lon="4.12055">
        <ele>205.6</ele>
        <time>2024-05-04T08:36:48Z</time>
      </trkpt>
      <trkpt lat="50.07728" lon="4.12062">
        <ele>205.6</ele>
        <time>2024-05-04T08:36:49Z</time>
      </trkpt>
      <trkpt lat="50.07734" lon="4.12068">
        <ele>205.4</ele>
        <time>2024-05-04T08:36:50Z</time>
      </trkpt>
      <trkpt lat="50.0774" lon="4.12074">
        <ele>205.6</ele>
        <time>2024-05-04T08:36:51Z</time>
      </trkpt>
      <trkpt lat="50.07746" lon="4.1208">
        <ele>205.6</ele>
        <time>2024-05-04T08:36:52Z</time>
      </trkpt>
      <trkpt lat="50.07753" lon="4.12087">
        <ele>205.6</ele>
        <time>2024-05-04T08:36:53Z</time>
      </trkpt>
      <trkpt lat="50.07759" lon="4.12093">
        <ele>205.6</ele>
        <time>2024-05-04T08:36:54Z</time>
      </trkpt>
      <trkpt lat="50.07765" lon="4.121">
        <ele>205.6</ele>
        <time>2024-05-04T08:36:55Z</time>
      </trkpt>
      <trkpt lat="50.07771" lon="4.12106">
        <ele>205.4</ele>
        <time>2024-05-04T08:36:56Z</time>
      </trkpt>
      <trkpt lat="50.07777" lon="4.12112">
        <ele>205.6</ele>
        <time>2024-05-04T08:36:57Z</time>
      </trkpt>
      <trkpt lat="50.07783" lon="4.12118">
        <ele>205.6</ele>
        <time>2024-05-04T08:36:58Z</time>
      </trkpt>
      <trkpt lat="50.0779" lon="4.12124">
        <ele>205.6</ele>
        <time>2024-05-04T08:36:59Z</time>
      </trkpt>
      <trkpt lat="50.07795" lon="4.1213">
        <ele>205.4</ele>
        <time>2024-05-04T08:37:00Z</time>
      </trkpt>
      <trkpt lat="50.07801" lon="4.12136">
        <ele>205.6</ele>
        <time>2024-05-04T08:37:01Z</time>
      </trkpt>
      <trkpt lat="50.07807" lon="4.12142">
        <ele>205.6</ele>
        <time>2024-05-04T08:37:02Z</time>
      </trkpt>
      <trkpt lat="50.07813" lon="4.12148">
        <ele>205.6</ele>
        <time>2024-05-04T08:37:03Z</time>
      </trkpt>
      <trkpt lat="50.07819" lon="4.12154">
        <ele>205.6</ele>
        <time>2024-05-04T08:37:04Z</time>
      </trkpt>
      <trkpt lat="50.07825" lon="4.1216">
        <ele>205.4</ele>
        <time>2024-05-04T08:37:05Z</time>
      </trkpt>
      <trkpt lat="50.07831" lon="4.12166">
        <ele>205.6</ele>
        <time>2024-05-04T08:37:06Z</time>
      </trkpt>
      <trkpt lat="50.07838" lon="4.12172">
        <ele>205.6</ele>
        <time>2024-05-04T08:37:07Z</time>
      </trkpt>
      <trkpt lat="50.07843" lon="4.12178">
        <ele>205.6</ele>
        <time>2024-05-04T08:37:08Z</time>
      </trkpt>
      <trkpt lat="50.07849" lon="4.12183">
        <ele>205.6</ele>
        <time>2024-05-04T08:37:09Z</time>
      </trkpt>
      <trkpt lat="50.07855" lon="4.12189">
        <ele>205.6</ele>
        <time>2024-05-04T08:37:10Z</time>
      </trkpt>
      <trkpt lat="50.07861" lon="4.12196">
        <ele>205.6</ele>
        <time>2024-05-04T08:37:11Z</time>
      </trkpt>
      <trkpt lat="50.07867" lon="4.12202">
        <ele>205.8</ele>
        <time>2024-05-04T08:37:12Z</time>
      </trkpt>
      <trkpt lat="50.07873" lon="4.12209">
        <ele>205.6</ele>
        <time>2024-05-04T08:37:13Z</time>
      </trkpt>
      <trkpt lat="50.07879" lon="4.12215">
        <ele>205.6</ele>
        <time>2024-05-04T08:37:14Z</time>
      </trkpt>
      <trkpt lat="50.07885" lon="4.12221">
        <ele>205.6</ele>
        <time>2024-05-04T08:37:15Z</time>
      </trkpt>
      <trkpt lat="50.07891" lon="4.12228">
        <ele>205.6</ele>
        <time>2024-05-04T08:37:16Z</time>
      </trkpt>
      <trkpt lat="50.07898" lon="4.12234">
        <ele>205.6</ele>
        <time>2024-05-04T08:37:17Z</time>
      </trkpt>
      <trkpt lat="50.07904" lon="4.12241">
        <ele>205.6</ele>
        <time>2024-05-04T08:37:18Z</time>
      </trkpt>
      <trkpt lat="50.0791" lon="4.12247">
        <ele>205.6</ele>
        <time>2024-05-04T08:37:19Z</time>
      </trkpt>
      <trkpt lat="50.07916" lon="4.12253">
        <ele>205.4</ele>
        <time>2024-05-04T08:37:20Z</time>
      </trkpt>
      <trkpt lat="50.07923" lon="4.12259">
        <ele>205.6</ele>
        <time>2024-05-04T08:37:21Z</time>
      </trkpt>
      <trkpt lat="50.0793" lon="4.12266">
        <ele>205.6</ele>
        <time>2024-05-04T08:37:22Z</time>
      </trkpt>
      <trkpt lat="50.07936" lon="4.12272">
        <ele>205.6</ele>
        <time>2024-05-04T08:37:23Z</time>
      </trkpt>
      <trkpt lat="50.07942" lon="4.12279">
        <ele>205.4</ele>
        <time>2024-05-04T08:37:24Z</time>
      </trkpt>
      <trkpt lat="50.07949" lon="4.12285">
        <ele>205.4</ele>
        <time>2024-05-04T08:37:25Z</time>
      </trkpt>
      <trkpt lat="50.07955" lon="4.12292">
        <ele>205.4</ele>
        <time>2024-05-04T08:37:26Z</time>
      </trkpt>
      <trkpt lat="50.07961" lon="4.12298">
        <ele>205.2</ele>
        <time>2024-05-04T08:37:27Z</time>
      </trkpt>
      <trkpt lat="50.07967" lon="4.12305">
        <ele>205.2</ele>
        <time>2024-05-04T08:37:28Z</time>
      </trkpt>
      <trkpt lat="50.07973" lon="4.12311">
        <ele>205.2</ele>
        <time>2024-05-04T08:37:29Z</time>
      </trkpt>
      <trkpt lat="50.0798" lon="4.12318">
        <ele>205</ele>
        <time>2024-05-04T08:37:30Z</time>
      </trkpt>
      <trkpt lat="50.07986" lon="4.12324">
        <ele>205.2</ele>
        <time>2024-05-04T08:37:31Z</time>
      </trkpt>
      <trkpt lat="50.07992" lon="4.1233">
        <ele>205.2</ele>
        <time>2024-05-04T08:37:32Z</time>
      </trkpt>
      <trkpt lat="50.07999" lon="4.12337">
        <ele>205.2</ele>
        <time>2024-05-04T08:37:33Z</time>
      </trkpt>
      <trkpt lat="50.08005" lon="4.12343">
        <ele>205.2</ele>
        <time>2024-05-04T08:37:34Z</time>
      </trkpt>
      <trkpt lat="50.08011" lon="4.1235">
        <ele>205.2</ele>
        <time>2024-05-04T08:37:35Z</time>
      </trkpt>
      <trkpt lat="50.08017" lon="4.12357">
        <ele>205</ele>
        <time>2024-05-04T08:37:36Z</time>
      </trkpt>
      <trkpt lat="50.08024" lon="4.12364">
        <ele>205.2</ele>
        <time>2024-05-04T08:37:37Z</time>
      </trkpt>
      <trkpt lat="50.0803" lon="4.1237">
        <ele>205</ele>
        <time>2024-05-04T08:37:38Z</time>
      </trkpt>
      <trkpt lat="50.08036" lon="4.12376">
        <ele>205</ele>
        <time>2024-05-04T08:37:39Z</time>
      </trkpt>
      <trkpt lat="50.08042" lon="4.12383">
        <ele>205</ele>
        <time>2024-05-04T08:37:40Z</time>
      </trkpt>
      <trkpt lat="50.08048" lon="4.12389">
        <ele>205</ele>
        <time>2024-05-04T08:37:41Z</time>
      </trkpt>
      <trkpt lat="50.08055" lon="4.12395">
        <ele>205</ele>
        <time>2024-05-04T08:37:42Z</time>
      </trkpt>
      <trkpt lat="50.08061" lon="4.12401">
        <ele>205</ele>
        <time>2024-05-04T08:37:43Z</time>
      </trkpt>
      <trkpt lat="50.08067" lon="4.12407">
        <ele>204.8</ele>
        <time>2024-05-04T08:37:44Z</time>
      </trkpt>
      <trkpt lat="50.08073" lon="4.12412">
        <ele>204.8</ele>
        <time>2024-05-04T08:37:45Z</time>
      </trkpt>
      <trkpt lat="50.08079" lon="4.12418">
        <ele>204.8</ele>
        <time>2024-05-04T08:37:46Z</time>
      </trkpt>
      <trkpt lat="50.08085" lon="4.12424">
        <ele>205</ele>
        <time>2024-05-04T08:37:47Z</time>
      </trkpt>
      <trkpt lat="50.08091" lon="4.1243">
        <ele>205</ele>
        <time>2024-05-04T08:37:48Z</time>
      </trkpt>
      <trkpt lat="50.08096" lon="4.12436">
        <ele>205</ele>
        <time>2024-05-04T08:37:49Z</time>
      </trkpt>
      <trkpt lat="50.08102" lon="4.12441">
        <ele>205</ele>
        <time>2024-05-04T08:37:50Z</time>
      </trkpt>
      <trkpt lat="50.08107" lon="4.12447">
        <ele>205.2</ele>
        <time>2024-05-04T08:37:51Z</time>
      </trkpt>
      <trkpt lat="50.08112" lon="4.12452">
        <ele>205.2</ele>
        <time>2024-05-04T08:37:52Z</time>
      </trkpt>
      <trkpt lat="50.08118" lon="4.12458">
        <ele>205.4</ele>
        <time>2024-05-04T08:37:53Z</time>
      </trkpt>
      <trkpt lat="50.08124" lon="4.12463">
        <ele>205.2</ele>
        <time>2024-05-04T08:37:54Z</time>
      </trkpt>
      <trkpt lat="50.08129" lon="4.12469">
        <ele>205.6</ele>
        <time>2024-05-04T08:37:55Z</time>
      </trkpt>
      <trkpt lat="50.08135" lon="4.12475">
        <ele>205.6</ele>
        <time>2024-05-04T08:37:56Z</time>
      </trkpt>
      <trkpt lat="50.0814" lon="4.12481">
        <ele>206</ele>
        <time>2024-05-04T08:37:57Z</time>
      </trkpt>
      <trkpt lat="50.08146" lon="4.12487">
        <ele>206.4</ele>
        <time>2024-05-04T08:37:58Z</time>
      </trkpt>
      <trkpt lat="50.08152" lon="4.12492">
        <ele>206.6</ele>
        <time>2024-05-04T08:37:59Z</time>
      </trkpt>
      <trkpt lat="50.08158" lon="4.12498">
        <ele>206.8</ele>
        <time>2024-05-04T08:38:00Z</time>
      </trkpt>
      <trkpt lat="50.08163" lon="4.12504">
        <ele>207.2</ele>
        <time>2024-05-04T08:38:01Z</time>
      </trkpt>
      <trkpt lat="50.08169" lon="4.1251">
        <ele>207.4</ele>
        <time>2024-05-04T08:38:02Z</time>
      </trkpt>
      <trkpt lat="50.08174" lon="4.12516">
        <ele>207.6</ele>
        <time>2024-05-04T08:38:03Z</time>
      </trkpt>
      <trkpt lat="50.0818" lon="4.12521">
        <ele>207.6</ele>
        <time>2024-05-04T08:38:04Z</time>
      </trkpt>
      <trkpt lat="50.08185" lon="4.12527">
        <ele>207.6</ele>
        <time>2024-05-04T08:38:05Z</time>
      </trkpt>
      <trkpt lat="50.0819" lon="4.12532">
        <ele>207.8</ele>
        <time>2024-05-04T08:38:06Z</time>
      </trkpt>
      <trkpt lat="50.08195" lon="4.12538">
        <ele>208.2</ele>
        <time>2024-05-04T08:38:07Z</time>
      </trkpt>
      <trkpt lat="50.08201" lon="4.12543">
        <ele>208.2</ele>
        <time>2024-05-04T08:38:08Z</time>
      </trkpt>
      <trkpt lat="50.08206" lon="4.12548">
        <ele>208.2</ele>
        <time>2024-05-04T08:38:09Z</time>
      </trkpt>
      <trkpt lat="50.08212" lon="4.12554">
        <ele>208.4</ele>
        <time>2024-05-04T08:38:10Z</time>
      </trkpt>
      <trkpt lat="50.08218" lon="4.1256">
        <ele>208.4</ele>
        <time>2024-05-04T08:38:11Z</time>
      </trkpt>
      <trkpt lat="50.08223" lon="4.12567">
        <ele>208.6</ele>
        <time>2024-05-04T08:38:12Z</time>
      </trkpt>
      <trkpt lat="50.0823" lon="4.12574">
        <ele>208.6</ele>
        <time>2024-05-04T08:38:13Z</time>
      </trkpt>
      <trkpt lat="50.08237" lon="4.12581">
        <ele>208.6</ele>
        <time>2024-05-04T08:38:14Z</time>
      </trkpt>
      <trkpt lat="50.08244" lon="4.12588">
        <ele>208.6</ele>
        <time>2024-05-04T08:38:15Z</time>
      </trkpt>
      <trkpt lat="50.0825" lon="4.12595">
        <ele>208.6</ele>
        <time>2024-05-04T08:38:16Z</time>
      </trkpt>
      <trkpt lat="50.08257" lon="4.12602">
        <ele>208.6</ele>
        <time>2024-05-04T08:38:17Z</time>
      </trkpt>
      <trkpt lat="50.08264" lon="4.12609">
        <ele>208.8</ele>
        <time>2024-05-04T08:38:18Z</time>
      </trkpt>
      <trkpt lat="50.08271" lon="4.12617">
        <ele>208.6</ele>
        <time>2024-05-04T08:38:19Z</time>
      </trkpt>
      <trkpt lat="50.08278" lon="4.12623">
        <ele>208.6</ele>
        <time>2024-05-04T08:38:20Z</time>
      </trkpt>
      <trkpt lat="50.08285" lon="4.1263">
        <ele>208.6</ele>
        <time>2024-05-04T08:38:21Z</time>
      </trkpt>
      <trkpt lat="50.08291" lon="4.12637">
        <ele>208.6</ele>
        <time>2024-05-04T08:38:22Z</time>
      </trkpt>
      <trkpt lat="50.08298" lon="4.12643">
        <ele>208.6</ele>
        <time>2024-05-04T08:38:23Z</time>
      </trkpt>
      <trkpt lat="50.08304" lon="4.1265">
        <ele>208.6</ele>
        <time>2024-05-04T08:38:24Z</time>
      </trkpt>
      <trkpt lat="50.0831" lon="4.12656">
        <ele>208.6</ele>
        <time>2024-05-04T08:38:25Z</time>
      </trkpt>
      <trkpt lat="50.08317" lon="4.12663">
        <ele>208.6</ele>
        <time>2024-05-04T08:38:26Z</time>
      </trkpt>
      <trkpt lat="50.08323" lon="4.12669">
        <ele>208.4</ele>
        <time>2024-05-04T08:38:27Z</time>
      </trkpt>
      <trkpt lat="50.0833" lon="4.12676">
        <ele>208.2</ele>
        <time>2024-05-04T08:38:28Z</time>
      </trkpt>
      <trkpt lat="50.08336" lon="4.12682">
        <ele>208.4</ele>
        <time>2024-05-04T08:38:29Z</time>
      </trkpt>
      <trkpt lat="50.08343" lon="4.12689">
        <ele>208.2</ele>
        <time>2024-05-04T08:38:30Z</time>
      </trkpt>
      <trkpt lat="50.0835" lon="4.12696">
        <ele>208.2</ele>
        <time>2024-05-04T08:38:31Z</time>
      </trkpt>
      <trkpt lat="50.08357" lon="4.12704">
        <ele>208</ele>
        <time>2024-05-04T08:38:32Z</time>
      </trkpt>
      <trkpt lat="50.08364" lon="4.12711">
        <ele>207.8</ele>
        <time>2024-05-04T08:38:33Z</time>
      </trkpt>
      <trkpt lat="50.0837" lon="4.12718">
        <ele>207.8</ele>
        <time>2024-05-04T08:38:34Z</time>
      </trkpt>
      <trkpt lat="50.08377" lon="4.12725">
        <ele>207.6</ele>
        <time>2024-05-04T08:38:35Z</time>
      </trkpt>
      <trkpt lat="50.08384" lon="4.12732">
        <ele>207.8</ele>
        <time>2024-05-04T08:38:36Z</time>
      </trkpt>
      <trkpt lat="50.0839" lon="4.12738">
        <ele>207.8</ele>
        <time>2024-05-04T08:38:37Z</time>
      </trkpt>
      <trkpt lat="50.08397" lon="4.12746">
        <ele>207.8</ele>
        <time>2024-05-04T08:38:38Z</time>
      </trkpt>
      <trkpt lat="50.08404" lon="4.12753">
        <ele>207.6</ele>
        <time>2024-05-04T08:38:39Z</time>
      </trkpt>
      <trkpt lat="50.08411" lon="4.12759">
        <ele>207.6</ele>
        <time>2024-05-04T08:38:40Z</time>
      </trkpt>
      <trkpt lat="50.08418" lon="4.12767">
        <ele>207.6</ele>
        <time>2024-05-04T08:38:41Z</time>
      </trkpt>
      <trkpt lat="50.08425" lon="4.12774">
        <ele>207.6</ele>
        <time>2024-05-04T08:38:42Z</time>
      </trkpt>
      <trkpt lat="50.08432" lon="4.12781">
        <ele>207.4</ele>
        <time>2024-05-04T08:38:43Z</time>
      </trkpt>
      <trkpt lat="50.08439" lon="4.12788">
        <ele>207.6</ele>
        <time>2024-05-04T08:38:44Z</time>
      </trkpt>
      <trkpt lat="50.08446" lon="4.12795">
        <ele>207.4</ele>
        <time>2024-05-04T08:38:45Z</time>
      </trkpt>
      <trkpt lat="50.08453" lon="4.12802">
        <ele>207.6</ele>
        <time>2024-05-04T08:38:46Z</time>
      </trkpt>
      <trkpt lat="50.08459" lon="4.12809">
        <ele>207.8</ele>
        <time>2024-05-04T08:38:47Z</time>
      </trkpt>
      <trkpt lat="50.08466" lon="4.12816">
        <ele>207.6</ele>
        <time>2024-05-04T08:38:48Z</time>
      </trkpt>
      <trkpt lat="50.08472" lon="4.12823">
        <ele>207.6</ele>
        <time>2024-05-04T08:38:49Z</time>
      </trkpt>
      <trkpt lat="50.08479" lon="4.1283">
        <ele>207.8</ele>
        <time>2024-05-04T08:38:50Z</time>
      </trkpt>
      <trkpt lat="50.08485" lon="4.12836">
        <ele>207.8</ele>
        <time>2024-05-04T08:38:51Z</time>
      </trkpt>
      <trkpt lat="50.08492" lon="4.12843">
        <ele>207.8</ele>
        <time>2024-05-04T08:38:52Z</time>
      </trkpt>
      <trkpt lat="50.08498" lon="4.12849">
        <ele>207.8</ele>
        <time>2024-05-04T08:38:53Z</time>
      </trkpt>
      <trkpt lat="50.08505" lon="4.12856">
        <ele>207.8</ele>
        <time>2024-05-04T08:38:54Z</time>
      </trkpt>
      <trkpt lat="50.08511" lon="4.12862">
        <ele>207.8</ele>
        <time>2024-05-04T08:38:55Z</time>
      </trkpt>
      <trkpt lat="50.08518" lon="4.12869">
        <ele>208</ele>
        <time>2024-05-04T08:38:56Z</time>
      </trkpt>
      <trkpt lat="50.08524" lon="4.12876">
        <ele>207.8</ele>
        <time>2024-05-04T08:38:57Z</time>
      </trkpt>
      <trkpt lat="50.0853" lon="4.12883">
        <ele>207.8</ele>
        <time>2024-05-04T08:38:58Z</time>
      </trkpt>
      <trkpt lat="50.08537" lon="4.12889">
        <ele>208</ele>
        <time>2024-05-04T08:38:59Z</time>
      </trkpt>
      <trkpt lat="50.08543" lon="4.12896">
        <ele>208</ele>
        <time>2024-05-04T08:39:00Z</time>
      </trkpt>
      <trkpt lat="50.0855" lon="4.12902">
        <ele>207.8</ele>
        <time>2024-05-04T08:39:01Z</time>
      </trkpt>
      <trkpt lat="50.08557" lon="4.12909">
        <ele>207.6</ele>
        <time>2024-05-04T08:39:02Z</time>
      </trkpt>
      <trkpt lat="50.08563" lon="4.12916">
        <ele>207.8</ele>
        <time>2024-05-04T08:39:03Z</time>
      </trkpt>
      <trkpt lat="50.0857" lon="4.12924">
        <ele>207.8</ele>
        <time>2024-05-04T08:39:04Z</time>
      </trkpt>
      <trkpt lat="50.08576" lon="4.12931">
        <ele>207.6</ele>
        <time>2024-05-04T08:39:05Z</time>
      </trkpt>
      <trkpt lat="50.08583" lon="4.12938">
        <ele>207.8</ele>
        <time>2024-05-04T08:39:06Z</time>
      </trkpt>
      <trkpt lat="50.0859" lon="4.12946">
        <ele>207.8</ele>
        <time>2024-05-04T08:39:07Z</time>
      </trkpt>
      <trkpt lat="50.08597" lon="4.12953">
        <ele>207.8</ele>
        <time>2024-05-04T08:39:08Z</time>
      </trkpt>
      <trkpt lat="50.08604" lon="4.12961">
        <ele>207.6</ele>
        <time>2024-05-04T08:39:09Z</time>
      </trkpt>
      <trkpt lat="50.08611" lon="4.12968">
        <ele>207.6</ele>
        <time>2024-05-04T08:39:10Z</time>
      </trkpt>
      <trkpt lat="50.08618" lon="4.12976">
        <ele>207.6</ele>
        <time>2024-05-04T08:39:11Z</time>
      </trkpt>
      <trkpt lat="50.08625" lon="4.12984">
        <ele>207.6</ele>
        <time>2024-05-04T08:39:12Z</time>
      </trkpt>
      <trkpt lat="50.08632" lon="4.12991">
        <ele>207.2</ele>
        <time>2024-05-04T08:39:13Z</time>
      </trkpt>
      <trkpt lat="50.08639" lon="4.12998">
        <ele>207.2</ele>
        <time>2024-05-04T08:39:14Z</time>
      </trkpt>
      <trkpt lat="50.08646" lon="4.13006">
        <ele>206.8</ele>
        <time>2024-05-04T08:39:15Z</time>
      </trkpt>
      <trkpt lat="50.08653" lon="4.13014">
        <ele>206.8</ele>
        <time>2024-05-04T08:39:16Z</time>
      </trkpt>
      <trkpt lat="50.0866" lon="4.13021">
        <ele>206.8</ele>
        <time>2024-05-04T08:39:17Z</time>
      </trkpt>
      <trkpt lat="50.08667" lon="4.13029">
        <ele>206.8</ele>
        <time>2024-05-04T08:39:18Z</time>
      </trkpt>
      <trkpt lat="50.08674" lon="4.13036">
        <ele>206.6</ele>
        <time>2024-05-04T08:39:19Z</time>
      </trkpt>
      <trkpt lat="50.08681" lon="4.13043">
        <ele>206.4</ele>
        <time>2024-05-04T08:39:20Z</time>
      </trkpt>
      <trkpt lat="50.08688" lon="4.1305">
        <ele>206.4</ele>
        <time>2024-05-04T08:39:21Z</time>
      </trkpt>
      <trkpt lat="50.08695" lon="4.13058">
        <ele>206.2</ele>
        <time>2024-05-04T08:39:22Z</time>
      </trkpt>
      <trkpt lat="50.08702" lon="4.13065">
        <ele>206</ele>
        <time>2024-05-04T08:39:23Z</time>
      </trkpt>
      <trkpt lat="50.08708" lon="4.13072">
        <ele>205.6</ele>
        <time>2024-05-04T08:39:24Z</time>
      </trkpt>
      <trkpt lat="50.08715" lon="4.13079">
        <ele>205.4</ele>
        <time>2024-05-04T08:39:25Z</time>
      </trkpt>
      <trkpt lat="50.08722" lon="4.13086">
        <ele>205.4</ele>
        <time>2024-05-04T08:39:26Z</time>
      </trkpt>
      <trkpt lat="50.08729" lon="4.13094">
        <ele>205.4</ele>
        <time>2024-05-04T08:39:27Z</time>
      </trkpt>
      <trkpt lat="50.08736" lon="4.13101">
        <ele>205.4</ele>
        <time>2024-05-04T08:39:28Z</time>
      </trkpt>
      <trkpt lat="50.08743" lon="4.13108">
        <ele>205.4</ele>
        <time>2024-05-04T08:39:29Z</time>
      </trkpt>
      <trkpt lat="50.0875" lon="4.13115">
        <ele>205.4</ele>
        <time>2024-05-04T08:39:30Z</time>
      </trkpt>
      <trkpt lat="50.08757" lon="4.13122">
        <ele>205.4</ele>
        <time>2024-05-04T08:39:31Z</time>
      </trkpt>
      <trkpt lat="50.08763" lon="4.13129">
        <ele>205.4</ele>
        <time>2024-05-04T08:39:32Z</time>
      </trkpt>
      <trkpt lat="50.0877" lon="4.13136">
        <ele>205.2</ele>
        <time>2024-05-04T08:39:33Z</time>
      </trkpt>
      <trkpt lat="50.08777" lon="4.13142">
        <ele>205.4</ele>
        <time>2024-05-04T08:39:34Z</time>
      </trkpt>
      <trkpt lat="50.08783" lon="4.13149">
        <ele>205.2</ele>
        <time>2024-05-04T08:39:35Z</time>
      </trkpt>
      <trkpt lat="50.0879" lon="4.13156">
        <ele>205.4</ele>
        <time>2024-05-04T08:39:36Z</time>
      </trkpt>
      <trkpt lat="50.08796" lon="4.13164">
        <ele>205.4</ele>
        <time>2024-05-04T08:39:37Z</time>
      </trkpt>
      <trkpt lat="50.08803" lon="4.13171">
        <ele>205.2</ele>
        <time>2024-05-04T08:39:38Z</time>
      </trkpt>
      <trkpt lat="50.08809" lon="4.13178">
        <ele>205.4</ele>
        <time>2024-05-04T08:39:39Z</time>
      </trkpt>
      <trkpt lat="50.08815" lon="4.13185">
        <ele>205.6</ele>
        <time>2024-05-04T08:39:40Z</time>
      </trkpt>
      <trkpt lat="50.08822" lon="4.13192">
        <ele>205.6</ele>
        <time>2024-05-04T08:39:41Z</time>
      </trkpt>
      <trkpt lat="50.08828" lon="4.13199">
        <ele>205.6</ele>
        <time>2024-05-04T08:39:42Z</time>
      </trkpt>
      <trkpt lat="50.08834" lon="4.13206">
        <ele>205.6</ele>
        <time>2024-05-04T08:39:43Z</time>
      </trkpt>
      <trkpt lat="50.08841" lon="4.13213">
        <ele>205.6</ele>
        <time>2024-05-04T08:39:44Z</time>
      </trkpt>
      <trkpt lat="50.08847" lon="4.13219">
        <ele>205.4</ele>
        <time>2024-05-04T08:39:45Z</time>
      </trkpt>
      <trkpt lat="50.08853" lon="4.13226">
        <ele>205.4</ele>
        <time>2024-05-04T08:39:46Z</time>
      </trkpt>
      <trkpt lat="50.0886" lon="4.13232">
        <ele>205.4</ele>
        <time>2024-05-04T08:39:47Z</time>
      </trkpt>
      <trkpt lat="50.08866" lon="4.13239">
        <ele>205.6</ele>
        <time>2024-05-04T08:39:48Z</time>
      </trkpt>
      <trkpt lat="50.08872" lon="4.13246">
        <ele>205.4</ele>
        <time>2024-05-04T08:39:49Z</time>
      </trkpt>
      <trkpt lat="50.08879" lon="4.13252">
        <ele>205.4</ele>
        <time>2024-05-04T08:39:50Z</time>
      </trkpt>
      <trkpt lat="50.08885" lon="4.13258">
        <ele>205.6</ele>
        <time>2024-05-04T08:39:51Z</time>
      </trkpt>
      <trkpt lat="50.08892" lon="4.13265">
        <ele>205.4</ele>
        <time>2024-05-04T08:39:52Z</time>
      </trkpt>
      <trkpt lat="50.08898" lon="4.13271">
        <ele>205.4</ele>
        <time>2024-05-04T08:39:53Z</time>
      </trkpt>
      <trkpt lat="50.08904" lon="4.13278">
        <ele>205.6</ele>
        <time>2024-05-04T08:39:54Z</time>
      </trkpt>
      <trkpt lat="50.08911" lon="4.13284">
        <ele>205.4</ele>
        <time>2024-05-04T08:39:55Z</time>
      </trkpt>
      <trkpt lat="50.08917" lon="4.13291">
        <ele>205.4</ele>
        <time>2024-05-04T08:39:56Z</time>
      </trkpt>
      <trkpt lat="50.08923" lon="4.13298">
        <ele>205.4</ele>
        <time>2024-05-04T08:39:57Z</time>
      </trkpt>
      <trkpt lat="50.08929" lon="4.13304">
        <ele>205.4</ele>
        <time>2024-05-04T08:39:58Z</time>
      </trkpt>
      <trkpt lat="50.08935" lon="4.13311">
        <ele>205.4</ele>
        <time>2024-05-04T08:39:59Z</time>
      </trkpt>
      <trkpt lat="50.08941" lon="4.13318">
        <ele>205.4</ele>
        <time>2024-05-04T08:40:00Z</time>
      </trkpt>
      <trkpt lat="50.08948" lon="4.13324">
        <ele>205.4</ele>
        <time>2024-05-04T08:40:01Z</time>
      </trkpt>
      <trkpt lat="50.08954" lon="4.13331">
        <ele>205.4</ele>
        <time>2024-05-04T08:40:02Z</time>
      </trkpt>
      <trkpt lat="50.0896" lon="4.13338">
        <ele>205.6</ele>
        <time>2024-05-04T08:40:03Z</time>
      </trkpt>
      <trkpt lat="50.08966" lon="4.13344">
        <ele>205.6</ele>
        <time>2024-05-04T08:40:04Z</time>
      </trkpt>
      <trkpt lat="50.08972" lon="4.1335">
        <ele>206.2</ele>
        <time>2024-05-04T08:40:05Z</time>
      </trkpt>
      <trkpt lat="50.08978" lon="4.13357">
        <ele>206.4</ele>
        <time>2024-05-04T08:40:06Z</time>
      </trkpt>
      <trkpt lat="50.08984" lon="4.13363">
        <ele>206.6</ele>
        <time>2024-05-04T08:40:07Z</time>
      </trkpt>
      <trkpt lat="50.08991" lon="4.1337">
        <ele>207</ele>
        <time>2024-05-04T08:40:08Z</time>
      </trkpt>
      <trkpt lat="50.08997" lon="4.13376">
        <ele>207.2</ele>
        <time>2024-05-04T08:40:09Z</time>
      </trkpt>
      <trkpt lat="50.09003" lon="4.13383">
        <ele>207.4</ele>
        <time>2024-05-04T08:40:10Z</time>
      </trkpt>
      <trkpt lat="50.09009" lon="4.13389">
        <ele>207.4</ele>
        <time>2024-05-04T08:40:11Z</time>
      </trkpt>
      <trkpt lat="50.09016" lon="4.13396">
        <ele>207.4</ele>
        <time>2024-05-04T08:40:12Z</time>
      </trkpt>
      <trkpt lat="50.09022" lon="4.13402">
        <ele>207.4</ele>
        <time>2024-05-04T08:40:13Z</time>
      </trkpt>
      <trkpt lat="50.09028" lon="4.13409">
        <ele>207.6</ele>
        <time>2024-05-04T08:40:14Z</time>
      </trkpt>
      <trkpt lat="50.09034" lon="4.13415">
        <ele>207.6</ele>
        <time>2024-05-04T08:40:15Z</time>
      </trkpt>
      <trkpt lat="50.09039" lon="4.13422">
        <ele>207.6</ele>
        <time>2024-05-04T08:40:16Z</time>
      </trkpt>
      <trkpt lat="50.09045" lon="4.13429">
        <ele>207.6</ele>
        <time>2024-05-04T08:40:17Z</time>
      </trkpt>
      <trkpt lat="50.09052" lon="4.13435">
        <ele>207.4</ele>
        <time>2024-05-04T08:40:18Z</time>
      </trkpt>
      <trkpt lat="50.09058" lon="4.13441">
        <ele>207.6</ele>
        <time>2024-05-04T08:40:19Z</time>
      </trkpt>
      <trkpt lat="50.09064" lon="4.13448">
        <ele>207.6</ele>
        <time>2024-05-04T08:40:20Z</time>
      </trkpt>
      <trkpt lat="50.09069" lon="4.13454">
        <ele>207.4</ele>
        <time>2024-05-04T08:40:21Z</time>
      </trkpt>
      <trkpt lat="50.09075" lon="4.13461">
        <ele>207.4</ele>
        <time>2024-05-04T08:40:22Z</time>
      </trkpt>
      <trkpt lat="50.09081" lon="4.13467">
        <ele>207.4</ele>
        <time>2024-05-04T08:40:23Z</time>
      </trkpt>
      <trkpt lat="50.09088" lon="4.13474">
        <ele>207.6</ele>
        <time>2024-05-04T08:40:24Z</time>
      </trkpt>
      <trkpt lat="50.09094" lon="4.13481">
        <ele>207.4</ele>
        <time>2024-05-04T08:40:25Z</time>
      </trkpt>
      <trkpt lat="50.09101" lon="4.13488">
        <ele>207.4</ele>
        <time>2024-05-04T08:40:26Z</time>
      </trkpt>
      <trkpt lat="50.09108" lon="4.13494">
        <ele>207.4</ele>
        <time>2024-05-04T08:40:27Z</time>
      </trkpt>
      <trkpt lat="50.09115" lon="4.13502">
        <ele>207.6</ele>
        <time>2024-05-04T08:40:28Z</time>
      </trkpt>
      <trkpt lat="50.09121" lon="4.13509">
        <ele>207.4</ele>
        <time>2024-05-04T08:40:29Z</time>
      </trkpt>
      <trkpt lat="50.09128" lon="4.13516">
        <ele>207.4</ele>
        <time>2024-05-04T08:40:30Z</time>
      </trkpt>
      <trkpt lat="50.09134" lon="4.13523">
        <ele>207.2</ele>
        <time>2024-05-04T08:40:31Z</time>
      </trkpt>
      <trkpt lat="50.09141" lon="4.1353">
        <ele>207.4</ele>
        <time>2024-05-04T08:40:32Z</time>
      </trkpt>
      <trkpt lat="50.09148" lon="4.13537">
        <ele>207.2</ele>
        <time>2024-05-04T08:40:33Z</time>
      </trkpt>
      <trkpt lat="50.09154" lon="4.13544">
        <ele>207.4</ele>
        <time>2024-05-04T08:40:34Z</time>
      </trkpt>
      <trkpt lat="50.09161" lon="4.13551">
        <ele>207.6</ele>
        <time>2024-05-04T08:40:35Z</time>
      </trkpt>
      <trkpt lat="50.09167" lon="4.13558">
        <ele>207.6</ele>
        <time>2024-05-04T08:40:36Z</time>
      </trkpt>
      <trkpt lat="50.09174" lon="4.13566">
        <ele>207.6</ele>
        <time>2024-05-04T08:40:37Z</time>
      </trkpt>
      <trkpt lat="50.09181" lon="4.13573">
        <ele>207.8</ele>
        <time>2024-05-04T08:40:38Z</time>
      </trkpt>
      <trkpt lat="50.09188" lon="4.1358">
        <ele>207.8</ele>
        <time>2024-05-04T08:40:39Z</time>
      </trkpt>
      <trkpt lat="50.09195" lon="4.13587">
        <ele>207.8</ele>
        <time>2024-05-04T08:40:40Z</time>
      </trkpt>
      <trkpt lat="50.09202" lon="4.13594">
        <ele>207.8</ele>
        <time>2024-05-04T08:40:41Z</time>
      </trkpt>
      <trkpt lat="50.09209" lon="4.13601">
        <ele>207.8</ele>
        <time>2024-05-04T08:40:42Z</time>
      </trkpt>
      <trkpt lat="50.09216" lon="4.13609">
        <ele>208</ele>
        <time>2024-05-04T08:40:43Z</time>
      </trkpt>
      <trkpt lat="50.09223" lon="4.13616">
        <ele>207.8</ele>
        <time>2024-05-04T08:40:44Z</time>
      </trkpt>
      <trkpt lat="50.0923" lon="4.13624">
        <ele>207.8</ele>
        <time>2024-05-04T08:40:45Z</time>
      </trkpt>
      <trkpt lat="50.09237" lon="4.13632">
        <ele>207.8</ele>
        <time>2024-05-04T08:40:46Z</time>
      </trkpt>
      <trkpt lat="50.09244" lon="4.1364">
        <ele>207.6</ele>
        <time>2024-05-04T08:40:47Z</time>
      </trkpt>
      <trkpt lat="50.09251" lon="4.13649">
        <ele>207.6</ele>
        <time>2024-05-04T08:40:48Z</time>
      </trkpt>
      <trkpt lat="50.09258" lon="4.13658">
        <ele>207.8</ele>
        <time>2024-05-04T08:40:49Z</time>
      </trkpt>
      <trkpt lat="50.09266" lon="4.13667">
        <ele>207.8</ele>
        <time>2024-05-04T08:40:50Z</time>
      </trkpt>
      <trkpt lat="50.09274" lon="4.13676">
        <ele>207.6</ele>
        <time>2024-05-04T08:40:51Z</time>
      </trkpt>
      <trkpt lat="50.09282" lon="4.13685">
        <ele>207.4</ele>
        <time>2024-05-04T08:40:52Z</time>
      </trkpt>
      <trkpt lat="50.0929" lon="4.13694">
        <ele>207</ele>
        <time>2024-05-04T08:40:53Z</time>
      </trkpt>
      <trkpt lat="50.09298" lon="4.13703">
        <ele>206.2</ele>
        <time>2024-05-04T08:40:54Z</time>
      </trkpt>
      <trkpt lat="50.09307" lon="4.13713">
        <ele>205.8</ele>
        <time>2024-05-04T08:40:55Z</time>
      </trkpt>
      <trkpt lat="50.09315" lon="4.13723">
        <ele>205.6</ele>
        <time>2024-05-04T08:40:56Z</time>
      </trkpt>
      <trkpt lat="50.09324" lon="4.13733">
        <ele>205.2</ele>
        <time>2024-05-04T08:40:57Z</time>
      </trkpt>
      <trkpt lat="50.09332" lon="4.13742">
        <ele>205.2</ele>
        <time>2024-05-04T08:40:58Z</time>
      </trkpt>
      <trkpt lat="50.09341" lon="4.13753">
        <ele>204.8</ele>
        <time>2024-05-04T08:40:59Z</time>
      </trkpt>
      <trkpt lat="50.0935" lon="4.13763">
        <ele>204</ele>
        <time>2024-05-04T08:41:00Z</time>
      </trkpt>
      <trkpt lat="50.09359" lon="4.13773">
        <ele>202.8</ele>
        <time>2024-05-04T08:41:01Z</time>
      </trkpt>
      <trkpt lat="50.09368" lon="4.13784">
        <ele>202</ele>
        <time>2024-05-04T08:41:02Z</time>
      </trkpt>
      <trkpt lat="50.09377" lon="4.13794">
        <ele>201.6</ele>
        <time>2024-05-04T08:41:03Z</time>
      </trkpt>
      <trkpt lat="50.09387" lon="4.13805">
        <ele>201</ele>
        <time>2024-05-04T08:41:04Z</time>
      </trkpt>
      <trkpt lat="50.09395" lon="4.13815">
        <ele>200.2</ele>
        <time>2024-05-04T08:41:05Z</time>
      </trkpt>
      <trkpt lat="50.09404" lon="4.13824">
        <ele>199.8</ele>
        <time>2024-05-04T08:41:06Z</time>
      </trkpt>
      <trkpt lat="50.09413" lon="4.13834">
        <ele>199.4</ele>
        <time>2024-05-04T08:41:07Z</time>
      </trkpt>
      <trkpt lat="50.09422" lon="4.13844">
        <ele>198.6</ele>
        <time>2024-05-04T08:41:08Z</time>
      </trkpt>
      <trkpt lat="50.09431" lon="4.13854">
        <ele>198.4</ele>
        <time>2024-05-04T08:41:09Z</time>
      </trkpt>
      <trkpt lat="50.09439" lon="4.13865">
        <ele>198.2</ele>
        <time>2024-05-04T08:41:10Z</time>
      </trkpt>
      <trkpt lat="50.09448" lon="4.13875">
        <ele>197.6</ele>
        <time>2024-05-04T08:41:11Z</time>
      </trkpt>
      <trkpt lat="50.09457" lon="4.13884">
        <ele>197.2</ele>
        <time>2024-05-04T08:41:12Z</time>
      </trkpt>
      <trkpt lat="50.09466" lon="4.13894">
        <ele>197</ele>
        <time>2024-05-04T08:41:13Z</time>
      </trkpt>
      <trkpt lat="50.09475" lon="4.13905">
        <ele>196.8</ele>
        <time>2024-05-04T08:41:14Z</time>
      </trkpt>
      <trkpt lat="50.09483" lon="4.13915">
        <ele>196.6</ele>
        <time>2024-05-04T08:41:15Z</time>
      </trkpt>
      <trkpt lat="50.09492" lon="4.13925">
        <ele>196.2</ele>
        <time>2024-05-04T08:41:16Z</time>
      </trkpt>
      <trkpt lat="50.09501" lon="4.13935">
        <ele>196.2</ele>
        <time>2024-05-04T08:41:17Z</time>
      </trkpt>
      <trkpt lat="50.0951" lon="4.13945">
        <ele>196.2</ele>
        <time>2024-05-04T08:41:18Z</time>
      </trkpt>
      <trkpt lat="50.09519" lon="4.13955">
        <ele>195.8</ele>
        <time>2024-05-04T08:41:19Z</time>
      </trkpt>
      <trkpt lat="50.09528" lon="4.13965">
        <ele>195.4</ele>
        <time>2024-05-04T08:41:20Z</time>
      </trkpt>
      <trkpt lat="50.09537" lon="4.13975">
        <ele>195.4</ele>
        <time>2024-05-04T08:41:21Z</time>
      </trkpt>
      <trkpt lat="50.09546" lon="4.13986">
        <ele>195.2</ele>
        <time>2024-05-04T08:41:22Z</time>
      </trkpt>
      <trkpt lat="50.09555" lon="4.13996">
        <ele>194.8</ele>
        <time>2024-05-04T08:41:23Z</time>
      </trkpt>
      <trkpt lat="50.09564" lon="4.14006">
        <ele>194.6</ele>
        <time>2024-05-04T08:41:24Z</time>
      </trkpt>
      <trkpt lat="50.09572" lon="4.14016">
        <ele>194</ele>
        <time>2024-05-04T08:41:25Z</time>
      </trkpt>
      <trkpt lat="50.09581" lon="4.14026">
        <ele>193.8</ele>
        <time>2024-05-04T08:41:26Z</time>
      </trkpt>
      <trkpt lat="50.09589" lon="4.14036">
        <ele>193.6</ele>
        <time>2024-05-04T08:41:27Z</time>
      </trkpt>
      <trkpt lat="50.09597" lon="4.14046">
        <ele>193.2</ele>
        <time>2024-05-04T08:41:28Z</time>
      </trkpt>
      <trkpt lat="50.09605" lon="4.14056">
        <ele>193</ele>
        <time>2024-05-04T08:41:29Z</time>
      </trkpt>
      <trkpt lat="50.09613" lon="4.14066">
        <ele>193</ele>
        <time>2024-05-04T08:41:30Z</time>
      </trkpt>
      <trkpt lat="50.0962" lon="4.14075">
        <ele>193</ele>
        <time>2024-05-04T08:41:31Z</time>
      </trkpt>
      <trkpt lat="50.09627" lon="4.14084">
        <ele>192.8</ele>
        <time>2024-05-04T08:41:32Z</time>
      </trkpt>
      <trkpt lat="50.09633" lon="4.14092">
        <ele>192.8</ele>
        <time>2024-05-04T08:41:33Z</time>
      </trkpt>
      <trkpt lat="50.0964" lon="4.141">
        <ele>192.6</ele>
        <time>2024-05-04T08:41:34Z</time>
      </trkpt>
      <trkpt lat="50.09646" lon="4.14108">
        <ele>192.6</ele>
        <time>2024-05-04T08:41:35Z</time>
      </trkpt>
      <trkpt lat="50.09652" lon="4.14116">
        <ele>192.6</ele>
        <time>2024-05-04T08:41:36Z</time>
      </trkpt>
      <trkpt lat="50.09658" lon="4.14123">
        <ele>192.6</ele>
        <time>2024-05-04T08:41:37Z</time>
      </trkpt>
      <trkpt lat="50.09664" lon="4.1413">
        <ele>192.8</ele>
        <time>2024-05-04T08:41:38Z</time>
      </trkpt>
      <trkpt lat="50.09669" lon="4.14137">
        <ele>192.6</ele>
        <time>2024-05-04T08:41:39Z</time>
      </trkpt>
      <trkpt lat="50.09675" lon="4.14144">
        <ele>192.6</ele>
        <time>2024-05-04T08:41:40Z</time>
      </trkpt>
      <trkpt lat="50.0968" lon="4.14151">
        <ele>192.6</ele>
        <time>2024-05-04T08:41:41Z</time>
      </trkpt>
      <trkpt lat="50.09686" lon="4.14157">
        <ele>192.6</ele>
        <time>2024-05-04T08:41:42Z</time>
      </trkpt>
      <trkpt lat="50.09691" lon="4.14164">
        <ele>192.8</ele>
        <time>2024-05-04T08:41:43Z</time>
      </trkpt>
      <trkpt lat="50.09696" lon="4.14171">
        <ele>192.8</ele>
        <time>2024-05-04T08:41:44Z</time>
      </trkpt>
      <trkpt lat="50.09702" lon="4.14178">
        <ele>192.8</ele>
        <time>2024-05-04T08:41:45Z</time>
      </trkpt>
      <trkpt lat="50.09707" lon="4.14185">
        <ele>193.2</ele>
        <time>2024-05-04T08:41:46Z</time>
      </trkpt>
      <trkpt lat="50.09713" lon="4.14193">
        <ele>193.8</ele>
        <time>2024-05-04T08:41:47Z</time>
      </trkpt>
      <trkpt lat="50.09719" lon="4.142">
        <ele>194.6</ele>
        <time>2024-05-04T08:41:48Z</time>
      </trkpt>
      <trkpt lat="50.09724" lon="4.14207">
        <ele>195</ele>
        <time>2024-05-04T08:41:49Z</time>
      </trkpt>
      <trkpt lat="50.0973" lon="4.14215">
        <ele>195.2</ele>
        <time>2024-05-04T08:41:50Z</time>
      </trkpt>
      <trkpt lat="50.09736" lon="4.14222">
        <ele>195.2</ele>
        <time>2024-05-04T08:41:51Z</time>
      </trkpt>
      <trkpt lat="50.09741" lon="4.14229">
        <ele>195.4</ele>
        <time>2024-05-04T08:41:52Z</time>
      </trkpt>
      <trkpt lat="50.09747" lon="4.14236">
        <ele>195.4</ele>
        <time>2024-05-04T08:41:53Z</time>
      </trkpt>
      <trkpt lat="50.09753" lon="4.14244">
        <ele>195.2</ele>
        <time>2024-05-04T08:41:54Z</time>
      </trkpt>
      <trkpt lat="50.09758" lon="4.14251">
        <ele>195.4</ele>
        <time>2024-05-04T08:41:55Z</time>
      </trkpt>
      <trkpt lat="50.09764" lon="4.14259">
        <ele>195.2</ele>
        <time>2024-05-04T08:41:56Z</time>
      </trkpt>
      <trkpt lat="50.0977" lon="4.14267">
        <ele>195.6</ele>
        <time>2024-05-04T08:41:57Z</time>
      </trkpt>
      <trkpt lat="50.09776" lon="4.14274">
        <ele>195.6</ele>
        <time>2024-05-04T08:41:58Z</time>
      </trkpt>
      <trkpt lat="50.09782" lon="4.14282">
        <ele>195.6</ele>
        <time>2024-05-04T08:41:59Z</time>
      </trkpt>
      <trkpt lat="50.09788" lon="4.1429">
        <ele>195.6</ele>
        <time>2024-05-04T08:42:00Z</time>
      </trkpt>
      <trkpt lat="50.09794" lon="4.14298">
        <ele>195.6</ele>
        <time>2024-05-04T08:42:01Z</time>
      </trkpt>
      <trkpt lat="50.09801" lon="4.14306">
        <ele>195.6</ele>
        <time>2024-05-04T08:42:02Z</time>
      </trkpt>
      <trkpt lat="50.09807" lon="4.14314">
        <ele>195.6</ele>
        <time>2024-05-04T08:42:03Z</time>
      </trkpt>
      <trkpt lat="50.09813" lon="4.14322">
        <ele>195.6</ele>
        <time>2024-05-04T08:42:04Z</time>
      </trkpt>
      <trkpt lat="50.09819" lon="4.1433">
        <ele>195.6</ele>
        <time>2024-05-04T08:42:05Z</time>
      </trkpt>
      <trkpt lat="50.09826" lon="4.14338">
        <ele>195.6</ele>
        <time>2024-05-04T08:42:06Z</time>
      </trkpt>
      <trkpt lat="50.09833" lon="4.14346">
        <ele>195.6</ele>
        <time>2024-05-04T08:42:07Z</time>
      </trkpt>
      <trkpt lat="50.0984" lon="4.14355">
        <ele>195.4</ele>
        <time>2024-05-04T08:42:08Z</time>
      </trkpt>
      <trkpt lat="50.09847" lon="4.14364">
        <ele>195.4</ele>
        <time>2024-05-04T08:42:09Z</time>
      </trkpt>
      <trkpt lat="50.09854" lon="4.14372">
        <ele>195.4</ele>
        <time>2024-05-04T08:42:10Z</time>
      </trkpt>
      <trkpt lat="50.09861" lon="4.1438">
        <ele>195.6</ele>
        <time>2024-05-04T08:42:11Z</time>
      </trkpt>
      <trkpt lat="50.09868" lon="4.14389">
        <ele>195.6</ele>
        <time>2024-05-04T08:42:12Z</time>
      </trkpt>
      <trkpt lat="50.09875" lon="4.14398">
        <ele>195.4</ele>
        <time>2024-05-04T08:42:13Z</time>
      </trkpt>
      <trkpt lat="50.09882" lon="4.14407">
        <ele>195</ele>
        <time>2024-05-04T08:42:14Z</time>
      </trkpt>
      <trkpt lat="50.0989" lon="4.14416">
        <ele>194.8</ele>
        <time>2024-05-04T08:42:15Z</time>
      </trkpt>
      <trkpt lat="50.09897" lon="4.14425">
        <ele>194.6</ele>
        <time>2024-05-04T08:42:16Z</time>
      </trkpt>
      <trkpt lat="50.09904" lon="4.14434">
        <ele>194.6</ele>
        <time>2024-05-04T08:42:17Z</time>
      </trkpt>
      <trkpt lat="50.09911" lon="4.14444">
        <ele>194.2</ele>
        <time>2024-05-04T08:42:18Z</time>
      </trkpt>
      <trkpt lat="50.09918" lon="4.14453">
        <ele>194.2</ele>
        <time>2024-05-04T08:42:19Z</time>
      </trkpt>
      <trkpt lat="50.09925" lon="4.14462">
        <ele>194.2</ele>
        <time>2024-05-04T08:42:20Z</time>
      </trkpt>
      <trkpt lat="50.09932" lon="4.14471">
        <ele>194</ele>
        <time>2024-05-04T08:42:21Z</time>
      </trkpt>
      <trkpt lat="50.09939" lon="4.1448">
        <ele>193.8</ele>
        <time>2024-05-04T08:42:22Z</time>
      </trkpt>
      <trkpt lat="50.09947" lon="4.14489">
        <ele>193.2</ele>
        <time>2024-05-04T08:42:23Z</time>
      </trkpt>
      <trkpt lat="50.09954" lon="4.14498">
        <ele>193</ele>
        <time>2024-05-04T08:42:24Z</time>
      </trkpt>
      <trkpt lat="50.09961" lon="4.14507">
        <ele>193</ele>
        <time>2024-05-04T08:42:25Z</time>
      </trkpt>
      <trkpt lat="50.09969" lon="4.14517">
        <ele>192.4</ele>
        <time>2024-05-04T08:42:26Z</time>
      </trkpt>
      <trkpt lat="50.09977" lon="4.14526">
        <ele>191.8</ele>
        <time>2024-05-04T08:42:27Z</time>
      </trkpt>
      <trkpt lat="50.09984" lon="4.14536">
        <ele>191.6</ele>
        <time>2024-05-04T08:42:28Z</time>
      </trkpt>
      <trkpt lat="50.09992" lon="4.14546">
        <ele>191.4</ele>
        <time>2024-05-04T08:42:29Z</time>
      </trkpt>
      <trkpt lat="50.1" lon="4.14556">
        <ele>191</ele>
        <time>2024-05-04T08:42:30Z</time>
      </trkpt>
      <trkpt lat="50.10008" lon="4.14566">
        <ele>190.8</ele>
        <time>2024-05-04T08:42:31Z</time>
      </trkpt>
      <trkpt lat="50.10016" lon="4.14577">
        <ele>190.4</ele>
        <time>2024-05-04T08:42:32Z</time>
      </trkpt>
      <trkpt lat="50.10024" lon="4.14588">
        <ele>190</ele>
        <time>2024-05-04T08:42:33Z</time>
      </trkpt>
      <trkpt lat="50.10031" lon="4.14599">
        <ele>189.2</ele>
        <time>2024-05-04T08:42:34Z</time>
      </trkpt>
      <trkpt lat="50.10039" lon="4.14611">
        <ele>188.6</ele>
        <time>2024-05-04T08:42:35Z</time>
      </trkpt>
      <trkpt lat="50.10046" lon="4.14624">
        <ele>187.8</ele>
        <time>2024-05-04T08:42:36Z</time>
      </trkpt>
      <trkpt lat="50.10053" lon="4.14637">
        <ele>187.2</ele>
        <time>2024-05-04T08:42:37Z</time>
      </trkpt>
      <trkpt lat="50.10059" lon="4.1465">
        <ele>186.2</ele>
        <time>2024-05-04T08:42:38Z</time>
      </trkpt>
      <trkpt lat="50.10064" lon="4.14664">
        <ele>185.6</ele>
        <time>2024-05-04T08:42:39Z</time>
      </trkpt>
      <trkpt lat="50.1007" lon="4.14677">
        <ele>185.6</ele>
        <time>2024-05-04T08:42:40Z</time>
      </trkpt>
      <trkpt lat="50.10075" lon="4.1469">
        <ele>185.4</ele>
        <time>2024-05-04T08:42:41Z</time>
      </trkpt>
      <trkpt lat="50.1008" lon="4.14703">
        <ele>184.6</ele>
        <time>2024-05-04T08:42:42Z</time>
      </trkpt>
      <trkpt lat="50.10086" lon="4.14717">
        <ele>183.4</ele>
        <time>2024-05-04T08:42:43Z</time>
      </trkpt>
      <trkpt lat="50.10092" lon="4.1473">
        <ele>182.2</ele>
        <time>2024-05-04T08:42:44Z</time>
      </trkpt>
      <trkpt lat="50.10098" lon="4.14744">
        <ele>180.8</ele>
        <time>2024-05-04T08:42:45Z</time>
      </trkpt>
      <trkpt lat="50.10104" lon="4.14757">
        <ele>180.2</ele>
        <time>2024-05-04T08:42:46Z</time>
      </trkpt>
      <trkpt lat="50.1011" lon="4.14771">
        <ele>179.8</ele>
        <time>2024-05-04T08:42:47Z</time>
      </trkpt>
      <trkpt lat="50.10115" lon="4.14784">
        <ele>179.6</ele>
        <time>2024-05-04T08:42:48Z</time>
      </trkpt>
      <trkpt lat="50.1012" lon="4.14797">
        <ele>179.4</ele>
        <time>2024-05-04T08:42:49Z</time>
      </trkpt>
      <trkpt lat="50.10125" lon="4.14811">
        <ele>179.4</ele>
        <time>2024-05-04T08:42:50Z</time>
      </trkpt>
      <trkpt lat="50.10129" lon="4.14823">
        <ele>179.4</ele>
        <time>2024-05-04T08:42:51Z</time>
      </trkpt>
      <trkpt lat="50.10133" lon="4.14836">
        <ele>179.4</ele>
        <time>2024-05-04T08:42:52Z</time>
      </trkpt>
      <trkpt lat="50.10137" lon="4.14848">
        <ele>179.4</ele>
        <time>2024-05-04T08:42:53Z</time>
      </trkpt>
      <trkpt lat="50.1014" lon="4.14859">
        <ele>179.4</ele>
        <time>2024-05-04T08:42:54Z</time>
      </trkpt>
      <trkpt lat="50.10144" lon="4.1487">
        <ele>179.4</ele>
        <time>2024-05-04T08:42:55Z</time>
      </trkpt>
      <trkpt lat="50.10147" lon="4.14881">
        <ele>179.4</ele>
        <time>2024-05-04T08:42:56Z</time>
      </trkpt>
      <trkpt lat="50.1015" lon="4.14891">
        <ele>179.4</ele>
        <time>2024-05-04T08:42:57Z</time>
      </trkpt>
      <trkpt lat="50.10152" lon="4.149">
        <ele>179.6</ele>
        <time>2024-05-04T08:42:58Z</time>
      </trkpt>
      <trkpt lat="50.10154" lon="4.14909">
        <ele>180.4</ele>
        <time>2024-05-04T08:42:59Z</time>
      </trkpt>
      <trkpt lat="50.10156" lon="4.14917">
        <ele>180.6</ele>
        <time>2024-05-04T08:43:00Z</time>
      </trkpt>
      <trkpt lat="50.10158" lon="4.14925">
        <ele>181.2</ele>
        <time>2024-05-04T08:43:01Z</time>
      </trkpt>
      <trkpt lat="50.1016" lon="4.14933">
        <ele>181.6</ele>
        <time>2024-05-04T08:43:02Z</time>
      </trkpt>
      <trkpt lat="50.10162" lon="4.14941">
        <ele>181.8</ele>
        <time>2024-05-04T08:43:03Z</time>
      </trkpt>
      <trkpt lat="50.10163" lon="4.14948">
        <ele>182.4</ele>
        <time>2024-05-04T08:43:04Z</time>
      </trkpt>
      <trkpt lat="50.10165" lon="4.14955">
        <ele>182.6</ele>
        <time>2024-05-04T08:43:05Z</time>
      </trkpt>
      <trkpt lat="50.10166" lon="4.14962">
        <ele>183</ele>
        <time>2024-05-04T08:43:06Z</time>
      </trkpt>
      <trkpt lat="50.10167" lon="4.14968">
        <ele>183.4</ele>
        <time>2024-05-04T08:43:07Z</time>
      </trkpt>
      <trkpt lat="50.10169" lon="4.14975">
        <ele>184</ele>
        <time>2024-05-04T08:43:08Z</time>
      </trkpt>
      <trkpt lat="50.1017" lon="4.14981">
        <ele>184.8</ele>
        <time>2024-05-04T08:43:09Z</time>
      </trkpt>
      <trkpt lat="50.10172" lon="4.14987">
        <ele>185.6</ele>
        <time>2024-05-04T08:43:10Z</time>
      </trkpt>
      <trkpt lat="50.10173" lon="4.14994">
        <ele>186.2</ele>
        <time>2024-05-04T08:43:11Z</time>
      </trkpt>
      <trkpt lat="50.10174" lon="4.15">
        <ele>186.8</ele>
        <time>2024-05-04T08:43:12Z</time>
      </trkpt>
      <trkpt lat="50.10175" lon="4.15006">
        <ele>187.6</ele>
        <time>2024-05-04T08:43:13Z</time>
      </trkpt>
      <trkpt lat="50.10176" lon="4.15012">
        <ele>188</ele>
        <time>2024-05-04T08:43:14Z</time>
      </trkpt>
      <trkpt lat="50.10177" lon="4.15019">
        <ele>188</ele>
        <time>2024-05-04T08:43:15Z</time>
      </trkpt>
      <trkpt lat="50.10178" lon="4.15025">
        <ele>188.2</ele>
        <time>2024-05-04T08:43:16Z</time>
      </trkpt>
      <trkpt lat="50.10179" lon="4.1503">
        <ele>188.8</ele>
        <time>2024-05-04T08:43:17Z</time>
      </trkpt>
      <trkpt lat="50.1018" lon="4.15036">
        <ele>189.4</ele>
        <time>2024-05-04T08:43:18Z</time>
      </trkpt>
      <trkpt lat="50.10182" lon="4.15042">
        <ele>189.8</ele>
        <time>2024-05-04T08:43:19Z</time>
      </trkpt>
      <trkpt lat="50.10183" lon="4.15047">
        <ele>190</ele>
        <time>2024-05-04T08:43:20Z</time>
      </trkpt>
      <trkpt lat="50.10184" lon="4.15052">
        <ele>190.4</ele>
        <time>2024-05-04T08:43:21Z</time>
      </trkpt>
      <trkpt lat="50.10185" lon="4.15057">
        <ele>190.8</ele>
        <time>2024-05-04T08:43:22Z</time>
      </trkpt>
      <trkpt lat="50.10186" lon="4.15063">
        <ele>191.2</ele>
        <time>2024-05-04T08:43:23Z</time>
      </trkpt>
      <trkpt lat="50.10187" lon="4.15068">
        <ele>191.2</ele>
        <time>2024-05-04T08:43:24Z</time>
      </trkpt>
      <trkpt lat="50.10188" lon="4.15073">
        <ele>191.8</ele>
        <time>2024-05-04T08:43:25Z</time>
      </trkpt>
      <trkpt lat="50.10189" lon="4.15078">
        <ele>192.2</ele>
        <time>2024-05-04T08:43:26Z</time>
      </trkpt>
      <trkpt lat="50.1019" lon="4.15084">
        <ele>192.4</ele>
        <time>2024-05-04T08:43:27Z</time>
      </trkpt>
      <trkpt lat="50.10191" lon="4.15089">
        <ele>192.8</ele>
        <time>2024-05-04T08:43:28Z</time>
      </trkpt>
      <trkpt lat="50.10192" lon="4.15095">
        <ele>193</ele>
        <time>2024-05-04T08:43:29Z</time>
      </trkpt>
      <trkpt lat="50.10192" lon="4.151">
        <ele>193.2</ele>
        <time>2024-05-04T08:43:30Z</time>
      </trkpt>
      <trkpt lat="50.10193" lon="4.15105">
        <ele>193.4</ele>
        <time>2024-05-04T08:43:31Z</time>
      </trkpt>
      <trkpt lat="50.10194" lon="4.1511">
        <ele>193.8</ele>
        <time>2024-05-04T08:43:32Z</time>
      </trkpt>
      <trkpt lat="50.10194" lon="4.15115">
        <ele>194.2</ele>
        <time>2024-05-04T08:43:33Z</time>
      </trkpt>
      <trkpt lat="50.10195" lon="4.15119">
        <ele>194.4</ele>
        <time>2024-05-04T08:43:34Z</time>
      </trkpt>
      <trkpt lat="50.10195" lon="4.15124">
        <ele>194.8</ele>
        <time>2024-05-04T08:43:35Z</time>
      </trkpt>
      <trkpt lat="50.10196" lon="4.1513">
        <ele>194.8</ele>
        <time>2024-05-04T08:43:36Z</time>
      </trkpt>
      <trkpt lat="50.10197" lon="4.15135">
        <ele>195</ele>
        <time>2024-05-04T08:43:37Z</time>
      </trkpt>
      <trkpt lat="50.10198" lon="4.1514">
        <ele>195.2</ele>
        <time>2024-05-04T08:43:38Z</time>
      </trkpt>
      <trkpt lat="50.10199" lon="4.15145">
        <ele>195.2</ele>
        <time>2024-05-04T08:43:39Z</time>
      </trkpt>
      <trkpt lat="50.102" lon="4.1515">
        <ele>195.6</ele>
        <time>2024-05-04T08:43:40Z</time>
      </trkpt>
      <trkpt lat="50.10201" lon="4.15156">
        <ele>195.6</ele>
        <time>2024-05-04T08:43:41Z</time>
      </trkpt>
      <trkpt lat="50.10202" lon="4.15162">
        <ele>195.6</ele>
        <time>2024-05-04T08:43:42Z</time>
      </trkpt>
      <trkpt lat="50.10204" lon="4.15167">
        <ele>195.6</ele>
        <time>2024-05-04T08:43:43Z</time>
      </trkpt>
      <trkpt lat="50.10205" lon="4.15173">
        <ele>195.8</ele>
        <time>2024-05-04T08:43:44Z</time>
      </trkpt>
      <trkpt lat="50.10205" lon="4.15178">
        <ele>195.8</ele>
        <time>2024-05-04T08:43:45Z</time>
      </trkpt>
      <trkpt lat="50.10206" lon="4.15183">
        <ele>196</ele>
        <time>2024-05-04T08:43:46Z</time>
      </trkpt>
      <trkpt lat="50.10207" lon="4.15188">
        <ele>196.6</ele>
        <time>2024-05-04T08:43:47Z</time>
      </trkpt>
      <trkpt lat="50.10208" lon="4.15194">
        <ele>196.8</ele>
        <time>2024-05-04T08:43:48Z</time>
      </trkpt>
      <trkpt lat="50.10209" lon="4.15199">
        <ele>197</ele>
        <time>2024-05-04T08:43:49Z</time>
      </trkpt>
      <trkpt lat="50.1021" lon="4.15205">
        <ele>197.2</ele>
        <time>2024-05-04T08:43:50Z</time>
      </trkpt>
      <trkpt lat="50.10211" lon="4.1521">
        <ele>197.2</ele>
        <time>2024-05-04T08:43:51Z</time>
      </trkpt>
      <trkpt lat="50.10212" lon="4.15215">
        <ele>197.2</ele>
        <time>2024-05-04T08:43:52Z</time>
      </trkpt>
      <trkpt lat="50.10213" lon="4.15221">
        <ele>197.4</ele>
        <time>2024-05-04T08:43:53Z</time>
      </trkpt>
      <trkpt lat="50.10214" lon="4.15227">
        <ele>197.4</ele>
        <time>2024-05-04T08:43:54Z</time>
      </trkpt>
      <trkpt lat="50.10216" lon="4.15232">
        <ele>197.6</ele>
        <time>2024-05-04T08:43:55Z</time>
      </trkpt>
      <trkpt lat="50.10217" lon="4.15237">
        <ele>197.6</ele>
        <time>2024-05-04T08:43:56Z</time>
      </trkpt>
      <trkpt lat="50.10218" lon="4.15243">
        <ele>197.8</ele>
        <time>2024-05-04T08:43:57Z</time>
      </trkpt>
      <trkpt lat="50.1022" lon="4.15248">
        <ele>198.4</ele>
        <time>2024-05-04T08:43:58Z</time>
      </trkpt>
      <trkpt lat="50.1022" lon="4.15253">
        <ele>198.8</ele>
        <time>2024-05-04T08:43:59Z</time>
      </trkpt>
      <trkpt lat="50.10222" lon="4.15259">
        <ele>199.2</ele>
        <time>2024-05-04T08:44:00Z</time>
      </trkpt>
      <trkpt lat="50.10224" lon="4.15265">
        <ele>199.6</ele>
        <time>2024-05-04T08:44:01Z</time>
      </trkpt>
      <trkpt lat="50.10225" lon="4.15271">
        <ele>199.8</ele>
        <time>2024-05-04T08:44:02Z</time>
      </trkpt>
      <trkpt lat="50.10226" lon="4.15276">
        <ele>200</ele>
        <time>2024-05-04T08:44:03Z</time>
      </trkpt>
      <trkpt lat="50.10228" lon="4.15282">
        <ele>200.4</ele>
        <time>2024-05-04T08:44:04Z</time>
      </trkpt>
      <trkpt lat="50.10229" lon="4.15287">
        <ele>201.2</ele>
        <time>2024-05-04T08:44:05Z</time>
      </trkpt>
      <trkpt lat="50.10231" lon="4.15293">
        <ele>201.4</ele>
        <time>2024-05-04T08:44:06Z</time>
      </trkpt>
      <trkpt lat="50.10232" lon="4.15298">
        <ele>201.6</ele>
        <time>2024-05-04T08:44:07Z</time>
      </trkpt>
      <trkpt lat="50.10234" lon="4.15303">
        <ele>201.6</ele>
        <time>2024-05-04T08:44:08Z</time>
      </trkpt>
      <trkpt lat="50.10235" lon="4.15309">
        <ele>201.8</ele>
        <time>2024-05-04T08:44:09Z</time>
      </trkpt>
      <trkpt lat="50.10236" lon="4.15314">
        <ele>202.2</ele>
        <time>2024-05-04T08:44:10Z</time>
      </trkpt>
      <trkpt lat="50.10237" lon="4.15319">
        <ele>202.4</ele>
        <time>2024-05-04T08:44:11Z</time>
      </trkpt>
      <trkpt lat="50.10239" lon="4.15325">
        <ele>202.6</ele>
        <time>2024-05-04T08:44:12Z</time>
      </trkpt>
      <trkpt lat="50.10241" lon="4.1533">
        <ele>202.8</ele>
        <time>2024-05-04T08:44:13Z</time>
      </trkpt>
      <trkpt lat="50.10242" lon="4.15334">
        <ele>203</ele>
        <time>2024-05-04T08:44:14Z</time>
      </trkpt>
      <trkpt lat="50.10244" lon="4.1534">
        <ele>203.2</ele>
        <time>2024-05-04T08:44:15Z</time>
      </trkpt>
      <trkpt lat="50.10246" lon="4.15345">
        <ele>203.4</ele>
        <time>2024-05-04T08:44:16Z</time>
      </trkpt>
      <trkpt lat="50.10248" lon="4.1535">
        <ele>203.6</ele>
        <time>2024-05-04T08:44:17Z</time>
      </trkpt>
      <trkpt lat="50.1025" lon="4.15354">
        <ele>204</ele>
        <time>2024-05-04T08:44:18Z</time>
      </trkpt>
      <trkpt lat="50.10252" lon="4.15359">
        <ele>204.2</ele>
        <time>2024-05-04T08:44:19Z</time>
      </trkpt>
      <trkpt lat="50.10254" lon="4.15363">
        <ele>204.4</ele>
        <time>2024-05-04T08:44:20Z</time>
      </trkpt>
      <trkpt lat="50.10256" lon="4.15368">
        <ele>205</ele>
        <time>2024-05-04T08:44:21Z</time>
      </trkpt>
      <trkpt lat="50.10259" lon="4.15372">
        <ele>205.2</ele>
        <time>2024-05-04T08:44:22Z</time>
      </trkpt>
      <trkpt lat="50.10261" lon="4.15376">
        <ele>205.4</ele>
        <time>2024-05-04T08:44:23Z</time>
      </trkpt>
      <trkpt lat="50.10263" lon="4.1538">
        <ele>205.4</ele>
        <time>2024-05-04T08:44:24Z</time>
      </trkpt>
      <trkpt lat="50.10265" lon="4.15385">
        <ele>205.8</ele>
        <time>2024-05-04T08:44:25Z</time>
      </trkpt>
      <trkpt lat="50.10268" lon="4.15389">
        <ele>206</ele>
        <time>2024-05-04T08:44:26Z</time>
      </trkpt>
      <trkpt lat="50.1027" lon="4.15393">
        <ele>206.2</ele>
        <time>2024-05-04T08:44:27Z</time>
      </trkpt>
      <trkpt lat="50.10272" lon="4.15397">
        <ele>206.8</ele>
        <time>2024-05-04T08:44:28Z</time>
      </trkpt>
      <trkpt lat="50.10274" lon="4.154">
        <ele>207</ele>
        <time>2024-05-04T08:44:29Z</time>
      </trkpt>
      <trkpt lat="50.10276" lon="4.15404">
        <ele>207.2</ele>
        <time>2024-05-04T08:44:30Z</time>
      </trkpt>
      <trkpt lat="50.10278" lon="4.15407">
        <ele>207.2</ele>
        <time>2024-05-04T08:44:31Z</time>
      </trkpt>
      <trkpt lat="50.10281" lon="4.15411">
        <ele>207.6</ele>
        <time>2024-05-04T08:44:32Z</time>
      </trkpt>
      <trkpt lat="50.10283" lon="4.15415">
        <ele>207.8</ele>
        <time>2024-05-04T08:44:33Z</time>
      </trkpt>
      <trkpt lat="50.10285" lon="4.15418">
        <ele>208</ele>
        <time>2024-05-04T08:44:34Z</time>
      </trkpt>
      <trkpt lat="50.10287" lon="4.15422">
        <ele>208.4</ele>
        <time>2024-05-04T08:44:35Z</time>
      </trkpt>
      <trkpt lat="50.10289" lon="4.15425">
        <ele>208.8</ele>
        <time>2024-05-04T08:44:36Z</time>
      </trkpt>
      <trkpt lat="50.10291" lon="4.15428">
        <ele>208.8</ele>
        <time>2024-05-04T08:44:37Z</time>
      </trkpt>
      <trkpt lat="50.10293" lon="4.15432">
        <ele>209.2</ele>
        <time>2024-05-04T08:44:38Z</time>
      </trkpt>
      <trkpt lat="50.10295" lon="4.15435">
        <ele>209.2</ele>
        <time>2024-05-04T08:44:39Z</time>
      </trkpt>
      <trkpt lat="50.10297" lon="4.15439">
        <ele>209.6</ele>
        <time>2024-05-04T08:44:40Z</time>
      </trkpt>
      <trkpt lat="50.10299" lon="4.15442">
        <ele>209.6</ele>
        <time>2024-05-04T08:44:41Z</time>
      </trkpt>
      <trkpt lat="50.10301" lon="4.15446">
        <ele>209.6</ele>
        <time>2024-05-04T08:44:42Z</time>
      </trkpt>
      <trkpt lat="50.10303" lon="4.15449">
        <ele>209.8</ele>
        <time>2024-05-04T08:44:43Z</time>
      </trkpt>
      <trkpt lat="50.10305" lon="4.15452">
        <ele>209.8</ele>
        <time>2024-05-04T08:44:44Z</time>
      </trkpt>
      <trkpt lat="50.10306" lon="4.15455">
        <ele>210</ele>
        <time>2024-05-04T08:44:45Z</time>
      </trkpt>
      <trkpt lat="50.10308" lon="4.15458">
        <ele>210.2</ele>
        <time>2024-05-04T08:44:46Z</time>
      </trkpt>
      <trkpt lat="50.10309" lon="4.15461">
        <ele>210.4</ele>
        <time>2024-05-04T08:44:47Z</time>
      </trkpt>
      <trkpt lat="50.10311" lon="4.15464">
        <ele>210.4</ele>
        <time>2024-05-04T08:44:48Z</time>
      </trkpt>
      <trkpt lat="50.10313" lon="4.15467">
        <ele>211.2</ele>
        <time>2024-05-04T08:44:49Z</time>
      </trkpt>
      <trkpt lat="50.10315" lon="4.1547">
        <ele>211.6</ele>
        <time>2024-05-04T08:44:50Z</time>
      </trkpt>
      <trkpt lat="50.10317" lon="4.15473">
        <ele>211.8</ele>
        <time>2024-05-04T08:44:51Z</time>
      </trkpt>
      <trkpt lat="50.10319" lon="4.15476">
        <ele>212.2</ele>
        <time>2024-05-04T08:44:52Z</time>
      </trkpt>
      <trkpt lat="50.10321" lon="4.15479">
        <ele>212.6</ele>
        <time>2024-05-04T08:44:53Z</time>
      </trkpt>
      <trkpt lat="50.10323" lon="4.15483">
        <ele>212.8</ele>
        <time>2024-05-04T08:44:54Z</time>
      </trkpt>
      <trkpt lat="50.10325" lon="4.15486">
        <ele>213</ele>
        <time>2024-05-04T08:44:55Z</time>
      </trkpt>
      <trkpt lat="50.10327" lon="4.15489">
        <ele>213</ele>
        <time>2024-05-04T08:44:56Z</time>
      </trkpt>
      <trkpt lat="50.10329" lon="4.15492">
        <ele>213.2</ele>
        <time>2024-05-04T08:44:57Z</time>
      </trkpt>
      <trkpt lat="50.10331" lon="4.15496">
        <ele>213.6</ele>
        <time>2024-05-04T08:44:58Z</time>
      </trkpt>
      <trkpt lat="50.10333" lon="4.15499">
        <ele>213.8</ele>
        <time>2024-05-04T08:44:59Z</time>
      </trkpt>
      <trkpt lat="50.10335" lon="4.15502">
        <ele>214</ele>
        <time>2024-05-04T08:45:00Z</time>
      </trkpt>
      <trkpt lat="50.10337" lon="4.15506">
        <ele>214</ele>
        <time>2024-05-04T08:45:01Z</time>
      </trkpt>
      <trkpt lat="50.10339" lon="4.15509">
        <ele>214.2</ele>
        <time>2024-05-04T08:45:02Z</time>
      </trkpt>
      <trkpt lat="50.10342" lon="4.15512">
        <ele>214.6</ele>
        <time>2024-05-04T08:45:03Z</time>
      </trkpt>
      <trkpt lat="50.10344" lon="4.15515">
        <ele>214.8</ele>
        <time>2024-05-04T08:45:04Z</time>
      </trkpt>
      <trkpt lat="50.10346" lon="4.15518">
        <ele>215</ele>
        <time>2024-05-04T08:45:05Z</time>
      </trkpt>
      <trkpt lat="50.10348" lon="4.15521">
        <ele>215.4</ele>
        <time>2024-05-04T08:45:06Z</time>
      </trkpt>
      <trkpt lat="50.10351" lon="4.15524">
        <ele>215.4</ele>
        <time>2024-05-04T08:45:07Z</time>
      </trkpt>
      <trkpt lat="50.10353" lon="4.15527">
        <ele>215.8</ele>
        <time>2024-05-04T08:45:08Z</time>
      </trkpt>
      <trkpt lat="50.10355" lon="4.1553">
        <ele>216.2</ele>
        <time>2024-05-04T08:45:09Z</time>
      </trkpt>
      <trkpt lat="50.10357" lon="4.15532">
        <ele>216.2</ele>
        <time>2024-05-04T08:45:10Z</time>
      </trkpt>
      <trkpt lat="50.1036" lon="4.15535">
        <ele>216.6</ele>
        <time>2024-05-04T08:45:11Z</time>
      </trkpt>
      <trkpt lat="50.10362" lon="4.15537">
        <ele>216.8</ele>
        <time>2024-05-04T08:45:12Z</time>
      </trkpt>
      <trkpt lat="50.10364" lon="4.1554">
        <ele>216.8</ele>
        <time>2024-05-04T08:45:13Z</time>
      </trkpt>
      <trkpt lat="50.10367" lon="4.15542">
        <ele>217</ele>
        <time>2024-05-04T08:45:14Z</time>
      </trkpt>
      <trkpt lat="50.10369" lon="4.15544">
        <ele>217.2</ele>
        <time>2024-05-04T08:45:15Z</time>
      </trkpt>
      <trkpt lat="50.10372" lon="4.15547">
        <ele>217.4</ele>
        <time>2024-05-04T08:45:16Z</time>
      </trkpt>
      <trkpt lat="50.10374" lon="4.15549">
        <ele>217.6</ele>
        <time>2024-05-04T08:45:17Z</time>
      </trkpt>
      <trkpt lat="50.10377" lon="4.15552">
        <ele>218</ele>
        <time>2024-05-04T08:45:18Z</time>
      </trkpt>
      <trkpt lat="50.1038" lon="4.15554">
        <ele>218.4</ele>
        <time>2024-05-04T08:45:19Z</time>
      </trkpt>
      <trkpt lat="50.10382" lon="4.15556">
        <ele>218.6</ele>
        <time>2024-05-04T08:45:20Z</time>
      </trkpt>
      <trkpt lat="50.10385" lon="4.15558">
        <ele>218.8</ele>
        <time>2024-05-04T08:45:21Z</time>
      </trkpt>
      <trkpt lat="50.10387" lon="4.1556">
        <ele>218.8</ele>
        <time>2024-05-04T08:45:22Z</time>
      </trkpt>
      <trkpt lat="50.10389" lon="4.15563">
        <ele>219.2</ele>
        <time>2024-05-04T08:45:23Z</time>
      </trkpt>
      <trkpt lat="50.10392" lon="4.15565">
        <ele>219.4</ele>
        <time>2024-05-04T08:45:24Z</time>
      </trkpt>
      <trkpt lat="50.10394" lon="4.15567">
        <ele>219.6</ele>
        <time>2024-05-04T08:45:25Z</time>
      </trkpt>
      <trkpt lat="50.10396" lon="4.15569">
        <ele>219.6</ele>
        <time>2024-05-04T08:45:26Z</time>
      </trkpt>
      <trkpt lat="50.10399" lon="4.15571">
        <ele>219.8</ele>
        <time>2024-05-04T08:45:27Z</time>
      </trkpt>
      <trkpt lat="50.10401" lon="4.15573">
        <ele>220</ele>
        <time>2024-05-04T08:45:28Z</time>
      </trkpt>
      <trkpt lat="50.10404" lon="4.15576">
        <ele>220</ele>
        <time>2024-05-04T08:45:29Z</time>
      </trkpt>
      <trkpt lat="50.10406" lon="4.15578">
        <ele>220.4</ele>
        <time>2024-05-04T08:45:30Z</time>
      </trkpt>
      <trkpt lat="50.10409" lon="4.1558">
        <ele>220.4</ele>
        <time>2024-05-04T08:45:31Z</time>
      </trkpt>
      <trkpt lat="50.10412" lon="4.15583">
        <ele>220.6</ele>
        <time>2024-05-04T08:45:32Z</time>
      </trkpt>
      <trkpt lat="50.10414" lon="4.15585">
        <ele>220.6</ele>
        <time>2024-05-04T08:45:33Z</time>
      </trkpt>
      <trkpt lat="50.10417" lon="4.15588">
        <ele>221</ele>
        <time>2024-05-04T08:45:34Z</time>
      </trkpt>
      <trkpt lat="50.1042" lon="4.1559">
        <ele>221.2</ele>
        <time>2024-05-04T08:45:35Z</time>
      </trkpt>
      <trkpt lat="50.10423" lon="4.15592">
        <ele>221.4</ele>
        <time>2024-05-04T08:45:36Z</time>
      </trkpt>
      <trkpt lat="50.10426" lon="4.15594">
        <ele>221.6</ele>
        <time>2024-05-04T08:45:37Z</time>
      </trkpt>
      <trkpt lat="50.10428" lon="4.15597">
        <ele>221.8</ele>
        <time>2024-05-04T08:45:38Z</time>
      </trkpt>
      <trkpt lat="50.10431" lon="4.15599">
        <ele>221.8</ele>
        <time>2024-05-04T08:45:39Z</time>
      </trkpt>
      <trkpt lat="50.10434" lon="4.15602">
        <ele>222</ele>
        <time>2024-05-04T08:45:40Z</time>
      </trkpt>
      <trkpt lat="50.10438" lon="4.15604">
        <ele>222.4</ele>
        <time>2024-05-04T08:45:41Z</time>
      </trkpt>
      <trkpt lat="50.10441" lon="4.15607">
        <ele>222.4</ele>
        <time>2024-05-04T08:45:42Z</time>
      </trkpt>
      <trkpt lat="50.10445" lon="4.1561">
        <ele>222.8</ele>
        <time>2024-05-04T08:45:43Z</time>
      </trkpt>
      <trkpt lat="50.10449" lon="4.15614">
        <ele>222.8</ele>
        <time>2024-05-04T08:45:44Z</time>
      </trkpt>
      <trkpt lat="50.10453" lon="4.15617">
        <ele>222.8</ele>
        <time>2024-05-04T08:45:45Z</time>
      </trkpt>
      <trkpt lat="50.10457" lon="4.15621">
        <ele>223</ele>
        <time>2024-05-04T08:45:46Z</time>
      </trkpt>
      <trkpt lat="50.10461" lon="4.15624">
        <ele>223</ele>
        <time>2024-05-04T08:45:47Z</time>
      </trkpt>
      <trkpt lat="50.10466" lon="4.15628">
        <ele>223</ele>
        <time>2024-05-04T08:45:48Z</time>
      </trkpt>
      <trkpt lat="50.1047" lon="4.15633">
        <ele>223.2</ele>
        <time>2024-05-04T08:45:49Z</time>
      </trkpt>
      <trkpt lat="50.10474" lon="4.15637">
        <ele>223.2</ele>
        <time>2024-05-04T08:45:50Z</time>
      </trkpt>
      <trkpt lat="50.10479" lon="4.15641">
        <ele>223.6</ele>
        <time>2024-05-04T08:45:51Z</time>
      </trkpt>
      <trkpt lat="50.10483" lon="4.15645">
        <ele>223.6</ele>
        <time>2024-05-04T08:45:52Z</time>
      </trkpt>
      <trkpt lat="50.10488" lon="4.15649">
        <ele>223.8</ele>
        <time>2024-05-04T08:45:53Z</time>
      </trkpt>
      <trkpt lat="50.10493" lon="4.15653">
        <ele>223.8</ele>
        <time>2024-05-04T08:45:54Z</time>
      </trkpt>
      <trkpt lat="50.10497" lon="4.15656">
        <ele>223.8</ele>
        <time>2024-05-04T08:45:55Z</time>
      </trkpt>
      <trkpt lat="50.10502" lon="4.1566">
        <ele>223.8</ele>
        <time>2024-05-04T08:45:56Z</time>
      </trkpt>
      <trkpt lat="50.10506" lon="4.15664">
        <ele>224</ele>
        <time>2024-05-04T08:45:57Z</time>
      </trkpt>
      <trkpt lat="50.10511" lon="4.15668">
        <ele>224</ele>
        <time>2024-05-04T08:45:58Z</time>
      </trkpt>
      <trkpt lat="50.10515" lon="4.15672">
        <ele>224.2</ele>
        <time>2024-05-04T08:45:59Z</time>
      </trkpt>
      <trkpt lat="50.1052" lon="4.15676">
        <ele>224.2</ele>
        <time>2024-05-04T08:46:00Z</time>
      </trkpt>
      <trkpt lat="50.10524" lon="4.1568">
        <ele>224.4</ele>
        <time>2024-05-04T08:46:01Z</time>
      </trkpt>
      <trkpt lat="50.10528" lon="4.15684">
        <ele>224.6</ele>
        <time>2024-05-04T08:46:02Z</time>
      </trkpt>
      <trkpt lat="50.10533" lon="4.15688">
        <ele>224.6</ele>
        <time>2024-05-04T08:46:03Z</time>
      </trkpt>
      <trkpt lat="50.10537" lon="4.15692">
        <ele>224.6</ele>
        <time>2024-05-04T08:46:04Z</time>
      </trkpt>
      <trkpt lat="50.10542" lon="4.15696">
        <ele>224.4</ele>
        <time>2024-05-04T08:46:05Z</time>
      </trkpt>
      <trkpt lat="50.10547" lon="4.157">
        <ele>224.6</ele>
        <time>2024-05-04T08:46:06Z</time>
      </trkpt>
      <trkpt lat="50.10551" lon="4.15703">
        <ele>224.6</ele>
        <time>2024-05-04T08:46:07Z</time>
      </trkpt>
      <trkpt lat="50.10556" lon="4.15708">
        <ele>224.6</ele>
        <time>2024-05-04T08:46:08Z</time>
      </trkpt>
      <trkpt lat="50.1056" lon="4.15711">
        <ele>224.8</ele>
        <time>2024-05-04T08:46:09Z</time>
      </trkpt>
      <trkpt lat="50.10564" lon="4.15716">
        <ele>224.8</ele>
        <time>2024-05-04T08:46:10Z</time>
      </trkpt>
      <trkpt lat="50.10569" lon="4.1572">
        <ele>225</ele>
        <time>2024-05-04T08:46:11Z</time>
      </trkpt>
      <trkpt lat="50.10573" lon="4.15724">
        <ele>225</ele>
        <time>2024-05-04T08:46:12Z</time>
      </trkpt>
      <trkpt lat="50.10578" lon="4.15727">
        <ele>225.2</ele>
        <time>2024-05-04T08:46:13Z</time>
      </trkpt>
      <trkpt lat="50.10582" lon="4.15731">
        <ele>225.6</ele>
        <time>2024-05-04T08:46:14Z</time>
      </trkpt>
      <trkpt lat="50.10587" lon="4.15736">
        <ele>225.8</ele>
        <time>2024-05-04T08:46:15Z</time>
      </trkpt>
      <trkpt lat="50.10591" lon="4.1574">
        <ele>226</ele>
        <time>2024-05-04T08:46:16Z</time>
      </trkpt>
      <trkpt lat="50.10596" lon="4.15744">
        <ele>226.4</ele>
        <time>2024-05-04T08:46:17Z</time>
      </trkpt>
      <trkpt lat="50.10601" lon="4.15749">
        <ele>226.4</ele>
        <time>2024-05-04T08:46:18Z</time>
      </trkpt>
      <trkpt lat="50.10605" lon="4.15753">
        <ele>226.4</ele>
        <time>2024-05-04T08:46:19Z</time>
      </trkpt>
      <trkpt lat="50.1061" lon="4.15757">
        <ele>226.6</ele>
        <time>2024-05-04T08:46:20Z</time>
      </trkpt>
      <trkpt lat="50.10614" lon="4.15761">
        <ele>226.6</ele>
        <time>2024-05-04T08:46:21Z</time>
      </trkpt>
      <trkpt lat="50.10618" lon="4.15765">
        <ele>226.8</ele>
        <time>2024-05-04T08:46:22Z</time>
      </trkpt>
      <trkpt lat="50.10623" lon="4.15769">
        <ele>226.8</ele>
        <time>2024-05-04T08:46:23Z</time>
      </trkpt>
      <trkpt lat="50.10627" lon="4.15773">
        <ele>227</ele>
        <time>2024-05-04T08:46:24Z</time>
      </trkpt>
      <trkpt lat="50.10631" lon="4.15777">
        <ele>227.4</ele>
        <time>2024-05-04T08:46:25Z</time>
      </trkpt>
      <trkpt lat="50.10636" lon="4.15781">
        <ele>227.8</ele>
        <time>2024-05-04T08:46:26Z</time>
      </trkpt>
      <trkpt lat="50.1064" lon="4.15784">
        <ele>228.2</ele>
        <time>2024-05-04T08:46:27Z</time>
      </trkpt>
      <trkpt lat="50.10645" lon="4.15788">
        <ele>228.4</ele>
        <time>2024-05-04T08:46:28Z</time>
      </trkpt>
      <trkpt lat="50.10649" lon="4.15792">
        <ele>228.8</ele>
        <time>2024-05-04T08:46:29Z</time>
      </trkpt>
      <trkpt lat="50.10653" lon="4.15795">
        <ele>229</ele>
        <time>2024-05-04T08:46:30Z</time>
      </trkpt>
      <trkpt lat="50.10658" lon="4.15799">
        <ele>229.6</ele>
        <time>2024-05-04T08:46:31Z</time>
      </trkpt>
      <trkpt lat="50.10662" lon="4.15802">
        <ele>229.8</ele>
        <time>2024-05-04T08:46:32Z</time>
      </trkpt>
      <trkpt lat="50.10666" lon="4.15806">
        <ele>229.8</ele>
        <time>2024-05-04T08:46:33Z</time>
      </trkpt>
      <trkpt lat="50.10671" lon="4.15811">
        <ele>230</ele>
        <time>2024-05-04T08:46:34Z</time>
      </trkpt>
      <trkpt lat="50.10675" lon="4.15815">
        <ele>230.2</ele>
        <time>2024-05-04T08:46:35Z</time>
      </trkpt>
      <trkpt lat="50.1068" lon="4.15819">
        <ele>230.6</ele>
        <time>2024-05-04T08:46:36Z</time>
      </trkpt>
      <trkpt lat="50.10685" lon="4.15822">
        <ele>230.6</ele>
        <time>2024-05-04T08:46:37Z</time>
      </trkpt>
      <trkpt lat="50.10689" lon="4.15826">
        <ele>231</ele>
        <time>2024-05-04T08:46:38Z</time>
      </trkpt>
      <trkpt lat="50.10693" lon="4.15831">
        <ele>231.4</ele>
        <time>2024-05-04T08:46:39Z</time>
      </trkpt>
      <trkpt lat="50.10698" lon="4.15835">
        <ele>231.4</ele>
        <time>2024-05-04T08:46:40Z</time>
      </trkpt>
      <trkpt lat="50.10703" lon="4.1584">
        <ele>231.8</ele>
        <time>2024-05-04T08:46:41Z</time>
      </trkpt>
      <trkpt lat="50.10708" lon="4.15844">
        <ele>232</ele>
        <time>2024-05-04T08:46:42Z</time>
      </trkpt>
      <trkpt lat="50.10712" lon="4.15848">
        <ele>232.2</ele>
        <time>2024-05-04T08:46:43Z</time>
      </trkpt>
      <trkpt lat="50.10716" lon="4.15853">
        <ele>232.6</ele>
        <time>2024-05-04T08:46:44Z</time>
      </trkpt>
      <trkpt lat="50.10721" lon="4.15857">
        <ele>232.6</ele>
        <time>2024-05-04T08:46:45Z</time>
      </trkpt>
      <trkpt lat="50.10725" lon="4.15862">
        <ele>232.8</ele>
        <time>2024-05-04T08:46:46Z</time>
      </trkpt>
      <trkpt lat="50.10729" lon="4.15866">
        <ele>232.8</ele>
        <time>2024-05-04T08:46:47Z</time>
      </trkpt>
      <trkpt lat="50.10734" lon="4.15871">
        <ele>233</ele>
        <time>2024-05-04T08:46:48Z</time>
      </trkpt>
      <trkpt lat="50.10738" lon="4.15876">
        <ele>233</ele>
        <time>2024-05-04T08:46:49Z</time>
      </trkpt>
      <trkpt lat="50.10743" lon="4.15881">
        <ele>233.4</ele>
        <time>2024-05-04T08:46:50Z</time>
      </trkpt>
      <trkpt lat="50.10747" lon="4.15886">
        <ele>234</ele>
        <time>2024-05-04T08:46:51Z</time>
      </trkpt>
      <trkpt lat="50.10751" lon="4.15892">
        <ele>234.6</ele>
        <time>2024-05-04T08:46:52Z</time>
      </trkpt>
      <trkpt lat="50.10756" lon="4.15898">
        <ele>234.6</ele>
        <time>2024-05-04T08:46:53Z</time>
      </trkpt>
      <trkpt lat="50.1076" lon="4.15904">
        <ele>235</ele>
        <time>2024-05-04T08:46:54Z</time>
      </trkpt>
      <trkpt lat="50.10764" lon="4.1591">
        <ele>235.4</ele>
        <time>2024-05-04T08:46:55Z</time>
      </trkpt>
      <trkpt lat="50.10768" lon="4.15916">
        <ele>235.4</ele>
        <time>2024-05-04T08:46:56Z</time>
      </trkpt>
      <trkpt lat="50.10772" lon="4.15922">
        <ele>235.8</ele>
        <time>2024-05-04T08:46:57Z</time>
      </trkpt>
      <trkpt lat="50.10776" lon="4.15928">
        <ele>235.8</ele>
        <time>2024-05-04T08:46:58Z</time>
      </trkpt>
      <trkpt lat="50.10781" lon="4.15934">
        <ele>236.4</ele>
        <time>2024-05-04T08:46:59Z</time>
      </trkpt>
      <trkpt lat="50.10785" lon="4.1594">
        <ele>236.6</ele>
        <time>2024-05-04T08:47:00Z</time>
      </trkpt>
      <trkpt lat="50.10789" lon="4.15946">
        <ele>236.8</ele>
        <time>2024-05-04T08:47:01Z</time>
      </trkpt>
      <trkpt lat="50.10793" lon="4.15952">
        <ele>237.2</ele>
        <time>2024-05-04T08:47:02Z</time>
      </trkpt>
      <trkpt lat="50.10797" lon="4.15959">
        <ele>237.2</ele>
        <time>2024-05-04T08:47:03Z</time>
      </trkpt>
      <trkpt lat="50.10801" lon="4.15966">
        <ele>237.2</ele>
        <time>2024-05-04T08:47:04Z</time>
      </trkpt>
      <trkpt lat="50.10805" lon="4.15973">
        <ele>237.2</ele>
        <time>2024-05-04T08:47:05Z</time>
      </trkpt>
      <trkpt lat="50.1081" lon="4.1598">
        <ele>237.2</ele>
        <time>2024-05-04T08:47:06Z</time>
      </trkpt>
      <trkpt lat="50.10814" lon="4.15987">
        <ele>237.4</ele>
        <time>2024-05-04T08:47:07Z</time>
      </trkpt>
      <trkpt lat="50.10819" lon="4.15995">
        <ele>237.4</ele>
        <time>2024-05-04T08:47:08Z</time>
      </trkpt>
      <trkpt lat="50.10823" lon="4.16002">
        <ele>237.4</ele>
        <time>2024-05-04T08:47:09Z</time>
      </trkpt>
      <trkpt lat="50.10828" lon="4.16009">
        <ele>237.6</ele>
        <time>2024-05-04T08:47:10Z</time>
      </trkpt>
      <trkpt lat="50.10834" lon="4.16017">
        <ele>237.6</ele>
        <time>2024-05-04T08:47:11Z</time>
      </trkpt>
      <trkpt lat="50.10839" lon="4.16024">
        <ele>237.6</ele>
        <time>2024-05-04T08:47:12Z</time>
      </trkpt>
      <trkpt lat="50.10844" lon="4.16032">
        <ele>237.6</ele>
        <time>2024-05-04T08:47:13Z</time>
      </trkpt>
      <trkpt lat="50.10849" lon="4.1604">
        <ele>237.8</ele>
        <time>2024-05-04T08:47:14Z</time>
      </trkpt>
      <trkpt lat="50.10854" lon="4.16048">
        <ele>237.6</ele>
        <time>2024-05-04T08:47:15Z</time>
      </trkpt>
      <trkpt lat="50.10859" lon="4.16055">
        <ele>237.6</ele>
        <time>2024-05-04T08:47:16Z</time>
      </trkpt>
      <trkpt lat="50.10864" lon="4.16063">
        <ele>237.6</ele>
        <time>2024-05-04T08:47:17Z</time>
      </trkpt>
      <trkpt lat="50.10869" lon="4.1607">
        <ele>237.6</ele>
        <time>2024-05-04T08:47:18Z</time>
      </trkpt>
      <trkpt lat="50.10873" lon="4.16078">
        <ele>237.6</ele>
        <time>2024-05-04T08:47:19Z</time>
      </trkpt>
      <trkpt lat="50.10878" lon="4.16086">
        <ele>237.8</ele>
        <time>2024-05-04T08:47:20Z</time>
      </trkpt>
      <trkpt lat="50.10883" lon="4.16093">
        <ele>237.6</ele>
        <time>2024-05-04T08:47:21Z</time>
      </trkpt>
      <trkpt lat="50.10888" lon="4.16101">
        <ele>237.6</ele>
        <time>2024-05-04T08:47:22Z</time>
      </trkpt>
      <trkpt lat="50.10893" lon="4.16108">
        <ele>237.4</ele>
        <time>2024-05-04T08:47:23Z</time>
      </trkpt>
      <trkpt lat="50.10898" lon="4.16115">
        <ele>237.2</ele>
        <time>2024-05-04T08:47:24Z</time>
      </trkpt>
      <trkpt lat="50.10903" lon="4.16123">
        <ele>237.2</ele>
        <time>2024-05-04T08:47:25Z</time>
      </trkpt>
      <trkpt lat="50.10908" lon="4.16131">
        <ele>237.2</ele>
        <time>2024-05-04T08:47:26Z</time>
      </trkpt>
      <trkpt lat="50.10913" lon="4.1614">
        <ele>237.2</ele>
        <time>2024-05-04T08:47:27Z</time>
      </trkpt>
      <trkpt lat="50.10918" lon="4.16148">
        <ele>237.2</ele>
        <time>2024-05-04T08:47:28Z</time>
      </trkpt>
      <trkpt lat="50.10924" lon="4.16156">
        <ele>237</ele>
        <time>2024-05-04T08:47:29Z</time>
      </trkpt>
      <trkpt lat="50.10929" lon="4.16165">
        <ele>237</ele>
        <time>2024-05-04T08:47:30Z</time>
      </trkpt>
      <trkpt lat="50.10934" lon="4.16174">
        <ele>236.8</ele>
        <time>2024-05-04T08:47:31Z</time>
      </trkpt>
      <trkpt lat="50.10939" lon="4.16183">
        <ele>236.6</ele>
        <time>2024-05-04T08:47:32Z</time>
      </trkpt>
      <trkpt lat="50.10945" lon="4.16192">
        <ele>236.8</ele>
        <time>2024-05-04T08:47:33Z</time>
      </trkpt>
      <trkpt lat="50.1095" lon="4.16201">
        <ele>236.6</ele>
        <time>2024-05-04T08:47:34Z</time>
      </trkpt>
      <trkpt lat="50.10954" lon="4.1621">
        <ele>236.6</ele>
        <time>2024-05-04T08:47:35Z</time>
      </trkpt>
      <trkpt lat="50.10958" lon="4.1622">
        <ele>236.6</ele>
        <time>2024-05-04T08:47:36Z</time>
      </trkpt>
      <trkpt lat="50.10962" lon="4.1623">
        <ele>236.6</ele>
        <time>2024-05-04T08:47:37Z</time>
      </trkpt>
      <trkpt lat="50.10966" lon="4.1624">
        <ele>236.6</ele>
        <time>2024-05-04T08:47:38Z</time>
      </trkpt>
      <trkpt lat="50.10969" lon="4.1625">
        <ele>236.8</ele>
        <time>2024-05-04T08:47:39Z</time>
      </trkpt>
      <trkpt lat="50.10971" lon="4.16261">
        <ele>236.6</ele>
        <time>2024-05-04T08:47:40Z</time>
      </trkpt>
      <trkpt lat="50.10974" lon="4.16271">
        <ele>236.8</ele>
        <time>2024-05-04T08:47:41Z</time>
      </trkpt>
      <trkpt lat="50.10977" lon="4.16282">
        <ele>236.8</ele>
        <time>2024-05-04T08:47:42Z</time>
      </trkpt>
      <trkpt lat="50.10979" lon="4.16292">
        <ele>237</ele>
        <time>2024-05-04T08:47:43Z</time>
      </trkpt>
      <trkpt lat="50.10982" lon="4.16303">
        <ele>237.2</ele>
        <time>2024-05-04T08:47:44Z</time>
      </trkpt>
      <trkpt lat="50.10984" lon="4.16314">
        <ele>237.2</ele>
        <time>2024-05-04T08:47:45Z</time>
      </trkpt>
      <trkpt lat="50.10987" lon="4.16325">
        <ele>237.8</ele>
        <time>2024-05-04T08:47:46Z</time>
      </trkpt>
      <trkpt lat="50.10989" lon="4.16337">
        <ele>238.2</ele>
        <time>2024-05-04T08:47:47Z</time>
      </trkpt>
      <trkpt lat="50.10992" lon="4.16349">
        <ele>238.2</ele>
        <time>2024-05-04T08:47:48Z</time>
      </trkpt>
      <trkpt lat="50.10995" lon="4.16361">
        <ele>238.6</ele>
        <time>2024-05-04T08:47:49Z</time>
      </trkpt>
      <trkpt lat="50.10997" lon="4.16373">
        <ele>239</ele>
        <time>2024-05-04T08:47:50Z</time>
      </trkpt>
      <trkpt lat="50.11001" lon="4.16384">
        <ele>239.2</ele>
        <time>2024-05-04T08:47:51Z</time>
      </trkpt>
      <trkpt lat="50.11005" lon="4.16395">
        <ele>239.2</ele>
        <time>2024-05-04T08:47:52Z</time>
      </trkpt>
      <trkpt lat="50.1101" lon="4.16407">
        <ele>239.4</ele>
        <time>2024-05-04T08:47:53Z</time>
      </trkpt>
      <trkpt lat="50.11015" lon="4.16419">
        <ele>239.2</ele>
        <time>2024-05-04T08:47:54Z</time>
      </trkpt>
      <trkpt lat="50.1102" lon="4.1643">
        <ele>239.4</ele>
        <time>2024-05-04T08:47:55Z</time>
      </trkpt>
      <trkpt lat="50.11025" lon="4.16441">
        <ele>239.4</ele>
        <time>2024-05-04T08:47:56Z</time>
      </trkpt>
      <trkpt lat="50.11029" lon="4.16451">
        <ele>239.4</ele>
        <time>2024-05-04T08:47:57Z</time>
      </trkpt>
      <trkpt lat="50.11034" lon="4.16462">
        <ele>239.4</ele>
        <time>2024-05-04T08:47:58Z</time>
      </trkpt>
      <trkpt lat="50.11039" lon="4.16471">
        <ele>239.4</ele>
        <time>2024-05-04T08:47:59Z</time>
      </trkpt>
      <trkpt lat="50.11045" lon="4.1648">
        <ele>239.4</ele>
        <time>2024-05-04T08:48:00Z</time>
      </trkpt>
      <trkpt lat="50.11051" lon="4.16489">
        <ele>239</ele>
        <time>2024-05-04T08:48:01Z</time>
      </trkpt>
      <trkpt lat="50.11058" lon="4.16496">
        <ele>238.4</ele>
        <time>2024-05-04T08:48:02Z</time>
      </trkpt>
      <trkpt lat="50.11064" lon="4.16504">
        <ele>237.8</ele>
        <time>2024-05-04T08:48:03Z</time>
      </trkpt>
      <trkpt lat="50.11071" lon="4.1651">
        <ele>237.6</ele>
        <time>2024-05-04T08:48:04Z</time>
      </trkpt>
      <trkpt lat="50.11078" lon="4.16516">
        <ele>237.6</ele>
        <time>2024-05-04T08:48:05Z</time>
      </trkpt>
      <trkpt lat="50.11085" lon="4.16522">
        <ele>237.2</ele>
        <time>2024-05-04T08:48:06Z</time>
      </trkpt>
      <trkpt lat="50.11092" lon="4.16527">
        <ele>237.4</ele>
        <time>2024-05-04T08:48:07Z</time>
      </trkpt>
      <trkpt lat="50.11099" lon="4.16533">
        <ele>237.4</ele>
        <time>2024-05-04T08:48:08Z</time>
      </trkpt>
      <trkpt lat="50.11106" lon="4.16538">
        <ele>237.2</ele>
        <time>2024-05-04T08:48:09Z</time>
      </trkpt>
      <trkpt lat="50.11114" lon="4.16543">
        <ele>237.2</ele>
        <time>2024-05-04T08:48:10Z</time>
      </trkpt>
      <trkpt lat="50.11121" lon="4.16548">
        <ele>237.2</ele>
        <time>2024-05-04T08:48:11Z</time>
      </trkpt>
      <trkpt lat="50.11128" lon="4.16553">
        <ele>237.2</ele>
        <time>2024-05-04T08:48:12Z</time>
      </trkpt>
      <trkpt lat="50.11136" lon="4.16559">
        <ele>237.2</ele>
        <time>2024-05-04T08:48:13Z</time>
      </trkpt>
      <trkpt lat="50.11143" lon="4.16564">
        <ele>237.4</ele>
        <time>2024-05-04T08:48:14Z</time>
      </trkpt>
      <trkpt lat="50.1115" lon="4.16569">
        <ele>237.2</ele>
        <time>2024-05-04T08:48:15Z</time>
      </trkpt>
      <trkpt lat="50.11157" lon="4.16574">
        <ele>237.2</ele>
        <time>2024-05-04T08:48:16Z</time>
      </trkpt>
      <trkpt lat="50.11165" lon="4.16579">
        <ele>237.2</ele>
        <time>2024-05-04T08:48:17Z</time>
      </trkpt>
      <trkpt lat="50.11172" lon="4.16584">
        <ele>237.2</ele>
        <time>2024-05-04T08:48:18Z</time>
      </trkpt>
      <trkpt lat="50.11179" lon="4.16589">
        <ele>237.4</ele>
        <time>2024-05-04T08:48:19Z</time>
      </trkpt>
      <trkpt lat="50.11186" lon="4.16595">
        <ele>237.4</ele>
        <time>2024-05-04T08:48:20Z</time>
      </trkpt>
      <trkpt lat="50.11194" lon="4.166">
        <ele>237.4</ele>
        <time>2024-05-04T08:48:21Z</time>
      </trkpt>
      <trkpt lat="50.11201" lon="4.16606">
        <ele>237.6</ele>
        <time>2024-05-04T08:48:22Z</time>
      </trkpt>
      <trkpt lat="50.11209" lon="4.16611">
        <ele>237.4</ele>
        <time>2024-05-04T08:48:23Z</time>
      </trkpt>
      <trkpt lat="50.11216" lon="4.16617">
        <ele>237.6</ele>
        <time>2024-05-04T08:48:24Z</time>
      </trkpt>
      <trkpt lat="50.11223" lon="4.16622">
        <ele>237.4</ele>
        <time>2024-05-04T08:48:25Z</time>
      </trkpt>
      <trkpt lat="50.1123" lon="4.16627">
        <ele>237.4</ele>
        <time>2024-05-04T08:48:26Z</time>
      </trkpt>
      <trkpt lat="50.11238" lon="4.16632">
        <ele>237.6</ele>
        <time>2024-05-04T08:48:27Z</time>
      </trkpt>
      <trkpt lat="50.11245" lon="4.16637">
        <ele>237.6</ele>
        <time>2024-05-04T08:48:28Z</time>
      </trkpt>
      <trkpt lat="50.11252" lon="4.16643">
        <ele>237.4</ele>
        <time>2024-05-04T08:48:29Z</time>
      </trkpt>
      <trkpt lat="50.11259" lon="4.16648">
        <ele>237.6</ele>
        <time>2024-05-04T08:48:30Z</time>
      </trkpt>
      <trkpt lat="50.11267" lon="4.16654">
        <ele>237.4</ele>
        <time>2024-05-04T08:48:31Z</time>
      </trkpt>
      <trkpt lat="50.11274" lon="4.16659">
        <ele>237.4</ele>
        <time>2024-05-04T08:48:32Z</time>
      </trkpt>
      <trkpt lat="50.11282" lon="4.16665">
        <ele>237.4</ele>
        <time>2024-05-04T08:48:33Z</time>
      </trkpt>
      <trkpt lat="50.1129" lon="4.1667">
        <ele>237.2</ele>
        <time>2024-05-04T08:48:34Z</time>
      </trkpt>
      <trkpt lat="50.11298" lon="4.16676">
        <ele>237.4</ele>
        <time>2024-05-04T08:48:35Z</time>
      </trkpt>
      <trkpt lat="50.11305" lon="4.16682">
        <ele>237</ele>
        <time>2024-05-04T08:48:36Z</time>
      </trkpt>
      <trkpt lat="50.11313" lon="4.16688">
        <ele>236.8</ele>
        <time>2024-05-04T08:48:37Z</time>
      </trkpt>
      <trkpt lat="50.11321" lon="4.16694">
        <ele>236.8</ele>
        <time>2024-05-04T08:48:38Z</time>
      </trkpt>
      <trkpt lat="50.11328" lon="4.16699">
        <ele>236.6</ele>
        <time>2024-05-04T08:48:39Z</time>
      </trkpt>
      <trkpt lat="50.11336" lon="4.16704">
        <ele>236.2</ele>
        <time>2024-05-04T08:48:40Z</time>
      </trkpt>
      <trkpt lat="50.11344" lon="4.1671">
        <ele>236.2</ele>
        <time>2024-05-04T08:48:41Z</time>
      </trkpt>
      <trkpt lat="50.11352" lon="4.16715">
        <ele>236.2</ele>
        <time>2024-05-04T08:48:42Z</time>
      </trkpt>
      <trkpt lat="50.1136" lon="4.16721">
        <ele>236</ele>
        <time>2024-05-04T08:48:43Z</time>
      </trkpt>
      <trkpt lat="50.11368" lon="4.16727">
        <ele>235.8</ele>
        <time>2024-05-04T08:48:44Z</time>
      </trkpt>
      <trkpt lat="50.11377" lon="4.16733">
        <ele>235.6</ele>
        <time>2024-05-04T08:48:45Z</time>
      </trkpt>
      <trkpt lat="50.11385" lon="4.16739">
        <ele>235.2</ele>
        <time>2024-05-04T08:48:46Z</time>
      </trkpt>
      <trkpt lat="50.11394" lon="4.16746">
        <ele>234.8</ele>
        <time>2024-05-04T08:48:47Z</time>
      </trkpt>
      <trkpt lat="50.11401" lon="4.16754">
        <ele>234.6</ele>
        <time>2024-05-04T08:48:48Z</time>
      </trkpt>
      <trkpt lat="50.11408" lon="4.16762">
        <ele>234.6</ele>
        <time>2024-05-04T08:48:49Z</time>
      </trkpt>
      <trkpt lat="50.11414" lon="4.16772">
        <ele>233.8</ele>
        <time>2024-05-04T08:48:50Z</time>
      </trkpt>
      <trkpt lat="50.11419" lon="4.16783">
        <ele>233</ele>
        <time>2024-05-04T08:48:51Z</time>
      </trkpt>
      <trkpt lat="50.11424" lon="4.16797">
        <ele>232.6</ele>
        <time>2024-05-04T08:48:52Z</time>
      </trkpt>
      <trkpt lat="50.11428" lon="4.16811">
        <ele>232</ele>
        <time>2024-05-04T08:48:53Z</time>
      </trkpt>
      <trkpt lat="50.11431" lon="4.16826">
        <ele>231.8</ele>
        <time>2024-05-04T08:48:54Z</time>
      </trkpt>
      <trkpt lat="50.11434" lon="4.1684">
        <ele>231.6</ele>
        <time>2024-05-04T08:48:55Z</time>
      </trkpt>
      <trkpt lat="50.11437" lon="4.16855">
        <ele>231</ele>
        <time>2024-05-04T08:48:56Z</time>
      </trkpt>
      <trkpt lat="50.1144" lon="4.1687">
        <ele>230.4</ele>
        <time>2024-05-04T08:48:57Z</time>
      </trkpt>
      <trkpt lat="50.11442" lon="4.16885">
        <ele>229.6</ele>
        <time>2024-05-04T08:48:58Z</time>
      </trkpt>
      <trkpt lat="50.11444" lon="4.16901">
        <ele>228.8</ele>
        <time>2024-05-04T08:48:59Z</time>
      </trkpt>
      <trkpt lat="50.11446" lon="4.16918">
        <ele>227.2</ele>
        <time>2024-05-04T08:49:00Z</time>
      </trkpt>
      <trkpt lat="50.11448" lon="4.16934">
        <ele>226</ele>
        <time>2024-05-04T08:49:01Z</time>
      </trkpt>
      <trkpt lat="50.11449" lon="4.16951">
        <ele>225.2</ele>
        <time>2024-05-04T08:49:02Z</time>
      </trkpt>
      <trkpt lat="50.1145" lon="4.16968">
        <ele>224.8</ele>
        <time>2024-05-04T08:49:03Z</time>
      </trkpt>
      <trkpt lat="50.11451" lon="4.16985">
        <ele>224.8</ele>
        <time>2024-05-04T08:49:04Z</time>
      </trkpt>
      <trkpt lat="50.11452" lon="4.17002">
        <ele>224.2</ele>
        <time>2024-05-04T08:49:05Z</time>
      </trkpt>
      <trkpt lat="50.11453" lon="4.17019">
        <ele>223.8</ele>
        <time>2024-05-04T08:49:06Z</time>
      </trkpt>
      <trkpt lat="50.11454" lon="4.17035">
        <ele>223.2</ele>
        <time>2024-05-04T08:49:07Z</time>
      </trkpt>
      <trkpt lat="50.11456" lon="4.17051">
        <ele>222.8</ele>
        <time>2024-05-04T08:49:08Z</time>
      </trkpt>
      <trkpt lat="50.11458" lon="4.17067">
        <ele>221.6</ele>
        <time>2024-05-04T08:49:09Z</time>
      </trkpt>
      <trkpt lat="50.11461" lon="4.17083">
        <ele>220.8</ele>
        <time>2024-05-04T08:49:10Z</time>
      </trkpt>
      <trkpt lat="50.11464" lon="4.171">
        <ele>219.8</ele>
        <time>2024-05-04T08:49:11Z</time>
      </trkpt>
      <trkpt lat="50.11466" lon="4.17117">
        <ele>218.8</ele>
        <time>2024-05-04T08:49:12Z</time>
      </trkpt>
      <trkpt lat="50.11469" lon="4.17134">
        <ele>218.2</ele>
        <time>2024-05-04T08:49:13Z</time>
      </trkpt>
      <trkpt lat="50.11472" lon="4.17151">
        <ele>217.8</ele>
        <time>2024-05-04T08:49:14Z</time>
      </trkpt>
      <trkpt lat="50.11474" lon="4.17168">
        <ele>216.8</ele>
        <time>2024-05-04T08:49:15Z</time>
      </trkpt>
      <trkpt lat="50.11477" lon="4.17186">
        <ele>216.2</ele>
        <time>2024-05-04T08:49:16Z</time>
      </trkpt>
      <trkpt lat="50.11479" lon="4.17205">
        <ele>215.8</ele>
        <time>2024-05-04T08:49:17Z</time>
      </trkpt>
      <trkpt lat="50.11479" lon="4.17223">
        <ele>214.6</ele>
        <time>2024-05-04T08:49:18Z</time>
      </trkpt>
      <trkpt lat="50.1148" lon="4.17241">
        <ele>214</ele>
        <time>2024-05-04T08:49:19Z</time>
      </trkpt>
      <trkpt lat="50.1148" lon="4.1726">
        <ele>213.8</ele>
        <time>2024-05-04T08:49:20Z</time>
      </trkpt>
      <trkpt lat="50.11481" lon="4.17278">
        <ele>213.8</ele>
        <time>2024-05-04T08:49:21Z</time>
      </trkpt>
      <trkpt lat="50.11482" lon="4.17296">
        <ele>212.4</ele>
        <time>2024-05-04T08:49:22Z</time>
      </trkpt>
      <trkpt lat="50.11483" lon="4.17314">
        <ele>211.4</ele>
        <time>2024-05-04T08:49:23Z</time>
      </trkpt>
      <trkpt lat="50.11484" lon="4.17332">
        <ele>210.4</ele>
        <time>2024-05-04T08:49:24Z</time>
      </trkpt>
      <trkpt lat="50.11485" lon="4.17349">
        <ele>210</ele>
        <time>2024-05-04T08:49:25Z</time>
      </trkpt>
      <trkpt lat="50.11486" lon="4.17365">
        <ele>209.2</ele>
        <time>2024-05-04T08:49:26Z</time>
      </trkpt>
      <trkpt lat="50.11487" lon="4.17381">
        <ele>209</ele>
        <time>2024-05-04T08:49:27Z</time>
      </trkpt>
      <trkpt lat="50.11488" lon="4.17397">
        <ele>208.4</ele>
        <time>2024-05-04T08:49:28Z</time>
      </trkpt>
      <trkpt lat="50.11489" lon="4.17413">
        <ele>207.8</ele>
        <time>2024-05-04T08:49:29Z</time>
      </trkpt>
      <trkpt lat="50.11491" lon="4.17428">
        <ele>207.6</ele>
        <time>2024-05-04T08:49:30Z</time>
      </trkpt>
      <trkpt lat="50.11492" lon="4.17442">
        <ele>207.2</ele>
        <time>2024-05-04T08:49:31Z</time>
      </trkpt>
      <trkpt lat="50.11493" lon="4.17457">
        <ele>205.8</ele>
        <time>2024-05-04T08:49:32Z</time>
      </trkpt>
      <trkpt lat="50.11494" lon="4.17472">
        <ele>205.4</ele>
        <time>2024-05-04T08:49:33Z</time>
      </trkpt>
      <trkpt lat="50.11496" lon="4.17486">
        <ele>204.6</ele>
        <time>2024-05-04T08:49:34Z</time>
      </trkpt>
      <trkpt lat="50.115" lon="4.17498">
        <ele>204.4</ele>
        <time>2024-05-04T08:49:35Z</time>
      </trkpt>
      <trkpt lat="50.11506" lon="4.17509">
        <ele>203.8</ele>
        <time>2024-05-04T08:49:36Z</time>
      </trkpt>
      <trkpt lat="50.11513" lon="4.17518">
        <ele>203</ele>
        <time>2024-05-04T08:49:37Z</time>
      </trkpt>
      <trkpt lat="50.11522" lon="4.17526">
        <ele>202.6</ele>
        <time>2024-05-04T08:49:38Z</time>
      </trkpt>
      <trkpt lat="50.11531" lon="4.17534">
        <ele>202.6</ele>
        <time>2024-05-04T08:49:39Z</time>
      </trkpt>
      <trkpt lat="50.11539" lon="4.17542">
        <ele>202</ele>
        <time>2024-05-04T08:49:40Z</time>
      </trkpt>
      <trkpt lat="50.11548" lon="4.17549">
        <ele>201.2</ele>
        <time>2024-05-04T08:49:41Z</time>
      </trkpt>
      <trkpt lat="50.11557" lon="4.17558">
        <ele>200.8</ele>
        <time>2024-05-04T08:49:42Z</time>
      </trkpt>
      <trkpt lat="50.11564" lon="4.17568">
        <ele>200.6</ele>
        <time>2024-05-04T08:49:43Z</time>
      </trkpt>
      <trkpt lat="50.1157" lon="4.17579">
        <ele>200.6</ele>
        <time>2024-05-04T08:49:44Z</time>
      </trkpt>
      <trkpt lat="50.11576" lon="4.17591">
        <ele>199.8</ele>
        <time>2024-05-04T08:49:45Z</time>
      </trkpt>
      <trkpt lat="50.11581" lon="4.17603">
        <ele>199.2</ele>
        <time>2024-05-04T08:49:46Z</time>
      </trkpt>
      <trkpt lat="50.11586" lon="4.17615">
        <ele>198.4</ele>
        <time>2024-05-04T08:49:47Z</time>
      </trkpt>
      <trkpt lat="50.11592" lon="4.17626">
        <ele>197.4</ele>
        <time>2024-05-04T08:49:48Z</time>
      </trkpt>
      <trkpt lat="50.11599" lon="4.17634">
        <ele>196.6</ele>
        <time>2024-05-04T08:49:49Z</time>
      </trkpt>
      <trkpt lat="50.11607" lon="4.17641">
        <ele>195.8</ele>
        <time>2024-05-04T08:49:50Z</time>
      </trkpt>
      <trkpt lat="50.11615" lon="4.17644">
        <ele>195.6</ele>
        <time>2024-05-04T08:49:51Z</time>
      </trkpt>
      <trkpt lat="50.11624" lon="4.17645">
        <ele>194.8</ele>
        <time>2024-05-04T08:49:52Z</time>
      </trkpt>
      <trkpt lat="50.11632" lon="4.17643">
        <ele>193.8</ele>
        <time>2024-05-04T08:49:53Z</time>
      </trkpt>
      <trkpt lat="50.1164" lon="4.17638">
        <ele>193.2</ele>
        <time>2024-05-04T08:49:54Z</time>
      </trkpt>
      <trkpt lat="50.11647" lon="4.17632">
        <ele>192.8</ele>
        <time>2024-05-04T08:49:55Z</time>
      </trkpt>
      <trkpt lat="50.11654" lon="4.17624">
        <ele>192.8</ele>
        <time>2024-05-04T08:49:56Z</time>
      </trkpt>
      <trkpt lat="50.11661" lon="4.17616">
        <ele>192.4</ele>
        <time>2024-05-04T08:49:57Z</time>
      </trkpt>
      <trkpt lat="50.11668" lon="4.1761">
        <ele>192.2</ele>
        <time>2024-05-04T08:49:58Z</time>
      </trkpt>
      <trkpt lat="50.11676" lon="4.17607">
        <ele>191.8</ele>
        <time>2024-05-04T08:49:59Z</time>
      </trkpt>
      <trkpt lat="50.11684" lon="4.17608">
        <ele>191.4</ele>
        <time>2024-05-04T08:50:00Z</time>
      </trkpt>
      <trkpt lat="50.11691" lon="4.17613">
        <ele>191.2</ele>
        <time>2024-05-04T08:50:01Z</time>
      </trkpt>
      <trkpt lat="50.11698" lon="4.17621">
        <ele>191</ele>
        <time>2024-05-04T08:50:02Z</time>
      </trkpt>
      <trkpt lat="50.11703" lon="4.17631">
        <ele>190.6</ele>
        <time>2024-05-04T08:50:03Z</time>
      </trkpt>
      <trkpt lat="50.11708" lon="4.17642">
        <ele>189.8</ele>
        <time>2024-05-04T08:50:04Z</time>
      </trkpt>
      <trkpt lat="50.11713" lon="4.17653">
        <ele>189</ele>
        <time>2024-05-04T08:50:05Z</time>
      </trkpt>
      <trkpt lat="50.11718" lon="4.17665">
        <ele>188.4</ele>
        <time>2024-05-04T08:50:06Z</time>
      </trkpt>
      <trkpt lat="50.11722" lon="4.17677">
        <ele>187.4</ele>
        <time>2024-05-04T08:50:07Z</time>
      </trkpt>
      <trkpt lat="50.11727" lon="4.17688">
        <ele>186</ele>
        <time>2024-05-04T08:50:08Z</time>
      </trkpt>
      <trkpt lat="50.11732" lon="4.17699">
        <ele>185.4</ele>
        <time>2024-05-04T08:50:09Z</time>
      </trkpt>
      <trkpt lat="50.11737" lon="4.1771">
        <ele>184.6</ele>
        <time>2024-05-04T08:50:10Z</time>
      </trkpt>
      <trkpt lat="50.11741" lon="4.17721">
        <ele>184</ele>
        <time>2024-05-04T08:50:11Z</time>
      </trkpt>
      <trkpt lat="50.11746" lon="4.17732">
        <ele>184</ele>
        <time>2024-05-04T08:50:12Z</time>
      </trkpt>
      <trkpt lat="50.11751" lon="4.17743">
        <ele>183.6</ele>
        <time>2024-05-04T08:50:13Z</time>
      </trkpt>
      <trkpt lat="50.11755" lon="4.17754">
        <ele>183.6</ele>
        <time>2024-05-04T08:50:14Z</time>
      </trkpt>
      <trkpt lat="50.1176" lon="4.17764">
        <ele>183.4</ele>
        <time>2024-05-04T08:50:15Z</time>
      </trkpt>
      <trkpt lat="50.11764" lon="4.17775">
        <ele>183</ele>
        <time>2024-05-04T08:50:16Z</time>
      </trkpt>
      <trkpt lat="50.11768" lon="4.17785">
        <ele>182.6</ele>
        <time>2024-05-04T08:50:17Z</time>
      </trkpt>
      <trkpt lat="50.11772" lon="4.17795">
        <ele>182.6</ele>
        <time>2024-05-04T08:50:18Z</time>
      </trkpt>
      <trkpt lat="50.11776" lon="4.17805">
        <ele>182.6</ele>
        <time>2024-05-04T08:50:19Z</time>
      </trkpt>
      <trkpt lat="50.11779" lon="4.17814">
        <ele>182.4</ele>
        <time>2024-05-04T08:50:20Z</time>
      </trkpt>
      <trkpt lat="50.11783" lon="4.17822">
        <ele>182.6</ele>
        <time>2024-05-04T08:50:21Z</time>
      </trkpt>
      <trkpt lat="50.11785" lon="4.1783">
        <ele>182.4</ele>
        <time>2024-05-04T08:50:22Z</time>
      </trkpt>
      <trkpt lat="50.11787" lon="4.17835">
        <ele>182.4</ele>
        <time>2024-05-04T08:50:23Z</time>
      </trkpt>
      <trkpt lat="50.11788" lon="4.17837">
        <ele>182.4</ele>
        <time>2024-05-04T08:50:24Z</time>
      </trkpt>
      <trkpt lat="50.11789" lon="4.17838">
        <ele>182.4</ele>
        <time>2024-05-04T08:50:25Z</time>
      </trkpt>
      <trkpt lat="50.11789" lon="4.17839">
        <ele>182.6</ele>
        <time>2024-05-04T08:50:26Z</time>
      </trkpt>
      <trkpt lat="50.11789" lon="4.17839">
        <ele>182.4</ele>
        <time>2024-05-04T08:50:27Z</time>
      </trkpt>
      <trkpt lat="50.11793" lon="4.17841">
        <ele>182.6</ele>
        <time>2024-05-04T08:50:31Z</time>
      </trkpt>
      <trkpt lat="50.11795" lon="4.17841">
        <ele>182.6</ele>
        <time>2024-05-04T08:50:32Z</time>
      </trkpt>
      <trkpt lat="50.11797" lon="4.1784">
        <ele>183</ele>
        <time>2024-05-04T08:50:33Z</time>
      </trkpt>
      <trkpt lat="50.118" lon="4.17839">
        <ele>183.4</ele>
        <time>2024-05-04T08:50:34Z</time>
      </trkpt>
      <trkpt lat="50.11802" lon="4.17837">
        <ele>183.6</ele>
        <time>2024-05-04T08:50:35Z</time>
      </trkpt>
      <trkpt lat="50.11804" lon="4.17834">
        <ele>183.8</ele>
        <time>2024-05-04T08:50:36Z</time>
      </trkpt>
      <trkpt lat="50.11807" lon="4.17831">
        <ele>184</ele>
        <time>2024-05-04T08:50:37Z</time>
      </trkpt>
      <trkpt lat="50.1181" lon="4.17828">
        <ele>184</ele>
        <time>2024-05-04T08:50:38Z</time>
      </trkpt>
      <trkpt lat="50.11813" lon="4.17824">
        <ele>184</ele>
        <time>2024-05-04T08:50:39Z</time>
      </trkpt>
      <trkpt lat="50.11817" lon="4.1782">
        <ele>184</ele>
        <time>2024-05-04T08:50:40Z</time>
      </trkpt>
      <trkpt lat="50.11822" lon="4.17815">
        <ele>184</ele>
        <time>2024-05-04T08:50:41Z</time>
      </trkpt>
      <trkpt lat="50.11826" lon="4.1781">
        <ele>184</ele>
        <time>2024-05-04T08:50:42Z</time>
      </trkpt>
      <trkpt lat="50.11831" lon="4.17805">
        <ele>184</ele>
        <time>2024-05-04T08:50:43Z</time>
      </trkpt>
      <trkpt lat="50.11837" lon="4.178">
        <ele>184</ele>
        <time>2024-05-04T08:50:44Z</time>
      </trkpt>
      <trkpt lat="50.11843" lon="4.17796">
        <ele>184</ele>
        <time>2024-05-04T08:50:45Z</time>
      </trkpt>
      <trkpt lat="50.11849" lon="4.17794">
        <ele>184</ele>
        <time>2024-05-04T08:50:46Z</time>
      </trkpt>
      <trkpt lat="50.11856" lon="4.17793">
        <ele>183.8</ele>
        <time>2024-05-04T08:50:47Z</time>
      </trkpt>
      <trkpt lat="50.11862" lon="4.17792">
        <ele>183.8</ele>
        <time>2024-05-04T08:50:48Z</time>
      </trkpt>
      <trkpt lat="50.11869" lon="4.17791">
        <ele>183.4</ele>
        <time>2024-05-04T08:50:49Z</time>
      </trkpt>
      <trkpt lat="50.11876" lon="4.17791">
        <ele>183.4</ele>
        <time>2024-05-04T08:50:50Z</time>
      </trkpt>
      <trkpt lat="50.11882" lon="4.1779">
        <ele>183.2</ele>
        <time>2024-05-04T08:50:51Z</time>
      </trkpt>
      <trkpt lat="50.11889" lon="4.17791">
        <ele>182.8</ele>
        <time>2024-05-04T08:50:52Z</time>
      </trkpt>
      <trkpt lat="50.11896" lon="4.17791">
        <ele>182.6</ele>
        <time>2024-05-04T08:50:53Z</time>
      </trkpt>
      <trkpt lat="50.11902" lon="4.17792">
        <ele>182.4</ele>
        <time>2024-05-04T08:50:54Z</time>
      </trkpt>
      <trkpt lat="50.11908" lon="4.17792">
        <ele>182.2</ele>
        <time>2024-05-04T08:50:55Z</time>
      </trkpt>
      <trkpt lat="50.11915" lon="4.17793">
        <ele>182</ele>
        <time>2024-05-04T08:50:56Z</time>
      </trkpt>
      <trkpt lat="50.11921" lon="4.17794">
        <ele>182</ele>
        <time>2024-05-04T08:50:57Z</time>
      </trkpt>
      <trkpt lat="50.11927" lon="4.17794">
        <ele>182</ele>
        <time>2024-05-04T08:50:58Z</time>
      </trkpt>
      <trkpt lat="50.11933" lon="4.17794">
        <ele>182.2</ele>
        <time>2024-05-04T08:50:59Z</time>
      </trkpt>
      <trkpt lat="50.11939" lon="4.17793">
        <ele>182</ele>
        <time>2024-05-04T08:51:00Z</time>
      </trkpt>
      <trkpt lat="50.11944" lon="4.17793">
        <ele>182</ele>
        <time>2024-05-04T08:51:01Z</time>
      </trkpt>
      <trkpt lat="50.11949" lon="4.17791">
        <ele>182</ele>
        <time>2024-05-04T08:51:02Z</time>
      </trkpt>
      <trkpt lat="50.11954" lon="4.17789">
        <ele>182.2</ele>
        <time>2024-05-04T08:51:03Z</time>
      </trkpt>
      <trkpt lat="50.11959" lon="4.17787">
        <ele>182.2</ele>
        <time>2024-05-04T08:51:04Z</time>
      </trkpt>
      <trkpt lat="50.11963" lon="4.17783">
        <ele>182</ele>
        <time>2024-05-04T08:51:05Z</time>
      </trkpt>
      <trkpt lat="50.11967" lon="4.17779">
        <ele>182.4</ele>
        <time>2024-05-04T08:51:06Z</time>
      </trkpt>
      <trkpt lat="50.1197" lon="4.17775">
        <ele>182.4</ele>
        <time>2024-05-04T08:51:07Z</time>
      </trkpt>
      <trkpt lat="50.11974" lon="4.1777">
        <ele>182.6</ele>
        <time>2024-05-04T08:51:08Z</time>
      </trkpt>
      <trkpt lat="50.11977" lon="4.17765">
        <ele>182.8</ele>
        <time>2024-05-04T08:51:09Z</time>
      </trkpt>
      <trkpt lat="50.11979" lon="4.17759">
        <ele>183</ele>
        <time>2024-05-04T08:51:10Z</time>
      </trkpt>
      <trkpt lat="50.11981" lon="4.17753">
        <ele>183.2</ele>
        <time>2024-05-04T08:51:11Z</time>
      </trkpt>
      <trkpt lat="50.11983" lon="4.17747">
        <ele>183.6</ele>
        <time>2024-05-04T08:51:12Z</time>
      </trkpt>
      <trkpt lat="50.11984" lon="4.17741">
        <ele>184.2</ele>
        <time>2024-05-04T08:51:13Z</time>
      </trkpt>
      <trkpt lat="50.11986" lon="4.17734">
        <ele>184.6</ele>
        <time>2024-05-04T08:51:14Z</time>
      </trkpt>
      <trkpt lat="50.11987" lon="4.17727">
        <ele>185.2</ele>
        <time>2024-05-04T08:51:15Z</time>
      </trkpt>
      <trkpt lat="50.11988" lon="4.1772">
        <ele>185.6</ele>
        <time>2024-05-04T08:51:16Z</time>
      </trkpt>
      <trkpt lat="50.11989" lon="4.17713">
        <ele>186</ele>
        <time>2024-05-04T08:51:17Z</time>
      </trkpt>
      <trkpt lat="50.11989" lon="4.17705">
        <ele>186.4</ele>
        <time>2024-05-04T08:51:18Z</time>
      </trkpt>
      <trkpt lat="50.1199" lon="4.17697">
        <ele>186.6</ele>
        <time>2024-05-04T08:51:19Z</time>
      </trkpt>
      <trkpt lat="50.11991" lon="4.1769">
        <ele>187</ele>
        <time>2024-05-04T08:51:20Z</time>
      </trkpt>
      <trkpt lat="50.11992" lon="4.17682">
        <ele>187.2</ele>
        <time>2024-05-04T08:51:21Z</time>
      </trkpt>
      <trkpt lat="50.11993" lon="4.17674">
        <ele>187.2</ele>
        <time>2024-05-04T08:51:22Z</time>
      </trkpt>
      <trkpt lat="50.11994" lon="4.17666">
        <ele>187.6</ele>
        <time>2024-05-04T08:51:23Z</time>
      </trkpt>
      <trkpt lat="50.11995" lon="4.17658">
        <ele>187.6</ele>
        <time>2024-05-04T08:51:24Z</time>
      </trkpt>
      <trkpt lat="50.11996" lon="4.17649">
        <ele>187.4</ele>
        <time>2024-05-04T08:51:25Z</time>
      </trkpt>
      <trkpt lat="50.11997" lon="4.17641">
        <ele>187.6</ele>
        <time>2024-05-04T08:51:26Z</time>
      </trkpt>
      <trkpt lat="50.11998" lon="4.17632">
        <ele>187.8</ele>
        <time>2024-05-04T08:51:27Z</time>
      </trkpt>
      <trkpt lat="50.12" lon="4.17624">
        <ele>187.8</ele>
        <time>2024-05-04T08:51:28Z</time>
      </trkpt>
      <trkpt lat="50.12001" lon="4.17615">
        <ele>188.2</ele>
        <time>2024-05-04T08:51:29Z</time>
      </trkpt>
      <trkpt lat="50.12003" lon="4.17606">
        <ele>189</ele>
        <time>2024-05-04T08:51:30Z</time>
      </trkpt>
      <trkpt lat="50.12004" lon="4.17597">
        <ele>189.4</ele>
        <time>2024-05-04T08:51:31Z</time>
      </trkpt>
      <trkpt lat="50.12006" lon="4.17587">
        <ele>189.6</ele>
        <time>2024-05-04T08:51:32Z</time>
      </trkpt>
      <trkpt lat="50.12007" lon="4.17578">
        <ele>189.8</ele>
        <time>2024-05-04T08:51:33Z</time>
      </trkpt>
      <trkpt lat="50.12009" lon="4.17569">
        <ele>189.6</ele>
        <time>2024-05-04T08:51:34Z</time>
      </trkpt>
      <trkpt lat="50.12011" lon="4.17559">
        <ele>189.8</ele>
        <time>2024-05-04T08:51:35Z</time>
      </trkpt>
      <trkpt lat="50.12013" lon="4.17549">
        <ele>189.8</ele>
        <time>2024-05-04T08:51:36Z</time>
      </trkpt>
      <trkpt lat="50.12016" lon="4.17539">
        <ele>190</ele>
        <time>2024-05-04T08:51:37Z</time>
      </trkpt>
      <trkpt lat="50.12018" lon="4.17529">
        <ele>189.8</ele>
        <time>2024-05-04T08:51:38Z</time>
      </trkpt>
      <trkpt lat="50.1202" lon="4.17519">
        <ele>189.8</ele>
        <time>2024-05-04T08:51:39Z</time>
      </trkpt>
      <trkpt lat="50.12022" lon="4.17509">
        <ele>189.8</ele>
        <time>2024-05-04T08:51:40Z</time>
      </trkpt>
      <trkpt lat="50.12025" lon="4.17499">
        <ele>189.8</ele>
        <time>2024-05-04T08:51:41Z</time>
      </trkpt>
      <trkpt lat="50.12027" lon="4.17488">
        <ele>189.8</ele>
        <time>2024-05-04T08:51:42Z</time>
      </trkpt>
      <trkpt lat="50.12029" lon="4.17477">
        <ele>189.8</ele>
        <time>2024-05-04T08:51:43Z</time>
      </trkpt>
      <trkpt lat="50.12032" lon="4.17466">
        <ele>189.8</ele>
        <time>2024-05-04T08:51:44Z</time>
      </trkpt>
      <trkpt lat="50.12035" lon="4.17454">
        <ele>189.6</ele>
        <time>2024-05-04T08:51:45Z</time>
      </trkpt>
      <trkpt lat="50.12039" lon="4.17442">
        <ele>189.4</ele>
        <time>2024-05-04T08:51:46Z</time>
      </trkpt>
      <trkpt lat="50.12042" lon="4.1743">
        <ele>189.2</ele>
        <time>2024-05-04T08:51:47Z</time>
      </trkpt>
      <trkpt lat="50.12045" lon="4.17417">
        <ele>189.2</ele>
        <time>2024-05-04T08:51:48Z</time>
      </trkpt>
      <trkpt lat="50.12047" lon="4.17403">
        <ele>188.8</ele>
        <time>2024-05-04T08:51:49Z</time>
      </trkpt>
      <trkpt lat="50.12049" lon="4.1739">
        <ele>188.6</ele>
        <time>2024-05-04T08:51:50Z</time>
      </trkpt>
      <trkpt lat="50.12052" lon="4.17377">
        <ele>188.6</ele>
        <time>2024-05-04T08:51:51Z</time>
      </trkpt>
      <trkpt lat="50.12055" lon="4.17364">
        <ele>188.2</ele>
        <time>2024-05-04T08:51:52Z</time>
      </trkpt>
      <trkpt lat="50.12057" lon="4.17351">
        <ele>188</ele>
        <time>2024-05-04T08:51:53Z</time>
      </trkpt>
      <trkpt lat="50.12059" lon="4.17338">
        <ele>188</ele>
        <time>2024-05-04T08:51:54Z</time>
      </trkpt>
      <trkpt lat="50.12061" lon="4.17325">
        <ele>187.6</ele>
        <time>2024-05-04T08:51:55Z</time>
      </trkpt>
      <trkpt lat="50.12064" lon="4.17312">
        <ele>187.6</ele>
        <time>2024-05-04T08:51:56Z</time>
      </trkpt>
      <trkpt lat="50.12066" lon="4.17299">
        <ele>187.6</ele>
        <time>2024-05-04T08:51:57Z</time>
      </trkpt>
      <trkpt lat="50.12068" lon="4.17286">
        <ele>187.6</ele>
        <time>2024-05-04T08:51:58Z</time>
      </trkpt>
      <trkpt lat="50.1207" lon="4.17273">
        <ele>187.6</ele>
        <time>2024-05-04T08:51:59Z</time>
      </trkpt>
      <trkpt lat="50.12072" lon="4.1726">
        <ele>187.6</ele>
        <time>2024-05-04T08:52:00Z</time>
      </trkpt>
      <trkpt lat="50.12074" lon="4.17246">
        <ele>187.4</ele>
        <time>2024-05-04T08:52:01Z</time>
      </trkpt>
      <trkpt lat="50.12076" lon="4.17233">
        <ele>187.2</ele>
        <time>2024-05-04T08:52:02Z</time>
      </trkpt>
      <trkpt lat="50.12077" lon="4.17219">
        <ele>187.2</ele>
        <time>2024-05-04T08:52:03Z</time>
      </trkpt>
      <trkpt lat="50.12079" lon="4.17205">
        <ele>187</ele>
        <time>2024-05-04T08:52:04Z</time>
      </trkpt>
      <trkpt lat="50.12081" lon="4.17191">
        <ele>187</ele>
        <time>2024-05-04T08:52:05Z</time>
      </trkpt>
      <trkpt lat="50.12082" lon="4.17177">
        <ele>187</ele>
        <time>2024-05-04T08:52:06Z</time>
      </trkpt>
      <trkpt lat="50.12083" lon="4.17162">
        <ele>187</ele>
        <time>2024-05-04T08:52:07Z</time>
      </trkpt>
      <trkpt lat="50.12085" lon="4.17148">
        <ele>187</ele>
        <time>2024-05-04T08:52:08Z</time>
      </trkpt>
      <trkpt lat="50.12086" lon="4.17134">
        <ele>186.8</ele>
        <time>2024-05-04T08:52:09Z</time>
      </trkpt>
      <trkpt lat="50.12087" lon="4.17119">
        <ele>187</ele>
        <time>2024-05-04T08:52:10Z</time>
      </trkpt>
      <trkpt lat="50.12089" lon="4.17105">
        <ele>187</ele>
        <time>2024-05-04T08:52:11Z</time>
      </trkpt>
      <trkpt lat="50.12091" lon="4.17091">
        <ele>187.2</ele>
        <time>2024-05-04T08:52:12Z</time>
      </trkpt>
      <trkpt lat="50.12093" lon="4.17077">
        <ele>187.2</ele>
        <time>2024-05-04T08:52:13Z</time>
      </trkpt>
      <trkpt lat="50.12096" lon="4.17063">
        <ele>187</ele>
        <time>2024-05-04T08:52:14Z</time>
      </trkpt>
      <trkpt lat="50.12099" lon="4.1705">
        <ele>187</ele>
        <time>2024-05-04T08:52:15Z</time>
      </trkpt>
      <trkpt lat="50.12102" lon="4.17037">
        <ele>187</ele>
        <time>2024-05-04T08:52:16Z</time>
      </trkpt>
      <trkpt lat="50.12105" lon="4.17024">
        <ele>186.8</ele>
        <time>2024-05-04T08:52:17Z</time>
      </trkpt>
      <trkpt lat="50.12108" lon="4.1701">
        <ele>186.8</ele>
        <time>2024-05-04T08:52:18Z</time>
      </trkpt>
      <trkpt lat="50.1211" lon="4.16997">
        <ele>186.8</ele>
        <time>2024-05-04T08:52:19Z</time>
      </trkpt>
      <trkpt lat="50.12112" lon="4.16984">
        <ele>186.6</ele>
        <time>2024-05-04T08:52:20Z</time>
      </trkpt>
      <trkpt lat="50.12114" lon="4.1697">
        <ele>186.6</ele>
        <time>2024-05-04T08:52:21Z</time>
      </trkpt>
      <trkpt lat="50.12115" lon="4.16957">
        <ele>186.2</ele>
        <time>2024-05-04T08:52:22Z</time>
      </trkpt>
      <trkpt lat="50.12117" lon="4.16944">
        <ele>186.2</ele>
        <time>2024-05-04T08:52:23Z</time>
      </trkpt>
      <trkpt lat="50.12119" lon="4.1693">
        <ele>186</ele>
        <time>2024-05-04T08:52:24Z</time>
      </trkpt>
      <trkpt lat="50.1212" lon="4.16917">
        <ele>185.8</ele>
        <time>2024-05-04T08:52:25Z</time>
      </trkpt>
      <trkpt lat="50.12122" lon="4.16903">
        <ele>185.8</ele>
        <time>2024-05-04T08:52:26Z</time>
      </trkpt>
      <trkpt lat="50.12124" lon="4.1689">
        <ele>185.6</ele>
        <time>2024-05-04T08:52:27Z</time>
      </trkpt>
      <trkpt lat="50.12126" lon="4.16876">
        <ele>185.6</ele>
        <time>2024-05-04T08:52:28Z</time>
      </trkpt>
      <trkpt lat="50.12128" lon="4.16862">
        <ele>185.2</ele>
        <time>2024-05-04T08:52:29Z</time>
      </trkpt>
      <trkpt lat="50.12131" lon="4.16849">
        <ele>185</ele>
        <time>2024-05-04T08:52:30Z</time>
      </trkpt>
      <trkpt lat="50.12133" lon="4.16834">
        <ele>185</ele>
        <time>2024-05-04T08:52:31Z</time>
      </trkpt>
      <trkpt lat="50.12136" lon="4.1682">
        <ele>185</ele>
        <time>2024-05-04T08:52:32Z</time>
      </trkpt>
      <trkpt lat="50.1214" lon="4.16806">
        <ele>184.8</ele>
        <time>2024-05-04T08:52:33Z</time>
      </trkpt>
      <trkpt lat="50.12144" lon="4.16793">
        <ele>184.6</ele>
        <time>2024-05-04T08:52:34Z</time>
      </trkpt>
      <trkpt lat="50.12149" lon="4.16779">
        <ele>184.4</ele>
        <time>2024-05-04T08:52:35Z</time>
      </trkpt>
      <trkpt lat="50.12154" lon="4.16766">
        <ele>183.8</ele>
        <time>2024-05-04T08:52:36Z</time>
      </trkpt>
      <trkpt lat="50.12159" lon="4.16753">
        <ele>183.8</ele>
        <time>2024-05-04T08:52:37Z</time>
      </trkpt>
      <trkpt lat="50.12164" lon="4.1674">
        <ele>183.6</ele>
        <time>2024-05-04T08:52:38Z</time>
      </trkpt>
      <trkpt lat="50.12169" lon="4.16727">
        <ele>182.8</ele>
        <time>2024-05-04T08:52:39Z</time>
      </trkpt>
      <trkpt lat="50.12174" lon="4.16715">
        <ele>182.4</ele>
        <time>2024-05-04T08:52:40Z</time>
      </trkpt>
      <trkpt lat="50.12179" lon="4.16704">
        <ele>182</ele>
        <time>2024-05-04T08:52:41Z</time>
      </trkpt>
      <trkpt lat="50.12185" lon="4.16692">
        <ele>181.6</ele>
        <time>2024-05-04T08:52:42Z</time>
      </trkpt>
      <trkpt lat="50.1219" lon="4.16682">
        <ele>181.6</ele>
        <time>2024-05-04T08:52:43Z</time>
      </trkpt>
      <trkpt lat="50.12195" lon="4.16672">
        <ele>181.6</ele>
        <time>2024-05-04T08:52:44Z</time>
      </trkpt>
      <trkpt lat="50.12199" lon="4.16662">
        <ele>181.6</ele>
        <time>2024-05-04T08:52:45Z</time>
      </trkpt>
      <trkpt lat="50.12205" lon="4.16653">
        <ele>181.6</ele>
        <time>2024-05-04T08:52:46Z</time>
      </trkpt>
      <trkpt lat="50.12209" lon="4.16644">
        <ele>181.6</ele>
        <time>2024-05-04T08:52:47Z</time>
      </trkpt>
      <trkpt lat="50.12214" lon="4.16636">
        <ele>181.6</ele>
        <time>2024-05-04T08:52:48Z</time>
      </trkpt>
      <trkpt lat="50.12218" lon="4.16628">
        <ele>181.6</ele>
        <time>2024-05-04T08:52:49Z</time>
      </trkpt>
      <trkpt lat="50.12223" lon="4.16621">
        <ele>181.6</ele>
        <time>2024-05-04T08:52:50Z</time>
      </trkpt>
      <trkpt lat="50.12226" lon="4.16614">
        <ele>181.6</ele>
        <time>2024-05-04T08:52:51Z</time>
      </trkpt>
      <trkpt lat="50.1223" lon="4.16607">
        <ele>181.6</ele>
        <time>2024-05-04T08:52:52Z</time>
      </trkpt>
      <trkpt lat="50.12233" lon="4.166">
        <ele>182</ele>
        <time>2024-05-04T08:52:53Z</time>
      </trkpt>
      <trkpt lat="50.12236" lon="4.16593">
        <ele>182.4</ele>
        <time>2024-05-04T08:52:54Z</time>
      </trkpt>
      <trkpt lat="50.12239" lon="4.16587">
        <ele>182.8</ele>
        <time>2024-05-04T08:52:55Z</time>
      </trkpt>
      <trkpt lat="50.12242" lon="4.1658">
        <ele>183.4</ele>
        <time>2024-05-04T08:52:56Z</time>
      </trkpt>
      <trkpt lat="50.12244" lon="4.16573">
        <ele>183.6</ele>
        <time>2024-05-04T08:52:57Z</time>
      </trkpt>
      <trkpt lat="50.12246" lon="4.16566">
        <ele>184.2</ele>
        <time>2024-05-04T08:52:58Z</time>
      </trkpt>
      <trkpt lat="50.12248" lon="4.16559">
        <ele>184.4</ele>
        <time>2024-05-04T08:52:59Z</time>
      </trkpt>
      <trkpt lat="50.1225" lon="4.16552">
        <ele>185.2</ele>
        <time>2024-05-04T08:53:00Z</time>
      </trkpt>
      <trkpt lat="50.12251" lon="4.16544">
        <ele>185.8</ele>
        <time>2024-05-04T08:53:01Z</time>
      </trkpt>
      <trkpt lat="50.12253" lon="4.16537">
        <ele>185.8</ele>
        <time>2024-05-04T08:53:02Z</time>
      </trkpt>
      <trkpt lat="50.12254" lon="4.16529">
        <ele>186.6</ele>
        <time>2024-05-04T08:53:03Z</time>
      </trkpt>
      <trkpt lat="50.12255" lon="4.16521">
        <ele>187.4</ele>
        <time>2024-05-04T08:53:04Z</time>
      </trkpt>
      <trkpt lat="50.12256" lon="4.16513">
        <ele>188.4</ele>
        <time>2024-05-04T08:53:05Z</time>
      </trkpt>
      <trkpt lat="50.12257" lon="4.16505">
        <ele>188.6</ele>
        <time>2024-05-04T08:53:06Z</time>
      </trkpt>
      <trkpt lat="50.12258" lon="4.16496">
        <ele>189</ele>
        <time>2024-05-04T08:53:07Z</time>
      </trkpt>
      <trkpt lat="50.1226" lon="4.16488">
        <ele>189.4</ele>
        <time>2024-05-04T08:53:08Z</time>
      </trkpt>
      <trkpt lat="50.12262" lon="4.1648">
        <ele>189.6</ele>
        <time>2024-05-04T08:53:09Z</time>
      </trkpt>
      <trkpt lat="50.12264" lon="4.16472">
        <ele>189.6</ele>
        <time>2024-05-04T08:53:10Z</time>
      </trkpt>
      <trkpt lat="50.12266" lon="4.16464">
        <ele>189.6</ele>
        <time>2024-05-04T08:53:11Z</time>
      </trkpt>
      <trkpt lat="50.12269" lon="4.16456">
        <ele>189.8</ele>
        <time>2024-05-04T08:53:12Z</time>
      </trkpt>
      <trkpt lat="50.12272" lon="4.16448">
        <ele>190</ele>
        <time>2024-05-04T08:53:13Z</time>
      </trkpt>
      <trkpt lat="50.12275" lon="4.1644">
        <ele>190</ele>
        <time>2024-05-04T08:53:14Z</time>
      </trkpt>
      <trkpt lat="50.12279" lon="4.16432">
        <ele>190.2</ele>
        <time>2024-05-04T08:53:15Z</time>
      </trkpt>
      <trkpt lat="50.12282" lon="4.16424">
        <ele>190.2</ele>
        <time>2024-05-04T08:53:16Z</time>
      </trkpt>
      <trkpt lat="50.12286" lon="4.16416">
        <ele>190.2</ele>
        <time>2024-05-04T08:53:17Z</time>
      </trkpt>
      <trkpt lat="50.12289" lon="4.16408">
        <ele>190.4</ele>
        <time>2024-05-04T08:53:18Z</time>
      </trkpt>
      <trkpt lat="50.12293" lon="4.164">
        <ele>190.4</ele>
        <time>2024-05-04T08:53:19Z</time>
      </trkpt>
      <trkpt lat="50.12296" lon="4.16392">
        <ele>190.6</ele>
        <time>2024-05-04T08:53:20Z</time>
      </trkpt>
      <trkpt lat="50.12299" lon="4.16384">
        <ele>190.6</ele>
        <time>2024-05-04T08:53:21Z</time>
      </trkpt>
      <trkpt lat="50.12302" lon="4.16376">
        <ele>190.8</ele>
        <time>2024-05-04T08:53:22Z</time>
      </trkpt>
      <trkpt lat="50.12306" lon="4.16369">
        <ele>191</ele>
        <time>2024-05-04T08:53:23Z</time>
      </trkpt>
      <trkpt lat="50.12308" lon="4.16361">
        <ele>191.2</ele>
        <time>2024-05-04T08:53:24Z</time>
      </trkpt>
      <trkpt lat="50.12311" lon="4.16353">
        <ele>191.2</ele>
        <time>2024-05-04T08:53:25Z</time>
      </trkpt>
      <trkpt lat="50.12314" lon="4.16345">
        <ele>191.6</ele>
        <time>2024-05-04T08:53:26Z</time>
      </trkpt>
      <trkpt lat="50.12316" lon="4.16337">
        <ele>191.6</ele>
        <time>2024-05-04T08:53:27Z</time>
      </trkpt>
      <trkpt lat="50.12318" lon="4.16329">
        <ele>191.6</ele>
        <time>2024-05-04T08:53:28Z</time>
      </trkpt>
      <trkpt lat="50.12319" lon="4.16321">
        <ele>191.6</ele>
        <time>2024-05-04T08:53:29Z</time>
      </trkpt>
      <trkpt lat="50.1232" lon="4.16312">
        <ele>192</ele>
        <time>2024-05-04T08:53:30Z</time>
      </trkpt>
      <trkpt lat="50.12321" lon="4.16304">
        <ele>192</ele>
        <time>2024-05-04T08:53:31Z</time>
      </trkpt>
      <trkpt lat="50.12321" lon="4.16296">
        <ele>192.2</ele>
        <time>2024-05-04T08:53:32Z</time>
      </trkpt>
      <trkpt lat="50.12322" lon="4.16287">
        <ele>192.2</ele>
        <time>2024-05-04T08:53:33Z</time>
      </trkpt>
      <trkpt lat="50.12322" lon="4.16279">
        <ele>192.2</ele>
        <time>2024-05-04T08:53:34Z</time>
      </trkpt>
      <trkpt lat="50.12321" lon="4.16271">
        <ele>192.4</ele>
        <time>2024-05-04T08:53:35Z</time>
      </trkpt>
      <trkpt lat="50.1232" lon="4.16264">
        <ele>192.4</ele>
        <time>2024-05-04T08:53:36Z</time>
      </trkpt>
      <trkpt lat="50.12319" lon="4.16256">
        <ele>192.6</ele>
        <time>2024-05-04T08:53:37Z</time>
      </trkpt>
      <trkpt lat="50.12318" lon="4.16248">
        <ele>192.8</ele>
        <time>2024-05-04T08:53:38Z</time>
      </trkpt>
      <trkpt lat="50.12316" lon="4.16241">
        <ele>192.8</ele>
        <time>2024-05-04T08:53:39Z</time>
      </trkpt>
      <trkpt lat="50.12314" lon="4.16234">
        <ele>193.6</ele>
        <time>2024-05-04T08:53:40Z</time>
      </trkpt>
      <trkpt lat="50.12312" lon="4.16227">
        <ele>194.4</ele>
        <time>2024-05-04T08:53:41Z</time>
      </trkpt>
      <trkpt lat="50.1231" lon="4.1622">
        <ele>194.8</ele>
        <time>2024-05-04T08:53:42Z</time>
      </trkpt>
      <trkpt lat="50.12307" lon="4.16213">
        <ele>195.2</ele>
        <time>2024-05-04T08:53:43Z</time>
      </trkpt>
      <trkpt lat="50.12304" lon="4.16206">
        <ele>195.4</ele>
        <time>2024-05-04T08:53:44Z</time>
      </trkpt>
      <trkpt lat="50.12301" lon="4.162">
        <ele>195.8</ele>
        <time>2024-05-04T08:53:45Z</time>
      </trkpt>
      <trkpt lat="50.12298" lon="4.16194">
        <ele>196</ele>
        <time>2024-05-04T08:53:46Z</time>
      </trkpt>
      <trkpt lat="50.12295" lon="4.16188">
        <ele>196.2</ele>
        <time>2024-05-04T08:53:47Z</time>
      </trkpt>
      <trkpt lat="50.12292" lon="4.16183">
        <ele>196.4</ele>
        <time>2024-05-04T08:53:48Z</time>
      </trkpt>
      <trkpt lat="50.12288" lon="4.16177">
        <ele>196.6</ele>
        <time>2024-05-04T08:53:49Z</time>
      </trkpt>
      <trkpt lat="50.12285" lon="4.16172">
        <ele>196.8</ele>
        <time>2024-05-04T08:53:50Z</time>
      </trkpt>
      <trkpt lat="50.12281" lon="4.16166">
        <ele>197</ele>
        <time>2024-05-04T08:53:51Z</time>
      </trkpt>
      <trkpt lat="50.12278" lon="4.1616">
        <ele>197</ele>
        <time>2024-05-04T08:53:52Z</time>
      </trkpt>
      <trkpt lat="50.12274" lon="4.16155">
        <ele>197.2</ele>
        <time>2024-05-04T08:53:53Z</time>
      </trkpt>
      <trkpt lat="50.12271" lon="4.16149">
        <ele>197.4</ele>
        <time>2024-05-04T08:53:54Z</time>
      </trkpt>
      <trkpt lat="50.12267" lon="4.16143">
        <ele>198</ele>
        <time>2024-05-04T08:53:55Z</time>
      </trkpt>
      <trkpt lat="50.12263" lon="4.16138">
        <ele>198.2</ele>
        <time>2024-05-04T08:53:56Z</time>
      </trkpt>
      <trkpt lat="50.1226" lon="4.16132">
        <ele>198.2</ele>
        <time>2024-05-04T08:53:57Z</time>
      </trkpt>
      <trkpt lat="50.12256" lon="4.16127">
        <ele>198.6</ele>
        <time>2024-05-04T08:53:58Z</time>
      </trkpt>
      <trkpt lat="50.12253" lon="4.16121">
        <ele>198.8</ele>
        <time>2024-05-04T08:53:59Z</time>
      </trkpt>
      <trkpt lat="50.12249" lon="4.16115">
        <ele>199</ele>
        <time>2024-05-04T08:54:00Z</time>
      </trkpt>
      <trkpt lat="50.12245" lon="4.16109">
        <ele>199</ele>
        <time>2024-05-04T08:54:01Z</time>
      </trkpt>
      <trkpt lat="50.12242" lon="4.16103">
        <ele>199.2</ele>
        <time>2024-05-04T08:54:02Z</time>
      </trkpt>
      <trkpt lat="50.12238" lon="4.16097">
        <ele>199.4</ele>
        <time>2024-05-04T08:54:03Z</time>
      </trkpt>
      <trkpt lat="50.12234" lon="4.16091">
        <ele>199.4</ele>
        <time>2024-05-04T08:54:04Z</time>
      </trkpt>
      <trkpt lat="50.1223" lon="4.16085">
        <ele>199.4</ele>
        <time>2024-05-04T08:54:05Z</time>
      </trkpt>
      <trkpt lat="50.12226" lon="4.16079">
        <ele>199.6</ele>
        <time>2024-05-04T08:54:06Z</time>
      </trkpt>
      <trkpt lat="50.12222" lon="4.16073">
        <ele>199.6</ele>
        <time>2024-05-04T08:54:07Z</time>
      </trkpt>
      <trkpt lat="50.12218" lon="4.16067">
        <ele>199.8</ele>
        <time>2024-05-04T08:54:08Z</time>
      </trkpt>
      <trkpt lat="50.12215" lon="4.16061">
        <ele>199.8</ele>
        <time>2024-05-04T08:54:09Z</time>
      </trkpt>
      <trkpt lat="50.12211" lon="4.16054">
        <ele>200</ele>
        <time>2024-05-04T08:54:10Z</time>
      </trkpt>
      <trkpt lat="50.12207" lon="4.16048">
        <ele>200.4</ele>
        <time>2024-05-04T08:54:11Z</time>
      </trkpt>
      <trkpt lat="50.12203" lon="4.16042">
        <ele>200.6</ele>
        <time>2024-05-04T08:54:12Z</time>
      </trkpt>
      <trkpt lat="50.12199" lon="4.16036">
        <ele>200.8</ele>
        <time>2024-05-04T08:54:13Z</time>
      </trkpt>
      <trkpt lat="50.12195" lon="4.1603">
        <ele>200.8</ele>
        <time>2024-05-04T08:54:14Z</time>
      </trkpt>
      <trkpt lat="50.12191" lon="4.16023">
        <ele>200.8</ele>
        <time>2024-05-04T08:54:15Z</time>
      </trkpt>
      <trkpt lat="50.12187" lon="4.16017">
        <ele>201</ele>
        <time>2024-05-04T08:54:16Z</time>
      </trkpt>
      <trkpt lat="50.12183" lon="4.1601">
        <ele>201</ele>
        <time>2024-05-04T08:54:17Z</time>
      </trkpt>
      <trkpt lat="50.12179" lon="4.16004">
        <ele>201</ele>
        <time>2024-05-04T08:54:18Z</time>
      </trkpt>
      <trkpt lat="50.12175" lon="4.15997">
        <ele>201.2</ele>
        <time>2024-05-04T08:54:19Z</time>
      </trkpt>
      <trkpt lat="50.12172" lon="4.1599">
        <ele>201.2</ele>
        <time>2024-05-04T08:54:20Z</time>
      </trkpt>
      <trkpt lat="50.12169" lon="4.15983">
        <ele>201.2</ele>
        <time>2024-05-04T08:54:21Z</time>
      </trkpt>
      <trkpt lat="50.12167" lon="4.15975">
        <ele>201.2</ele>
        <time>2024-05-04T08:54:22Z</time>
      </trkpt>
      <trkpt lat="50.12165" lon="4.15968">
        <ele>201.4</ele>
        <time>2024-05-04T08:54:23Z</time>
      </trkpt>
      <trkpt lat="50.12163" lon="4.1596">
        <ele>201.4</ele>
        <time>2024-05-04T08:54:24Z</time>
      </trkpt>
      <trkpt lat="50.12161" lon="4.15953">
        <ele>201.4</ele>
        <time>2024-05-04T08:54:25Z</time>
      </trkpt>
      <trkpt lat="50.12161" lon="4.15946">
        <ele>201.4</ele>
        <time>2024-05-04T08:54:26Z</time>
      </trkpt>
      <trkpt lat="50.1216" lon="4.15939">
        <ele>201.4</ele>
        <time>2024-05-04T08:54:27Z</time>
      </trkpt>
      <trkpt lat="50.1216" lon="4.15932">
        <ele>201.6</ele>
        <time>2024-05-04T08:54:28Z</time>
      </trkpt>
      <trkpt lat="50.1216" lon="4.15924">
        <ele>201.8</ele>
        <time>2024-05-04T08:54:29Z</time>
      </trkpt>
      <trkpt lat="50.1216" lon="4.15917">
        <ele>201.8</ele>
        <time>2024-05-04T08:54:30Z</time>
      </trkpt>
      <trkpt lat="50.12161" lon="4.1591">
        <ele>202</ele>
        <time>2024-05-04T08:54:31Z</time>
      </trkpt>
      <trkpt lat="50.12162" lon="4.15902">
        <ele>202.4</ele>
        <time>2024-05-04T08:54:32Z</time>
      </trkpt>
      <trkpt lat="50.12163" lon="4.15895">
        <ele>202.8</ele>
        <time>2024-05-04T08:54:33Z</time>
      </trkpt>
      <trkpt lat="50.12164" lon="4.15888">
        <ele>202.8</ele>
        <time>2024-05-04T08:54:34Z</time>
      </trkpt>
      <trkpt lat="50.12166" lon="4.15881">
        <ele>203.2</ele>
        <time>2024-05-04T08:54:35Z</time>
      </trkpt>
      <trkpt lat="50.12168" lon="4.15874">
        <ele>203.6</ele>
        <time>2024-05-04T08:54:36Z</time>
      </trkpt>
      <trkpt lat="50.1217" lon="4.15866">
        <ele>204</ele>
        <time>2024-05-04T08:54:37Z</time>
      </trkpt>
      <trkpt lat="50.12172" lon="4.15859">
        <ele>204.6</ele>
        <time>2024-05-04T08:54:38Z</time>
      </trkpt>
      <trkpt lat="50.12174" lon="4.15851">
        <ele>205</ele>
        <time>2024-05-04T08:54:39Z</time>
      </trkpt>
      <trkpt lat="50.12176" lon="4.15844">
        <ele>205.2</ele>
        <time>2024-05-04T08:54:40Z</time>
      </trkpt>
      <trkpt lat="50.12178" lon="4.15836">
        <ele>205.4</ele>
        <time>2024-05-04T08:54:41Z</time>
      </trkpt>
      <trkpt lat="50.1218" lon="4.15828">
        <ele>205.4</ele>
        <time>2024-05-04T08:54:42Z</time>
      </trkpt>
      <trkpt lat="50.12183" lon="4.1582">
        <ele>205.6</ele>
        <time>2024-05-04T08:54:43Z</time>
      </trkpt>
      <trkpt lat="50.12185" lon="4.15811">
        <ele>205.8</ele>
        <time>2024-05-04T08:54:44Z</time>
      </trkpt>
      <trkpt lat="50.12188" lon="4.15802">
        <ele>205.8</ele>
        <time>2024-05-04T08:54:45Z</time>
      </trkpt>
      <trkpt lat="50.12191" lon="4.15793">
        <ele>205.8</ele>
        <time>2024-05-04T08:54:46Z</time>
      </trkpt>
      <trkpt lat="50.12194" lon="4.15783">
        <ele>205.8</ele>
        <time>2024-05-04T08:54:47Z</time>
      </trkpt>
      <trkpt lat="50.12197" lon="4.15772">
        <ele>205.6</ele>
        <time>2024-05-04T08:54:48Z</time>
      </trkpt>
      <trkpt lat="50.122" lon="4.15762">
        <ele>205.8</ele>
        <time>2024-05-04T08:54:49Z</time>
      </trkpt>
      <trkpt lat="50.12203" lon="4.1575">
        <ele>206</ele>
        <time>2024-05-04T08:54:50Z</time>
      </trkpt>
      <trkpt lat="50.12206" lon="4.15738">
        <ele>205.8</ele>
        <time>2024-05-04T08:54:51Z</time>
      </trkpt>
      <trkpt lat="50.12209" lon="4.15726">
        <ele>205.8</ele>
        <time>2024-05-04T08:54:52Z</time>
      </trkpt>
      <trkpt lat="50.12213" lon="4.15713">
        <ele>205.8</ele>
        <time>2024-05-04T08:54:53Z</time>
      </trkpt>
      <trkpt lat="50.12216" lon="4.15699">
        <ele>205.4</ele>
        <time>2024-05-04T08:54:54Z</time>
      </trkpt>
      <trkpt lat="50.12219" lon="4.15685">
        <ele>204.8</ele>
        <time>2024-05-04T08:54:55Z</time>
      </trkpt>
      <trkpt lat="50.12222" lon="4.1567">
        <ele>204.4</ele>
        <time>2024-05-04T08:54:56Z</time>
      </trkpt>
      <trkpt lat="50.12225" lon="4.15654">
        <ele>204</ele>
        <time>2024-05-04T08:54:57Z</time>
      </trkpt>
      <trkpt lat="50.12228" lon="4.15638">
        <ele>204</ele>
        <time>2024-05-04T08:54:58Z</time>
      </trkpt>
      <trkpt lat="50.12231" lon="4.15621">
        <ele>203.2</ele>
        <time>2024-05-04T08:54:59Z</time>
      </trkpt>
      <trkpt lat="50.12233" lon="4.15604">
        <ele>202.6</ele>
        <time>2024-05-04T08:55:00Z</time>
      </trkpt>
      <trkpt lat="50.12236" lon="4.15586">
        <ele>201.6</ele>
        <time>2024-05-04T08:55:01Z</time>
      </trkpt>
      <trkpt lat="50.12239" lon="4.15568">
        <ele>200.8</ele>
        <time>2024-05-04T08:55:02Z</time>
      </trkpt>
      <trkpt lat="50.12243" lon="4.15549">
        <ele>200.2</ele>
        <time>2024-05-04T08:55:03Z</time>
      </trkpt>
      <trkpt lat="50.12248" lon="4.15531">
        <ele>199.6</ele>
        <time>2024-05-04T08:55:04Z</time>
      </trkpt>
      <trkpt lat="50.12253" lon="4.15514">
        <ele>198.4</ele>
        <time>2024-05-04T08:55:05Z</time>
      </trkpt>
      <trkpt lat="50.1226" lon="4.15497">
        <ele>197.4</ele>
        <time>2024-05-04T08:55:06Z</time>
      </trkpt>
      <trkpt lat="50.12268" lon="4.1548">
        <ele>196</ele>
        <time>2024-05-04T08:55:07Z</time>
      </trkpt>
      <trkpt lat="50.12276" lon="4.15463">
        <ele>195</ele>
        <time>2024-05-04T08:55:08Z</time>
      </trkpt>
      <trkpt lat="50.12284" lon="4.15447">
        <ele>193.8</ele>
        <time>2024-05-04T08:55:09Z</time>
      </trkpt>
      <trkpt lat="50.12292" lon="4.1543">
        <ele>192</ele>
        <time>2024-05-04T08:55:10Z</time>
      </trkpt>
      <trkpt lat="50.123" lon="4.15414">
        <ele>190.6</ele>
        <time>2024-05-04T08:55:11Z</time>
      </trkpt>
      <trkpt lat="50.12309" lon="4.15399">
        <ele>188.8</ele>
        <time>2024-05-04T08:55:12Z</time>
      </trkpt>
      <trkpt lat="50.12318" lon="4.15384">
        <ele>187.4</ele>
        <time>2024-05-04T08:55:13Z</time>
      </trkpt>
      <trkpt lat="50.12327" lon="4.15369">
        <ele>186</ele>
        <time>2024-05-04T08:55:14Z</time>
      </trkpt>
      <trkpt lat="50.12336" lon="4.15356">
        <ele>186</ele>
        <time>2024-05-04T08:55:15Z</time>
      </trkpt>
      <trkpt lat="50.12346" lon="4.15344">
        <ele>185.2</ele>
        <time>2024-05-04T08:55:16Z</time>
      </trkpt>
      <trkpt lat="50.12355" lon="4.15332">
        <ele>184.6</ele>
        <time>2024-05-04T08:55:17Z</time>
      </trkpt>
      <trkpt lat="50.12364" lon="4.15321">
        <ele>184.2</ele>
        <time>2024-05-04T08:55:18Z</time>
      </trkpt>
      <trkpt lat="50.12373" lon="4.15311">
        <ele>184.2</ele>
        <time>2024-05-04T08:55:19Z</time>
      </trkpt>
      <trkpt lat="50.12381" lon="4.153">
        <ele>184.2</ele>
        <time>2024-05-04T08:55:20Z</time>
      </trkpt>
      <trkpt lat="50.12389" lon="4.15291">
        <ele>184</ele>
        <time>2024-05-04T08:55:21Z</time>
      </trkpt>
      <trkpt lat="50.12397" lon="4.15283">
        <ele>184</ele>
        <time>2024-05-04T08:55:22Z</time>
      </trkpt>
      <trkpt lat="50.12404" lon="4.15275">
        <ele>184</ele>
        <time>2024-05-04T08:55:23Z</time>
      </trkpt>
      <trkpt lat="50.1241" lon="4.15268">
        <ele>184</ele>
        <time>2024-05-04T08:55:24Z</time>
      </trkpt>
      <trkpt lat="50.12417" lon="4.1526">
        <ele>184</ele>
        <time>2024-05-04T08:55:25Z</time>
      </trkpt>
      <trkpt lat="50.12423" lon="4.15253">
        <ele>184</ele>
        <time>2024-05-04T08:55:26Z</time>
      </trkpt>
      <trkpt lat="50.12428" lon="4.15246">
        <ele>184</ele>
        <time>2024-05-04T08:55:27Z</time>
      </trkpt>
      <trkpt lat="50.12433" lon="4.1524">
        <ele>184.2</ele>
        <time>2024-05-04T08:55:28Z</time>
      </trkpt>
      <trkpt lat="50.12438" lon="4.15235">
        <ele>184.6</ele>
        <time>2024-05-04T08:55:29Z</time>
      </trkpt>
      <trkpt lat="50.12443" lon="4.15229">
        <ele>185.4</ele>
        <time>2024-05-04T08:55:30Z</time>
      </trkpt>
      <trkpt lat="50.12448" lon="4.15224">
        <ele>185.8</ele>
        <time>2024-05-04T08:55:31Z</time>
      </trkpt>
      <trkpt lat="50.12452" lon="4.15219">
        <ele>186.8</ele>
        <time>2024-05-04T08:55:32Z</time>
      </trkpt>
      <trkpt lat="50.12457" lon="4.15214">
        <ele>186.8</ele>
        <time>2024-05-04T08:55:33Z</time>
      </trkpt>
      <trkpt lat="50.12461" lon="4.15209">
        <ele>187.6</ele>
        <time>2024-05-04T08:55:34Z</time>
      </trkpt>
      <trkpt lat="50.12465" lon="4.15204">
        <ele>188.2</ele>
        <time>2024-05-04T08:55:35Z</time>
      </trkpt>
      <trkpt lat="50.12469" lon="4.152">
        <ele>189</ele>
        <time>2024-05-04T08:55:36Z</time>
      </trkpt>
      <trkpt lat="50.12472" lon="4.15196">
        <ele>189.6</ele>
        <time>2024-05-04T08:55:37Z</time>
      </trkpt>
      <trkpt lat="50.12476" lon="4.15192">
        <ele>190.2</ele>
        <time>2024-05-04T08:55:38Z</time>
      </trkpt>
      <trkpt lat="50.12479" lon="4.15187">
        <ele>190.8</ele>
        <time>2024-05-04T08:55:39Z</time>
      </trkpt>
      <trkpt lat="50.12482" lon="4.15183">
        <ele>191.6</ele>
        <time>2024-05-04T08:55:40Z</time>
      </trkpt>
      <trkpt lat="50.12485" lon="4.15178">
        <ele>192</ele>
        <time>2024-05-04T08:55:41Z</time>
      </trkpt>
      <trkpt lat="50.12488" lon="4.15174">
        <ele>192.6</ele>
        <time>2024-05-04T08:55:42Z</time>
      </trkpt>
      <trkpt lat="50.12491" lon="4.15169">
        <ele>193.4</ele>
        <time>2024-05-04T08:55:43Z</time>
      </trkpt>
      <trkpt lat="50.12494" lon="4.15165">
        <ele>193.6</ele>
        <time>2024-05-04T08:55:44Z</time>
      </trkpt>
      <trkpt lat="50.12497" lon="4.1516">
        <ele>194.2</ele>
        <time>2024-05-04T08:55:45Z</time>
      </trkpt>
      <trkpt lat="50.12499" lon="4.15155">
        <ele>194.4</ele>
        <time>2024-05-04T08:55:46Z</time>
      </trkpt>
      <trkpt lat="50.12502" lon="4.1515">
        <ele>194.8</ele>
        <time>2024-05-04T08:55:47Z</time>
      </trkpt>
      <trkpt lat="50.12504" lon="4.15146">
        <ele>194.8</ele>
        <time>2024-05-04T08:55:48Z</time>
      </trkpt>
      <trkpt lat="50.12507" lon="4.15141">
        <ele>194.8</ele>
        <time>2024-05-04T08:55:49Z</time>
      </trkpt>
      <trkpt lat="50.12509" lon="4.15136">
        <ele>195</ele>
        <time>2024-05-04T08:55:50Z</time>
      </trkpt>
      <trkpt lat="50.12511" lon="4.15132">
        <ele>195.4</ele>
        <time>2024-05-04T08:55:51Z</time>
      </trkpt>
      <trkpt lat="50.12513" lon="4.15127">
        <ele>195.8</ele>
        <time>2024-05-04T08:55:52Z</time>
      </trkpt>
      <trkpt lat="50.12515" lon="4.15123">
        <ele>196.2</ele>
        <time>2024-05-04T08:55:53Z</time>
      </trkpt>
      <trkpt lat="50.12517" lon="4.15118">
        <ele>196.4</ele>
        <time>2024-05-04T08:55:54Z</time>
      </trkpt>
      <trkpt lat="50.12519" lon="4.15114">
        <ele>196.6</ele>
        <time>2024-05-04T08:55:55Z</time>
      </trkpt>
      <trkpt lat="50.12521" lon="4.15109">
        <ele>197.4</ele>
        <time>2024-05-04T08:55:56Z</time>
      </trkpt>
      <trkpt lat="50.12523" lon="4.15104">
        <ele>198.2</ele>
        <time>2024-05-04T08:55:57Z</time>
      </trkpt>
      <trkpt lat="50.12525" lon="4.15099">
        <ele>198.8</ele>
        <time>2024-05-04T08:55:58Z</time>
      </trkpt>
      <trkpt lat="50.12527" lon="4.15094">
        <ele>199.2</ele>
        <time>2024-05-04T08:55:59Z</time>
      </trkpt>
      <trkpt lat="50.12529" lon="4.15089">
        <ele>199.8</ele>
        <time>2024-05-04T08:56:00Z</time>
      </trkpt>
      <trkpt lat="50.12531" lon="4.15085">
        <ele>200</ele>
        <time>2024-05-04T08:56:01Z</time>
      </trkpt>
      <trkpt lat="50.12532" lon="4.1508">
        <ele>200.6</ele>
        <time>2024-05-04T08:56:02Z</time>
      </trkpt>
      <trkpt lat="50.12534" lon="4.15075">
        <ele>201</ele>
        <time>2024-05-04T08:56:03Z</time>
      </trkpt>
      <trkpt lat="50.12536" lon="4.1507">
        <ele>201.2</ele>
        <time>2024-05-04T08:56:04Z</time>
      </trkpt>
      <trkpt lat="50.12538" lon="4.15065">
        <ele>201.2</ele>
        <time>2024-05-04T08:56:05Z</time>
      </trkpt>
      <trkpt lat="50.1254" lon="4.15061">
        <ele>201.6</ele>
        <time>2024-05-04T08:56:06Z</time>
      </trkpt>
      <trkpt lat="50.12541" lon="4.15056">
        <ele>201.8</ele>
        <time>2024-05-04T08:56:07Z</time>
      </trkpt>
      <trkpt lat="50.12543" lon="4.15051">
        <ele>202</ele>
        <time>2024-05-04T08:56:08Z</time>
      </trkpt>
      <trkpt lat="50.12544" lon="4.15046">
        <ele>202.4</ele>
        <time>2024-05-04T08:56:09Z</time>
      </trkpt>
      <trkpt lat="50.12545" lon="4.1504">
        <ele>202.4</ele>
        <time>2024-05-04T08:56:10Z</time>
      </trkpt>
      <trkpt lat="50.12546" lon="4.15035">
        <ele>202.6</ele>
        <time>2024-05-04T08:56:11Z</time>
      </trkpt>
      <trkpt lat="50.12547" lon="4.1503">
        <ele>203</ele>
        <time>2024-05-04T08:56:12Z</time>
      </trkpt>
      <trkpt lat="50.12548" lon="4.15025">
        <ele>203.4</ele>
        <time>2024-05-04T08:56:13Z</time>
      </trkpt>
      <trkpt lat="50.12549" lon="4.15019">
        <ele>203.8</ele>
        <time>2024-05-04T08:56:14Z</time>
      </trkpt>
      <trkpt lat="50.12549" lon="4.15014">
        <ele>204</ele>
        <time>2024-05-04T08:56:15Z</time>
      </trkpt>
      <trkpt lat="50.1255" lon="4.15008">
        <ele>204.2</ele>
        <time>2024-05-04T08:56:16Z</time>
      </trkpt>
      <trkpt lat="50.1255" lon="4.15002">
        <ele>205.2</ele>
        <time>2024-05-04T08:56:17Z</time>
      </trkpt>
      <trkpt lat="50.1255" lon="4.14997">
        <ele>205.6</ele>
        <time>2024-05-04T08:56:18Z</time>
      </trkpt>
      <trkpt lat="50.1255" lon="4.14991">
        <ele>205.8</ele>
        <time>2024-05-04T08:56:19Z</time>
      </trkpt>
      <trkpt lat="50.1255" lon="4.14985">
        <ele>206</ele>
        <time>2024-05-04T08:56:20Z</time>
      </trkpt>
      <trkpt lat="50.1255" lon="4.1498">
        <ele>206</ele>
        <time>2024-05-04T08:56:21Z</time>
      </trkpt>
      <trkpt lat="50.12549" lon="4.14974">
        <ele>206.2</ele>
        <time>2024-05-04T08:56:22Z</time>
      </trkpt>
      <trkpt lat="50.12549" lon="4.14969">
        <ele>206.4</ele>
        <time>2024-05-04T08:56:23Z</time>
      </trkpt>
      <trkpt lat="50.12548" lon="4.14963">
        <ele>206.6</ele>
        <time>2024-05-04T08:56:24Z</time>
      </trkpt>
      <trkpt lat="50.12548" lon="4.14958">
        <ele>206.8</ele>
        <time>2024-05-04T08:56:25Z</time>
      </trkpt>
      <trkpt lat="50.12547" lon="4.14953">
        <ele>207</ele>
        <time>2024-05-04T08:56:26Z</time>
      </trkpt>
      <trkpt lat="50.12546" lon="4.14947">
        <ele>207</ele>
        <time>2024-05-04T08:56:27Z</time>
      </trkpt>
      <trkpt lat="50.12545" lon="4.14942">
        <ele>207.2</ele>
        <time>2024-05-04T08:56:28Z</time>
      </trkpt>
      <trkpt lat="50.12544" lon="4.14937">
        <ele>207.2</ele>
        <time>2024-05-04T08:56:29Z</time>
      </trkpt>
      <trkpt lat="50.12543" lon="4.14932">
        <ele>207.6</ele>
        <time>2024-05-04T08:56:30Z</time>
      </trkpt>
      <trkpt lat="50.12542" lon="4.14926">
        <ele>207.8</ele>
        <time>2024-05-04T08:56:31Z</time>
      </trkpt>
      <trkpt lat="50.12541" lon="4.14921">
        <ele>208</ele>
        <time>2024-05-04T08:56:32Z</time>
      </trkpt>
      <trkpt lat="50.1254" lon="4.14915">
        <ele>208.4</ele>
        <time>2024-05-04T08:56:33Z</time>
      </trkpt>
      <trkpt lat="50.12539" lon="4.1491">
        <ele>208.6</ele>
        <time>2024-05-04T08:56:34Z</time>
      </trkpt>
      <trkpt lat="50.12538" lon="4.14904">
        <ele>208.8</ele>
        <time>2024-05-04T08:56:35Z</time>
      </trkpt>
      <trkpt lat="50.12536" lon="4.14898">
        <ele>209.2</ele>
        <time>2024-05-04T08:56:36Z</time>
      </trkpt>
      <trkpt lat="50.12535" lon="4.14892">
        <ele>209.4</ele>
        <time>2024-05-04T08:56:37Z</time>
      </trkpt>
      <trkpt lat="50.12534" lon="4.14887">
        <ele>209.4</ele>
        <time>2024-05-04T08:56:38Z</time>
      </trkpt>
      <trkpt lat="50.12533" lon="4.14881">
        <ele>209.6</ele>
        <time>2024-05-04T08:56:39Z</time>
      </trkpt>
      <trkpt lat="50.12531" lon="4.14876">
        <ele>210</ele>
        <time>2024-05-04T08:56:40Z</time>
      </trkpt>
      <trkpt lat="50.1253" lon="4.1487">
        <ele>210.6</ele>
        <time>2024-05-04T08:56:41Z</time>
      </trkpt>
      <trkpt lat="50.12529" lon="4.14865">
        <ele>210.8</ele>
        <time>2024-05-04T08:56:42Z</time>
      </trkpt>
      <trkpt lat="50.12528" lon="4.1486">
        <ele>211</ele>
        <time>2024-05-04T08:56:43Z</time>
      </trkpt>
      <trkpt lat="50.12527" lon="4.14854">
        <ele>211</ele>
        <time>2024-05-04T08:56:44Z</time>
      </trkpt>
      <trkpt lat="50.12526" lon="4.14849">
        <ele>211.6</ele>
        <time>2024-05-04T08:56:45Z</time>
      </trkpt>
      <trkpt lat="50.12525" lon="4.14844">
        <ele>211.8</ele>
        <time>2024-05-04T08:56:46Z</time>
      </trkpt>
      <trkpt lat="50.12524" lon="4.14839">
        <ele>212.6</ele>
        <time>2024-05-04T08:56:47Z</time>
      </trkpt>
      <trkpt lat="50.12523" lon="4.14834">
        <ele>213</ele>
        <time>2024-05-04T08:56:48Z</time>
      </trkpt>
      <trkpt lat="50.12522" lon="4.14829">
        <ele>213.6</ele>
        <time>2024-05-04T08:56:49Z</time>
      </trkpt>
      <trkpt lat="50.12521" lon="4.14824">
        <ele>214</ele>
        <time>2024-05-04T08:56:50Z</time>
      </trkpt>
      <trkpt lat="50.1252" lon="4.14819">
        <ele>214.2</ele>
        <time>2024-05-04T08:56:51Z</time>
      </trkpt>
      <trkpt lat="50.12519" lon="4.14813">
        <ele>214.6</ele>
        <time>2024-05-04T08:56:52Z</time>
      </trkpt>
      <trkpt lat="50.12518" lon="4.14808">
        <ele>214.6</ele>
        <time>2024-05-04T08:56:53Z</time>
      </trkpt>
      <trkpt lat="50.12518" lon="4.14803">
        <ele>215</ele>
        <time>2024-05-04T08:56:54Z</time>
      </trkpt>
      <trkpt lat="50.12518" lon="4.14798">
        <ele>215.2</ele>
        <time>2024-05-04T08:56:55Z</time>
      </trkpt>
      <trkpt lat="50.12518" lon="4.14793">
        <ele>215.2</ele>
        <time>2024-05-04T08:56:56Z</time>
      </trkpt>
      <trkpt lat="50.12518" lon="4.14788">
        <ele>215.6</ele>
        <time>2024-05-04T08:56:57Z</time>
      </trkpt>
      <trkpt lat="50.12518" lon="4.14783">
        <ele>215.4</ele>
        <time>2024-05-04T08:56:58Z</time>
      </trkpt>
      <trkpt lat="50.12518" lon="4.14778">
        <ele>215.6</ele>
        <time>2024-05-04T08:56:59Z</time>
      </trkpt>
      <trkpt lat="50.12518" lon="4.14773">
        <ele>215.8</ele>
        <time>2024-05-04T08:57:00Z</time>
      </trkpt>
      <trkpt lat="50.12518" lon="4.14768">
        <ele>215.8</ele>
        <time>2024-05-04T08:57:01Z</time>
      </trkpt>
      <trkpt lat="50.12517" lon="4.14763">
        <ele>215.8</ele>
        <time>2024-05-04T08:57:02Z</time>
      </trkpt>
      <trkpt lat="50.12516" lon="4.14759">
        <ele>216</ele>
        <time>2024-05-04T08:57:03Z</time>
      </trkpt>
      <trkpt lat="50.12515" lon="4.14755">
        <ele>216</ele>
        <time>2024-05-04T08:57:04Z</time>
      </trkpt>
      <trkpt lat="50.12512" lon="4.14751">
        <ele>216.2</ele>
        <time>2024-05-04T08:57:05Z</time>
      </trkpt>
      <trkpt lat="50.1251" lon="4.14749">
        <ele>216.2</ele>
        <time>2024-05-04T08:57:06Z</time>
      </trkpt>
      <trkpt lat="50.12507" lon="4.14747">
        <ele>216.2</ele>
        <time>2024-05-04T08:57:07Z</time>
      </trkpt>
      <trkpt lat="50.12503" lon="4.14745">
        <ele>216.4</ele>
        <time>2024-05-04T08:57:08Z</time>
      </trkpt>
      <trkpt lat="50.125" lon="4.14745">
        <ele>216.6</ele>
        <time>2024-05-04T08:57:09Z</time>
      </trkpt>
      <trkpt lat="50.12496" lon="4.14745">
        <ele>217</ele>
        <time>2024-05-04T08:57:10Z</time>
      </trkpt>
      <trkpt lat="50.12491" lon="4.14745">
        <ele>217.6</ele>
        <time>2024-05-04T08:57:11Z</time>
      </trkpt>
      <trkpt lat="50.12487" lon="4.14745">
        <ele>218</ele>
        <time>2024-05-04T08:57:12Z</time>
      </trkpt>
      <trkpt lat="50.12482" lon="4.14744">
        <ele>218</ele>
        <time>2024-05-04T08:57:13Z</time>
      </trkpt>
      <trkpt lat="50.12478" lon="4.14742">
        <ele>218</ele>
        <time>2024-05-04T08:57:14Z</time>
      </trkpt>
      <trkpt lat="50.12473" lon="4.1474">
        <ele>218.2</ele>
        <time>2024-05-04T08:57:15Z</time>
      </trkpt>
      <trkpt lat="50.12469" lon="4.14737">
        <ele>218.2</ele>
        <time>2024-05-04T08:57:16Z</time>
      </trkpt>
      <trkpt lat="50.12465" lon="4.14734">
        <ele>218.2</ele>
        <time>2024-05-04T08:57:17Z</time>
      </trkpt>
      <trkpt lat="50.12461" lon="4.14731">
        <ele>218.8</ele>
        <time>2024-05-04T08:57:18Z</time>
      </trkpt>
      <trkpt lat="50.12456" lon="4.14727">
        <ele>218.8</ele>
        <time>2024-05-04T08:57:19Z</time>
      </trkpt>
      <trkpt lat="50.12452" lon="4.14723">
        <ele>219</ele>
        <time>2024-05-04T08:57:20Z</time>
      </trkpt>
      <trkpt lat="50.12448" lon="4.14719">
        <ele>219.4</ele>
        <time>2024-05-04T08:57:21Z</time>
      </trkpt>
      <trkpt lat="50.12444" lon="4.14715">
        <ele>219.4</ele>
        <time>2024-05-04T08:57:22Z</time>
      </trkpt>
      <trkpt lat="50.1244" lon="4.14711">
        <ele>219.6</ele>
        <time>2024-05-04T08:57:23Z</time>
      </trkpt>
      <trkpt lat="50.12436" lon="4.14706">
        <ele>219.4</ele>
        <time>2024-05-04T08:57:24Z</time>
      </trkpt>
      <trkpt lat="50.12432" lon="4.14701">
        <ele>219.6</ele>
        <time>2024-05-04T08:57:25Z</time>
      </trkpt>
      <trkpt lat="50.12428" lon="4.14696">
        <ele>219.4</ele>
        <time>2024-05-04T08:57:26Z</time>
      </trkpt>
      <trkpt lat="50.12424" lon="4.14691">
        <ele>219.8</ele>
        <time>2024-05-04T08:57:27Z</time>
      </trkpt>
      <trkpt lat="50.1242" lon="4.14685">
        <ele>219.8</ele>
        <time>2024-05-04T08:57:28Z</time>
      </trkpt>
      <trkpt lat="50.12416" lon="4.14679">
        <ele>220</ele>
        <time>2024-05-04T08:57:29Z</time>
      </trkpt>
      <trkpt lat="50.12413" lon="4.14672">
        <ele>220.2</ele>
        <time>2024-05-04T08:57:30Z</time>
      </trkpt>
      <trkpt lat="50.12409" lon="4.14665">
        <ele>220.4</ele>
        <time>2024-05-04T08:57:31Z</time>
      </trkpt>
      <trkpt lat="50.12406" lon="4.14658">
        <ele>220.4</ele>
        <time>2024-05-04T08:57:32Z</time>
      </trkpt>
      <trkpt lat="50.12402" lon="4.1465">
        <ele>220.8</ele>
        <time>2024-05-04T08:57:33Z</time>
      </trkpt>
      <trkpt lat="50.12398" lon="4.14642">
        <ele>220.8</ele>
        <time>2024-05-04T08:57:34Z</time>
      </trkpt>
      <trkpt lat="50.12394" lon="4.14634">
        <ele>220.8</ele>
        <time>2024-05-04T08:57:35Z</time>
      </trkpt>
      <trkpt lat="50.1239" lon="4.14625">
        <ele>220.8</ele>
        <time>2024-05-04T08:57:36Z</time>
      </trkpt>
      <trkpt lat="50.12386" lon="4.14616">
        <ele>220.8</ele>
        <time>2024-05-04T08:57:37Z</time>
      </trkpt>
      <trkpt lat="50.12382" lon="4.14607">
        <ele>220.8</ele>
        <time>2024-05-04T08:57:38Z</time>
      </trkpt>
      <trkpt lat="50.12377" lon="4.14598">
        <ele>220.8</ele>
        <time>2024-05-04T08:57:39Z</time>
      </trkpt>
      <trkpt lat="50.12373" lon="4.14588">
        <ele>221</ele>
        <time>2024-05-04T08:57:40Z</time>
      </trkpt>
      <trkpt lat="50.12368" lon="4.14578">
        <ele>220.8</ele>
        <time>2024-05-04T08:57:41Z</time>
      </trkpt>
      <trkpt lat="50.12363" lon="4.14568">
        <ele>220.8</ele>
        <time>2024-05-04T08:57:42Z</time>
      </trkpt>
      <trkpt lat="50.12358" lon="4.14558">
        <ele>220.8</ele>
        <time>2024-05-04T08:57:43Z</time>
      </trkpt>
      <trkpt lat="50.12353" lon="4.14547">
        <ele>220.6</ele>
        <time>2024-05-04T08:57:44Z</time>
      </trkpt>
      <trkpt lat="50.12348" lon="4.14536">
        <ele>220</ele>
        <time>2024-05-04T08:57:45Z</time>
      </trkpt>
      <trkpt lat="50.12343" lon="4.14524">
        <ele>219.6</ele>
        <time>2024-05-04T08:57:46Z</time>
      </trkpt>
      <trkpt lat="50.12337" lon="4.14513">
        <ele>219.6</ele>
        <time>2024-05-04T08:57:47Z</time>
      </trkpt>
      <trkpt lat="50.12332" lon="4.14501">
        <ele>219.2</ele>
        <time>2024-05-04T08:57:48Z</time>
      </trkpt>
      <trkpt lat="50.12326" lon="4.14488">
        <ele>218.8</ele>
        <time>2024-05-04T08:57:49Z</time>
      </trkpt>
      <trkpt lat="50.1232" lon="4.14475">
        <ele>218</ele>
        <time>2024-05-04T08:57:50Z</time>
      </trkpt>
      <trkpt lat="50.12314" lon="4.14463">
        <ele>217.8</ele>
        <time>2024-05-04T08:57:51Z</time>
      </trkpt>
      <trkpt lat="50.12308" lon="4.1445">
        <ele>217</ele>
        <time>2024-05-04T08:57:52Z</time>
      </trkpt>
      <trkpt lat="50.12302" lon="4.14437">
        <ele>216.6</ele>
        <time>2024-05-04T08:57:53Z</time>
      </trkpt>
      <trkpt lat="50.12296" lon="4.14424">
        <ele>216</ele>
        <time>2024-05-04T08:57:54Z</time>
      </trkpt>
      <trkpt lat="50.12289" lon="4.14411">
        <ele>215.4</ele>
        <time>2024-05-04T08:57:55Z</time>
      </trkpt>
      <trkpt lat="50.12283" lon="4.14398">
        <ele>214.6</ele>
        <time>2024-05-04T08:57:56Z</time>
      </trkpt>
      <trkpt lat="50.12278" lon="4.14386">
        <ele>214</ele>
        <time>2024-05-04T08:57:57Z</time>
      </trkpt>
      <trkpt lat="50.12272" lon="4.14373">
        <ele>213.6</ele>
        <time>2024-05-04T08:57:58Z</time>
      </trkpt>
      <trkpt lat="50.12266" lon="4.14361">
        <ele>213.2</ele>
        <time>2024-05-04T08:57:59Z</time>
      </trkpt>
      <trkpt lat="50.12261" lon="4.1435">
        <ele>212.4</ele>
        <time>2024-05-04T08:58:00Z</time>
      </trkpt>
      <trkpt lat="50.12256" lon="4.14339">
        <ele>212.2</ele>
        <time>2024-05-04T08:58:01Z</time>
      </trkpt>
      <trkpt lat="50.12251" lon="4.14328">
        <ele>212</ele>
        <time>2024-05-04T08:58:02Z</time>
      </trkpt>
      <trkpt lat="50.12246" lon="4.14318">
        <ele>212</ele>
        <time>2024-05-04T08:58:03Z</time>
      </trkpt>
      <trkpt lat="50.12242" lon="4.14308">
        <ele>212</ele>
        <time>2024-05-04T08:58:04Z</time>
      </trkpt>
      <trkpt lat="50.12238" lon="4.14299">
        <ele>212</ele>
        <time>2024-05-04T08:58:05Z</time>
      </trkpt>
      <trkpt lat="50.12234" lon="4.1429">
        <ele>212</ele>
        <time>2024-05-04T08:58:06Z</time>
      </trkpt>
      <trkpt lat="50.1223" lon="4.14281">
        <ele>212</ele>
        <time>2024-05-04T08:58:07Z</time>
      </trkpt>
      <trkpt lat="50.12227" lon="4.14274">
        <ele>211.8</ele>
        <time>2024-05-04T08:58:08Z</time>
      </trkpt>
      <trkpt lat="50.12224" lon="4.14267">
        <ele>212</ele>
        <time>2024-05-04T08:58:09Z</time>
      </trkpt>
      <trkpt lat="50.12221" lon="4.1426">
        <ele>211.8</ele>
        <time>2024-05-04T08:58:10Z</time>
      </trkpt>
      <trkpt lat="50.12218" lon="4.14254">
        <ele>212.2</ele>
        <time>2024-05-04T08:58:11Z</time>
      </trkpt>
      <trkpt lat="50.12215" lon="4.14248">
        <ele>212.4</ele>
        <time>2024-05-04T08:58:12Z</time>
      </trkpt>
      <trkpt lat="50.12213" lon="4.14242">
        <ele>212.6</ele>
        <time>2024-05-04T08:58:13Z</time>
      </trkpt>
      <trkpt lat="50.12211" lon="4.14237">
        <ele>213.6</ele>
        <time>2024-05-04T08:58:14Z</time>
      </trkpt>
      <trkpt lat="50.1221" lon="4.14232">
        <ele>214.2</ele>
        <time>2024-05-04T08:58:15Z</time>
      </trkpt>
      <trkpt lat="50.12208" lon="4.14227">
        <ele>214.6</ele>
        <time>2024-05-04T08:58:16Z</time>
      </trkpt>
      <trkpt lat="50.12206" lon="4.14223">
        <ele>215.6</ele>
        <time>2024-05-04T08:58:17Z</time>
      </trkpt>
      <trkpt lat="50.12204" lon="4.14219">
        <ele>216</ele>
        <time>2024-05-04T08:58:18Z</time>
      </trkpt>
      <trkpt lat="50.12202" lon="4.14214">
        <ele>216.8</ele>
        <time>2024-05-04T08:58:19Z</time>
      </trkpt>
      <trkpt lat="50.12199" lon="4.1421">
        <ele>217.2</ele>
        <time>2024-05-04T08:58:20Z</time>
      </trkpt>
      <trkpt lat="50.12196" lon="4.14204">
        <ele>217.2</ele>
        <time>2024-05-04T08:58:21Z</time>
      </trkpt>
      <trkpt lat="50.12194" lon="4.14199">
        <ele>217.6</ele>
        <time>2024-05-04T08:58:22Z</time>
      </trkpt>
      <trkpt lat="50.12191" lon="4.14194">
        <ele>218.2</ele>
        <time>2024-05-04T08:58:23Z</time>
      </trkpt>
      <trkpt lat="50.12189" lon="4.14188">
        <ele>219</ele>
        <time>2024-05-04T08:58:24Z</time>
      </trkpt>
      <trkpt lat="50.12186" lon="4.14183">
        <ele>219.4</ele>
        <time>2024-05-04T08:58:25Z</time>
      </trkpt>
      <trkpt lat="50.12184" lon="4.14177">
        <ele>220</ele>
        <time>2024-05-04T08:58:26Z</time>
      </trkpt>
      <trkpt lat="50.12181" lon="4.14171">
        <ele>220.4</ele>
        <time>2024-05-04T08:58:27Z</time>
      </trkpt>
      <trkpt lat="50.12179" lon="4.14164">
        <ele>221</ele>
        <time>2024-05-04T08:58:28Z</time>
      </trkpt>
      <trkpt lat="50.12177" lon="4.14158">
        <ele>221.2</ele>
        <time>2024-05-04T08:58:29Z</time>
      </trkpt>
      <trkpt lat="50.12174" lon="4.14151">
        <ele>221.6</ele>
        <time>2024-05-04T08:58:30Z</time>
      </trkpt>
      <trkpt lat="50.12172" lon="4.14145">
        <ele>221.8</ele>
        <time>2024-05-04T08:58:31Z</time>
      </trkpt>
      <trkpt lat="50.1217" lon="4.14139">
        <ele>222</ele>
        <time>2024-05-04T08:58:32Z</time>
      </trkpt>
      <trkpt lat="50.12168" lon="4.14133">
        <ele>222.2</ele>
        <time>2024-05-04T08:58:33Z</time>
      </trkpt>
      <trkpt lat="50.12166" lon="4.14127">
        <ele>222.4</ele>
        <time>2024-05-04T08:58:34Z</time>
      </trkpt>
      <trkpt lat="50.12164" lon="4.1412">
        <ele>222.8</ele>
        <time>2024-05-04T08:58:35Z</time>
      </trkpt>
      <trkpt lat="50.12162" lon="4.14114">
        <ele>223</ele>
        <time>2024-05-04T08:58:36Z</time>
      </trkpt>
      <trkpt lat="50.12161" lon="4.14107">
        <ele>223.4</ele>
        <time>2024-05-04T08:58:37Z</time>
      </trkpt>
      <trkpt lat="50.12159" lon="4.14101">
        <ele>223.6</ele>
        <time>2024-05-04T08:58:38Z</time>
      </trkpt>
      <trkpt lat="50.12157" lon="4.14094">
        <ele>223.6</ele>
        <time>2024-05-04T08:58:39Z</time>
      </trkpt>
      <trkpt lat="50.12156" lon="4.14086">
        <ele>223.6</ele>
        <time>2024-05-04T08:58:40Z</time>
      </trkpt>
      <trkpt lat="50.12154" lon="4.14079">
        <ele>223.8</ele>
        <time>2024-05-04T08:58:41Z</time>
      </trkpt>
      <trkpt lat="50.12153" lon="4.14071">
        <ele>223.8</ele>
        <time>2024-05-04T08:58:42Z</time>
      </trkpt>
      <trkpt lat="50.12152" lon="4.14063">
        <ele>224</ele>
        <time>2024-05-04T08:58:43Z</time>
      </trkpt>
      <trkpt lat="50.1215" lon="4.14055">
        <ele>224</ele>
        <time>2024-05-04T08:58:44Z</time>
      </trkpt>
      <trkpt lat="50.12149" lon="4.14046">
        <ele>223.8</ele>
        <time>2024-05-04T08:58:45Z</time>
      </trkpt>
      <trkpt lat="50.12148" lon="4.14037">
        <ele>224</ele>
        <time>2024-05-04T08:58:46Z</time>
      </trkpt>
      <trkpt lat="50.12147" lon="4.14027">
        <ele>224.2</ele>
        <time>2024-05-04T08:58:47Z</time>
      </trkpt>
      <trkpt lat="50.12146" lon="4.14017">
        <ele>223.8</ele>
        <time>2024-05-04T08:58:48Z</time>
      </trkpt>
      <trkpt lat="50.12145" lon="4.14007">
        <ele>224</ele>
        <time>2024-05-04T08:58:49Z</time>
      </trkpt>
      <trkpt lat="50.12144" lon="4.13996">
        <ele>224</ele>
        <time>2024-05-04T08:58:50Z</time>
      </trkpt>
      <trkpt lat="50.12144" lon="4.13985">
        <ele>223.8</ele>
        <time>2024-05-04T08:58:51Z</time>
      </trkpt>
      <trkpt lat="50.12144" lon="4.13973">
        <ele>224</ele>
        <time>2024-05-04T08:58:52Z</time>
      </trkpt>
      <trkpt lat="50.12144" lon="4.13962">
        <ele>223.8</ele>
        <time>2024-05-04T08:58:53Z</time>
      </trkpt>
      <trkpt lat="50.12144" lon="4.13949">
        <ele>223.8</ele>
        <time>2024-05-04T08:58:54Z</time>
      </trkpt>
      <trkpt lat="50.12145" lon="4.13937">
        <ele>223.8</ele>
        <time>2024-05-04T08:58:55Z</time>
      </trkpt>
      <trkpt lat="50.12146" lon="4.13924">
        <ele>223.8</ele>
        <time>2024-05-04T08:58:56Z</time>
      </trkpt>
      <trkpt lat="50.12148" lon="4.1391">
        <ele>223.4</ele>
        <time>2024-05-04T08:58:57Z</time>
      </trkpt>
      <trkpt lat="50.1215" lon="4.13896">
        <ele>223</ele>
        <time>2024-05-04T08:58:58Z</time>
      </trkpt>
      <trkpt lat="50.12152" lon="4.13882">
        <ele>222.2</ele>
        <time>2024-05-04T08:58:59Z</time>
      </trkpt>
      <trkpt lat="50.12155" lon="4.13867">
        <ele>221.6</ele>
        <time>2024-05-04T08:59:00Z</time>
      </trkpt>
      <trkpt lat="50.12159" lon="4.13852">
        <ele>221</ele>
        <time>2024-05-04T08:59:01Z</time>
      </trkpt>
      <trkpt lat="50.12163" lon="4.13836">
        <ele>220.4</ele>
        <time>2024-05-04T08:59:02Z</time>
      </trkpt>
      <trkpt lat="50.12168" lon="4.1382">
        <ele>220</ele>
        <time>2024-05-04T08:59:03Z</time>
      </trkpt>
      <trkpt lat="50.12173" lon="4.13805">
        <ele>219.4</ele>
        <time>2024-05-04T08:59:04Z</time>
      </trkpt>
      <trkpt lat="50.12179" lon="4.1379">
        <ele>219.2</ele>
        <time>2024-05-04T08:59:05Z</time>
      </trkpt>
      <trkpt lat="50.12185" lon="4.13774">
        <ele>218.4</ele>
        <time>2024-05-04T08:59:06Z</time>
      </trkpt>
      <trkpt lat="50.12192" lon="4.13759">
        <ele>217.4</ele>
        <time>2024-05-04T08:59:07Z</time>
      </trkpt>
      <trkpt lat="50.122" lon="4.13743">
        <ele>216</ele>
        <time>2024-05-04T08:59:08Z</time>
      </trkpt>
      <trkpt lat="50.12208" lon="4.13727">
        <ele>214.2</ele>
        <time>2024-05-04T08:59:09Z</time>
      </trkpt>
      <trkpt lat="50.12216" lon="4.13711">
        <ele>213.2</ele>
        <time>2024-05-04T08:59:10Z</time>
      </trkpt>
      <trkpt lat="50.12224" lon="4.13694">
        <ele>211.2</ele>
        <time>2024-05-04T08:59:11Z</time>
      </trkpt>
      <trkpt lat="50.12232" lon="4.13678">
        <ele>211.2</ele>
        <time>2024-05-04T08:59:12Z</time>
      </trkpt>
      <trkpt lat="50.12239" lon="4.13662">
        <ele>210.2</ele>
        <time>2024-05-04T08:59:13Z</time>
      </trkpt>
      <trkpt lat="50.12247" lon="4.13647">
        <ele>209</ele>
        <time>2024-05-04T08:59:14Z</time>
      </trkpt>
      <trkpt lat="50.12254" lon="4.13632">
        <ele>207.4</ele>
        <time>2024-05-04T08:59:15Z</time>
      </trkpt>
      <trkpt lat="50.12261" lon="4.13617">
        <ele>205.8</ele>
        <time>2024-05-04T08:59:16Z</time>
      </trkpt>
      <trkpt lat="50.12268" lon="4.13603">
        <ele>204</ele>
        <time>2024-05-04T08:59:17Z</time>
      </trkpt>
      <trkpt lat="50.12275" lon="4.1359">
        <ele>202.6</ele>
        <time>2024-05-04T08:59:18Z</time>
      </trkpt>
      <trkpt lat="50.12281" lon="4.13577">
        <ele>202</ele>
        <time>2024-05-04T08:59:19Z</time>
      </trkpt>
      <trkpt lat="50.12287" lon="4.13564">
        <ele>201.4</ele>
        <time>2024-05-04T08:59:20Z</time>
      </trkpt>
      <trkpt lat="50.12293" lon="4.13552">
        <ele>201.2</ele>
        <time>2024-05-04T08:59:21Z</time>
      </trkpt>
      <trkpt lat="50.12299" lon="4.1354">
        <ele>201</ele>
        <time>2024-05-04T08:59:22Z</time>
      </trkpt>
      <trkpt lat="50.12304" lon="4.13528">
        <ele>201</ele>
        <time>2024-05-04T08:59:23Z</time>
      </trkpt>
      <trkpt lat="50.1231" lon="4.13517">
        <ele>201</ele>
        <time>2024-05-04T08:59:24Z</time>
      </trkpt>
      <trkpt lat="50.12314" lon="4.13507">
        <ele>200.8</ele>
        <time>2024-05-04T08:59:25Z</time>
      </trkpt>
      <trkpt lat="50.12319" lon="4.13497">
        <ele>201</ele>
        <time>2024-05-04T08:59:26Z</time>
      </trkpt>
      <trkpt lat="50.12323" lon="4.13488">
        <ele>200.8</ele>
        <time>2024-05-04T08:59:27Z</time>
      </trkpt>
      <trkpt lat="50.12327" lon="4.1348">
        <ele>200.8</ele>
        <time>2024-05-04T08:59:28Z</time>
      </trkpt>
      <trkpt lat="50.1233" lon="4.13471">
        <ele>201</ele>
        <time>2024-05-04T08:59:29Z</time>
      </trkpt>
      <trkpt lat="50.12334" lon="4.13464">
        <ele>201.4</ele>
        <time>2024-05-04T08:59:30Z</time>
      </trkpt>
      <trkpt lat="50.12337" lon="4.13456">
        <ele>202</ele>
        <time>2024-05-04T08:59:31Z</time>
      </trkpt>
      <trkpt lat="50.1234" lon="4.13449">
        <ele>203</ele>
        <time>2024-05-04T08:59:32Z</time>
      </trkpt>
      <trkpt lat="50.12343" lon="4.13441">
        <ele>203.4</ele>
        <time>2024-05-04T08:59:33Z</time>
      </trkpt>
      <trkpt lat="50.12346" lon="4.13433">
        <ele>204</ele>
        <time>2024-05-04T08:59:34Z</time>
      </trkpt>
      <trkpt lat="50.12349" lon="4.13426">
        <ele>204.4</ele>
        <time>2024-05-04T08:59:35Z</time>
      </trkpt>
      <trkpt lat="50.12351" lon="4.13418">
        <ele>204.6</ele>
        <time>2024-05-04T08:59:36Z</time>
      </trkpt>
      <trkpt lat="50.12354" lon="4.13411">
        <ele>205.2</ele>
        <time>2024-05-04T08:59:37Z</time>
      </trkpt>
      <trkpt lat="50.12356" lon="4.13402">
        <ele>205.8</ele>
        <time>2024-05-04T08:59:38Z</time>
      </trkpt>
      <trkpt lat="50.12359" lon="4.13395">
        <ele>207.4</ele>
        <time>2024-05-04T08:59:39Z</time>
      </trkpt>
      <trkpt lat="50.12361" lon="4.13387">
        <ele>209.2</ele>
        <time>2024-05-04T08:59:40Z</time>
      </trkpt>
      <trkpt lat="50.12363" lon="4.1338">
        <ele>210.4</ele>
        <time>2024-05-04T08:59:41Z</time>
      </trkpt>
      <trkpt lat="50.12366" lon="4.13373">
        <ele>211.2</ele>
        <time>2024-05-04T08:59:42Z</time>
      </trkpt>
      <trkpt lat="50.12368" lon="4.13365">
        <ele>212</ele>
        <time>2024-05-04T08:59:43Z</time>
      </trkpt>
      <trkpt lat="50.1237" lon="4.13358">
        <ele>212.4</ele>
        <time>2024-05-04T08:59:44Z</time>
      </trkpt>
      <trkpt lat="50.12372" lon="4.13351">
        <ele>212.4</ele>
        <time>2024-05-04T08:59:45Z</time>
      </trkpt>
      <trkpt lat="50.12374" lon="4.13343">
        <ele>212.8</ele>
        <time>2024-05-04T08:59:46Z</time>
      </trkpt>
      <trkpt lat="50.12377" lon="4.13335">
        <ele>213.2</ele>
        <time>2024-05-04T08:59:47Z</time>
      </trkpt>
      <trkpt lat="50.12379" lon="4.13327">
        <ele>213.6</ele>
        <time>2024-05-04T08:59:48Z</time>
      </trkpt>
      <trkpt lat="50.12381" lon="4.1332">
        <ele>214.4</ele>
        <time>2024-05-04T08:59:49Z</time>
      </trkpt>
      <trkpt lat="50.12383" lon="4.13312">
        <ele>215</ele>
        <time>2024-05-04T08:59:50Z</time>
      </trkpt>
      <trkpt lat="50.12386" lon="4.13304">
        <ele>215.6</ele>
        <time>2024-05-04T08:59:51Z</time>
      </trkpt>
      <trkpt lat="50.12388" lon="4.13297">
        <ele>216</ele>
        <time>2024-05-04T08:59:52Z</time>
      </trkpt>
      <trkpt lat="50.1239" lon="4.13289">
        <ele>216.4</ele>
        <time>2024-05-04T08:59:53Z</time>
      </trkpt>
      <trkpt lat="50.12392" lon="4.13282">
        <ele>216.8</ele>
        <time>2024-05-04T08:59:54Z</time>
      </trkpt>
      <trkpt lat="50.12394" lon="4.13274">
        <ele>217</ele>
        <time>2024-05-04T08:59:55Z</time>
      </trkpt>
      <trkpt lat="50.12397" lon="4.13267">
        <ele>217.2</ele>
        <time>2024-05-04T08:59:56Z</time>
      </trkpt>
      <trkpt lat="50.12399" lon="4.13259">
        <ele>217.4</ele>
        <time>2024-05-04T08:59:57Z</time>
      </trkpt>
      <trkpt lat="50.12401" lon="4.13251">
        <ele>217.8</ele>
        <time>2024-05-04T08:59:58Z</time>
      </trkpt>
      <trkpt lat="50.12403" lon="4.13244">
        <ele>218</ele>
        <time>2024-05-04T08:59:59Z</time>
      </trkpt>
      <trkpt lat="50.12406" lon="4.13236">
        <ele>218</ele>
        <time>2024-05-04T09:00:00Z</time>
      </trkpt>
      <trkpt lat="50.12408" lon="4.13228">
        <ele>218</ele>
        <time>2024-05-04T09:00:01Z</time>
      </trkpt>
      <trkpt lat="50.12411" lon="4.1322">
        <ele>218.2</ele>
        <time>2024-05-04T09:00:02Z</time>
      </trkpt>
      <trkpt lat="50.12413" lon="4.13211">
        <ele>218.6</ele>
        <time>2024-05-04T09:00:03Z</time>
      </trkpt>
      <trkpt lat="50.12415" lon="4.13203">
        <ele>219</ele>
        <time>2024-05-04T09:00:04Z</time>
      </trkpt>
      <trkpt lat="50.12417" lon="4.13195">
        <ele>219</ele>
        <time>2024-05-04T09:00:05Z</time>
      </trkpt>
      <trkpt lat="50.1242" lon="4.13187">
        <ele>219.2</ele>
        <time>2024-05-04T09:00:06Z</time>
      </trkpt>
      <trkpt lat="50.12422" lon="4.13178">
        <ele>219</ele>
        <time>2024-05-04T09:00:07Z</time>
      </trkpt>
      <trkpt lat="50.12425" lon="4.1317">
        <ele>219.2</ele>
        <time>2024-05-04T09:00:08Z</time>
      </trkpt>
      <trkpt lat="50.12428" lon="4.13161">
        <ele>219.2</ele>
        <time>2024-05-04T09:00:09Z</time>
      </trkpt>
      <trkpt lat="50.1243" lon="4.13151">
        <ele>219.2</ele>
        <time>2024-05-04T09:00:10Z</time>
      </trkpt>
      <trkpt lat="50.12433" lon="4.13142">
        <ele>219.2</ele>
        <time>2024-05-04T09:00:11Z</time>
      </trkpt>
      <trkpt lat="50.12435" lon="4.13132">
        <ele>219.2</ele>
        <time>2024-05-04T09:00:12Z</time>
      </trkpt>
      <trkpt lat="50.12438" lon="4.13122">
        <ele>219.4</ele>
        <time>2024-05-04T09:00:13Z</time>
      </trkpt>
      <trkpt lat="50.12441" lon="4.13112">
        <ele>219.2</ele>
        <time>2024-05-04T09:00:14Z</time>
      </trkpt>
      <trkpt lat="50.12443" lon="4.13101">
        <ele>219.4</ele>
        <time>2024-05-04T09:00:15Z</time>
      </trkpt>
      <trkpt lat="50.12446" lon="4.1309">
        <ele>219.2</ele>
        <time>2024-05-04T09:00:16Z</time>
      </trkpt>
      <trkpt lat="50.12448" lon="4.13079">
        <ele>219.4</ele>
        <time>2024-05-04T09:00:17Z</time>
      </trkpt>
      <trkpt lat="50.12451" lon="4.13067">
        <ele>219.4</ele>
        <time>2024-05-04T09:00:18Z</time>
      </trkpt>
      <trkpt lat="50.12453" lon="4.13054">
        <ele>219.2</ele>
        <time>2024-05-04T09:00:19Z</time>
      </trkpt>
      <trkpt lat="50.12455" lon="4.13041">
        <ele>219</ele>
        <time>2024-05-04T09:00:20Z</time>
      </trkpt>
      <trkpt lat="50.12457" lon="4.13027">
        <ele>218.8</ele>
        <time>2024-05-04T09:00:21Z</time>
      </trkpt>
      <trkpt lat="50.1246" lon="4.13012">
        <ele>218.6</ele>
        <time>2024-05-04T09:00:22Z</time>
      </trkpt>
      <trkpt lat="50.12462" lon="4.12996">
        <ele>218.2</ele>
        <time>2024-05-04T09:00:23Z</time>
      </trkpt>
      <trkpt lat="50.12464" lon="4.1298">
        <ele>218</ele>
        <time>2024-05-04T09:00:24Z</time>
      </trkpt>
      <trkpt lat="50.12467" lon="4.12963">
        <ele>217.4</ele>
        <time>2024-05-04T09:00:25Z</time>
      </trkpt>
      <trkpt lat="50.12469" lon="4.12945">
        <ele>216.8</ele>
        <time>2024-05-04T09:00:26Z</time>
      </trkpt>
      <trkpt lat="50.12472" lon="4.12927">
        <ele>216.2</ele>
        <time>2024-05-04T09:00:27Z</time>
      </trkpt>
      <trkpt lat="50.12474" lon="4.12907">
        <ele>215.4</ele>
        <time>2024-05-04T09:00:28Z</time>
      </trkpt>
      <trkpt lat="50.12477" lon="4.12888">
        <ele>214.8</ele>
        <time>2024-05-04T09:00:29Z</time>
      </trkpt>
      <trkpt lat="50.12479" lon="4.12867">
        <ele>213.4</ele>
        <time>2024-05-04T09:00:30Z</time>
      </trkpt>
      <trkpt lat="50.1248" lon="4.12846">
        <ele>212</ele>
        <time>2024-05-04T09:00:31Z</time>
      </trkpt>
      <trkpt lat="50.12481" lon="4.12824">
        <ele>210.6</ele>
        <time>2024-05-04T09:00:32Z</time>
      </trkpt>
      <trkpt lat="50.1248" lon="4.12803">
        <ele>209.2</ele>
        <time>2024-05-04T09:00:33Z</time>
      </trkpt>
      <trkpt lat="50.12479" lon="4.12783">
        <ele>207.8</ele>
        <time>2024-05-04T09:00:34Z</time>
      </trkpt>
      <trkpt lat="50.12476" lon="4.12762">
        <ele>206.2</ele>
        <time>2024-05-04T09:00:35Z</time>
      </trkpt>
      <trkpt lat="50.12473" lon="4.12743">
        <ele>206.2</ele>
        <time>2024-05-04T09:00:36Z</time>
      </trkpt>
      <trkpt lat="50.12469" lon="4.12724">
        <ele>205.2</ele>
        <time>2024-05-04T09:00:37Z</time>
      </trkpt>
      <trkpt lat="50.12465" lon="4.12706">
        <ele>203</ele>
        <time>2024-05-04T09:00:38Z</time>
      </trkpt>
      <trkpt lat="50.12459" lon="4.12689">
        <ele>201.2</ele>
        <time>2024-05-04T09:00:39Z</time>
      </trkpt>
      <trkpt lat="50.12454" lon="4.12673">
        <ele>200</ele>
        <time>2024-05-04T09:00:40Z</time>
      </trkpt>
      <trkpt lat="50.12447" lon="4.12659">
        <ele>198.6</ele>
        <time>2024-05-04T09:00:41Z</time>
      </trkpt>
      <trkpt lat="50.12441" lon="4.12645">
        <ele>197.4</ele>
        <time>2024-05-04T09:00:42Z</time>
      </trkpt>
      <trkpt lat="50.12434" lon="4.12633">
        <ele>196.8</ele>
        <time>2024-05-04T09:00:43Z</time>
      </trkpt>
      <trkpt lat="50.12427" lon="4.12622">
        <ele>196.6</ele>
        <time>2024-05-04T09:00:44Z</time>
      </trkpt>
      <trkpt lat="50.1242" lon="4.12611">
        <ele>196.4</ele>
        <time>2024-05-04T09:00:45Z</time>
      </trkpt>
      <trkpt lat="50.12414" lon="4.12601">
        <ele>196.4</ele>
        <time>2024-05-04T09:00:46Z</time>
      </trkpt>
      <trkpt lat="50.12409" lon="4.1259">
        <ele>196.4</ele>
        <time>2024-05-04T09:00:47Z</time>
      </trkpt>
      <trkpt lat="50.12405" lon="4.12579">
        <ele>196.4</ele>
        <time>2024-05-04T09:00:48Z</time>
      </trkpt>
      <trkpt lat="50.12402" lon="4.12568">
        <ele>196.2</ele>
        <time>2024-05-04T09:00:49Z</time>
      </trkpt>
      <trkpt lat="50.124" lon="4.12557">
        <ele>196.4</ele>
        <time>2024-05-04T09:00:50Z</time>
      </trkpt>
      <trkpt lat="50.12398" lon="4.12548">
        <ele>196.4</ele>
        <time>2024-05-04T09:00:51Z</time>
      </trkpt>
      <trkpt lat="50.12396" lon="4.12542">
        <ele>196.6</ele>
        <time>2024-05-04T09:00:52Z</time>
      </trkpt>
      <trkpt lat="50.12394" lon="4.12538">
        <ele>197</ele>
        <time>2024-05-04T09:00:53Z</time>
      </trkpt>
      <trkpt lat="50.12393" lon="4.12536">
        <ele>197.4</ele>
        <time>2024-05-04T09:00:54Z</time>
      </trkpt>
      <trkpt lat="50.12393" lon="4.12535">
        <ele>197.4</ele>
        <time>2024-05-04T09:00:55Z</time>
      </trkpt>
      <trkpt lat="50.12393" lon="4.12534">
        <ele>197.6</ele>
        <time>2024-05-04T09:00:56Z</time>
      </trkpt>
      <trkpt lat="50.12392" lon="4.12532">
        <ele>198.4</ele>
        <time>2024-05-04T09:00:57Z</time>
      </trkpt>
      <trkpt lat="50.12391" lon="4.12531">
        <ele>198.8</ele>
        <time>2024-05-04T09:00:58Z</time>
      </trkpt>
      <trkpt lat="50.12389" lon="4.12529">
        <ele>199.2</ele>
        <time>2024-05-04T09:00:59Z</time>
      </trkpt>
      <trkpt lat="50.12387" lon="4.12526">
        <ele>200</ele>
        <time>2024-05-04T09:01:00Z</time>
      </trkpt>
      <trkpt lat="50.12383" lon="4.12524">
        <ele>200.4</ele>
        <time>2024-05-04T09:01:01Z</time>
      </trkpt>
      <trkpt lat="50.12379" lon="4.12521">
        <ele>200.6</ele>
        <time>2024-05-04T09:01:02Z</time>
      </trkpt>
      <trkpt lat="50.12374" lon="4.12519">
        <ele>200.8</ele>
        <time>2024-05-04T09:01:03Z</time>
      </trkpt>
      <trkpt lat="50.12369" lon="4.12516">
        <ele>200.8</ele>
        <time>2024-05-04T09:01:04Z</time>
      </trkpt>
      <trkpt lat="50.12363" lon="4.12513">
        <ele>201</ele>
        <time>2024-05-04T09:01:05Z</time>
      </trkpt>
      <trkpt lat="50.12357" lon="4.1251">
        <ele>201</ele>
        <time>2024-05-04T09:01:06Z</time>
      </trkpt>
      <trkpt lat="50.12351" lon="4.12506">
        <ele>201</ele>
        <time>2024-05-04T09:01:07Z</time>
      </trkpt>
      <trkpt lat="50.12345" lon="4.12501">
        <ele>201</ele>
        <time>2024-05-04T09:01:08Z</time>
      </trkpt>
      <trkpt lat="50.12339" lon="4.12495">
        <ele>201</ele>
        <time>2024-05-04T09:01:09Z</time>
      </trkpt>
      <trkpt lat="50.12333" lon="4.12488">
        <ele>201</ele>
        <time>2024-05-04T09:01:10Z</time>
      </trkpt>
      <trkpt lat="50.12327" lon="4.1248">
        <ele>200.6</ele>
        <time>2024-05-04T09:01:11Z</time>
      </trkpt>
      <trkpt lat="50.12322" lon="4.12471">
        <ele>200.6</ele>
        <time>2024-05-04T09:01:12Z</time>
      </trkpt>
      <trkpt lat="50.12316" lon="4.12461">
        <ele>200.4</ele>
        <time>2024-05-04T09:01:13Z</time>
      </trkpt>
      <trkpt lat="50.12311" lon="4.1245">
        <ele>199.8</ele>
        <time>2024-05-04T09:01:14Z</time>
      </trkpt>
      <trkpt lat="50.12307" lon="4.12439">
        <ele>199</ele>
        <time>2024-05-04T09:01:15Z</time>
      </trkpt>
      <trkpt lat="50.12303" lon="4.12427">
        <ele>198.8</ele>
        <time>2024-05-04T09:01:16Z</time>
      </trkpt>
      <trkpt lat="50.12299" lon="4.12414">
        <ele>198.4</ele>
        <time>2024-05-04T09:01:17Z</time>
      </trkpt>
      <trkpt lat="50.12295" lon="4.12401">
        <ele>197.4</ele>
        <time>2024-05-04T09:01:18Z</time>
      </trkpt>
      <trkpt lat="50.12291" lon="4.12388">
        <ele>196.8</ele>
        <time>2024-05-04T09:01:19Z</time>
      </trkpt>
      <trkpt lat="50.12287" lon="4.12376">
        <ele>196.2</ele>
        <time>2024-05-04T09:01:20Z</time>
      </trkpt>
      <trkpt lat="50.12283" lon="4.12363">
        <ele>195.8</ele>
        <time>2024-05-04T09:01:21Z</time>
      </trkpt>
      <trkpt lat="50.12279" lon="4.1235">
        <ele>195.4</ele>
        <time>2024-05-04T09:01:22Z</time>
      </trkpt>
      <trkpt lat="50.12275" lon="4.12338">
        <ele>194.6</ele>
        <time>2024-05-04T09:01:23Z</time>
      </trkpt>
      <trkpt lat="50.12271" lon="4.12325">
        <ele>194</ele>
        <time>2024-05-04T09:01:24Z</time>
      </trkpt>
      <trkpt lat="50.12268" lon="4.12312">
        <ele>193.8</ele>
        <time>2024-05-04T09:01:25Z</time>
      </trkpt>
      <trkpt lat="50.12264" lon="4.123">
        <ele>193.4</ele>
        <time>2024-05-04T09:01:26Z</time>
      </trkpt>
      <trkpt lat="50.12261" lon="4.12287">
        <ele>193.2</ele>
        <time>2024-05-04T09:01:27Z</time>
      </trkpt>
      <trkpt lat="50.12258" lon="4.12275">
        <ele>193.2</ele>
        <time>2024-05-04T09:01:28Z</time>
      </trkpt>
      <trkpt lat="50.12255" lon="4.12262">
        <ele>193.2</ele>
        <time>2024-05-04T09:01:29Z</time>
      </trkpt>
      <trkpt lat="50.12252" lon="4.1225">
        <ele>193</ele>
        <time>2024-05-04T09:01:30Z</time>
      </trkpt>
      <trkpt lat="50.1225" lon="4.12237">
        <ele>193</ele>
        <time>2024-05-04T09:01:31Z</time>
      </trkpt>
      <trkpt lat="50.12248" lon="4.12224">
        <ele>193.2</ele>
        <time>2024-05-04T09:01:32Z</time>
      </trkpt>
      <trkpt lat="50.12246" lon="4.12212">
        <ele>192.8</ele>
        <time>2024-05-04T09:01:33Z</time>
      </trkpt>
      <trkpt lat="50.12245" lon="4.12199">
        <ele>192.8</ele>
        <time>2024-05-04T09:01:34Z</time>
      </trkpt>
      <trkpt lat="50.12243" lon="4.12186">
        <ele>192.6</ele>
        <time>2024-05-04T09:01:35Z</time>
      </trkpt>
      <trkpt lat="50.12242" lon="4.12173">
        <ele>192.6</ele>
        <time>2024-05-04T09:01:36Z</time>
      </trkpt>
      <trkpt lat="50.1224" lon="4.1216">
        <ele>192.4</ele>
        <time>2024-05-04T09:01:37Z</time>
      </trkpt>
      <trkpt lat="50.12239" lon="4.12147">
        <ele>192.4</ele>
        <time>2024-05-04T09:01:38Z</time>
      </trkpt>
      <trkpt lat="50.12238" lon="4.12134">
        <ele>192.4</ele>
        <time>2024-05-04T09:01:39Z</time>
      </trkpt>
      <trkpt lat="50.12237" lon="4.12121">
        <ele>192.4</ele>
        <time>2024-05-04T09:01:40Z</time>
      </trkpt>
      <trkpt lat="50.12236" lon="4.12108">
        <ele>192.2</ele>
        <time>2024-05-04T09:01:41Z</time>
      </trkpt>
      <trkpt lat="50.12235" lon="4.12095">
        <ele>192</ele>
        <time>2024-05-04T09:01:42Z</time>
      </trkpt>
      <trkpt lat="50.12233" lon="4.12082">
        <ele>192</ele>
        <time>2024-05-04T09:01:43Z</time>
      </trkpt>
      <trkpt lat="50.12232" lon="4.12069">
        <ele>192</ele>
        <time>2024-05-04T09:01:44Z</time>
      </trkpt>
      <trkpt lat="50.12231" lon="4.12056">
        <ele>192</ele>
        <time>2024-05-04T09:01:45Z</time>
      </trkpt>
      <trkpt lat="50.12229" lon="4.12043">
        <ele>192</ele>
        <time>2024-05-04T09:01:46Z</time>
      </trkpt>
      <trkpt lat="50.12228" lon="4.12029">
        <ele>192</ele>
        <time>2024-05-04T09:01:47Z</time>
      </trkpt>
      <trkpt lat="50.12226" lon="4.12015">
        <ele>192</ele>
        <time>2024-05-04T09:01:48Z</time>
      </trkpt>
      <trkpt lat="50.12223" lon="4.12001">
        <ele>191.8</ele>
        <time>2024-05-04T09:01:49Z</time>
      </trkpt>
      <trkpt lat="50.12221" lon="4.11988">
        <ele>191.8</ele>
        <time>2024-05-04T09:01:50Z</time>
      </trkpt>
      <trkpt lat="50.12218" lon="4.11974">
        <ele>191.4</ele>
        <time>2024-05-04T09:01:51Z</time>
      </trkpt>
      <trkpt lat="50.12215" lon="4.1196">
        <ele>191.2</ele>
        <time>2024-05-04T09:01:52Z</time>
      </trkpt>
      <trkpt lat="50.12213" lon="4.11946">
        <ele>191</ele>
        <time>2024-05-04T09:01:53Z</time>
      </trkpt>
      <trkpt lat="50.1221" lon="4.11931">
        <ele>190.8</ele>
        <time>2024-05-04T09:01:54Z</time>
      </trkpt>
      <trkpt lat="50.12207" lon="4.11917">
        <ele>190.2</ele>
        <time>2024-05-04T09:01:55Z</time>
      </trkpt>
      <trkpt lat="50.12204" lon="4.11903">
        <ele>189.6</ele>
        <time>2024-05-04T09:01:56Z</time>
      </trkpt>
      <trkpt lat="50.12201" lon="4.11889">
        <ele>189</ele>
        <time>2024-05-04T09:01:57Z</time>
      </trkpt>
      <trkpt lat="50.12198" lon="4.11875">
        <ele>188.4</ele>
        <time>2024-05-04T09:01:58Z</time>
      </trkpt>
      <trkpt lat="50.12195" lon="4.11861">
        <ele>187.8</ele>
        <time>2024-05-04T09:01:59Z</time>
      </trkpt>
      <trkpt lat="50.12193" lon="4.11848">
        <ele>187.2</ele>
        <time>2024-05-04T09:02:00Z</time>
      </trkpt>
      <trkpt lat="50.1219" lon="4.11835">
        <ele>187</ele>
        <time>2024-05-04T09:02:01Z</time>
      </trkpt>
      <trkpt lat="50.12187" lon="4.11823">
        <ele>187</ele>
        <time>2024-05-04T09:02:02Z</time>
      </trkpt>
      <trkpt lat="50.12185" lon="4.11811">
        <ele>186.6</ele>
        <time>2024-05-04T09:02:03Z</time>
      </trkpt>
      <trkpt lat="50.12182" lon="4.11799">
        <ele>186.2</ele>
        <time>2024-05-04T09:02:04Z</time>
      </trkpt>
      <trkpt lat="50.1218" lon="4.11788">
        <ele>185.8</ele>
        <time>2024-05-04T09:02:05Z</time>
      </trkpt>
      <trkpt lat="50.12178" lon="4.11777">
        <ele>186</ele>
        <time>2024-05-04T09:02:06Z</time>
      </trkpt>
      <trkpt lat="50.12175" lon="4.11766">
        <ele>185.8</ele>
        <time>2024-05-04T09:02:07Z</time>
      </trkpt>
      <trkpt lat="50.12173" lon="4.11755">
        <ele>185.8</ele>
        <time>2024-05-04T09:02:08Z</time>
      </trkpt>
      <trkpt lat="50.12171" lon="4.11744">
        <ele>185.8</ele>
        <time>2024-05-04T09:02:09Z</time>
      </trkpt>
      <trkpt lat="50.12169" lon="4.11734">
        <ele>185.6</ele>
        <time>2024-05-04T09:02:10Z</time>
      </trkpt>
      <trkpt lat="50.12167" lon="4.11724">
        <ele>185.8</ele>
        <time>2024-05-04T09:02:11Z</time>
      </trkpt>
      <trkpt lat="50.12165" lon="4.11714">
        <ele>185.6</ele>
        <time>2024-05-04T09:02:12Z</time>
      </trkpt>
      <trkpt lat="50.12164" lon="4.11706">
        <ele>185.6</ele>
        <time>2024-05-04T09:02:13Z</time>
      </trkpt>
      <trkpt lat="50.12162" lon="4.11698">
        <ele>185.8</ele>
        <time>2024-05-04T09:02:14Z</time>
      </trkpt>
      <trkpt lat="50.1216" lon="4.11692">
        <ele>185.8</ele>
        <time>2024-05-04T09:02:15Z</time>
      </trkpt>
      <trkpt lat="50.12159" lon="4.11686">
        <ele>185.8</ele>
        <time>2024-05-04T09:02:16Z</time>
      </trkpt>
      <trkpt lat="50.12157" lon="4.11682">
        <ele>185.8</ele>
        <time>2024-05-04T09:02:17Z</time>
      </trkpt>
      <trkpt lat="50.12155" lon="4.1168">
        <ele>185.8</ele>
        <time>2024-05-04T09:02:18Z</time>
      </trkpt>
      <trkpt lat="50.12153" lon="4.11682">
        <ele>185.8</ele>
        <time>2024-05-04T09:02:19Z</time>
      </trkpt>
      <trkpt lat="50.12153" lon="4.11684">
        <ele>185.6</ele>
        <time>2024-05-04T09:02:20Z</time>
      </trkpt>
      <trkpt lat="50.12154" lon="4.11689">
        <ele>185.6</ele>
        <time>2024-05-04T09:02:21Z</time>
      </trkpt>
      <trkpt lat="50.12155" lon="4.11694">
        <ele>185.6</ele>
        <time>2024-05-04T09:02:22Z</time>
      </trkpt>
      <trkpt lat="50.12156" lon="4.117">
        <ele>185.6</ele>
        <time>2024-05-04T09:02:23Z</time>
      </trkpt>
      <trkpt lat="50.12158" lon="4.11707">
        <ele>185.4</ele>
        <time>2024-05-04T09:02:24Z</time>
      </trkpt>
      <trkpt lat="50.12159" lon="4.11714">
        <ele>185.4</ele>
        <time>2024-05-04T09:02:25Z</time>
      </trkpt>
      <trkpt lat="50.12161" lon="4.11721">
        <ele>185.4</ele>
        <time>2024-05-04T09:02:26Z</time>
      </trkpt>
      <trkpt lat="50.12162" lon="4.11729">
        <ele>185.2</ele>
        <time>2024-05-04T09:02:27Z</time>
      </trkpt>
      <trkpt lat="50.12163" lon="4.11737">
        <ele>185.2</ele>
        <time>2024-05-04T09:02:28Z</time>
      </trkpt>
      <trkpt lat="50.12164" lon="4.11745">
        <ele>185.2</ele>
        <time>2024-05-04T09:02:29Z</time>
      </trkpt>
      <trkpt lat="50.12165" lon="4.11753">
        <ele>185.2</ele>
        <time>2024-05-04T09:02:30Z</time>
      </trkpt>
      <trkpt lat="50.12166" lon="4.1176">
        <ele>185.2</ele>
        <time>2024-05-04T09:02:31Z</time>
      </trkpt>
      <trkpt lat="50.12167" lon="4.11768">
        <ele>185.2</ele>
        <time>2024-05-04T09:02:32Z</time>
      </trkpt>
      <trkpt lat="50.12168" lon="4.11775">
        <ele>185</ele>
        <time>2024-05-04T09:02:33Z</time>
      </trkpt>
      <trkpt lat="50.1217" lon="4.11782">
        <ele>185</ele>
        <time>2024-05-04T09:02:34Z</time>
      </trkpt>
      <trkpt lat="50.12171" lon="4.11789">
        <ele>185</ele>
        <time>2024-05-04T09:02:35Z</time>
      </trkpt>
      <trkpt lat="50.12172" lon="4.11795">
        <ele>185.2</ele>
        <time>2024-05-04T09:02:36Z</time>
      </trkpt>
      <trkpt lat="50.12174" lon="4.11801">
        <ele>185.2</ele>
        <time>2024-05-04T09:02:37Z</time>
      </trkpt>
      <trkpt lat="50.12175" lon="4.11806">
        <ele>185.2</ele>
        <time>2024-05-04T09:02:38Z</time>
      </trkpt>
      <trkpt lat="50.12176" lon="4.11811">
        <ele>185.2</ele>
        <time>2024-05-04T09:02:39Z</time>
      </trkpt>
      <trkpt lat="50.12177" lon="4.11814">
        <ele>185.4</ele>
        <time>2024-05-04T09:02:40Z</time>
      </trkpt>
      <trkpt lat="50.12177" lon="4.11816">
        <ele>186</ele>
        <time>2024-05-04T09:02:41Z</time>
      </trkpt>
      <trkpt lat="50.12178" lon="4.11816">
        <ele>186.2</ele>
        <time>2024-05-04T09:02:42Z</time>
      </trkpt>
      <trkpt lat="50.12178" lon="4.11816">
        <ele>186.4</ele>
        <time>2024-05-04T09:02:43Z</time>
      </trkpt>
      <trkpt lat="50.12176" lon="4.1181">
        <ele>187.8</ele>
        <time>2024-05-04T09:04:59Z</time>
      </trkpt>
      <trkpt lat="50.12175" lon="4.11807">
        <ele>187.8</ele>
        <time>2024-05-04T09:05:00Z</time>
      </trkpt>
      <trkpt lat="50.12175" lon="4.11803">
        <ele>187.8</ele>
        <time>2024-05-04T09:05:01Z</time>
      </trkpt>
      <trkpt lat="50.12174" lon="4.11799">
        <ele>187.8</ele>
        <time>2024-05-04T09:05:02Z</time>
      </trkpt>
      <trkpt lat="50.12173" lon="4.11794">
        <ele>187.8</ele>
        <time>2024-05-04T09:05:03Z</time>
      </trkpt>
      <trkpt lat="50.12172" lon="4.11788">
        <ele>187.8</ele>
        <time>2024-05-04T09:05:04Z</time>
      </trkpt>
      <trkpt lat="50.1217" lon="4.11781">
        <ele>188</ele>
        <time>2024-05-04T09:05:05Z</time>
      </trkpt>
      <trkpt lat="50.12169" lon="4.11774">
        <ele>188</ele>
        <time>2024-05-04T09:05:06Z</time>
      </trkpt>
      <trkpt lat="50.12168" lon="4.11767">
        <ele>187.8</ele>
        <time>2024-05-04T09:05:07Z</time>
      </trkpt>
      <trkpt lat="50.12166" lon="4.11759">
        <ele>188</ele>
        <time>2024-05-04T09:05:08Z</time>
      </trkpt>
      <trkpt lat="50.12165" lon="4.11752">
        <ele>187.8</ele>
        <time>2024-05-04T09:05:09Z</time>
      </trkpt>
      <trkpt lat="50.12163" lon="4.11744">
        <ele>187.6</ele>
        <time>2024-05-04T09:05:10Z</time>
      </trkpt>
      <trkpt lat="50.12162" lon="4.11736">
        <ele>187.6</ele>
        <time>2024-05-04T09:05:11Z</time>
      </trkpt>
      <trkpt lat="50.1216" lon="4.11729">
        <ele>187.4</ele>
        <time>2024-05-04T09:05:12Z</time>
      </trkpt>
      <trkpt lat="50.12158" lon="4.11721">
        <ele>187.4</ele>
        <time>2024-05-04T09:05:13Z</time>
      </trkpt>
      <trkpt lat="50.12157" lon="4.11713">
        <ele>187.2</ele>
        <time>2024-05-04T09:05:14Z</time>
      </trkpt>
      <trkpt lat="50.12155" lon="4.11706">
        <ele>187</ele>
        <time>2024-05-04T09:05:15Z</time>
      </trkpt>
      <trkpt lat="50.12154" lon="4.11698">
        <ele>187</ele>
        <time>2024-05-04T09:05:16Z</time>
      </trkpt>
      <trkpt lat="50.12152" lon="4.11691">
        <ele>187</ele>
        <time>2024-05-04T09:05:17Z</time>
      </trkpt>
      <trkpt lat="50.12152" lon="4.11684">
        <ele>187</ele>
        <time>2024-05-04T09:05:18Z</time>
      </trkpt>
      <trkpt lat="50.12153" lon="4.11676">
        <ele>187</ele>
        <time>2024-05-04T09:05:19Z</time>
      </trkpt>
      <trkpt lat="50.12154" lon="4.11668">
        <ele>187</ele>
        <time>2024-05-04T09:05:20Z</time>
      </trkpt>
      <trkpt lat="50.12153" lon="4.1166">
        <ele>187</ele>
        <time>2024-05-04T09:05:21Z</time>
      </trkpt>
      <trkpt lat="50.12152" lon="4.11652">
        <ele>186.8</ele>
        <time>2024-05-04T09:05:22Z</time>
      </trkpt>
      <trkpt lat="50.12151" lon="4.11644">
        <ele>186.8</ele>
        <time>2024-05-04T09:05:23Z</time>
      </trkpt>
      <trkpt lat="50.12149" lon="4.11637">
        <ele>186.8</ele>
        <time>2024-05-04T09:05:24Z</time>
      </trkpt>
      <trkpt lat="50.12148" lon="4.1163">
        <ele>187</ele>
        <time>2024-05-04T09:05:25Z</time>
      </trkpt>
      <trkpt lat="50.12146" lon="4.11622">
        <ele>186.8</ele>
        <time>2024-05-04T09:05:26Z</time>
      </trkpt>
      <trkpt lat="50.12144" lon="4.11615">
        <ele>187</ele>
        <time>2024-05-04T09:05:27Z</time>
      </trkpt>
      <trkpt lat="50.12142" lon="4.11606">
        <ele>187</ele>
        <time>2024-05-04T09:05:28Z</time>
      </trkpt>
      <trkpt lat="50.1214" lon="4.11598">
        <ele>187</ele>
        <time>2024-05-04T09:05:29Z</time>
      </trkpt>
      <trkpt lat="50.12138" lon="4.11589">
        <ele>187.2</ele>
        <time>2024-05-04T09:05:30Z</time>
      </trkpt>
      <trkpt lat="50.12136" lon="4.1158">
        <ele>187</ele>
        <time>2024-05-04T09:05:31Z</time>
      </trkpt>
      <trkpt lat="50.12134" lon="4.11572">
        <ele>187</ele>
        <time>2024-05-04T09:05:32Z</time>
      </trkpt>
      <trkpt lat="50.12131" lon="4.11563">
        <ele>187.4</ele>
        <time>2024-05-04T09:05:33Z</time>
      </trkpt>
      <trkpt lat="50.12128" lon="4.11554">
        <ele>187.4</ele>
        <time>2024-05-04T09:05:34Z</time>
      </trkpt>
      <trkpt lat="50.12125" lon="4.11545">
        <ele>187.8</ele>
        <time>2024-05-04T09:05:35Z</time>
      </trkpt>
      <trkpt lat="50.12123" lon="4.11536">
        <ele>188</ele>
        <time>2024-05-04T09:05:36Z</time>
      </trkpt>
      <trkpt lat="50.1212" lon="4.11526">
        <ele>188</ele>
        <time>2024-05-04T09:05:37Z</time>
      </trkpt>
      <trkpt lat="50.12116" lon="4.11516">
        <ele>188.2</ele>
        <time>2024-05-04T09:05:38Z</time>
      </trkpt>
      <trkpt lat="50.12113" lon="4.11507">
        <ele>188.2</ele>
        <time>2024-05-04T09:05:39Z</time>
      </trkpt>
      <trkpt lat="50.1211" lon="4.11498">
        <ele>188.2</ele>
        <time>2024-05-04T09:05:40Z</time>
      </trkpt>
      <trkpt lat="50.12107" lon="4.11489">
        <ele>188.6</ele>
        <time>2024-05-04T09:05:41Z</time>
      </trkpt>
      <trkpt lat="50.12103" lon="4.1148">
        <ele>188.8</ele>
        <time>2024-05-04T09:05:42Z</time>
      </trkpt>
      <trkpt lat="50.121" lon="4.11471">
        <ele>189.2</ele>
        <time>2024-05-04T09:05:43Z</time>
      </trkpt>
      <trkpt lat="50.12097" lon="4.11461">
        <ele>189.4</ele>
        <time>2024-05-04T09:05:44Z</time>
      </trkpt>
      <trkpt lat="50.12094" lon="4.11452">
        <ele>190</ele>
        <time>2024-05-04T09:05:45Z</time>
      </trkpt>
      <trkpt lat="50.1209" lon="4.11443">
        <ele>190.2</ele>
        <time>2024-05-04T09:05:46Z</time>
      </trkpt>
      <trkpt lat="50.12087" lon="4.11433">
        <ele>190.4</ele>
        <time>2024-05-04T09:05:47Z</time>
      </trkpt>
      <trkpt lat="50.12083" lon="4.11424">
        <ele>190.4</ele>
        <time>2024-05-04T09:05:48Z</time>
      </trkpt>
      <trkpt lat="50.1208" lon="4.11414">
        <ele>190.4</ele>
        <time>2024-05-04T09:05:49Z</time>
      </trkpt>
      <trkpt lat="50.12077" lon="4.11405">
        <ele>190.8</ele>
        <time>2024-05-04T09:05:50Z</time>
      </trkpt>
      <trkpt lat="50.12074" lon="4.11395">
        <ele>191</ele>
        <time>2024-05-04T09:05:51Z</time>
      </trkpt>
      <trkpt lat="50.12071" lon="4.11385">
        <ele>191</ele>
        <time>2024-05-04T09:05:52Z</time>
      </trkpt>
      <trkpt lat="50.12067" lon="4.11376">
        <ele>191.2</ele>
        <time>2024-05-04T09:05:53Z</time>
      </trkpt>
      <trkpt lat="50.12064" lon="4.11365">
        <ele>191.6</ele>
        <time>2024-05-04T09:05:54Z</time>
      </trkpt>
      <trkpt lat="50.12061" lon="4.11355">
        <ele>191.6</ele>
        <time>2024-05-04T09:05:55Z</time>
      </trkpt>
      <trkpt lat="50.12058" lon="4.11344">
        <ele>191.8</ele>
        <time>2024-05-04T09:05:56Z</time>
      </trkpt>
      <trkpt lat="50.12056" lon="4.11333">
        <ele>192</ele>
        <time>2024-05-04T09:05:57Z</time>
      </trkpt>
      <trkpt lat="50.12053" lon="4.11322">
        <ele>192.2</ele>
        <time>2024-05-04T09:05:58Z</time>
      </trkpt>
      <trkpt lat="50.12051" lon="4.1131">
        <ele>192.4</ele>
        <time>2024-05-04T09:05:59Z</time>
      </trkpt>
      <trkpt lat="50.12048" lon="4.11299">
        <ele>192.6</ele>
        <time>2024-05-04T09:06:00Z</time>
      </trkpt>
      <trkpt lat="50.12046" lon="4.11286">
        <ele>192.6</ele>
        <time>2024-05-04T09:06:01Z</time>
      </trkpt>
      <trkpt lat="50.12044" lon="4.11274">
        <ele>192.6</ele>
        <time>2024-05-04T09:06:02Z</time>
      </trkpt>
      <trkpt lat="50.12041" lon="4.11261">
        <ele>192.8</ele>
        <time>2024-05-04T09:06:03Z</time>
      </trkpt>
      <trkpt lat="50.12039" lon="4.11247">
        <ele>192.8</ele>
        <time>2024-05-04T09:06:04Z</time>
      </trkpt>
      <trkpt lat="50.12038" lon="4.11233">
        <ele>193</ele>
        <time>2024-05-04T09:06:05Z</time>
      </trkpt>
      <trkpt lat="50.12036" lon="4.11219">
        <ele>193</ele>
        <time>2024-05-04T09:06:06Z</time>
      </trkpt>
      <trkpt lat="50.12035" lon="4.11204">
        <ele>192.8</ele>
        <time>2024-05-04T09:06:07Z</time>
      </trkpt>
      <trkpt lat="50.12034" lon="4.11188">
        <ele>193</ele>
        <time>2024-05-04T09:06:08Z</time>
      </trkpt>
      <trkpt lat="50.12033" lon="4.11172">
        <ele>192.8</ele>
        <time>2024-05-04T09:06:09Z</time>
      </trkpt>
      <trkpt lat="50.12032" lon="4.11156">
        <ele>193</ele>
        <time>2024-05-04T09:06:10Z</time>
      </trkpt>
      <trkpt lat="50.12031" lon="4.11139">
        <ele>192.6</ele>
        <time>2024-05-04T09:06:11Z</time>
      </trkpt>
      <trkpt lat="50.12031" lon="4.11122">
        <ele>192.6</ele>
        <time>2024-05-04T09:06:12Z</time>
      </trkpt>
      <trkpt lat="50.1203" lon="4.11105">
        <ele>192.6</ele>
        <time>2024-05-04T09:06:13Z</time>
      </trkpt>
      <trkpt lat="50.1203" lon="4.11087">
        <ele>192.2</ele>
        <time>2024-05-04T09:06:14Z</time>
      </trkpt>
      <trkpt lat="50.12029" lon="4.1107">
        <ele>191.6</ele>
        <time>2024-05-04T09:06:15Z</time>
      </trkpt>
      <trkpt lat="50.12029" lon="4.11053">
        <ele>191</ele>
        <time>2024-05-04T09:06:16Z</time>
      </trkpt>
      <trkpt lat="50.12028" lon="4.11036">
        <ele>190.2</ele>
        <time>2024-05-04T09:06:17Z</time>
      </trkpt>
      <trkpt lat="50.12027" lon="4.1102">
        <ele>189.4</ele>
        <time>2024-05-04T09:06:18Z</time>
      </trkpt>
      <trkpt lat="50.12027" lon="4.11004">
        <ele>188.8</ele>
        <time>2024-05-04T09:06:19Z</time>
      </trkpt>
      <trkpt lat="50.12026" lon="4.10988">
        <ele>187.6</ele>
        <time>2024-05-04T09:06:20Z</time>
      </trkpt>
      <trkpt lat="50.12026" lon="4.10973">
        <ele>186.8</ele>
        <time>2024-05-04T09:06:21Z</time>
      </trkpt>
      <trkpt lat="50.12025" lon="4.10959">
        <ele>185.4</ele>
        <time>2024-05-04T09:06:22Z</time>
      </trkpt>
      <trkpt lat="50.12024" lon="4.10944">
        <ele>184.8</ele>
        <time>2024-05-04T09:06:23Z</time>
      </trkpt>
      <trkpt lat="50.12023" lon="4.1093">
        <ele>184.4</ele>
        <time>2024-05-04T09:06:24Z</time>
      </trkpt>
      <trkpt lat="50.12022" lon="4.10916">
        <ele>184.4</ele>
        <time>2024-05-04T09:06:25Z</time>
      </trkpt>
      <trkpt lat="50.12021" lon="4.10902">
        <ele>184.4</ele>
        <time>2024-05-04T09:06:26Z</time>
      </trkpt>
      <trkpt lat="50.1202" lon="4.10888">
        <ele>184.2</ele>
        <time>2024-05-04T09:06:27Z</time>
      </trkpt>
      <trkpt lat="50.12019" lon="4.10875">
        <ele>184.2</ele>
        <time>2024-05-04T09:06:28Z</time>
      </trkpt>
      <trkpt lat="50.12017" lon="4.10861">
        <ele>184.2</ele>
        <time>2024-05-04T09:06:29Z</time>
      </trkpt>
      <trkpt lat="50.12015" lon="4.10848">
        <ele>184.2</ele>
        <time>2024-05-04T09:06:30Z</time>
      </trkpt>
      <trkpt lat="50.12013" lon="4.10834">
        <ele>184.2</ele>
        <time>2024-05-04T09:06:31Z</time>
      </trkpt>
      <trkpt lat="50.12011" lon="4.1082">
        <ele>184.2</ele>
        <time>2024-05-04T09:06:32Z</time>
      </trkpt>
      <trkpt lat="50.12009" lon="4.10807">
        <ele>184.2</ele>
        <time>2024-05-04T09:06:33Z</time>
      </trkpt>
      <trkpt lat="50.12007" lon="4.10793">
        <ele>184.4</ele>
        <time>2024-05-04T09:06:34Z</time>
      </trkpt>
      <trkpt lat="50.12005" lon="4.1078">
        <ele>184.6</ele>
        <time>2024-05-04T09:06:35Z</time>
      </trkpt>
      <trkpt lat="50.12003" lon="4.10767">
        <ele>184.6</ele>
        <time>2024-05-04T09:06:36Z</time>
      </trkpt>
      <trkpt lat="50.12001" lon="4.10755">
        <ele>184.4</ele>
        <time>2024-05-04T09:06:37Z</time>
      </trkpt>
      <trkpt lat="50.11999" lon="4.10742">
        <ele>184.8</ele>
        <time>2024-05-04T09:06:38Z</time>
      </trkpt>
      <trkpt lat="50.11997" lon="4.10729">
        <ele>184.8</ele>
        <time>2024-05-04T09:06:39Z</time>
      </trkpt>
      <trkpt lat="50.11995" lon="4.10716">
        <ele>185</ele>
        <time>2024-05-04T09:06:40Z</time>
      </trkpt>
      <trkpt lat="50.11994" lon="4.10703">
        <ele>185</ele>
        <time>2024-05-04T09:06:41Z</time>
      </trkpt>
      <trkpt lat="50.11994" lon="4.1069">
        <ele>185.4</ele>
        <time>2024-05-04T09:06:42Z</time>
      </trkpt>
      <trkpt lat="50.11995" lon="4.10677">
        <ele>185.8</ele>
        <time>2024-05-04T09:06:43Z</time>
      </trkpt>
      <trkpt lat="50.11996" lon="4.10664">
        <ele>186</ele>
        <time>2024-05-04T09:06:44Z</time>
      </trkpt>
      <trkpt lat="50.11998" lon="4.10651">
        <ele>186.4</ele>
        <time>2024-05-04T09:06:45Z</time>
      </trkpt>
      <trkpt lat="50.12001" lon="4.10638">
        <ele>186.4</ele>
        <time>2024-05-04T09:06:46Z</time>
      </trkpt>
      <trkpt lat="50.12004" lon="4.10626">
        <ele>186.6</ele>
        <time>2024-05-04T09:06:47Z</time>
      </trkpt>
      <trkpt lat="50.12007" lon="4.10614">
        <ele>186.6</ele>
        <time>2024-05-04T09:06:48Z</time>
      </trkpt>
      <trkpt lat="50.12011" lon="4.10602">
        <ele>186.8</ele>
        <time>2024-05-04T09:06:49Z</time>
      </trkpt>
      <trkpt lat="50.12015" lon="4.10589">
        <ele>187</ele>
        <time>2024-05-04T09:06:50Z</time>
      </trkpt>
      <trkpt lat="50.12019" lon="4.10576">
        <ele>186.8</ele>
        <time>2024-05-04T09:06:51Z</time>
      </trkpt>
      <trkpt lat="50.12023" lon="4.10563">
        <ele>186.6</ele>
        <time>2024-05-04T09:06:52Z</time>
      </trkpt>
      <trkpt lat="50.12027" lon="4.10549">
        <ele>186.6</ele>
        <time>2024-05-04T09:06:53Z</time>
      </trkpt>
      <trkpt lat="50.12032" lon="4.10535">
        <ele>186.8</ele>
        <time>2024-05-04T09:06:54Z</time>
      </trkpt>
      <trkpt lat="50.12036" lon="4.1052">
        <ele>186.8</ele>
        <time>2024-05-04T09:06:55Z</time>
      </trkpt>
      <trkpt lat="50.12041" lon="4.10504">
        <ele>186.6</ele>
        <time>2024-05-04T09:06:56Z</time>
      </trkpt>
      <trkpt lat="50.12045" lon="4.10489">
        <ele>186.6</ele>
        <time>2024-05-04T09:06:57Z</time>
      </trkpt>
      <trkpt lat="50.1205" lon="4.10473">
        <ele>186.6</ele>
        <time>2024-05-04T09:06:58Z</time>
      </trkpt>
      <trkpt lat="50.12055" lon="4.10457">
        <ele>186.6</ele>
        <time>2024-05-04T09:06:59Z</time>
      </trkpt>
      <trkpt lat="50.12059" lon="4.10441">
        <ele>186.2</ele>
        <time>2024-05-04T09:07:00Z</time>
      </trkpt>
      <trkpt lat="50.12063" lon="4.10425">
        <ele>185.6</ele>
        <time>2024-05-04T09:07:01Z</time>
      </trkpt>
      <trkpt lat="50.12067" lon="4.10409">
        <ele>185.6</ele>
        <time>2024-05-04T09:07:02Z</time>
      </trkpt>
      <trkpt lat="50.12069" lon="4.10393">
        <ele>184</ele>
        <time>2024-05-04T09:07:03Z</time>
      </trkpt>
      <trkpt lat="50.12071" lon="4.10377">
        <ele>182.8</ele>
        <time>2024-05-04T09:07:04Z</time>
      </trkpt>
      <trkpt lat="50.12073" lon="4.10361">
        <ele>182.2</ele>
        <time>2024-05-04T09:07:05Z</time>
      </trkpt>
      <trkpt lat="50.12074" lon="4.10346">
        <ele>181</ele>
        <time>2024-05-04T09:07:06Z</time>
      </trkpt>
      <trkpt lat="50.12074" lon="4.10331">
        <ele>180.4</ele>
        <time>2024-05-04T09:07:07Z</time>
      </trkpt>
      <trkpt lat="50.12074" lon="4.10317">
        <ele>179.4</ele>
        <time>2024-05-04T09:07:08Z</time>
      </trkpt>
      <trkpt lat="50.12075" lon="4.10303">
        <ele>178.8</ele>
        <time>2024-05-04T09:07:09Z</time>
      </trkpt>
      <trkpt lat="50.12075" lon="4.10289">
        <ele>178.4</ele>
        <time>2024-05-04T09:07:10Z</time>
      </trkpt>
      <trkpt lat="50.12075" lon="4.10276">
        <ele>178.4</ele>
        <time>2024-05-04T09:07:11Z</time>
      </trkpt>
      <trkpt lat="50.12076" lon="4.10262">
        <ele>178.2</ele>
        <time>2024-05-04T09:07:12Z</time>
      </trkpt>
      <trkpt lat="50.12076" lon="4.10249">
        <ele>178.2</ele>
        <time>2024-05-04T09:07:13Z</time>
      </trkpt>
      <trkpt lat="50.12077" lon="4.10237">
        <ele>178.2</ele>
        <time>2024-05-04T09:07:14Z</time>
      </trkpt>
      <trkpt lat="50.12078" lon="4.10224">
        <ele>178.2</ele>
        <time>2024-05-04T09:07:15Z</time>
      </trkpt>
      <trkpt lat="50.12078" lon="4.10213">
        <ele>178.2</ele>
        <time>2024-05-04T09:07:16Z</time>
      </trkpt>
      <trkpt lat="50.12079" lon="4.10201">
        <ele>178.2</ele>
        <time>2024-05-04T09:07:17Z</time>
      </trkpt>
      <trkpt lat="50.12079" lon="4.10189">
        <ele>178.2</ele>
        <time>2024-05-04T09:07:18Z</time>
      </trkpt>
      <trkpt lat="50.1208" lon="4.10179">
        <ele>178.4</ele>
        <time>2024-05-04T09:07:19Z</time>
      </trkpt>
      <trkpt lat="50.12081" lon="4.10168">
        <ele>179.2</ele>
        <time>2024-05-04T09:07:20Z</time>
      </trkpt>
      <trkpt lat="50.12083" lon="4.10158">
        <ele>180.2</ele>
        <time>2024-05-04T09:07:21Z</time>
      </trkpt>
      <trkpt lat="50.12085" lon="4.10148">
        <ele>180.6</ele>
        <time>2024-05-04T09:07:22Z</time>
      </trkpt>
      <trkpt lat="50.12087" lon="4.10138">
        <ele>181</ele>
        <time>2024-05-04T09:07:23Z</time>
      </trkpt>
      <trkpt lat="50.12089" lon="4.10128">
        <ele>181.4</ele>
        <time>2024-05-04T09:07:24Z</time>
      </trkpt>
      <trkpt lat="50.12091" lon="4.10118">
        <ele>181.8</ele>
        <time>2024-05-04T09:07:25Z</time>
      </trkpt>
      <trkpt lat="50.12093" lon="4.10108">
        <ele>182</ele>
        <time>2024-05-04T09:07:26Z</time>
      </trkpt>
      <trkpt lat="50.12095" lon="4.10097">
        <ele>182.2</ele>
        <time>2024-05-04T09:07:27Z</time>
      </trkpt>
      <trkpt lat="50.12098" lon="4.10087">
        <ele>182.6</ele>
        <time>2024-05-04T09:07:28Z</time>
      </trkpt>
      <trkpt lat="50.121" lon="4.10077">
        <ele>182.8</ele>
        <time>2024-05-04T09:07:29Z</time>
      </trkpt>
      <trkpt lat="50.12102" lon="4.10066">
        <ele>183</ele>
        <time>2024-05-04T09:07:30Z</time>
      </trkpt>
      <trkpt lat="50.12105" lon="4.10055">
        <ele>183</ele>
        <time>2024-05-04T09:07:31Z</time>
      </trkpt>
      <trkpt lat="50.12107" lon="4.10045">
        <ele>183.2</ele>
        <time>2024-05-04T09:07:32Z</time>
      </trkpt>
      <trkpt lat="50.12109" lon="4.10034">
        <ele>183.2</ele>
        <time>2024-05-04T09:07:33Z</time>
      </trkpt>
      <trkpt lat="50.12112" lon="4.10023">
        <ele>183.2</ele>
        <time>2024-05-04T09:07:34Z</time>
      </trkpt>
      <trkpt lat="50.12115" lon="4.10013">
        <ele>183.2</ele>
        <time>2024-05-04T09:07:35Z</time>
      </trkpt>
      <trkpt lat="50.12117" lon="4.10002">
        <ele>183.2</ele>
        <time>2024-05-04T09:07:36Z</time>
      </trkpt>
      <trkpt lat="50.12119" lon="4.09992">
        <ele>183.2</ele>
        <time>2024-05-04T09:07:37Z</time>
      </trkpt>
      <trkpt lat="50.12121" lon="4.09981">
        <ele>183.4</ele>
        <time>2024-05-04T09:07:38Z</time>
      </trkpt>
      <trkpt lat="50.12122" lon="4.09971">
        <ele>183.4</ele>
        <time>2024-05-04T09:07:39Z</time>
      </trkpt>
      <trkpt lat="50.12123" lon="4.0996">
        <ele>183.4</ele>
        <time>2024-05-04T09:07:40Z</time>
      </trkpt>
      <trkpt lat="50.12123" lon="4.0995">
        <ele>183.4</ele>
        <time>2024-05-04T09:07:41Z</time>
      </trkpt>
      <trkpt lat="50.12123" lon="4.0994">
        <ele>183.6</ele>
        <time>2024-05-04T09:07:42Z</time>
      </trkpt>
      <trkpt lat="50.12123" lon="4.09931">
        <ele>183.4</ele>
        <time>2024-05-04T09:07:43Z</time>
      </trkpt>
      <trkpt lat="50.12122" lon="4.09921">
        <ele>183.6</ele>
        <time>2024-05-04T09:07:44Z</time>
      </trkpt>
      <trkpt lat="50.12121" lon="4.09912">
        <ele>183.4</ele>
        <time>2024-05-04T09:07:45Z</time>
      </trkpt>
      <trkpt lat="50.12119" lon="4.09903">
        <ele>183.6</ele>
        <time>2024-05-04T09:07:46Z</time>
      </trkpt>
      <trkpt lat="50.12118" lon="4.09894">
        <ele>183.6</ele>
        <time>2024-05-04T09:07:47Z</time>
      </trkpt>
      <trkpt lat="50.12117" lon="4.09885">
        <ele>183.6</ele>
        <time>2024-05-04T09:07:48Z</time>
      </trkpt>
      <trkpt lat="50.12116" lon="4.09876">
        <ele>184</ele>
        <time>2024-05-04T09:07:49Z</time>
      </trkpt>
      <trkpt lat="50.12115" lon="4.09867">
        <ele>184.2</ele>
        <time>2024-05-04T09:07:50Z</time>
      </trkpt>
      <trkpt lat="50.12114" lon="4.09858">
        <ele>184.4</ele>
        <time>2024-05-04T09:07:51Z</time>
      </trkpt>
      <trkpt lat="50.12113" lon="4.09849">
        <ele>184.4</ele>
        <time>2024-05-04T09:07:52Z</time>
      </trkpt>
      <trkpt lat="50.12112" lon="4.0984">
        <ele>185</ele>
        <time>2024-05-04T09:07:53Z</time>
      </trkpt>
      <trkpt lat="50.12111" lon="4.09831">
        <ele>185</ele>
        <time>2024-05-04T09:07:54Z</time>
      </trkpt>
      <trkpt lat="50.12111" lon="4.09822">
        <ele>185.4</ele>
        <time>2024-05-04T09:07:55Z</time>
      </trkpt>
      <trkpt lat="50.1211" lon="4.09813">
        <ele>186</ele>
        <time>2024-05-04T09:07:56Z</time>
      </trkpt>
      <trkpt lat="50.12109" lon="4.09803">
        <ele>186.6</ele>
        <time>2024-05-04T09:07:57Z</time>
      </trkpt>
      <trkpt lat="50.12109" lon="4.09794">
        <ele>187</ele>
        <time>2024-05-04T09:07:58Z</time>
      </trkpt>
      <trkpt lat="50.12108" lon="4.09785">
        <ele>187.2</ele>
        <time>2024-05-04T09:07:59Z</time>
      </trkpt>
      <trkpt lat="50.12107" lon="4.09775">
        <ele>187.4</ele>
        <time>2024-05-04T09:08:00Z</time>
      </trkpt>
      <trkpt lat="50.12106" lon="4.09766">
        <ele>187.4</ele>
        <time>2024-05-04T09:08:01Z</time>
      </trkpt>
      <trkpt lat="50.12104" lon="4.09757">
        <ele>187.6</ele>
        <time>2024-05-04T09:08:02Z</time>
      </trkpt>
      <trkpt lat="50.12102" lon="4.09748">
        <ele>187.8</ele>
        <time>2024-05-04T09:08:03Z</time>
      </trkpt>
      <trkpt lat="50.121" lon="4.09739">
        <ele>187.8</ele>
        <time>2024-05-04T09:08:04Z</time>
      </trkpt>
      <trkpt lat="50.12097" lon="4.09729">
        <ele>188.4</ele>
        <time>2024-05-04T09:08:05Z</time>
      </trkpt>
      <trkpt lat="50.12095" lon="4.0972">
        <ele>188.6</ele>
        <time>2024-05-04T09:08:06Z</time>
      </trkpt>
      <trkpt lat="50.12092" lon="4.0971">
        <ele>188.6</ele>
        <time>2024-05-04T09:08:07Z</time>
      </trkpt>
      <trkpt lat="50.1209" lon="4.09701">
        <ele>188.8</ele>
        <time>2024-05-04T09:08:08Z</time>
      </trkpt>
      <trkpt lat="50.12087" lon="4.09691">
        <ele>188.8</ele>
        <time>2024-05-04T09:08:09Z</time>
      </trkpt>
      <trkpt lat="50.12084" lon="4.09681">
        <ele>188.8</ele>
        <time>2024-05-04T09:08:10Z</time>
      </trkpt>
      <trkpt lat="50.12082" lon="4.09671">
        <ele>188.8</ele>
        <time>2024-05-04T09:08:11Z</time>
      </trkpt>
      <trkpt lat="50.12079" lon="4.09661">
        <ele>189</ele>
        <time>2024-05-04T09:08:12Z</time>
      </trkpt>
      <trkpt lat="50.12076" lon="4.0965">
        <ele>189</ele>
        <time>2024-05-04T09:08:13Z</time>
      </trkpt>
      <trkpt lat="50.12074" lon="4.09639">
        <ele>188.8</ele>
        <time>2024-05-04T09:08:14Z</time>
      </trkpt>
      <trkpt lat="50.12072" lon="4.09629">
        <ele>188.8</ele>
        <time>2024-05-04T09:08:15Z</time>
      </trkpt>
      <trkpt lat="50.1207" lon="4.09618">
        <ele>189</ele>
        <time>2024-05-04T09:08:16Z</time>
      </trkpt>
      <trkpt lat="50.12069" lon="4.09607">
        <ele>188.8</ele>
        <time>2024-05-04T09:08:17Z</time>
      </trkpt>
      <trkpt lat="50.12068" lon="4.09596">
        <ele>188.8</ele>
        <time>2024-05-04T09:08:18Z</time>
      </trkpt>
      <trkpt lat="50.12068" lon="4.09586">
        <ele>188.8</ele>
        <time>2024-05-04T09:08:19Z</time>
      </trkpt>
      <trkpt lat="50.12069" lon="4.09575">
        <ele>188.6</ele>
        <time>2024-05-04T09:08:20Z</time>
      </trkpt>
      <trkpt lat="50.12069" lon="4.09564">
        <ele>188.4</ele>
        <time>2024-05-04T09:08:21Z</time>
      </trkpt>
      <trkpt lat="50.1207" lon="4.09554">
        <ele>188.4</ele>
        <time>2024-05-04T09:08:22Z</time>
      </trkpt>
      <trkpt lat="50.12071" lon="4.09543">
        <ele>188.4</ele>
        <time>2024-05-04T09:08:23Z</time>
      </trkpt>
      <trkpt lat="50.12073" lon="4.09532">
        <ele>188.4</ele>
        <time>2024-05-04T09:08:24Z</time>
      </trkpt>
      <trkpt lat="50.12074" lon="4.09521">
        <ele>188.4</ele>
        <time>2024-05-04T09:08:25Z</time>
      </trkpt>
      <trkpt lat="50.12076" lon="4.09509">
        <ele>188.6</ele>
        <time>2024-05-04T09:08:26Z</time>
      </trkpt>
      <trkpt lat="50.12078" lon="4.09498">
        <ele>188.4</ele>
        <time>2024-05-04T09:08:27Z</time>
      </trkpt>
      <trkpt lat="50.1208" lon="4.09486">
        <ele>188.2</ele>
        <time>2024-05-04T09:08:28Z</time>
      </trkpt>
      <trkpt lat="50.12083" lon="4.09475">
        <ele>188.2</ele>
        <time>2024-05-04T09:08:29Z</time>
      </trkpt>
      <trkpt lat="50.12086" lon="4.09463">
        <ele>188</ele>
        <time>2024-05-04T09:08:30Z</time>
      </trkpt>
      <trkpt lat="50.12089" lon="4.09451">
        <ele>188</ele>
        <time>2024-05-04T09:08:31Z</time>
      </trkpt>
      <trkpt lat="50.12092" lon="4.09438">
        <ele>188</ele>
        <time>2024-05-04T09:08:32Z</time>
      </trkpt>
      <trkpt lat="50.12095" lon="4.09426">
        <ele>188</ele>
        <time>2024-05-04T09:08:33Z</time>
      </trkpt>
      <trkpt lat="50.12098" lon="4.09413">
        <ele>188</ele>
        <time>2024-05-04T09:08:34Z</time>
      </trkpt>
      <trkpt lat="50.12101" lon="4.094">
        <ele>187.8</ele>
        <time>2024-05-04T09:08:35Z</time>
      </trkpt>
      <trkpt lat="50.12105" lon="4.09386">
        <ele>188</ele>
        <time>2024-05-04T09:08:36Z</time>
      </trkpt>
      <trkpt lat="50.12108" lon="4.09373">
        <ele>187.8</ele>
        <time>2024-05-04T09:08:37Z</time>
      </trkpt>
      <trkpt lat="50.12112" lon="4.09359">
        <ele>187.6</ele>
        <time>2024-05-04T09:08:38Z</time>
      </trkpt>
      <trkpt lat="50.12115" lon="4.09345">
        <ele>187.4</ele>
        <time>2024-05-04T09:08:39Z</time>
      </trkpt>
      <trkpt lat="50.12118" lon="4.09331">
        <ele>187</ele>
        <time>2024-05-04T09:08:40Z</time>
      </trkpt>
      <trkpt lat="50.12121" lon="4.09316">
        <ele>186.8</ele>
        <time>2024-05-04T09:08:41Z</time>
      </trkpt>
      <trkpt lat="50.12124" lon="4.09301">
        <ele>186.6</ele>
        <time>2024-05-04T09:08:42Z</time>
      </trkpt>
      <trkpt lat="50.12127" lon="4.09286">
        <ele>186.2</ele>
        <time>2024-05-04T09:08:43Z</time>
      </trkpt>
      <trkpt lat="50.12129" lon="4.09271">
        <ele>185.8</ele>
        <time>2024-05-04T09:08:44Z</time>
      </trkpt>
      <trkpt lat="50.12132" lon="4.09255">
        <ele>185.8</ele>
        <time>2024-05-04T09:08:45Z</time>
      </trkpt>
      <trkpt lat="50.12136" lon="4.0924">
        <ele>185.2</ele>
        <time>2024-05-04T09:08:46Z</time>
      </trkpt>
      <trkpt lat="50.1214" lon="4.09225">
        <ele>184.8</ele>
        <time>2024-05-04T09:08:47Z</time>
      </trkpt>
      <trkpt lat="50.12145" lon="4.09211">
        <ele>184.8</ele>
        <time>2024-05-04T09:08:48Z</time>
      </trkpt>
      <trkpt lat="50.1215" lon="4.09198">
        <ele>184.2</ele>
        <time>2024-05-04T09:08:49Z</time>
      </trkpt>
      <trkpt lat="50.12157" lon="4.09185">
        <ele>183.6</ele>
        <time>2024-05-04T09:08:50Z</time>
      </trkpt>
      <trkpt lat="50.12163" lon="4.09173">
        <ele>183</ele>
        <time>2024-05-04T09:08:51Z</time>
      </trkpt>
      <trkpt lat="50.12169" lon="4.09161">
        <ele>182.6</ele>
        <time>2024-05-04T09:08:52Z</time>
      </trkpt>
      <trkpt lat="50.12174" lon="4.09148">
        <ele>182.4</ele>
        <time>2024-05-04T09:08:53Z</time>
      </trkpt>
      <trkpt lat="50.12179" lon="4.09135">
        <ele>181.8</ele>
        <time>2024-05-04T09:08:54Z</time>
      </trkpt>
      <trkpt lat="50.12183" lon="4.09121">
        <ele>181</ele>
        <time>2024-05-04T09:08:55Z</time>
      </trkpt>
      <trkpt lat="50.12186" lon="4.09107">
        <ele>180.8</ele>
        <time>2024-05-04T09:08:56Z</time>
      </trkpt>
      <trkpt lat="50.12188" lon="4.09092">
        <ele>180.4</ele>
        <time>2024-05-04T09:08:57Z</time>
      </trkpt>
      <trkpt lat="50.12189" lon="4.09077">
        <ele>180</ele>
        <time>2024-05-04T09:08:58Z</time>
      </trkpt>
      <trkpt lat="50.12189" lon="4.09062">
        <ele>179.8</ele>
        <time>2024-05-04T09:08:59Z</time>
      </trkpt>
      <trkpt lat="50.1219" lon="4.09047">
        <ele>179.6</ele>
        <time>2024-05-04T09:09:00Z</time>
      </trkpt>
      <trkpt lat="50.1219" lon="4.09032">
        <ele>178.8</ele>
        <time>2024-05-04T09:09:01Z</time>
      </trkpt>
      <trkpt lat="50.1219" lon="4.09017">
        <ele>178.8</ele>
        <time>2024-05-04T09:09:02Z</time>
      </trkpt>
      <trkpt lat="50.1219" lon="4.09003">
        <ele>178.4</ele>
        <time>2024-05-04T09:09:03Z</time>
      </trkpt>
      <trkpt lat="50.1219" lon="4.08988">
        <ele>177.6</ele>
        <time>2024-05-04T09:09:04Z</time>
      </trkpt>
      <trkpt lat="50.1219" lon="4.08974">
        <ele>177</ele>
        <time>2024-05-04T09:09:05Z</time>
      </trkpt>
      <trkpt lat="50.12191" lon="4.0896">
        <ele>177</ele>
        <time>2024-05-04T09:09:06Z</time>
      </trkpt>
      <trkpt lat="50.12191" lon="4.08946">
        <ele>176.8</ele>
        <time>2024-05-04T09:09:07Z</time>
      </trkpt>
      <trkpt lat="50.12191" lon="4.08932">
        <ele>176.6</ele>
        <time>2024-05-04T09:09:08Z</time>
      </trkpt>
      <trkpt lat="50.12191" lon="4.08918">
        <ele>176.4</ele>
        <time>2024-05-04T09:09:09Z</time>
      </trkpt>
      <trkpt lat="50.12191" lon="4.08904">
        <ele>176.4</ele>
        <time>2024-05-04T09:09:10Z</time>
      </trkpt>
      <trkpt lat="50.12191" lon="4.0889">
        <ele>176.4</ele>
        <time>2024-05-04T09:09:11Z</time>
      </trkpt>
      <trkpt lat="50.12191" lon="4.08876">
        <ele>176.2</ele>
        <time>2024-05-04T09:09:12Z</time>
      </trkpt>
      <trkpt lat="50.12192" lon="4.08862">
        <ele>176.2</ele>
        <time>2024-05-04T09:09:13Z</time>
      </trkpt>
      <trkpt lat="50.12193" lon="4.08848">
        <ele>176.2</ele>
        <time>2024-05-04T09:09:14Z</time>
      </trkpt>
      <trkpt lat="50.12194" lon="4.08834">
        <ele>176.2</ele>
        <time>2024-05-04T09:09:15Z</time>
      </trkpt>
      <trkpt lat="50.12195" lon="4.0882">
        <ele>176.4</ele>
        <time>2024-05-04T09:09:16Z</time>
      </trkpt>
      <trkpt lat="50.12197" lon="4.08806">
        <ele>176.4</ele>
        <time>2024-05-04T09:09:17Z</time>
      </trkpt>
      <trkpt lat="50.12199" lon="4.08792">
        <ele>176.4</ele>
        <time>2024-05-04T09:09:18Z</time>
      </trkpt>
      <trkpt lat="50.12201" lon="4.08779">
        <ele>176.4</ele>
        <time>2024-05-04T09:09:19Z</time>
      </trkpt>
      <trkpt lat="50.12202" lon="4.08765">
        <ele>176.4</ele>
        <time>2024-05-04T09:09:20Z</time>
      </trkpt>
      <trkpt lat="50.12204" lon="4.08751">
        <ele>176.4</ele>
        <time>2024-05-04T09:09:21Z</time>
      </trkpt>
      <trkpt lat="50.12205" lon="4.08737">
        <ele>176.4</ele>
        <time>2024-05-04T09:09:22Z</time>
      </trkpt>
      <trkpt lat="50.12206" lon="4.08723">
        <ele>176.4</ele>
        <time>2024-05-04T09:09:23Z</time>
      </trkpt>
      <trkpt lat="50.12207" lon="4.08709">
        <ele>176.2</ele>
        <time>2024-05-04T09:09:24Z</time>
      </trkpt>
      <trkpt lat="50.12207" lon="4.08696">
        <ele>176.4</ele>
        <time>2024-05-04T09:09:25Z</time>
      </trkpt>
      <trkpt lat="50.12207" lon="4.08682">
        <ele>176.4</ele>
        <time>2024-05-04T09:09:26Z</time>
      </trkpt>
      <trkpt lat="50.12207" lon="4.08669">
        <ele>176.4</ele>
        <time>2024-05-04T09:09:27Z</time>
      </trkpt>
      <trkpt lat="50.12207" lon="4.08655">
        <ele>176.2</ele>
        <time>2024-05-04T09:09:28Z</time>
      </trkpt>
      <trkpt lat="50.12207" lon="4.08642">
        <ele>176.4</ele>
        <time>2024-05-04T09:09:29Z</time>
      </trkpt>
      <trkpt lat="50.12207" lon="4.08628">
        <ele>176.2</ele>
        <time>2024-05-04T09:09:30Z</time>
      </trkpt>
      <trkpt lat="50.12207" lon="4.08615">
        <ele>176.4</ele>
        <time>2024-05-04T09:09:31Z</time>
      </trkpt>
      <trkpt lat="50.12206" lon="4.08602">
        <ele>176.4</ele>
        <time>2024-05-04T09:09:32Z</time>
      </trkpt>
      <trkpt lat="50.12206" lon="4.08588">
        <ele>176.4</ele>
        <time>2024-05-04T09:09:33Z</time>
      </trkpt>
      <trkpt lat="50.12206" lon="4.08575">
        <ele>176.4</ele>
        <time>2024-05-04T09:09:34Z</time>
      </trkpt>
      <trkpt lat="50.12205" lon="4.08562">
        <ele>176.4</ele>
        <time>2024-05-04T09:09:35Z</time>
      </trkpt>
      <trkpt lat="50.12205" lon="4.08549">
        <ele>176.2</ele>
        <time>2024-05-04T09:09:36Z</time>
      </trkpt>
      <trkpt lat="50.12205" lon="4.08536">
        <ele>176.2</ele>
        <time>2024-05-04T09:09:37Z</time>
      </trkpt>
      <trkpt lat="50.12206" lon="4.08523">
        <ele>176.2</ele>
        <time>2024-05-04T09:09:38Z</time>
      </trkpt>
      <trkpt lat="50.12207" lon="4.08511">
        <ele>176.2</ele>
        <time>2024-05-04T09:09:39Z</time>
      </trkpt>
      <trkpt lat="50.12208" lon="4.08499">
        <ele>176</ele>
        <time>2024-05-04T09:09:40Z</time>
      </trkpt>
      <trkpt lat="50.1221" lon="4.08487">
        <ele>176</ele>
        <time>2024-05-04T09:09:41Z</time>
      </trkpt>
      <trkpt lat="50.12212" lon="4.08475">
        <ele>176</ele>
        <time>2024-05-04T09:09:42Z</time>
      </trkpt>
      <trkpt lat="50.12214" lon="4.08464">
        <ele>176</ele>
        <time>2024-05-04T09:09:43Z</time>
      </trkpt>
      <trkpt lat="50.12216" lon="4.08453">
        <ele>176.2</ele>
        <time>2024-05-04T09:09:44Z</time>
      </trkpt>
      <trkpt lat="50.12218" lon="4.08442">
        <ele>176.2</ele>
        <time>2024-05-04T09:09:45Z</time>
      </trkpt>
      <trkpt lat="50.1222" lon="4.08432">
        <ele>176.2</ele>
        <time>2024-05-04T09:09:46Z</time>
      </trkpt>
      <trkpt lat="50.12223" lon="4.08422">
        <ele>176.4</ele>
        <time>2024-05-04T09:09:47Z</time>
      </trkpt>
      <trkpt lat="50.12225" lon="4.08412">
        <ele>176.6</ele>
        <time>2024-05-04T09:09:48Z</time>
      </trkpt>
      <trkpt lat="50.12228" lon="4.08402">
        <ele>176.4</ele>
        <time>2024-05-04T09:09:49Z</time>
      </trkpt>
      <trkpt lat="50.12231" lon="4.08392">
        <ele>176.6</ele>
        <time>2024-05-04T09:09:50Z</time>
      </trkpt>
      <trkpt lat="50.12234" lon="4.08382">
        <ele>177.2</ele>
        <time>2024-05-04T09:09:51Z</time>
      </trkpt>
      <trkpt lat="50.12237" lon="4.08373">
        <ele>177.6</ele>
        <time>2024-05-04T09:09:52Z</time>
      </trkpt>
      <trkpt lat="50.1224" lon="4.08363">
        <ele>177.6</ele>
        <time>2024-05-04T09:09:53Z</time>
      </trkpt>
      <trkpt lat="50.12244" lon="4.08355">
        <ele>178</ele>
        <time>2024-05-04T09:09:54Z</time>
      </trkpt>
      <trkpt lat="50.12248" lon="4.08346">
        <ele>178</ele>
        <time>2024-05-04T09:09:55Z</time>
      </trkpt>
      <trkpt lat="50.12251" lon="4.08338">
        <ele>178.4</ele>
        <time>2024-05-04T09:09:56Z</time>
      </trkpt>
      <trkpt lat="50.12255" lon="4.08329">
        <ele>179</ele>
        <time>2024-05-04T09:09:57Z</time>
      </trkpt>
      <trkpt lat="50.12259" lon="4.08321">
        <ele>179.2</ele>
        <time>2024-05-04T09:09:58Z</time>
      </trkpt>
      <trkpt lat="50.12263" lon="4.08313">
        <ele>179.4</ele>
        <time>2024-05-04T09:09:59Z</time>
      </trkpt>
      <trkpt lat="50.12267" lon="4.08305">
        <ele>179.4</ele>
        <time>2024-05-04T09:10:00Z</time>
      </trkpt>
      <trkpt lat="50.1227" lon="4.08298">
        <ele>179.8</ele>
        <time>2024-05-04T09:10:01Z</time>
      </trkpt>
      <trkpt lat="50.12274" lon="4.0829">
        <ele>180.2</ele>
        <time>2024-05-04T09:10:02Z</time>
      </trkpt>
      <trkpt lat="50.12278" lon="4.08282">
        <ele>180.4</ele>
        <time>2024-05-04T09:10:03Z</time>
      </trkpt>
      <trkpt lat="50.12281" lon="4.08274">
        <ele>180.8</ele>
        <time>2024-05-04T09:10:04Z</time>
      </trkpt>
      <trkpt lat="50.12285" lon="4.08266">
        <ele>181.2</ele>
        <time>2024-05-04T09:10:05Z</time>
      </trkpt>
      <trkpt lat="50.12289" lon="4.08259">
        <ele>181.4</ele>
        <time>2024-05-04T09:10:06Z</time>
      </trkpt>
      <trkpt lat="50.12292" lon="4.08251">
        <ele>181.4</ele>
        <time>2024-05-04T09:10:07Z</time>
      </trkpt>
      <trkpt lat="50.12296" lon="4.08244">
        <ele>181.8</ele>
        <time>2024-05-04T09:10:08Z</time>
      </trkpt>
      <trkpt lat="50.123" lon="4.08236">
        <ele>182</ele>
        <time>2024-05-04T09:10:09Z</time>
      </trkpt>
      <trkpt lat="50.12303" lon="4.08229">
        <ele>182.4</ele>
        <time>2024-05-04T09:10:10Z</time>
      </trkpt>
      <trkpt lat="50.12306" lon="4.08221">
        <ele>182.8</ele>
        <time>2024-05-04T09:10:11Z</time>
      </trkpt>
      <trkpt lat="50.1231" lon="4.08214">
        <ele>182.8</ele>
        <time>2024-05-04T09:10:12Z</time>
      </trkpt>
      <trkpt lat="50.12313" lon="4.08206">
        <ele>183</ele>
        <time>2024-05-04T09:10:13Z</time>
      </trkpt>
      <trkpt lat="50.12317" lon="4.08199">
        <ele>183.2</ele>
        <time>2024-05-04T09:10:14Z</time>
      </trkpt>
      <trkpt lat="50.1232" lon="4.08192">
        <ele>183.6</ele>
        <time>2024-05-04T09:10:15Z</time>
      </trkpt>
      <trkpt lat="50.12323" lon="4.08184">
        <ele>183.6</ele>
        <time>2024-05-04T09:10:16Z</time>
      </trkpt>
      <trkpt lat="50.12327" lon="4.08177">
        <ele>183.8</ele>
        <time>2024-05-04T09:10:17Z</time>
      </trkpt>
      <trkpt lat="50.1233" lon="4.0817">
        <ele>184</ele>
        <time>2024-05-04T09:10:18Z</time>
      </trkpt>
      <trkpt lat="50.12334" lon="4.08162">
        <ele>184.2</ele>
        <time>2024-05-04T09:10:19Z</time>
      </trkpt>
      <trkpt lat="50.12337" lon="4.08155">
        <ele>184.6</ele>
        <time>2024-05-04T09:10:20Z</time>
      </trkpt>
      <trkpt lat="50.12341" lon="4.08148">
        <ele>184.6</ele>
        <time>2024-05-04T09:10:21Z</time>
      </trkpt>
      <trkpt lat="50.12344" lon="4.0814">
        <ele>184.6</ele>
        <time>2024-05-04T09:10:22Z</time>
      </trkpt>
      <trkpt lat="50.12348" lon="4.08133">
        <ele>185.2</ele>
        <time>2024-05-04T09:10:23Z</time>
      </trkpt>
      <trkpt lat="50.12351" lon="4.08126">
        <ele>185.2</ele>
        <time>2024-05-04T09:10:24Z</time>
      </trkpt>
      <trkpt lat="50.12354" lon="4.08119">
        <ele>185.2</ele>
        <time>2024-05-04T09:10:25Z</time>
      </trkpt>
      <trkpt lat="50.12357" lon="4.08112">
        <ele>185.4</ele>
        <time>2024-05-04T09:10:26Z</time>
      </trkpt>
      <trkpt lat="50.12361" lon="4.08105">
        <ele>185.6</ele>
        <time>2024-05-04T09:10:27Z</time>
      </trkpt>
      <trkpt lat="50.12364" lon="4.08099">
        <ele>185.6</ele>
        <time>2024-05-04T09:10:28Z</time>
      </trkpt>
      <trkpt lat="50.12366" lon="4.08093">
        <ele>185.6</ele>
        <time>2024-05-04T09:10:29Z</time>
      </trkpt>
      <trkpt lat="50.12369" lon="4.08087">
        <ele>185.6</ele>
        <time>2024-05-04T09:10:30Z</time>
      </trkpt>
      <trkpt lat="50.12373" lon="4.0808">
        <ele>185.8</ele>
        <time>2024-05-04T09:10:31Z</time>
      </trkpt>
      <trkpt lat="50.12376" lon="4.08073">
        <ele>185.8</ele>
        <time>2024-05-04T09:10:32Z</time>
      </trkpt>
      <trkpt lat="50.12379" lon="4.08067">
        <ele>185.8</ele>
        <time>2024-05-04T09:10:33Z</time>
      </trkpt>
      <trkpt lat="50.12383" lon="4.08061">
        <ele>186</ele>
        <time>2024-05-04T09:10:34Z</time>
      </trkpt>
      <trkpt lat="50.12386" lon="4.08056">
        <ele>186</ele>
        <time>2024-05-04T09:10:35Z</time>
      </trkpt>
      <trkpt lat="50.1239" lon="4.08053">
        <ele>185.8</ele>
        <time>2024-05-04T09:10:36Z</time>
      </trkpt>
      <trkpt lat="50.12395" lon="4.0805">
        <ele>185.8</ele>
        <time>2024-05-04T09:10:37Z</time>
      </trkpt>
      <trkpt lat="50.12399" lon="4.08048">
        <ele>185.8</ele>
        <time>2024-05-04T09:10:38Z</time>
      </trkpt>
      <trkpt lat="50.12403" lon="4.08045">
        <ele>185.8</ele>
        <time>2024-05-04T09:10:39Z</time>
      </trkpt>
      <trkpt lat="50.12407" lon="4.0804">
        <ele>185.8</ele>
        <time>2024-05-04T09:10:40Z</time>
      </trkpt>
      <trkpt lat="50.1241" lon="4.08034">
        <ele>186</ele>
        <time>2024-05-04T09:10:41Z</time>
      </trkpt>
      <trkpt lat="50.12412" lon="4.08027">
        <ele>185.8</ele>
        <time>2024-05-04T09:10:42Z</time>
      </trkpt>
      <trkpt lat="50.12413" lon="4.08018">
        <ele>185.8</ele>
        <time>2024-05-04T09:10:43Z</time>
      </trkpt>
      <trkpt lat="50.12411" lon="4.0801">
        <ele>186</ele>
        <time>2024-05-04T09:10:44Z</time>
      </trkpt>
      <trkpt lat="50.12408" lon="4.08002">
        <ele>186</ele>
        <time>2024-05-04T09:10:45Z</time>
      </trkpt>
      <trkpt lat="50.12403" lon="4.07997">
        <ele>186</ele>
        <time>2024-05-04T09:10:46Z</time>
      </trkpt>
      <trkpt lat="50.12397" lon="4.07994">
        <ele>185.8</ele>
        <time>2024-05-04T09:10:47Z</time>
      </trkpt>
      <trkpt lat="50.12392" lon="4.07994">
        <ele>185.8</ele>
        <time>2024-05-04T09:10:48Z</time>
      </trkpt>
      <trkpt lat="50.12386" lon="4.07995">
        <ele>185.8</ele>
        <time>2024-05-04T09:10:49Z</time>
      </trkpt>
      <trkpt lat="50.1238" lon="4.07995">
        <ele>185.8</ele>
        <time>2024-05-04T09:10:50Z</time>
      </trkpt>
      <trkpt lat="50.12374" lon="4.07994">
        <ele>185.8</ele>
        <time>2024-05-04T09:10:51Z</time>
      </trkpt>
      <trkpt lat="50.12368" lon="4.07992">
        <ele>185.8</ele>
        <time>2024-05-04T09:10:52Z</time>
      </trkpt>
      <trkpt lat="50.12362" lon="4.07988">
        <ele>185.6</ele>
        <time>2024-05-04T09:10:53Z</time>
      </trkpt>
      <trkpt lat="50.12357" lon="4.07984">
        <ele>185.8</ele>
        <time>2024-05-04T09:10:54Z</time>
      </trkpt>
      <trkpt lat="50.12351" lon="4.07979">
        <ele>185.6</ele>
        <time>2024-05-04T09:10:55Z</time>
      </trkpt>
      <trkpt lat="50.12346" lon="4.07974">
        <ele>185.6</ele>
        <time>2024-05-04T09:10:56Z</time>
      </trkpt>
      <trkpt lat="50.1234" lon="4.07968">
        <ele>185.6</ele>
        <time>2024-05-04T09:10:57Z</time>
      </trkpt>
      <trkpt lat="50.12335" lon="4.07961">
        <ele>185.4</ele>
        <time>2024-05-04T09:10:58Z</time>
      </trkpt>
      <trkpt lat="50.1233" lon="4.07955">
        <ele>185.6</ele>
        <time>2024-05-04T09:10:59Z</time>
      </trkpt>
      <trkpt lat="50.12325" lon="4.07947">
        <ele>185.6</ele>
        <time>2024-05-04T09:11:00Z</time>
      </trkpt>
      <trkpt lat="50.12321" lon="4.0794">
        <ele>185.4</ele>
        <time>2024-05-04T09:11:01Z</time>
      </trkpt>
      <trkpt lat="50.12316" lon="4.07932">
        <ele>185.4</ele>
        <time>2024-05-04T09:11:02Z</time>
      </trkpt>
      <trkpt lat="50.12312" lon="4.07923">
        <ele>185.2</ele>
        <time>2024-05-04T09:11:03Z</time>
      </trkpt>
      <trkpt lat="50.12308" lon="4.07914">
        <ele>185.2</ele>
        <time>2024-05-04T09:11:04Z</time>
      </trkpt>
      <trkpt lat="50.12304" lon="4.07905">
        <ele>185.4</ele>
        <time>2024-05-04T09:11:05Z</time>
      </trkpt>
      <trkpt lat="50.123" lon="4.07896">
        <ele>185.4</ele>
        <time>2024-05-04T09:11:06Z</time>
      </trkpt>
      <trkpt lat="50.12296" lon="4.07886">
        <ele>185.2</ele>
        <time>2024-05-04T09:11:07Z</time>
      </trkpt>
      <trkpt lat="50.12292" lon="4.07877">
        <ele>185.4</ele>
        <time>2024-05-04T09:11:08Z</time>
      </trkpt>
      <trkpt lat="50.12288" lon="4.07867">
        <ele>185.4</ele>
        <time>2024-05-04T09:11:09Z</time>
      </trkpt>
      <trkpt lat="50.12284" lon="4.07858">
        <ele>185.4</ele>
        <time>2024-05-04T09:11:10Z</time>
      </trkpt>
      <trkpt lat="50.1228" lon="4.07848">
        <ele>185.4</ele>
        <time>2024-05-04T09:11:11Z</time>
      </trkpt>
      <trkpt lat="50.12276" lon="4.07838">
        <ele>185</ele>
        <time>2024-05-04T09:11:12Z</time>
      </trkpt>
      <trkpt lat="50.12272" lon="4.07829">
        <ele>185</ele>
        <time>2024-05-04T09:11:13Z</time>
      </trkpt>
      <trkpt lat="50.12268" lon="4.07819">
        <ele>184.8</ele>
        <time>2024-05-04T09:11:14Z</time>
      </trkpt>
      <trkpt lat="50.12264" lon="4.07809">
        <ele>184.8</ele>
        <time>2024-05-04T09:11:15Z</time>
      </trkpt>
      <trkpt lat="50.1226" lon="4.07799">
        <ele>184.8</ele>
        <time>2024-05-04T09:11:16Z</time>
      </trkpt>
      <trkpt lat="50.12256" lon="4.07789">
        <ele>184.8</ele>
        <time>2024-05-04T09:11:17Z</time>
      </trkpt>
      <trkpt lat="50.12251" lon="4.07779">
        <ele>184.8</ele>
        <time>2024-05-04T09:11:18Z</time>
      </trkpt>
      <trkpt lat="50.12247" lon="4.07768">
        <ele>184.2</ele>
        <time>2024-05-04T09:11:19Z</time>
      </trkpt>
      <trkpt lat="50.12243" lon="4.07757">
        <ele>183.8</ele>
        <time>2024-05-04T09:11:20Z</time>
      </trkpt>
      <trkpt lat="50.12238" lon="4.07746">
        <ele>183.8</ele>
        <time>2024-05-04T09:11:21Z</time>
      </trkpt>
      <trkpt lat="50.12233" lon="4.07735">
        <ele>183.4</ele>
        <time>2024-05-04T09:11:22Z</time>
      </trkpt>
      <trkpt lat="50.12228" lon="4.07723">
        <ele>183.4</ele>
        <time>2024-05-04T09:11:23Z</time>
      </trkpt>
      <trkpt lat="50.12223" lon="4.07712">
        <ele>183.2</ele>
        <time>2024-05-04T09:11:24Z</time>
      </trkpt>
      <trkpt lat="50.12217" lon="4.077">
        <ele>183</ele>
        <time>2024-05-04T09:11:25Z</time>
      </trkpt>
      <trkpt lat="50.12212" lon="4.07689">
        <ele>183</ele>
        <time>2024-05-04T09:11:26Z</time>
      </trkpt>
      <trkpt lat="50.12206" lon="4.07677">
        <ele>182.6</ele>
        <time>2024-05-04T09:11:27Z</time>
      </trkpt>
      <trkpt lat="50.122" lon="4.07665">
        <ele>182.6</ele>
        <time>2024-05-04T09:11:28Z</time>
      </trkpt>
      <trkpt lat="50.12193" lon="4.07654">
        <ele>182.4</ele>
        <time>2024-05-04T09:11:29Z</time>
      </trkpt>
      <trkpt lat="50.12186" lon="4.07643">
        <ele>182.2</ele>
        <time>2024-05-04T09:11:30Z</time>
      </trkpt>
      <trkpt lat="50.12179" lon="4.07632">
        <ele>181.4</ele>
        <time>2024-05-04T09:11:31Z</time>
      </trkpt>
      <trkpt lat="50.12172" lon="4.07621">
        <ele>180.8</ele>
        <time>2024-05-04T09:11:32Z</time>
      </trkpt>
      <trkpt lat="50.12164" lon="4.07611">
        <ele>180</ele>
        <time>2024-05-04T09:11:33Z</time>
      </trkpt>
      <trkpt lat="50.12157" lon="4.07602">
        <ele>179.2</ele>
        <time>2024-05-04T09:11:34Z</time>
      </trkpt>
      <trkpt lat="50.12148" lon="4.07595">
        <ele>178.6</ele>
        <time>2024-05-04T09:11:35Z</time>
      </trkpt>
      <trkpt lat="50.12139" lon="4.0759">
        <ele>177.8</ele>
        <time>2024-05-04T09:11:36Z</time>
      </trkpt>
      <trkpt lat="50.1213" lon="4.07587">
        <ele>177</ele>
        <time>2024-05-04T09:11:37Z</time>
      </trkpt>
      <trkpt lat="50.12121" lon="4.07585">
        <ele>176.4</ele>
        <time>2024-05-04T09:11:38Z</time>
      </trkpt>
      <trkpt lat="50.12112" lon="4.07585">
        <ele>176.4</ele>
        <time>2024-05-04T09:11:39Z</time>
      </trkpt>
      <trkpt lat="50.12103" lon="4.07587">
        <ele>175.8</ele>
        <time>2024-05-04T09:11:40Z</time>
      </trkpt>
      <trkpt lat="50.12095" lon="4.07591">
        <ele>175</ele>
        <time>2024-05-04T09:11:41Z</time>
      </trkpt>
      <trkpt lat="50.12087" lon="4.07596">
        <ele>174.6</ele>
        <time>2024-05-04T09:11:42Z</time>
      </trkpt>
      <trkpt lat="50.12079" lon="4.07603">
        <ele>174.4</ele>
        <time>2024-05-04T09:11:43Z</time>
      </trkpt>
      <trkpt lat="50.12072" lon="4.07611">
        <ele>174.2</ele>
        <time>2024-05-04T09:11:44Z</time>
      </trkpt>
      <trkpt lat="50.12066" lon="4.07621">
        <ele>174</ele>
        <time>2024-05-04T09:11:45Z</time>
      </trkpt>
      <trkpt lat="50.1206" lon="4.07631">
        <ele>173.8</ele>
        <time>2024-05-04T09:11:46Z</time>
      </trkpt>
      <trkpt lat="50.12055" lon="4.07641">
        <ele>173.6</ele>
        <time>2024-05-04T09:11:47Z</time>
      </trkpt>
      <trkpt lat="50.12049" lon="4.07652">
        <ele>173.6</ele>
        <time>2024-05-04T09:11:48Z</time>
      </trkpt>
      <trkpt lat="50.12043" lon="4.07662">
        <ele>173.4</ele>
        <time>2024-05-04T09:11:49Z</time>
      </trkpt>
      <trkpt lat="50.12038" lon="4.07673">
        <ele>173</ele>
        <time>2024-05-04T09:11:50Z</time>
      </trkpt>
      <trkpt lat="50.12032" lon="4.07683">
        <ele>172.6</ele>
        <time>2024-05-04T09:11:51Z</time>
      </trkpt>
      <trkpt lat="50.12026" lon="4.07694">
        <ele>172.4</ele>
        <time>2024-05-04T09:11:52Z</time>
      </trkpt>
      <trkpt lat="50.1202" lon="4.07704">
        <ele>172</ele>
        <time>2024-05-04T09:11:53Z</time>
      </trkpt>
      <trkpt lat="50.12014" lon="4.07715">
        <ele>172</ele>
        <time>2024-05-04T09:11:54Z</time>
      </trkpt>
      <trkpt lat="50.12008" lon="4.07725">
        <ele>171.8</ele>
        <time>2024-05-04T09:11:55Z</time>
      </trkpt>
      <trkpt lat="50.12002" lon="4.07736">
        <ele>171.8</ele>
        <time>2024-05-04T09:11:56Z</time>
      </trkpt>
      <trkpt lat="50.11996" lon="4.07746">
        <ele>171.4</ele>
        <time>2024-05-04T09:11:57Z</time>
      </trkpt>
      <trkpt lat="50.11991" lon="4.07757">
        <ele>171.2</ele>
        <time>2024-05-04T09:11:58Z</time>
      </trkpt>
      <trkpt lat="50.11985" lon="4.07767">
        <ele>170.8</ele>
        <time>2024-05-04T09:11:59Z</time>
      </trkpt>
      <trkpt lat="50.11979" lon="4.07777">
        <ele>170.8</ele>
        <time>2024-05-04T09:12:00Z</time>
      </trkpt>
      <trkpt lat="50.11973" lon="4.07787">
        <ele>170.6</ele>
        <time>2024-05-04T09:12:01Z</time>
      </trkpt>
      <trkpt lat="50.11968" lon="4.07798">
        <ele>170.4</ele>
        <time>2024-05-04T09:12:02Z</time>
      </trkpt>
      <trkpt lat="50.11962" lon="4.07808">
        <ele>170</ele>
        <time>2024-05-04T09:12:03Z</time>
      </trkpt>
      <trkpt lat="50.11956" lon="4.07818">
        <ele>170</ele>
        <time>2024-05-04T09:12:04Z</time>
      </trkpt>
      <trkpt lat="50.1195" lon="4.07827">
        <ele>170</ele>
        <time>2024-05-04T09:12:05Z</time>
      </trkpt>
      <trkpt lat="50.11944" lon="4.07835">
        <ele>170</ele>
        <time>2024-05-04T09:12:06Z</time>
      </trkpt>
      <trkpt lat="50.11938" lon="4.07842">
        <ele>170.2</ele>
        <time>2024-05-04T09:12:07Z</time>
      </trkpt>
      <trkpt lat="50.11932" lon="4.0785">
        <ele>170</ele>
        <time>2024-05-04T09:12:08Z</time>
      </trkpt>
      <trkpt lat="50.11926" lon="4.07856">
        <ele>170.2</ele>
        <time>2024-05-04T09:12:09Z</time>
      </trkpt>
      <trkpt lat="50.1192" lon="4.07863">
        <ele>170</ele>
        <time>2024-05-04T09:12:10Z</time>
      </trkpt>
      <trkpt lat="50.11914" lon="4.0787">
        <ele>170</ele>
        <time>2024-05-04T09:12:11Z</time>
      </trkpt>
      <trkpt lat="50.11908" lon="4.07877">
        <ele>170</ele>
        <time>2024-05-04T09:12:12Z</time>
      </trkpt>
      <trkpt lat="50.11903" lon="4.07885">
        <ele>170</ele>
        <time>2024-05-04T09:12:13Z</time>
      </trkpt>
      <trkpt lat="50.11897" lon="4.07893">
        <ele>170</ele>
        <time>2024-05-04T09:12:14Z</time>
      </trkpt>
      <trkpt lat="50.11892" lon="4.07902">
        <ele>170</ele>
        <time>2024-05-04T09:12:15Z</time>
      </trkpt>
      <trkpt lat="50.11887" lon="4.0791">
        <ele>170.2</ele>
        <time>2024-05-04T09:12:16Z</time>
      </trkpt>
      <trkpt lat="50.11882" lon="4.0792">
        <ele>170</ele>
        <time>2024-05-04T09:12:17Z</time>
      </trkpt>
      <trkpt lat="50.11877" lon="4.07929">
        <ele>170.2</ele>
        <time>2024-05-04T09:12:18Z</time>
      </trkpt>
      <trkpt lat="50.11872" lon="4.07938">
        <ele>170</ele>
        <time>2024-05-04T09:12:19Z</time>
      </trkpt>
      <trkpt lat="50.11867" lon="4.07947">
        <ele>170.2</ele>
        <time>2024-05-04T09:12:20Z</time>
      </trkpt>
      <trkpt lat="50.11863" lon="4.07957">
        <ele>170</ele>
        <time>2024-05-04T09:12:21Z</time>
      </trkpt>
      <trkpt lat="50.11858" lon="4.07967">
        <ele>170</ele>
        <time>2024-05-04T09:12:22Z</time>
      </trkpt>
      <trkpt lat="50.11854" lon="4.07976">
        <ele>170</ele>
        <time>2024-05-04T09:12:23Z</time>
      </trkpt>
      <trkpt lat="50.1185" lon="4.07985">
        <ele>170</ele>
        <time>2024-05-04T09:12:24Z</time>
      </trkpt>
      <trkpt lat="50.11846" lon="4.07994">
        <ele>170</ele>
        <time>2024-05-04T09:12:25Z</time>
      </trkpt>
      <trkpt lat="50.11842" lon="4.08003">
        <ele>170</ele>
        <time>2024-05-04T09:12:26Z</time>
      </trkpt>
      <trkpt lat="50.11838" lon="4.08012">
        <ele>170</ele>
        <time>2024-05-04T09:12:27Z</time>
      </trkpt>
      <trkpt lat="50.11834" lon="4.08022">
        <ele>170</ele>
        <time>2024-05-04T09:12:28Z</time>
      </trkpt>
      <trkpt lat="50.11831" lon="4.08031">
        <ele>170</ele>
        <time>2024-05-04T09:12:29Z</time>
      </trkpt>
      <trkpt lat="50.11828" lon="4.08041">
        <ele>170.2</ele>
        <time>2024-05-04T09:12:30Z</time>
      </trkpt>
      <trkpt lat="50.11826" lon="4.0805">
        <ele>170.2</ele>
        <time>2024-05-04T09:12:31Z</time>
      </trkpt>
      <trkpt lat="50.11823" lon="4.08059">
        <ele>170</ele>
        <time>2024-05-04T09:12:32Z</time>
      </trkpt>
      <trkpt lat="50.11821" lon="4.08069">
        <ele>170</ele>
        <time>2024-05-04T09:12:33Z</time>
      </trkpt>
      <trkpt lat="50.11819" lon="4.08079">
        <ele>170</ele>
        <time>2024-05-04T09:12:34Z</time>
      </trkpt>
      <trkpt lat="50.11817" lon="4.08088">
        <ele>170.4</ele>
        <time>2024-05-04T09:12:35Z</time>
      </trkpt>
      <trkpt lat="50.11816" lon="4.08098">
        <ele>170.6</ele>
        <time>2024-05-04T09:12:36Z</time>
      </trkpt>
      <trkpt lat="50.11815" lon="4.08107">
        <ele>171</ele>
        <time>2024-05-04T09:12:37Z</time>
      </trkpt>
      <trkpt lat="50.11814" lon="4.08117">
        <ele>171.2</ele>
        <time>2024-05-04T09:12:38Z</time>
      </trkpt>
      <trkpt lat="50.11814" lon="4.08126">
        <ele>171.6</ele>
        <time>2024-05-04T09:12:39Z</time>
      </trkpt>
      <trkpt lat="50.11813" lon="4.08135">
        <ele>171.6</ele>
        <time>2024-05-04T09:12:40Z</time>
      </trkpt>
      <trkpt lat="50.11812" lon="4.08145">
        <ele>171.6</ele>
        <time>2024-05-04T09:12:41Z</time>
      </trkpt>
      <trkpt lat="50.11812" lon="4.08154">
        <ele>171.8</ele>
        <time>2024-05-04T09:12:42Z</time>
      </trkpt>
      <trkpt lat="50.11811" lon="4.08163">
        <ele>172</ele>
        <time>2024-05-04T09:12:43Z</time>
      </trkpt>
      <trkpt lat="50.11811" lon="4.08172">
        <ele>172</ele>
        <time>2024-05-04T09:12:44Z</time>
      </trkpt>
      <trkpt lat="50.1181" lon="4.08181">
        <ele>172</ele>
        <time>2024-05-04T09:12:45Z</time>
      </trkpt>
      <trkpt lat="50.11809" lon="4.08189">
        <ele>172.2</ele>
        <time>2024-05-04T09:12:46Z</time>
      </trkpt>
      <trkpt lat="50.11808" lon="4.08197">
        <ele>172.4</ele>
        <time>2024-05-04T09:12:47Z</time>
      </trkpt>
      <trkpt lat="50.11808" lon="4.08204">
        <ele>172.4</ele>
        <time>2024-05-04T09:12:48Z</time>
      </trkpt>
      <trkpt lat="50.11807" lon="4.08212">
        <ele>172.6</ele>
        <time>2024-05-04T09:12:49Z</time>
      </trkpt>
      <trkpt lat="50.11805" lon="4.08219">
        <ele>172.6</ele>
        <time>2024-05-04T09:12:50Z</time>
      </trkpt>
      <trkpt lat="50.11802" lon="4.08225">
        <ele>172.8</ele>
        <time>2024-05-04T09:12:51Z</time>
      </trkpt>
      <trkpt lat="50.11799" lon="4.08231">
        <ele>173</ele>
        <time>2024-05-04T09:12:52Z</time>
      </trkpt>
      <trkpt lat="50.11795" lon="4.08235">
        <ele>173.2</ele>
        <time>2024-05-04T09:12:53Z</time>
      </trkpt>
      <trkpt lat="50.1179" lon="4.08238">
        <ele>173.4</ele>
        <time>2024-05-04T09:12:54Z</time>
      </trkpt>
      <trkpt lat="50.11785" lon="4.08238">
        <ele>173.8</ele>
        <time>2024-05-04T09:12:55Z</time>
      </trkpt>
      <trkpt lat="50.1178" lon="4.08238">
        <ele>174.6</ele>
        <time>2024-05-04T09:12:56Z</time>
      </trkpt>
      <trkpt lat="50.11775" lon="4.08236">
        <ele>174.8</ele>
        <time>2024-05-04T09:12:57Z</time>
      </trkpt>
      <trkpt lat="50.1177" lon="4.08235">
        <ele>175.2</ele>
        <time>2024-05-04T09:12:58Z</time>
      </trkpt>
      <trkpt lat="50.11766" lon="4.08232">
        <ele>175.4</ele>
        <time>2024-05-04T09:12:59Z</time>
      </trkpt>
      <trkpt lat="50.11761" lon="4.0823">
        <ele>175.6</ele>
        <time>2024-05-04T09:13:00Z</time>
      </trkpt>
      <trkpt lat="50.11756" lon="4.08228">
        <ele>175.6</ele>
        <time>2024-05-04T09:13:01Z</time>
      </trkpt>
      <trkpt lat="50.11751" lon="4.08226">
        <ele>176</ele>
        <time>2024-05-04T09:13:02Z</time>
      </trkpt>
      <trkpt lat="50.11746" lon="4.08224">
        <ele>176</ele>
        <time>2024-05-04T09:13:03Z</time>
      </trkpt>
      <trkpt lat="50.11742" lon="4.08222">
        <ele>176.4</ele>
        <time>2024-05-04T09:13:04Z</time>
      </trkpt>
      <trkpt lat="50.11737" lon="4.0822">
        <ele>176.4</ele>
        <time>2024-05-04T09:13:05Z</time>
      </trkpt>
      <trkpt lat="50.11731" lon="4.08218">
        <ele>176.6</ele>
        <time>2024-05-04T09:13:06Z</time>
      </trkpt>
      <trkpt lat="50.11726" lon="4.08216">
        <ele>176.6</ele>
        <time>2024-05-04T09:13:07Z</time>
      </trkpt>
      <trkpt lat="50.11721" lon="4.08215">
        <ele>176.8</ele>
        <time>2024-05-04T09:13:08Z</time>
      </trkpt>
      <trkpt lat="50.11716" lon="4.08215">
        <ele>176.8</ele>
        <time>2024-05-04T09:13:09Z</time>
      </trkpt>
      <trkpt lat="50.11711" lon="4.08214">
        <ele>176.8</ele>
        <time>2024-05-04T09:13:10Z</time>
      </trkpt>
      <trkpt lat="50.11706" lon="4.08214">
        <ele>177</ele>
        <time>2024-05-04T09:13:11Z</time>
      </trkpt>
      <trkpt lat="50.11701" lon="4.08213">
        <ele>176.8</ele>
        <time>2024-05-04T09:13:12Z</time>
      </trkpt>
      <trkpt lat="50.11695" lon="4.08213">
        <ele>177</ele>
        <time>2024-05-04T09:13:13Z</time>
      </trkpt>
      <trkpt lat="50.1169" lon="4.08212">
        <ele>177</ele>
        <time>2024-05-04T09:13:14Z</time>
      </trkpt>
      <trkpt lat="50.11685" lon="4.08212">
        <ele>177.2</ele>
        <time>2024-05-04T09:13:15Z</time>
      </trkpt>
      <trkpt lat="50.11679" lon="4.08211">
        <ele>177.4</ele>
        <time>2024-05-04T09:13:16Z</time>
      </trkpt>
      <trkpt lat="50.11674" lon="4.08212">
        <ele>177.4</ele>
        <time>2024-05-04T09:13:17Z</time>
      </trkpt>
      <trkpt lat="50.11668" lon="4.08213">
        <ele>177.4</ele>
        <time>2024-05-04T09:13:18Z</time>
      </trkpt>
      <trkpt lat="50.11663" lon="4.08214">
        <ele>177.4</ele>
        <time>2024-05-04T09:13:19Z</time>
      </trkpt>
      <trkpt lat="50.11657" lon="4.08216">
        <ele>177.6</ele>
        <time>2024-05-04T09:13:20Z</time>
      </trkpt>
      <trkpt lat="50.11652" lon="4.08218">
        <ele>177.6</ele>
        <time>2024-05-04T09:13:21Z</time>
      </trkpt>
      <trkpt lat="50.11646" lon="4.0822">
        <ele>177.4</ele>
        <time>2024-05-04T09:13:22Z</time>
      </trkpt>
      <trkpt lat="50.11641" lon="4.08222">
        <ele>177.4</ele>
        <time>2024-05-04T09:13:23Z</time>
      </trkpt>
      <trkpt lat="50.11636" lon="4.08224">
        <ele>177.8</ele>
        <time>2024-05-04T09:13:24Z</time>
      </trkpt>
      <trkpt lat="50.1163" lon="4.08226">
        <ele>177.8</ele>
        <time>2024-05-04T09:13:25Z</time>
      </trkpt>
      <trkpt lat="50.11624" lon="4.08228">
        <ele>177.8</ele>
        <time>2024-05-04T09:13:26Z</time>
      </trkpt>
      <trkpt lat="50.11619" lon="4.08229">
        <ele>177.8</ele>
        <time>2024-05-04T09:13:27Z</time>
      </trkpt>
      <trkpt lat="50.11613" lon="4.08232">
        <ele>178</ele>
        <time>2024-05-04T09:13:28Z</time>
      </trkpt>
      <trkpt lat="50.11608" lon="4.08235">
        <ele>178</ele>
        <time>2024-05-04T09:13:29Z</time>
      </trkpt>
      <trkpt lat="50.11603" lon="4.08239">
        <ele>177.8</ele>
        <time>2024-05-04T09:13:30Z</time>
      </trkpt>
      <trkpt lat="50.11598" lon="4.08242">
        <ele>178</ele>
        <time>2024-05-04T09:13:31Z</time>
      </trkpt>
      <trkpt lat="50.11593" lon="4.08246">
        <ele>178</ele>
        <time>2024-05-04T09:13:32Z</time>
      </trkpt>
      <trkpt lat="50.11588" lon="4.0825">
        <ele>178</ele>
        <time>2024-05-04T09:13:33Z</time>
      </trkpt>
      <trkpt lat="50.11583" lon="4.08254">
        <ele>178</ele>
        <time>2024-05-04T09:13:34Z</time>
      </trkpt>
      <trkpt lat="50.11578" lon="4.08258">
        <ele>178</ele>
        <time>2024-05-04T09:13:35Z</time>
      </trkpt>
      <trkpt lat="50.11573" lon="4.08261">
        <ele>178.2</ele>
        <time>2024-05-04T09:13:36Z</time>
      </trkpt>
      <trkpt lat="50.11568" lon="4.08264">
        <ele>178.2</ele>
        <time>2024-05-04T09:13:37Z</time>
      </trkpt>
      <trkpt lat="50.11563" lon="4.08267">
        <ele>178</ele>
        <time>2024-05-04T09:13:38Z</time>
      </trkpt>
      <trkpt lat="50.11558" lon="4.08269">
        <ele>178</ele>
        <time>2024-05-04T09:13:39Z</time>
      </trkpt>
      <trkpt lat="50.11553" lon="4.08271">
        <ele>178</ele>
        <time>2024-05-04T09:13:40Z</time>
      </trkpt>
      <trkpt lat="50.11548" lon="4.08273">
        <ele>178</ele>
        <time>2024-05-04T09:13:41Z</time>
      </trkpt>
      <trkpt lat="50.11543" lon="4.08275">
        <ele>178</ele>
        <time>2024-05-04T09:13:42Z</time>
      </trkpt>
      <trkpt lat="50.11538" lon="4.08277">
        <ele>178</ele>
        <time>2024-05-04T09:13:43Z</time>
      </trkpt>
      <trkpt lat="50.11533" lon="4.08279">
        <ele>178.2</ele>
        <time>2024-05-04T09:13:44Z</time>
      </trkpt>
      <trkpt lat="50.11528" lon="4.0828">
        <ele>178.2</ele>
        <time>2024-05-04T09:13:45Z</time>
      </trkpt>
      <trkpt lat="50.11523" lon="4.08282">
        <ele>178.4</ele>
        <time>2024-05-04T09:13:46Z</time>
      </trkpt>
      <trkpt lat="50.11518" lon="4.08283">
        <ele>178.6</ele>
        <time>2024-05-04T09:13:47Z</time>
      </trkpt>
      <trkpt lat="50.11513" lon="4.08285">
        <ele>178.6</ele>
        <time>2024-05-04T09:13:48Z</time>
      </trkpt>
      <trkpt lat="50.11509" lon="4.08287">
        <ele>178.6</ele>
        <time>2024-05-04T09:13:49Z</time>
      </trkpt>
      <trkpt lat="50.11504" lon="4.08289">
        <ele>179</ele>
        <time>2024-05-04T09:13:50Z</time>
      </trkpt>
      <trkpt lat="50.11499" lon="4.08291">
        <ele>179</ele>
        <time>2024-05-04T09:13:51Z</time>
      </trkpt>
      <trkpt lat="50.11494" lon="4.08292">
        <ele>179.2</ele>
        <time>2024-05-04T09:13:52Z</time>
      </trkpt>
      <trkpt lat="50.11489" lon="4.08294">
        <ele>179.6</ele>
        <time>2024-05-04T09:13:53Z</time>
      </trkpt>
      <trkpt lat="50.11484" lon="4.08296">
        <ele>179.6</ele>
        <time>2024-05-04T09:13:54Z</time>
      </trkpt>
      <trkpt lat="50.11479" lon="4.08299">
        <ele>179.8</ele>
        <time>2024-05-04T09:13:55Z</time>
      </trkpt>
      <trkpt lat="50.11474" lon="4.08301">
        <ele>179.8</ele>
        <time>2024-05-04T09:13:56Z</time>
      </trkpt>
      <trkpt lat="50.11469" lon="4.08303">
        <ele>180</ele>
        <time>2024-05-04T09:13:57Z</time>
      </trkpt>
      <trkpt lat="50.11464" lon="4.08305">
        <ele>180</ele>
        <time>2024-05-04T09:13:58Z</time>
      </trkpt>
      <trkpt lat="50.1146" lon="4.08307">
        <ele>180.2</ele>
        <time>2024-05-04T09:13:59Z</time>
      </trkpt>
      <trkpt lat="50.11455" lon="4.08309">
        <ele>180.2</ele>
        <time>2024-05-04T09:14:00Z</time>
      </trkpt>
      <trkpt lat="50.11451" lon="4.08311">
        <ele>180.4</ele>
        <time>2024-05-04T09:14:01Z</time>
      </trkpt>
      <trkpt lat="50.11446" lon="4.08312">
        <ele>180.4</ele>
        <time>2024-05-04T09:14:02Z</time>
      </trkpt>
      <trkpt lat="50.11442" lon="4.08314">
        <ele>180.6</ele>
        <time>2024-05-04T09:14:03Z</time>
      </trkpt>
      <trkpt lat="50.11437" lon="4.08315">
        <ele>180.8</ele>
        <time>2024-05-04T09:14:04Z</time>
      </trkpt>
      <trkpt lat="50.11433" lon="4.08316">
        <ele>180.8</ele>
        <time>2024-05-04T09:14:05Z</time>
      </trkpt>
      <trkpt lat="50.1143" lon="4.08318">
        <ele>180.8</ele>
        <time>2024-05-04T09:14:06Z</time>
      </trkpt>
      <trkpt lat="50.11426" lon="4.0832">
        <ele>181</ele>
        <time>2024-05-04T09:14:07Z</time>
      </trkpt>
      <trkpt lat="50.11422" lon="4.08322">
        <ele>181</ele>
        <time>2024-05-04T09:14:08Z</time>
      </trkpt>
      <trkpt lat="50.11419" lon="4.08323">
        <ele>181.2</ele>
        <time>2024-05-04T09:14:09Z</time>
      </trkpt>
      <trkpt lat="50.11415" lon="4.08325">
        <ele>181.6</ele>
        <time>2024-05-04T09:14:10Z</time>
      </trkpt>
      <trkpt lat="50.11412" lon="4.08326">
        <ele>182</ele>
        <time>2024-05-04T09:14:11Z</time>
      </trkpt>
      <trkpt lat="50.11408" lon="4.08328">
        <ele>182.4</ele>
        <time>2024-05-04T09:14:12Z</time>
      </trkpt>
      <trkpt lat="50.11405" lon="4.08329">
        <ele>182.8</ele>
        <time>2024-05-04T09:14:13Z</time>
      </trkpt>
      <trkpt lat="50.11401" lon="4.08331">
        <ele>182.8</ele>
        <time>2024-05-04T09:14:14Z</time>
      </trkpt>
      <trkpt lat="50.11398" lon="4.08332">
        <ele>183.2</ele>
        <time>2024-05-04T09:14:15Z</time>
      </trkpt>
      <trkpt lat="50.11395" lon="4.08334">
        <ele>183.6</ele>
        <time>2024-05-04T09:14:16Z</time>
      </trkpt>
      <trkpt lat="50.11392" lon="4.08335">
        <ele>184</ele>
        <time>2024-05-04T09:14:17Z</time>
      </trkpt>
      <trkpt lat="50.11388" lon="4.08336">
        <ele>184</ele>
        <time>2024-05-04T09:14:18Z</time>
      </trkpt>
      <trkpt lat="50.11385" lon="4.08338">
        <ele>184.4</ele>
        <time>2024-05-04T09:14:19Z</time>
      </trkpt>
      <trkpt lat="50.11382" lon="4.08339">
        <ele>184.6</ele>
        <time>2024-05-04T09:14:20Z</time>
      </trkpt>
      <trkpt lat="50.11379" lon="4.0834">
        <ele>184.8</ele>
        <time>2024-05-04T09:14:21Z</time>
      </trkpt>
      <trkpt lat="50.11375" lon="4.08342">
        <ele>184.8</ele>
        <time>2024-05-04T09:14:22Z</time>
      </trkpt>
      <trkpt lat="50.11372" lon="4.08343">
        <ele>184.6</ele>
        <time>2024-05-04T09:14:23Z</time>
      </trkpt>
      <trkpt lat="50.11369" lon="4.08344">
        <ele>185</ele>
        <time>2024-05-04T09:14:24Z</time>
      </trkpt>
      <trkpt lat="50.11366" lon="4.08346">
        <ele>185.2</ele>
        <time>2024-05-04T09:14:25Z</time>
      </trkpt>
      <trkpt lat="50.11363" lon="4.08347">
        <ele>185.4</ele>
        <time>2024-05-04T09:14:26Z</time>
      </trkpt>
      <trkpt lat="50.1136" lon="4.08349">
        <ele>185.4</ele>
        <time>2024-05-04T09:14:27Z</time>
      </trkpt>
      <trkpt lat="50.11356" lon="4.0835">
        <ele>185.6</ele>
        <time>2024-05-04T09:14:28Z</time>
      </trkpt>
      <trkpt lat="50.11353" lon="4.08351">
        <ele>185.6</ele>
        <time>2024-05-04T09:14:29Z</time>
      </trkpt>
      <trkpt lat="50.1135" lon="4.08353">
        <ele>185.8</ele>
        <time>2024-05-04T09:14:30Z</time>
      </trkpt>
      <trkpt lat="50.11347" lon="4.08354">
        <ele>186.4</ele>
        <time>2024-05-04T09:14:31Z</time>
      </trkpt>
      <trkpt lat="50.11343" lon="4.08355">
        <ele>186.8</ele>
        <time>2024-05-04T09:14:32Z</time>
      </trkpt>
      <trkpt lat="50.1134" lon="4.08357">
        <ele>187.6</ele>
        <time>2024-05-04T09:14:33Z</time>
      </trkpt>
      <trkpt lat="50.11337" lon="4.08358">
        <ele>188</ele>
        <time>2024-05-04T09:14:34Z</time>
      </trkpt>
      <trkpt lat="50.11334" lon="4.08359">
        <ele>188.6</ele>
        <time>2024-05-04T09:14:35Z</time>
      </trkpt>
      <trkpt lat="50.11331" lon="4.0836">
        <ele>189</ele>
        <time>2024-05-04T09:14:36Z</time>
      </trkpt>
      <trkpt lat="50.11328" lon="4.08361">
        <ele>189.2</ele>
        <time>2024-05-04T09:14:37Z</time>
      </trkpt>
      <trkpt lat="50.11325" lon="4.08363">
        <ele>189.4</ele>
        <time>2024-05-04T09:14:38Z</time>
      </trkpt>
      <trkpt lat="50.11322" lon="4.08364">
        <ele>189.6</ele>
        <time>2024-05-04T09:14:39Z</time>
      </trkpt>
      <trkpt lat="50.11319" lon="4.08365">
        <ele>189.8</ele>
        <time>2024-05-04T09:14:40Z</time>
      </trkpt>
      <trkpt lat="50.11316" lon="4.08367">
        <ele>189.8</ele>
        <time>2024-05-04T09:14:41Z</time>
      </trkpt>
      <trkpt lat="50.11313" lon="4.08368">
        <ele>190</ele>
        <time>2024-05-04T09:14:42Z</time>
      </trkpt>
      <trkpt lat="50.1131" lon="4.0837">
        <ele>190.4</ele>
        <time>2024-05-04T09:14:43Z</time>
      </trkpt>
      <trkpt lat="50.11307" lon="4.08371">
        <ele>190.8</ele>
        <time>2024-05-04T09:14:44Z</time>
      </trkpt>
      <trkpt lat="50.11304" lon="4.08372">
        <ele>191</ele>
        <time>2024-05-04T09:14:45Z</time>
      </trkpt>
      <trkpt lat="50.11301" lon="4.08373">
        <ele>191</ele>
        <time>2024-05-04T09:14:46Z</time>
      </trkpt>
      <trkpt lat="50.11298" lon="4.08374">
        <ele>191.4</ele>
        <time>2024-05-04T09:14:47Z</time>
      </trkpt>
      <trkpt lat="50.11295" lon="4.08376">
        <ele>191.8</ele>
        <time>2024-05-04T09:14:48Z</time>
      </trkpt>
      <trkpt lat="50.11292" lon="4.08378">
        <ele>192</ele>
        <time>2024-05-04T09:14:49Z</time>
      </trkpt>
      <trkpt lat="50.11289" lon="4.08379">
        <ele>192.4</ele>
        <time>2024-05-04T09:14:50Z</time>
      </trkpt>
      <trkpt lat="50.11286" lon="4.0838">
        <ele>192.8</ele>
        <time>2024-05-04T09:14:51Z</time>
      </trkpt>
      <trkpt lat="50.11284" lon="4.08382">
        <ele>193</ele>
        <time>2024-05-04T09:14:52Z</time>
      </trkpt>
      <trkpt lat="50.11281" lon="4.08383">
        <ele>193</ele>
        <time>2024-05-04T09:14:53Z</time>
      </trkpt>
      <trkpt lat="50.11278" lon="4.08385">
        <ele>193.2</ele>
        <time>2024-05-04T09:14:54Z</time>
      </trkpt>
      <trkpt lat="50.11275" lon="4.08387">
        <ele>193.4</ele>
        <time>2024-05-04T09:14:55Z</time>
      </trkpt>
      <trkpt lat="50.11272" lon="4.08388">
        <ele>193.8</ele>
        <time>2024-05-04T09:14:56Z</time>
      </trkpt>
      <trkpt lat="50.1127" lon="4.0839">
        <ele>194</ele>
        <time>2024-05-04T09:14:57Z</time>
      </trkpt>
      <trkpt lat="50.11267" lon="4.08392">
        <ele>194.2</ele>
        <time>2024-05-04T09:14:58Z</time>
      </trkpt>
      <trkpt lat="50.11264" lon="4.08393">
        <ele>194.4</ele>
        <time>2024-05-04T09:14:59Z</time>
      </trkpt>
      <trkpt lat="50.11261" lon="4.08395">
        <ele>194.8</ele>
        <time>2024-05-04T09:15:00Z</time>
      </trkpt>
      <trkpt lat="50.11258" lon="4.08397">
        <ele>195.2</ele>
        <time>2024-05-04T09:15:01Z</time>
      </trkpt>
      <trkpt lat="50.11255" lon="4.08398">
        <ele>195.4</ele>
        <time>2024-05-04T09:15:02Z</time>
      </trkpt>
      <trkpt lat="50.11253" lon="4.084">
        <ele>195.4</ele>
        <time>2024-05-04T09:15:03Z</time>
      </trkpt>
      <trkpt lat="50.1125" lon="4.08401">
        <ele>195.6</ele>
        <time>2024-05-04T09:15:04Z</time>
      </trkpt>
      <trkpt lat="50.11247" lon="4.08403">
        <ele>195.8</ele>
        <time>2024-05-04T09:15:05Z</time>
      </trkpt>
      <trkpt lat="50.11244" lon="4.08405">
        <ele>195.8</ele>
        <time>2024-05-04T09:15:06Z</time>
      </trkpt>
      <trkpt lat="50.11241" lon="4.08406">
        <ele>196.2</ele>
        <time>2024-05-04T09:15:07Z</time>
      </trkpt>
      <trkpt lat="50.11238" lon="4.08408">
        <ele>196.2</ele>
        <time>2024-05-04T09:15:08Z</time>
      </trkpt>
      <trkpt lat="50.11235" lon="4.0841">
        <ele>196.6</ele>
        <time>2024-05-04T09:15:09Z</time>
      </trkpt>
      <trkpt lat="50.11232" lon="4.08411">
        <ele>196.8</ele>
        <time>2024-05-04T09:15:10Z</time>
      </trkpt>
      <trkpt lat="50.11229" lon="4.08413">
        <ele>197.2</ele>
        <time>2024-05-04T09:15:11Z</time>
      </trkpt>
      <trkpt lat="50.11226" lon="4.08414">
        <ele>197.4</ele>
        <time>2024-05-04T09:15:12Z</time>
      </trkpt>
      <trkpt lat="50.11223" lon="4.08416">
        <ele>197.4</ele>
        <time>2024-05-04T09:15:13Z</time>
      </trkpt>
      <trkpt lat="50.1122" lon="4.08417">
        <ele>197.6</ele>
        <time>2024-05-04T09:15:14Z</time>
      </trkpt>
      <trkpt lat="50.11217" lon="4.08419">
        <ele>198</ele>
        <time>2024-05-04T09:15:15Z</time>
      </trkpt>
      <trkpt lat="50.11214" lon="4.0842">
        <ele>198.4</ele>
        <time>2024-05-04T09:15:16Z</time>
      </trkpt>
      <trkpt lat="50.11211" lon="4.08422">
        <ele>198.6</ele>
        <time>2024-05-04T09:15:17Z</time>
      </trkpt>
      <trkpt lat="50.11208" lon="4.08423">
        <ele>198.8</ele>
        <time>2024-05-04T09:15:18Z</time>
      </trkpt>
      <trkpt lat="50.11204" lon="4.08425">
        <ele>198.8</ele>
        <time>2024-05-04T09:15:19Z</time>
      </trkpt>
      <trkpt lat="50.11201" lon="4.08426">
        <ele>199</ele>
        <time>2024-05-04T09:15:20Z</time>
      </trkpt>
      <trkpt lat="50.11198" lon="4.08428">
        <ele>199</ele>
        <time>2024-05-04T09:15:21Z</time>
      </trkpt>
      <trkpt lat="50.11195" lon="4.08429">
        <ele>199</ele>
        <time>2024-05-04T09:15:22Z</time>
      </trkpt>
      <trkpt lat="50.11192" lon="4.0843">
        <ele>199.2</ele>
        <time>2024-05-04T09:15:23Z</time>
      </trkpt>
      <trkpt lat="50.11189" lon="4.08431">
        <ele>199.4</ele>
        <time>2024-05-04T09:15:24Z</time>
      </trkpt>
      <trkpt lat="50.11186" lon="4.08433">
        <ele>199.4</ele>
        <time>2024-05-04T09:15:25Z</time>
      </trkpt>
      <trkpt lat="50.11182" lon="4.08434">
        <ele>199.6</ele>
        <time>2024-05-04T09:15:26Z</time>
      </trkpt>
      <trkpt lat="50.11179" lon="4.08435">
        <ele>199.6</ele>
        <time>2024-05-04T09:15:27Z</time>
      </trkpt>
      <trkpt lat="50.11176" lon="4.08437">
        <ele>199.6</ele>
        <time>2024-05-04T09:15:28Z</time>
      </trkpt>
      <trkpt lat="50.11173" lon="4.08438">
        <ele>200.4</ele>
        <time>2024-05-04T09:15:29Z</time>
      </trkpt>
      <trkpt lat="50.11169" lon="4.08439">
        <ele>200.8</ele>
        <time>2024-05-04T09:15:30Z</time>
      </trkpt>
      <trkpt lat="50.11166" lon="4.08441">
        <ele>201.2</ele>
        <time>2024-05-04T09:15:31Z</time>
      </trkpt>
      <trkpt lat="50.11163" lon="4.08442">
        <ele>201.6</ele>
        <time>2024-05-04T09:15:32Z</time>
      </trkpt>
      <trkpt lat="50.11159" lon="4.08443">
        <ele>201.6</ele>
        <time>2024-05-04T09:15:33Z</time>
      </trkpt>
      <trkpt lat="50.11156" lon="4.08444">
        <ele>201.8</ele>
        <time>2024-05-04T09:15:34Z</time>
      </trkpt>
      <trkpt lat="50.11152" lon="4.08445">
        <ele>201.8</ele>
        <time>2024-05-04T09:15:35Z</time>
      </trkpt>
      <trkpt lat="50.11148" lon="4.08447">
        <ele>202</ele>
        <time>2024-05-04T09:15:36Z</time>
      </trkpt>
      <trkpt lat="50.11145" lon="4.08448">
        <ele>202</ele>
        <time>2024-05-04T09:15:37Z</time>
      </trkpt>
      <trkpt lat="50.11141" lon="4.0845">
        <ele>202</ele>
        <time>2024-05-04T09:15:38Z</time>
      </trkpt>
      <trkpt lat="50.11137" lon="4.08451">
        <ele>202</ele>
        <time>2024-05-04T09:15:39Z</time>
      </trkpt>
      <trkpt lat="50.11133" lon="4.08453">
        <ele>202.2</ele>
        <time>2024-05-04T09:15:40Z</time>
      </trkpt>
      <trkpt lat="50.11129" lon="4.08454">
        <ele>202.4</ele>
        <time>2024-05-04T09:15:41Z</time>
      </trkpt>
      <trkpt lat="50.11126" lon="4.08455">
        <ele>202.4</ele>
        <time>2024-05-04T09:15:42Z</time>
      </trkpt>
      <trkpt lat="50.11122" lon="4.08456">
        <ele>202.6</ele>
        <time>2024-05-04T09:15:43Z</time>
      </trkpt>
      <trkpt lat="50.11118" lon="4.08457">
        <ele>202.8</ele>
        <time>2024-05-04T09:15:44Z</time>
      </trkpt>
      <trkpt lat="50.11114" lon="4.08458">
        <ele>203</ele>
        <time>2024-05-04T09:15:45Z</time>
      </trkpt>
      <trkpt lat="50.1111" lon="4.0846">
        <ele>203</ele>
        <time>2024-05-04T09:15:46Z</time>
      </trkpt>
      <trkpt lat="50.11106" lon="4.08461">
        <ele>203.4</ele>
        <time>2024-05-04T09:15:47Z</time>
      </trkpt>
      <trkpt lat="50.11103" lon="4.08462">
        <ele>203.4</ele>
        <time>2024-05-04T09:15:48Z</time>
      </trkpt>
      <trkpt lat="50.11099" lon="4.08463">
        <ele>203.4</ele>
        <time>2024-05-04T09:15:49Z</time>
      </trkpt>
      <trkpt lat="50.11095" lon="4.08465">
        <ele>203.4</ele>
        <time>2024-05-04T09:15:50Z</time>
      </trkpt>
      <trkpt lat="50.11091" lon="4.08466">
        <ele>203.6</ele>
        <time>2024-05-04T09:15:51Z</time>
      </trkpt>
      <trkpt lat="50.11088" lon="4.08467">
        <ele>203.8</ele>
        <time>2024-05-04T09:15:52Z</time>
      </trkpt>
      <trkpt lat="50.11084" lon="4.08469">
        <ele>203.8</ele>
        <time>2024-05-04T09:15:53Z</time>
      </trkpt>
      <trkpt lat="50.1108" lon="4.0847">
        <ele>204</ele>
        <time>2024-05-04T09:15:54Z</time>
      </trkpt>
      <trkpt lat="50.11077" lon="4.08471">
        <ele>204.4</ele>
        <time>2024-05-04T09:15:55Z</time>
      </trkpt>
      <trkpt lat="50.11073" lon="4.08472">
        <ele>204.6</ele>
        <time>2024-05-04T09:15:56Z</time>
      </trkpt>
      <trkpt lat="50.11069" lon="4.08474">
        <ele>204.6</ele>
        <time>2024-05-04T09:15:57Z</time>
      </trkpt>
      <trkpt lat="50.11066" lon="4.08475">
        <ele>204.8</ele>
        <time>2024-05-04T09:15:58Z</time>
      </trkpt>
      <trkpt lat="50.11062" lon="4.08476">
        <ele>204.8</ele>
        <time>2024-05-04T09:15:59Z</time>
      </trkpt>
      <trkpt lat="50.11058" lon="4.08477">
        <ele>205</ele>
        <time>2024-05-04T09:16:00Z</time>
      </trkpt>
      <trkpt lat="50.11055" lon="4.08479">
        <ele>205</ele>
        <time>2024-05-04T09:16:01Z</time>
      </trkpt>
      <trkpt lat="50.11051" lon="4.0848">
        <ele>205</ele>
        <time>2024-05-04T09:16:02Z</time>
      </trkpt>
      <trkpt lat="50.11048" lon="4.08481">
        <ele>205.4</ele>
        <time>2024-05-04T09:16:03Z</time>
      </trkpt>
      <trkpt lat="50.11044" lon="4.08483">
        <ele>205.8</ele>
        <time>2024-05-04T09:16:04Z</time>
      </trkpt>
      <trkpt lat="50.1104" lon="4.08484">
        <ele>205.8</ele>
        <time>2024-05-04T09:16:05Z</time>
      </trkpt>
      <trkpt lat="50.11037" lon="4.08485">
        <ele>206</ele>
        <time>2024-05-04T09:16:06Z</time>
      </trkpt>
      <trkpt lat="50.11033" lon="4.08486">
        <ele>206</ele>
        <time>2024-05-04T09:16:07Z</time>
      </trkpt>
      <trkpt lat="50.1103" lon="4.08488">
        <ele>206.4</ele>
        <time>2024-05-04T09:16:08Z</time>
      </trkpt>
      <trkpt lat="50.11026" lon="4.08489">
        <ele>206.6</ele>
        <time>2024-05-04T09:16:09Z</time>
      </trkpt>
      <trkpt lat="50.11023" lon="4.0849">
        <ele>206.8</ele>
        <time>2024-05-04T09:16:10Z</time>
      </trkpt>
      <trkpt lat="50.11019" lon="4.08492">
        <ele>207</ele>
        <time>2024-05-04T09:16:11Z</time>
      </trkpt>
      <trkpt lat="50.11016" lon="4.08493">
        <ele>207.2</ele>
        <time>2024-05-04T09:16:12Z</time>
      </trkpt>
      <trkpt lat="50.11012" lon="4.08494">
        <ele>207.6</ele>
        <time>2024-05-04T09:16:13Z</time>
      </trkpt>
      <trkpt lat="50.11009" lon="4.08495">
        <ele>207.6</ele>
        <time>2024-05-04T09:16:14Z</time>
      </trkpt>
      <trkpt lat="50.11005" lon="4.08496">
        <ele>207.8</ele>
        <time>2024-05-04T09:16:15Z</time>
      </trkpt>
      <trkpt lat="50.11002" lon="4.08498">
        <ele>207.8</ele>
        <time>2024-05-04T09:16:16Z</time>
      </trkpt>
      <trkpt lat="50.10998" lon="4.08499">
        <ele>208.2</ele>
        <time>2024-05-04T09:16:17Z</time>
      </trkpt>
      <trkpt lat="50.10995" lon="4.08501">
        <ele>208.4</ele>
        <time>2024-05-04T09:16:18Z</time>
      </trkpt>
      <trkpt lat="50.10991" lon="4.08502">
        <ele>208.4</ele>
        <time>2024-05-04T09:16:19Z</time>
      </trkpt>
      <trkpt lat="50.10988" lon="4.08504">
        <ele>208.8</ele>
        <time>2024-05-04T09:16:20Z</time>
      </trkpt>
      <trkpt lat="50.10984" lon="4.08505">
        <ele>209</ele>
        <time>2024-05-04T09:16:21Z</time>
      </trkpt>
      <trkpt lat="50.1098" lon="4.08506">
        <ele>209.2</ele>
        <time>2024-05-04T09:16:22Z</time>
      </trkpt>
      <trkpt lat="50.10977" lon="4.08507">
        <ele>209.4</ele>
        <time>2024-05-04T09:16:23Z</time>
      </trkpt>
      <trkpt lat="50.10974" lon="4.08508">
        <ele>209.8</ele>
        <time>2024-05-04T09:16:24Z</time>
      </trkpt>
      <trkpt lat="50.1097" lon="4.08509">
        <ele>210.2</ele>
        <time>2024-05-04T09:16:25Z</time>
      </trkpt>
      <trkpt lat="50.10967" lon="4.0851">
        <ele>210.6</ele>
        <time>2024-05-04T09:16:26Z</time>
      </trkpt>
      <trkpt lat="50.10963" lon="4.08511">
        <ele>210.8</ele>
        <time>2024-05-04T09:16:27Z</time>
      </trkpt>
      <trkpt lat="50.1096" lon="4.08512">
        <ele>211</ele>
        <time>2024-05-04T09:16:28Z</time>
      </trkpt>
      <trkpt lat="50.10957" lon="4.08513">
        <ele>211.4</ele>
        <time>2024-05-04T09:16:29Z</time>
      </trkpt>
      <trkpt lat="50.10953" lon="4.08515">
        <ele>211.6</ele>
        <time>2024-05-04T09:16:30Z</time>
      </trkpt>
      <trkpt lat="50.1095" lon="4.08516">
        <ele>211.8</ele>
        <time>2024-05-04T09:16:31Z</time>
      </trkpt>
      <trkpt lat="50.10946" lon="4.08517">
        <ele>212.2</ele>
        <time>2024-05-04T09:16:32Z</time>
      </trkpt>
      <trkpt lat="50.10943" lon="4.08518">
        <ele>212.4</ele>
        <time>2024-05-04T09:16:33Z</time>
      </trkpt>
      <trkpt lat="50.1094" lon="4.08519">
        <ele>212.4</ele>
        <time>2024-05-04T09:16:34Z</time>
      </trkpt>
      <trkpt lat="50.10937" lon="4.0852">
        <ele>212.8</ele>
        <time>2024-05-04T09:16:35Z</time>
      </trkpt>
      <trkpt lat="50.10933" lon="4.08521">
        <ele>213</ele>
        <time>2024-05-04T09:16:36Z</time>
      </trkpt>
      <trkpt lat="50.1093" lon="4.08522">
        <ele>213.2</ele>
        <time>2024-05-04T09:16:37Z</time>
      </trkpt>
      <trkpt lat="50.10927" lon="4.08524">
        <ele>213.6</ele>
        <time>2024-05-04T09:16:38Z</time>
      </trkpt>
      <trkpt lat="50.10924" lon="4.08525">
        <ele>213.6</ele>
        <time>2024-05-04T09:16:39Z</time>
      </trkpt>
      <trkpt lat="50.1092" lon="4.08526">
        <ele>214</ele>
        <time>2024-05-04T09:16:40Z</time>
      </trkpt>
      <trkpt lat="50.10917" lon="4.08527">
        <ele>214.2</ele>
        <time>2024-05-04T09:16:41Z</time>
      </trkpt>
      <trkpt lat="50.10914" lon="4.08528">
        <ele>214.6</ele>
        <time>2024-05-04T09:16:42Z</time>
      </trkpt>
      <trkpt lat="50.10911" lon="4.08529">
        <ele>214.8</ele>
        <time>2024-05-04T09:16:43Z</time>
      </trkpt>
      <trkpt lat="50.10907" lon="4.08531">
        <ele>215</ele>
        <time>2024-05-04T09:16:44Z</time>
      </trkpt>
      <trkpt lat="50.10904" lon="4.08532">
        <ele>215.4</ele>
        <time>2024-05-04T09:16:45Z</time>
      </trkpt>
      <trkpt lat="50.10901" lon="4.08533">
        <ele>215.8</ele>
        <time>2024-05-04T09:16:46Z</time>
      </trkpt>
      <trkpt lat="50.10897" lon="4.08534">
        <ele>216</ele>
        <time>2024-05-04T09:16:47Z</time>
      </trkpt>
      <trkpt lat="50.10894" lon="4.08535">
        <ele>216.2</ele>
        <time>2024-05-04T09:16:48Z</time>
      </trkpt>
      <trkpt lat="50.10891" lon="4.08536">
        <ele>216.4</ele>
        <time>2024-05-04T09:16:49Z</time>
      </trkpt>
      <trkpt lat="50.10888" lon="4.08537">
        <ele>216.6</ele>
        <time>2024-05-04T09:16:50Z</time>
      </trkpt>
      <trkpt lat="50.10885" lon="4.08538">
        <ele>217</ele>
        <time>2024-05-04T09:16:51Z</time>
      </trkpt>
      <trkpt lat="50.10882" lon="4.08539">
        <ele>217</ele>
        <time>2024-05-04T09:16:52Z</time>
      </trkpt>
      <trkpt lat="50.10879" lon="4.0854">
        <ele>217.4</ele>
        <time>2024-05-04T09:16:53Z</time>
      </trkpt>
      <trkpt lat="50.10876" lon="4.08541">
        <ele>217.4</ele>
        <time>2024-05-04T09:16:54Z</time>
      </trkpt>
      <trkpt lat="50.10873" lon="4.08542">
        <ele>217.6</ele>
        <time>2024-05-04T09:16:55Z</time>
      </trkpt>
      <trkpt lat="50.10869" lon="4.08543">
        <ele>217.6</ele>
        <time>2024-05-04T09:16:56Z</time>
      </trkpt>
      <trkpt lat="50.10866" lon="4.08544">
        <ele>218</ele>
        <time>2024-05-04T09:16:57Z</time>
      </trkpt>
      <trkpt lat="50.10863" lon="4.08546">
        <ele>218.4</ele>
        <time>2024-05-04T09:16:58Z</time>
      </trkpt>
      <trkpt lat="50.1086" lon="4.08547">
        <ele>218.6</ele>
        <time>2024-05-04T09:16:59Z</time>
      </trkpt>
      <trkpt lat="50.10857" lon="4.08548">
        <ele>218.8</ele>
        <time>2024-05-04T09:17:00Z</time>
      </trkpt>
      <trkpt lat="50.10854" lon="4.0855">
        <ele>219</ele>
        <time>2024-05-04T09:17:01Z</time>
      </trkpt>
      <trkpt lat="50.10851" lon="4.08551">
        <ele>219.2</ele>
        <time>2024-05-04T09:17:02Z</time>
      </trkpt>
      <trkpt lat="50.10848" lon="4.08553">
        <ele>219.4</ele>
        <time>2024-05-04T09:17:03Z</time>
      </trkpt>
      <trkpt lat="50.10845" lon="4.08554">
        <ele>219.8</ele>
        <time>2024-05-04T09:17:04Z</time>
      </trkpt>
      <trkpt lat="50.10842" lon="4.08556">
        <ele>219.8</ele>
        <time>2024-05-04T09:17:05Z</time>
      </trkpt>
      <trkpt lat="50.10839" lon="4.08557">
        <ele>220</ele>
        <time>2024-05-04T09:17:06Z</time>
      </trkpt>
      <trkpt lat="50.10836" lon="4.08559">
        <ele>220.4</ele>
        <time>2024-05-04T09:17:07Z</time>
      </trkpt>
      <trkpt lat="50.10833" lon="4.08561">
        <ele>220.4</ele>
        <time>2024-05-04T09:17:08Z</time>
      </trkpt>
      <trkpt lat="50.10829" lon="4.08563">
        <ele>220.6</ele>
        <time>2024-05-04T09:17:09Z</time>
      </trkpt>
      <trkpt lat="50.10826" lon="4.08565">
        <ele>220.8</ele>
        <time>2024-05-04T09:17:10Z</time>
      </trkpt>
      <trkpt lat="50.10823" lon="4.08566">
        <ele>220.8</ele>
        <time>2024-05-04T09:17:11Z</time>
      </trkpt>
      <trkpt lat="50.10819" lon="4.08568">
        <ele>221</ele>
        <time>2024-05-04T09:17:12Z</time>
      </trkpt>
      <trkpt lat="50.10816" lon="4.0857">
        <ele>221.2</ele>
        <time>2024-05-04T09:17:13Z</time>
      </trkpt>
      <trkpt lat="50.10812" lon="4.08572">
        <ele>221.6</ele>
        <time>2024-05-04T09:17:14Z</time>
      </trkpt>
      <trkpt lat="50.10809" lon="4.08574">
        <ele>221.8</ele>
        <time>2024-05-04T09:17:15Z</time>
      </trkpt>
      <trkpt lat="50.10805" lon="4.08576">
        <ele>221.8</ele>
        <time>2024-05-04T09:17:16Z</time>
      </trkpt>
      <trkpt lat="50.10802" lon="4.08578">
        <ele>222</ele>
        <time>2024-05-04T09:17:17Z</time>
      </trkpt>
      <trkpt lat="50.10798" lon="4.0858">
        <ele>222</ele>
        <time>2024-05-04T09:17:18Z</time>
      </trkpt>
      <trkpt lat="50.10794" lon="4.08582">
        <ele>222.2</ele>
        <time>2024-05-04T09:17:19Z</time>
      </trkpt>
      <trkpt lat="50.10791" lon="4.08584">
        <ele>222.4</ele>
        <time>2024-05-04T09:17:20Z</time>
      </trkpt>
      <trkpt lat="50.10787" lon="4.08587">
        <ele>222.6</ele>
        <time>2024-05-04T09:17:21Z</time>
      </trkpt>
      <trkpt lat="50.10783" lon="4.08589">
        <ele>222.6</ele>
        <time>2024-05-04T09:17:22Z</time>
      </trkpt>
      <trkpt lat="50.10778" lon="4.08591">
        <ele>222.8</ele>
        <time>2024-05-04T09:17:23Z</time>
      </trkpt>
      <trkpt lat="50.10774" lon="4.08594">
        <ele>222.8</ele>
        <time>2024-05-04T09:17:24Z</time>
      </trkpt>
      <trkpt lat="50.10769" lon="4.08596">
        <ele>223.2</ele>
        <time>2024-05-04T09:17:25Z</time>
      </trkpt>
      <trkpt lat="50.10765" lon="4.08598">
        <ele>223.4</ele>
        <time>2024-05-04T09:17:26Z</time>
      </trkpt>
      <trkpt lat="50.1076" lon="4.08599">
        <ele>223.6</ele>
        <time>2024-05-04T09:17:27Z</time>
      </trkpt>
      <trkpt lat="50.10755" lon="4.08601">
        <ele>223.6</ele>
        <time>2024-05-04T09:17:28Z</time>
      </trkpt>
      <trkpt lat="50.1075" lon="4.08603">
        <ele>223.6</ele>
        <time>2024-05-04T09:17:29Z</time>
      </trkpt>
      <trkpt lat="50.10745" lon="4.08604">
        <ele>223.8</ele>
        <time>2024-05-04T09:17:30Z</time>
      </trkpt>
      <trkpt lat="50.1074" lon="4.08606">
        <ele>223.6</ele>
        <time>2024-05-04T09:17:31Z</time>
      </trkpt>
      <trkpt lat="50.10734" lon="4.08608">
        <ele>223.6</ele>
        <time>2024-05-04T09:17:32Z</time>
      </trkpt>
      <trkpt lat="50.10729" lon="4.08609">
        <ele>223.6</ele>
        <time>2024-05-04T09:17:33Z</time>
      </trkpt>
      <trkpt lat="50.10723" lon="4.0861">
        <ele>223.8</ele>
        <time>2024-05-04T09:17:34Z</time>
      </trkpt>
      <trkpt lat="50.10717" lon="4.08611">
        <ele>223.6</ele>
        <time>2024-05-04T09:17:35Z</time>
      </trkpt>
      <trkpt lat="50.10711" lon="4.08612">
        <ele>223.8</ele>
        <time>2024-05-04T09:17:36Z</time>
      </trkpt>
      <trkpt lat="50.10705" lon="4.08613">
        <ele>223.6</ele>
        <time>2024-05-04T09:17:37Z</time>
      </trkpt>
      <trkpt lat="50.10699" lon="4.08614">
        <ele>223.6</ele>
        <time>2024-05-04T09:17:38Z</time>
      </trkpt>
      <trkpt lat="50.10693" lon="4.08615">
        <ele>223.8</ele>
        <time>2024-05-04T09:17:39Z</time>
      </trkpt>
      <trkpt lat="50.10686" lon="4.08616">
        <ele>223.8</ele>
        <time>2024-05-04T09:17:40Z</time>
      </trkpt>
      <trkpt lat="50.1068" lon="4.08617">
        <ele>223.6</ele>
        <time>2024-05-04T09:17:41Z</time>
      </trkpt>
      <trkpt lat="50.10674" lon="4.08618">
        <ele>223</ele>
        <time>2024-05-04T09:17:42Z</time>
      </trkpt>
      <trkpt lat="50.10667" lon="4.0862">
        <ele>223</ele>
        <time>2024-05-04T09:17:43Z</time>
      </trkpt>
      <trkpt lat="50.10661" lon="4.08622">
        <ele>222.8</ele>
        <time>2024-05-04T09:17:44Z</time>
      </trkpt>
      <trkpt lat="50.10654" lon="4.08625">
        <ele>222.8</ele>
        <time>2024-05-04T09:17:45Z</time>
      </trkpt>
      <trkpt lat="50.10648" lon="4.08628">
        <ele>222.6</ele>
        <time>2024-05-04T09:17:46Z</time>
      </trkpt>
      <trkpt lat="50.10642" lon="4.08631">
        <ele>222.4</ele>
        <time>2024-05-04T09:17:47Z</time>
      </trkpt>
      <trkpt lat="50.10636" lon="4.08635">
        <ele>222.4</ele>
        <time>2024-05-04T09:17:48Z</time>
      </trkpt>
      <trkpt lat="50.1063" lon="4.08639">
        <ele>222.4</ele>
        <time>2024-05-04T09:17:49Z</time>
      </trkpt>
      <trkpt lat="50.10625" lon="4.08643">
        <ele>222.4</ele>
        <time>2024-05-04T09:17:50Z</time>
      </trkpt>
      <trkpt lat="50.10619" lon="4.08647">
        <ele>222.4</ele>
        <time>2024-05-04T09:17:51Z</time>
      </trkpt>
      <trkpt lat="50.10614" lon="4.08651">
        <ele>222.2</ele>
        <time>2024-05-04T09:17:52Z</time>
      </trkpt>
      <trkpt lat="50.10609" lon="4.08655">
        <ele>222.2</ele>
        <time>2024-05-04T09:17:53Z</time>
      </trkpt>
      <trkpt lat="50.10604" lon="4.08659">
        <ele>222.2</ele>
        <time>2024-05-04T09:17:54Z</time>
      </trkpt>
      <trkpt lat="50.10599" lon="4.08663">
        <ele>222.2</ele>
        <time>2024-05-04T09:17:55Z</time>
      </trkpt>
      <trkpt lat="50.10594" lon="4.08667">
        <ele>222.2</ele>
        <time>2024-05-04T09:17:56Z</time>
      </trkpt>
      <trkpt lat="50.10589" lon="4.0867">
        <ele>222.2</ele>
        <time>2024-05-04T09:17:57Z</time>
      </trkpt>
      <trkpt lat="50.10584" lon="4.08674">
        <ele>222.2</ele>
        <time>2024-05-04T09:17:58Z</time>
      </trkpt>
      <trkpt lat="50.10579" lon="4.08678">
        <ele>222.4</ele>
        <time>2024-05-04T09:17:59Z</time>
      </trkpt>
      <trkpt lat="50.10574" lon="4.08682">
        <ele>222.4</ele>
        <time>2024-05-04T09:18:00Z</time>
      </trkpt>
      <trkpt lat="50.10569" lon="4.08686">
        <ele>222.2</ele>
        <time>2024-05-04T09:18:01Z</time>
      </trkpt>
      <trkpt lat="50.10564" lon="4.0869">
        <ele>222.2</ele>
        <time>2024-05-04T09:18:02Z</time>
      </trkpt>
      <trkpt lat="50.10559" lon="4.08694">
        <ele>222.2</ele>
        <time>2024-05-04T09:18:03Z</time>
      </trkpt>
      <trkpt lat="50.10553" lon="4.08698">
        <ele>222.2</ele>
        <time>2024-05-04T09:18:04Z</time>
      </trkpt>
      <trkpt lat="50.10548" lon="4.08702">
        <ele>222.4</ele>
        <time>2024-05-04T09:18:05Z</time>
      </trkpt>
      <trkpt lat="50.10543" lon="4.08706">
        <ele>222.8</ele>
        <time>2024-05-04T09:18:06Z</time>
      </trkpt>
      <trkpt lat="50.10538" lon="4.0871">
        <ele>223.4</ele>
        <time>2024-05-04T09:18:07Z</time>
      </trkpt>
      <trkpt lat="50.10532" lon="4.08714">
        <ele>223.8</ele>
        <time>2024-05-04T09:18:08Z</time>
      </trkpt>
      <trkpt lat="50.10527" lon="4.08719">
        <ele>224</ele>
        <time>2024-05-04T09:18:09Z</time>
      </trkpt>
      <trkpt lat="50.10522" lon="4.08723">
        <ele>224.2</ele>
        <time>2024-05-04T09:18:10Z</time>
      </trkpt>
      <trkpt lat="50.10516" lon="4.08727">
        <ele>224.2</ele>
        <time>2024-05-04T09:18:11Z</time>
      </trkpt>
      <trkpt lat="50.10511" lon="4.08731">
        <ele>224</ele>
        <time>2024-05-04T09:18:12Z</time>
      </trkpt>
      <trkpt lat="50.10505" lon="4.08735">
        <ele>224</ele>
        <time>2024-05-04T09:18:13Z</time>
      </trkpt>
      <trkpt lat="50.10499" lon="4.08739">
        <ele>224.4</ele>
        <time>2024-05-04T09:18:14Z</time>
      </trkpt>
      <trkpt lat="50.10493" lon="4.08743">
        <ele>224.4</ele>
        <time>2024-05-04T09:18:15Z</time>
      </trkpt>
      <trkpt lat="50.10488" lon="4.08747">
        <ele>224.2</ele>
        <time>2024-05-04T09:18:16Z</time>
      </trkpt>
      <trkpt lat="50.10482" lon="4.08751">
        <ele>224.2</ele>
        <time>2024-05-04T09:18:17Z</time>
      </trkpt>
      <trkpt lat="50.10475" lon="4.08755">
        <ele>224.2</ele>
        <time>2024-05-04T09:18:18Z</time>
      </trkpt>
      <trkpt lat="50.10469" lon="4.08758">
        <ele>223.8</ele>
        <time>2024-05-04T09:18:19Z</time>
      </trkpt>
      <trkpt lat="50.10462" lon="4.08761">
        <ele>223.6</ele>
        <time>2024-05-04T09:18:20Z</time>
      </trkpt>
      <trkpt lat="50.10456" lon="4.08764">
        <ele>223.8</ele>
        <time>2024-05-04T09:18:21Z</time>
      </trkpt>
      <trkpt lat="50.10449" lon="4.08766">
        <ele>223.4</ele>
        <time>2024-05-04T09:18:22Z</time>
      </trkpt>
      <trkpt lat="50.10442" lon="4.08769">
        <ele>223.4</ele>
        <time>2024-05-04T09:18:23Z</time>
      </trkpt>
      <trkpt lat="50.10435" lon="4.08771">
        <ele>223.4</ele>
        <time>2024-05-04T09:18:24Z</time>
      </trkpt>
      <trkpt lat="50.10428" lon="4.08774">
        <ele>223.2</ele>
        <time>2024-05-04T09:18:25Z</time>
      </trkpt>
      <trkpt lat="50.1042" lon="4.08776">
        <ele>223</ele>
        <time>2024-05-04T09:18:26Z</time>
      </trkpt>
      <trkpt lat="50.10413" lon="4.08779">
        <ele>223.2</ele>
        <time>2024-05-04T09:18:27Z</time>
      </trkpt>
      <trkpt lat="50.10406" lon="4.08783">
        <ele>223</ele>
        <time>2024-05-04T09:18:28Z</time>
      </trkpt>
      <trkpt lat="50.10399" lon="4.08787">
        <ele>222.8</ele>
        <time>2024-05-04T09:18:29Z</time>
      </trkpt>
      <trkpt lat="50.10393" lon="4.08791">
        <ele>222.8</ele>
        <time>2024-05-04T09:18:30Z</time>
      </trkpt>
      <trkpt lat="50.10386" lon="4.08796">
        <ele>222.8</ele>
        <time>2024-05-04T09:18:31Z</time>
      </trkpt>
      <trkpt lat="50.1038" lon="4.08801">
        <ele>222.6</ele>
        <time>2024-05-04T09:18:32Z</time>
      </trkpt>
      <trkpt lat="50.10374" lon="4.08806">
        <ele>222.8</ele>
        <time>2024-05-04T09:18:33Z</time>
      </trkpt>
      <trkpt lat="50.10368" lon="4.08811">
        <ele>222.6</ele>
        <time>2024-05-04T09:18:34Z</time>
      </trkpt>
      <trkpt lat="50.10362" lon="4.08816">
        <ele>222.4</ele>
        <time>2024-05-04T09:18:35Z</time>
      </trkpt>
      <trkpt lat="50.10356" lon="4.08821">
        <ele>222.4</ele>
        <time>2024-05-04T09:18:36Z</time>
      </trkpt>
      <trkpt lat="50.10351" lon="4.08826">
        <ele>222.4</ele>
        <time>2024-05-04T09:18:37Z</time>
      </trkpt>
      <trkpt lat="50.10345" lon="4.08831">
        <ele>222.6</ele>
        <time>2024-05-04T09:18:38Z</time>
      </trkpt>
      <trkpt lat="50.1034" lon="4.08835">
        <ele>222.4</ele>
        <time>2024-05-04T09:18:39Z</time>
      </trkpt>
      <trkpt lat="50.10335" lon="4.0884">
        <ele>222.6</ele>
        <time>2024-05-04T09:18:40Z</time>
      </trkpt>
      <trkpt lat="50.1033" lon="4.08844">
        <ele>222.4</ele>
        <time>2024-05-04T09:18:41Z</time>
      </trkpt>
      <trkpt lat="50.10325" lon="4.08848">
        <ele>222.6</ele>
        <time>2024-05-04T09:18:42Z</time>
      </trkpt>
      <trkpt lat="50.1032" lon="4.08852">
        <ele>222.4</ele>
        <time>2024-05-04T09:18:43Z</time>
      </trkpt>
      <trkpt lat="50.10315" lon="4.08857">
        <ele>222.4</ele>
        <time>2024-05-04T09:18:44Z</time>
      </trkpt>
      <trkpt lat="50.1031" lon="4.08861">
        <ele>222.6</ele>
        <time>2024-05-04T09:18:45Z</time>
      </trkpt>
      <trkpt lat="50.10306" lon="4.08865">
        <ele>223</ele>
        <time>2024-05-04T09:18:46Z</time>
      </trkpt>
      <trkpt lat="50.10301" lon="4.08869">
        <ele>223.4</ele>
        <time>2024-05-04T09:18:47Z</time>
      </trkpt>
      <trkpt lat="50.10296" lon="4.08873">
        <ele>223.4</ele>
        <time>2024-05-04T09:18:48Z</time>
      </trkpt>
      <trkpt lat="50.10291" lon="4.08878">
        <ele>223.8</ele>
        <time>2024-05-04T09:18:49Z</time>
      </trkpt>
      <trkpt lat="50.10287" lon="4.08882">
        <ele>224</ele>
        <time>2024-05-04T09:18:50Z</time>
      </trkpt>
      <trkpt lat="50.10282" lon="4.08886">
        <ele>224</ele>
        <time>2024-05-04T09:18:51Z</time>
      </trkpt>
      <trkpt lat="50.10277" lon="4.0889">
        <ele>224.2</ele>
        <time>2024-05-04T09:18:52Z</time>
      </trkpt>
      <trkpt lat="50.10272" lon="4.08895">
        <ele>224.2</ele>
        <time>2024-05-04T09:18:53Z</time>
      </trkpt>
      <trkpt lat="50.10267" lon="4.08899">
        <ele>224.2</ele>
        <time>2024-05-04T09:18:54Z</time>
      </trkpt>
      <trkpt lat="50.10262" lon="4.08903">
        <ele>224.2</ele>
        <time>2024-05-04T09:18:55Z</time>
      </trkpt>
      <trkpt lat="50.10257" lon="4.08908">
        <ele>224.4</ele>
        <time>2024-05-04T09:18:56Z</time>
      </trkpt>
      <trkpt lat="50.10252" lon="4.08913">
        <ele>224.4</ele>
        <time>2024-05-04T09:18:57Z</time>
      </trkpt>
      <trkpt lat="50.10247" lon="4.08917">
        <ele>224.6</ele>
        <time>2024-05-04T09:18:58Z</time>
      </trkpt>
      <trkpt lat="50.10242" lon="4.08921">
        <ele>224.6</ele>
        <time>2024-05-04T09:18:59Z</time>
      </trkpt>
      <trkpt lat="50.10237" lon="4.08926">
        <ele>224.8</ele>
        <time>2024-05-04T09:19:00Z</time>
      </trkpt>
      <trkpt lat="50.10232" lon="4.0893">
        <ele>224.8</ele>
        <time>2024-05-04T09:19:01Z</time>
      </trkpt>
      <trkpt lat="50.10227" lon="4.08935">
        <ele>224.6</ele>
        <time>2024-05-04T09:19:02Z</time>
      </trkpt>
      <trkpt lat="50.10222" lon="4.08939">
        <ele>224.8</ele>
        <time>2024-05-04T09:19:03Z</time>
      </trkpt>
      <trkpt lat="50.10217" lon="4.08944">
        <ele>224.8</ele>
        <time>2024-05-04T09:19:04Z</time>
      </trkpt>
      <trkpt lat="50.10212" lon="4.08949">
        <ele>225</ele>
        <time>2024-05-04T09:19:05Z</time>
      </trkpt>
      <trkpt lat="50.10207" lon="4.08953">
        <ele>225.2</ele>
        <time>2024-05-04T09:19:06Z</time>
      </trkpt>
      <trkpt lat="50.10202" lon="4.08958">
        <ele>225.4</ele>
        <time>2024-05-04T09:19:07Z</time>
      </trkpt>
      <trkpt lat="50.10197" lon="4.08962">
        <ele>225.2</ele>
        <time>2024-05-04T09:19:08Z</time>
      </trkpt>
      <trkpt lat="50.10192" lon="4.08967">
        <ele>225.2</ele>
        <time>2024-05-04T09:19:09Z</time>
      </trkpt>
      <trkpt lat="50.10187" lon="4.08971">
        <ele>225.2</ele>
        <time>2024-05-04T09:19:10Z</time>
      </trkpt>
      <trkpt lat="50.10182" lon="4.08976">
        <ele>225.4</ele>
        <time>2024-05-04T09:19:11Z</time>
      </trkpt>
      <trkpt lat="50.10178" lon="4.0898">
        <ele>225.4</ele>
        <time>2024-05-04T09:19:12Z</time>
      </trkpt>
      <trkpt lat="50.10173" lon="4.08984">
        <ele>225.4</ele>
        <time>2024-05-04T09:19:13Z</time>
      </trkpt>
      <trkpt lat="50.10168" lon="4.08989">
        <ele>225.4</ele>
        <time>2024-05-04T09:19:14Z</time>
      </trkpt>
      <trkpt lat="50.10163" lon="4.08993">
        <ele>225.4</ele>
        <time>2024-05-04T09:19:15Z</time>
      </trkpt>
      <trkpt lat="50.10158" lon="4.08997">
        <ele>225.6</ele>
        <time>2024-05-04T09:19:16Z</time>
      </trkpt>
      <trkpt lat="50.10153" lon="4.09001">
        <ele>225.4</ele>
        <time>2024-05-04T09:19:17Z</time>
      </trkpt>
      <trkpt lat="50.10148" lon="4.09005">
        <ele>225.4</ele>
        <time>2024-05-04T09:19:18Z</time>
      </trkpt>
      <trkpt lat="50.10143" lon="4.09009">
        <ele>225.4</ele>
        <time>2024-05-04T09:19:19Z</time>
      </trkpt>
      <trkpt lat="50.10138" lon="4.09013">
        <ele>225.6</ele>
        <time>2024-05-04T09:19:20Z</time>
      </trkpt>
      <trkpt lat="50.10133" lon="4.09017">
        <ele>225.8</ele>
        <time>2024-05-04T09:19:21Z</time>
      </trkpt>
      <trkpt lat="50.10128" lon="4.09021">
        <ele>226</ele>
        <time>2024-05-04T09:19:22Z</time>
      </trkpt>
      <trkpt lat="50.10123" lon="4.09025">
        <ele>226</ele>
        <time>2024-05-04T09:19:23Z</time>
      </trkpt>
      <trkpt lat="50.10117" lon="4.09028">
        <ele>226.4</ele>
        <time>2024-05-04T09:19:24Z</time>
      </trkpt>
      <trkpt lat="50.10112" lon="4.09031">
        <ele>226.6</ele>
        <time>2024-05-04T09:19:25Z</time>
      </trkpt>
      <trkpt lat="50.10107" lon="4.09035">
        <ele>226.6</ele>
        <time>2024-05-04T09:19:26Z</time>
      </trkpt>
      <trkpt lat="50.10102" lon="4.09038">
        <ele>226.8</ele>
        <time>2024-05-04T09:19:27Z</time>
      </trkpt>
      <trkpt lat="50.10097" lon="4.09041">
        <ele>226.8</ele>
        <time>2024-05-04T09:19:28Z</time>
      </trkpt>
      <trkpt lat="50.10092" lon="4.09044">
        <ele>226.8</ele>
        <time>2024-05-04T09:19:29Z</time>
      </trkpt>
      <trkpt lat="50.10087" lon="4.09047">
        <ele>227.2</ele>
        <time>2024-05-04T09:19:30Z</time>
      </trkpt>
      <trkpt lat="50.10082" lon="4.0905">
        <ele>227.4</ele>
        <time>2024-05-04T09:19:31Z</time>
      </trkpt>
      <trkpt lat="50.10077" lon="4.09053">
        <ele>227.6</ele>
        <time>2024-05-04T09:19:32Z</time>
      </trkpt>
      <trkpt lat="50.10071" lon="4.09056">
        <ele>227.6</ele>
        <time>2024-05-04T09:19:33Z</time>
      </trkpt>
      <trkpt lat="50.10066" lon="4.09058">
        <ele>227.8</ele>
        <time>2024-05-04T09:19:34Z</time>
      </trkpt>
      <trkpt lat="50.10061" lon="4.09061">
        <ele>227.6</ele>
        <time>2024-05-04T09:19:35Z</time>
      </trkpt>
      <trkpt lat="50.10056" lon="4.09063">
        <ele>227.6</ele>
        <time>2024-05-04T09:19:36Z</time>
      </trkpt>
      <trkpt lat="50.10051" lon="4.09066">
        <ele>228</ele>
        <time>2024-05-04T09:19:37Z</time>
      </trkpt>
      <trkpt lat="50.10047" lon="4.09068">
        <ele>227.8</ele>
        <time>2024-05-04T09:19:38Z</time>
      </trkpt>
      <trkpt lat="50.10042" lon="4.0907">
        <ele>228</ele>
        <time>2024-05-04T09:19:39Z</time>
      </trkpt>
      <trkpt lat="50.10038" lon="4.09072">
        <ele>228.2</ele>
        <time>2024-05-04T09:19:40Z</time>
      </trkpt>
      <trkpt lat="50.10033" lon="4.09074">
        <ele>228.6</ele>
        <time>2024-05-04T09:19:41Z</time>
      </trkpt>
      <trkpt lat="50.10029" lon="4.09076">
        <ele>229</ele>
        <time>2024-05-04T09:19:42Z</time>
      </trkpt>
      <trkpt lat="50.10025" lon="4.09078">
        <ele>229.2</ele>
        <time>2024-05-04T09:19:43Z</time>
      </trkpt>
      <trkpt lat="50.1002" lon="4.0908">
        <ele>229.8</ele>
        <time>2024-05-04T09:19:44Z</time>
      </trkpt>
      <trkpt lat="50.10016" lon="4.09082">
        <ele>229.8</ele>
        <time>2024-05-04T09:19:45Z</time>
      </trkpt>
      <trkpt lat="50.10012" lon="4.09084">
        <ele>230.2</ele>
        <time>2024-05-04T09:19:46Z</time>
      </trkpt>
      <trkpt lat="50.10008" lon="4.09086">
        <ele>230.6</ele>
        <time>2024-05-04T09:19:47Z</time>
      </trkpt>
      <trkpt lat="50.10004" lon="4.09087">
        <ele>231</ele>
        <time>2024-05-04T09:19:48Z</time>
      </trkpt>
      <trkpt lat="50.09999" lon="4.09089">
        <ele>231</ele>
        <time>2024-05-04T09:19:49Z</time>
      </trkpt>
      <trkpt lat="50.09995" lon="4.09091">
        <ele>231.2</ele>
        <time>2024-05-04T09:19:50Z</time>
      </trkpt>
      <trkpt lat="50.09991" lon="4.09093">
        <ele>231.6</ele>
        <time>2024-05-04T09:19:51Z</time>
      </trkpt>
      <trkpt lat="50.09987" lon="4.09095">
        <ele>231.8</ele>
        <time>2024-05-04T09:19:52Z</time>
      </trkpt>
      <trkpt lat="50.09983" lon="4.09097">
        <ele>232.2</ele>
        <time>2024-05-04T09:19:53Z</time>
      </trkpt>
      <trkpt lat="50.09978" lon="4.09099">
        <ele>232.6</ele>
        <time>2024-05-04T09:19:54Z</time>
      </trkpt>
      <trkpt lat="50.09974" lon="4.09101">
        <ele>232.6</ele>
        <time>2024-05-04T09:19:55Z</time>
      </trkpt>
      <trkpt lat="50.0997" lon="4.09102">
        <ele>232.8</ele>
        <time>2024-05-04T09:19:56Z</time>
      </trkpt>
      <trkpt lat="50.09965" lon="4.09104">
        <ele>233</ele>
        <time>2024-05-04T09:19:57Z</time>
      </trkpt>
      <trkpt lat="50.09961" lon="4.09106">
        <ele>233.4</ele>
        <time>2024-05-04T09:19:58Z</time>
      </trkpt>
      <trkpt lat="50.09957" lon="4.09108">
        <ele>233.6</ele>
        <time>2024-05-04T09:19:59Z</time>
      </trkpt>
      <trkpt lat="50.09953" lon="4.0911">
        <ele>233.6</ele>
        <time>2024-05-04T09:20:00Z</time>
      </trkpt>
      <trkpt lat="50.09949" lon="4.09112">
        <ele>234</ele>
        <time>2024-05-04T09:20:01Z</time>
      </trkpt>
      <trkpt lat="50.09945" lon="4.09114">
        <ele>234.4</ele>
        <time>2024-05-04T09:20:02Z</time>
      </trkpt>
      <trkpt lat="50.09941" lon="4.09116">
        <ele>234.6</ele>
        <time>2024-05-04T09:20:03Z</time>
      </trkpt>
      <trkpt lat="50.09937" lon="4.09118">
        <ele>235</ele>
        <time>2024-05-04T09:20:04Z</time>
      </trkpt>
      <trkpt lat="50.09933" lon="4.0912">
        <ele>235</ele>
        <time>2024-05-04T09:20:05Z</time>
      </trkpt>
      <trkpt lat="50.09929" lon="4.09122">
        <ele>235.2</ele>
        <time>2024-05-04T09:20:06Z</time>
      </trkpt>
      <trkpt lat="50.09925" lon="4.09124">
        <ele>235.2</ele>
        <time>2024-05-04T09:20:07Z</time>
      </trkpt>
      <trkpt lat="50.09921" lon="4.09126">
        <ele>235.2</ele>
        <time>2024-05-04T09:20:08Z</time>
      </trkpt>
      <trkpt lat="50.09917" lon="4.09129">
        <ele>235.4</ele>
        <time>2024-05-04T09:20:09Z</time>
      </trkpt>
      <trkpt lat="50.09913" lon="4.09131">
        <ele>235.6</ele>
        <time>2024-05-04T09:20:10Z</time>
      </trkpt>
      <trkpt lat="50.09909" lon="4.09134">
        <ele>235.8</ele>
        <time>2024-05-04T09:20:11Z</time>
      </trkpt>
      <trkpt lat="50.09905" lon="4.09136">
        <ele>236.2</ele>
        <time>2024-05-04T09:20:12Z</time>
      </trkpt>
      <trkpt lat="50.09901" lon="4.09139">
        <ele>236.4</ele>
        <time>2024-05-04T09:20:13Z</time>
      </trkpt>
      <trkpt lat="50.09897" lon="4.09142">
        <ele>236.8</ele>
        <time>2024-05-04T09:20:14Z</time>
      </trkpt>
      <trkpt lat="50.09893" lon="4.09145">
        <ele>237.2</ele>
        <time>2024-05-04T09:20:15Z</time>
      </trkpt>
      <trkpt lat="50.09888" lon="4.09148">
        <ele>237.2</ele>
        <time>2024-05-04T09:20:16Z</time>
      </trkpt>
      <trkpt lat="50.09884" lon="4.09151">
        <ele>237.4</ele>
        <time>2024-05-04T09:20:17Z</time>
      </trkpt>
      <trkpt lat="50.0988" lon="4.09154">
        <ele>237.4</ele>
        <time>2024-05-04T09:20:18Z</time>
      </trkpt>
      <trkpt lat="50.09876" lon="4.09157">
        <ele>237.6</ele>
        <time>2024-05-04T09:20:19Z</time>
      </trkpt>
      <trkpt lat="50.09872" lon="4.09161">
        <ele>237.6</ele>
        <time>2024-05-04T09:20:20Z</time>
      </trkpt>
      <trkpt lat="50.09868" lon="4.09164">
        <ele>237.6</ele>
        <time>2024-05-04T09:20:21Z</time>
      </trkpt>
      <trkpt lat="50.09864" lon="4.09167">
        <ele>237.6</ele>
        <time>2024-05-04T09:20:22Z</time>
      </trkpt>
      <trkpt lat="50.09859" lon="4.09171">
        <ele>237.6</ele>
        <time>2024-05-04T09:20:23Z</time>
      </trkpt>
      <trkpt lat="50.09855" lon="4.09174">
        <ele>237.8</ele>
        <time>2024-05-04T09:20:24Z</time>
      </trkpt>
      <trkpt lat="50.0985" lon="4.09178">
        <ele>237.8</ele>
        <time>2024-05-04T09:20:25Z</time>
      </trkpt>
      <trkpt lat="50.09845" lon="4.09182">
        <ele>237.8</ele>
        <time>2024-05-04T09:20:26Z</time>
      </trkpt>
      <trkpt lat="50.09841" lon="4.09186">
        <ele>237.8</ele>
        <time>2024-05-04T09:20:27Z</time>
      </trkpt>
      <trkpt lat="50.09836" lon="4.0919">
        <ele>237.6</ele>
        <time>2024-05-04T09:20:28Z</time>
      </trkpt>
      <trkpt lat="50.09831" lon="4.09194">
        <ele>237.6</ele>
        <time>2024-05-04T09:20:29Z</time>
      </trkpt>
      <trkpt lat="50.09826" lon="4.09198">
        <ele>237.6</ele>
        <time>2024-05-04T09:20:30Z</time>
      </trkpt>
      <trkpt lat="50.09821" lon="4.09202">
        <ele>237.4</ele>
        <time>2024-05-04T09:20:31Z</time>
      </trkpt>
      <trkpt lat="50.09816" lon="4.09206">
        <ele>237.4</ele>
        <time>2024-05-04T09:20:32Z</time>
      </trkpt>
      <trkpt lat="50.09811" lon="4.0921">
        <ele>237.4</ele>
        <time>2024-05-04T09:20:33Z</time>
      </trkpt>
      <trkpt lat="50.09806" lon="4.09215">
        <ele>237.2</ele>
        <time>2024-05-04T09:20:34Z</time>
      </trkpt>
      <trkpt lat="50.098" lon="4.09219">
        <ele>237.2</ele>
        <time>2024-05-04T09:20:35Z</time>
      </trkpt>
      <trkpt lat="50.09795" lon="4.09224">
        <ele>237.2</ele>
        <time>2024-05-04T09:20:36Z</time>
      </trkpt>
      <trkpt lat="50.09789" lon="4.09229">
        <ele>237.2</ele>
        <time>2024-05-04T09:20:37Z</time>
      </trkpt>
      <trkpt lat="50.09784" lon="4.09234">
        <ele>237</ele>
        <time>2024-05-04T09:20:38Z</time>
      </trkpt>
      <trkpt lat="50.09778" lon="4.09239">
        <ele>237</ele>
        <time>2024-05-04T09:20:39Z</time>
      </trkpt>
      <trkpt lat="50.09772" lon="4.09244">
        <ele>236.8</ele>
        <time>2024-05-04T09:20:40Z</time>
      </trkpt>
      <trkpt lat="50.09767" lon="4.09249">
        <ele>236.6</ele>
        <time>2024-05-04T09:20:41Z</time>
      </trkpt>
      <trkpt lat="50.09761" lon="4.09254">
        <ele>236.6</ele>
        <time>2024-05-04T09:20:42Z</time>
      </trkpt>
      <trkpt lat="50.09756" lon="4.09258">
        <ele>236.2</ele>
        <time>2024-05-04T09:20:43Z</time>
      </trkpt>
      <trkpt lat="50.0975" lon="4.09263">
        <ele>236.2</ele>
        <time>2024-05-04T09:20:44Z</time>
      </trkpt>
      <trkpt lat="50.09744" lon="4.09268">
        <ele>236.2</ele>
        <time>2024-05-04T09:20:45Z</time>
      </trkpt>
      <trkpt lat="50.09739" lon="4.09273">
        <ele>235.8</ele>
        <time>2024-05-04T09:20:46Z</time>
      </trkpt>
      <trkpt lat="50.09733" lon="4.09278">
        <ele>235.4</ele>
        <time>2024-05-04T09:20:47Z</time>
      </trkpt>
      <trkpt lat="50.09728" lon="4.09282">
        <ele>235.2</ele>
        <time>2024-05-04T09:20:48Z</time>
      </trkpt>
      <trkpt lat="50.09722" lon="4.09287">
        <ele>235</ele>
        <time>2024-05-04T09:20:49Z</time>
      </trkpt>
      <trkpt lat="50.09716" lon="4.09292">
        <ele>235</ele>
        <time>2024-05-04T09:20:50Z</time>
      </trkpt>
      <trkpt lat="50.0971" lon="4.09297">
        <ele>234.6</ele>
        <time>2024-05-04T09:20:51Z</time>
      </trkpt>
      <trkpt lat="50.09704" lon="4.09302">
        <ele>233.8</ele>
        <time>2024-05-04T09:20:52Z</time>
      </trkpt>
      <trkpt lat="50.09698" lon="4.09307">
        <ele>233.8</ele>
        <time>2024-05-04T09:20:53Z</time>
      </trkpt>
      <trkpt lat="50.09692" lon="4.09312">
        <ele>233.4</ele>
        <time>2024-05-04T09:20:54Z</time>
      </trkpt>
      <trkpt lat="50.09686" lon="4.09317">
        <ele>233</ele>
        <time>2024-05-04T09:20:55Z</time>
      </trkpt>
      <trkpt lat="50.09679" lon="4.09322">
        <ele>232.6</ele>
        <time>2024-05-04T09:20:56Z</time>
      </trkpt>
      <trkpt lat="50.09673" lon="4.09327">
        <ele>232.4</ele>
        <time>2024-05-04T09:20:57Z</time>
      </trkpt>
      <trkpt lat="50.09666" lon="4.09332">
        <ele>232.4</ele>
        <time>2024-05-04T09:20:58Z</time>
      </trkpt>
      <trkpt lat="50.09659" lon="4.09338">
        <ele>232.2</ele>
        <time>2024-05-04T09:20:59Z</time>
      </trkpt>
      <trkpt lat="50.09653" lon="4.09343">
        <ele>232</ele>
        <time>2024-05-04T09:21:00Z</time>
      </trkpt>
      <trkpt lat="50.09646" lon="4.09348">
        <ele>231.8</ele>
        <time>2024-05-04T09:21:01Z</time>
      </trkpt>
      <trkpt lat="50.09639" lon="4.09353">
        <ele>231.6</ele>
        <time>2024-05-04T09:21:02Z</time>
      </trkpt>
      <trkpt lat="50.09632" lon="4.09358">
        <ele>231.6</ele>
        <time>2024-05-04T09:21:03Z</time>
      </trkpt>
      <trkpt lat="50.09625" lon="4.09364">
        <ele>231.4</ele>
        <time>2024-05-04T09:21:04Z</time>
      </trkpt>
      <trkpt lat="50.09617" lon="4.0937">
        <ele>231.4</ele>
        <time>2024-05-04T09:21:05Z</time>
      </trkpt>
      <trkpt lat="50.0961" lon="4.09376">
        <ele>231.2</ele>
        <time>2024-05-04T09:21:06Z</time>
      </trkpt>
      <trkpt lat="50.09602" lon="4.09382">
        <ele>230.8</ele>
        <time>2024-05-04T09:21:07Z</time>
      </trkpt>
      <trkpt lat="50.09595" lon="4.09388">
        <ele>230.2</ele>
        <time>2024-05-04T09:21:08Z</time>
      </trkpt>
      <trkpt lat="50.09587" lon="4.09394">
        <ele>229.6</ele>
        <time>2024-05-04T09:21:09Z</time>
      </trkpt>
      <trkpt lat="50.09578" lon="4.094">
        <ele>229.2</ele>
        <time>2024-05-04T09:21:10Z</time>
      </trkpt>
      <trkpt lat="50.0957" lon="4.09407">
        <ele>228.8</ele>
        <time>2024-05-04T09:21:11Z</time>
      </trkpt>
      <trkpt lat="50.09561" lon="4.09414">
        <ele>228.4</ele>
        <time>2024-05-04T09:21:12Z</time>
      </trkpt>
      <trkpt lat="50.09552" lon="4.09421">
        <ele>228</ele>
        <time>2024-05-04T09:21:13Z</time>
      </trkpt>
      <trkpt lat="50.09544" lon="4.09428">
        <ele>227.6</ele>
        <time>2024-05-04T09:21:14Z</time>
      </trkpt>
      <trkpt lat="50.09535" lon="4.09436">
        <ele>227.2</ele>
        <time>2024-05-04T09:21:15Z</time>
      </trkpt>
      <trkpt lat="50.09526" lon="4.09443">
        <ele>227.2</ele>
        <time>2024-05-04T09:21:16Z</time>
      </trkpt>
      <trkpt lat="50.09517" lon="4.0945">
        <ele>226.8</ele>
        <time>2024-05-04T09:21:17Z</time>
      </trkpt>
      <trkpt lat="50.09508" lon="4.09457">
        <ele>226.6</ele>
        <time>2024-05-04T09:21:18Z</time>
      </trkpt>
      <trkpt lat="50.09498" lon="4.09464">
        <ele>226.2</ele>
        <time>2024-05-04T09:21:19Z</time>
      </trkpt>
      <trkpt lat="50.09489" lon="4.09472">
        <ele>225.6</ele>
        <time>2024-05-04T09:21:20Z</time>
      </trkpt>
      <trkpt lat="50.0948" lon="4.09479">
        <ele>224.4</ele>
        <time>2024-05-04T09:21:21Z</time>
      </trkpt>
      <trkpt lat="50.0947" lon="4.09487">
        <ele>223.6</ele>
        <time>2024-05-04T09:21:22Z</time>
      </trkpt>
      <trkpt lat="50.09461" lon="4.09494">
        <ele>222.6</ele>
        <time>2024-05-04T09:21:23Z</time>
      </trkpt>
      <trkpt lat="50.09451" lon="4.09501">
        <ele>221.4</ele>
        <time>2024-05-04T09:21:24Z</time>
      </trkpt>
      <trkpt lat="50.09442" lon="4.09509">
        <ele>220.4</ele>
        <time>2024-05-04T09:21:25Z</time>
      </trkpt>
      <trkpt lat="50.09432" lon="4.09516">
        <ele>220</ele>
        <time>2024-05-04T09:21:26Z</time>
      </trkpt>
      <trkpt lat="50.09423" lon="4.09524">
        <ele>219.4</ele>
        <time>2024-05-04T09:21:27Z</time>
      </trkpt>
      <trkpt lat="50.09413" lon="4.09531">
        <ele>219</ele>
        <time>2024-05-04T09:21:28Z</time>
      </trkpt>
      <trkpt lat="50.09403" lon="4.09539">
        <ele>218</ele>
        <time>2024-05-04T09:21:29Z</time>
      </trkpt>
      <trkpt lat="50.09393" lon="4.09547">
        <ele>217.2</ele>
        <time>2024-05-04T09:21:30Z</time>
      </trkpt>
      <trkpt lat="50.09384" lon="4.09555">
        <ele>215.8</ele>
        <time>2024-05-04T09:21:31Z</time>
      </trkpt>
      <trkpt lat="50.09374" lon="4.09562">
        <ele>214.6</ele>
        <time>2024-05-04T09:21:32Z</time>
      </trkpt>
      <trkpt lat="50.09364" lon="4.0957">
        <ele>214.2</ele>
        <time>2024-05-04T09:21:33Z</time>
      </trkpt>
      <trkpt lat="50.09355" lon="4.09578">
        <ele>213.8</ele>
        <time>2024-05-04T09:21:34Z</time>
      </trkpt>
      <trkpt lat="50.09345" lon="4.09586">
        <ele>213</ele>
        <time>2024-05-04T09:21:35Z</time>
      </trkpt>
      <trkpt lat="50.09335" lon="4.09593">
        <ele>213</ele>
        <time>2024-05-04T09:21:36Z</time>
      </trkpt>
      <trkpt lat="50.09326" lon="4.09601">
        <ele>212.6</ele>
        <time>2024-05-04T09:21:37Z</time>
      </trkpt>
      <trkpt lat="50.09317" lon="4.09608">
        <ele>211.6</ele>
        <time>2024-05-04T09:21:38Z</time>
      </trkpt>
      <trkpt lat="50.09308" lon="4.09615">
        <ele>210.8</ele>
        <time>2024-05-04T09:21:39Z</time>
      </trkpt>
      <trkpt lat="50.09299" lon="4.09622">
        <ele>210</ele>
        <time>2024-05-04T09:21:40Z</time>
      </trkpt>
      <trkpt lat="50.09291" lon="4.09629">
        <ele>209.4</ele>
        <time>2024-05-04T09:21:41Z</time>
      </trkpt>
      <trkpt lat="50.09282" lon="4.09636">
        <ele>209</ele>
        <time>2024-05-04T09:21:42Z</time>
      </trkpt>
      <trkpt lat="50.09274" lon="4.09643">
        <ele>208.6</ele>
        <time>2024-05-04T09:21:43Z</time>
      </trkpt>
      <trkpt lat="50.09266" lon="4.09649">
        <ele>208.4</ele>
        <time>2024-05-04T09:21:44Z</time>
      </trkpt>
      <trkpt lat="50.09257" lon="4.09656">
        <ele>208.4</ele>
        <time>2024-05-04T09:21:45Z</time>
      </trkpt>
      <trkpt lat="50.09249" lon="4.09662">
        <ele>208.4</ele>
        <time>2024-05-04T09:21:46Z</time>
      </trkpt>
      <trkpt lat="50.09241" lon="4.09668">
        <ele>208.2</ele>
        <time>2024-05-04T09:21:47Z</time>
      </trkpt>
      <trkpt lat="50.09233" lon="4.09674">
        <ele>208.4</ele>
        <time>2024-05-04T09:21:48Z</time>
      </trkpt>
      <trkpt lat="50.09226" lon="4.0968">
        <ele>208.2</ele>
        <time>2024-05-04T09:21:49Z</time>
      </trkpt>
      <trkpt lat="50.09218" lon="4.09686">
        <ele>208.2</ele>
        <time>2024-05-04T09:21:50Z</time>
      </trkpt>
      <trkpt lat="50.09211" lon="4.09692">
        <ele>208.4</ele>
        <time>2024-05-04T09:21:51Z</time>
      </trkpt>
      <trkpt lat="50.09204" lon="4.09697">
        <ele>208.2</ele>
        <time>2024-05-04T09:21:52Z</time>
      </trkpt>
      <trkpt lat="50.09197" lon="4.09703">
        <ele>208.2</ele>
        <time>2024-05-04T09:21:53Z</time>
      </trkpt>
      <trkpt lat="50.0919" lon="4.09708">
        <ele>208.6</ele>
        <time>2024-05-04T09:21:54Z</time>
      </trkpt>
      <trkpt lat="50.09184" lon="4.09712">
        <ele>208.8</ele>
        <time>2024-05-04T09:21:55Z</time>
      </trkpt>
      <trkpt lat="50.09178" lon="4.09717">
        <ele>209.2</ele>
        <time>2024-05-04T09:21:56Z</time>
      </trkpt>
      <trkpt lat="50.09172" lon="4.09722">
        <ele>209.4</ele>
        <time>2024-05-04T09:21:57Z</time>
      </trkpt>
      <trkpt lat="50.09167" lon="4.09726">
        <ele>209.6</ele>
        <time>2024-05-04T09:21:58Z</time>
      </trkpt>
      <trkpt lat="50.09161" lon="4.0973">
        <ele>209.8</ele>
        <time>2024-05-04T09:21:59Z</time>
      </trkpt>
      <trkpt lat="50.09156" lon="4.09734">
        <ele>210</ele>
        <time>2024-05-04T09:22:00Z</time>
      </trkpt>
      <trkpt lat="50.09151" lon="4.09738">
        <ele>210.4</ele>
        <time>2024-05-04T09:22:01Z</time>
      </trkpt>
      <trkpt lat="50.09146" lon="4.09742">
        <ele>210.8</ele>
        <time>2024-05-04T09:22:02Z</time>
      </trkpt>
      <trkpt lat="50.09141" lon="4.09745">
        <ele>211.2</ele>
        <time>2024-05-04T09:22:03Z</time>
      </trkpt>
      <trkpt lat="50.09136" lon="4.09749">
        <ele>211.8</ele>
        <time>2024-05-04T09:22:04Z</time>
      </trkpt>
      <trkpt lat="50.09131" lon="4.09753">
        <ele>211.8</ele>
        <time>2024-05-04T09:22:05Z</time>
      </trkpt>
      <trkpt lat="50.09126" lon="4.09756">
        <ele>212.2</ele>
        <time>2024-05-04T09:22:06Z</time>
      </trkpt>
      <trkpt lat="50.09121" lon="4.0976">
        <ele>212.4</ele>
        <time>2024-05-04T09:22:07Z</time>
      </trkpt>
      <trkpt lat="50.09115" lon="4.09763">
        <ele>212.4</ele>
        <time>2024-05-04T09:22:08Z</time>
      </trkpt>
      <trkpt lat="50.0911" lon="4.09766">
        <ele>212.8</ele>
        <time>2024-05-04T09:22:09Z</time>
      </trkpt>
      <trkpt lat="50.09105" lon="4.0977">
        <ele>213.2</ele>
        <time>2024-05-04T09:22:10Z</time>
      </trkpt>
      <trkpt lat="50.091" lon="4.09773">
        <ele>213.8</ele>
        <time>2024-05-04T09:22:11Z</time>
      </trkpt>
      <trkpt lat="50.09095" lon="4.09776">
        <ele>214.4</ele>
        <time>2024-05-04T09:22:12Z</time>
      </trkpt>
      <trkpt lat="50.09089" lon="4.09779">
        <ele>214.4</ele>
        <time>2024-05-04T09:22:13Z</time>
      </trkpt>
      <trkpt lat="50.09084" lon="4.09782">
        <ele>214.8</ele>
        <time>2024-05-04T09:22:14Z</time>
      </trkpt>
      <trkpt lat="50.09078" lon="4.09785">
        <ele>214.8</ele>
        <time>2024-05-04T09:22:15Z</time>
      </trkpt>
      <trkpt lat="50.09072" lon="4.09788">
        <ele>214.8</ele>
        <time>2024-05-04T09:22:16Z</time>
      </trkpt>
      <trkpt lat="50.09067" lon="4.09791">
        <ele>214.8</ele>
        <time>2024-05-04T09:22:17Z</time>
      </trkpt>
      <trkpt lat="50.09061" lon="4.09794">
        <ele>214.8</ele>
        <time>2024-05-04T09:22:18Z</time>
      </trkpt>
      <trkpt lat="50.09054" lon="4.09797">
        <ele>214.8</ele>
        <time>2024-05-04T09:22:19Z</time>
      </trkpt>
      <trkpt lat="50.09048" lon="4.09801">
        <ele>214.8</ele>
        <time>2024-05-04T09:22:20Z</time>
      </trkpt>
      <trkpt lat="50.09041" lon="4.09804">
        <ele>214.8</ele>
        <time>2024-05-04T09:22:21Z</time>
      </trkpt>
      <trkpt lat="50.09034" lon="4.09808">
        <ele>214.8</ele>
        <time>2024-05-04T09:22:22Z</time>
      </trkpt>
      <trkpt lat="50.09027" lon="4.09812">
        <ele>214.8</ele>
        <time>2024-05-04T09:22:23Z</time>
      </trkpt>
      <trkpt lat="50.09019" lon="4.09816">
        <ele>214.8</ele>
        <time>2024-05-04T09:22:24Z</time>
      </trkpt>
      <trkpt lat="50.09011" lon="4.09821">
        <ele>214.8</ele>
        <time>2024-05-04T09:22:25Z</time>
      </trkpt>
      <trkpt lat="50.09003" lon="4.09825">
        <ele>214.6</ele>
        <time>2024-05-04T09:22:26Z</time>
      </trkpt>
      <trkpt lat="50.08995" lon="4.09829">
        <ele>214.6</ele>
        <time>2024-05-04T09:22:27Z</time>
      </trkpt>
      <trkpt lat="50.08987" lon="4.09834">
        <ele>214.4</ele>
        <time>2024-05-04T09:22:28Z</time>
      </trkpt>
      <trkpt lat="50.08978" lon="4.09838">
        <ele>214</ele>
        <time>2024-05-04T09:22:29Z</time>
      </trkpt>
      <trkpt lat="50.08969" lon="4.09843">
        <ele>213.8</ele>
        <time>2024-05-04T09:22:30Z</time>
      </trkpt>
      <trkpt lat="50.0896" lon="4.09848">
        <ele>213.4</ele>
        <time>2024-05-04T09:22:31Z</time>
      </trkpt>
      <trkpt lat="50.08951" lon="4.09854">
        <ele>212.6</ele>
        <time>2024-05-04T09:22:32Z</time>
      </trkpt>
      <trkpt lat="50.08941" lon="4.09859">
        <ele>211.8</ele>
        <time>2024-05-04T09:22:33Z</time>
      </trkpt>
      <trkpt lat="50.08931" lon="4.09865">
        <ele>211.4</ele>
        <time>2024-05-04T09:22:34Z</time>
      </trkpt>
      <trkpt lat="50.08922" lon="4.0987">
        <ele>210.8</ele>
        <time>2024-05-04T09:22:35Z</time>
      </trkpt>
      <trkpt lat="50.08912" lon="4.09875">
        <ele>210.4</ele>
        <time>2024-05-04T09:22:36Z</time>
      </trkpt>
      <trkpt lat="50.08902" lon="4.09881">
        <ele>210</ele>
        <time>2024-05-04T09:22:37Z</time>
      </trkpt>
      <trkpt lat="50.08892" lon="4.09886">
        <ele>209.6</ele>
        <time>2024-05-04T09:22:38Z</time>
      </trkpt>
      <trkpt lat="50.08882" lon="4.09892">
        <ele>209</ele>
        <time>2024-05-04T09:22:39Z</time>
      </trkpt>
      <trkpt lat="50.08872" lon="4.09897">
        <ele>208.4</ele>
        <time>2024-05-04T09:22:40Z</time>
      </trkpt>
      <trkpt lat="50.08861" lon="4.09903">
        <ele>208</ele>
        <time>2024-05-04T09:22:41Z</time>
      </trkpt>
      <trkpt lat="50.08851" lon="4.09909">
        <ele>206.8</ele>
        <time>2024-05-04T09:22:42Z</time>
      </trkpt>
      <trkpt lat="50.08841" lon="4.09915">
        <ele>206.8</ele>
        <time>2024-05-04T09:22:43Z</time>
      </trkpt>
      <trkpt lat="50.0883" lon="4.09921">
        <ele>205.2</ele>
        <time>2024-05-04T09:22:44Z</time>
      </trkpt>
      <trkpt lat="50.0882" lon="4.09927">
        <ele>204.2</ele>
        <time>2024-05-04T09:22:45Z</time>
      </trkpt>
      <trkpt lat="50.0881" lon="4.09932">
        <ele>202.8</ele>
        <time>2024-05-04T09:22:46Z</time>
      </trkpt>
      <trkpt lat="50.08799" lon="4.09938">
        <ele>201.4</ele>
        <time>2024-05-04T09:22:47Z</time>
      </trkpt>
      <trkpt lat="50.08789" lon="4.09944">
        <ele>200.6</ele>
        <time>2024-05-04T09:22:48Z</time>
      </trkpt>
      <trkpt lat="50.08779" lon="4.09949">
        <ele>199.6</ele>
        <time>2024-05-04T09:22:49Z</time>
      </trkpt>
      <trkpt lat="50.08769" lon="4.09955">
        <ele>199</ele>
        <time>2024-05-04T09:22:50Z</time>
      </trkpt>
      <trkpt lat="50.08759" lon="4.09961">
        <ele>198.6</ele>
        <time>2024-05-04T09:22:51Z</time>
      </trkpt>
      <trkpt lat="50.08749" lon="4.09966">
        <ele>198</ele>
        <time>2024-05-04T09:22:52Z</time>
      </trkpt>
      <trkpt lat="50.08739" lon="4.09971">
        <ele>196.8</ele>
        <time>2024-05-04T09:22:53Z</time>
      </trkpt>
      <trkpt lat="50.0873" lon="4.09977">
        <ele>196.2</ele>
        <time>2024-05-04T09:22:54Z</time>
      </trkpt>
      <trkpt lat="50.0872" lon="4.09982">
        <ele>196</ele>
        <time>2024-05-04T09:22:55Z</time>
      </trkpt>
      <trkpt lat="50.08711" lon="4.09988">
        <ele>195.8</ele>
        <time>2024-05-04T09:22:56Z</time>
      </trkpt>
      <trkpt lat="50.08702" lon="4.09993">
        <ele>195.4</ele>
        <time>2024-05-04T09:22:57Z</time>
      </trkpt>
      <trkpt lat="50.08693" lon="4.09998">
        <ele>195.4</ele>
        <time>2024-05-04T09:22:58Z</time>
      </trkpt>
      <trkpt lat="50.08685" lon="4.10003">
        <ele>195.2</ele>
        <time>2024-05-04T09:22:59Z</time>
      </trkpt>
      <trkpt lat="50.08676" lon="4.10008">
        <ele>195.2</ele>
        <time>2024-05-04T09:23:00Z</time>
      </trkpt>
      <trkpt lat="50.08668" lon="4.10013">
        <ele>195</ele>
        <time>2024-05-04T09:23:01Z</time>
      </trkpt>
      <trkpt lat="50.0866" lon="4.10018">
        <ele>194.8</ele>
        <time>2024-05-04T09:23:02Z</time>
      </trkpt>
      <trkpt lat="50.08652" lon="4.10022">
        <ele>194.6</ele>
        <time>2024-05-04T09:23:03Z</time>
      </trkpt>
      <trkpt lat="50.08644" lon="4.10027">
        <ele>194.6</ele>
        <time>2024-05-04T09:23:04Z</time>
      </trkpt>
      <trkpt lat="50.08636" lon="4.10031">
        <ele>194.6</ele>
        <time>2024-05-04T09:23:05Z</time>
      </trkpt>
      <trkpt lat="50.08628" lon="4.10036">
        <ele>194.6</ele>
        <time>2024-05-04T09:23:06Z</time>
      </trkpt>
      <trkpt lat="50.08621" lon="4.1004">
        <ele>194.4</ele>
        <time>2024-05-04T09:23:07Z</time>
      </trkpt>
      <trkpt lat="50.08614" lon="4.10044">
        <ele>194.6</ele>
        <time>2024-05-04T09:23:08Z</time>
      </trkpt>
      <trkpt lat="50.08607" lon="4.10048">
        <ele>194.6</ele>
        <time>2024-05-04T09:23:09Z</time>
      </trkpt>
      <trkpt lat="50.086" lon="4.10052">
        <ele>194.6</ele>
        <time>2024-05-04T09:23:10Z</time>
      </trkpt>
      <trkpt lat="50.08593" lon="4.10056">
        <ele>194.6</ele>
        <time>2024-05-04T09:23:11Z</time>
      </trkpt>
      <trkpt lat="50.08586" lon="4.10059">
        <ele>194.8</ele>
        <time>2024-05-04T09:23:12Z</time>
      </trkpt>
      <trkpt lat="50.08579" lon="4.10063">
        <ele>195.2</ele>
        <time>2024-05-04T09:23:13Z</time>
      </trkpt>
      <trkpt lat="50.08573" lon="4.10067">
        <ele>195.2</ele>
        <time>2024-05-04T09:23:14Z</time>
      </trkpt>
      <trkpt lat="50.08567" lon="4.1007">
        <ele>195.4</ele>
        <time>2024-05-04T09:23:15Z</time>
      </trkpt>
      <trkpt lat="50.08561" lon="4.10074">
        <ele>195.4</ele>
        <time>2024-05-04T09:23:16Z</time>
      </trkpt>
      <trkpt lat="50.08555" lon="4.10077">
        <ele>195.6</ele>
        <time>2024-05-04T09:23:17Z</time>
      </trkpt>
      <trkpt lat="50.08549" lon="4.1008">
        <ele>195.6</ele>
        <time>2024-05-04T09:23:18Z</time>
      </trkpt>
      <trkpt lat="50.08543" lon="4.10084">
        <ele>195.6</ele>
        <time>2024-05-04T09:23:19Z</time>
      </trkpt>
      <trkpt lat="50.08537" lon="4.10087">
        <ele>195.8</ele>
        <time>2024-05-04T09:23:20Z</time>
      </trkpt>
      <trkpt lat="50.08532" lon="4.1009">
        <ele>196</ele>
        <time>2024-05-04T09:23:21Z</time>
      </trkpt>
      <trkpt lat="50.08526" lon="4.10094">
        <ele>196</ele>
        <time>2024-05-04T09:23:22Z</time>
      </trkpt>
      <trkpt lat="50.08521" lon="4.10096">
        <ele>196</ele>
        <time>2024-05-04T09:23:23Z</time>
      </trkpt>
      <trkpt lat="50.08516" lon="4.10099">
        <ele>196.4</ele>
        <time>2024-05-04T09:23:24Z</time>
      </trkpt>
      <trkpt lat="50.0851" lon="4.10103">
        <ele>196.8</ele>
        <time>2024-05-04T09:23:25Z</time>
      </trkpt>
      <trkpt lat="50.08505" lon="4.10105">
        <ele>197.2</ele>
        <time>2024-05-04T09:23:26Z</time>
      </trkpt>
      <trkpt lat="50.085" lon="4.10108">
        <ele>197.4</ele>
        <time>2024-05-04T09:23:27Z</time>
      </trkpt>
      <trkpt lat="50.08496" lon="4.10111">
        <ele>197.8</ele>
        <time>2024-05-04T09:23:28Z</time>
      </trkpt>
      <trkpt lat="50.08491" lon="4.10113">
        <ele>197.8</ele>
        <time>2024-05-04T09:23:29Z</time>
      </trkpt>
      <trkpt lat="50.08486" lon="4.10116">
        <ele>198</ele>
        <time>2024-05-04T09:23:30Z</time>
      </trkpt>
      <trkpt lat="50.08481" lon="4.10118">
        <ele>198.2</ele>
        <time>2024-05-04T09:23:31Z</time>
      </trkpt>
      <trkpt lat="50.08477" lon="4.10121">
        <ele>198.2</ele>
        <time>2024-05-04T09:23:32Z</time>
      </trkpt>
      <trkpt lat="50.08472" lon="4.10124">
        <ele>198.4</ele>
        <time>2024-05-04T09:23:33Z</time>
      </trkpt>
      <trkpt lat="50.08468" lon="4.10126">
        <ele>198.8</ele>
        <time>2024-05-04T09:23:34Z</time>
      </trkpt>
      <trkpt lat="50.08463" lon="4.10129">
        <ele>199</ele>
        <time>2024-05-04T09:23:35Z</time>
      </trkpt>
      <trkpt lat="50.08459" lon="4.10131">
        <ele>199</ele>
        <time>2024-05-04T09:23:36Z</time>
      </trkpt>
      <trkpt lat="50.08454" lon="4.10134">
        <ele>199.2</ele>
        <time>2024-05-04T09:23:37Z</time>
      </trkpt>
      <trkpt lat="50.0845" lon="4.10136">
        <ele>199.6</ele>
        <time>2024-05-04T09:23:38Z</time>
      </trkpt>
      <trkpt lat="50.08446" lon="4.10138">
        <ele>200.6</ele>
        <time>2024-05-04T09:23:39Z</time>
      </trkpt>
      <trkpt lat="50.08442" lon="4.1014">
        <ele>201.2</ele>
        <time>2024-05-04T09:23:40Z</time>
      </trkpt>
      <trkpt lat="50.08438" lon="4.10143">
        <ele>201.8</ele>
        <time>2024-05-04T09:23:41Z</time>
      </trkpt>
      <trkpt lat="50.08434" lon="4.10145">
        <ele>202.4</ele>
        <time>2024-05-04T09:23:42Z</time>
      </trkpt>
      <trkpt lat="50.0843" lon="4.10147">
        <ele>203</ele>
        <time>2024-05-04T09:23:43Z</time>
      </trkpt>
      <trkpt lat="50.08425" lon="4.1015">
        <ele>203.2</ele>
        <time>2024-05-04T09:23:44Z</time>
      </trkpt>
      <trkpt lat="50.08421" lon="4.10152">
        <ele>203.2</ele>
        <time>2024-05-04T09:23:45Z</time>
      </trkpt>
      <trkpt lat="50.08416" lon="4.10155">
        <ele>203.4</ele>
        <time>2024-05-04T09:23:46Z</time>
      </trkpt>
      <trkpt lat="50.08412" lon="4.10157">
        <ele>203.6</ele>
        <time>2024-05-04T09:23:47Z</time>
      </trkpt>
      <trkpt lat="50.08407" lon="4.1016">
        <ele>203.6</ele>
        <time>2024-05-04T09:23:48Z</time>
      </trkpt>
      <trkpt lat="50.08403" lon="4.10163">
        <ele>203.6</ele>
        <time>2024-05-04T09:23:49Z</time>
      </trkpt>
      <trkpt lat="50.08398" lon="4.10165">
        <ele>203.6</ele>
        <time>2024-05-04T09:23:50Z</time>
      </trkpt>
      <trkpt lat="50.08394" lon="4.10168">
        <ele>203.8</ele>
        <time>2024-05-04T09:23:51Z</time>
      </trkpt>
      <trkpt lat="50.08389" lon="4.1017">
        <ele>204.2</ele>
        <time>2024-05-04T09:23:52Z</time>
      </trkpt>
      <trkpt lat="50.08385" lon="4.10173">
        <ele>204.6</ele>
        <time>2024-05-04T09:23:53Z</time>
      </trkpt>
      <trkpt lat="50.08381" lon="4.10175">
        <ele>205</ele>
        <time>2024-05-04T09:23:54Z</time>
      </trkpt>
      <trkpt lat="50.08376" lon="4.10177">
        <ele>205.6</ele>
        <time>2024-05-04T09:23:55Z</time>
      </trkpt>
      <trkpt lat="50.08372" lon="4.1018">
        <ele>205.8</ele>
        <time>2024-05-04T09:23:56Z</time>
      </trkpt>
      <trkpt lat="50.08367" lon="4.10183">
        <ele>206.2</ele>
        <time>2024-05-04T09:23:57Z</time>
      </trkpt>
      <trkpt lat="50.08363" lon="4.10185">
        <ele>206.4</ele>
        <time>2024-05-04T09:23:58Z</time>
      </trkpt>
      <trkpt lat="50.08358" lon="4.10187">
        <ele>206.6</ele>
        <time>2024-05-04T09:23:59Z</time>
      </trkpt>
      <trkpt lat="50.08354" lon="4.1019">
        <ele>206.8</ele>
        <time>2024-05-04T09:24:00Z</time>
      </trkpt>
      <trkpt lat="50.0835" lon="4.10192">
        <ele>207</ele>
        <time>2024-05-04T09:24:01Z</time>
      </trkpt>
      <trkpt lat="50.08345" lon="4.10195">
        <ele>207</ele>
        <time>2024-05-04T09:24:02Z</time>
      </trkpt>
      <trkpt lat="50.08341" lon="4.10197">
        <ele>207.2</ele>
        <time>2024-05-04T09:24:03Z</time>
      </trkpt>
      <trkpt lat="50.08336" lon="4.102">
        <ele>207.2</ele>
        <time>2024-05-04T09:24:04Z</time>
      </trkpt>
      <trkpt lat="50.08332" lon="4.10203">
        <ele>207.4</ele>
        <time>2024-05-04T09:24:05Z</time>
      </trkpt>
      <trkpt lat="50.08327" lon="4.10205">
        <ele>207.4</ele>
        <time>2024-05-04T09:24:06Z</time>
      </trkpt>
      <trkpt lat="50.08322" lon="4.10208">
        <ele>207.6</ele>
        <time>2024-05-04T09:24:07Z</time>
      </trkpt>
      <trkpt lat="50.08317" lon="4.10211">
        <ele>207.8</ele>
        <time>2024-05-04T09:24:08Z</time>
      </trkpt>
      <trkpt lat="50.08312" lon="4.10214">
        <ele>208</ele>
        <time>2024-05-04T09:24:09Z</time>
      </trkpt>
      <trkpt lat="50.08307" lon="4.10217">
        <ele>208</ele>
        <time>2024-05-04T09:24:10Z</time>
      </trkpt>
      <trkpt lat="50.08302" lon="4.1022">
        <ele>208</ele>
        <time>2024-05-04T09:24:11Z</time>
      </trkpt>
      <trkpt lat="50.08297" lon="4.10222">
        <ele>208</ele>
        <time>2024-05-04T09:24:12Z</time>
      </trkpt>
      <trkpt lat="50.08291" lon="4.10225">
        <ele>208.2</ele>
        <time>2024-05-04T09:24:13Z</time>
      </trkpt>
      <trkpt lat="50.08285" lon="4.10229">
        <ele>208</ele>
        <time>2024-05-04T09:24:14Z</time>
      </trkpt>
      <trkpt lat="50.08279" lon="4.10232">
        <ele>208</ele>
        <time>2024-05-04T09:24:15Z</time>
      </trkpt>
      <trkpt lat="50.08273" lon="4.10235">
        <ele>208.2</ele>
        <time>2024-05-04T09:24:16Z</time>
      </trkpt>
      <trkpt lat="50.08266" lon="4.10239">
        <ele>208.2</ele>
        <time>2024-05-04T09:24:17Z</time>
      </trkpt>
      <trkpt lat="50.0826" lon="4.10243">
        <ele>208</ele>
        <time>2024-05-04T09:24:18Z</time>
      </trkpt>
      <trkpt lat="50.08253" lon="4.10247">
        <ele>207.8</ele>
        <time>2024-05-04T09:24:19Z</time>
      </trkpt>
      <trkpt lat="50.08245" lon="4.10251">
        <ele>207.8</ele>
        <time>2024-05-04T09:24:20Z</time>
      </trkpt>
      <trkpt lat="50.08238" lon="4.10256">
        <ele>207.6</ele>
        <time>2024-05-04T09:24:21Z</time>
      </trkpt>
      <trkpt lat="50.0823" lon="4.10261">
        <ele>207.4</ele>
        <time>2024-05-04T09:24:22Z</time>
      </trkpt>
      <trkpt lat="50.08222" lon="4.10265">
        <ele>207.4</ele>
        <time>2024-05-04T09:24:23Z</time>
      </trkpt>
      <trkpt lat="50.08214" lon="4.10269">
        <ele>207.2</ele>
        <time>2024-05-04T09:24:24Z</time>
      </trkpt>
      <trkpt lat="50.08207" lon="4.10273">
        <ele>206.6</ele>
        <time>2024-05-04T09:24:25Z</time>
      </trkpt>
      <trkpt lat="50.08199" lon="4.10278">
        <ele>206</ele>
        <time>2024-05-04T09:24:26Z</time>
      </trkpt>
      <trkpt lat="50.0819" lon="4.10282">
        <ele>205.6</ele>
        <time>2024-05-04T09:24:27Z</time>
      </trkpt>
      <trkpt lat="50.08182" lon="4.10287">
        <ele>205.2</ele>
        <time>2024-05-04T09:24:28Z</time>
      </trkpt>
      <trkpt lat="50.08174" lon="4.10292">
        <ele>204.8</ele>
        <time>2024-05-04T09:24:29Z</time>
      </trkpt>
      <trkpt lat="50.08165" lon="4.10297">
        <ele>203.8</ele>
        <time>2024-05-04T09:24:30Z</time>
      </trkpt>
      <trkpt lat="50.08157" lon="4.10302">
        <ele>203.2</ele>
        <time>2024-05-04T09:24:31Z</time>
      </trkpt>
      <trkpt lat="50.08148" lon="4.10307">
        <ele>202.2</ele>
        <time>2024-05-04T09:24:32Z</time>
      </trkpt>
      <trkpt lat="50.08139" lon="4.10311">
        <ele>201.8</ele>
        <time>2024-05-04T09:24:33Z</time>
      </trkpt>
      <trkpt lat="50.08131" lon="4.10316">
        <ele>201</ele>
        <time>2024-05-04T09:24:34Z</time>
      </trkpt>
      <trkpt lat="50.08122" lon="4.10322">
        <ele>200.2</ele>
        <time>2024-05-04T09:24:35Z</time>
      </trkpt>
      <trkpt lat="50.08113" lon="4.10327">
        <ele>200</ele>
        <time>2024-05-04T09:24:36Z</time>
      </trkpt>
      <trkpt lat="50.08104" lon="4.10332">
        <ele>199.8</ele>
        <time>2024-05-04T09:24:37Z</time>
      </trkpt>
      <trkpt lat="50.08095" lon="4.10337">
        <ele>199.8</ele>
        <time>2024-05-04T09:24:38Z</time>
      </trkpt>
      <trkpt lat="50.08086" lon="4.10342">
        <ele>199.6</ele>
        <time>2024-05-04T09:24:39Z</time>
      </trkpt>
      <trkpt lat="50.08077" lon="4.10347">
        <ele>199.2</ele>
        <time>2024-05-04T09:24:40Z</time>
      </trkpt>
      <trkpt lat="50.08068" lon="4.10353">
        <ele>198.8</ele>
        <time>2024-05-04T09:24:41Z</time>
      </trkpt>
      <trkpt lat="50.0806" lon="4.10358">
        <ele>197.8</ele>
        <time>2024-05-04T09:24:42Z</time>
      </trkpt>
      <trkpt lat="50.08051" lon="4.10363">
        <ele>197.2</ele>
        <time>2024-05-04T09:24:43Z</time>
      </trkpt>
      <trkpt lat="50.08042" lon="4.10367">
        <ele>196.4</ele>
        <time>2024-05-04T09:24:44Z</time>
      </trkpt>
      <trkpt lat="50.08034" lon="4.10372">
        <ele>195.8</ele>
        <time>2024-05-04T09:24:45Z</time>
      </trkpt>
      <trkpt lat="50.08026" lon="4.10376">
        <ele>195.4</ele>
        <time>2024-05-04T09:24:46Z</time>
      </trkpt>
      <trkpt lat="50.08018" lon="4.10381">
        <ele>195.2</ele>
        <time>2024-05-04T09:24:47Z</time>
      </trkpt>
      <trkpt lat="50.0801" lon="4.10386">
        <ele>195</ele>
        <time>2024-05-04T09:24:48Z</time>
      </trkpt>
      <trkpt lat="50.08002" lon="4.1039">
        <ele>195</ele>
        <time>2024-05-04T09:24:49Z</time>
      </trkpt>
      <trkpt lat="50.07994" lon="4.10395">
        <ele>194.8</ele>
        <time>2024-05-04T09:24:50Z</time>
      </trkpt>
      <trkpt lat="50.07987" lon="4.10399">
        <ele>194.8</ele>
        <time>2024-05-04T09:24:51Z</time>
      </trkpt>
      <trkpt lat="50.07979" lon="4.10404">
        <ele>194.8</ele>
        <time>2024-05-04T09:24:52Z</time>
      </trkpt>
      <trkpt lat="50.07972" lon="4.10409">
        <ele>194.6</ele>
        <time>2024-05-04T09:24:53Z</time>
      </trkpt>
      <trkpt lat="50.07965" lon="4.10414">
        <ele>194.8</ele>
        <time>2024-05-04T09:24:54Z</time>
      </trkpt>
      <trkpt lat="50.07957" lon="4.10418">
        <ele>194.8</ele>
        <time>2024-05-04T09:24:55Z</time>
      </trkpt>
      <trkpt lat="50.0795" lon="4.10422">
        <ele>194.6</ele>
        <time>2024-05-04T09:24:56Z</time>
      </trkpt>
      <trkpt lat="50.07942" lon="4.10427">
        <ele>194.4</ele>
        <time>2024-05-04T09:24:57Z</time>
      </trkpt>
      <trkpt lat="50.07934" lon="4.10431">
        <ele>194.4</ele>
        <time>2024-05-04T09:24:58Z</time>
      </trkpt>
      <trkpt lat="50.07927" lon="4.10436">
        <ele>194.2</ele>
        <time>2024-05-04T09:24:59Z</time>
      </trkpt>
      <trkpt lat="50.07919" lon="4.1044">
        <ele>194.2</ele>
        <time>2024-05-04T09:25:00Z</time>
      </trkpt>
      <trkpt lat="50.07911" lon="4.10445">
        <ele>194</ele>
        <time>2024-05-04T09:25:01Z</time>
      </trkpt>
      <trkpt lat="50.07903" lon="4.10449">
        <ele>193.6</ele>
        <time>2024-05-04T09:25:02Z</time>
      </trkpt>
      <trkpt lat="50.07895" lon="4.10454">
        <ele>193.6</ele>
        <time>2024-05-04T09:25:03Z</time>
      </trkpt>
      <trkpt lat="50.07887" lon="4.10459">
        <ele>193.6</ele>
        <time>2024-05-04T09:25:04Z</time>
      </trkpt>
      <trkpt lat="50.07879" lon="4.10463">
        <ele>193.4</ele>
        <time>2024-05-04T09:25:05Z</time>
      </trkpt>
      <trkpt lat="50.07871" lon="4.10468">
        <ele>193.4</ele>
        <time>2024-05-04T09:25:06Z</time>
      </trkpt>
      <trkpt lat="50.07863" lon="4.10472">
        <ele>193.4</ele>
        <time>2024-05-04T09:25:07Z</time>
      </trkpt>
      <trkpt lat="50.07854" lon="4.10477">
        <ele>193.2</ele>
        <time>2024-05-04T09:25:08Z</time>
      </trkpt>
      <trkpt lat="50.07846" lon="4.10482">
        <ele>193</ele>
        <time>2024-05-04T09:25:09Z</time>
      </trkpt>
      <trkpt lat="50.07837" lon="4.10487">
        <ele>192.8</ele>
        <time>2024-05-04T09:25:10Z</time>
      </trkpt>
      <trkpt lat="50.07829" lon="4.10492">
        <ele>192.8</ele>
        <time>2024-05-04T09:25:11Z</time>
      </trkpt>
      <trkpt lat="50.0782" lon="4.10497">
        <ele>192.6</ele>
        <time>2024-05-04T09:25:12Z</time>
      </trkpt>
      <trkpt lat="50.07812" lon="4.10501">
        <ele>192</ele>
        <time>2024-05-04T09:25:13Z</time>
      </trkpt>
      <trkpt lat="50.07803" lon="4.10506">
        <ele>191.4</ele>
        <time>2024-05-04T09:25:14Z</time>
      </trkpt>
      <trkpt lat="50.07795" lon="4.10511">
        <ele>191</ele>
        <time>2024-05-04T09:25:15Z</time>
      </trkpt>
      <trkpt lat="50.07787" lon="4.10515">
        <ele>190.8</ele>
        <time>2024-05-04T09:25:16Z</time>
      </trkpt>
      <trkpt lat="50.07778" lon="4.1052">
        <ele>190.6</ele>
        <time>2024-05-04T09:25:17Z</time>
      </trkpt>
      <trkpt lat="50.0777" lon="4.10524">
        <ele>190.4</ele>
        <time>2024-05-04T09:25:18Z</time>
      </trkpt>
      <trkpt lat="50.07762" lon="4.10529">
        <ele>190.2</ele>
        <time>2024-05-04T09:25:19Z</time>
      </trkpt>
      <trkpt lat="50.07754" lon="4.10533">
        <ele>190</ele>
        <time>2024-05-04T09:25:20Z</time>
      </trkpt>
      <trkpt lat="50.07747" lon="4.10538">
        <ele>190.2</ele>
        <time>2024-05-04T09:25:21Z</time>
      </trkpt>
      <trkpt lat="50.07739" lon="4.10543">
        <ele>190</ele>
        <time>2024-05-04T09:25:22Z</time>
      </trkpt>
      <trkpt lat="50.07731" lon="4.10547">
        <ele>190</ele>
        <time>2024-05-04T09:25:23Z</time>
      </trkpt>
      <trkpt lat="50.07724" lon="4.10551">
        <ele>189.8</ele>
        <time>2024-05-04T09:25:24Z</time>
      </trkpt>
      <trkpt lat="50.07717" lon="4.10556">
        <ele>189.8</ele>
        <time>2024-05-04T09:25:25Z</time>
      </trkpt>
      <trkpt lat="50.0771" lon="4.1056">
        <ele>189.6</ele>
        <time>2024-05-04T09:25:26Z</time>
      </trkpt>
      <trkpt lat="50.07703" lon="4.10564">
        <ele>189.6</ele>
        <time>2024-05-04T09:25:27Z</time>
      </trkpt>
      <trkpt lat="50.07696" lon="4.10568">
        <ele>189.4</ele>
        <time>2024-05-04T09:25:28Z</time>
      </trkpt>
      <trkpt lat="50.0769" lon="4.10572">
        <ele>189.6</ele>
        <time>2024-05-04T09:25:29Z</time>
      </trkpt>
      <trkpt lat="50.07683" lon="4.10575">
        <ele>189.4</ele>
        <time>2024-05-04T09:25:30Z</time>
      </trkpt>
      <trkpt lat="50.07677" lon="4.10579">
        <ele>189.4</ele>
        <time>2024-05-04T09:25:31Z</time>
      </trkpt>
      <trkpt lat="50.07671" lon="4.10583">
        <ele>189.6</ele>
        <time>2024-05-04T09:25:32Z</time>
      </trkpt>
      <trkpt lat="50.07665" lon="4.10586">
        <ele>189.6</ele>
        <time>2024-05-04T09:25:33Z</time>
      </trkpt>
      <trkpt lat="50.07659" lon="4.1059">
        <ele>189.6</ele>
        <time>2024-05-04T09:25:34Z</time>
      </trkpt>
      <trkpt lat="50.07653" lon="4.10593">
        <ele>189.6</ele>
        <time>2024-05-04T09:25:35Z</time>
      </trkpt>
      <trkpt lat="50.07647" lon="4.10596">
        <ele>189.6</ele>
        <time>2024-05-04T09:25:36Z</time>
      </trkpt>
      <trkpt lat="50.07642" lon="4.10599">
        <ele>190</ele>
        <time>2024-05-04T09:25:37Z</time>
      </trkpt>
      <trkpt lat="50.07636" lon="4.10603">
        <ele>190.2</ele>
        <time>2024-05-04T09:25:38Z</time>
      </trkpt>
      <trkpt lat="50.0763" lon="4.10606">
        <ele>190.6</ele>
        <time>2024-05-04T09:25:39Z</time>
      </trkpt>
      <trkpt lat="50.07625" lon="4.10609">
        <ele>191</ele>
        <time>2024-05-04T09:25:40Z</time>
      </trkpt>
      <trkpt lat="50.07619" lon="4.10612">
        <ele>191</ele>
        <time>2024-05-04T09:25:41Z</time>
      </trkpt>
      <trkpt lat="50.07613" lon="4.10616">
        <ele>191.2</ele>
        <time>2024-05-04T09:25:42Z</time>
      </trkpt>
      <trkpt lat="50.07608" lon="4.10619">
        <ele>191.4</ele>
        <time>2024-05-04T09:25:43Z</time>
      </trkpt>
      <trkpt lat="50.07602" lon="4.10623">
        <ele>191.6</ele>
        <time>2024-05-04T09:25:44Z</time>
      </trkpt>
      <trkpt lat="50.07597" lon="4.10626">
        <ele>191.8</ele>
        <time>2024-05-04T09:25:45Z</time>
      </trkpt>
      <trkpt lat="50.07592" lon="4.10629">
        <ele>192</ele>
        <time>2024-05-04T09:25:46Z</time>
      </trkpt>
      <trkpt lat="50.07586" lon="4.10632">
        <ele>192.2</ele>
        <time>2024-05-04T09:25:47Z</time>
      </trkpt>
      <trkpt lat="50.07581" lon="4.10635">
        <ele>192.2</ele>
        <time>2024-05-04T09:25:48Z</time>
      </trkpt>
      <trkpt lat="50.07575" lon="4.10638">
        <ele>192.4</ele>
        <time>2024-05-04T09:25:49Z</time>
      </trkpt>
      <trkpt lat="50.0757" lon="4.10641">
        <ele>192.4</ele>
        <time>2024-05-04T09:25:50Z</time>
      </trkpt>
      <trkpt lat="50.07565" lon="4.10643">
        <ele>192.8</ele>
        <time>2024-05-04T09:25:51Z</time>
      </trkpt>
      <trkpt lat="50.07559" lon="4.10646">
        <ele>193</ele>
        <time>2024-05-04T09:25:52Z</time>
      </trkpt>
      <trkpt lat="50.07554" lon="4.10649">
        <ele>193</ele>
        <time>2024-05-04T09:25:53Z</time>
      </trkpt>
      <trkpt lat="50.07549" lon="4.10652">
        <ele>193.4</ele>
        <time>2024-05-04T09:25:54Z</time>
      </trkpt>
      <trkpt lat="50.07544" lon="4.10655">
        <ele>193.8</ele>
        <time>2024-05-04T09:25:55Z</time>
      </trkpt>
      <trkpt lat="50.07539" lon="4.10658">
        <ele>194</ele>
        <time>2024-05-04T09:25:56Z</time>
      </trkpt>
      <trkpt lat="50.07534" lon="4.10661">
        <ele>194.6</ele>
        <time>2024-05-04T09:25:57Z</time>
      </trkpt>
      <trkpt lat="50.07528" lon="4.10665">
        <ele>194.8</ele>
        <time>2024-05-04T09:25:58Z</time>
      </trkpt>
      <trkpt lat="50.07523" lon="4.10668">
        <ele>195.2</ele>
        <time>2024-05-04T09:25:59Z</time>
      </trkpt>
      <trkpt lat="50.07518" lon="4.10671">
        <ele>195.2</ele>
        <time>2024-05-04T09:26:00Z</time>
      </trkpt>
      <trkpt lat="50.07513" lon="4.10674">
        <ele>195.6</ele>
        <time>2024-05-04T09:26:01Z</time>
      </trkpt>
      <trkpt lat="50.07507" lon="4.10677">
        <ele>195.6</ele>
        <time>2024-05-04T09:26:02Z</time>
      </trkpt>
      <trkpt lat="50.07502" lon="4.1068">
        <ele>195.8</ele>
        <time>2024-05-04T09:26:03Z</time>
      </trkpt>
      <trkpt lat="50.07496" lon="4.10684">
        <ele>195.8</ele>
        <time>2024-05-04T09:26:04Z</time>
      </trkpt>
      <trkpt lat="50.0749" lon="4.10687">
        <ele>195.8</ele>
        <time>2024-05-04T09:26:05Z</time>
      </trkpt>
      <trkpt lat="50.07485" lon="4.1069">
        <ele>195.8</ele>
        <time>2024-05-04T09:26:06Z</time>
      </trkpt>
      <trkpt lat="50.07479" lon="4.10693">
        <ele>195.8</ele>
        <time>2024-05-04T09:26:07Z</time>
      </trkpt>
      <trkpt lat="50.07473" lon="4.10697">
        <ele>195.8</ele>
        <time>2024-05-04T09:26:08Z</time>
      </trkpt>
      <trkpt lat="50.07467" lon="4.107">
        <ele>195.8</ele>
        <time>2024-05-04T09:26:09Z</time>
      </trkpt>
      <trkpt lat="50.0746" lon="4.10704">
        <ele>195.8</ele>
        <time>2024-05-04T09:26:10Z</time>
      </trkpt>
      <trkpt lat="50.07454" lon="4.10708">
        <ele>195.8</ele>
        <time>2024-05-04T09:26:11Z</time>
      </trkpt>
      <trkpt lat="50.07448" lon="4.10712">
        <ele>195.8</ele>
        <time>2024-05-04T09:26:12Z</time>
      </trkpt>
      <trkpt lat="50.07441" lon="4.10715">
        <ele>195.6</ele>
        <time>2024-05-04T09:26:13Z</time>
      </trkpt>
      <trkpt lat="50.07435" lon="4.10719">
        <ele>195.8</ele>
        <time>2024-05-04T09:26:14Z</time>
      </trkpt>
      <trkpt lat="50.07429" lon="4.10723">
        <ele>195.6</ele>
        <time>2024-05-04T09:26:15Z</time>
      </trkpt>
      <trkpt lat="50.07423" lon="4.10726">
        <ele>195.4</ele>
        <time>2024-05-04T09:26:16Z</time>
      </trkpt>
      <trkpt lat="50.07417" lon="4.1073">
        <ele>195.4</ele>
        <time>2024-05-04T09:26:17Z</time>
      </trkpt>
      <trkpt lat="50.07411" lon="4.10734">
        <ele>195.4</ele>
        <time>2024-05-04T09:26:18Z</time>
      </trkpt>
      <trkpt lat="50.07405" lon="4.10737">
        <ele>195.4</ele>
        <time>2024-05-04T09:26:19Z</time>
      </trkpt>
      <trkpt lat="50.07399" lon="4.10741">
        <ele>195.4</ele>
        <time>2024-05-04T09:26:20Z</time>
      </trkpt>
      <trkpt lat="50.07393" lon="4.10744">
        <ele>195.4</ele>
        <time>2024-05-04T09:26:21Z</time>
      </trkpt>
      <trkpt lat="50.07387" lon="4.10747">
        <ele>195.2</ele>
        <time>2024-05-04T09:26:22Z</time>
      </trkpt>
      <trkpt lat="50.07382" lon="4.1075">
        <ele>195.2</ele>
        <time>2024-05-04T09:26:23Z</time>
      </trkpt>
      <trkpt lat="50.07377" lon="4.10753">
        <ele>195.4</ele>
        <time>2024-05-04T09:26:24Z</time>
      </trkpt>
      <trkpt lat="50.07372" lon="4.10756">
        <ele>195.4</ele>
        <time>2024-05-04T09:26:25Z</time>
      </trkpt>
      <trkpt lat="50.07367" lon="4.10758">
        <ele>195.6</ele>
        <time>2024-05-04T09:26:26Z</time>
      </trkpt>
      <trkpt lat="50.07362" lon="4.10761">
        <ele>195.4</ele>
        <time>2024-05-04T09:26:27Z</time>
      </trkpt>
      <trkpt lat="50.07356" lon="4.10764">
        <ele>195.6</ele>
        <time>2024-05-04T09:26:28Z</time>
      </trkpt>
      <trkpt lat="50.07352" lon="4.10767">
        <ele>195.6</ele>
        <time>2024-05-04T09:26:29Z</time>
      </trkpt>
      <trkpt lat="50.07347" lon="4.10769">
        <ele>195.8</ele>
        <time>2024-05-04T09:26:30Z</time>
      </trkpt>
      <trkpt lat="50.07342" lon="4.10772">
        <ele>196</ele>
        <time>2024-05-04T09:26:31Z</time>
      </trkpt>
      <trkpt lat="50.07337" lon="4.10775">
        <ele>196.4</ele>
        <time>2024-05-04T09:26:32Z</time>
      </trkpt>
      <trkpt lat="50.07332" lon="4.10778">
        <ele>197</ele>
        <time>2024-05-04T09:26:33Z</time>
      </trkpt>
      <trkpt lat="50.07328" lon="4.10781">
        <ele>197.4</ele>
        <time>2024-05-04T09:26:34Z</time>
      </trkpt>
      <trkpt lat="50.07323" lon="4.10784">
        <ele>197.4</ele>
        <time>2024-05-04T09:26:35Z</time>
      </trkpt>
      <trkpt lat="50.07318" lon="4.10787">
        <ele>197.6</ele>
        <time>2024-05-04T09:26:36Z</time>
      </trkpt>
      <trkpt lat="50.07313" lon="4.10789">
        <ele>198</ele>
        <time>2024-05-04T09:26:37Z</time>
      </trkpt>
      <trkpt lat="50.07308" lon="4.10792">
        <ele>198.4</ele>
        <time>2024-05-04T09:26:38Z</time>
      </trkpt>
      <trkpt lat="50.07302" lon="4.10796">
        <ele>198.6</ele>
        <time>2024-05-04T09:26:39Z</time>
      </trkpt>
      <trkpt lat="50.07297" lon="4.10799">
        <ele>198.6</ele>
        <time>2024-05-04T09:26:40Z</time>
      </trkpt>
      <trkpt lat="50.07291" lon="4.10802">
        <ele>199</ele>
        <time>2024-05-04T09:26:41Z</time>
      </trkpt>
      <trkpt lat="50.07286" lon="4.10805">
        <ele>199.2</ele>
        <time>2024-05-04T09:26:42Z</time>
      </trkpt>
      <trkpt lat="50.0728" lon="4.10808">
        <ele>199.4</ele>
        <time>2024-05-04T09:26:43Z</time>
      </trkpt>
      <trkpt lat="50.07274" lon="4.10811">
        <ele>199.8</ele>
        <time>2024-05-04T09:26:44Z</time>
      </trkpt>
      <trkpt lat="50.07268" lon="4.10814">
        <ele>199.8</ele>
        <time>2024-05-04T09:26:45Z</time>
      </trkpt>
      <trkpt lat="50.07262" lon="4.10816">
        <ele>200</ele>
        <time>2024-05-04T09:26:46Z</time>
      </trkpt>
      <trkpt lat="50.07255" lon="4.10819">
        <ele>199.8</ele>
        <time>2024-05-04T09:26:47Z</time>
      </trkpt>
      <trkpt lat="50.07249" lon="4.10821">
        <ele>200</ele>
        <time>2024-05-04T09:26:48Z</time>
      </trkpt>
      <trkpt lat="50.07242" lon="4.10822">
        <ele>199.8</ele>
        <time>2024-05-04T09:26:49Z</time>
      </trkpt>
      <trkpt lat="50.07235" lon="4.10823">
        <ele>200</ele>
        <time>2024-05-04T09:26:50Z</time>
      </trkpt>
      <trkpt lat="50.07227" lon="4.10823">
        <ele>200</ele>
        <time>2024-05-04T09:26:51Z</time>
      </trkpt>
      <trkpt lat="50.0722" lon="4.10823">
        <ele>199.8</ele>
        <time>2024-05-04T09:26:52Z</time>
      </trkpt>
      <trkpt lat="50.07212" lon="4.10823">
        <ele>199.8</ele>
        <time>2024-05-04T09:26:53Z</time>
      </trkpt>
      <trkpt lat="50.07204" lon="4.10821">
        <ele>199.6</ele>
        <time>2024-05-04T09:26:54Z</time>
      </trkpt>
      <trkpt lat="50.07196" lon="4.10818">
        <ele>199.4</ele>
        <time>2024-05-04T09:26:55Z</time>
      </trkpt>
      <trkpt lat="50.07188" lon="4.10815">
        <ele>199.4</ele>
        <time>2024-05-04T09:26:56Z</time>
      </trkpt>
      <trkpt lat="50.07179" lon="4.10811">
        <ele>199.2</ele>
        <time>2024-05-04T09:26:57Z</time>
      </trkpt>
      <trkpt lat="50.07171" lon="4.10806">
        <ele>199</ele>
        <time>2024-05-04T09:26:58Z</time>
      </trkpt>
      <trkpt lat="50.07164" lon="4.108">
        <ele>198.6</ele>
        <time>2024-05-04T09:26:59Z</time>
      </trkpt>
      <trkpt lat="50.07156" lon="4.10793">
        <ele>198.6</ele>
        <time>2024-05-04T09:27:00Z</time>
      </trkpt>
      <trkpt lat="50.07149" lon="4.10785">
        <ele>198.2</ele>
        <time>2024-05-04T09:27:01Z</time>
      </trkpt>
      <trkpt lat="50.07142" lon="4.10777">
        <ele>197.6</ele>
        <time>2024-05-04T09:27:02Z</time>
      </trkpt>
      <trkpt lat="50.07135" lon="4.10769">
        <ele>197</ele>
        <time>2024-05-04T09:27:03Z</time>
      </trkpt>
      <trkpt lat="50.07128" lon="4.1076">
        <ele>196.6</ele>
        <time>2024-05-04T09:27:04Z</time>
      </trkpt>
      <trkpt lat="50.07122" lon="4.10751">
        <ele>196.4</ele>
        <time>2024-05-04T09:27:05Z</time>
      </trkpt>
      <trkpt lat="50.07115" lon="4.10743">
        <ele>196</ele>
        <time>2024-05-04T09:27:06Z</time>
      </trkpt>
      <trkpt lat="50.07108" lon="4.10735">
        <ele>195.8</ele>
        <time>2024-05-04T09:27:07Z</time>
      </trkpt>
      <trkpt lat="50.07101" lon="4.10727">
        <ele>195.4</ele>
        <time>2024-05-04T09:27:08Z</time>
      </trkpt>
      <trkpt lat="50.07094" lon="4.10719">
        <ele>195.2</ele>
        <time>2024-05-04T09:27:09Z</time>
      </trkpt>
      <trkpt lat="50.07087" lon="4.10712">
        <ele>195.2</ele>
        <time>2024-05-04T09:27:10Z</time>
      </trkpt>
      <trkpt lat="50.07079" lon="4.10706">
        <ele>195.2</ele>
        <time>2024-05-04T09:27:11Z</time>
      </trkpt>
      <trkpt lat="50.07072" lon="4.10699">
        <ele>195</ele>
        <time>2024-05-04T09:27:12Z</time>
      </trkpt>
      <trkpt lat="50.07065" lon="4.10693">
        <ele>195</ele>
        <time>2024-05-04T09:27:13Z</time>
      </trkpt>
      <trkpt lat="50.07057" lon="4.10688">
        <ele>195</ele>
        <time>2024-05-04T09:27:14Z</time>
      </trkpt>
      <trkpt lat="50.0705" lon="4.10683">
        <ele>194.8</ele>
        <time>2024-05-04T09:27:15Z</time>
      </trkpt>
      <trkpt lat="50.07042" lon="4.10679">
        <ele>194.8</ele>
        <time>2024-05-04T09:27:16Z</time>
      </trkpt>
      <trkpt lat="50.07035" lon="4.10674">
        <ele>194.6</ele>
        <time>2024-05-04T09:27:17Z</time>
      </trkpt>
      <trkpt lat="50.07027" lon="4.10671">
        <ele>194.6</ele>
        <time>2024-05-04T09:27:18Z</time>
      </trkpt>
      <trkpt lat="50.07019" lon="4.10667">
        <ele>194.6</ele>
        <time>2024-05-04T09:27:19Z</time>
      </trkpt>
      <trkpt lat="50.07012" lon="4.10663">
        <ele>194.6</ele>
        <time>2024-05-04T09:27:20Z</time>
      </trkpt>
      <trkpt lat="50.07005" lon="4.10659">
        <ele>194.8</ele>
        <time>2024-05-04T09:27:21Z</time>
      </trkpt>
      <trkpt lat="50.06998" lon="4.10655">
        <ele>194.6</ele>
        <time>2024-05-04T09:27:22Z</time>
      </trkpt>
      <trkpt lat="50.06991" lon="4.1065">
        <ele>194.6</ele>
        <time>2024-05-04T09:27:23Z</time>
      </trkpt>
      <trkpt lat="50.06985" lon="4.10644">
        <ele>194.6</ele>
        <time>2024-05-04T09:27:24Z</time>
      </trkpt>
      <trkpt lat="50.06979" lon="4.10637">
        <ele>194.6</ele>
        <time>2024-05-04T09:27:25Z</time>
      </trkpt>
      <trkpt lat="50.06974" lon="4.1063">
        <ele>194.4</ele>
        <time>2024-05-04T09:27:26Z</time>
      </trkpt>
      <trkpt lat="50.06968" lon="4.10622">
        <ele>194.6</ele>
        <time>2024-05-04T09:27:27Z</time>
      </trkpt>
      <trkpt lat="50.06963" lon="4.10613">
        <ele>194.4</ele>
        <time>2024-05-04T09:27:28Z</time>
      </trkpt>
      <trkpt lat="50.06959" lon="4.10604">
        <ele>194.6</ele>
        <time>2024-05-04T09:27:29Z</time>
      </trkpt>
      <trkpt lat="50.06956" lon="4.10594">
        <ele>194.6</ele>
        <time>2024-05-04T09:27:30Z</time>
      </trkpt>
      <trkpt lat="50.06952" lon="4.10583">
        <ele>194.6</ele>
        <time>2024-05-04T09:27:31Z</time>
      </trkpt>
      <trkpt lat="50.0695" lon="4.10572">
        <ele>194.6</ele>
        <time>2024-05-04T09:27:32Z</time>
      </trkpt>
      <trkpt lat="50.06947" lon="4.10561">
        <ele>194.8</ele>
        <time>2024-05-04T09:27:33Z</time>
      </trkpt>
      <trkpt lat="50.06946" lon="4.1055">
        <ele>194.8</ele>
        <time>2024-05-04T09:27:34Z</time>
      </trkpt>
      <trkpt lat="50.06945" lon="4.10538">
        <ele>194.8</ele>
        <time>2024-05-04T09:27:35Z</time>
      </trkpt>
      <trkpt lat="50.06945" lon="4.10526">
        <ele>194.8</ele>
        <time>2024-05-04T09:27:36Z</time>
      </trkpt>
      <trkpt lat="50.06945" lon="4.10515">
        <ele>194.8</ele>
        <time>2024-05-04T09:27:37Z</time>
      </trkpt>
      <trkpt lat="50.06945" lon="4.10503">
        <ele>194.6</ele>
        <time>2024-05-04T09:27:38Z</time>
      </trkpt>
      <trkpt lat="50.06946" lon="4.10491">
        <ele>194.6</ele>
        <time>2024-05-04T09:27:39Z</time>
      </trkpt>
      <trkpt lat="50.06947" lon="4.1048">
        <ele>194.8</ele>
        <time>2024-05-04T09:27:40Z</time>
      </trkpt>
      <trkpt lat="50.06949" lon="4.10468">
        <ele>194.8</ele>
        <time>2024-05-04T09:27:41Z</time>
      </trkpt>
      <trkpt lat="50.0695" lon="4.10457">
        <ele>194.8</ele>
        <time>2024-05-04T09:27:42Z</time>
      </trkpt>
      <trkpt lat="50.06951" lon="4.10445">
        <ele>194.8</ele>
        <time>2024-05-04T09:27:43Z</time>
      </trkpt>
      <trkpt lat="50.06952" lon="4.10434">
        <ele>194.8</ele>
        <time>2024-05-04T09:27:44Z</time>
      </trkpt>
      <trkpt lat="50.06953" lon="4.10422">
        <ele>194.8</ele>
        <time>2024-05-04T09:27:45Z</time>
      </trkpt>
      <trkpt lat="50.06954" lon="4.10411">
        <ele>194.8</ele>
        <time>2024-05-04T09:27:46Z</time>
      </trkpt>
      <trkpt lat="50.06955" lon="4.10399">
        <ele>194.8</ele>
        <time>2024-05-04T09:27:47Z</time>
      </trkpt>
      <trkpt lat="50.06956" lon="4.10388">
        <ele>194.6</ele>
        <time>2024-05-04T09:27:48Z</time>
      </trkpt>
      <trkpt lat="50.06956" lon="4.10376">
        <ele>194.6</ele>
        <time>2024-05-04T09:27:49Z</time>
      </trkpt>
      <trkpt lat="50.06956" lon="4.10364">
        <ele>194.6</ele>
        <time>2024-05-04T09:27:50Z</time>
      </trkpt>
      <trkpt lat="50.06956" lon="4.10352">
        <ele>194.6</ele>
        <time>2024-05-04T09:27:51Z</time>
      </trkpt>
      <trkpt lat="50.06955" lon="4.1034">
        <ele>194.6</ele>
        <time>2024-05-04T09:27:52Z</time>
      </trkpt>
      <trkpt lat="50.06954" lon="4.10329">
        <ele>194.6</ele>
        <time>2024-05-04T09:27:53Z</time>
      </trkpt>
      <trkpt lat="50.06952" lon="4.10317">
        <ele>194.4</ele>
        <time>2024-05-04T09:27:54Z</time>
      </trkpt>
      <trkpt lat="50.0695" lon="4.10306">
        <ele>194.2</ele>
        <time>2024-05-04T09:27:55Z</time>
      </trkpt>
      <trkpt lat="50.06947" lon="4.10295">
        <ele>194.2</ele>
        <time>2024-05-04T09:27:56Z</time>
      </trkpt>
      <trkpt lat="50.06944" lon="4.10285">
        <ele>194.2</ele>
        <time>2024-05-04T09:27:57Z</time>
      </trkpt>
      <trkpt lat="50.0694" lon="4.10275">
        <ele>194.2</ele>
        <time>2024-05-04T09:27:58Z</time>
      </trkpt>
      <trkpt lat="50.06936" lon="4.10266">
        <ele>194.2</ele>
        <time>2024-05-04T09:27:59Z</time>
      </trkpt>
      <trkpt lat="50.06932" lon="4.10257">
        <ele>194.2</ele>
        <time>2024-05-04T09:28:00Z</time>
      </trkpt>
      <trkpt lat="50.06927" lon="4.10249">
        <ele>194.2</ele>
        <time>2024-05-04T09:28:01Z</time>
      </trkpt>
      <trkpt lat="50.06922" lon="4.10242">
        <ele>194.2</ele>
        <time>2024-05-04T09:28:02Z</time>
      </trkpt>
      <trkpt lat="50.06917" lon="4.10234">
        <ele>194</ele>
        <time>2024-05-04T09:28:03Z</time>
      </trkpt>
      <trkpt lat="50.06912" lon="4.10227">
        <ele>194</ele>
        <time>2024-05-04T09:28:04Z</time>
      </trkpt>
      <trkpt lat="50.06907" lon="4.1022">
        <ele>194</ele>
        <time>2024-05-04T09:28:05Z</time>
      </trkpt>
      <trkpt lat="50.06902" lon="4.10214">
        <ele>194</ele>
        <time>2024-05-04T09:28:06Z</time>
      </trkpt>
      <trkpt lat="50.06896" lon="4.10207">
        <ele>194</ele>
        <time>2024-05-04T09:28:07Z</time>
      </trkpt>
      <trkpt lat="50.06891" lon="4.102">
        <ele>194</ele>
        <time>2024-05-04T09:28:08Z</time>
      </trkpt>
      <trkpt lat="50.06886" lon="4.10194">
        <ele>194</ele>
        <time>2024-05-04T09:28:09Z</time>
      </trkpt>
      <trkpt lat="50.06881" lon="4.10188">
        <ele>193.8</ele>
        <time>2024-05-04T09:28:10Z</time>
      </trkpt>
      <trkpt lat="50.06877" lon="4.10181">
        <ele>193.8</ele>
        <time>2024-05-04T09:28:11Z</time>
      </trkpt>
      <trkpt lat="50.06872" lon="4.10175">
        <ele>194</ele>
        <time>2024-05-04T09:28:12Z</time>
      </trkpt>
      <trkpt lat="50.06867" lon="4.10169">
        <ele>194.2</ele>
        <time>2024-05-04T09:28:13Z</time>
      </trkpt>
      <trkpt lat="50.06862" lon="4.10163">
        <ele>194.2</ele>
        <time>2024-05-04T09:28:14Z</time>
      </trkpt>
      <trkpt lat="50.06857" lon="4.10156">
        <ele>194.4</ele>
        <time>2024-05-04T09:28:15Z</time>
      </trkpt>
      <trkpt lat="50.06853" lon="4.1015">
        <ele>194.4</ele>
        <time>2024-05-04T09:28:16Z</time>
      </trkpt>
      <trkpt lat="50.06848" lon="4.10144">
        <ele>194.4</ele>
        <time>2024-05-04T09:28:17Z</time>
      </trkpt>
      <trkpt lat="50.06843" lon="4.10138">
        <ele>194.4</ele>
        <time>2024-05-04T09:28:18Z</time>
      </trkpt>
      <trkpt lat="50.06838" lon="4.10131">
        <ele>194.4</ele>
        <time>2024-05-04T09:28:19Z</time>
      </trkpt>
      <trkpt lat="50.06834" lon="4.10125">
        <ele>194.8</ele>
        <time>2024-05-04T09:28:20Z</time>
      </trkpt>
      <trkpt lat="50.06829" lon="4.10119">
        <ele>195.4</ele>
        <time>2024-05-04T09:28:21Z</time>
      </trkpt>
      <trkpt lat="50.06824" lon="4.10113">
        <ele>195.4</ele>
        <time>2024-05-04T09:28:22Z</time>
      </trkpt>
      <trkpt lat="50.06819" lon="4.10107">
        <ele>195.6</ele>
        <time>2024-05-04T09:28:23Z</time>
      </trkpt>
      <trkpt lat="50.06814" lon="4.10101">
        <ele>195.8</ele>
        <time>2024-05-04T09:28:24Z</time>
      </trkpt>
      <trkpt lat="50.06809" lon="4.10095">
        <ele>195.8</ele>
        <time>2024-05-04T09:28:25Z</time>
      </trkpt>
      <trkpt lat="50.06804" lon="4.10088">
        <ele>195.8</ele>
        <time>2024-05-04T09:28:26Z</time>
      </trkpt>
      <trkpt lat="50.06799" lon="4.10082">
        <ele>196</ele>
        <time>2024-05-04T09:28:27Z</time>
      </trkpt>
      <trkpt lat="50.06794" lon="4.10075">
        <ele>196.4</ele>
        <time>2024-05-04T09:28:28Z</time>
      </trkpt>
      <trkpt lat="50.06789" lon="4.10069">
        <ele>196.4</ele>
        <time>2024-05-04T09:28:29Z</time>
      </trkpt>
      <trkpt lat="50.06784" lon="4.10062">
        <ele>196.4</ele>
        <time>2024-05-04T09:28:30Z</time>
      </trkpt>
      <trkpt lat="50.06778" lon="4.10056">
        <ele>196.6</ele>
        <time>2024-05-04T09:28:31Z</time>
      </trkpt>
      <trkpt lat="50.06773" lon="4.10049">
        <ele>196.6</ele>
        <time>2024-05-04T09:28:32Z</time>
      </trkpt>
      <trkpt lat="50.06768" lon="4.10043">
        <ele>196.6</ele>
        <time>2024-05-04T09:28:33Z</time>
      </trkpt>
      <trkpt lat="50.06762" lon="4.10037">
        <ele>196.6</ele>
        <time>2024-05-04T09:28:34Z</time>
      </trkpt>
      <trkpt lat="50.06757" lon="4.10031">
        <ele>196.6</ele>
        <time>2024-05-04T09:28:35Z</time>
      </trkpt>
      <trkpt lat="50.06751" lon="4.10025">
        <ele>196.6</ele>
        <time>2024-05-04T09:28:36Z</time>
      </trkpt>
      <trkpt lat="50.06745" lon="4.1002">
        <ele>196.6</ele>
        <time>2024-05-04T09:28:37Z</time>
      </trkpt>
      <trkpt lat="50.0674" lon="4.10014">
        <ele>196.8</ele>
        <time>2024-05-04T09:28:38Z</time>
      </trkpt>
      <trkpt lat="50.06734" lon="4.10009">
        <ele>196.6</ele>
        <time>2024-05-04T09:28:39Z</time>
      </trkpt>
      <trkpt lat="50.06728" lon="4.10005">
        <ele>196.8</ele>
        <time>2024-05-04T09:28:40Z</time>
      </trkpt>
      <trkpt lat="50.06722" lon="4.1">
        <ele>196.6</ele>
        <time>2024-05-04T09:28:41Z</time>
      </trkpt>
      <trkpt lat="50.06716" lon="4.09996">
        <ele>196.6</ele>
        <time>2024-05-04T09:28:42Z</time>
      </trkpt>
      <trkpt lat="50.0671" lon="4.09991">
        <ele>196.6</ele>
        <time>2024-05-04T09:28:43Z</time>
      </trkpt>
      <trkpt lat="50.06704" lon="4.09987">
        <ele>196.6</ele>
        <time>2024-05-04T09:28:44Z</time>
      </trkpt>
      <trkpt lat="50.06698" lon="4.09983">
        <ele>196.6</ele>
        <time>2024-05-04T09:28:45Z</time>
      </trkpt>
      <trkpt lat="50.06692" lon="4.09979">
        <ele>196.6</ele>
        <time>2024-05-04T09:28:46Z</time>
      </trkpt>
      <trkpt lat="50.06686" lon="4.09976">
        <ele>196.8</ele>
        <time>2024-05-04T09:28:47Z</time>
      </trkpt>
      <trkpt lat="50.0668" lon="4.09971">
        <ele>196.8</ele>
        <time>2024-05-04T09:28:48Z</time>
      </trkpt>
      <trkpt lat="50.06674" lon="4.09966">
        <ele>196.6</ele>
        <time>2024-05-04T09:28:49Z</time>
      </trkpt>
      <trkpt lat="50.06669" lon="4.09961">
        <ele>196.6</ele>
        <time>2024-05-04T09:28:50Z</time>
      </trkpt>
      <trkpt lat="50.06663" lon="4.09956">
        <ele>196.6</ele>
        <time>2024-05-04T09:28:51Z</time>
      </trkpt>
      <trkpt lat="50.06658" lon="4.09952">
        <ele>196.6</ele>
        <time>2024-05-04T09:28:52Z</time>
      </trkpt>
      <trkpt lat="50.06652" lon="4.09948">
        <ele>196.6</ele>
        <time>2024-05-04T09:28:53Z</time>
      </trkpt>
      <trkpt lat="50.06646" lon="4.09944">
        <ele>196.6</ele>
        <time>2024-05-04T09:28:54Z</time>
      </trkpt>
      <trkpt lat="50.0664" lon="4.09939">
        <ele>196.6</ele>
        <time>2024-05-04T09:28:55Z</time>
      </trkpt>
      <trkpt lat="50.06635" lon="4.09934">
        <ele>196.4</ele>
        <time>2024-05-04T09:28:56Z</time>
      </trkpt>
      <trkpt lat="50.06629" lon="4.0993">
        <ele>196.6</ele>
        <time>2024-05-04T09:28:57Z</time>
      </trkpt>
      <trkpt lat="50.06623" lon="4.09925">
        <ele>196.6</ele>
        <time>2024-05-04T09:28:58Z</time>
      </trkpt>
      <trkpt lat="50.06617" lon="4.09921">
        <ele>196.6</ele>
        <time>2024-05-04T09:28:59Z</time>
      </trkpt>
      <trkpt lat="50.06611" lon="4.09916">
        <ele>196.6</ele>
        <time>2024-05-04T09:29:00Z</time>
      </trkpt>
      <trkpt lat="50.06605" lon="4.09911">
        <ele>196.8</ele>
        <time>2024-05-04T09:29:01Z</time>
      </trkpt>
      <trkpt lat="50.06599" lon="4.09906">
        <ele>196.8</ele>
        <time>2024-05-04T09:29:02Z</time>
      </trkpt>
      <trkpt lat="50.06593" lon="4.09902">
        <ele>197</ele>
        <time>2024-05-04T09:29:03Z</time>
      </trkpt>
      <trkpt lat="50.06587" lon="4.09898">
        <ele>196.8</ele>
        <time>2024-05-04T09:29:04Z</time>
      </trkpt>
      <trkpt lat="50.06581" lon="4.09894">
        <ele>197</ele>
        <time>2024-05-04T09:29:05Z</time>
      </trkpt>
      <trkpt lat="50.06575" lon="4.09891">
        <ele>197</ele>
        <time>2024-05-04T09:29:06Z</time>
      </trkpt>
      <trkpt lat="50.06569" lon="4.09888">
        <ele>197</ele>
        <time>2024-05-04T09:29:07Z</time>
      </trkpt>
      <trkpt lat="50.06563" lon="4.09885">
        <ele>196.8</ele>
        <time>2024-05-04T09:29:08Z</time>
      </trkpt>
      <trkpt lat="50.06557" lon="4.09883">
        <ele>196.8</ele>
        <time>2024-05-04T09:29:09Z</time>
      </trkpt>
      <trkpt lat="50.0655" lon="4.09882">
        <ele>196.8</ele>
        <time>2024-05-04T09:29:10Z</time>
      </trkpt>
      <trkpt lat="50.06544" lon="4.09883">
        <ele>197</ele>
        <time>2024-05-04T09:29:11Z</time>
      </trkpt>
      <trkpt lat="50.06538" lon="4.09884">
        <ele>197</ele>
        <time>2024-05-04T09:29:12Z</time>
      </trkpt>
      <trkpt lat="50.06532" lon="4.09885">
        <ele>197</ele>
        <time>2024-05-04T09:29:13Z</time>
      </trkpt>
      <trkpt lat="50.06526" lon="4.09888">
        <ele>196.8</ele>
        <time>2024-05-04T09:29:14Z</time>
      </trkpt>
      <trkpt lat="50.0652" lon="4.09891">
        <ele>197</ele>
        <time>2024-05-04T09:29:15Z</time>
      </trkpt>
      <trkpt lat="50.06514" lon="4.09895">
        <ele>197</ele>
        <time>2024-05-04T09:29:16Z</time>
      </trkpt>
      <trkpt lat="50.06508" lon="4.099">
        <ele>197</ele>
        <time>2024-05-04T09:29:17Z</time>
      </trkpt>
      <trkpt lat="50.06503" lon="4.09905">
        <ele>197</ele>
        <time>2024-05-04T09:29:18Z</time>
      </trkpt>
      <trkpt lat="50.06497" lon="4.0991">
        <ele>197</ele>
        <time>2024-05-04T09:29:19Z</time>
      </trkpt>
      <trkpt lat="50.06492" lon="4.09916">
        <ele>197.2</ele>
        <time>2024-05-04T09:29:20Z</time>
      </trkpt>
      <trkpt lat="50.06487" lon="4.09922">
        <ele>197</ele>
        <time>2024-05-04T09:29:21Z</time>
      </trkpt>
      <trkpt lat="50.06482" lon="4.09928">
        <ele>197</ele>
        <time>2024-05-04T09:29:22Z</time>
      </trkpt>
      <trkpt lat="50.06477" lon="4.09934">
        <ele>197</ele>
        <time>2024-05-04T09:29:23Z</time>
      </trkpt>
      <trkpt lat="50.06472" lon="4.0994">
        <ele>197</ele>
        <time>2024-05-04T09:29:24Z</time>
      </trkpt>
      <trkpt lat="50.06466" lon="4.09947">
        <ele>197.2</ele>
        <time>2024-05-04T09:29:25Z</time>
      </trkpt>
      <trkpt lat="50.06461" lon="4.09954">
        <ele>197</ele>
        <time>2024-05-04T09:29:26Z</time>
      </trkpt>
      <trkpt lat="50.06456" lon="4.0996">
        <ele>197.2</ele>
        <time>2024-05-04T09:29:27Z</time>
      </trkpt>
      <trkpt lat="50.0645" lon="4.09967">
        <ele>197.4</ele>
        <time>2024-05-04T09:29:28Z</time>
      </trkpt>
      <trkpt lat="50.06445" lon="4.09974">
        <ele>197.2</ele>
        <time>2024-05-04T09:29:29Z</time>
      </trkpt>
      <trkpt lat="50.06439" lon="4.09981">
        <ele>197.4</ele>
        <time>2024-05-04T09:29:30Z</time>
      </trkpt>
      <trkpt lat="50.06434" lon="4.09988">
        <ele>197.4</ele>
        <time>2024-05-04T09:29:31Z</time>
      </trkpt>
      <trkpt lat="50.06428" lon="4.09994">
        <ele>197.4</ele>
        <time>2024-05-04T09:29:32Z</time>
      </trkpt>
      <trkpt lat="50.06423" lon="4.10001">
        <ele>197.4</ele>
        <time>2024-05-04T09:29:33Z</time>
      </trkpt>
      <trkpt lat="50.06417" lon="4.10008">
        <ele>197.4</ele>
        <time>2024-05-04T09:29:34Z</time>
      </trkpt>
      <trkpt lat="50.06411" lon="4.10015">
        <ele>197.4</ele>
        <time>2024-05-04T09:29:35Z</time>
      </trkpt>
      <trkpt lat="50.06406" lon="4.10022">
        <ele>197.8</ele>
        <time>2024-05-04T09:29:36Z</time>
      </trkpt>
      <trkpt lat="50.064" lon="4.10029">
        <ele>197.8</ele>
        <time>2024-05-04T09:29:37Z</time>
      </trkpt>
      <trkpt lat="50.06395" lon="4.10035">
        <ele>197.8</ele>
        <time>2024-05-04T09:29:38Z</time>
      </trkpt>
      <trkpt lat="50.06389" lon="4.10042">
        <ele>197.8</ele>
        <time>2024-05-04T09:29:39Z</time>
      </trkpt>
      <trkpt lat="50.06384" lon="4.10049">
        <ele>197.8</ele>
        <time>2024-05-04T09:29:40Z</time>
      </trkpt>
      <trkpt lat="50.06379" lon="4.10056">
        <ele>197.8</ele>
        <time>2024-05-04T09:29:41Z</time>
      </trkpt>
      <trkpt lat="50.06374" lon="4.10064">
        <ele>197.8</ele>
        <time>2024-05-04T09:29:42Z</time>
      </trkpt>
      <trkpt lat="50.06369" lon="4.10072">
        <ele>198</ele>
        <time>2024-05-04T09:29:43Z</time>
      </trkpt>
      <trkpt lat="50.06365" lon="4.1008">
        <ele>198</ele>
        <time>2024-05-04T09:29:44Z</time>
      </trkpt>
      <trkpt lat="50.06362" lon="4.10089">
        <ele>197.8</ele>
        <time>2024-05-04T09:29:45Z</time>
      </trkpt>
      <trkpt lat="50.06358" lon="4.10098">
        <ele>198</ele>
        <time>2024-05-04T09:29:46Z</time>
      </trkpt>
      <trkpt lat="50.06356" lon="4.10108">
        <ele>198</ele>
        <time>2024-05-04T09:29:47Z</time>
      </trkpt>
      <trkpt lat="50.06353" lon="4.10118">
        <ele>197.8</ele>
        <time>2024-05-04T09:29:48Z</time>
      </trkpt>
      <trkpt lat="50.0635" lon="4.10128">
        <ele>198</ele>
        <time>2024-05-04T09:29:49Z</time>
      </trkpt>
      <trkpt lat="50.06348" lon="4.10138">
        <ele>197.8</ele>
        <time>2024-05-04T09:29:50Z</time>
      </trkpt>
      <trkpt lat="50.06345" lon="4.10147">
        <ele>197.8</ele>
        <time>2024-05-04T09:29:51Z</time>
      </trkpt>
      <trkpt lat="50.06341" lon="4.10156">
        <ele>197.8</ele>
        <time>2024-05-04T09:29:52Z</time>
      </trkpt>
      <trkpt lat="50.06337" lon="4.10165">
        <ele>197.6</ele>
        <time>2024-05-04T09:29:53Z</time>
      </trkpt>
      <trkpt lat="50.06333" lon="4.10173">
        <ele>197.8</ele>
        <time>2024-05-04T09:29:54Z</time>
      </trkpt>
      <trkpt lat="50.06328" lon="4.1018">
        <ele>197.8</ele>
        <time>2024-05-04T09:29:55Z</time>
      </trkpt>
      <trkpt lat="50.06323" lon="4.10186">
        <ele>197.8</ele>
        <time>2024-05-04T09:29:56Z</time>
      </trkpt>
      <trkpt lat="50.06317" lon="4.10191">
        <ele>197.8</ele>
        <time>2024-05-04T09:29:57Z</time>
      </trkpt>
      <trkpt lat="50.06312" lon="4.10194">
        <ele>197.8</ele>
        <time>2024-05-04T09:29:58Z</time>
      </trkpt>
      <trkpt lat="50.06305" lon="4.10196">
        <ele>197.8</ele>
        <time>2024-05-04T09:29:59Z</time>
      </trkpt>
      <trkpt lat="50.06299" lon="4.10197">
        <ele>197.8</ele>
        <time>2024-05-04T09:30:00Z</time>
      </trkpt>
      <trkpt lat="50.06293" lon="4.10197">
        <ele>197.8</ele>
        <time>2024-05-04T09:30:01Z</time>
      </trkpt>
      <trkpt lat="50.06287" lon="4.10196">
        <ele>197.8</ele>
        <time>2024-05-04T09:30:02Z</time>
      </trkpt>
      <trkpt lat="50.06282" lon="4.10194">
        <ele>198</ele>
        <time>2024-05-04T09:30:03Z</time>
      </trkpt>
      <trkpt lat="50.06276" lon="4.10191">
        <ele>197.8</ele>
        <time>2024-05-04T09:30:04Z</time>
      </trkpt>
      <trkpt lat="50.06271" lon="4.10188">
        <ele>198</ele>
        <time>2024-05-04T09:30:05Z</time>
      </trkpt>
      <trkpt lat="50.06266" lon="4.10184">
        <ele>197.8</ele>
        <time>2024-05-04T09:30:06Z</time>
      </trkpt>
      <trkpt lat="50.06261" lon="4.1018">
        <ele>198</ele>
        <time>2024-05-04T09:30:07Z</time>
      </trkpt>
      <trkpt lat="50.06256" lon="4.10176">
        <ele>198.2</ele>
        <time>2024-05-04T09:30:08Z</time>
      </trkpt>
      <trkpt lat="50.0625" lon="4.10172">
        <ele>198.4</ele>
        <time>2024-05-04T09:30:09Z</time>
      </trkpt>
      <trkpt lat="50.06245" lon="4.10169">
        <ele>198.4</ele>
        <time>2024-05-04T09:30:10Z</time>
      </trkpt>
      <trkpt lat="50.0624" lon="4.10165">
        <ele>198.6</ele>
        <time>2024-05-04T09:30:11Z</time>
      </trkpt>
      <trkpt lat="50.06234" lon="4.10163">
        <ele>199</ele>
        <time>2024-05-04T09:30:12Z</time>
      </trkpt>
      <trkpt lat="50.06228" lon="4.10161">
        <ele>199.2</ele>
        <time>2024-05-04T09:30:13Z</time>
      </trkpt>
      <trkpt lat="50.06223" lon="4.10159">
        <ele>199.2</ele>
        <time>2024-05-04T09:30:14Z</time>
      </trkpt>
      <trkpt lat="50.06217" lon="4.10158">
        <ele>199.4</ele>
        <time>2024-05-04T09:30:15Z</time>
      </trkpt>
      <trkpt lat="50.06211" lon="4.10157">
        <ele>199.4</ele>
        <time>2024-05-04T09:30:16Z</time>
      </trkpt>
      <trkpt lat="50.06206" lon="4.10156">
        <ele>199.4</ele>
        <time>2024-05-04T09:30:17Z</time>
      </trkpt>
      <trkpt lat="50.062" lon="4.10156">
        <ele>199.6</ele>
        <time>2024-05-04T09:30:18Z</time>
      </trkpt>
      <trkpt lat="50.06194" lon="4.10156">
        <ele>199.4</ele>
        <time>2024-05-04T09:30:19Z</time>
      </trkpt>
      <trkpt lat="50.06189" lon="4.10155">
        <ele>199.6</ele>
        <time>2024-05-04T09:30:20Z</time>
      </trkpt>
      <trkpt lat="50.06183" lon="4.10155">
        <ele>199.6</ele>
        <time>2024-05-04T09:30:21Z</time>
      </trkpt>
      <trkpt lat="50.06178" lon="4.10154">
        <ele>199.8</ele>
        <time>2024-05-04T09:30:22Z</time>
      </trkpt>
      <trkpt lat="50.06172" lon="4.10154">
        <ele>199.8</ele>
        <time>2024-05-04T09:30:23Z</time>
      </trkpt>
      <trkpt lat="50.06167" lon="4.10152">
        <ele>199.8</ele>
        <time>2024-05-04T09:30:24Z</time>
      </trkpt>
      <trkpt lat="50.06162" lon="4.10151">
        <ele>199.6</ele>
        <time>2024-05-04T09:30:25Z</time>
      </trkpt>
      <trkpt lat="50.06157" lon="4.1015">
        <ele>199.8</ele>
        <time>2024-05-04T09:30:26Z</time>
      </trkpt>
      <trkpt lat="50.06152" lon="4.10148">
        <ele>199.6</ele>
        <time>2024-05-04T09:30:27Z</time>
      </trkpt>
      <trkpt lat="50.06146" lon="4.10147">
        <ele>199.8</ele>
        <time>2024-05-04T09:30:28Z</time>
      </trkpt>
      <trkpt lat="50.06141" lon="4.10146">
        <ele>199.6</ele>
        <time>2024-05-04T09:30:29Z</time>
      </trkpt>
      <trkpt lat="50.06136" lon="4.10145">
        <ele>199.8</ele>
        <time>2024-05-04T09:30:30Z</time>
      </trkpt>
      <trkpt lat="50.06131" lon="4.10144">
        <ele>199.6</ele>
        <time>2024-05-04T09:30:31Z</time>
      </trkpt>
      <trkpt lat="50.06126" lon="4.10143">
        <ele>200</ele>
        <time>2024-05-04T09:30:32Z</time>
      </trkpt>
      <trkpt lat="50.0612" lon="4.10142">
        <ele>200</ele>
        <time>2024-05-04T09:30:33Z</time>
      </trkpt>
      <trkpt lat="50.06115" lon="4.10141">
        <ele>199.8</ele>
        <time>2024-05-04T09:30:34Z</time>
      </trkpt>
      <trkpt lat="50.0611" lon="4.10139">
        <ele>200</ele>
        <time>2024-05-04T09:30:35Z</time>
      </trkpt>
      <trkpt lat="50.06105" lon="4.10138">
        <ele>200.2</ele>
        <time>2024-05-04T09:30:36Z</time>
      </trkpt>
      <trkpt lat="50.061" lon="4.10137">
        <ele>200.2</ele>
        <time>2024-05-04T09:30:37Z</time>
      </trkpt>
      <trkpt lat="50.06094" lon="4.10136">
        <ele>200.8</ele>
        <time>2024-05-04T09:30:38Z</time>
      </trkpt>
      <trkpt lat="50.06089" lon="4.10135">
        <ele>201.2</ele>
        <time>2024-05-04T09:30:39Z</time>
      </trkpt>
      <trkpt lat="50.06084" lon="4.10134">
        <ele>201.6</ele>
        <time>2024-05-04T09:30:40Z</time>
      </trkpt>
      <trkpt lat="50.06079" lon="4.10133">
        <ele>201.6</ele>
        <time>2024-05-04T09:30:41Z</time>
      </trkpt>
      <trkpt lat="50.06073" lon="4.10132">
        <ele>201.8</ele>
        <time>2024-05-04T09:30:42Z</time>
      </trkpt>
      <trkpt lat="50.06068" lon="4.10132">
        <ele>201.8</ele>
        <time>2024-05-04T09:30:43Z</time>
      </trkpt>
      <trkpt lat="50.06063" lon="4.10132">
        <ele>202</ele>
        <time>2024-05-04T09:30:44Z</time>
      </trkpt>
      <trkpt lat="50.06058" lon="4.10133">
        <ele>201.8</ele>
        <time>2024-05-04T09:30:45Z</time>
      </trkpt>
      <trkpt lat="50.06053" lon="4.10135">
        <ele>202</ele>
        <time>2024-05-04T09:30:46Z</time>
      </trkpt>
      <trkpt lat="50.06048" lon="4.10137">
        <ele>202</ele>
        <time>2024-05-04T09:30:47Z</time>
      </trkpt>
      <trkpt lat="50.06043" lon="4.1014">
        <ele>202</ele>
        <time>2024-05-04T09:30:48Z</time>
      </trkpt>
      <trkpt lat="50.06038" lon="4.10144">
        <ele>202.2</ele>
        <time>2024-05-04T09:30:49Z</time>
      </trkpt>
      <trkpt lat="50.06033" lon="4.10148">
        <ele>202.4</ele>
        <time>2024-05-04T09:30:50Z</time>
      </trkpt>
      <trkpt lat="50.06029" lon="4.10152">
        <ele>202.4</ele>
        <time>2024-05-04T09:30:51Z</time>
      </trkpt>
      <trkpt lat="50.06025" lon="4.10157">
        <ele>202.4</ele>
        <time>2024-05-04T09:30:52Z</time>
      </trkpt>
      <trkpt lat="50.0602" lon="4.10161">
        <ele>202.6</ele>
        <time>2024-05-04T09:30:53Z</time>
      </trkpt>
      <trkpt lat="50.06015" lon="4.10164">
        <ele>202.6</ele>
        <time>2024-05-04T09:30:54Z</time>
      </trkpt>
      <trkpt lat="50.06011" lon="4.10168">
        <ele>202.6</ele>
        <time>2024-05-04T09:30:55Z</time>
      </trkpt>
      <trkpt lat="50.06006" lon="4.1017">
        <ele>202.8</ele>
        <time>2024-05-04T09:30:56Z</time>
      </trkpt>
      <trkpt lat="50.06001" lon="4.10171">
        <ele>203</ele>
        <time>2024-05-04T09:30:57Z</time>
      </trkpt>
      <trkpt lat="50.05996" lon="4.10171">
        <ele>202.8</ele>
        <time>2024-05-04T09:30:58Z</time>
      </trkpt>
      <trkpt lat="50.05992" lon="4.1017">
        <ele>203</ele>
        <time>2024-05-04T09:30:59Z</time>
      </trkpt>
      <trkpt lat="50.05987" lon="4.10169">
        <ele>202.8</ele>
        <time>2024-05-04T09:31:00Z</time>
      </trkpt>
      <trkpt lat="50.05983" lon="4.10167">
        <ele>203</ele>
        <time>2024-05-04T09:31:01Z</time>
      </trkpt>
      <trkpt lat="50.05979" lon="4.10165">
        <ele>203</ele>
        <time>2024-05-04T09:31:02Z</time>
      </trkpt>
      <trkpt lat="50.05976" lon="4.10162">
        <ele>203.2</ele>
        <time>2024-05-04T09:31:03Z</time>
      </trkpt>
      <trkpt lat="50.05972" lon="4.1016">
        <ele>203.2</ele>
        <time>2024-05-04T09:31:04Z</time>
      </trkpt>
      <trkpt lat="50.05968" lon="4.10159">
        <ele>203.4</ele>
        <time>2024-05-04T09:31:05Z</time>
      </trkpt>
      <trkpt lat="50.05965" lon="4.10161">
        <ele>203.6</ele>
        <time>2024-05-04T09:31:06Z</time>
      </trkpt>
      <trkpt lat="50.05963" lon="4.10165">
        <ele>203.8</ele>
        <time>2024-05-04T09:31:07Z</time>
      </trkpt>
      <trkpt lat="50.05962" lon="4.10169">
        <ele>204.2</ele>
        <time>2024-05-04T09:31:08Z</time>
      </trkpt>
      <trkpt lat="50.05962" lon="4.10175">
        <ele>204.2</ele>
        <time>2024-05-04T09:31:09Z</time>
      </trkpt>
      <trkpt lat="50.05962" lon="4.1018">
        <ele>204.4</ele>
        <time>2024-05-04T09:31:10Z</time>
      </trkpt>
      <trkpt lat="50.05962" lon="4.10186">
        <ele>205</ele>
        <time>2024-05-04T09:31:11Z</time>
      </trkpt>
      <trkpt lat="50.05962" lon="4.10191">
        <ele>205.2</ele>
        <time>2024-05-04T09:31:12Z</time>
      </trkpt>
      <trkpt lat="50.05962" lon="4.10196">
        <ele>205.8</ele>
        <time>2024-05-04T09:31:13Z</time>
      </trkpt>
      <trkpt lat="50.05962" lon="4.10201">
        <ele>206.2</ele>
        <time>2024-05-04T09:31:14Z</time>
      </trkpt>
      <trkpt lat="50.05963" lon="4.10205">
        <ele>206.2</ele>
        <time>2024-05-04T09:31:15Z</time>
      </trkpt>
      <trkpt lat="50.05962" lon="4.1021">
        <ele>206.4</ele>
        <time>2024-05-04T09:31:16Z</time>
      </trkpt>
      <trkpt lat="50.05962" lon="4.10214">
        <ele>206.6</ele>
        <time>2024-05-04T09:31:17Z</time>
      </trkpt>
      <trkpt lat="50.05962" lon="4.10219">
        <ele>207</ele>
        <time>2024-05-04T09:31:18Z</time>
      </trkpt>
      <trkpt lat="50.05962" lon="4.10223">
        <ele>207.2</ele>
        <time>2024-05-04T09:31:19Z</time>
      </trkpt>
      <trkpt lat="50.05962" lon="4.10227">
        <ele>207.2</ele>
        <time>2024-05-04T09:31:20Z</time>
      </trkpt>
      <trkpt lat="50.05963" lon="4.10232">
        <ele>207.8</ele>
        <time>2024-05-04T09:31:21Z</time>
      </trkpt>
      <trkpt lat="50.05963" lon="4.10236">
        <ele>208.4</ele>
        <time>2024-05-04T09:31:22Z</time>
      </trkpt>
      <trkpt lat="50.05964" lon="4.10239">
        <ele>208.6</ele>
        <time>2024-05-04T09:31:23Z</time>
      </trkpt>
      <trkpt lat="50.05964" lon="4.10243">
        <ele>209.2</ele>
        <time>2024-05-04T09:31:24Z</time>
      </trkpt>
      <trkpt lat="50.05965" lon="4.10246">
        <ele>209.6</ele>
        <time>2024-05-04T09:31:25Z</time>
      </trkpt>
      <trkpt lat="50.05965" lon="4.1025">
        <ele>210</ele>
        <time>2024-05-04T09:31:26Z</time>
      </trkpt>
      <trkpt lat="50.05966" lon="4.10252">
        <ele>210</ele>
        <time>2024-05-04T09:31:27Z</time>
      </trkpt>
      <trkpt lat="50.05967" lon="4.10256">
        <ele>210.4</ele>
        <time>2024-05-04T09:31:28Z</time>
      </trkpt>
      <trkpt lat="50.05969" lon="4.10258">
        <ele>210.6</ele>
        <time>2024-05-04T09:31:29Z</time>
      </trkpt>
      <trkpt lat="50.05969" lon="4.10262">
        <ele>210.8</ele>
        <time>2024-05-04T09:31:30Z</time>
      </trkpt>
      <trkpt lat="50.0597" lon="4.10266">
        <ele>211.4</ele>
        <time>2024-05-04T09:31:31Z</time>
      </trkpt>
      <trkpt lat="50.0597" lon="4.10271">
        <ele>211.8</ele>
        <time>2024-05-04T09:31:32Z</time>
      </trkpt>
      <trkpt lat="50.0597" lon="4.10275">
        <ele>212.2</ele>
        <time>2024-05-04T09:31:33Z</time>
      </trkpt>
      <trkpt lat="50.0597" lon="4.1028">
        <ele>212.4</ele>
        <time>2024-05-04T09:31:34Z</time>
      </trkpt>
      <trkpt lat="50.0597" lon="4.10284">
        <ele>212.6</ele>
        <time>2024-05-04T09:31:35Z</time>
      </trkpt>
      <trkpt lat="50.0597" lon="4.10289">
        <ele>213</ele>
        <time>2024-05-04T09:31:36Z</time>
      </trkpt>
      <trkpt lat="50.0597" lon="4.10293">
        <ele>213.2</ele>
        <time>2024-05-04T09:31:37Z</time>
      </trkpt>
      <trkpt lat="50.0597" lon="4.10298">
        <ele>213.6</ele>
        <time>2024-05-04T09:31:38Z</time>
      </trkpt>
      <trkpt lat="50.0597" lon="4.10302">
        <ele>213.8</ele>
        <time>2024-05-04T09:31:39Z</time>
      </trkpt>
      <trkpt lat="50.0597" lon="4.10306">
        <ele>214.2</ele>
        <time>2024-05-04T09:31:40Z</time>
      </trkpt>
      <trkpt lat="50.0597" lon="4.1031">
        <ele>214.4</ele>
        <time>2024-05-04T09:31:41Z</time>
      </trkpt>
      <trkpt lat="50.05969" lon="4.10314">
        <ele>214.6</ele>
        <time>2024-05-04T09:31:42Z</time>
      </trkpt>
      <trkpt lat="50.05969" lon="4.10318">
        <ele>214.6</ele>
        <time>2024-05-04T09:31:43Z</time>
      </trkpt>
      <trkpt lat="50.05969" lon="4.10323">
        <ele>215</ele>
        <time>2024-05-04T09:31:44Z</time>
      </trkpt>
      <trkpt lat="50.05968" lon="4.10327">
        <ele>215</ele>
        <time>2024-05-04T09:31:45Z</time>
      </trkpt>
      <trkpt lat="50.05968" lon="4.10331">
        <ele>215.4</ele>
        <time>2024-05-04T09:31:46Z</time>
      </trkpt>
      <trkpt lat="50.05968" lon="4.10336">
        <ele>215.6</ele>
        <time>2024-05-04T09:31:47Z</time>
      </trkpt>
      <trkpt lat="50.05968" lon="4.1034">
        <ele>216</ele>
        <time>2024-05-04T09:31:48Z</time>
      </trkpt>
      <trkpt lat="50.05968" lon="4.10344">
        <ele>216.4</ele>
        <time>2024-05-04T09:31:49Z</time>
      </trkpt>
      <trkpt lat="50.05968" lon="4.10348">
        <ele>216.8</ele>
        <time>2024-05-04T09:31:50Z</time>
      </trkpt>
      <trkpt lat="50.05968" lon="4.10352">
        <ele>217.2</ele>
        <time>2024-05-04T09:31:51Z</time>
      </trkpt>
      <trkpt lat="50.05968" lon="4.10355">
        <ele>217.4</ele>
        <time>2024-05-04T09:31:52Z</time>
      </trkpt>
      <trkpt lat="50.05967" lon="4.10358">
        <ele>217.6</ele>
        <time>2024-05-04T09:31:53Z</time>
      </trkpt>
      <trkpt lat="50.05967" lon="4.10362">
        <ele>217.6</ele>
        <time>2024-05-04T09:31:54Z</time>
      </trkpt>
      <trkpt lat="50.05967" lon="4.10367">
        <ele>218</ele>
        <time>2024-05-04T09:31:55Z</time>
      </trkpt>
      <trkpt lat="50.05966" lon="4.10372">
        <ele>218</ele>
        <time>2024-05-04T09:31:56Z</time>
      </trkpt>
      <trkpt lat="50.05965" lon="4.10376">
        <ele>218.4</ele>
        <time>2024-05-04T09:31:57Z</time>
      </trkpt>
      <trkpt lat="50.05964" lon="4.10381">
        <ele>218.6</ele>
        <time>2024-05-04T09:31:58Z</time>
      </trkpt>
      <trkpt lat="50.05964" lon="4.10385">
        <ele>219</ele>
        <time>2024-05-04T09:31:59Z</time>
      </trkpt>
      <trkpt lat="50.05963" lon="4.10389">
        <ele>219</ele>
        <time>2024-05-04T09:32:00Z</time>
      </trkpt>
      <trkpt lat="50.05962" lon="4.10393">
        <ele>219.2</ele>
        <time>2024-05-04T09:32:01Z</time>
      </trkpt>
      <trkpt lat="50.05962" lon="4.10396">
        <ele>219.4</ele>
        <time>2024-05-04T09:32:02Z</time>
      </trkpt>
      <trkpt lat="50.05962" lon="4.104">
        <ele>219.8</ele>
        <time>2024-05-04T09:32:03Z</time>
      </trkpt>
      <trkpt lat="50.05962" lon="4.10404">
        <ele>219.8</ele>
        <time>2024-05-04T09:32:04Z</time>
      </trkpt>
      <trkpt lat="50.05964" lon="4.10407">
        <ele>220</ele>
        <time>2024-05-04T09:32:05Z</time>
      </trkpt>
      <trkpt lat="50.05964" lon="4.10411">
        <ele>220.4</ele>
        <time>2024-05-04T09:32:06Z</time>
      </trkpt>
      <trkpt lat="50.05965" lon="4.10415">
        <ele>220.8</ele>
        <time>2024-05-04T09:32:07Z</time>
      </trkpt>
      <trkpt lat="50.05965" lon="4.10419">
        <ele>220.8</ele>
        <time>2024-05-04T09:32:08Z</time>
      </trkpt>
      <trkpt lat="50.05964" lon="4.10424">
        <ele>220.8</ele>
        <time>2024-05-04T09:32:09Z</time>
      </trkpt>
      <trkpt lat="50.05964" lon="4.10428">
        <ele>221.2</ele>
        <time>2024-05-04T09:32:10Z</time>
      </trkpt>
      <trkpt lat="50.05963" lon="4.10433">
        <ele>221.2</ele>
        <time>2024-05-04T09:32:11Z</time>
      </trkpt>
      <trkpt lat="50.05963" lon="4.10435">
        <ele>221.8</ele>
        <time>2024-05-04T09:32:12Z</time>
      </trkpt>
      <trkpt lat="50.05962" lon="4.10438">
        <ele>222.2</ele>
        <time>2024-05-04T09:32:13Z</time>
      </trkpt>
      <trkpt lat="50.0596" lon="4.1044">
        <ele>222.6</ele>
        <time>2024-05-04T09:32:14Z</time>
      </trkpt>
      <trkpt lat="50.05958" lon="4.10442">
        <ele>222.8</ele>
        <time>2024-05-04T09:32:15Z</time>
      </trkpt>
      <trkpt lat="50.05956" lon="4.10445">
        <ele>223.2</ele>
        <time>2024-05-04T09:32:16Z</time>
      </trkpt>
      <trkpt lat="50.05954" lon="4.10448">
        <ele>223.4</ele>
        <time>2024-05-04T09:32:17Z</time>
      </trkpt>
      <trkpt lat="50.05952" lon="4.10451">
        <ele>223.6</ele>
        <time>2024-05-04T09:32:18Z</time>
      </trkpt>
      <trkpt lat="50.0595" lon="4.10453">
        <ele>223.6</ele>
        <time>2024-05-04T09:32:19Z</time>
      </trkpt>
      <trkpt lat="50.05948" lon="4.10456">
        <ele>223.6</ele>
        <time>2024-05-04T09:32:20Z</time>
      </trkpt>
      <trkpt lat="50.05946" lon="4.10459">
        <ele>223.6</ele>
        <time>2024-05-04T09:32:21Z</time>
      </trkpt>
      <trkpt lat="50.05944" lon="4.10462">
        <ele>223.6</ele>
        <time>2024-05-04T09:32:22Z</time>
      </trkpt>
      <trkpt lat="50.05943" lon="4.10465">
        <ele>223.8</ele>
        <time>2024-05-04T09:32:23Z</time>
      </trkpt>
      <trkpt lat="50.05941" lon="4.10467">
        <ele>224</ele>
        <time>2024-05-04T09:32:24Z</time>
      </trkpt>
      <trkpt lat="50.05938" lon="4.1047">
        <ele>224</ele>
        <time>2024-05-04T09:32:25Z</time>
      </trkpt>
      <trkpt lat="50.05936" lon="4.10473">
        <ele>224.4</ele>
        <time>2024-05-04T09:32:26Z</time>
      </trkpt>
      <trkpt lat="50.05934" lon="4.10476">
        <ele>224.6</ele>
        <time>2024-05-04T09:32:27Z</time>
      </trkpt>
      <trkpt lat="50.05932" lon="4.10478">
        <ele>225.2</ele>
        <time>2024-05-04T09:32:28Z</time>
      </trkpt>
      <trkpt lat="50.05929" lon="4.10481">
        <ele>225.6</ele>
        <time>2024-05-04T09:32:29Z</time>
      </trkpt>
      <trkpt lat="50.05927" lon="4.10484">
        <ele>226</ele>
        <time>2024-05-04T09:32:30Z</time>
      </trkpt>
      <trkpt lat="50.05925" lon="4.10487">
        <ele>226.2</ele>
        <time>2024-05-04T09:32:31Z</time>
      </trkpt>
      <trkpt lat="50.05923" lon="4.10491">
        <ele>226.4</ele>
        <time>2024-05-04T09:32:32Z</time>
      </trkpt>
      <trkpt lat="50.05921" lon="4.10496">
        <ele>226.4</ele>
        <time>2024-05-04T09:32:33Z</time>
      </trkpt>
      <trkpt lat="50.05919" lon="4.10502">
        <ele>226.4</ele>
        <time>2024-05-04T09:32:34Z</time>
      </trkpt>
      <trkpt lat="50.05918" lon="4.10508">
        <ele>226.8</ele>
        <time>2024-05-04T09:32:35Z</time>
      </trkpt>
      <trkpt lat="50.05917" lon="4.10514">
        <ele>226.8</ele>
        <time>2024-05-04T09:32:36Z</time>
      </trkpt>
      <trkpt lat="50.05916" lon="4.10521">
        <ele>226.8</ele>
        <time>2024-05-04T09:32:37Z</time>
      </trkpt>
      <trkpt lat="50.05915" lon="4.10527">
        <ele>226.8</ele>
        <time>2024-05-04T09:32:38Z</time>
      </trkpt>
      <trkpt lat="50.05914" lon="4.10534">
        <ele>227</ele>
        <time>2024-05-04T09:32:39Z</time>
      </trkpt>
      <trkpt lat="50.05913" lon="4.10542">
        <ele>227</ele>
        <time>2024-05-04T09:32:40Z</time>
      </trkpt>
      <trkpt lat="50.05913" lon="4.10549">
        <ele>227.2</ele>
        <time>2024-05-04T09:32:41Z</time>
      </trkpt>
      <trkpt lat="50.05913" lon="4.10556">
        <ele>227.2</ele>
        <time>2024-05-04T09:32:42Z</time>
      </trkpt>
      <trkpt lat="50.05913" lon="4.10563">
        <ele>227.4</ele>
        <time>2024-05-04T09:32:43Z</time>
      </trkpt>
      <trkpt lat="50.05914" lon="4.1057">
        <ele>227.6</ele>
        <time>2024-05-04T09:32:44Z</time>
      </trkpt>
      <trkpt lat="50.05915" lon="4.10578">
        <ele>227.6</ele>
        <time>2024-05-04T09:32:45Z</time>
      </trkpt>
      <trkpt lat="50.05916" lon="4.10585">
        <ele>227.8</ele>
        <time>2024-05-04T09:32:46Z</time>
      </trkpt>
      <trkpt lat="50.05917" lon="4.10592">
        <ele>227.8</ele>
        <time>2024-05-04T09:32:47Z</time>
      </trkpt>
      <trkpt lat="50.05918" lon="4.106">
        <ele>227.8</ele>
        <time>2024-05-04T09:32:48Z</time>
      </trkpt>
      <trkpt lat="50.05919" lon="4.10607">
        <ele>227.8</ele>
        <time>2024-05-04T09:32:49Z</time>
      </trkpt>
      <trkpt lat="50.0592" lon="4.10614">
        <ele>227.6</ele>
        <time>2024-05-04T09:32:50Z</time>
      </trkpt>
      <trkpt lat="50.05921" lon="4.10621">
        <ele>227.6</ele>
        <time>2024-05-04T09:32:51Z</time>
      </trkpt>
      <trkpt lat="50.05921" lon="4.10628">
        <ele>227.8</ele>
        <time>2024-05-04T09:32:52Z</time>
      </trkpt>
      <trkpt lat="50.05922" lon="4.10635">
        <ele>228</ele>
        <time>2024-05-04T09:32:53Z</time>
      </trkpt>
      <trkpt lat="50.05923" lon="4.10643">
        <ele>228</ele>
        <time>2024-05-04T09:32:54Z</time>
      </trkpt>
      <trkpt lat="50.05924" lon="4.1065">
        <ele>228.2</ele>
        <time>2024-05-04T09:32:55Z</time>
      </trkpt>
      <trkpt lat="50.05924" lon="4.10657">
        <ele>228.2</ele>
        <time>2024-05-04T09:32:56Z</time>
      </trkpt>
      <trkpt lat="50.05925" lon="4.10664">
        <ele>228</ele>
        <time>2024-05-04T09:32:57Z</time>
      </trkpt>
      <trkpt lat="50.05925" lon="4.10672">
        <ele>228</ele>
        <time>2024-05-04T09:32:58Z</time>
      </trkpt>
      <trkpt lat="50.05925" lon="4.10679">
        <ele>228.2</ele>
        <time>2024-05-04T09:32:59Z</time>
      </trkpt>
      <trkpt lat="50.05925" lon="4.10686">
        <ele>228.2</ele>
        <time>2024-05-04T09:33:00Z</time>
      </trkpt>
      <trkpt lat="50.05925" lon="4.10692">
        <ele>228.4</ele>
        <time>2024-05-04T09:33:01Z</time>
      </trkpt>
      <trkpt lat="50.05924" lon="4.10699">
        <ele>228.4</ele>
        <time>2024-05-04T09:33:02Z</time>
      </trkpt>
      <trkpt lat="50.05924" lon="4.10706">
        <ele>228.2</ele>
        <time>2024-05-04T09:33:03Z</time>
      </trkpt>
      <trkpt lat="50.05924" lon="4.10713">
        <ele>228.4</ele>
        <time>2024-05-04T09:33:04Z</time>
      </trkpt>
      <trkpt lat="50.05923" lon="4.10719">
        <ele>228.4</ele>
        <time>2024-05-04T09:33:05Z</time>
      </trkpt>
      <trkpt lat="50.05923" lon="4.10726">
        <ele>228.4</ele>
        <time>2024-05-04T09:33:06Z</time>
      </trkpt>
      <trkpt lat="50.05922" lon="4.10732">
        <ele>228.4</ele>
        <time>2024-05-04T09:33:07Z</time>
      </trkpt>
      <trkpt lat="50.05921" lon="4.10739">
        <ele>228.4</ele>
        <time>2024-05-04T09:33:08Z</time>
      </trkpt>
      <trkpt lat="50.05919" lon="4.10745">
        <ele>228.6</ele>
        <time>2024-05-04T09:33:09Z</time>
      </trkpt>
      <trkpt lat="50.05918" lon="4.10751">
        <ele>228.6</ele>
        <time>2024-05-04T09:33:10Z</time>
      </trkpt>
      <trkpt lat="50.05917" lon="4.10757">
        <ele>228.8</ele>
        <time>2024-05-04T09:33:11Z</time>
      </trkpt>
      <trkpt lat="50.05916" lon="4.10764">
        <ele>229</ele>
        <time>2024-05-04T09:33:12Z</time>
      </trkpt>
      <trkpt lat="50.05915" lon="4.1077">
        <ele>229.2</ele>
        <time>2024-05-04T09:33:13Z</time>
      </trkpt>
      <trkpt lat="50.05913" lon="4.10777">
        <ele>229.4</ele>
        <time>2024-05-04T09:33:14Z</time>
      </trkpt>
      <trkpt lat="50.05912" lon="4.10783">
        <ele>229.6</ele>
        <time>2024-05-04T09:33:15Z</time>
      </trkpt>
      <trkpt lat="50.05911" lon="4.1079">
        <ele>229.6</ele>
        <time>2024-05-04T09:33:16Z</time>
      </trkpt>
      <trkpt lat="50.05909" lon="4.10797">
        <ele>229.8</ele>
        <time>2024-05-04T09:33:17Z</time>
      </trkpt>
      <trkpt lat="50.05908" lon="4.10803">
        <ele>230</ele>
        <time>2024-05-04T09:33:18Z</time>
      </trkpt>
      <trkpt lat="50.05907" lon="4.1081">
        <ele>230</ele>
        <time>2024-05-04T09:33:19Z</time>
      </trkpt>
      <trkpt lat="50.05906" lon="4.10816">
        <ele>230.2</ele>
        <time>2024-05-04T09:33:20Z</time>
      </trkpt>
      <trkpt lat="50.05906" lon="4.10822">
        <ele>230.6</ele>
        <time>2024-05-04T09:33:21Z</time>
      </trkpt>
      <trkpt lat="50.05905" lon="4.10829">
        <ele>230.8</ele>
        <time>2024-05-04T09:33:22Z</time>
      </trkpt>
      <trkpt lat="50.05904" lon="4.10835">
        <ele>231</ele>
        <time>2024-05-04T09:33:23Z</time>
      </trkpt>
      <trkpt lat="50.05904" lon="4.10841">
        <ele>231.2</ele>
        <time>2024-05-04T09:33:24Z</time>
      </trkpt>
      <trkpt lat="50.05903" lon="4.10848">
        <ele>231.2</ele>
        <time>2024-05-04T09:33:25Z</time>
      </trkpt>
      <trkpt lat="50.05902" lon="4.10854">
        <ele>231.2</ele>
        <time>2024-05-04T09:33:26Z</time>
      </trkpt>
      <trkpt lat="50.05902" lon="4.10861">
        <ele>231.4</ele>
        <time>2024-05-04T09:33:27Z</time>
      </trkpt>
      <trkpt lat="50.05901" lon="4.10868">
        <ele>231.4</ele>
        <time>2024-05-04T09:33:28Z</time>
      </trkpt>
      <trkpt lat="50.059" lon="4.10874">
        <ele>231.6</ele>
        <time>2024-05-04T09:33:29Z</time>
      </trkpt>
      <trkpt lat="50.059" lon="4.10881">
        <ele>231.8</ele>
        <time>2024-05-04T09:33:30Z</time>
      </trkpt>
      <trkpt lat="50.059" lon="4.10887">
        <ele>232</ele>
        <time>2024-05-04T09:33:31Z</time>
      </trkpt>
      <trkpt lat="50.059" lon="4.10894">
        <ele>232.2</ele>
        <time>2024-05-04T09:33:32Z</time>
      </trkpt>
      <trkpt lat="50.05901" lon="4.10901">
        <ele>232.4</ele>
        <time>2024-05-04T09:33:33Z</time>
      </trkpt>
      <trkpt lat="50.05901" lon="4.10907">
        <ele>232.8</ele>
        <time>2024-05-04T09:33:34Z</time>
      </trkpt>
      <trkpt lat="50.05902" lon="4.10914">
        <ele>233</ele>
        <time>2024-05-04T09:33:35Z</time>
      </trkpt>
      <trkpt lat="50.05903" lon="4.1092">
        <ele>233</ele>
        <time>2024-05-04T09:33:36Z</time>
      </trkpt>
      <trkpt lat="50.05902" lon="4.10927">
        <ele>233</ele>
        <time>2024-05-04T09:33:37Z</time>
      </trkpt>
      <trkpt lat="50.059" lon="4.10932">
        <ele>233</ele>
        <time>2024-05-04T09:33:38Z</time>
      </trkpt>
      <trkpt lat="50.05897" lon="4.10937">
        <ele>233.2</ele>
        <time>2024-05-04T09:33:39Z</time>
      </trkpt>
      <trkpt lat="50.05893" lon="4.10941">
        <ele>233.2</ele>
        <time>2024-05-04T09:33:40Z</time>
      </trkpt>
      <trkpt lat="50.0589" lon="4.10945">
        <ele>233.4</ele>
        <time>2024-05-04T09:33:41Z</time>
      </trkpt>
      <trkpt lat="50.05887" lon="4.10949">
        <ele>233.6</ele>
        <time>2024-05-04T09:33:42Z</time>
      </trkpt>
      <trkpt lat="50.05883" lon="4.10953">
        <ele>233.6</ele>
        <time>2024-05-04T09:33:43Z</time>
      </trkpt>
      <trkpt lat="50.0588" lon="4.10957">
        <ele>233.8</ele>
        <time>2024-05-04T09:33:44Z</time>
      </trkpt>
      <trkpt lat="50.05876" lon="4.10961">
        <ele>234</ele>
        <time>2024-05-04T09:33:45Z</time>
      </trkpt>
      <trkpt lat="50.05873" lon="4.10965">
        <ele>234.2</ele>
        <time>2024-05-04T09:33:46Z</time>
      </trkpt>
      <trkpt lat="50.0587" lon="4.10969">
        <ele>234.2</ele>
        <time>2024-05-04T09:33:47Z</time>
      </trkpt>
      <trkpt lat="50.05866" lon="4.10973">
        <ele>234.4</ele>
        <time>2024-05-04T09:33:48Z</time>
      </trkpt>
      <trkpt lat="50.05863" lon="4.10978">
        <ele>234.4</ele>
        <time>2024-05-04T09:33:49Z</time>
      </trkpt>
      <trkpt lat="50.05859" lon="4.10982">
        <ele>234.4</ele>
        <time>2024-05-04T09:33:50Z</time>
      </trkpt>
      <trkpt lat="50.05856" lon="4.10986">
        <ele>234.6</ele>
        <time>2024-05-04T09:33:51Z</time>
      </trkpt>
      <trkpt lat="50.05853" lon="4.1099">
        <ele>234.8</ele>
        <time>2024-05-04T09:33:52Z</time>
      </trkpt>
      <trkpt lat="50.05849" lon="4.10994">
        <ele>234.8</ele>
        <time>2024-05-04T09:33:53Z</time>
      </trkpt>
      <trkpt lat="50.05846" lon="4.10998">
        <ele>235.2</ele>
        <time>2024-05-04T09:33:54Z</time>
      </trkpt>
      <trkpt lat="50.05843" lon="4.11002">
        <ele>235.4</ele>
        <time>2024-05-04T09:33:55Z</time>
      </trkpt>
      <trkpt lat="50.05839" lon="4.11006">
        <ele>235.4</ele>
        <time>2024-05-04T09:33:56Z</time>
      </trkpt>
      <trkpt lat="50.05835" lon="4.1101">
        <ele>235.6</ele>
        <time>2024-05-04T09:33:57Z</time>
      </trkpt>
      <trkpt lat="50.05832" lon="4.11014">
        <ele>235.8</ele>
        <time>2024-05-04T09:33:58Z</time>
      </trkpt>
      <trkpt lat="50.05828" lon="4.11019">
        <ele>236</ele>
        <time>2024-05-04T09:33:59Z</time>
      </trkpt>
      <trkpt lat="50.05825" lon="4.11023">
        <ele>236</ele>
        <time>2024-05-04T09:34:00Z</time>
      </trkpt>
      <trkpt lat="50.05821" lon="4.11027">
        <ele>236</ele>
        <time>2024-05-04T09:34:01Z</time>
      </trkpt>
      <trkpt lat="50.05817" lon="4.11032">
        <ele>236.2</ele>
        <time>2024-05-04T09:34:02Z</time>
      </trkpt>
      <trkpt lat="50.05814" lon="4.11036">
        <ele>236.2</ele>
        <time>2024-05-04T09:34:03Z</time>
      </trkpt>
      <trkpt lat="50.0581" lon="4.1104">
        <ele>236.2</ele>
        <time>2024-05-04T09:34:04Z</time>
      </trkpt>
      <trkpt lat="50.05807" lon="4.11045">
        <ele>236.4</ele>
        <time>2024-05-04T09:34:05Z</time>
      </trkpt>
      <trkpt lat="50.05803" lon="4.11049">
        <ele>236.6</ele>
        <time>2024-05-04T09:34:06Z</time>
      </trkpt>
      <trkpt lat="50.05799" lon="4.11053">
        <ele>236.6</ele>
        <time>2024-05-04T09:34:07Z</time>
      </trkpt>
      <trkpt lat="50.05796" lon="4.11058">
        <ele>236.8</ele>
        <time>2024-05-04T09:34:08Z</time>
      </trkpt>
      <trkpt lat="50.05792" lon="4.11062">
        <ele>237</ele>
        <time>2024-05-04T09:34:09Z</time>
      </trkpt>
      <trkpt lat="50.05789" lon="4.11067">
        <ele>237.2</ele>
        <time>2024-05-04T09:34:10Z</time>
      </trkpt>
      <trkpt lat="50.05785" lon="4.11071">
        <ele>237.2</ele>
        <time>2024-05-04T09:34:11Z</time>
      </trkpt>
      <trkpt lat="50.05783" lon="4.11076">
        <ele>237.2</ele>
        <time>2024-05-04T09:34:12Z</time>
      </trkpt>
      <trkpt lat="50.0578" lon="4.1108">
        <ele>237.4</ele>
        <time>2024-05-04T09:34:13Z</time>
      </trkpt>
      <trkpt lat="50.05779" lon="4.11084">
        <ele>237.6</ele>
        <time>2024-05-04T09:34:14Z</time>
      </trkpt>
      <trkpt lat="50.05779" lon="4.11088">
        <ele>237.6</ele>
        <time>2024-05-04T09:34:15Z</time>
      </trkpt>
      <trkpt lat="50.05779" lon="4.11092">
        <ele>237.8</ele>
        <time>2024-05-04T09:34:16Z</time>
      </trkpt>
      <trkpt lat="50.05779" lon="4.11095">
        <ele>237.6</ele>
        <time>2024-05-04T09:34:17Z</time>
      </trkpt>
      <trkpt lat="50.05781" lon="4.11097">
        <ele>237.6</ele>
        <time>2024-05-04T09:34:18Z</time>
      </trkpt>
      <trkpt lat="50.05782" lon="4.11097">
        <ele>237.8</ele>
        <time>2024-05-04T09:34:19Z</time>
      </trkpt>
      <trkpt lat="50.05782" lon="4.11096">
        <ele>237.8</ele>
        <time>2024-05-04T09:34:20Z</time>
      </trkpt>
      <trkpt lat="50.05783" lon="4.11094">
        <ele>237.8</ele>
        <time>2024-05-04T09:34:21Z</time>
      </trkpt>
      <trkpt lat="50.05781" lon="4.11091">
        <ele>237.8</ele>
        <time>2024-05-04T09:34:22Z</time>
      </trkpt>
      <trkpt lat="50.0578" lon="4.11087">
        <ele>238</ele>
        <time>2024-05-04T09:34:23Z</time>
      </trkpt>
      <trkpt lat="50.05777" lon="4.11082">
        <ele>238</ele>
        <time>2024-05-04T09:34:24Z</time>
      </trkpt>
      <trkpt lat="50.05775" lon="4.11078">
        <ele>238</ele>
        <time>2024-05-04T09:34:25Z</time>
      </trkpt>
      <trkpt lat="50.05772" lon="4.11072">
        <ele>238</ele>
        <time>2024-05-04T09:34:26Z</time>
      </trkpt>
      <trkpt lat="50.05769" lon="4.11067">
        <ele>238.2</ele>
        <time>2024-05-04T09:34:27Z</time>
      </trkpt>
      <trkpt lat="50.05766" lon="4.11061">
        <ele>238.2</ele>
        <time>2024-05-04T09:34:28Z</time>
      </trkpt>
      <trkpt lat="50.05763" lon="4.11054">
        <ele>238.2</ele>
        <time>2024-05-04T09:34:29Z</time>
      </trkpt>
      <trkpt lat="50.0576" lon="4.11048">
        <ele>238</ele>
        <time>2024-05-04T09:34:30Z</time>
      </trkpt>
      <trkpt lat="50.05756" lon="4.11041">
        <ele>238</ele>
        <time>2024-05-04T09:34:31Z</time>
      </trkpt>
      <trkpt lat="50.05753" lon="4.11033">
        <ele>238.2</ele>
        <time>2024-05-04T09:34:32Z</time>
      </trkpt>
      <trkpt lat="50.05749" lon="4.11026">
        <ele>238</ele>
        <time>2024-05-04T09:34:33Z</time>
      </trkpt>
      <trkpt lat="50.05746" lon="4.11018">
        <ele>238</ele>
        <time>2024-05-04T09:34:34Z</time>
      </trkpt>
      <trkpt lat="50.05742" lon="4.11011">
        <ele>238</ele>
        <time>2024-05-04T09:34:35Z</time>
      </trkpt>
      <trkpt lat="50.05738" lon="4.11003">
        <ele>237.8</ele>
        <time>2024-05-04T09:34:36Z</time>
      </trkpt>
      <trkpt lat="50.05734" lon="4.10995">
        <ele>237.8</ele>
        <time>2024-05-04T09:34:37Z</time>
      </trkpt>
      <trkpt lat="50.0573" lon="4.10986">
        <ele>237.8</ele>
        <time>2024-05-04T09:34:38Z</time>
      </trkpt>
      <trkpt lat="50.05726" lon="4.10977">
        <ele>237.2</ele>
        <time>2024-05-04T09:34:39Z</time>
      </trkpt>
      <trkpt lat="50.05722" lon="4.10967">
        <ele>236.8</ele>
        <time>2024-05-04T09:34:40Z</time>
      </trkpt>
      <trkpt lat="50.05718" lon="4.10957">
        <ele>235.8</ele>
        <time>2024-05-04T09:34:41Z</time>
      </trkpt>
      <trkpt lat="50.05714" lon="4.10947">
        <ele>235.4</ele>
        <time>2024-05-04T09:34:42Z</time>
      </trkpt>
      <trkpt lat="50.0571" lon="4.10937">
        <ele>235</ele>
        <time>2024-05-04T09:34:43Z</time>
      </trkpt>
      <trkpt lat="50.05705" lon="4.10927">
        <ele>234.2</ele>
        <time>2024-05-04T09:34:44Z</time>
      </trkpt>
      <trkpt lat="50.05701" lon="4.10917">
        <ele>233.8</ele>
        <time>2024-05-04T09:34:45Z</time>
      </trkpt>
      <trkpt lat="50.05696" lon="4.10907">
        <ele>233.4</ele>
        <time>2024-05-04T09:34:46Z</time>
      </trkpt>
      <trkpt lat="50.05692" lon="4.10897">
        <ele>233.2</ele>
        <time>2024-05-04T09:34:47Z</time>
      </trkpt>
      <trkpt lat="50.05688" lon="4.10887">
        <ele>233</ele>
        <time>2024-05-04T09:34:48Z</time>
      </trkpt>
      <trkpt lat="50.05684" lon="4.10878">
        <ele>232.6</ele>
        <time>2024-05-04T09:34:49Z</time>
      </trkpt>
      <trkpt lat="50.0568" lon="4.10868">
        <ele>232.4</ele>
        <time>2024-05-04T09:34:50Z</time>
      </trkpt>
      <trkpt lat="50.05677" lon="4.1086">
        <ele>232</ele>
        <time>2024-05-04T09:34:51Z</time>
      </trkpt>
      <trkpt lat="50.05673" lon="4.10851">
        <ele>231.8</ele>
        <time>2024-05-04T09:34:52Z</time>
      </trkpt>
      <trkpt lat="50.0567" lon="4.10845">
        <ele>231.4</ele>
        <time>2024-05-04T09:34:53Z</time>
      </trkpt>
      <trkpt lat="50.05668" lon="4.10839">
        <ele>231.4</ele>
        <time>2024-05-04T09:34:54Z</time>
      </trkpt>
      <trkpt lat="50.05666" lon="4.10836">
        <ele>231.2</ele>
        <time>2024-05-04T09:34:55Z</time>
      </trkpt>
      <trkpt lat="50.05666" lon="4.10834">
        <ele>231.2</ele>
        <time>2024-05-04T09:34:56Z</time>
      </trkpt>
      <trkpt lat="50.05665" lon="4.10833">
        <ele>231</ele>
        <time>2024-05-04T09:34:57Z</time>
      </trkpt>
      <trkpt lat="50.05665" lon="4.10832">
        <ele>231</ele>
        <time>2024-05-04T09:34:58Z</time>
      </trkpt>
      <trkpt lat="50.05664" lon="4.10831">
        <ele>231</ele>
        <time>2024-05-04T09:34:59Z</time>
      </trkpt>
      <trkpt lat="50.05662" lon="4.1083">
        <ele>230.8</ele>
        <time>2024-05-04T09:35:00Z</time>
      </trkpt>
      <trkpt lat="50.05659" lon="4.10831">
        <ele>230.8</ele>
        <time>2024-05-04T09:35:01Z</time>
      </trkpt>
      <trkpt lat="50.05656" lon="4.10833">
        <ele>230.8</ele>
        <time>2024-05-04T09:35:02Z</time>
      </trkpt>
      <trkpt lat="50.05653" lon="4.10836">
        <ele>230.8</ele>
        <time>2024-05-04T09:35:03Z</time>
      </trkpt>
      <trkpt lat="50.0565" lon="4.10839">
        <ele>230.8</ele>
        <time>2024-05-04T09:35:04Z</time>
      </trkpt>
      <trkpt lat="50.05646" lon="4.10843">
        <ele>230.8</ele>
        <time>2024-05-04T09:35:05Z</time>
      </trkpt>
      <trkpt lat="50.05643" lon="4.10847">
        <ele>230.8</ele>
        <time>2024-05-04T09:35:06Z</time>
      </trkpt>
      <trkpt lat="50.05639" lon="4.10851">
        <ele>230.8</ele>
        <time>2024-05-04T09:35:07Z</time>
      </trkpt>
      <trkpt lat="50.05636" lon="4.10854">
        <ele>231</ele>
        <time>2024-05-04T09:35:08Z</time>
      </trkpt>
      <trkpt lat="50.05632" lon="4.10858">
        <ele>230.8</ele>
        <time>2024-05-04T09:35:09Z</time>
      </trkpt>
      <trkpt lat="50.05629" lon="4.10862">
        <ele>230.8</ele>
        <time>2024-05-04T09:35:10Z</time>
      </trkpt>
      <trkpt lat="50.05625" lon="4.10866">
        <ele>230.8</ele>
        <time>2024-05-04T09:35:11Z</time>
      </trkpt>
      <trkpt lat="50.05621" lon="4.1087">
        <ele>230.8</ele>
        <time>2024-05-04T09:35:12Z</time>
      </trkpt>
      <trkpt lat="50.05618" lon="4.10874">
        <ele>231</ele>
        <time>2024-05-04T09:35:13Z</time>
      </trkpt>
      <trkpt lat="50.05614" lon="4.10878">
        <ele>231</ele>
        <time>2024-05-04T09:35:14Z</time>
      </trkpt>
      <trkpt lat="50.05611" lon="4.10882">
        <ele>231</ele>
        <time>2024-05-04T09:35:15Z</time>
      </trkpt>
      <trkpt lat="50.05607" lon="4.10886">
        <ele>231</ele>
        <time>2024-05-04T09:35:16Z</time>
      </trkpt>
      <trkpt lat="50.05604" lon="4.1089">
        <ele>231.2</ele>
        <time>2024-05-04T09:35:17Z</time>
      </trkpt>
      <trkpt lat="50.056" lon="4.10894">
        <ele>231.4</ele>
        <time>2024-05-04T09:35:18Z</time>
      </trkpt>
      <trkpt lat="50.05596" lon="4.10898">
        <ele>231.4</ele>
        <time>2024-05-04T09:35:19Z</time>
      </trkpt>
      <trkpt lat="50.05593" lon="4.10902">
        <ele>231.6</ele>
        <time>2024-05-04T09:35:20Z</time>
      </trkpt>
      <trkpt lat="50.05589" lon="4.10907">
        <ele>231.6</ele>
        <time>2024-05-04T09:35:21Z</time>
      </trkpt>
      <trkpt lat="50.05586" lon="4.10911">
        <ele>231.8</ele>
        <time>2024-05-04T09:35:22Z</time>
      </trkpt>
      <trkpt lat="50.05582" lon="4.10915">
        <ele>232.2</ele>
        <time>2024-05-04T09:35:23Z</time>
      </trkpt>
      <trkpt lat="50.05578" lon="4.1092">
        <ele>232.2</ele>
        <time>2024-05-04T09:35:24Z</time>
      </trkpt>
      <trkpt lat="50.05574" lon="4.10924">
        <ele>232.4</ele>
        <time>2024-05-04T09:35:25Z</time>
      </trkpt>
      <trkpt lat="50.0557" lon="4.10928">
        <ele>232.6</ele>
        <time>2024-05-04T09:35:26Z</time>
      </trkpt>
      <trkpt lat="50.05566" lon="4.10933">
        <ele>232.8</ele>
        <time>2024-05-04T09:35:27Z</time>
      </trkpt>
      <trkpt lat="50.05562" lon="4.10937">
        <ele>233</ele>
        <time>2024-05-04T09:35:28Z</time>
      </trkpt>
      <trkpt lat="50.05558" lon="4.10942">
        <ele>233.2</ele>
        <time>2024-05-04T09:35:29Z</time>
      </trkpt>
      <trkpt lat="50.05554" lon="4.10946">
        <ele>233.2</ele>
        <time>2024-05-04T09:35:30Z</time>
      </trkpt>
      <trkpt lat="50.0555" lon="4.10951">
        <ele>233.4</ele>
        <time>2024-05-04T09:35:31Z</time>
      </trkpt>
      <trkpt lat="50.05546" lon="4.10955">
        <ele>233.4</ele>
        <time>2024-05-04T09:35:32Z</time>
      </trkpt>
      <trkpt lat="50.05542" lon="4.10959">
        <ele>233.4</ele>
        <time>2024-05-04T09:35:33Z</time>
      </trkpt>
      <trkpt lat="50.05538" lon="4.10963">
        <ele>233.4</ele>
        <time>2024-05-04T09:35:34Z</time>
      </trkpt>
      <trkpt lat="50.05533" lon="4.10967">
        <ele>233.6</ele>
        <time>2024-05-04T09:35:35Z</time>
      </trkpt>
      <trkpt lat="50.05529" lon="4.10971">
        <ele>233.6</ele>
        <time>2024-05-04T09:35:36Z</time>
      </trkpt>
      <trkpt lat="50.05525" lon="4.10974">
        <ele>233.6</ele>
        <time>2024-05-04T09:35:37Z</time>
      </trkpt>
      <trkpt lat="50.05521" lon="4.10978">
        <ele>233.6</ele>
        <time>2024-05-04T09:35:38Z</time>
      </trkpt>
      <trkpt lat="50.05517" lon="4.10982">
        <ele>233.6</ele>
        <time>2024-05-04T09:35:39Z</time>
      </trkpt>
      <trkpt lat="50.05512" lon="4.10986">
        <ele>233.6</ele>
        <time>2024-05-04T09:35:40Z</time>
      </trkpt>
      <trkpt lat="50.05508" lon="4.1099">
        <ele>233.8</ele>
        <time>2024-05-04T09:35:41Z</time>
      </trkpt>
      <trkpt lat="50.05504" lon="4.10994">
        <ele>233.8</ele>
        <time>2024-05-04T09:35:42Z</time>
      </trkpt>
      <trkpt lat="50.055" lon="4.10998">
        <ele>233.8</ele>
        <time>2024-05-04T09:35:43Z</time>
      </trkpt>
      <trkpt lat="50.05495" lon="4.11001">
        <ele>233.8</ele>
        <time>2024-05-04T09:35:44Z</time>
      </trkpt>
      <trkpt lat="50.05491" lon="4.11005">
        <ele>233.8</ele>
        <time>2024-05-04T09:35:45Z</time>
      </trkpt>
      <trkpt lat="50.05487" lon="4.1101">
        <ele>233.8</ele>
        <time>2024-05-04T09:35:46Z</time>
      </trkpt>
      <trkpt lat="50.05483" lon="4.11014">
        <ele>233.8</ele>
        <time>2024-05-04T09:35:47Z</time>
      </trkpt>
      <trkpt lat="50.05479" lon="4.11018">
        <ele>234</ele>
        <time>2024-05-04T09:35:48Z</time>
      </trkpt>
      <trkpt lat="50.05475" lon="4.11022">
        <ele>234</ele>
        <time>2024-05-04T09:35:49Z</time>
      </trkpt>
      <trkpt lat="50.05472" lon="4.11027">
        <ele>234.2</ele>
        <time>2024-05-04T09:35:50Z</time>
      </trkpt>
      <trkpt lat="50.05468" lon="4.11031">
        <ele>234.2</ele>
        <time>2024-05-04T09:35:51Z</time>
      </trkpt>
      <trkpt lat="50.05464" lon="4.11036">
        <ele>234.2</ele>
        <time>2024-05-04T09:35:52Z</time>
      </trkpt>
      <trkpt lat="50.05461" lon="4.11041">
        <ele>234.2</ele>
        <time>2024-05-04T09:35:53Z</time>
      </trkpt>
      <trkpt lat="50.05457" lon="4.11046">
        <ele>234.2</ele>
        <time>2024-05-04T09:35:54Z</time>
      </trkpt>
      <trkpt lat="50.05453" lon="4.11051">
        <ele>234.2</ele>
        <time>2024-05-04T09:35:55Z</time>
      </trkpt>
      <trkpt lat="50.0545" lon="4.11056">
        <ele>234.4</ele>
        <time>2024-05-04T09:35:56Z</time>
      </trkpt>
      <trkpt lat="50.05446" lon="4.11061">
        <ele>234.4</ele>
        <time>2024-05-04T09:35:57Z</time>
      </trkpt>
      <trkpt lat="50.05442" lon="4.11066">
        <ele>234.4</ele>
        <time>2024-05-04T09:35:58Z</time>
      </trkpt>
      <trkpt lat="50.05438" lon="4.11071">
        <ele>234.4</ele>
        <time>2024-05-04T09:35:59Z</time>
      </trkpt>
      <trkpt lat="50.05434" lon="4.11076">
        <ele>234.6</ele>
        <time>2024-05-04T09:36:00Z</time>
      </trkpt>
      <trkpt lat="50.05429" lon="4.1108">
        <ele>234.6</ele>
        <time>2024-05-04T09:36:01Z</time>
      </trkpt>
      <trkpt lat="50.05425" lon="4.11085">
        <ele>234.8</ele>
        <time>2024-05-04T09:36:02Z</time>
      </trkpt>
      <trkpt lat="50.0542" lon="4.11089">
        <ele>234.8</ele>
        <time>2024-05-04T09:36:03Z</time>
      </trkpt>
      <trkpt lat="50.05415" lon="4.11092">
        <ele>235</ele>
        <time>2024-05-04T09:36:04Z</time>
      </trkpt>
      <trkpt lat="50.05411" lon="4.11096">
        <ele>235</ele>
        <time>2024-05-04T09:36:05Z</time>
      </trkpt>
      <trkpt lat="50.05406" lon="4.11099">
        <ele>235</ele>
        <time>2024-05-04T09:36:06Z</time>
      </trkpt>
      <trkpt lat="50.05401" lon="4.11102">
        <ele>235</ele>
        <time>2024-05-04T09:36:07Z</time>
      </trkpt>
      <trkpt lat="50.05396" lon="4.11106">
        <ele>235</ele>
        <time>2024-05-04T09:36:08Z</time>
      </trkpt>
      <trkpt lat="50.05391" lon="4.11108">
        <ele>235</ele>
        <time>2024-05-04T09:36:09Z</time>
      </trkpt>
      <trkpt lat="50.05387" lon="4.11111">
        <ele>235</ele>
        <time>2024-05-04T09:36:10Z</time>
      </trkpt>
      <trkpt lat="50.05382" lon="4.11114">
        <ele>235</ele>
        <time>2024-05-04T09:36:11Z</time>
      </trkpt>
      <trkpt lat="50.05377" lon="4.11117">
        <ele>235</ele>
        <time>2024-05-04T09:36:12Z</time>
      </trkpt>
      <trkpt lat="50.05373" lon="4.1112">
        <ele>235.2</ele>
        <time>2024-05-04T09:36:13Z</time>
      </trkpt>
      <trkpt lat="50.05368" lon="4.11123">
        <ele>235</ele>
        <time>2024-05-04T09:36:14Z</time>
      </trkpt>
      <trkpt lat="50.05363" lon="4.11126">
        <ele>235</ele>
        <time>2024-05-04T09:36:15Z</time>
      </trkpt>
      <trkpt lat="50.05358" lon="4.11129">
        <ele>234.8</ele>
        <time>2024-05-04T09:36:16Z</time>
      </trkpt>
      <trkpt lat="50.05354" lon="4.11132">
        <ele>234.8</ele>
        <time>2024-05-04T09:36:17Z</time>
      </trkpt>
      <trkpt lat="50.05349" lon="4.11136">
        <ele>234.6</ele>
        <time>2024-05-04T09:36:18Z</time>
      </trkpt>
      <trkpt lat="50.05345" lon="4.11139">
        <ele>234.4</ele>
        <time>2024-05-04T09:36:19Z</time>
      </trkpt>
      <trkpt lat="50.0534" lon="4.11143">
        <ele>234.4</ele>
        <time>2024-05-04T09:36:20Z</time>
      </trkpt>
      <trkpt lat="50.05336" lon="4.11147">
        <ele>234.4</ele>
        <time>2024-05-04T09:36:21Z</time>
      </trkpt>
      <trkpt lat="50.05331" lon="4.11151">
        <ele>234.4</ele>
        <time>2024-05-04T09:36:22Z</time>
      </trkpt>
      <trkpt lat="50.05327" lon="4.11155">
        <ele>234.4</ele>
        <time>2024-05-04T09:36:23Z</time>
      </trkpt>
      <trkpt lat="50.05323" lon="4.11159">
        <ele>234.4</ele>
        <time>2024-05-04T09:36:24Z</time>
      </trkpt>
      <trkpt lat="50.05319" lon="4.11163">
        <ele>234.4</ele>
        <time>2024-05-04T09:36:25Z</time>
      </trkpt>
      <trkpt lat="50.05314" lon="4.11168">
        <ele>234.4</ele>
        <time>2024-05-04T09:36:26Z</time>
      </trkpt>
      <trkpt lat="50.0531" lon="4.11172">
        <ele>234.4</ele>
        <time>2024-05-04T09:36:27Z</time>
      </trkpt>
      <trkpt lat="50.05306" lon="4.11177">
        <ele>234.4</ele>
        <time>2024-05-04T09:36:28Z</time>
      </trkpt>
      <trkpt lat="50.05302" lon="4.11182">
        <ele>234.4</ele>
        <time>2024-05-04T09:36:29Z</time>
      </trkpt>
      <trkpt lat="50.05299" lon="4.11187">
        <ele>234.4</ele>
        <time>2024-05-04T09:36:30Z</time>
      </trkpt>
      <trkpt lat="50.05295" lon="4.11191">
        <ele>234.8</ele>
        <time>2024-05-04T09:36:31Z</time>
      </trkpt>
      <trkpt lat="50.05292" lon="4.11196">
        <ele>235.2</ele>
        <time>2024-05-04T09:36:32Z</time>
      </trkpt>
      <trkpt lat="50.05288" lon="4.11201">
        <ele>235.2</ele>
        <time>2024-05-04T09:36:33Z</time>
      </trkpt>
      <trkpt lat="50.05285" lon="4.11206">
        <ele>235.6</ele>
        <time>2024-05-04T09:36:34Z</time>
      </trkpt>
      <trkpt lat="50.05282" lon="4.11211">
        <ele>235.8</ele>
        <time>2024-05-04T09:36:35Z</time>
      </trkpt>
      <trkpt lat="50.05279" lon="4.11216">
        <ele>236</ele>
        <time>2024-05-04T09:36:36Z</time>
      </trkpt>
      <trkpt lat="50.05276" lon="4.11221">
        <ele>236.2</ele>
        <time>2024-05-04T09:36:37Z</time>
      </trkpt>
      <trkpt lat="50.05273" lon="4.11226">
        <ele>236.4</ele>
        <time>2024-05-04T09:36:38Z</time>
      </trkpt>
      <trkpt lat="50.0527" lon="4.11231">
        <ele>236.4</ele>
        <time>2024-05-04T09:36:39Z</time>
      </trkpt>
      <trkpt lat="50.05267" lon="4.11236">
        <ele>236.6</ele>
        <time>2024-05-04T09:36:40Z</time>
      </trkpt>
      <trkpt lat="50.05264" lon="4.11242">
        <ele>237</ele>
        <time>2024-05-04T09:36:41Z</time>
      </trkpt>
      <trkpt lat="50.05262" lon="4.11247">
        <ele>237.2</ele>
        <time>2024-05-04T09:36:42Z</time>
      </trkpt>
      <trkpt lat="50.05259" lon="4.11252">
        <ele>237.6</ele>
        <time>2024-05-04T09:36:43Z</time>
      </trkpt>
      <trkpt lat="50.05256" lon="4.11257">
        <ele>238</ele>
        <time>2024-05-04T09:36:44Z</time>
      </trkpt>
      <trkpt lat="50.05254" lon="4.11262">
        <ele>238</ele>
        <time>2024-05-04T09:36:45Z</time>
      </trkpt>
      <trkpt lat="50.05251" lon="4.11267">
        <ele>238.2</ele>
        <time>2024-05-04T09:36:46Z</time>
      </trkpt>
      <trkpt lat="50.05248" lon="4.11272">
        <ele>238.2</ele>
        <time>2024-05-04T09:36:47Z</time>
      </trkpt>
      <trkpt lat="50.05245" lon="4.11277">
        <ele>238.2</ele>
        <time>2024-05-04T09:36:48Z</time>
      </trkpt>
      <trkpt lat="50.05242" lon="4.11281">
        <ele>238.2</ele>
        <time>2024-05-04T09:36:49Z</time>
      </trkpt>
      <trkpt lat="50.0524" lon="4.11286">
        <ele>238.4</ele>
        <time>2024-05-04T09:36:50Z</time>
      </trkpt>
      <trkpt lat="50.05237" lon="4.11291">
        <ele>238.6</ele>
        <time>2024-05-04T09:36:51Z</time>
      </trkpt>
      <trkpt lat="50.05234" lon="4.11295">
        <ele>238.6</ele>
        <time>2024-05-04T09:36:52Z</time>
      </trkpt>
      <trkpt lat="50.05231" lon="4.113">
        <ele>238.6</ele>
        <time>2024-05-04T09:36:53Z</time>
      </trkpt>
      <trkpt lat="50.05228" lon="4.11304">
        <ele>238.8</ele>
        <time>2024-05-04T09:36:54Z</time>
      </trkpt>
      <trkpt lat="50.05225" lon="4.11309">
        <ele>238.8</ele>
        <time>2024-05-04T09:36:55Z</time>
      </trkpt>
      <trkpt lat="50.05222" lon="4.11313">
        <ele>239</ele>
        <time>2024-05-04T09:36:56Z</time>
      </trkpt>
      <trkpt lat="50.05219" lon="4.11317">
        <ele>238.8</ele>
        <time>2024-05-04T09:36:57Z</time>
      </trkpt>
      <trkpt lat="50.05215" lon="4.11321">
        <ele>239.4</ele>
        <time>2024-05-04T09:36:58Z</time>
      </trkpt>
      <trkpt lat="50.05212" lon="4.11325">
        <ele>239.8</ele>
        <time>2024-05-04T09:36:59Z</time>
      </trkpt>
      <trkpt lat="50.05208" lon="4.11329">
        <ele>240</ele>
        <time>2024-05-04T09:37:00Z</time>
      </trkpt>
      <trkpt lat="50.05205" lon="4.11333">
        <ele>240.2</ele>
        <time>2024-05-04T09:37:01Z</time>
      </trkpt>
      <trkpt lat="50.05202" lon="4.11337">
        <ele>240.4</ele>
        <time>2024-05-04T09:37:02Z</time>
      </trkpt>
      <trkpt lat="50.05198" lon="4.11341">
        <ele>240.4</ele>
        <time>2024-05-04T09:37:03Z</time>
      </trkpt>
      <trkpt lat="50.05194" lon="4.11344">
        <ele>240.8</ele>
        <time>2024-05-04T09:37:04Z</time>
      </trkpt>
      <trkpt lat="50.05191" lon="4.11348">
        <ele>241</ele>
        <time>2024-05-04T09:37:05Z</time>
      </trkpt>
      <trkpt lat="50.05188" lon="4.11351">
        <ele>241</ele>
        <time>2024-05-04T09:37:06Z</time>
      </trkpt>
      <trkpt lat="50.05184" lon="4.11354">
        <ele>241.8</ele>
        <time>2024-05-04T09:37:07Z</time>
      </trkpt>
      <trkpt lat="50.05181" lon="4.11357">
        <ele>242</ele>
        <time>2024-05-04T09:37:08Z</time>
      </trkpt>
      <trkpt lat="50.05177" lon="4.1136">
        <ele>242.2</ele>
        <time>2024-05-04T09:37:09Z</time>
      </trkpt>
      <trkpt lat="50.05174" lon="4.11363">
        <ele>243</ele>
        <time>2024-05-04T09:37:10Z</time>
      </trkpt>
      <trkpt lat="50.0517" lon="4.11366">
        <ele>243.2</ele>
        <time>2024-05-04T09:37:11Z</time>
      </trkpt>
      <trkpt lat="50.05167" lon="4.11369">
        <ele>243.6</ele>
        <time>2024-05-04T09:37:12Z</time>
      </trkpt>
      <trkpt lat="50.05163" lon="4.11372">
        <ele>243.8</ele>
        <time>2024-05-04T09:37:13Z</time>
      </trkpt>
      <trkpt lat="50.0516" lon="4.11375">
        <ele>244</ele>
        <time>2024-05-04T09:37:14Z</time>
      </trkpt>
      <trkpt lat="50.05156" lon="4.11378">
        <ele>244</ele>
        <time>2024-05-04T09:37:15Z</time>
      </trkpt>
      <trkpt lat="50.05152" lon="4.1138">
        <ele>244.4</ele>
        <time>2024-05-04T09:37:16Z</time>
      </trkpt>
      <trkpt lat="50.05149" lon="4.11383">
        <ele>244.8</ele>
        <time>2024-05-04T09:37:17Z</time>
      </trkpt>
      <trkpt lat="50.05145" lon="4.11386">
        <ele>245.4</ele>
        <time>2024-05-04T09:37:18Z</time>
      </trkpt>
      <trkpt lat="50.05142" lon="4.11389">
        <ele>245.8</ele>
        <time>2024-05-04T09:37:19Z</time>
      </trkpt>
      <trkpt lat="50.05138" lon="4.11391">
        <ele>246</ele>
        <time>2024-05-04T09:37:20Z</time>
      </trkpt>
      <trkpt lat="50.05134" lon="4.11394">
        <ele>246</ele>
        <time>2024-05-04T09:37:21Z</time>
      </trkpt>
      <trkpt lat="50.05131" lon="4.11397">
        <ele>246.2</ele>
        <time>2024-05-04T09:37:22Z</time>
      </trkpt>
      <trkpt lat="50.05127" lon="4.114">
        <ele>246.4</ele>
        <time>2024-05-04T09:37:23Z</time>
      </trkpt>
      <trkpt lat="50.05124" lon="4.11402">
        <ele>246.4</ele>
        <time>2024-05-04T09:37:24Z</time>
      </trkpt>
      <trkpt lat="50.0512" lon="4.11405">
        <ele>246.4</ele>
        <time>2024-05-04T09:37:25Z</time>
      </trkpt>
      <trkpt lat="50.05117" lon="4.11407">
        <ele>246.6</ele>
        <time>2024-05-04T09:37:26Z</time>
      </trkpt>
      <trkpt lat="50.05113" lon="4.1141">
        <ele>246.8</ele>
        <time>2024-05-04T09:37:27Z</time>
      </trkpt>
      <trkpt lat="50.0511" lon="4.11413">
        <ele>246.8</ele>
        <time>2024-05-04T09:37:28Z</time>
      </trkpt>
      <trkpt lat="50.05106" lon="4.11416">
        <ele>247</ele>
        <time>2024-05-04T09:37:29Z</time>
      </trkpt>
      <trkpt lat="50.05103" lon="4.11418">
        <ele>247.2</ele>
        <time>2024-05-04T09:37:30Z</time>
      </trkpt>
      <trkpt lat="50.05099" lon="4.11421">
        <ele>247.2</ele>
        <time>2024-05-04T09:37:31Z</time>
      </trkpt>
      <trkpt lat="50.05095" lon="4.11424">
        <ele>247.6</ele>
        <time>2024-05-04T09:37:32Z</time>
      </trkpt>
      <trkpt lat="50.05092" lon="4.11427">
        <ele>247.4</ele>
        <time>2024-05-04T09:37:33Z</time>
      </trkpt>
      <trkpt lat="50.05088" lon="4.1143">
        <ele>247.6</ele>
        <time>2024-05-04T09:37:34Z</time>
      </trkpt>
      <trkpt lat="50.05084" lon="4.11433">
        <ele>247.8</ele>
        <time>2024-05-04T09:37:35Z</time>
      </trkpt>
      <trkpt lat="50.0508" lon="4.11437">
        <ele>248</ele>
        <time>2024-05-04T09:37:36Z</time>
      </trkpt>
      <trkpt lat="50.05076" lon="4.1144">
        <ele>248.4</ele>
        <time>2024-05-04T09:37:37Z</time>
      </trkpt>
      <trkpt lat="50.05072" lon="4.11443">
        <ele>248.4</ele>
        <time>2024-05-04T09:37:38Z</time>
      </trkpt>
      <trkpt lat="50.05068" lon="4.11446">
        <ele>248.6</ele>
        <time>2024-05-04T09:37:39Z</time>
      </trkpt>
      <trkpt lat="50.05063" lon="4.11449">
        <ele>248.8</ele>
        <time>2024-05-04T09:37:40Z</time>
      </trkpt>
      <trkpt lat="50.05059" lon="4.11453">
        <ele>248.8</ele>
        <time>2024-05-04T09:37:41Z</time>
      </trkpt>
      <trkpt lat="50.05055" lon="4.11456">
        <ele>249</ele>
        <time>2024-05-04T09:37:42Z</time>
      </trkpt>
      <trkpt lat="50.0505" lon="4.1146">
        <ele>249</ele>
        <time>2024-05-04T09:37:43Z</time>
      </trkpt>
      <trkpt lat="50.05046" lon="4.11464">
        <ele>248.8</ele>
        <time>2024-05-04T09:37:44Z</time>
      </trkpt>
      <trkpt lat="50.05041" lon="4.11468">
        <ele>249</ele>
        <time>2024-05-04T09:37:45Z</time>
      </trkpt>
      <trkpt lat="50.05036" lon="4.11472">
        <ele>249</ele>
        <time>2024-05-04T09:37:46Z</time>
      </trkpt>
      <trkpt lat="50.05031" lon="4.11477">
        <ele>249</ele>
        <time>2024-05-04T09:37:47Z</time>
      </trkpt>
      <trkpt lat="50.05026" lon="4.11481">
        <ele>249</ele>
        <time>2024-05-04T09:37:48Z</time>
      </trkpt>
      <trkpt lat="50.05021" lon="4.11485">
        <ele>249</ele>
        <time>2024-05-04T09:37:49Z</time>
      </trkpt>
      <trkpt lat="50.05016" lon="4.1149">
        <ele>249</ele>
        <time>2024-05-04T09:37:50Z</time>
      </trkpt>
      <trkpt lat="50.05011" lon="4.11495">
        <ele>249</ele>
        <time>2024-05-04T09:37:51Z</time>
      </trkpt>
      <trkpt lat="50.05006" lon="4.11499">
        <ele>249</ele>
        <time>2024-05-04T09:37:52Z</time>
      </trkpt>
      <trkpt lat="50.05001" lon="4.11504">
        <ele>249</ele>
        <time>2024-05-04T09:37:53Z</time>
      </trkpt>
      <trkpt lat="50.04996" lon="4.11508">
        <ele>249</ele>
        <time>2024-05-04T09:37:54Z</time>
      </trkpt>
      <trkpt lat="50.04991" lon="4.11512">
        <ele>248.8</ele>
        <time>2024-05-04T09:37:55Z</time>
      </trkpt>
      <trkpt lat="50.04985" lon="4.11517">
        <ele>248.8</ele>
        <time>2024-05-04T09:37:56Z</time>
      </trkpt>
      <trkpt lat="50.0498" lon="4.11521">
        <ele>248.8</ele>
        <time>2024-05-04T09:37:57Z</time>
      </trkpt>
      <trkpt lat="50.04974" lon="4.11525">
        <ele>248.4</ele>
        <time>2024-05-04T09:37:58Z</time>
      </trkpt>
      <trkpt lat="50.04969" lon="4.11529">
        <ele>248.2</ele>
        <time>2024-05-04T09:37:59Z</time>
      </trkpt>
      <trkpt lat="50.04963" lon="4.11534">
        <ele>248</ele>
        <time>2024-05-04T09:38:00Z</time>
      </trkpt>
      <trkpt lat="50.04958" lon="4.11538">
        <ele>248</ele>
        <time>2024-05-04T09:38:01Z</time>
      </trkpt>
      <trkpt lat="50.04952" lon="4.11542">
        <ele>248</ele>
        <time>2024-05-04T09:38:02Z</time>
      </trkpt>
      <trkpt lat="50.04947" lon="4.11546">
        <ele>247.8</ele>
        <time>2024-05-04T09:38:03Z</time>
      </trkpt>
      <trkpt lat="50.04941" lon="4.1155">
        <ele>247.6</ele>
        <time>2024-05-04T09:38:04Z</time>
      </trkpt>
      <trkpt lat="50.04935" lon="4.11554">
        <ele>247.2</ele>
        <time>2024-05-04T09:38:05Z</time>
      </trkpt>
      <trkpt lat="50.0493" lon="4.11558">
        <ele>247</ele>
        <time>2024-05-04T09:38:06Z</time>
      </trkpt>
      <trkpt lat="50.04924" lon="4.11562">
        <ele>246.8</ele>
        <time>2024-05-04T09:38:07Z</time>
      </trkpt>
      <trkpt lat="50.04918" lon="4.11566">
        <ele>246.4</ele>
        <time>2024-05-04T09:38:08Z</time>
      </trkpt>
      <trkpt lat="50.04913" lon="4.1157">
        <ele>246.2</ele>
        <time>2024-05-04T09:38:09Z</time>
      </trkpt>
      <trkpt lat="50.04907" lon="4.11574">
        <ele>246</ele>
        <time>2024-05-04T09:38:10Z</time>
      </trkpt>
      <trkpt lat="50.04902" lon="4.11578">
        <ele>246</ele>
        <time>2024-05-04T09:38:11Z</time>
      </trkpt>
      <trkpt lat="50.04896" lon="4.11582">
        <ele>246</ele>
        <time>2024-05-04T09:38:12Z</time>
      </trkpt>
      <trkpt lat="50.04891" lon="4.11586">
        <ele>245.8</ele>
        <time>2024-05-04T09:38:13Z</time>
      </trkpt>
      <trkpt lat="50.04885" lon="4.1159">
        <ele>245.8</ele>
        <time>2024-05-04T09:38:14Z</time>
      </trkpt>
      <trkpt lat="50.0488" lon="4.11595">
        <ele>246</ele>
        <time>2024-05-04T09:38:15Z</time>
      </trkpt>
      <trkpt lat="50.04875" lon="4.11598">
        <ele>245.8</ele>
        <time>2024-05-04T09:38:16Z</time>
      </trkpt>
      <trkpt lat="50.0487" lon="4.11602">
        <ele>245.8</ele>
        <time>2024-05-04T09:38:17Z</time>
      </trkpt>
      <trkpt lat="50.04865" lon="4.11606">
        <ele>245.8</ele>
        <time>2024-05-04T09:38:18Z</time>
      </trkpt>
      <trkpt lat="50.04859" lon="4.1161">
        <ele>245.8</ele>
        <time>2024-05-04T09:38:19Z</time>
      </trkpt>
      <trkpt lat="50.04854" lon="4.11614">
        <ele>245.8</ele>
        <time>2024-05-04T09:38:20Z</time>
      </trkpt>
      <trkpt lat="50.04849" lon="4.11617">
        <ele>246</ele>
        <time>2024-05-04T09:38:21Z</time>
      </trkpt>
      <trkpt lat="50.04844" lon="4.11621">
        <ele>245.8</ele>
        <time>2024-05-04T09:38:22Z</time>
      </trkpt>
      <trkpt lat="50.04839" lon="4.11625">
        <ele>245.8</ele>
        <time>2024-05-04T09:38:23Z</time>
      </trkpt>
      <trkpt lat="50.04834" lon="4.11629">
        <ele>245.8</ele>
        <time>2024-05-04T09:38:24Z</time>
      </trkpt>
      <trkpt lat="50.04828" lon="4.11633">
        <ele>245.8</ele>
        <time>2024-05-04T09:38:25Z</time>
      </trkpt>
      <trkpt lat="50.04823" lon="4.11636">
        <ele>246</ele>
        <time>2024-05-04T09:38:26Z</time>
      </trkpt>
      <trkpt lat="50.04818" lon="4.1164">
        <ele>245.8</ele>
        <time>2024-05-04T09:38:27Z</time>
      </trkpt>
      <trkpt lat="50.04813" lon="4.11644">
        <ele>245.8</ele>
        <time>2024-05-04T09:38:28Z</time>
      </trkpt>
      <trkpt lat="50.04808" lon="4.11647">
        <ele>246</ele>
        <time>2024-05-04T09:38:29Z</time>
      </trkpt>
      <trkpt lat="50.04802" lon="4.11651">
        <ele>246.2</ele>
        <time>2024-05-04T09:38:30Z</time>
      </trkpt>
      <trkpt lat="50.04797" lon="4.11656">
        <ele>246.2</ele>
        <time>2024-05-04T09:38:31Z</time>
      </trkpt>
      <trkpt lat="50.04792" lon="4.1166">
        <ele>246.2</ele>
        <time>2024-05-04T09:38:32Z</time>
      </trkpt>
      <trkpt lat="50.04787" lon="4.11663">
        <ele>246.6</ele>
        <time>2024-05-04T09:38:33Z</time>
      </trkpt>
      <trkpt lat="50.04781" lon="4.11667">
        <ele>246.6</ele>
        <time>2024-05-04T09:38:34Z</time>
      </trkpt>
      <trkpt lat="50.04776" lon="4.11671">
        <ele>246.4</ele>
        <time>2024-05-04T09:38:35Z</time>
      </trkpt>
      <trkpt lat="50.04771" lon="4.11675">
        <ele>246.6</ele>
        <time>2024-05-04T09:38:36Z</time>
      </trkpt>
      <trkpt lat="50.04765" lon="4.11679">
        <ele>246.6</ele>
        <time>2024-05-04T09:38:37Z</time>
      </trkpt>
      <trkpt lat="50.0476" lon="4.11683">
        <ele>246.6</ele>
        <time>2024-05-04T09:38:38Z</time>
      </trkpt>
      <trkpt lat="50.04754" lon="4.11686">
        <ele>246.6</ele>
        <time>2024-05-04T09:38:39Z</time>
      </trkpt>
      <trkpt lat="50.04748" lon="4.11689">
        <ele>246.6</ele>
        <time>2024-05-04T09:38:40Z</time>
      </trkpt>
      <trkpt lat="50.04743" lon="4.11692">
        <ele>246.6</ele>
        <time>2024-05-04T09:38:41Z</time>
      </trkpt>
      <trkpt lat="50.04737" lon="4.11695">
        <ele>246.8</ele>
        <time>2024-05-04T09:38:42Z</time>
      </trkpt>
      <trkpt lat="50.04731" lon="4.11698">
        <ele>246.8</ele>
        <time>2024-05-04T09:38:43Z</time>
      </trkpt>
      <trkpt lat="50.04725" lon="4.11701">
        <ele>246.8</ele>
        <time>2024-05-04T09:38:44Z</time>
      </trkpt>
      <trkpt lat="50.04719" lon="4.11704">
        <ele>246.8</ele>
        <time>2024-05-04T09:38:45Z</time>
      </trkpt>
      <trkpt lat="50.04713" lon="4.11707">
        <ele>247</ele>
        <time>2024-05-04T09:38:46Z</time>
      </trkpt>
      <trkpt lat="50.04708" lon="4.11711">
        <ele>247</ele>
        <time>2024-05-04T09:38:47Z</time>
      </trkpt>
      <trkpt lat="50.04702" lon="4.11714">
        <ele>247</ele>
        <time>2024-05-04T09:38:48Z</time>
      </trkpt>
      <trkpt lat="50.04697" lon="4.11717">
        <ele>246.8</ele>
        <time>2024-05-04T09:38:49Z</time>
      </trkpt>
      <trkpt lat="50.04691" lon="4.11719">
        <ele>247</ele>
        <time>2024-05-04T09:38:50Z</time>
      </trkpt>
      <trkpt lat="50.04685" lon="4.11722">
        <ele>246.8</ele>
        <time>2024-05-04T09:38:51Z</time>
      </trkpt>
      <trkpt lat="50.0468" lon="4.11724">
        <ele>246.8</ele>
        <time>2024-05-04T09:38:52Z</time>
      </trkpt>
      <trkpt lat="50.04674" lon="4.11727">
        <ele>247</ele>
        <time>2024-05-04T09:38:53Z</time>
      </trkpt>
      <trkpt lat="50.04668" lon="4.11729">
        <ele>246.8</ele>
        <time>2024-05-04T09:38:54Z</time>
      </trkpt>
      <trkpt lat="50.04662" lon="4.11731">
        <ele>246.8</ele>
        <time>2024-05-04T09:38:55Z</time>
      </trkpt>
      <trkpt lat="50.04656" lon="4.11734">
        <ele>246.8</ele>
        <time>2024-05-04T09:38:56Z</time>
      </trkpt>
      <trkpt lat="50.0465" lon="4.11737">
        <ele>246.8</ele>
        <time>2024-05-04T09:38:57Z</time>
      </trkpt>
      <trkpt lat="50.04644" lon="4.1174">
        <ele>247</ele>
        <time>2024-05-04T09:38:58Z</time>
      </trkpt>
      <trkpt lat="50.04638" lon="4.11743">
        <ele>246.8</ele>
        <time>2024-05-04T09:38:59Z</time>
      </trkpt>
      <trkpt lat="50.04632" lon="4.11746">
        <ele>247</ele>
        <time>2024-05-04T09:39:00Z</time>
      </trkpt>
      <trkpt lat="50.04626" lon="4.11749">
        <ele>247</ele>
        <time>2024-05-04T09:39:01Z</time>
      </trkpt>
      <trkpt lat="50.0462" lon="4.11752">
        <ele>247</ele>
        <time>2024-05-04T09:39:02Z</time>
      </trkpt>
      <trkpt lat="50.04614" lon="4.11755">
        <ele>246.8</ele>
        <time>2024-05-04T09:39:03Z</time>
      </trkpt>
      <trkpt lat="50.04608" lon="4.11757">
        <ele>247</ele>
        <time>2024-05-04T09:39:04Z</time>
      </trkpt>
      <trkpt lat="50.04602" lon="4.1176">
        <ele>246.8</ele>
        <time>2024-05-04T09:39:05Z</time>
      </trkpt>
      <trkpt lat="50.04596" lon="4.11762">
        <ele>247</ele>
        <time>2024-05-04T09:39:06Z</time>
      </trkpt>
      <trkpt lat="50.0459" lon="4.11765">
        <ele>246.8</ele>
        <time>2024-05-04T09:39:07Z</time>
      </trkpt>
      <trkpt lat="50.04583" lon="4.11767">
        <ele>246.8</ele>
        <time>2024-05-04T09:39:08Z</time>
      </trkpt>
      <trkpt lat="50.04577" lon="4.1177">
        <ele>246.8</ele>
        <time>2024-05-04T09:39:09Z</time>
      </trkpt>
      <trkpt lat="50.04571" lon="4.11773">
        <ele>246.8</ele>
        <time>2024-05-04T09:39:10Z</time>
      </trkpt>
      <trkpt lat="50.04565" lon="4.11776">
        <ele>246.8</ele>
        <time>2024-05-04T09:39:11Z</time>
      </trkpt>
      <trkpt lat="50.04558" lon="4.11778">
        <ele>246.6</ele>
        <time>2024-05-04T09:39:12Z</time>
      </trkpt>
      <trkpt lat="50.04552" lon="4.11781">
        <ele>246.8</ele>
        <time>2024-05-04T09:39:13Z</time>
      </trkpt>
      <trkpt lat="50.04546" lon="4.11784">
        <ele>246.6</ele>
        <time>2024-05-04T09:39:14Z</time>
      </trkpt>
      <trkpt lat="50.0454" lon="4.11787">
        <ele>246.6</ele>
        <time>2024-05-04T09:39:15Z</time>
      </trkpt>
      <trkpt lat="50.04534" lon="4.1179">
        <ele>246.6</ele>
        <time>2024-05-04T09:39:16Z</time>
      </trkpt>
      <trkpt lat="50.04527" lon="4.11793">
        <ele>246.4</ele>
        <time>2024-05-04T09:39:17Z</time>
      </trkpt>
      <trkpt lat="50.04521" lon="4.11796">
        <ele>246.4</ele>
        <time>2024-05-04T09:39:18Z</time>
      </trkpt>
      <trkpt lat="50.04515" lon="4.11799">
        <ele>246.4</ele>
        <time>2024-05-04T09:39:19Z</time>
      </trkpt>
      <trkpt lat="50.04508" lon="4.11801">
        <ele>246.2</ele>
        <time>2024-05-04T09:39:20Z</time>
      </trkpt>
      <trkpt lat="50.04502" lon="4.11804">
        <ele>246.2</ele>
        <time>2024-05-04T09:39:21Z</time>
      </trkpt>
      <trkpt lat="50.04496" lon="4.11807">
        <ele>246.2</ele>
        <time>2024-05-04T09:39:22Z</time>
      </trkpt>
      <trkpt lat="50.04489" lon="4.1181">
        <ele>245.8</ele>
        <time>2024-05-04T09:39:23Z</time>
      </trkpt>
      <trkpt lat="50.04483" lon="4.11814">
        <ele>245.8</ele>
        <time>2024-05-04T09:39:24Z</time>
      </trkpt>
      <trkpt lat="50.04477" lon="4.11817">
        <ele>245.6</ele>
        <time>2024-05-04T09:39:25Z</time>
      </trkpt>
      <trkpt lat="50.04471" lon="4.1182">
        <ele>245.4</ele>
        <time>2024-05-04T09:39:26Z</time>
      </trkpt>
      <trkpt lat="50.04464" lon="4.11823">
        <ele>245.4</ele>
        <time>2024-05-04T09:39:27Z</time>
      </trkpt>
      <trkpt lat="50.04458" lon="4.11827">
        <ele>245.4</ele>
        <time>2024-05-04T09:39:28Z</time>
      </trkpt>
      <trkpt lat="50.04452" lon="4.1183">
        <ele>245.2</ele>
        <time>2024-05-04T09:39:29Z</time>
      </trkpt>
      <trkpt lat="50.04446" lon="4.11833">
        <ele>245.6</ele>
        <time>2024-05-04T09:39:30Z</time>
      </trkpt>
      <trkpt lat="50.0444" lon="4.11836">
        <ele>245.8</ele>
        <time>2024-05-04T09:39:31Z</time>
      </trkpt>
      <trkpt lat="50.04434" lon="4.11838">
        <ele>245.8</ele>
        <time>2024-05-04T09:39:32Z</time>
      </trkpt>
      <trkpt lat="50.04428" lon="4.11841">
        <ele>246</ele>
        <time>2024-05-04T09:39:33Z</time>
      </trkpt>
      <trkpt lat="50.04422" lon="4.11843">
        <ele>246</ele>
        <time>2024-05-04T09:39:34Z</time>
      </trkpt>
      <trkpt lat="50.04417" lon="4.11846">
        <ele>246.2</ele>
        <time>2024-05-04T09:39:35Z</time>
      </trkpt>
      <trkpt lat="50.04411" lon="4.11849">
        <ele>246.2</ele>
        <time>2024-05-04T09:39:36Z</time>
      </trkpt>
      <trkpt lat="50.04406" lon="4.11851">
        <ele>246</ele>
        <time>2024-05-04T09:39:37Z</time>
      </trkpt>
      <trkpt lat="50.044" lon="4.11853">
        <ele>246</ele>
        <time>2024-05-04T09:39:38Z</time>
      </trkpt>
      <trkpt lat="50.04395" lon="4.11856">
        <ele>246.2</ele>
        <time>2024-05-04T09:39:39Z</time>
      </trkpt>
      <trkpt lat="50.0439" lon="4.11858">
        <ele>246.2</ele>
        <time>2024-05-04T09:39:40Z</time>
      </trkpt>
      <trkpt lat="50.04384" lon="4.1186">
        <ele>246.4</ele>
        <time>2024-05-04T09:39:41Z</time>
      </trkpt>
      <trkpt lat="50.04379" lon="4.11863">
        <ele>246.2</ele>
        <time>2024-05-04T09:39:42Z</time>
      </trkpt>
      <trkpt lat="50.04374" lon="4.11865">
        <ele>246.4</ele>
        <time>2024-05-04T09:39:43Z</time>
      </trkpt>
      <trkpt lat="50.04368" lon="4.11867">
        <ele>246.6</ele>
        <time>2024-05-04T09:39:44Z</time>
      </trkpt>
      <trkpt lat="50.04363" lon="4.11869">
        <ele>246.8</ele>
        <time>2024-05-04T09:39:45Z</time>
      </trkpt>
      <trkpt lat="50.04358" lon="4.11871">
        <ele>246.8</ele>
        <time>2024-05-04T09:39:46Z</time>
      </trkpt>
      <trkpt lat="50.04353" lon="4.11873">
        <ele>246.8</ele>
        <time>2024-05-04T09:39:47Z</time>
      </trkpt>
      <trkpt lat="50.04348" lon="4.11874">
        <ele>247</ele>
        <time>2024-05-04T09:39:48Z</time>
      </trkpt>
      <trkpt lat="50.04343" lon="4.11875">
        <ele>247.2</ele>
        <time>2024-05-04T09:39:49Z</time>
      </trkpt>
      <trkpt lat="50.04338" lon="4.11876">
        <ele>247</ele>
        <time>2024-05-04T09:39:50Z</time>
      </trkpt>
      <trkpt lat="50.04333" lon="4.11878">
        <ele>247.2</ele>
        <time>2024-05-04T09:39:51Z</time>
      </trkpt>
      <trkpt lat="50.04328" lon="4.11878">
        <ele>247.2</ele>
        <time>2024-05-04T09:39:52Z</time>
      </trkpt>
      <trkpt lat="50.04324" lon="4.11879">
        <ele>247.4</ele>
        <time>2024-05-04T09:39:53Z</time>
      </trkpt>
      <trkpt lat="50.04319" lon="4.1188">
        <ele>247.6</ele>
        <time>2024-05-04T09:39:54Z</time>
      </trkpt>
      <trkpt lat="50.04314" lon="4.11881">
        <ele>247.8</ele>
        <time>2024-05-04T09:39:55Z</time>
      </trkpt>
      <trkpt lat="50.0431" lon="4.11882">
        <ele>247.8</ele>
        <time>2024-05-04T09:39:56Z</time>
      </trkpt>
      <trkpt lat="50.04305" lon="4.11883">
        <ele>248</ele>
        <time>2024-05-04T09:39:57Z</time>
      </trkpt>
      <trkpt lat="50.04301" lon="4.11884">
        <ele>248</ele>
        <time>2024-05-04T09:39:58Z</time>
      </trkpt>
      <trkpt lat="50.04297" lon="4.11885">
        <ele>248</ele>
        <time>2024-05-04T09:39:59Z</time>
      </trkpt>
      <trkpt lat="50.04292" lon="4.11885">
        <ele>248.2</ele>
        <time>2024-05-04T09:40:00Z</time>
      </trkpt>
      <trkpt lat="50.04288" lon="4.11886">
        <ele>248.4</ele>
        <time>2024-05-04T09:40:01Z</time>
      </trkpt>
      <trkpt lat="50.04284" lon="4.11887">
        <ele>248.8</ele>
        <time>2024-05-04T09:40:02Z</time>
      </trkpt>
      <trkpt lat="50.04279" lon="4.11888">
        <ele>249.4</ele>
        <time>2024-05-04T09:40:03Z</time>
      </trkpt>
      <trkpt lat="50.04275" lon="4.11889">
        <ele>249.4</ele>
        <time>2024-05-04T09:40:04Z</time>
      </trkpt>
      <trkpt lat="50.0427" lon="4.1189">
        <ele>249.8</ele>
        <time>2024-05-04T09:40:05Z</time>
      </trkpt>
      <trkpt lat="50.04266" lon="4.11891">
        <ele>249.8</ele>
        <time>2024-05-04T09:40:06Z</time>
      </trkpt>
      <trkpt lat="50.04262" lon="4.11892">
        <ele>250</ele>
        <time>2024-05-04T09:40:07Z</time>
      </trkpt>
      <trkpt lat="50.04257" lon="4.11893">
        <ele>250.4</ele>
        <time>2024-05-04T09:40:08Z</time>
      </trkpt>
      <trkpt lat="50.04253" lon="4.11893">
        <ele>250.8</ele>
        <time>2024-05-04T09:40:09Z</time>
      </trkpt>
      <trkpt lat="50.04248" lon="4.11894">
        <ele>251</ele>
        <time>2024-05-04T09:40:10Z</time>
      </trkpt>
      <trkpt lat="50.04244" lon="4.11894">
        <ele>251.4</ele>
        <time>2024-05-04T09:40:11Z</time>
      </trkpt>
      <trkpt lat="50.0424" lon="4.11894">
        <ele>251.6</ele>
        <time>2024-05-04T09:40:12Z</time>
      </trkpt>
      <trkpt lat="50.04235" lon="4.11894">
        <ele>252</ele>
        <time>2024-05-04T09:40:13Z</time>
      </trkpt>
      <trkpt lat="50.04231" lon="4.11894">
        <ele>252.2</ele>
        <time>2024-05-04T09:40:14Z</time>
      </trkpt>
      <trkpt lat="50.04227" lon="4.11894">
        <ele>252.6</ele>
        <time>2024-05-04T09:40:15Z</time>
      </trkpt>
      <trkpt lat="50.04222" lon="4.11894">
        <ele>252.6</ele>
        <time>2024-05-04T09:40:16Z</time>
      </trkpt>
      <trkpt lat="50.04218" lon="4.11894">
        <ele>252.8</ele>
        <time>2024-05-04T09:40:17Z</time>
      </trkpt>
      <trkpt lat="50.04213" lon="4.11894">
        <ele>252.8</ele>
        <time>2024-05-04T09:40:18Z</time>
      </trkpt>
      <trkpt lat="50.04209" lon="4.11893">
        <ele>253</ele>
        <time>2024-05-04T09:40:19Z</time>
      </trkpt>
      <trkpt lat="50.04204" lon="4.11892">
        <ele>253.2</ele>
        <time>2024-05-04T09:40:20Z</time>
      </trkpt>
      <trkpt lat="50.042" lon="4.11892">
        <ele>253.4</ele>
        <time>2024-05-04T09:40:21Z</time>
      </trkpt>
      <trkpt lat="50.04195" lon="4.11891">
        <ele>253.4</ele>
        <time>2024-05-04T09:40:22Z</time>
      </trkpt>
      <trkpt lat="50.04191" lon="4.1189">
        <ele>253.4</ele>
        <time>2024-05-04T09:40:23Z</time>
      </trkpt>
      <trkpt lat="50.04186" lon="4.11889">
        <ele>253.6</ele>
        <time>2024-05-04T09:40:24Z</time>
      </trkpt>
      <trkpt lat="50.04182" lon="4.11888">
        <ele>253.6</ele>
        <time>2024-05-04T09:40:25Z</time>
      </trkpt>
      <trkpt lat="50.04177" lon="4.11887">
        <ele>253.8</ele>
        <time>2024-05-04T09:40:26Z</time>
      </trkpt>
      <trkpt lat="50.04173" lon="4.11886">
        <ele>253.8</ele>
        <time>2024-05-04T09:40:27Z</time>
      </trkpt>
      <trkpt lat="50.04168" lon="4.11885">
        <ele>253.8</ele>
        <time>2024-05-04T09:40:28Z</time>
      </trkpt>
      <trkpt lat="50.04163" lon="4.11884">
        <ele>254</ele>
        <time>2024-05-04T09:40:29Z</time>
      </trkpt>
      <trkpt lat="50.04159" lon="4.11882">
        <ele>254</ele>
        <time>2024-05-04T09:40:30Z</time>
      </trkpt>
      <trkpt lat="50.04154" lon="4.11881">
        <ele>254</ele>
        <time>2024-05-04T09:40:31Z</time>
      </trkpt>
      <trkpt lat="50.04149" lon="4.11879">
        <ele>254</ele>
        <time>2024-05-04T09:40:32Z</time>
      </trkpt>
      <trkpt lat="50.04144" lon="4.11877">
        <ele>254.2</ele>
        <time>2024-05-04T09:40:33Z</time>
      </trkpt>
      <trkpt lat="50.04139" lon="4.11875">
        <ele>254.4</ele>
        <time>2024-05-04T09:40:34Z</time>
      </trkpt>
      <trkpt lat="50.04135" lon="4.11873">
        <ele>254.6</ele>
        <time>2024-05-04T09:40:35Z</time>
      </trkpt>
      <trkpt lat="50.0413" lon="4.11871">
        <ele>255</ele>
        <time>2024-05-04T09:40:36Z</time>
      </trkpt>
      <trkpt lat="50.04125" lon="4.11869">
        <ele>255.4</ele>
        <time>2024-05-04T09:40:37Z</time>
      </trkpt>
      <trkpt lat="50.04121" lon="4.11868">
        <ele>255.8</ele>
        <time>2024-05-04T09:40:38Z</time>
      </trkpt>
      <trkpt lat="50.04116" lon="4.11866">
        <ele>255.8</ele>
        <time>2024-05-04T09:40:39Z</time>
      </trkpt>
      <trkpt lat="50.04112" lon="4.11864">
        <ele>256</ele>
        <time>2024-05-04T09:40:40Z</time>
      </trkpt>
      <trkpt lat="50.04108" lon="4.11863">
        <ele>256</ele>
        <time>2024-05-04T09:40:41Z</time>
      </trkpt>
      <trkpt lat="50.04103" lon="4.11861">
        <ele>256.2</ele>
        <time>2024-05-04T09:40:42Z</time>
      </trkpt>
      <trkpt lat="50.04099" lon="4.1186">
        <ele>256.2</ele>
        <time>2024-05-04T09:40:43Z</time>
      </trkpt>
      <trkpt lat="50.04095" lon="4.11858">
        <ele>256.2</ele>
        <time>2024-05-04T09:40:44Z</time>
      </trkpt>
      <trkpt lat="50.04091" lon="4.11857">
        <ele>256.4</ele>
        <time>2024-05-04T09:40:45Z</time>
      </trkpt>
      <trkpt lat="50.04086" lon="4.11855">
        <ele>256.4</ele>
        <time>2024-05-04T09:40:46Z</time>
      </trkpt>
      <trkpt lat="50.04082" lon="4.11853">
        <ele>256.4</ele>
        <time>2024-05-04T09:40:47Z</time>
      </trkpt>
      <trkpt lat="50.04078" lon="4.11852">
        <ele>256.6</ele>
        <time>2024-05-04T09:40:48Z</time>
      </trkpt>
      <trkpt lat="50.04074" lon="4.1185">
        <ele>256.6</ele>
        <time>2024-05-04T09:40:49Z</time>
      </trkpt>
      <trkpt lat="50.0407" lon="4.11848">
        <ele>256.6</ele>
        <time>2024-05-04T09:40:50Z</time>
      </trkpt>
      <trkpt lat="50.04066" lon="4.11846">
        <ele>256.6</ele>
        <time>2024-05-04T09:40:51Z</time>
      </trkpt>
      <trkpt lat="50.04063" lon="4.11845">
        <ele>256.8</ele>
        <time>2024-05-04T09:40:52Z</time>
      </trkpt>
      <trkpt lat="50.0406" lon="4.11844">
        <ele>256.8</ele>
        <time>2024-05-04T09:40:53Z</time>
      </trkpt>
      <trkpt lat="50.04057" lon="4.11843">
        <ele>256.8</ele>
        <time>2024-05-04T09:40:54Z</time>
      </trkpt>
      <trkpt lat="50.04053" lon="4.11842">
        <ele>256.8</ele>
        <time>2024-05-04T09:40:55Z</time>
      </trkpt>
      <trkpt lat="50.0405" lon="4.11842">
        <ele>256.8</ele>
        <time>2024-05-04T09:40:56Z</time>
      </trkpt>
      <trkpt lat="50.04046" lon="4.11841">
        <ele>256.8</ele>
        <time>2024-05-04T09:40:57Z</time>
      </trkpt>
      <trkpt lat="50.04042" lon="4.11839">
        <ele>256.8</ele>
        <time>2024-05-04T09:40:58Z</time>
      </trkpt>
      <trkpt lat="50.04038" lon="4.11838">
        <ele>257</ele>
        <time>2024-05-04T09:40:59Z</time>
      </trkpt>
      <trkpt lat="50.04034" lon="4.11838">
        <ele>257</ele>
        <time>2024-05-04T09:41:00Z</time>
      </trkpt>
      <trkpt lat="50.04029" lon="4.11841">
        <ele>257</ele>
        <time>2024-05-04T09:41:01Z</time>
      </trkpt>
      <trkpt lat="50.04026" lon="4.11846">
        <ele>257</ele>
        <time>2024-05-04T09:41:02Z</time>
      </trkpt>
      <trkpt lat="50.04024" lon="4.11853">
        <ele>257.2</ele>
        <time>2024-05-04T09:41:03Z</time>
      </trkpt>
      <trkpt lat="50.04023" lon="4.1186">
        <ele>257.2</ele>
        <time>2024-05-04T09:41:04Z</time>
      </trkpt>
      <trkpt lat="50.04023" lon="4.11868">
        <ele>257.2</ele>
        <time>2024-05-04T09:41:05Z</time>
      </trkpt>
      <trkpt lat="50.04022" lon="4.11875">
        <ele>257.4</ele>
        <time>2024-05-04T09:41:06Z</time>
      </trkpt>
      <trkpt lat="50.04021" lon="4.11883">
        <ele>257.6</ele>
        <time>2024-05-04T09:41:07Z</time>
      </trkpt>
      <trkpt lat="50.0402" lon="4.11891">
        <ele>258</ele>
        <time>2024-05-04T09:41:08Z</time>
      </trkpt>
      <trkpt lat="50.04019" lon="4.119">
        <ele>258.6</ele>
        <time>2024-05-04T09:41:09Z</time>
      </trkpt>
      <trkpt lat="50.04017" lon="4.11909">
        <ele>259</ele>
        <time>2024-05-04T09:41:10Z</time>
      </trkpt>
      <trkpt lat="50.04016" lon="4.11918">
        <ele>259</ele>
        <time>2024-05-04T09:41:11Z</time>
      </trkpt>
      <trkpt lat="50.04015" lon="4.11928">
        <ele>259</ele>
        <time>2024-05-04T09:41:12Z</time>
      </trkpt>
      <trkpt lat="50.04014" lon="4.11938">
        <ele>259.2</ele>
        <time>2024-05-04T09:41:13Z</time>
      </trkpt>
      <trkpt lat="50.04012" lon="4.11948">
        <ele>259.4</ele>
        <time>2024-05-04T09:41:14Z</time>
      </trkpt>
      <trkpt lat="50.04011" lon="4.11958">
        <ele>259.2</ele>
        <time>2024-05-04T09:41:15Z</time>
      </trkpt>
      <trkpt lat="50.0401" lon="4.11968">
        <ele>259.4</ele>
        <time>2024-05-04T09:41:16Z</time>
      </trkpt>
      <trkpt lat="50.04008" lon="4.11978">
        <ele>259.4</ele>
        <time>2024-05-04T09:41:17Z</time>
      </trkpt>
      <trkpt lat="50.04007" lon="4.11988">
        <ele>259.4</ele>
        <time>2024-05-04T09:41:18Z</time>
      </trkpt>
      <trkpt lat="50.04006" lon="4.11998">
        <ele>259.4</ele>
        <time>2024-05-04T09:41:19Z</time>
      </trkpt>
      <trkpt lat="50.04004" lon="4.12008">
        <ele>259.4</ele>
        <time>2024-05-04T09:41:20Z</time>
      </trkpt>
      <trkpt lat="50.04002" lon="4.12017">
        <ele>259.4</ele>
        <time>2024-05-04T09:41:21Z</time>
      </trkpt>
      <trkpt lat="50.03999" lon="4.12027">
        <ele>259.4</ele>
        <time>2024-05-04T09:41:22Z</time>
      </trkpt>
      <trkpt lat="50.03995" lon="4.12036">
        <ele>259.4</ele>
        <time>2024-05-04T09:41:23Z</time>
      </trkpt>
      <trkpt lat="50.03992" lon="4.12045">
        <ele>259.4</ele>
        <time>2024-05-04T09:41:24Z</time>
      </trkpt>
      <trkpt lat="50.03989" lon="4.12053">
        <ele>259.2</ele>
        <time>2024-05-04T09:41:25Z</time>
      </trkpt>
      <trkpt lat="50.03986" lon="4.12061">
        <ele>259</ele>
        <time>2024-05-04T09:41:26Z</time>
      </trkpt>
      <trkpt lat="50.03982" lon="4.12069">
        <ele>258.8</ele>
        <time>2024-05-04T09:41:27Z</time>
      </trkpt>
      <trkpt lat="50.03978" lon="4.12076">
        <ele>258.8</ele>
        <time>2024-05-04T09:41:28Z</time>
      </trkpt>
      <trkpt lat="50.03974" lon="4.12082">
        <ele>258.6</ele>
        <time>2024-05-04T09:41:29Z</time>
      </trkpt>
      <trkpt lat="50.03969" lon="4.12086">
        <ele>258.6</ele>
        <time>2024-05-04T09:41:30Z</time>
      </trkpt>
      <trkpt lat="50.03964" lon="4.12088">
        <ele>258.6</ele>
        <time>2024-05-04T09:41:31Z</time>
      </trkpt>
      <trkpt lat="50.03959" lon="4.12088">
        <ele>258.4</ele>
        <time>2024-05-04T09:41:32Z</time>
      </trkpt>
      <trkpt lat="50.03953" lon="4.12087">
        <ele>258.4</ele>
        <time>2024-05-04T09:41:33Z</time>
      </trkpt>
      <trkpt lat="50.03948" lon="4.12086">
        <ele>258.4</ele>
        <time>2024-05-04T09:41:34Z</time>
      </trkpt>
      <trkpt lat="50.03943" lon="4.12085">
        <ele>258.4</ele>
        <time>2024-05-04T09:41:35Z</time>
      </trkpt>
      <trkpt lat="50.03938" lon="4.12083">
        <ele>258.4</ele>
        <time>2024-05-04T09:41:36Z</time>
      </trkpt>
      <trkpt lat="50.03932" lon="4.1208">
        <ele>258.4</ele>
        <time>2024-05-04T09:41:37Z</time>
      </trkpt>
      <trkpt lat="50.03927" lon="4.12077">
        <ele>258.4</ele>
        <time>2024-05-04T09:41:38Z</time>
      </trkpt>
      <trkpt lat="50.03922" lon="4.12075">
        <ele>258.4</ele>
        <time>2024-05-04T09:41:39Z</time>
      </trkpt>
      <trkpt lat="50.03917" lon="4.12073">
        <ele>258.6</ele>
        <time>2024-05-04T09:41:40Z</time>
      </trkpt>
      <trkpt lat="50.03912" lon="4.12071">
        <ele>258.6</ele>
        <time>2024-05-04T09:41:41Z</time>
      </trkpt>
      <trkpt lat="50.03907" lon="4.12068">
        <ele>258.8</ele>
        <time>2024-05-04T09:41:42Z</time>
      </trkpt>
      <trkpt lat="50.03902" lon="4.12066">
        <ele>258.8</ele>
        <time>2024-05-04T09:41:43Z</time>
      </trkpt>
      <trkpt lat="50.03898" lon="4.12063">
        <ele>258.8</ele>
        <time>2024-05-04T09:41:44Z</time>
      </trkpt>
      <trkpt lat="50.03893" lon="4.1206">
        <ele>258.8</ele>
        <time>2024-05-04T09:41:45Z</time>
      </trkpt>
      <trkpt lat="50.03889" lon="4.12057">
        <ele>258.8</ele>
        <time>2024-05-04T09:41:46Z</time>
      </trkpt>
      <trkpt lat="50.03885" lon="4.12053">
        <ele>258.8</ele>
        <time>2024-05-04T09:41:47Z</time>
      </trkpt>
      <trkpt lat="50.03882" lon="4.12051">
        <ele>259.2</ele>
        <time>2024-05-04T09:41:48Z</time>
      </trkpt>
      <trkpt lat="50.0388" lon="4.12051">
        <ele>259.2</ele>
        <time>2024-05-04T09:41:49Z</time>
      </trkpt>
      <trkpt lat="50.0388" lon="4.1205">
        <ele>259.2</ele>
        <time>2024-05-04T09:41:50Z</time>
      </trkpt>
      <trkpt lat="50.0388" lon="4.1205">
        <ele>259.2</ele>
        <time>2024-05-04T09:41:51Z</time>
      </trkpt>
      <trkpt lat="50.03876" lon="4.12051">
        <ele>260.8</ele>
        <time>2024-05-04T09:42:00Z</time>
      </trkpt>
      <trkpt lat="50.03874" lon="4.12052">
        <ele>260.8</ele>
        <time>2024-05-04T09:42:01Z</time>
      </trkpt>
      <trkpt lat="50.03873" lon="4.12055">
        <ele>261</ele>
        <time>2024-05-04T09:42:02Z</time>
      </trkpt>
      <trkpt lat="50.03871" lon="4.12059">
        <ele>261</ele>
        <time>2024-05-04T09:42:03Z</time>
      </trkpt>
      <trkpt lat="50.03869" lon="4.12063">
        <ele>261</ele>
        <time>2024-05-04T09:42:04Z</time>
      </trkpt>
      <trkpt lat="50.03866" lon="4.12066">
        <ele>261</ele>
        <time>2024-05-04T09:42:05Z</time>
      </trkpt>
      <trkpt lat="50.03863" lon="4.1207">
        <ele>261</ele>
        <time>2024-05-04T09:42:06Z</time>
      </trkpt>
      <trkpt lat="50.03859" lon="4.12073">
        <ele>261</ele>
        <time>2024-05-04T09:42:07Z</time>
      </trkpt>
      <trkpt lat="50.03855" lon="4.12077">
        <ele>261</ele>
        <time>2024-05-04T09:42:08Z</time>
      </trkpt>
      <trkpt lat="50.03851" lon="4.12081">
        <ele>261</ele>
        <time>2024-05-04T09:42:09Z</time>
      </trkpt>
      <trkpt lat="50.03847" lon="4.12085">
        <ele>261</ele>
        <time>2024-05-04T09:42:10Z</time>
      </trkpt>
      <trkpt lat="50.03843" lon="4.1209">
        <ele>260.6</ele>
        <time>2024-05-04T09:42:11Z</time>
      </trkpt>
      <trkpt lat="50.03838" lon="4.12094">
        <ele>260.4</ele>
        <time>2024-05-04T09:42:12Z</time>
      </trkpt>
      <trkpt lat="50.03834" lon="4.12099">
        <ele>260.4</ele>
        <time>2024-05-04T09:42:13Z</time>
      </trkpt>
      <trkpt lat="50.03829" lon="4.12103">
        <ele>260.4</ele>
        <time>2024-05-04T09:42:14Z</time>
      </trkpt>
      <trkpt lat="50.03824" lon="4.12108">
        <ele>260.2</ele>
        <time>2024-05-04T09:42:15Z</time>
      </trkpt>
      <trkpt lat="50.0382" lon="4.12112">
        <ele>260.2</ele>
        <time>2024-05-04T09:42:16Z</time>
      </trkpt>
      <trkpt lat="50.03815" lon="4.12117">
        <ele>260</ele>
        <time>2024-05-04T09:42:17Z</time>
      </trkpt>
      <trkpt lat="50.0381" lon="4.12121">
        <ele>260</ele>
        <time>2024-05-04T09:42:18Z</time>
      </trkpt>
      <trkpt lat="50.03805" lon="4.12125">
        <ele>259.8</ele>
        <time>2024-05-04T09:42:19Z</time>
      </trkpt>
      <trkpt lat="50.038" lon="4.12129">
        <ele>259.6</ele>
        <time>2024-05-04T09:42:20Z</time>
      </trkpt>
      <trkpt lat="50.03795" lon="4.12133">
        <ele>259.6</ele>
        <time>2024-05-04T09:42:21Z</time>
      </trkpt>
      <trkpt lat="50.03791" lon="4.12136">
        <ele>259.4</ele>
        <time>2024-05-04T09:42:22Z</time>
      </trkpt>
      <trkpt lat="50.03786" lon="4.1214">
        <ele>259.6</ele>
        <time>2024-05-04T09:42:23Z</time>
      </trkpt>
      <trkpt lat="50.03781" lon="4.12143">
        <ele>259.6</ele>
        <time>2024-05-04T09:42:24Z</time>
      </trkpt>
      <trkpt lat="50.03776" lon="4.12146">
        <ele>259.4</ele>
        <time>2024-05-04T09:42:25Z</time>
      </trkpt>
      <trkpt lat="50.03771" lon="4.1215">
        <ele>259.4</ele>
        <time>2024-05-04T09:42:26Z</time>
      </trkpt>
      <trkpt lat="50.03767" lon="4.12153">
        <ele>259.2</ele>
        <time>2024-05-04T09:42:27Z</time>
      </trkpt>
      <trkpt lat="50.03762" lon="4.12156">
        <ele>259.2</ele>
        <time>2024-05-04T09:42:28Z</time>
      </trkpt>
      <trkpt lat="50.03758" lon="4.12159">
        <ele>259.2</ele>
        <time>2024-05-04T09:42:29Z</time>
      </trkpt>
      <trkpt lat="50.03753" lon="4.12161">
        <ele>259.2</ele>
        <time>2024-05-04T09:42:30Z</time>
      </trkpt>
      <trkpt lat="50.03749" lon="4.12164">
        <ele>259.2</ele>
        <time>2024-05-04T09:42:31Z</time>
      </trkpt>
      <trkpt lat="50.03745" lon="4.12166">
        <ele>259.2</ele>
        <time>2024-05-04T09:42:32Z</time>
      </trkpt>
      <trkpt lat="50.03741" lon="4.12169">
        <ele>259.2</ele>
        <time>2024-05-04T09:42:33Z</time>
      </trkpt>
      <trkpt lat="50.03737" lon="4.12172">
        <ele>259.4</ele>
        <time>2024-05-04T09:42:34Z</time>
      </trkpt>
      <trkpt lat="50.03732" lon="4.12175">
        <ele>259.2</ele>
        <time>2024-05-04T09:42:35Z</time>
      </trkpt>
      <trkpt lat="50.03728" lon="4.12179">
        <ele>259.2</ele>
        <time>2024-05-04T09:42:36Z</time>
      </trkpt>
      <trkpt lat="50.03723" lon="4.12182">
        <ele>259.2</ele>
        <time>2024-05-04T09:42:37Z</time>
      </trkpt>
      <trkpt lat="50.03718" lon="4.12186">
        <ele>259.2</ele>
        <time>2024-05-04T09:42:38Z</time>
      </trkpt>
      <trkpt lat="50.03714" lon="4.1219">
        <ele>259.2</ele>
        <time>2024-05-04T09:42:39Z</time>
      </trkpt>
      <trkpt lat="50.03709" lon="4.12193">
        <ele>259.4</ele>
        <time>2024-05-04T09:42:40Z</time>
      </trkpt>
      <trkpt lat="50.03704" lon="4.12197">
        <ele>259.4</ele>
        <time>2024-05-04T09:42:41Z</time>
      </trkpt>
      <trkpt lat="50.03699" lon="4.12201">
        <ele>259.2</ele>
        <time>2024-05-04T09:42:42Z</time>
      </trkpt>
      <trkpt lat="50.03694" lon="4.12205">
        <ele>259.2</ele>
        <time>2024-05-04T09:42:43Z</time>
      </trkpt>
      <trkpt lat="50.0369" lon="4.12209">
        <ele>259.4</ele>
        <time>2024-05-04T09:42:44Z</time>
      </trkpt>
      <trkpt lat="50.03686" lon="4.12214">
        <ele>259.2</ele>
        <time>2024-05-04T09:42:45Z</time>
      </trkpt>
      <trkpt lat="50.03682" lon="4.12219">
        <ele>259.2</ele>
        <time>2024-05-04T09:42:46Z</time>
      </trkpt>
      <trkpt lat="50.03678" lon="4.12225">
        <ele>259.4</ele>
        <time>2024-05-04T09:42:47Z</time>
      </trkpt>
      <trkpt lat="50.03674" lon="4.12231">
        <ele>259.6</ele>
        <time>2024-05-04T09:42:48Z</time>
      </trkpt>
      <trkpt lat="50.03671" lon="4.12237">
        <ele>259.6</ele>
        <time>2024-05-04T09:42:49Z</time>
      </trkpt>
      <trkpt lat="50.03667" lon="4.12243">
        <ele>259.6</ele>
        <time>2024-05-04T09:42:50Z</time>
      </trkpt>
      <trkpt lat="50.03663" lon="4.1225">
        <ele>259.8</ele>
        <time>2024-05-04T09:42:51Z</time>
      </trkpt>
      <trkpt lat="50.03659" lon="4.12257">
        <ele>259.6</ele>
        <time>2024-05-04T09:42:52Z</time>
      </trkpt>
      <trkpt lat="50.03655" lon="4.12264">
        <ele>259.8</ele>
        <time>2024-05-04T09:42:53Z</time>
      </trkpt>
      <trkpt lat="50.03651" lon="4.12271">
        <ele>259.8</ele>
        <time>2024-05-04T09:42:54Z</time>
      </trkpt>
      <trkpt lat="50.03647" lon="4.12277">
        <ele>259.8</ele>
        <time>2024-05-04T09:42:55Z</time>
      </trkpt>
      <trkpt lat="50.03643" lon="4.12284">
        <ele>259.8</ele>
        <time>2024-05-04T09:42:56Z</time>
      </trkpt>
      <trkpt lat="50.03638" lon="4.12291">
        <ele>259.8</ele>
        <time>2024-05-04T09:42:57Z</time>
      </trkpt>
      <trkpt lat="50.03634" lon="4.12299">
        <ele>259.8</ele>
        <time>2024-05-04T09:42:58Z</time>
      </trkpt>
      <trkpt lat="50.0363" lon="4.12306">
        <ele>259.6</ele>
        <time>2024-05-04T09:42:59Z</time>
      </trkpt>
      <trkpt lat="50.03627" lon="4.12314">
        <ele>259.6</ele>
        <time>2024-05-04T09:43:00Z</time>
      </trkpt>
      <trkpt lat="50.03624" lon="4.12323">
        <ele>259.8</ele>
        <time>2024-05-04T09:43:01Z</time>
      </trkpt>
      <trkpt lat="50.03621" lon="4.12332">
        <ele>259.6</ele>
        <time>2024-05-04T09:43:02Z</time>
      </trkpt>
      <trkpt lat="50.03619" lon="4.12342">
        <ele>259.6</ele>
        <time>2024-05-04T09:43:03Z</time>
      </trkpt>
      <trkpt lat="50.03617" lon="4.12351">
        <ele>259.4</ele>
        <time>2024-05-04T09:43:04Z</time>
      </trkpt>
      <trkpt lat="50.03615" lon="4.12361">
        <ele>259.4</ele>
        <time>2024-05-04T09:43:05Z</time>
      </trkpt>
      <trkpt lat="50.03613" lon="4.12371">
        <ele>259.2</ele>
        <time>2024-05-04T09:43:06Z</time>
      </trkpt>
      <trkpt lat="50.03612" lon="4.12381">
        <ele>259.2</ele>
        <time>2024-05-04T09:43:07Z</time>
      </trkpt>
      <trkpt lat="50.0361" lon="4.12392">
        <ele>259</ele>
        <time>2024-05-04T09:43:08Z</time>
      </trkpt>
      <trkpt lat="50.03609" lon="4.12402">
        <ele>259</ele>
        <time>2024-05-04T09:43:09Z</time>
      </trkpt>
      <trkpt lat="50.03607" lon="4.12412">
        <ele>259</ele>
        <time>2024-05-04T09:43:10Z</time>
      </trkpt>
      <trkpt lat="50.03605" lon="4.12421">
        <ele>259</ele>
        <time>2024-05-04T09:43:11Z</time>
      </trkpt>
      <trkpt lat="50.03602" lon="4.12431">
        <ele>258.8</ele>
        <time>2024-05-04T09:43:12Z</time>
      </trkpt>
      <trkpt lat="50.03599" lon="4.1244">
        <ele>259</ele>
        <time>2024-05-04T09:43:13Z</time>
      </trkpt>
      <trkpt lat="50.03596" lon="4.12449">
        <ele>259</ele>
        <time>2024-05-04T09:43:14Z</time>
      </trkpt>
      <trkpt lat="50.03594" lon="4.12458">
        <ele>259</ele>
        <time>2024-05-04T09:43:15Z</time>
      </trkpt>
      <trkpt lat="50.03591" lon="4.12466">
        <ele>259</ele>
        <time>2024-05-04T09:43:16Z</time>
      </trkpt>
      <trkpt lat="50.03588" lon="4.12475">
        <ele>259</ele>
        <time>2024-05-04T09:43:17Z</time>
      </trkpt>
      <trkpt lat="50.03586" lon="4.12484">
        <ele>259</ele>
        <time>2024-05-04T09:43:18Z</time>
      </trkpt>
      <trkpt lat="50.03584" lon="4.12492">
        <ele>259</ele>
        <time>2024-05-04T09:43:19Z</time>
      </trkpt>
      <trkpt lat="50.03582" lon="4.12501">
        <ele>258.8</ele>
        <time>2024-05-04T09:43:20Z</time>
      </trkpt>
      <trkpt lat="50.03579" lon="4.1251">
        <ele>258.6</ele>
        <time>2024-05-04T09:43:21Z</time>
      </trkpt>
      <trkpt lat="50.03577" lon="4.12519">
        <ele>258.6</ele>
        <time>2024-05-04T09:43:22Z</time>
      </trkpt>
      <trkpt lat="50.03575" lon="4.12528">
        <ele>258.6</ele>
        <time>2024-05-04T09:43:23Z</time>
      </trkpt>
      <trkpt lat="50.03573" lon="4.12537">
        <ele>258.4</ele>
        <time>2024-05-04T09:43:24Z</time>
      </trkpt>
      <trkpt lat="50.03571" lon="4.12546">
        <ele>258.2</ele>
        <time>2024-05-04T09:43:25Z</time>
      </trkpt>
      <trkpt lat="50.03568" lon="4.12555">
        <ele>258.4</ele>
        <time>2024-05-04T09:43:26Z</time>
      </trkpt>
      <trkpt lat="50.03566" lon="4.12564">
        <ele>258.2</ele>
        <time>2024-05-04T09:43:27Z</time>
      </trkpt>
      <trkpt lat="50.03563" lon="4.12574">
        <ele>258.2</ele>
        <time>2024-05-04T09:43:28Z</time>
      </trkpt>
      <trkpt lat="50.0356" lon="4.12583">
        <ele>258.2</ele>
        <time>2024-05-04T09:43:29Z</time>
      </trkpt>
      <trkpt lat="50.03557" lon="4.12592">
        <ele>258</ele>
        <time>2024-05-04T09:43:30Z</time>
      </trkpt>
      <trkpt lat="50.03554" lon="4.12601">
        <ele>258.2</ele>
        <time>2024-05-04T09:43:31Z</time>
      </trkpt>
      <trkpt lat="50.03551" lon="4.1261">
        <ele>258.2</ele>
        <time>2024-05-04T09:43:32Z</time>
      </trkpt>
      <trkpt lat="50.03548" lon="4.1262">
        <ele>258</ele>
        <time>2024-05-04T09:43:33Z</time>
      </trkpt>
      <trkpt lat="50.03545" lon="4.12629">
        <ele>258</ele>
        <time>2024-05-04T09:43:34Z</time>
      </trkpt>
      <trkpt lat="50.03541" lon="4.12638">
        <ele>258</ele>
        <time>2024-05-04T09:43:35Z</time>
      </trkpt>
      <trkpt lat="50.03538" lon="4.12647">
        <ele>258</ele>
        <time>2024-05-04T09:43:36Z</time>
      </trkpt>
      <trkpt lat="50.03535" lon="4.12657">
        <ele>257.8</ele>
        <time>2024-05-04T09:43:37Z</time>
      </trkpt>
      <trkpt lat="50.03532" lon="4.12666">
        <ele>257.8</ele>
        <time>2024-05-04T09:43:38Z</time>
      </trkpt>
      <trkpt lat="50.03528" lon="4.12676">
        <ele>257.8</ele>
        <time>2024-05-04T09:43:39Z</time>
      </trkpt>
      <trkpt lat="50.03525" lon="4.12685">
        <ele>257.8</ele>
        <time>2024-05-04T09:43:40Z</time>
      </trkpt>
      <trkpt lat="50.03521" lon="4.12695">
        <ele>257.6</ele>
        <time>2024-05-04T09:43:41Z</time>
      </trkpt>
      <trkpt lat="50.03518" lon="4.12704">
        <ele>257.6</ele>
        <time>2024-05-04T09:43:42Z</time>
      </trkpt>
      <trkpt lat="50.03515" lon="4.12714">
        <ele>257.6</ele>
        <time>2024-05-04T09:43:43Z</time>
      </trkpt>
      <trkpt lat="50.03511" lon="4.12723">
        <ele>257.8</ele>
        <time>2024-05-04T09:43:44Z</time>
      </trkpt>
      <trkpt lat="50.03508" lon="4.12732">
        <ele>257.6</ele>
        <time>2024-05-04T09:43:45Z</time>
      </trkpt>
      <trkpt lat="50.03505" lon="4.12741">
        <ele>257.6</ele>
        <time>2024-05-04T09:43:46Z</time>
      </trkpt>
      <trkpt lat="50.03501" lon="4.12751">
        <ele>257.6</ele>
        <time>2024-05-04T09:43:47Z</time>
      </trkpt>
      <trkpt lat="50.03498" lon="4.1276">
        <ele>257.6</ele>
        <time>2024-05-04T09:43:48Z</time>
      </trkpt>
      <trkpt lat="50.03495" lon="4.12769">
        <ele>257.6</ele>
        <time>2024-05-04T09:43:49Z</time>
      </trkpt>
      <trkpt lat="50.03491" lon="4.12778">
        <ele>257.4</ele>
        <time>2024-05-04T09:43:50Z</time>
      </trkpt>
      <trkpt lat="50.03488" lon="4.12787">
        <ele>257.4</ele>
        <time>2024-05-04T09:43:51Z</time>
      </trkpt>
      <trkpt lat="50.03484" lon="4.12796">
        <ele>257.4</ele>
        <time>2024-05-04T09:43:52Z</time>
      </trkpt>
      <trkpt lat="50.03481" lon="4.12805">
        <ele>257</ele>
        <time>2024-05-04T09:43:53Z</time>
      </trkpt>
      <trkpt lat="50.03477" lon="4.12814">
        <ele>257.2</ele>
        <time>2024-05-04T09:43:54Z</time>
      </trkpt>
      <trkpt lat="50.03473" lon="4.12823">
        <ele>257.2</ele>
        <time>2024-05-04T09:43:55Z</time>
      </trkpt>
      <trkpt lat="50.0347" lon="4.12831">
        <ele>257</ele>
        <time>2024-05-04T09:43:56Z</time>
      </trkpt>
      <trkpt lat="50.03466" lon="4.12839">
        <ele>256.6</ele>
        <time>2024-05-04T09:43:57Z</time>
      </trkpt>
      <trkpt lat="50.03462" lon="4.12847">
        <ele>256.2</ele>
        <time>2024-05-04T09:43:58Z</time>
      </trkpt>
      <trkpt lat="50.03458" lon="4.12855">
        <ele>256.2</ele>
        <time>2024-05-04T09:43:59Z</time>
      </trkpt>
      <trkpt lat="50.03453" lon="4.12862">
        <ele>256</ele>
        <time>2024-05-04T09:44:00Z</time>
      </trkpt>
      <trkpt lat="50.03449" lon="4.12869">
        <ele>256</ele>
        <time>2024-05-04T09:44:01Z</time>
      </trkpt>
      <trkpt lat="50.03445" lon="4.12876">
        <ele>256</ele>
        <time>2024-05-04T09:44:02Z</time>
      </trkpt>
      <trkpt lat="50.0344" lon="4.12883">
        <ele>256</ele>
        <time>2024-05-04T09:44:03Z</time>
      </trkpt>
      <trkpt lat="50.03436" lon="4.1289">
        <ele>256</ele>
        <time>2024-05-04T09:44:04Z</time>
      </trkpt>
      <trkpt lat="50.03431" lon="4.12897">
        <ele>256</ele>
        <time>2024-05-04T09:44:05Z</time>
      </trkpt>
      <trkpt lat="50.03427" lon="4.12904">
        <ele>256</ele>
        <time>2024-05-04T09:44:06Z</time>
      </trkpt>
      <trkpt lat="50.03423" lon="4.1291">
        <ele>256</ele>
        <time>2024-05-04T09:44:07Z</time>
      </trkpt>
      <trkpt lat="50.03418" lon="4.12917">
        <ele>256.2</ele>
        <time>2024-05-04T09:44:08Z</time>
      </trkpt>
      <trkpt lat="50.03414" lon="4.12923">
        <ele>256.2</ele>
        <time>2024-05-04T09:44:09Z</time>
      </trkpt>
      <trkpt lat="50.0341" lon="4.1293">
        <ele>256.6</ele>
        <time>2024-05-04T09:44:10Z</time>
      </trkpt>
      <trkpt lat="50.03405" lon="4.12936">
        <ele>257</ele>
        <time>2024-05-04T09:44:11Z</time>
      </trkpt>
      <trkpt lat="50.03401" lon="4.12942">
        <ele>257</ele>
        <time>2024-05-04T09:44:12Z</time>
      </trkpt>
      <trkpt lat="50.03397" lon="4.12948">
        <ele>257.2</ele>
        <time>2024-05-04T09:44:13Z</time>
      </trkpt>
      <trkpt lat="50.03392" lon="4.12954">
        <ele>257.6</ele>
        <time>2024-05-04T09:44:14Z</time>
      </trkpt>
      <trkpt lat="50.03388" lon="4.1296">
        <ele>257.8</ele>
        <time>2024-05-04T09:44:15Z</time>
      </trkpt>
      <trkpt lat="50.03384" lon="4.12966">
        <ele>258</ele>
        <time>2024-05-04T09:44:16Z</time>
      </trkpt>
      <trkpt lat="50.03379" lon="4.12972">
        <ele>258.2</ele>
        <time>2024-05-04T09:44:17Z</time>
      </trkpt>
      <trkpt lat="50.03375" lon="4.12978">
        <ele>258.2</ele>
        <time>2024-05-04T09:44:18Z</time>
      </trkpt>
      <trkpt lat="50.0337" lon="4.12983">
        <ele>258.2</ele>
        <time>2024-05-04T09:44:19Z</time>
      </trkpt>
      <trkpt lat="50.03366" lon="4.12989">
        <ele>258.2</ele>
        <time>2024-05-04T09:44:20Z</time>
      </trkpt>
      <trkpt lat="50.03362" lon="4.12995">
        <ele>258.2</ele>
        <time>2024-05-04T09:44:21Z</time>
      </trkpt>
      <trkpt lat="50.03357" lon="4.13">
        <ele>258.2</ele>
        <time>2024-05-04T09:44:22Z</time>
      </trkpt>
      <trkpt lat="50.03353" lon="4.13006">
        <ele>258.4</ele>
        <time>2024-05-04T09:44:23Z</time>
      </trkpt>
      <trkpt lat="50.03348" lon="4.13011">
        <ele>258.4</ele>
        <time>2024-05-04T09:44:24Z</time>
      </trkpt>
      <trkpt lat="50.03344" lon="4.13016">
        <ele>258.8</ele>
        <time>2024-05-04T09:44:25Z</time>
      </trkpt>
      <trkpt lat="50.03339" lon="4.13021">
        <ele>259</ele>
        <time>2024-05-04T09:44:26Z</time>
      </trkpt>
      <trkpt lat="50.03334" lon="4.13026">
        <ele>259.4</ele>
        <time>2024-05-04T09:44:27Z</time>
      </trkpt>
      <trkpt lat="50.0333" lon="4.1303">
        <ele>259.2</ele>
        <time>2024-05-04T09:44:28Z</time>
      </trkpt>
      <trkpt lat="50.03325" lon="4.13035">
        <ele>259.4</ele>
        <time>2024-05-04T09:44:29Z</time>
      </trkpt>
      <trkpt lat="50.0332" lon="4.13039">
        <ele>259.2</ele>
        <time>2024-05-04T09:44:30Z</time>
      </trkpt>
      <trkpt lat="50.03315" lon="4.13043">
        <ele>259.2</ele>
        <time>2024-05-04T09:44:31Z</time>
      </trkpt>
      <trkpt lat="50.0331" lon="4.13046">
        <ele>259.4</ele>
        <time>2024-05-04T09:44:32Z</time>
      </trkpt>
      <trkpt lat="50.03305" lon="4.1305">
        <ele>259.4</ele>
        <time>2024-05-04T09:44:33Z</time>
      </trkpt>
      <trkpt lat="50.033" lon="4.13053">
        <ele>259.8</ele>
        <time>2024-05-04T09:44:34Z</time>
      </trkpt>
      <trkpt lat="50.03295" lon="4.13056">
        <ele>259.8</ele>
        <time>2024-05-04T09:44:35Z</time>
      </trkpt>
      <trkpt lat="50.0329" lon="4.13059">
        <ele>260</ele>
        <time>2024-05-04T09:44:36Z</time>
      </trkpt>
      <trkpt lat="50.03285" lon="4.13062">
        <ele>260.2</ele>
        <time>2024-05-04T09:44:37Z</time>
      </trkpt>
      <trkpt lat="50.03279" lon="4.13064">
        <ele>260.6</ele>
        <time>2024-05-04T09:44:38Z</time>
      </trkpt>
      <trkpt lat="50.03274" lon="4.13066">
        <ele>260.8</ele>
        <time>2024-05-04T09:44:39Z</time>
      </trkpt>
      <trkpt lat="50.03268" lon="4.13068">
        <ele>261</ele>
        <time>2024-05-04T09:44:40Z</time>
      </trkpt>
      <trkpt lat="50.03263" lon="4.1307">
        <ele>261.2</ele>
        <time>2024-05-04T09:44:41Z</time>
      </trkpt>
      <trkpt lat="50.03257" lon="4.13072">
        <ele>261.4</ele>
        <time>2024-05-04T09:44:42Z</time>
      </trkpt>
      <trkpt lat="50.03252" lon="4.13073">
        <ele>261.6</ele>
        <time>2024-05-04T09:44:43Z</time>
      </trkpt>
      <trkpt lat="50.03246" lon="4.13075">
        <ele>261.6</ele>
        <time>2024-05-04T09:44:44Z</time>
      </trkpt>
      <trkpt lat="50.0324" lon="4.13076">
        <ele>261.6</ele>
        <time>2024-05-04T09:44:45Z</time>
      </trkpt>
      <trkpt lat="50.03235" lon="4.13077">
        <ele>261.8</ele>
        <time>2024-05-04T09:44:46Z</time>
      </trkpt>
      <trkpt lat="50.03229" lon="4.13079">
        <ele>261.8</ele>
        <time>2024-05-04T09:44:47Z</time>
      </trkpt>
      <trkpt lat="50.03223" lon="4.1308">
        <ele>261.8</ele>
        <time>2024-05-04T09:44:48Z</time>
      </trkpt>
      <trkpt lat="50.03217" lon="4.13082">
        <ele>261.8</ele>
        <time>2024-05-04T09:44:49Z</time>
      </trkpt>
      <trkpt lat="50.03211" lon="4.13083">
        <ele>261.8</ele>
        <time>2024-05-04T09:44:50Z</time>
      </trkpt>
      <trkpt lat="50.03205" lon="4.13084">
        <ele>261.8</ele>
        <time>2024-05-04T09:44:51Z</time>
      </trkpt>
      <trkpt lat="50.03199" lon="4.13086">
        <ele>261.8</ele>
        <time>2024-05-04T09:44:52Z</time>
      </trkpt>
      <trkpt lat="50.03193" lon="4.13087">
        <ele>261.8</ele>
        <time>2024-05-04T09:44:53Z</time>
      </trkpt>
      <trkpt lat="50.03186" lon="4.13089">
        <ele>261.8</ele>
        <time>2024-05-04T09:44:54Z</time>
      </trkpt>
      <trkpt lat="50.0318" lon="4.1309">
        <ele>261.8</ele>
        <time>2024-05-04T09:44:55Z</time>
      </trkpt>
      <trkpt lat="50.03173" lon="4.13092">
        <ele>261.8</ele>
        <time>2024-05-04T09:44:56Z</time>
      </trkpt>
      <trkpt lat="50.03167" lon="4.13093">
        <ele>261.8</ele>
        <time>2024-05-04T09:44:57Z</time>
      </trkpt>
      <trkpt lat="50.0316" lon="4.13095">
        <ele>261.8</ele>
        <time>2024-05-04T09:44:58Z</time>
      </trkpt>
      <trkpt lat="50.03154" lon="4.13097">
        <ele>261.8</ele>
        <time>2024-05-04T09:44:59Z</time>
      </trkpt>
      <trkpt lat="50.03147" lon="4.13099">
        <ele>261.4</ele>
        <time>2024-05-04T09:45:00Z</time>
      </trkpt>
      <trkpt lat="50.03141" lon="4.13103">
        <ele>261.2</ele>
        <time>2024-05-04T09:45:01Z</time>
      </trkpt>
      <trkpt lat="50.03135" lon="4.13109">
        <ele>261.2</ele>
        <time>2024-05-04T09:45:02Z</time>
      </trkpt>
      <trkpt lat="50.03131" lon="4.13117">
        <ele>261.2</ele>
        <time>2024-05-04T09:45:03Z</time>
      </trkpt>
      <trkpt lat="50.03128" lon="4.13126">
        <ele>261</ele>
        <time>2024-05-04T09:45:04Z</time>
      </trkpt>
      <trkpt lat="50.03125" lon="4.13136">
        <ele>260.8</ele>
        <time>2024-05-04T09:45:05Z</time>
      </trkpt>
      <trkpt lat="50.03123" lon="4.13146">
        <ele>260.6</ele>
        <time>2024-05-04T09:45:06Z</time>
      </trkpt>
      <trkpt lat="50.03122" lon="4.13156">
        <ele>260.6</ele>
        <time>2024-05-04T09:45:07Z</time>
      </trkpt>
      <trkpt lat="50.03121" lon="4.13167">
        <ele>260.4</ele>
        <time>2024-05-04T09:45:08Z</time>
      </trkpt>
      <trkpt lat="50.0312" lon="4.13177">
        <ele>260.2</ele>
        <time>2024-05-04T09:45:09Z</time>
      </trkpt>
      <trkpt lat="50.03118" lon="4.13187">
        <ele>260.4</ele>
        <time>2024-05-04T09:45:10Z</time>
      </trkpt>
      <trkpt lat="50.03117" lon="4.13198">
        <ele>260.4</ele>
        <time>2024-05-04T09:45:11Z</time>
      </trkpt>
      <trkpt lat="50.03116" lon="4.13208">
        <ele>260.4</ele>
        <time>2024-05-04T09:45:12Z</time>
      </trkpt>
      <trkpt lat="50.03114" lon="4.13219">
        <ele>260.2</ele>
        <time>2024-05-04T09:45:13Z</time>
      </trkpt>
      <trkpt lat="50.03113" lon="4.1323">
        <ele>260.2</ele>
        <time>2024-05-04T09:45:14Z</time>
      </trkpt>
      <trkpt lat="50.03112" lon="4.1324">
        <ele>260.2</ele>
        <time>2024-05-04T09:45:15Z</time>
      </trkpt>
      <trkpt lat="50.03111" lon="4.13251">
        <ele>260.2</ele>
        <time>2024-05-04T09:45:16Z</time>
      </trkpt>
      <trkpt lat="50.0311" lon="4.13262">
        <ele>260</ele>
        <time>2024-05-04T09:45:17Z</time>
      </trkpt>
      <trkpt lat="50.03108" lon="4.13273">
        <ele>259.8</ele>
        <time>2024-05-04T09:45:18Z</time>
      </trkpt>
      <trkpt lat="50.03107" lon="4.13284">
        <ele>259.6</ele>
        <time>2024-05-04T09:45:19Z</time>
      </trkpt>
      <trkpt lat="50.03106" lon="4.13296">
        <ele>259.6</ele>
        <time>2024-05-04T09:45:20Z</time>
      </trkpt>
      <trkpt lat="50.03104" lon="4.13308">
        <ele>259.4</ele>
        <time>2024-05-04T09:45:21Z</time>
      </trkpt>
      <trkpt lat="50.03102" lon="4.13319">
        <ele>259.2</ele>
        <time>2024-05-04T09:45:22Z</time>
      </trkpt>
      <trkpt lat="50.03101" lon="4.13331">
        <ele>259</ele>
        <time>2024-05-04T09:45:23Z</time>
      </trkpt>
      <trkpt lat="50.03099" lon="4.13343">
        <ele>258.6</ele>
        <time>2024-05-04T09:45:24Z</time>
      </trkpt>
      <trkpt lat="50.03097" lon="4.13355">
        <ele>258.6</ele>
        <time>2024-05-04T09:45:25Z</time>
      </trkpt>
      <trkpt lat="50.03095" lon="4.13366">
        <ele>258.4</ele>
        <time>2024-05-04T09:45:26Z</time>
      </trkpt>
      <trkpt lat="50.03093" lon="4.13378">
        <ele>258.2</ele>
        <time>2024-05-04T09:45:27Z</time>
      </trkpt>
      <trkpt lat="50.03091" lon="4.1339">
        <ele>258.2</ele>
        <time>2024-05-04T09:45:28Z</time>
      </trkpt>
      <trkpt lat="50.03089" lon="4.13402">
        <ele>257.8</ele>
        <time>2024-05-04T09:45:29Z</time>
      </trkpt>
      <trkpt lat="50.03086" lon="4.13414">
        <ele>257.8</ele>
        <time>2024-05-04T09:45:30Z</time>
      </trkpt>
      <trkpt lat="50.03084" lon="4.13425">
        <ele>257.6</ele>
        <time>2024-05-04T09:45:31Z</time>
      </trkpt>
      <trkpt lat="50.03081" lon="4.13437">
        <ele>256.8</ele>
        <time>2024-05-04T09:45:32Z</time>
      </trkpt>
      <trkpt lat="50.03078" lon="4.13449">
        <ele>256.2</ele>
        <time>2024-05-04T09:45:33Z</time>
      </trkpt>
      <trkpt lat="50.03075" lon="4.13461">
        <ele>256</ele>
        <time>2024-05-04T09:45:34Z</time>
      </trkpt>
      <trkpt lat="50.03072" lon="4.13472">
        <ele>255.8</ele>
        <time>2024-05-04T09:45:35Z</time>
      </trkpt>
      <trkpt lat="50.03069" lon="4.13484">
        <ele>255.6</ele>
        <time>2024-05-04T09:45:36Z</time>
      </trkpt>
      <trkpt lat="50.03066" lon="4.13495">
        <ele>255.4</ele>
        <time>2024-05-04T09:45:37Z</time>
      </trkpt>
      <trkpt lat="50.03062" lon="4.13506">
        <ele>255.2</ele>
        <time>2024-05-04T09:45:38Z</time>
      </trkpt>
      <trkpt lat="50.03059" lon="4.13517">
        <ele>254.6</ele>
        <time>2024-05-04T09:45:39Z</time>
      </trkpt>
      <trkpt lat="50.03056" lon="4.13528">
        <ele>254.4</ele>
        <time>2024-05-04T09:45:40Z</time>
      </trkpt>
      <trkpt lat="50.03053" lon="4.13539">
        <ele>254.4</ele>
        <time>2024-05-04T09:45:41Z</time>
      </trkpt>
      <trkpt lat="50.0305" lon="4.13549">
        <ele>254.2</ele>
        <time>2024-05-04T09:45:42Z</time>
      </trkpt>
      <trkpt lat="50.03046" lon="4.1356">
        <ele>254.2</ele>
        <time>2024-05-04T09:45:43Z</time>
      </trkpt>
      <trkpt lat="50.03043" lon="4.1357">
        <ele>254</ele>
        <time>2024-05-04T09:45:44Z</time>
      </trkpt>
      <trkpt lat="50.0304" lon="4.1358">
        <ele>254</ele>
        <time>2024-05-04T09:45:45Z</time>
      </trkpt>
      <trkpt lat="50.03037" lon="4.13591">
        <ele>253.8</ele>
        <time>2024-05-04T09:45:46Z</time>
      </trkpt>
      <trkpt lat="50.03034" lon="4.13601">
        <ele>253.8</ele>
        <time>2024-05-04T09:45:47Z</time>
      </trkpt>
      <trkpt lat="50.03031" lon="4.13611">
        <ele>253.8</ele>
        <time>2024-05-04T09:45:48Z</time>
      </trkpt>
      <trkpt lat="50.03028" lon="4.13621">
        <ele>253.8</ele>
        <time>2024-05-04T09:45:49Z</time>
      </trkpt>
      <trkpt lat="50.03025" lon="4.1363">
        <ele>254</ele>
        <time>2024-05-04T09:45:50Z</time>
      </trkpt>
      <trkpt lat="50.03022" lon="4.1364">
        <ele>254</ele>
        <time>2024-05-04T09:45:51Z</time>
      </trkpt>
      <trkpt lat="50.03019" lon="4.13649">
        <ele>254</ele>
        <time>2024-05-04T09:45:52Z</time>
      </trkpt>
      <trkpt lat="50.03016" lon="4.13659">
        <ele>254.2</ele>
        <time>2024-05-04T09:45:53Z</time>
      </trkpt>
      <trkpt lat="50.03013" lon="4.13668">
        <ele>254.2</ele>
        <time>2024-05-04T09:45:54Z</time>
      </trkpt>
      <trkpt lat="50.03011" lon="4.13677">
        <ele>254.2</ele>
        <time>2024-05-04T09:45:55Z</time>
      </trkpt>
      <trkpt lat="50.03008" lon="4.13687">
        <ele>254.4</ele>
        <time>2024-05-04T09:45:56Z</time>
      </trkpt>
      <trkpt lat="50.03005" lon="4.13695">
        <ele>254.4</ele>
        <time>2024-05-04T09:45:57Z</time>
      </trkpt>
      <trkpt lat="50.03002" lon="4.13704">
        <ele>254.6</ele>
        <time>2024-05-04T09:45:58Z</time>
      </trkpt>
      <trkpt lat="50.02999" lon="4.13713">
        <ele>254.8</ele>
        <time>2024-05-04T09:45:59Z</time>
      </trkpt>
      <trkpt lat="50.02996" lon="4.13722">
        <ele>254.8</ele>
        <time>2024-05-04T09:46:00Z</time>
      </trkpt>
      <trkpt lat="50.02994" lon="4.13731">
        <ele>254.8</ele>
        <time>2024-05-04T09:46:01Z</time>
      </trkpt>
      <trkpt lat="50.02991" lon="4.13739">
        <ele>255</ele>
        <time>2024-05-04T09:46:02Z</time>
      </trkpt>
      <trkpt lat="50.02989" lon="4.13748">
        <ele>255</ele>
        <time>2024-05-04T09:46:03Z</time>
      </trkpt>
      <trkpt lat="50.02986" lon="4.13756">
        <ele>255.2</ele>
        <time>2024-05-04T09:46:04Z</time>
      </trkpt>
      <trkpt lat="50.02983" lon="4.13765">
        <ele>255.4</ele>
        <time>2024-05-04T09:46:05Z</time>
      </trkpt>
      <trkpt lat="50.02981" lon="4.13773">
        <ele>255.8</ele>
        <time>2024-05-04T09:46:06Z</time>
      </trkpt>
      <trkpt lat="50.02979" lon="4.13781">
        <ele>255.8</ele>
        <time>2024-05-04T09:46:07Z</time>
      </trkpt>
      <trkpt lat="50.02976" lon="4.1379">
        <ele>256</ele>
        <time>2024-05-04T09:46:08Z</time>
      </trkpt>
      <trkpt lat="50.02974" lon="4.13798">
        <ele>256</ele>
        <time>2024-05-04T09:46:09Z</time>
      </trkpt>
      <trkpt lat="50.02972" lon="4.13806">
        <ele>256.2</ele>
        <time>2024-05-04T09:46:10Z</time>
      </trkpt>
      <trkpt lat="50.0297" lon="4.13814">
        <ele>256.2</ele>
        <time>2024-05-04T09:46:11Z</time>
      </trkpt>
      <trkpt lat="50.02969" lon="4.13822">
        <ele>256.2</ele>
        <time>2024-05-04T09:46:12Z</time>
      </trkpt>
      <trkpt lat="50.02967" lon="4.1383">
        <ele>256.4</ele>
        <time>2024-05-04T09:46:13Z</time>
      </trkpt>
      <trkpt lat="50.02965" lon="4.13839">
        <ele>256.4</ele>
        <time>2024-05-04T09:46:14Z</time>
      </trkpt>
      <trkpt lat="50.02964" lon="4.13847">
        <ele>256.6</ele>
        <time>2024-05-04T09:46:15Z</time>
      </trkpt>
      <trkpt lat="50.02962" lon="4.13855">
        <ele>256.6</ele>
        <time>2024-05-04T09:46:16Z</time>
      </trkpt>
      <trkpt lat="50.02961" lon="4.13864">
        <ele>256.6</ele>
        <time>2024-05-04T09:46:17Z</time>
      </trkpt>
      <trkpt lat="50.0296" lon="4.13872">
        <ele>256.8</ele>
        <time>2024-05-04T09:46:18Z</time>
      </trkpt>
      <trkpt lat="50.02959" lon="4.1388">
        <ele>257.2</ele>
        <time>2024-05-04T09:46:19Z</time>
      </trkpt>
      <trkpt lat="50.02957" lon="4.13889">
        <ele>257.6</ele>
        <time>2024-05-04T09:46:20Z</time>
      </trkpt>
      <trkpt lat="50.02956" lon="4.13897">
        <ele>257.8</ele>
        <time>2024-05-04T09:46:21Z</time>
      </trkpt>
      <trkpt lat="50.02955" lon="4.13905">
        <ele>258.2</ele>
        <time>2024-05-04T09:46:22Z</time>
      </trkpt>
      <trkpt lat="50.02954" lon="4.13913">
        <ele>258.2</ele>
        <time>2024-05-04T09:46:23Z</time>
      </trkpt>
      <trkpt lat="50.02952" lon="4.13921">
        <ele>258.4</ele>
        <time>2024-05-04T09:46:24Z</time>
      </trkpt>
      <trkpt lat="50.02951" lon="4.13929">
        <ele>258.4</ele>
        <time>2024-05-04T09:46:25Z</time>
      </trkpt>
      <trkpt lat="50.0295" lon="4.13937">
        <ele>258.4</ele>
        <time>2024-05-04T09:46:26Z</time>
      </trkpt>
      <trkpt lat="50.02949" lon="4.13945">
        <ele>258.4</ele>
        <time>2024-05-04T09:46:27Z</time>
      </trkpt>
      <trkpt lat="50.02948" lon="4.13953">
        <ele>258.6</ele>
        <time>2024-05-04T09:46:28Z</time>
      </trkpt>
      <trkpt lat="50.02946" lon="4.13961">
        <ele>258.8</ele>
        <time>2024-05-04T09:46:29Z</time>
      </trkpt>
      <trkpt lat="50.02945" lon="4.13969">
        <ele>258.8</ele>
        <time>2024-05-04T09:46:30Z</time>
      </trkpt>
      <trkpt lat="50.02943" lon="4.13977">
        <ele>258.8</ele>
        <time>2024-05-04T09:46:31Z</time>
      </trkpt>
      <trkpt lat="50.02941" lon="4.13985">
        <ele>259.2</ele>
        <time>2024-05-04T09:46:32Z</time>
      </trkpt>
      <trkpt lat="50.0294" lon="4.13992">
        <ele>259.2</ele>
        <time>2024-05-04T09:46:33Z</time>
      </trkpt>
      <trkpt lat="50.02938" lon="4.14">
        <ele>259.2</ele>
        <time>2024-05-04T09:46:34Z</time>
      </trkpt>
      <trkpt lat="50.02935" lon="4.14007">
        <ele>259.4</ele>
        <time>2024-05-04T09:46:35Z</time>
      </trkpt>
      <trkpt lat="50.02933" lon="4.14014">
        <ele>259.4</ele>
        <time>2024-05-04T09:46:36Z</time>
      </trkpt>
      <trkpt lat="50.02931" lon="4.14021">
        <ele>259.6</ele>
        <time>2024-05-04T09:46:37Z</time>
      </trkpt>
      <trkpt lat="50.02929" lon="4.14029">
        <ele>259.8</ele>
        <time>2024-05-04T09:46:38Z</time>
      </trkpt>
      <trkpt lat="50.02926" lon="4.14036">
        <ele>260</ele>
        <time>2024-05-04T09:46:39Z</time>
      </trkpt>
      <trkpt lat="50.02924" lon="4.14043">
        <ele>260</ele>
        <time>2024-05-04T09:46:40Z</time>
      </trkpt>
      <trkpt lat="50.02921" lon="4.1405">
        <ele>260</ele>
        <time>2024-05-04T09:46:41Z</time>
      </trkpt>
      <trkpt lat="50.02919" lon="4.14058">
        <ele>260.2</ele>
        <time>2024-05-04T09:46:42Z</time>
      </trkpt>
      <trkpt lat="50.02916" lon="4.14065">
        <ele>260.2</ele>
        <time>2024-05-04T09:46:43Z</time>
      </trkpt>
      <trkpt lat="50.02914" lon="4.14073">
        <ele>260.4</ele>
        <time>2024-05-04T09:46:44Z</time>
      </trkpt>
      <trkpt lat="50.02911" lon="4.14081">
        <ele>260.4</ele>
        <time>2024-05-04T09:46:45Z</time>
      </trkpt>
      <trkpt lat="50.02909" lon="4.14089">
        <ele>260.4</ele>
        <time>2024-05-04T09:46:46Z</time>
      </trkpt>
      <trkpt lat="50.02907" lon="4.14097">
        <ele>260.4</ele>
        <time>2024-05-04T09:46:47Z</time>
      </trkpt>
      <trkpt lat="50.02906" lon="4.14105">
        <ele>260.6</ele>
        <time>2024-05-04T09:46:48Z</time>
      </trkpt>
      <trkpt lat="50.02905" lon="4.14114">
        <ele>260.8</ele>
        <time>2024-05-04T09:46:49Z</time>
      </trkpt>
      <trkpt lat="50.02904" lon="4.14122">
        <ele>261</ele>
        <time>2024-05-04T09:46:50Z</time>
      </trkpt>
      <trkpt lat="50.02903" lon="4.14131">
        <ele>260.8</ele>
        <time>2024-05-04T09:46:51Z</time>
      </trkpt>
      <trkpt lat="50.02902" lon="4.14139">
        <ele>260.8</ele>
        <time>2024-05-04T09:46:52Z</time>
      </trkpt>
      <trkpt lat="50.02902" lon="4.14147">
        <ele>260.8</ele>
        <time>2024-05-04T09:46:53Z</time>
      </trkpt>
      <trkpt lat="50.02901" lon="4.14156">
        <ele>261</ele>
        <time>2024-05-04T09:46:54Z</time>
      </trkpt>
      <trkpt lat="50.02901" lon="4.14164">
        <ele>261.2</ele>
        <time>2024-05-04T09:46:55Z</time>
      </trkpt>
      <trkpt lat="50.02901" lon="4.14173">
        <ele>261.2</ele>
        <time>2024-05-04T09:46:56Z</time>
      </trkpt>
      <trkpt lat="50.02901" lon="4.14182">
        <ele>261.4</ele>
        <time>2024-05-04T09:46:57Z</time>
      </trkpt>
      <trkpt lat="50.029" lon="4.14192">
        <ele>261.4</ele>
        <time>2024-05-04T09:46:58Z</time>
      </trkpt>
      <trkpt lat="50.029" lon="4.14201">
        <ele>261.4</ele>
        <time>2024-05-04T09:46:59Z</time>
      </trkpt>
      <trkpt lat="50.029" lon="4.14211">
        <ele>261.4</ele>
        <time>2024-05-04T09:47:00Z</time>
      </trkpt>
      <trkpt lat="50.029" lon="4.1422">
        <ele>261.4</ele>
        <time>2024-05-04T09:47:01Z</time>
      </trkpt>
      <trkpt lat="50.029" lon="4.1423">
        <ele>261.2</ele>
        <time>2024-05-04T09:47:02Z</time>
      </trkpt>
      <trkpt lat="50.029" lon="4.14241">
        <ele>261.2</ele>
        <time>2024-05-04T09:47:03Z</time>
      </trkpt>
      <trkpt lat="50.029" lon="4.14252">
        <ele>261.4</ele>
        <time>2024-05-04T09:47:04Z</time>
      </trkpt>
      <trkpt lat="50.02899" lon="4.14262">
        <ele>261.4</ele>
        <time>2024-05-04T09:47:05Z</time>
      </trkpt>
      <trkpt lat="50.02899" lon="4.14273">
        <ele>261.4</ele>
        <time>2024-05-04T09:47:06Z</time>
      </trkpt>
      <trkpt lat="50.02899" lon="4.14284">
        <ele>261.4</ele>
        <time>2024-05-04T09:47:07Z</time>
      </trkpt>
      <trkpt lat="50.02899" lon="4.14295">
        <ele>261.4</ele>
        <time>2024-05-04T09:47:08Z</time>
      </trkpt>
      <trkpt lat="50.02899" lon="4.14307">
        <ele>261.4</ele>
        <time>2024-05-04T09:47:09Z</time>
      </trkpt>
      <trkpt lat="50.02899" lon="4.14318">
        <ele>261.2</ele>
        <time>2024-05-04T09:47:10Z</time>
      </trkpt>
      <trkpt lat="50.02899" lon="4.14329">
        <ele>261</ele>
        <time>2024-05-04T09:47:11Z</time>
      </trkpt>
      <trkpt lat="50.02899" lon="4.14341">
        <ele>261</ele>
        <time>2024-05-04T09:47:12Z</time>
      </trkpt>
      <trkpt lat="50.02898" lon="4.14353">
        <ele>260.8</ele>
        <time>2024-05-04T09:47:13Z</time>
      </trkpt>
      <trkpt lat="50.02898" lon="4.14365">
        <ele>260.6</ele>
        <time>2024-05-04T09:47:14Z</time>
      </trkpt>
      <trkpt lat="50.02898" lon="4.14377">
        <ele>260.4</ele>
        <time>2024-05-04T09:47:15Z</time>
      </trkpt>
      <trkpt lat="50.02898" lon="4.1439">
        <ele>259.8</ele>
        <time>2024-05-04T09:47:16Z</time>
      </trkpt>
      <trkpt lat="50.02897" lon="4.14402">
        <ele>259.4</ele>
        <time>2024-05-04T09:47:17Z</time>
      </trkpt>
      <trkpt lat="50.02897" lon="4.14415">
        <ele>258.2</ele>
        <time>2024-05-04T09:47:18Z</time>
      </trkpt>
      <trkpt lat="50.02897" lon="4.14428">
        <ele>257.8</ele>
        <time>2024-05-04T09:47:19Z</time>
      </trkpt>
      <trkpt lat="50.02897" lon="4.1444">
        <ele>257.4</ele>
        <time>2024-05-04T09:47:20Z</time>
      </trkpt>
      <trkpt lat="50.02897" lon="4.14452">
        <ele>257</ele>
        <time>2024-05-04T09:47:21Z</time>
      </trkpt>
      <trkpt lat="50.02896" lon="4.14464">
        <ele>256.8</ele>
        <time>2024-05-04T09:47:22Z</time>
      </trkpt>
      <trkpt lat="50.02896" lon="4.14476">
        <ele>256.4</ele>
        <time>2024-05-04T09:47:23Z</time>
      </trkpt>
      <trkpt lat="50.02895" lon="4.14487">
        <ele>256.4</ele>
        <time>2024-05-04T09:47:24Z</time>
      </trkpt>
      <trkpt lat="50.02895" lon="4.14499">
        <ele>256.4</ele>
        <time>2024-05-04T09:47:25Z</time>
      </trkpt>
      <trkpt lat="50.02894" lon="4.14509">
        <ele>256.2</ele>
        <time>2024-05-04T09:47:26Z</time>
      </trkpt>
      <trkpt lat="50.02893" lon="4.1452">
        <ele>256.2</ele>
        <time>2024-05-04T09:47:27Z</time>
      </trkpt>
      <trkpt lat="50.02892" lon="4.1453">
        <ele>256.4</ele>
        <time>2024-05-04T09:47:28Z</time>
      </trkpt>
      <trkpt lat="50.02891" lon="4.1454">
        <ele>256.2</ele>
        <time>2024-05-04T09:47:29Z</time>
      </trkpt>
      <trkpt lat="50.02891" lon="4.1455">
        <ele>256.2</ele>
        <time>2024-05-04T09:47:30Z</time>
      </trkpt>
      <trkpt lat="50.0289" lon="4.14559">
        <ele>256.2</ele>
        <time>2024-05-04T09:47:31Z</time>
      </trkpt>
      <trkpt lat="50.02889" lon="4.14568">
        <ele>256.4</ele>
        <time>2024-05-04T09:47:32Z</time>
      </trkpt>
      <trkpt lat="50.02888" lon="4.14577">
        <ele>256.4</ele>
        <time>2024-05-04T09:47:33Z</time>
      </trkpt>
      <trkpt lat="50.02887" lon="4.14586">
        <ele>256.2</ele>
        <time>2024-05-04T09:47:34Z</time>
      </trkpt>
      <trkpt lat="50.02886" lon="4.14596">
        <ele>256.4</ele>
        <time>2024-05-04T09:47:35Z</time>
      </trkpt>
      <trkpt lat="50.02885" lon="4.14605">
        <ele>256.8</ele>
        <time>2024-05-04T09:47:36Z</time>
      </trkpt>
      <trkpt lat="50.02884" lon="4.14614">
        <ele>257.2</ele>
        <time>2024-05-04T09:47:37Z</time>
      </trkpt>
      <trkpt lat="50.02883" lon="4.14623">
        <ele>257.4</ele>
        <time>2024-05-04T09:47:38Z</time>
      </trkpt>
      <trkpt lat="50.02883" lon="4.14631">
        <ele>257.4</ele>
        <time>2024-05-04T09:47:39Z</time>
      </trkpt>
      <trkpt lat="50.02882" lon="4.1464">
        <ele>257.8</ele>
        <time>2024-05-04T09:47:40Z</time>
      </trkpt>
      <trkpt lat="50.02881" lon="4.14649">
        <ele>258</ele>
        <time>2024-05-04T09:47:41Z</time>
      </trkpt>
      <trkpt lat="50.0288" lon="4.14657">
        <ele>258</ele>
        <time>2024-05-04T09:47:42Z</time>
      </trkpt>
      <trkpt lat="50.02879" lon="4.14666">
        <ele>258.4</ele>
        <time>2024-05-04T09:47:43Z</time>
      </trkpt>
      <trkpt lat="50.02878" lon="4.14674">
        <ele>258.4</ele>
        <time>2024-05-04T09:47:44Z</time>
      </trkpt>
      <trkpt lat="50.02878" lon="4.14682">
        <ele>258.4</ele>
        <time>2024-05-04T09:47:45Z</time>
      </trkpt>
      <trkpt lat="50.02877" lon="4.14691">
        <ele>258.4</ele>
        <time>2024-05-04T09:47:46Z</time>
      </trkpt>
      <trkpt lat="50.02876" lon="4.14699">
        <ele>258.6</ele>
        <time>2024-05-04T09:47:47Z</time>
      </trkpt>
      <trkpt lat="50.02876" lon="4.14707">
        <ele>258.6</ele>
        <time>2024-05-04T09:47:48Z</time>
      </trkpt>
      <trkpt lat="50.02875" lon="4.14716">
        <ele>258.8</ele>
        <time>2024-05-04T09:47:49Z</time>
      </trkpt>
      <trkpt lat="50.02874" lon="4.14724">
        <ele>258.8</ele>
        <time>2024-05-04T09:47:50Z</time>
      </trkpt>
      <trkpt lat="50.02873" lon="4.14732">
        <ele>258.8</ele>
        <time>2024-05-04T09:47:51Z</time>
      </trkpt>
      <trkpt lat="50.02873" lon="4.14741">
        <ele>259</ele>
        <time>2024-05-04T09:47:52Z</time>
      </trkpt>
      <trkpt lat="50.02872" lon="4.14749">
        <ele>259</ele>
        <time>2024-05-04T09:47:53Z</time>
      </trkpt>
      <trkpt lat="50.02871" lon="4.14757">
        <ele>259</ele>
        <time>2024-05-04T09:47:54Z</time>
      </trkpt>
      <trkpt lat="50.0287" lon="4.14766">
        <ele>259</ele>
        <time>2024-05-04T09:47:55Z</time>
      </trkpt>
      <trkpt lat="50.0287" lon="4.14774">
        <ele>259.2</ele>
        <time>2024-05-04T09:47:56Z</time>
      </trkpt>
      <trkpt lat="50.02869" lon="4.14783">
        <ele>259.2</ele>
        <time>2024-05-04T09:47:57Z</time>
      </trkpt>
      <trkpt lat="50.02868" lon="4.14791">
        <ele>259.4</ele>
        <time>2024-05-04T09:47:58Z</time>
      </trkpt>
      <trkpt lat="50.02868" lon="4.148">
        <ele>259.4</ele>
        <time>2024-05-04T09:47:59Z</time>
      </trkpt>
      <trkpt lat="50.02866" lon="4.14808">
        <ele>259.4</ele>
        <time>2024-05-04T09:48:00Z</time>
      </trkpt>
      <trkpt lat="50.02862" lon="4.14815">
        <ele>259.6</ele>
        <time>2024-05-04T09:48:01Z</time>
      </trkpt>
      <trkpt lat="50.02857" lon="4.1482">
        <ele>259.6</ele>
        <time>2024-05-04T09:48:02Z</time>
      </trkpt>
      <trkpt lat="50.02851" lon="4.14822">
        <ele>259.6</ele>
        <time>2024-05-04T09:48:03Z</time>
      </trkpt>
      <trkpt lat="50.02845" lon="4.14823">
        <ele>259.6</ele>
        <time>2024-05-04T09:48:04Z</time>
      </trkpt>
      <trkpt lat="50.02839" lon="4.14824">
        <ele>259.6</ele>
        <time>2024-05-04T09:48:05Z</time>
      </trkpt>
      <trkpt lat="50.02833" lon="4.14824">
        <ele>259.6</ele>
        <time>2024-05-04T09:48:06Z</time>
      </trkpt>
      <trkpt lat="50.02827" lon="4.14825">
        <ele>259.6</ele>
        <time>2024-05-04T09:48:07Z</time>
      </trkpt>
      <trkpt lat="50.02821" lon="4.14826">
        <ele>259.6</ele>
        <time>2024-05-04T09:48:08Z</time>
      </trkpt>
      <trkpt lat="50.02816" lon="4.14827">
        <ele>259.8</ele>
        <time>2024-05-04T09:48:09Z</time>
      </trkpt>
      <trkpt lat="50.0281" lon="4.14828">
        <ele>259.6</ele>
        <time>2024-05-04T09:48:10Z</time>
      </trkpt>
      <trkpt lat="50.02804" lon="4.14829">
        <ele>259.8</ele>
        <time>2024-05-04T09:48:11Z</time>
      </trkpt>
      <trkpt lat="50.02798" lon="4.1483">
        <ele>259.6</ele>
        <time>2024-05-04T09:48:12Z</time>
      </trkpt>
      <trkpt lat="50.02793" lon="4.14831">
        <ele>259.8</ele>
        <time>2024-05-04T09:48:13Z</time>
      </trkpt>
      <trkpt lat="50.02787" lon="4.14832">
        <ele>259.8</ele>
        <time>2024-05-04T09:48:14Z</time>
      </trkpt>
      <trkpt lat="50.02781" lon="4.14833">
        <ele>260</ele>
        <time>2024-05-04T09:48:15Z</time>
      </trkpt>
      <trkpt lat="50.02776" lon="4.14835">
        <ele>260</ele>
        <time>2024-05-04T09:48:16Z</time>
      </trkpt>
      <trkpt lat="50.0277" lon="4.14836">
        <ele>260.2</ele>
        <time>2024-05-04T09:48:17Z</time>
      </trkpt>
      <trkpt lat="50.02765" lon="4.14837">
        <ele>260.2</ele>
        <time>2024-05-04T09:48:18Z</time>
      </trkpt>
      <trkpt lat="50.02759" lon="4.14838">
        <ele>260.2</ele>
        <time>2024-05-04T09:48:19Z</time>
      </trkpt>
      <trkpt lat="50.02754" lon="4.14839">
        <ele>260.2</ele>
        <time>2024-05-04T09:48:20Z</time>
      </trkpt>
      <trkpt lat="50.02749" lon="4.1484">
        <ele>260.4</ele>
        <time>2024-05-04T09:48:21Z</time>
      </trkpt>
      <trkpt lat="50.02743" lon="4.14841">
        <ele>260.8</ele>
        <time>2024-05-04T09:48:22Z</time>
      </trkpt>
      <trkpt lat="50.02738" lon="4.14842">
        <ele>261</ele>
        <time>2024-05-04T09:48:23Z</time>
      </trkpt>
      <trkpt lat="50.02733" lon="4.14843">
        <ele>261</ele>
        <time>2024-05-04T09:48:24Z</time>
      </trkpt>
      <trkpt lat="50.02727" lon="4.14844">
        <ele>261</ele>
        <time>2024-05-04T09:48:25Z</time>
      </trkpt>
      <trkpt lat="50.02722" lon="4.14845">
        <ele>261.2</ele>
        <time>2024-05-04T09:48:26Z</time>
      </trkpt>
      <trkpt lat="50.02717" lon="4.14846">
        <ele>261.2</ele>
        <time>2024-05-04T09:48:27Z</time>
      </trkpt>
      <trkpt lat="50.02711" lon="4.14847">
        <ele>261.4</ele>
        <time>2024-05-04T09:48:28Z</time>
      </trkpt>
      <trkpt lat="50.02706" lon="4.14848">
        <ele>261.4</ele>
        <time>2024-05-04T09:48:29Z</time>
      </trkpt>
      <trkpt lat="50.02701" lon="4.14849">
        <ele>261.6</ele>
        <time>2024-05-04T09:48:30Z</time>
      </trkpt>
      <trkpt lat="50.02696" lon="4.14851">
        <ele>261.8</ele>
        <time>2024-05-04T09:48:31Z</time>
      </trkpt>
      <trkpt lat="50.0269" lon="4.14852">
        <ele>262</ele>
        <time>2024-05-04T09:48:32Z</time>
      </trkpt>
      <trkpt lat="50.02685" lon="4.14853">
        <ele>262.2</ele>
        <time>2024-05-04T09:48:33Z</time>
      </trkpt>
      <trkpt lat="50.0268" lon="4.14854">
        <ele>262.2</ele>
        <time>2024-05-04T09:48:34Z</time>
      </trkpt>
      <trkpt lat="50.02675" lon="4.14855">
        <ele>262.4</ele>
        <time>2024-05-04T09:48:35Z</time>
      </trkpt>
      <trkpt lat="50.0267" lon="4.14856">
        <ele>262.4</ele>
        <time>2024-05-04T09:48:36Z</time>
      </trkpt>
      <trkpt lat="50.02665" lon="4.14857">
        <ele>262.4</ele>
        <time>2024-05-04T09:48:37Z</time>
      </trkpt>
      <trkpt lat="50.0266" lon="4.14858">
        <ele>262.6</ele>
        <time>2024-05-04T09:48:38Z</time>
      </trkpt>
      <trkpt lat="50.02655" lon="4.14859">
        <ele>262.6</ele>
        <time>2024-05-04T09:48:39Z</time>
      </trkpt>
      <trkpt lat="50.0265" lon="4.1486">
        <ele>263</ele>
        <time>2024-05-04T09:48:40Z</time>
      </trkpt>
      <trkpt lat="50.02645" lon="4.14861">
        <ele>263</ele>
        <time>2024-05-04T09:48:41Z</time>
      </trkpt>
      <trkpt lat="50.0264" lon="4.14863">
        <ele>263</ele>
        <time>2024-05-04T09:48:42Z</time>
      </trkpt>
      <trkpt lat="50.02635" lon="4.14864">
        <ele>263.2</ele>
        <time>2024-05-04T09:48:43Z</time>
      </trkpt>
      <trkpt lat="50.0263" lon="4.14865">
        <ele>263.4</ele>
        <time>2024-05-04T09:48:44Z</time>
      </trkpt>
      <trkpt lat="50.02625" lon="4.14866">
        <ele>263.4</ele>
        <time>2024-05-04T09:48:45Z</time>
      </trkpt>
      <trkpt lat="50.0262" lon="4.14867">
        <ele>263.4</ele>
        <time>2024-05-04T09:48:46Z</time>
      </trkpt>
      <trkpt lat="50.02615" lon="4.14868">
        <ele>263.4</ele>
        <time>2024-05-04T09:48:47Z</time>
      </trkpt>
      <trkpt lat="50.0261" lon="4.14869">
        <ele>263.6</ele>
        <time>2024-05-04T09:48:48Z</time>
      </trkpt>
      <trkpt lat="50.02605" lon="4.1487">
        <ele>263.8</ele>
        <time>2024-05-04T09:48:49Z</time>
      </trkpt>
      <trkpt lat="50.026" lon="4.14872">
        <ele>263.6</ele>
        <time>2024-05-04T09:48:50Z</time>
      </trkpt>
      <trkpt lat="50.02595" lon="4.14873">
        <ele>264</ele>
        <time>2024-05-04T09:48:51Z</time>
      </trkpt>
      <trkpt lat="50.02591" lon="4.14874">
        <ele>264</ele>
        <time>2024-05-04T09:48:52Z</time>
      </trkpt>
      <trkpt lat="50.02586" lon="4.14875">
        <ele>264.2</ele>
        <time>2024-05-04T09:48:53Z</time>
      </trkpt>
      <trkpt lat="50.02582" lon="4.14878">
        <ele>264.4</ele>
        <time>2024-05-04T09:48:54Z</time>
      </trkpt>
      <trkpt lat="50.02578" lon="4.14881">
        <ele>264.8</ele>
        <time>2024-05-04T09:48:55Z</time>
      </trkpt>
      <trkpt lat="50.02575" lon="4.14886">
        <ele>264.8</ele>
        <time>2024-05-04T09:48:56Z</time>
      </trkpt>
      <trkpt lat="50.02571" lon="4.1489">
        <ele>265</ele>
        <time>2024-05-04T09:48:57Z</time>
      </trkpt>
      <trkpt lat="50.02568" lon="4.14895">
        <ele>265.2</ele>
        <time>2024-05-04T09:48:58Z</time>
      </trkpt>
      <trkpt lat="50.02565" lon="4.149">
        <ele>265.4</ele>
        <time>2024-05-04T09:48:59Z</time>
      </trkpt>
      <trkpt lat="50.02562" lon="4.14905">
        <ele>265.4</ele>
        <time>2024-05-04T09:49:00Z</time>
      </trkpt>
      <trkpt lat="50.0256" lon="4.14911">
        <ele>265.4</ele>
        <time>2024-05-04T09:49:01Z</time>
      </trkpt>
      <trkpt lat="50.02559" lon="4.14917">
        <ele>265.6</ele>
        <time>2024-05-04T09:49:02Z</time>
      </trkpt>
      <trkpt lat="50.02559" lon="4.14923">
        <ele>265.8</ele>
        <time>2024-05-04T09:49:03Z</time>
      </trkpt>
      <trkpt lat="50.02559" lon="4.14928">
        <ele>266</ele>
        <time>2024-05-04T09:49:04Z</time>
      </trkpt>
      <trkpt lat="50.02558" lon="4.14933">
        <ele>266.2</ele>
        <time>2024-05-04T09:49:05Z</time>
      </trkpt>
      <trkpt lat="50.02558" lon="4.14938">
        <ele>266</ele>
        <time>2024-05-04T09:49:06Z</time>
      </trkpt>
      <trkpt lat="50.02559" lon="4.14944">
        <ele>266.4</ele>
        <time>2024-05-04T09:49:07Z</time>
      </trkpt>
      <trkpt lat="50.02559" lon="4.14951">
        <ele>266.4</ele>
        <time>2024-05-04T09:49:08Z</time>
      </trkpt>
      <trkpt lat="50.02559" lon="4.14959">
        <ele>266.6</ele>
        <time>2024-05-04T09:49:09Z</time>
      </trkpt>
      <trkpt lat="50.0256" lon="4.14966">
        <ele>266.8</ele>
        <time>2024-05-04T09:49:10Z</time>
      </trkpt>
      <trkpt lat="50.0256" lon="4.14974">
        <ele>267</ele>
        <time>2024-05-04T09:49:11Z</time>
      </trkpt>
      <trkpt lat="50.0256" lon="4.14982">
        <ele>267.2</ele>
        <time>2024-05-04T09:49:12Z</time>
      </trkpt>
      <trkpt lat="50.02561" lon="4.1499">
        <ele>267.2</ele>
        <time>2024-05-04T09:49:13Z</time>
      </trkpt>
      <trkpt lat="50.02562" lon="4.14998">
        <ele>267.4</ele>
        <time>2024-05-04T09:49:14Z</time>
      </trkpt>
      <trkpt lat="50.02562" lon="4.15006">
        <ele>267.4</ele>
        <time>2024-05-04T09:49:15Z</time>
      </trkpt>
      <trkpt lat="50.02563" lon="4.15015">
        <ele>267.6</ele>
        <time>2024-05-04T09:49:16Z</time>
      </trkpt>
      <trkpt lat="50.02563" lon="4.15023">
        <ele>267.8</ele>
        <time>2024-05-04T09:49:17Z</time>
      </trkpt>
      <trkpt lat="50.02563" lon="4.15031">
        <ele>267.6</ele>
        <time>2024-05-04T09:49:18Z</time>
      </trkpt>
      <trkpt lat="50.02563" lon="4.15039">
        <ele>267.8</ele>
        <time>2024-05-04T09:49:19Z</time>
      </trkpt>
      <trkpt lat="50.02563" lon="4.15048">
        <ele>267.8</ele>
        <time>2024-05-04T09:49:20Z</time>
      </trkpt>
      <trkpt lat="50.02563" lon="4.15056">
        <ele>267.8</ele>
        <time>2024-05-04T09:49:21Z</time>
      </trkpt>
      <trkpt lat="50.02563" lon="4.15065">
        <ele>267.8</ele>
        <time>2024-05-04T09:49:22Z</time>
      </trkpt>
      <trkpt lat="50.02563" lon="4.15073">
        <ele>267.8</ele>
        <time>2024-05-04T09:49:23Z</time>
      </trkpt>
      <trkpt lat="50.02563" lon="4.15082">
        <ele>267.8</ele>
        <time>2024-05-04T09:49:24Z</time>
      </trkpt>
      <trkpt lat="50.02564" lon="4.15091">
        <ele>267.8</ele>
        <time>2024-05-04T09:49:25Z</time>
      </trkpt>
      <trkpt lat="50.02564" lon="4.151">
        <ele>267.8</ele>
        <time>2024-05-04T09:49:26Z</time>
      </trkpt>
      <trkpt lat="50.02565" lon="4.15108">
        <ele>268</ele>
        <time>2024-05-04T09:49:27Z</time>
      </trkpt>
      <trkpt lat="50.02565" lon="4.15117">
        <ele>268</ele>
        <time>2024-05-04T09:49:28Z</time>
      </trkpt>
      <trkpt lat="50.02566" lon="4.15126">
        <ele>268</ele>
        <time>2024-05-04T09:49:29Z</time>
      </trkpt>
      <trkpt lat="50.02566" lon="4.15134">
        <ele>268</ele>
        <time>2024-05-04T09:49:30Z</time>
      </trkpt>
      <trkpt lat="50.02566" lon="4.15143">
        <ele>268</ele>
        <time>2024-05-04T09:49:31Z</time>
      </trkpt>
      <trkpt lat="50.02567" lon="4.15152">
        <ele>268</ele>
        <time>2024-05-04T09:49:32Z</time>
      </trkpt>
      <trkpt lat="50.02568" lon="4.1516">
        <ele>268</ele>
        <time>2024-05-04T09:49:33Z</time>
      </trkpt>
      <trkpt lat="50.02568" lon="4.15169">
        <ele>268</ele>
        <time>2024-05-04T09:49:34Z</time>
      </trkpt>
      <trkpt lat="50.02568" lon="4.15178">
        <ele>268</ele>
        <time>2024-05-04T09:49:35Z</time>
      </trkpt>
      <trkpt lat="50.02567" lon="4.15186">
        <ele>268</ele>
        <time>2024-05-04T09:49:36Z</time>
      </trkpt>
      <trkpt lat="50.02567" lon="4.15194">
        <ele>268</ele>
        <time>2024-05-04T09:49:37Z</time>
      </trkpt>
      <trkpt lat="50.02567" lon="4.15202">
        <ele>268</ele>
        <time>2024-05-04T09:49:38Z</time>
      </trkpt>
      <trkpt lat="50.02568" lon="4.15211">
        <ele>268</ele>
        <time>2024-05-04T09:49:39Z</time>
      </trkpt>
      <trkpt lat="50.02569" lon="4.15219">
        <ele>267.8</ele>
        <time>2024-05-04T09:49:40Z</time>
      </trkpt>
      <trkpt lat="50.02569" lon="4.15228">
        <ele>268.2</ele>
        <time>2024-05-04T09:49:41Z</time>
      </trkpt>
      <trkpt lat="50.0257" lon="4.15237">
        <ele>268</ele>
        <time>2024-05-04T09:49:42Z</time>
      </trkpt>
      <trkpt lat="50.02571" lon="4.15246">
        <ele>268</ele>
        <time>2024-05-04T09:49:43Z</time>
      </trkpt>
      <trkpt lat="50.02572" lon="4.15255">
        <ele>268</ele>
        <time>2024-05-04T09:49:44Z</time>
      </trkpt>
      <trkpt lat="50.02572" lon="4.15264">
        <ele>268</ele>
        <time>2024-05-04T09:49:45Z</time>
      </trkpt>
      <trkpt lat="50.02573" lon="4.15273">
        <ele>268.2</ele>
        <time>2024-05-04T09:49:46Z</time>
      </trkpt>
      <trkpt lat="50.02574" lon="4.15281">
        <ele>268.2</ele>
        <time>2024-05-04T09:49:47Z</time>
      </trkpt>
      <trkpt lat="50.02574" lon="4.15291">
        <ele>268.4</ele>
        <time>2024-05-04T09:49:48Z</time>
      </trkpt>
      <trkpt lat="50.02575" lon="4.153">
        <ele>268.4</ele>
        <time>2024-05-04T09:49:49Z</time>
      </trkpt>
      <trkpt lat="50.02576" lon="4.1531">
        <ele>268.4</ele>
        <time>2024-05-04T09:49:50Z</time>
      </trkpt>
      <trkpt lat="50.02577" lon="4.15319">
        <ele>268.4</ele>
        <time>2024-05-04T09:49:51Z</time>
      </trkpt>
      <trkpt lat="50.02577" lon="4.15329">
        <ele>268.6</ele>
        <time>2024-05-04T09:49:52Z</time>
      </trkpt>
      <trkpt lat="50.02578" lon="4.15338">
        <ele>268.6</ele>
        <time>2024-05-04T09:49:53Z</time>
      </trkpt>
      <trkpt lat="50.0258" lon="4.15347">
        <ele>268.6</ele>
        <time>2024-05-04T09:49:54Z</time>
      </trkpt>
      <trkpt lat="50.0258" lon="4.15357">
        <ele>269</ele>
        <time>2024-05-04T09:49:55Z</time>
      </trkpt>
      <trkpt lat="50.02581" lon="4.15367">
        <ele>269.2</ele>
        <time>2024-05-04T09:49:56Z</time>
      </trkpt>
      <trkpt lat="50.02581" lon="4.15376">
        <ele>269.6</ele>
        <time>2024-05-04T09:49:57Z</time>
      </trkpt>
      <trkpt lat="50.02581" lon="4.15385">
        <ele>269.6</ele>
        <time>2024-05-04T09:49:58Z</time>
      </trkpt>
      <trkpt lat="50.02582" lon="4.15394">
        <ele>269.6</ele>
        <time>2024-05-04T09:49:59Z</time>
      </trkpt>
      <trkpt lat="50.02583" lon="4.15403">
        <ele>269.8</ele>
        <time>2024-05-04T09:50:00Z</time>
      </trkpt>
      <trkpt lat="50.02584" lon="4.15412">
        <ele>269.8</ele>
        <time>2024-05-04T09:50:01Z</time>
      </trkpt>
      <trkpt lat="50.02584" lon="4.15421">
        <ele>269.8</ele>
        <time>2024-05-04T09:50:02Z</time>
      </trkpt>
      <trkpt lat="50.02585" lon="4.15431">
        <ele>269.8</ele>
        <time>2024-05-04T09:50:03Z</time>
      </trkpt>
      <trkpt lat="50.02585" lon="4.1544">
        <ele>269.8</ele>
        <time>2024-05-04T09:50:04Z</time>
      </trkpt>
      <trkpt lat="50.02585" lon="4.1545">
        <ele>269.8</ele>
        <time>2024-05-04T09:50:05Z</time>
      </trkpt>
      <trkpt lat="50.02586" lon="4.1546">
        <ele>270</ele>
        <time>2024-05-04T09:50:06Z</time>
      </trkpt>
      <trkpt lat="50.02586" lon="4.1547">
        <ele>269.8</ele>
        <time>2024-05-04T09:50:07Z</time>
      </trkpt>
      <trkpt lat="50.02586" lon="4.1548">
        <ele>269.6</ele>
        <time>2024-05-04T09:50:08Z</time>
      </trkpt>
      <trkpt lat="50.02587" lon="4.1549">
        <ele>269.6</ele>
        <time>2024-05-04T09:50:09Z</time>
      </trkpt>
      <trkpt lat="50.02587" lon="4.15499">
        <ele>269.6</ele>
        <time>2024-05-04T09:50:10Z</time>
      </trkpt>
      <trkpt lat="50.02587" lon="4.15509">
        <ele>269.4</ele>
        <time>2024-05-04T09:50:11Z</time>
      </trkpt>
      <trkpt lat="50.02587" lon="4.15519">
        <ele>269.4</ele>
        <time>2024-05-04T09:50:12Z</time>
      </trkpt>
      <trkpt lat="50.02588" lon="4.15528">
        <ele>269.2</ele>
        <time>2024-05-04T09:50:13Z</time>
      </trkpt>
      <trkpt lat="50.02588" lon="4.15538">
        <ele>269</ele>
        <time>2024-05-04T09:50:14Z</time>
      </trkpt>
      <trkpt lat="50.02589" lon="4.15547">
        <ele>268.8</ele>
        <time>2024-05-04T09:50:15Z</time>
      </trkpt>
      <trkpt lat="50.02589" lon="4.15557">
        <ele>268.6</ele>
        <time>2024-05-04T09:50:16Z</time>
      </trkpt>
      <trkpt lat="50.0259" lon="4.15567">
        <ele>268.6</ele>
        <time>2024-05-04T09:50:17Z</time>
      </trkpt>
      <trkpt lat="50.0259" lon="4.15577">
        <ele>268.6</ele>
        <time>2024-05-04T09:50:18Z</time>
      </trkpt>
      <trkpt lat="50.02591" lon="4.15587">
        <ele>268.6</ele>
        <time>2024-05-04T09:50:19Z</time>
      </trkpt>
      <trkpt lat="50.02591" lon="4.15597">
        <ele>268.8</ele>
        <time>2024-05-04T09:50:20Z</time>
      </trkpt>
      <trkpt lat="50.02592" lon="4.15606">
        <ele>268.6</ele>
        <time>2024-05-04T09:50:21Z</time>
      </trkpt>
      <trkpt lat="50.02593" lon="4.15615">
        <ele>268.6</ele>
        <time>2024-05-04T09:50:22Z</time>
      </trkpt>
      <trkpt lat="50.02593" lon="4.15624">
        <ele>268.4</ele>
        <time>2024-05-04T09:50:23Z</time>
      </trkpt>
      <trkpt lat="50.02594" lon="4.15633">
        <ele>268.4</ele>
        <time>2024-05-04T09:50:24Z</time>
      </trkpt>
      <trkpt lat="50.02594" lon="4.15641">
        <ele>268.6</ele>
        <time>2024-05-04T09:50:25Z</time>
      </trkpt>
      <trkpt lat="50.02594" lon="4.15651">
        <ele>268.4</ele>
        <time>2024-05-04T09:50:26Z</time>
      </trkpt>
      <trkpt lat="50.02595" lon="4.1566">
        <ele>268.4</ele>
        <time>2024-05-04T09:50:27Z</time>
      </trkpt>
      <trkpt lat="50.02596" lon="4.15669">
        <ele>268.2</ele>
        <time>2024-05-04T09:50:28Z</time>
      </trkpt>
      <trkpt lat="50.02597" lon="4.15677">
        <ele>268</ele>
        <time>2024-05-04T09:50:29Z</time>
      </trkpt>
      <trkpt lat="50.02597" lon="4.15686">
        <ele>268.2</ele>
        <time>2024-05-04T09:50:30Z</time>
      </trkpt>
      <trkpt lat="50.02598" lon="4.15695">
        <ele>268.2</ele>
        <time>2024-05-04T09:50:31Z</time>
      </trkpt>
      <trkpt lat="50.02598" lon="4.15704">
        <ele>268.4</ele>
        <time>2024-05-04T09:50:32Z</time>
      </trkpt>
      <trkpt lat="50.02598" lon="4.15713">
        <ele>268.4</ele>
        <time>2024-05-04T09:50:33Z</time>
      </trkpt>
      <trkpt lat="50.02599" lon="4.15722">
        <ele>268.4</ele>
        <time>2024-05-04T09:50:34Z</time>
      </trkpt>
      <trkpt lat="50.02599" lon="4.15731">
        <ele>268.6</ele>
        <time>2024-05-04T09:50:35Z</time>
      </trkpt>
      <trkpt lat="50.02599" lon="4.15741">
        <ele>268.6</ele>
        <time>2024-05-04T09:50:36Z</time>
      </trkpt>
      <trkpt lat="50.02599" lon="4.15751">
        <ele>268.4</ele>
        <time>2024-05-04T09:50:37Z</time>
      </trkpt>
      <trkpt lat="50.02599" lon="4.15761">
        <ele>268.4</ele>
        <time>2024-05-04T09:50:38Z</time>
      </trkpt>
      <trkpt lat="50.026" lon="4.15769">
        <ele>268.4</ele>
        <time>2024-05-04T09:50:39Z</time>
      </trkpt>
      <trkpt lat="50.026" lon="4.15777">
        <ele>268.8</ele>
        <time>2024-05-04T09:50:40Z</time>
      </trkpt>
      <trkpt lat="50.026" lon="4.15785">
        <ele>269</ele>
        <time>2024-05-04T09:50:41Z</time>
      </trkpt>
      <trkpt lat="50.02601" lon="4.15794">
        <ele>269.2</ele>
        <time>2024-05-04T09:50:42Z</time>
      </trkpt>
      <trkpt lat="50.02601" lon="4.15804">
        <ele>269.6</ele>
        <time>2024-05-04T09:50:43Z</time>
      </trkpt>
      <trkpt lat="50.02602" lon="4.15814">
        <ele>269.6</ele>
        <time>2024-05-04T09:50:44Z</time>
      </trkpt>
      <trkpt lat="50.02603" lon="4.15825">
        <ele>269.6</ele>
        <time>2024-05-04T09:50:45Z</time>
      </trkpt>
      <trkpt lat="50.02603" lon="4.15835">
        <ele>269.8</ele>
        <time>2024-05-04T09:50:46Z</time>
      </trkpt>
      <trkpt lat="50.02604" lon="4.15844">
        <ele>269.8</ele>
        <time>2024-05-04T09:50:47Z</time>
      </trkpt>
      <trkpt lat="50.02604" lon="4.15853">
        <ele>270</ele>
        <time>2024-05-04T09:50:48Z</time>
      </trkpt>
      <trkpt lat="50.02605" lon="4.15861">
        <ele>270.2</ele>
        <time>2024-05-04T09:50:49Z</time>
      </trkpt>
      <trkpt lat="50.02605" lon="4.15869">
        <ele>270</ele>
        <time>2024-05-04T09:50:50Z</time>
      </trkpt>
      <trkpt lat="50.02606" lon="4.15877">
        <ele>270.2</ele>
        <time>2024-05-04T09:50:51Z</time>
      </trkpt>
      <trkpt lat="50.02607" lon="4.15884">
        <ele>270.4</ele>
        <time>2024-05-04T09:50:52Z</time>
      </trkpt>
      <trkpt lat="50.02607" lon="4.15891">
        <ele>270.2</ele>
        <time>2024-05-04T09:50:53Z</time>
      </trkpt>
      <trkpt lat="50.02607" lon="4.15898">
        <ele>270.4</ele>
        <time>2024-05-04T09:50:54Z</time>
      </trkpt>
      <trkpt lat="50.02607" lon="4.15905">
        <ele>270.2</ele>
        <time>2024-05-04T09:50:55Z</time>
      </trkpt>
      <trkpt lat="50.02607" lon="4.15911">
        <ele>270.4</ele>
        <time>2024-05-04T09:50:56Z</time>
      </trkpt>
      <trkpt lat="50.02609" lon="4.15917">
        <ele>270.4</ele>
        <time>2024-05-04T09:50:57Z</time>
      </trkpt>
      <trkpt lat="50.0261" lon="4.15921">
        <ele>270.4</ele>
        <time>2024-05-04T09:50:58Z</time>
      </trkpt>
      <trkpt lat="50.0261" lon="4.15926">
        <ele>270.4</ele>
        <time>2024-05-04T09:50:59Z</time>
      </trkpt>
      <trkpt lat="50.02609" lon="4.15931">
        <ele>270.6</ele>
        <time>2024-05-04T09:51:00Z</time>
      </trkpt>
      <trkpt lat="50.02609" lon="4.15935">
        <ele>270.6</ele>
        <time>2024-05-04T09:51:01Z</time>
      </trkpt>
      <trkpt lat="50.02609" lon="4.1594">
        <ele>270.8</ele>
        <time>2024-05-04T09:51:02Z</time>
      </trkpt>
      <trkpt lat="50.0261" lon="4.15944">
        <ele>270.8</ele>
        <time>2024-05-04T09:51:03Z</time>
      </trkpt>
      <trkpt lat="50.02609" lon="4.1595">
        <ele>271</ele>
        <time>2024-05-04T09:51:04Z</time>
      </trkpt>
      <trkpt lat="50.02609" lon="4.15955">
        <ele>271</ele>
        <time>2024-05-04T09:51:05Z</time>
      </trkpt>
      <trkpt lat="50.02609" lon="4.15959">
        <ele>271.2</ele>
        <time>2024-05-04T09:51:06Z</time>
      </trkpt>
      <trkpt lat="50.0261" lon="4.15963">
        <ele>271.4</ele>
        <time>2024-05-04T09:51:07Z</time>
      </trkpt>
      <trkpt lat="50.02611" lon="4.15968">
        <ele>271.4</ele>
        <time>2024-05-04T09:51:08Z</time>
      </trkpt>
      <trkpt lat="50.02612" lon="4.15974">
        <ele>271.4</ele>
        <time>2024-05-04T09:51:09Z</time>
      </trkpt>
      <trkpt lat="50.02612" lon="4.1598">
        <ele>271.2</ele>
        <time>2024-05-04T09:51:10Z</time>
      </trkpt>
      <trkpt lat="50.02613" lon="4.15987">
        <ele>271.2</ele>
        <time>2024-05-04T09:51:11Z</time>
      </trkpt>
      <trkpt lat="50.02612" lon="4.15994">
        <ele>271</ele>
        <time>2024-05-04T09:51:12Z</time>
      </trkpt>
      <trkpt lat="50.02613" lon="4.16002">
        <ele>271.2</ele>
        <time>2024-05-04T09:51:13Z</time>
      </trkpt>
      <trkpt lat="50.02613" lon="4.16011">
        <ele>271.2</ele>
        <time>2024-05-04T09:51:14Z</time>
      </trkpt>
      <trkpt lat="50.02613" lon="4.1602">
        <ele>271.2</ele>
        <time>2024-05-04T09:51:15Z</time>
      </trkpt>
      <trkpt lat="50.02614" lon="4.1603">
        <ele>271.2</ele>
        <time>2024-05-04T09:51:16Z</time>
      </trkpt>
      <trkpt lat="50.02614" lon="4.1604">
        <ele>271.2</ele>
        <time>2024-05-04T09:51:17Z</time>
      </trkpt>
      <trkpt lat="50.02614" lon="4.1605">
        <ele>271.2</ele>
        <time>2024-05-04T09:51:18Z</time>
      </trkpt>
      <trkpt lat="50.02615" lon="4.1606">
        <ele>271</ele>
        <time>2024-05-04T09:51:19Z</time>
      </trkpt>
      <trkpt lat="50.02615" lon="4.1607">
        <ele>271</ele>
        <time>2024-05-04T09:51:20Z</time>
      </trkpt>
      <trkpt lat="50.02615" lon="4.1608">
        <ele>271</ele>
        <time>2024-05-04T09:51:21Z</time>
      </trkpt>
      <trkpt lat="50.02616" lon="4.1609">
        <ele>271</ele>
        <time>2024-05-04T09:51:22Z</time>
      </trkpt>
      <trkpt lat="50.02616" lon="4.161">
        <ele>270.8</ele>
        <time>2024-05-04T09:51:23Z</time>
      </trkpt>
      <trkpt lat="50.02616" lon="4.1611">
        <ele>270.8</ele>
        <time>2024-05-04T09:51:24Z</time>
      </trkpt>
      <trkpt lat="50.02617" lon="4.1612">
        <ele>270.8</ele>
        <time>2024-05-04T09:51:25Z</time>
      </trkpt>
      <trkpt lat="50.02617" lon="4.1613">
        <ele>270.8</ele>
        <time>2024-05-04T09:51:26Z</time>
      </trkpt>
      <trkpt lat="50.02617" lon="4.16139">
        <ele>270.8</ele>
        <time>2024-05-04T09:51:27Z</time>
      </trkpt>
      <trkpt lat="50.02617" lon="4.16149">
        <ele>270.8</ele>
        <time>2024-05-04T09:51:28Z</time>
      </trkpt>
      <trkpt lat="50.02618" lon="4.16159">
        <ele>270.6</ele>
        <time>2024-05-04T09:51:29Z</time>
      </trkpt>
      <trkpt lat="50.02618" lon="4.16168">
        <ele>270.8</ele>
        <time>2024-05-04T09:51:30Z</time>
      </trkpt>
      <trkpt lat="50.02618" lon="4.16178">
        <ele>271</ele>
        <time>2024-05-04T09:51:31Z</time>
      </trkpt>
      <trkpt lat="50.02619" lon="4.16188">
        <ele>271</ele>
        <time>2024-05-04T09:51:32Z</time>
      </trkpt>
      <trkpt lat="50.02619" lon="4.16197">
        <ele>271</ele>
        <time>2024-05-04T09:51:33Z</time>
      </trkpt>
      <trkpt lat="50.0262" lon="4.16207">
        <ele>271.2</ele>
        <time>2024-05-04T09:51:34Z</time>
      </trkpt>
      <trkpt lat="50.0262" lon="4.16217">
        <ele>271.2</ele>
        <time>2024-05-04T09:51:35Z</time>
      </trkpt>
      <trkpt lat="50.0262" lon="4.16227">
        <ele>271.2</ele>
        <time>2024-05-04T09:51:36Z</time>
      </trkpt>
      <trkpt lat="50.02621" lon="4.16236">
        <ele>271.2</ele>
        <time>2024-05-04T09:51:37Z</time>
      </trkpt>
      <trkpt lat="50.02621" lon="4.16246">
        <ele>271.4</ele>
        <time>2024-05-04T09:51:38Z</time>
      </trkpt>
      <trkpt lat="50.02621" lon="4.16256">
        <ele>271.2</ele>
        <time>2024-05-04T09:51:39Z</time>
      </trkpt>
      <trkpt lat="50.02621" lon="4.16266">
        <ele>271.4</ele>
        <time>2024-05-04T09:51:40Z</time>
      </trkpt>
      <trkpt lat="50.02622" lon="4.16275">
        <ele>271.6</ele>
        <time>2024-05-04T09:51:41Z</time>
      </trkpt>
      <trkpt lat="50.02622" lon="4.16285">
        <ele>271.4</ele>
        <time>2024-05-04T09:51:42Z</time>
      </trkpt>
      <trkpt lat="50.02622" lon="4.16295">
        <ele>271.6</ele>
        <time>2024-05-04T09:51:43Z</time>
      </trkpt>
      <trkpt lat="50.02623" lon="4.16305">
        <ele>271.6</ele>
        <time>2024-05-04T09:51:44Z</time>
      </trkpt>
      <trkpt lat="50.02623" lon="4.16315">
        <ele>271.6</ele>
        <time>2024-05-04T09:51:45Z</time>
      </trkpt>
      <trkpt lat="50.02624" lon="4.16325">
        <ele>271.6</ele>
        <time>2024-05-04T09:51:46Z</time>
      </trkpt>
      <trkpt lat="50.02624" lon="4.16335">
        <ele>271.6</ele>
        <time>2024-05-04T09:51:47Z</time>
      </trkpt>
      <trkpt lat="50.02624" lon="4.16344">
        <ele>271.8</ele>
        <time>2024-05-04T09:51:48Z</time>
      </trkpt>
      <trkpt lat="50.02625" lon="4.16354">
        <ele>271.8</ele>
        <time>2024-05-04T09:51:49Z</time>
      </trkpt>
      <trkpt lat="50.02625" lon="4.16364">
        <ele>271.8</ele>
        <time>2024-05-04T09:51:50Z</time>
      </trkpt>
      <trkpt lat="50.02626" lon="4.16374">
        <ele>271.8</ele>
        <time>2024-05-04T09:51:51Z</time>
      </trkpt>
      <trkpt lat="50.02626" lon="4.16384">
        <ele>271.8</ele>
        <time>2024-05-04T09:51:52Z</time>
      </trkpt>
      <trkpt lat="50.02627" lon="4.16394">
        <ele>271.8</ele>
        <time>2024-05-04T09:51:53Z</time>
      </trkpt>
      <trkpt lat="50.02627" lon="4.16404">
        <ele>272</ele>
        <time>2024-05-04T09:51:54Z</time>
      </trkpt>
      <trkpt lat="50.02628" lon="4.16413">
        <ele>271.8</ele>
        <time>2024-05-04T09:51:55Z</time>
      </trkpt>
      <trkpt lat="50.02628" lon="4.16423">
        <ele>271.8</ele>
        <time>2024-05-04T09:51:56Z</time>
      </trkpt>
      <trkpt lat="50.02629" lon="4.16433">
        <ele>271.8</ele>
        <time>2024-05-04T09:51:57Z</time>
      </trkpt>
      <trkpt lat="50.0263" lon="4.16443">
        <ele>271.8</ele>
        <time>2024-05-04T09:51:58Z</time>
      </trkpt>
      <trkpt lat="50.0263" lon="4.16452">
        <ele>271.8</ele>
        <time>2024-05-04T09:51:59Z</time>
      </trkpt>
      <trkpt lat="50.02631" lon="4.16462">
        <ele>271.8</ele>
        <time>2024-05-04T09:52:00Z</time>
      </trkpt>
      <trkpt lat="50.02632" lon="4.16472">
        <ele>271.8</ele>
        <time>2024-05-04T09:52:01Z</time>
      </trkpt>
      <trkpt lat="50.02632" lon="4.16482">
        <ele>271.8</ele>
        <time>2024-05-04T09:52:02Z</time>
      </trkpt>
      <trkpt lat="50.02633" lon="4.16491">
        <ele>271.8</ele>
        <time>2024-05-04T09:52:03Z</time>
      </trkpt>
      <trkpt lat="50.02633" lon="4.16501">
        <ele>271.8</ele>
        <time>2024-05-04T09:52:04Z</time>
      </trkpt>
      <trkpt lat="50.02634" lon="4.16511">
        <ele>271.8</ele>
        <time>2024-05-04T09:52:05Z</time>
      </trkpt>
      <trkpt lat="50.02634" lon="4.1652">
        <ele>271.8</ele>
        <time>2024-05-04T09:52:06Z</time>
      </trkpt>
      <trkpt lat="50.02634" lon="4.1653">
        <ele>271.8</ele>
        <time>2024-05-04T09:52:07Z</time>
      </trkpt>
      <trkpt lat="50.02635" lon="4.16539">
        <ele>271.8</ele>
        <time>2024-05-04T09:52:08Z</time>
      </trkpt>
      <trkpt lat="50.02635" lon="4.16549">
        <ele>271.8</ele>
        <time>2024-05-04T09:52:09Z</time>
      </trkpt>
      <trkpt lat="50.02636" lon="4.16558">
        <ele>271.8</ele>
        <time>2024-05-04T09:52:10Z</time>
      </trkpt>
      <trkpt lat="50.02636" lon="4.16568">
        <ele>271.8</ele>
        <time>2024-05-04T09:52:11Z</time>
      </trkpt>
      <trkpt lat="50.02637" lon="4.16577">
        <ele>271.8</ele>
        <time>2024-05-04T09:52:12Z</time>
      </trkpt>
      <trkpt lat="50.02637" lon="4.16587">
        <ele>271.8</ele>
        <time>2024-05-04T09:52:13Z</time>
      </trkpt>
      <trkpt lat="50.02638" lon="4.16596">
        <ele>271.8</ele>
        <time>2024-05-04T09:52:14Z</time>
      </trkpt>
      <trkpt lat="50.02638" lon="4.16606">
        <ele>271.8</ele>
        <time>2024-05-04T09:52:15Z</time>
      </trkpt>
      <trkpt lat="50.02639" lon="4.16615">
        <ele>271.8</ele>
        <time>2024-05-04T09:52:16Z</time>
      </trkpt>
      <trkpt lat="50.02639" lon="4.16624">
        <ele>272</ele>
        <time>2024-05-04T09:52:17Z</time>
      </trkpt>
      <trkpt lat="50.02639" lon="4.16634">
        <ele>272</ele>
        <time>2024-05-04T09:52:18Z</time>
      </trkpt>
      <trkpt lat="50.0264" lon="4.16643">
        <ele>272</ele>
        <time>2024-05-04T09:52:19Z</time>
      </trkpt>
      <trkpt lat="50.0264" lon="4.16653">
        <ele>272</ele>
        <time>2024-05-04T09:52:20Z</time>
      </trkpt>
      <trkpt lat="50.02641" lon="4.16662">
        <ele>272</ele>
        <time>2024-05-04T09:52:21Z</time>
      </trkpt>
      <trkpt lat="50.02641" lon="4.16671">
        <ele>272.4</ele>
        <time>2024-05-04T09:52:22Z</time>
      </trkpt>
      <trkpt lat="50.02641" lon="4.16681">
        <ele>272.4</ele>
        <time>2024-05-04T09:52:23Z</time>
      </trkpt>
      <trkpt lat="50.02642" lon="4.1669">
        <ele>272.4</ele>
        <time>2024-05-04T09:52:24Z</time>
      </trkpt>
      <trkpt lat="50.02642" lon="4.16699">
        <ele>272.6</ele>
        <time>2024-05-04T09:52:25Z</time>
      </trkpt>
      <trkpt lat="50.02643" lon="4.16709">
        <ele>272.8</ele>
        <time>2024-05-04T09:52:26Z</time>
      </trkpt>
      <trkpt lat="50.02643" lon="4.16718">
        <ele>272.8</ele>
        <time>2024-05-04T09:52:27Z</time>
      </trkpt>
      <trkpt lat="50.02644" lon="4.16728">
        <ele>273</ele>
        <time>2024-05-04T09:52:28Z</time>
      </trkpt>
      <trkpt lat="50.02644" lon="4.16738">
        <ele>273</ele>
        <time>2024-05-04T09:52:29Z</time>
      </trkpt>
      <trkpt lat="50.02644" lon="4.16747">
        <ele>273</ele>
        <time>2024-05-04T09:52:30Z</time>
      </trkpt>
      <trkpt lat="50.02645" lon="4.16757">
        <ele>273.2</ele>
        <time>2024-05-04T09:52:31Z</time>
      </trkpt>
      <trkpt lat="50.02645" lon="4.16767">
        <ele>273.2</ele>
        <time>2024-05-04T09:52:32Z</time>
      </trkpt>
      <trkpt lat="50.02646" lon="4.16776">
        <ele>273.2</ele>
        <time>2024-05-04T09:52:33Z</time>
      </trkpt>
      <trkpt lat="50.02646" lon="4.16786">
        <ele>273.2</ele>
        <time>2024-05-04T09:52:34Z</time>
      </trkpt>
      <trkpt lat="50.02646" lon="4.16796">
        <ele>273.4</ele>
        <time>2024-05-04T09:52:35Z</time>
      </trkpt>
      <trkpt lat="50.02647" lon="4.16805">
        <ele>273.2</ele>
        <time>2024-05-04T09:52:36Z</time>
      </trkpt>
      <trkpt lat="50.02647" lon="4.16815">
        <ele>273.2</ele>
        <time>2024-05-04T09:52:37Z</time>
      </trkpt>
      <trkpt lat="50.02648" lon="4.16825">
        <ele>273.2</ele>
        <time>2024-05-04T09:52:38Z</time>
      </trkpt>
      <trkpt lat="50.02648" lon="4.16834">
        <ele>273</ele>
        <time>2024-05-04T09:52:39Z</time>
      </trkpt>
      <trkpt lat="50.02649" lon="4.16844">
        <ele>273</ele>
        <time>2024-05-04T09:52:40Z</time>
      </trkpt>
      <trkpt lat="50.02649" lon="4.16854">
        <ele>273</ele>
        <time>2024-05-04T09:52:41Z</time>
      </trkpt>
      <trkpt lat="50.0265" lon="4.16863">
        <ele>272.8</ele>
        <time>2024-05-04T09:52:42Z</time>
      </trkpt>
      <trkpt lat="50.0265" lon="4.16873">
        <ele>273</ele>
        <time>2024-05-04T09:52:43Z</time>
      </trkpt>
      <trkpt lat="50.0265" lon="4.16882">
        <ele>273</ele>
        <time>2024-05-04T09:52:44Z</time>
      </trkpt>
      <trkpt lat="50.02651" lon="4.16892">
        <ele>273</ele>
        <time>2024-05-04T09:52:45Z</time>
      </trkpt>
      <trkpt lat="50.02651" lon="4.16902">
        <ele>273</ele>
        <time>2024-05-04T09:52:46Z</time>
      </trkpt>
      <trkpt lat="50.02652" lon="4.16911">
        <ele>273</ele>
        <time>2024-05-04T09:52:47Z</time>
      </trkpt>
      <trkpt lat="50.02652" lon="4.16921">
        <ele>273.2</ele>
        <time>2024-05-04T09:52:48Z</time>
      </trkpt>
      <trkpt lat="50.02653" lon="4.1693">
        <ele>273.2</ele>
        <time>2024-05-04T09:52:49Z</time>
      </trkpt>
      <trkpt lat="50.02653" lon="4.1694">
        <ele>273</ele>
        <time>2024-05-04T09:52:50Z</time>
      </trkpt>
      <trkpt lat="50.02653" lon="4.16949">
        <ele>273</ele>
        <time>2024-05-04T09:52:51Z</time>
      </trkpt>
      <trkpt lat="50.02654" lon="4.16958">
        <ele>273</ele>
        <time>2024-05-04T09:52:52Z</time>
      </trkpt>
      <trkpt lat="50.02654" lon="4.16967">
        <ele>273</ele>
        <time>2024-05-04T09:52:53Z</time>
      </trkpt>
      <trkpt lat="50.02655" lon="4.16975">
        <ele>273</ele>
        <time>2024-05-04T09:52:54Z</time>
      </trkpt>
      <trkpt lat="50.02655" lon="4.16983">
        <ele>273</ele>
        <time>2024-05-04T09:52:55Z</time>
      </trkpt>
      <trkpt lat="50.02656" lon="4.16991">
        <ele>273</ele>
        <time>2024-05-04T09:52:56Z</time>
      </trkpt>
      <trkpt lat="50.02656" lon="4.16999">
        <ele>273</ele>
        <time>2024-05-04T09:52:57Z</time>
      </trkpt>
      <trkpt lat="50.02656" lon="4.17006">
        <ele>272.8</ele>
        <time>2024-05-04T09:52:58Z</time>
      </trkpt>
      <trkpt lat="50.02658" lon="4.17013">
        <ele>273</ele>
        <time>2024-05-04T09:52:59Z</time>
      </trkpt>
      <trkpt lat="50.02658" lon="4.17019">
        <ele>273</ele>
        <time>2024-05-04T09:53:00Z</time>
      </trkpt>
      <trkpt lat="50.02658" lon="4.17025">
        <ele>273</ele>
        <time>2024-05-04T09:53:01Z</time>
      </trkpt>
      <trkpt lat="50.02658" lon="4.17031">
        <ele>273</ele>
        <time>2024-05-04T09:53:02Z</time>
      </trkpt>
      <trkpt lat="50.02658" lon="4.17035">
        <ele>273</ele>
        <time>2024-05-04T09:53:03Z</time>
      </trkpt>
      <trkpt lat="50.02659" lon="4.17038">
        <ele>272.8</ele>
        <time>2024-05-04T09:53:04Z</time>
      </trkpt>
      <trkpt lat="50.02659" lon="4.17042">
        <ele>273</ele>
        <time>2024-05-04T09:53:05Z</time>
      </trkpt>
      <trkpt lat="50.02659" lon="4.17046">
        <ele>273</ele>
        <time>2024-05-04T09:53:06Z</time>
      </trkpt>
      <trkpt lat="50.0266" lon="4.17051">
        <ele>273</ele>
        <time>2024-05-04T09:53:07Z</time>
      </trkpt>
      <trkpt lat="50.0266" lon="4.17056">
        <ele>273</ele>
        <time>2024-05-04T09:53:08Z</time>
      </trkpt>
      <trkpt lat="50.02659" lon="4.17061">
        <ele>273</ele>
        <time>2024-05-04T09:53:09Z</time>
      </trkpt>
      <trkpt lat="50.0266" lon="4.17066">
        <ele>273</ele>
        <time>2024-05-04T09:53:10Z</time>
      </trkpt>
      <trkpt lat="50.02661" lon="4.1707">
        <ele>273.2</ele>
        <time>2024-05-04T09:53:11Z</time>
      </trkpt>
      <trkpt lat="50.02661" lon="4.17074">
        <ele>273.6</ele>
        <time>2024-05-04T09:53:12Z</time>
      </trkpt>
      <trkpt lat="50.02662" lon="4.1708">
        <ele>274.2</ele>
        <time>2024-05-04T09:53:13Z</time>
      </trkpt>
      <trkpt lat="50.02663" lon="4.17085">
        <ele>274.4</ele>
        <time>2024-05-04T09:53:14Z</time>
      </trkpt>
      <trkpt lat="50.02664" lon="4.17092">
        <ele>274.6</ele>
        <time>2024-05-04T09:53:15Z</time>
      </trkpt>
      <trkpt lat="50.02664" lon="4.17097">
        <ele>274.8</ele>
        <time>2024-05-04T09:53:16Z</time>
      </trkpt>
      <trkpt lat="50.02665" lon="4.17104">
        <ele>274.8</ele>
        <time>2024-05-04T09:53:17Z</time>
      </trkpt>
      <trkpt lat="50.02666" lon="4.17111">
        <ele>274.8</ele>
        <time>2024-05-04T09:53:18Z</time>
      </trkpt>
      <trkpt lat="50.02666" lon="4.17119">
        <ele>274.8</ele>
        <time>2024-05-04T09:53:19Z</time>
      </trkpt>
      <trkpt lat="50.02666" lon="4.17127">
        <ele>274.8</ele>
        <time>2024-05-04T09:53:20Z</time>
      </trkpt>
      <trkpt lat="50.02667" lon="4.17136">
        <ele>275</ele>
        <time>2024-05-04T09:53:21Z</time>
      </trkpt>
      <trkpt lat="50.02667" lon="4.17145">
        <ele>275</ele>
        <time>2024-05-04T09:53:22Z</time>
      </trkpt>
      <trkpt lat="50.02667" lon="4.17154">
        <ele>275</ele>
        <time>2024-05-04T09:53:23Z</time>
      </trkpt>
      <trkpt lat="50.02667" lon="4.17163">
        <ele>275</ele>
        <time>2024-05-04T09:53:24Z</time>
      </trkpt>
      <trkpt lat="50.02668" lon="4.17173">
        <ele>274.8</ele>
        <time>2024-05-04T09:53:25Z</time>
      </trkpt>
      <trkpt lat="50.02668" lon="4.17182">
        <ele>275</ele>
        <time>2024-05-04T09:53:26Z</time>
      </trkpt>
      <trkpt lat="50.02668" lon="4.17191">
        <ele>275</ele>
        <time>2024-05-04T09:53:27Z</time>
      </trkpt>
      <trkpt lat="50.02667" lon="4.172">
        <ele>275.2</ele>
        <time>2024-05-04T09:53:28Z</time>
      </trkpt>
      <trkpt lat="50.02667" lon="4.17209">
        <ele>275.2</ele>
        <time>2024-05-04T09:53:29Z</time>
      </trkpt>
      <trkpt lat="50.02667" lon="4.17218">
        <ele>275</ele>
        <time>2024-05-04T09:53:30Z</time>
      </trkpt>
      <trkpt lat="50.02668" lon="4.17228">
        <ele>275.2</ele>
        <time>2024-05-04T09:53:31Z</time>
      </trkpt>
      <trkpt lat="50.02668" lon="4.17239">
        <ele>275.2</ele>
        <time>2024-05-04T09:53:32Z</time>
      </trkpt>
      <trkpt lat="50.02668" lon="4.17249">
        <ele>275.2</ele>
        <time>2024-05-04T09:53:33Z</time>
      </trkpt>
      <trkpt lat="50.02668" lon="4.17259">
        <ele>275.4</ele>
        <time>2024-05-04T09:53:34Z</time>
      </trkpt>
      <trkpt lat="50.02669" lon="4.17269">
        <ele>275.4</ele>
        <time>2024-05-04T09:53:35Z</time>
      </trkpt>
      <trkpt lat="50.02669" lon="4.1728">
        <ele>275.4</ele>
        <time>2024-05-04T09:53:36Z</time>
      </trkpt>
      <trkpt lat="50.02669" lon="4.1729">
        <ele>275.4</ele>
        <time>2024-05-04T09:53:37Z</time>
      </trkpt>
      <trkpt lat="50.0267" lon="4.173">
        <ele>275.6</ele>
        <time>2024-05-04T09:53:38Z</time>
      </trkpt>
      <trkpt lat="50.0267" lon="4.1731">
        <ele>275.4</ele>
        <time>2024-05-04T09:53:39Z</time>
      </trkpt>
      <trkpt lat="50.02671" lon="4.1732">
        <ele>275.4</ele>
        <time>2024-05-04T09:53:40Z</time>
      </trkpt>
      <trkpt lat="50.02671" lon="4.17329">
        <ele>275.6</ele>
        <time>2024-05-04T09:53:41Z</time>
      </trkpt>
      <trkpt lat="50.02672" lon="4.17339">
        <ele>275.4</ele>
        <time>2024-05-04T09:53:42Z</time>
      </trkpt>
      <trkpt lat="50.02672" lon="4.17348">
        <ele>275.6</ele>
        <time>2024-05-04T09:53:43Z</time>
      </trkpt>
      <trkpt lat="50.02673" lon="4.17356">
        <ele>275.6</ele>
        <time>2024-05-04T09:53:44Z</time>
      </trkpt>
      <trkpt lat="50.02674" lon="4.17364">
        <ele>275.8</ele>
        <time>2024-05-04T09:53:45Z</time>
      </trkpt>
      <trkpt lat="50.02674" lon="4.17372">
        <ele>275.6</ele>
        <time>2024-05-04T09:53:46Z</time>
      </trkpt>
      <trkpt lat="50.02675" lon="4.1738">
        <ele>275.8</ele>
        <time>2024-05-04T09:53:47Z</time>
      </trkpt>
      <trkpt lat="50.02674" lon="4.17387">
        <ele>275.8</ele>
        <time>2024-05-04T09:53:48Z</time>
      </trkpt>
      <trkpt lat="50.02674" lon="4.17394">
        <ele>275.8</ele>
        <time>2024-05-04T09:53:49Z</time>
      </trkpt>
      <trkpt lat="50.02673" lon="4.17399">
        <ele>275.8</ele>
        <time>2024-05-04T09:53:50Z</time>
      </trkpt>
      <trkpt lat="50.02674" lon="4.17405">
        <ele>275.8</ele>
        <time>2024-05-04T09:53:51Z</time>
      </trkpt>
      <trkpt lat="50.02674" lon="4.1741">
        <ele>275.8</ele>
        <time>2024-05-04T09:53:52Z</time>
      </trkpt>
      <trkpt lat="50.02674" lon="4.17415">
        <ele>275.8</ele>
        <time>2024-05-04T09:53:53Z</time>
      </trkpt>
      <trkpt lat="50.02674" lon="4.1742">
        <ele>275.8</ele>
        <time>2024-05-04T09:53:54Z</time>
      </trkpt>
      <trkpt lat="50.02675" lon="4.17425">
        <ele>275.8</ele>
        <time>2024-05-04T09:53:55Z</time>
      </trkpt>
      <trkpt lat="50.02676" lon="4.17431">
        <ele>275.8</ele>
        <time>2024-05-04T09:53:56Z</time>
      </trkpt>
      <trkpt lat="50.02677" lon="4.17437">
        <ele>276</ele>
        <time>2024-05-04T09:53:57Z</time>
      </trkpt>
      <trkpt lat="50.02677" lon="4.17444">
        <ele>276.2</ele>
        <time>2024-05-04T09:53:58Z</time>
      </trkpt>
      <trkpt lat="50.02677" lon="4.17452">
        <ele>276.2</ele>
        <time>2024-05-04T09:53:59Z</time>
      </trkpt>
      <trkpt lat="50.02677" lon="4.17461">
        <ele>276.2</ele>
        <time>2024-05-04T09:54:00Z</time>
      </trkpt>
      <trkpt lat="50.02678" lon="4.1747">
        <ele>276.4</ele>
        <time>2024-05-04T09:54:01Z</time>
      </trkpt>
      <trkpt lat="50.02678" lon="4.17479">
        <ele>276.4</ele>
        <time>2024-05-04T09:54:02Z</time>
      </trkpt>
      <trkpt lat="50.02678" lon="4.17488">
        <ele>276.4</ele>
        <time>2024-05-04T09:54:03Z</time>
      </trkpt>
      <trkpt lat="50.02678" lon="4.17497">
        <ele>276.6</ele>
        <time>2024-05-04T09:54:04Z</time>
      </trkpt>
      <trkpt lat="50.02679" lon="4.17506">
        <ele>276.4</ele>
        <time>2024-05-04T09:54:05Z</time>
      </trkpt>
      <trkpt lat="50.02679" lon="4.17515">
        <ele>276.4</ele>
        <time>2024-05-04T09:54:06Z</time>
      </trkpt>
      <trkpt lat="50.02679" lon="4.17525">
        <ele>276.6</ele>
        <time>2024-05-04T09:54:07Z</time>
      </trkpt>
      <trkpt lat="50.0268" lon="4.17534">
        <ele>276.6</ele>
        <time>2024-05-04T09:54:08Z</time>
      </trkpt>
      <trkpt lat="50.02681" lon="4.17543">
        <ele>276.4</ele>
        <time>2024-05-04T09:54:09Z</time>
      </trkpt>
      <trkpt lat="50.02681" lon="4.17552">
        <ele>276.2</ele>
        <time>2024-05-04T09:54:10Z</time>
      </trkpt>
      <trkpt lat="50.02682" lon="4.17561">
        <ele>276.2</ele>
        <time>2024-05-04T09:54:11Z</time>
      </trkpt>
      <trkpt lat="50.02682" lon="4.17569">
        <ele>276.2</ele>
        <time>2024-05-04T09:54:12Z</time>
      </trkpt>
      <trkpt lat="50.02682" lon="4.17577">
        <ele>276.2</ele>
        <time>2024-05-04T09:54:13Z</time>
      </trkpt>
      <trkpt lat="50.02683" lon="4.17585">
        <ele>276.2</ele>
        <time>2024-05-04T09:54:14Z</time>
      </trkpt>
      <trkpt lat="50.02683" lon="4.17593">
        <ele>276.2</ele>
        <time>2024-05-04T09:54:15Z</time>
      </trkpt>
      <trkpt lat="50.02684" lon="4.176">
        <ele>276</ele>
        <time>2024-05-04T09:54:16Z</time>
      </trkpt>
      <trkpt lat="50.02684" lon="4.17607">
        <ele>276</ele>
        <time>2024-05-04T09:54:17Z</time>
      </trkpt>
      <trkpt lat="50.02686" lon="4.17614">
        <ele>276.2</ele>
        <time>2024-05-04T09:54:18Z</time>
      </trkpt>
      <trkpt lat="50.02687" lon="4.17619">
        <ele>276.2</ele>
        <time>2024-05-04T09:54:19Z</time>
      </trkpt>
      <trkpt lat="50.02687" lon="4.17624">
        <ele>276</ele>
        <time>2024-05-04T09:54:20Z</time>
      </trkpt>
      <trkpt lat="50.02687" lon="4.17629">
        <ele>276.2</ele>
        <time>2024-05-04T09:54:21Z</time>
      </trkpt>
      <trkpt lat="50.02687" lon="4.17633">
        <ele>276.2</ele>
        <time>2024-05-04T09:54:22Z</time>
      </trkpt>
      <trkpt lat="50.02687" lon="4.17638">
        <ele>276.4</ele>
        <time>2024-05-04T09:54:23Z</time>
      </trkpt>
      <trkpt lat="50.02686" lon="4.17642">
        <ele>276.6</ele>
        <time>2024-05-04T09:54:24Z</time>
      </trkpt>
      <trkpt lat="50.02686" lon="4.17646">
        <ele>276.6</ele>
        <time>2024-05-04T09:54:25Z</time>
      </trkpt>
      <trkpt lat="50.02686" lon="4.1765">
        <ele>276.8</ele>
        <time>2024-05-04T09:54:26Z</time>
      </trkpt>
      <trkpt lat="50.02688" lon="4.17654">
        <ele>276.8</ele>
        <time>2024-05-04T09:54:27Z</time>
      </trkpt>
      <trkpt lat="50.02688" lon="4.17659">
        <ele>277</ele>
        <time>2024-05-04T09:54:28Z</time>
      </trkpt>
      <trkpt lat="50.02688" lon="4.17664">
        <ele>276.8</ele>
        <time>2024-05-04T09:54:29Z</time>
      </trkpt>
      <trkpt lat="50.02688" lon="4.1767">
        <ele>277</ele>
        <time>2024-05-04T09:54:30Z</time>
      </trkpt>
      <trkpt lat="50.02688" lon="4.17677">
        <ele>276.8</ele>
        <time>2024-05-04T09:54:31Z</time>
      </trkpt>
      <trkpt lat="50.02688" lon="4.17685">
        <ele>277</ele>
        <time>2024-05-04T09:54:32Z</time>
      </trkpt>
      <trkpt lat="50.02688" lon="4.17692">
        <ele>277</ele>
        <time>2024-05-04T09:54:33Z</time>
      </trkpt>
      <trkpt lat="50.02688" lon="4.177">
        <ele>277</ele>
        <time>2024-05-04T09:54:34Z</time>
      </trkpt>
      <trkpt lat="50.02688" lon="4.17709">
        <ele>277.2</ele>
        <time>2024-05-04T09:54:35Z</time>
      </trkpt>
      <trkpt lat="50.02689" lon="4.17718">
        <ele>277.2</ele>
        <time>2024-05-04T09:54:36Z</time>
      </trkpt>
      <trkpt lat="50.02689" lon="4.17727">
        <ele>277.2</ele>
        <time>2024-05-04T09:54:37Z</time>
      </trkpt>
      <trkpt lat="50.0269" lon="4.17736">
        <ele>277.2</ele>
        <time>2024-05-04T09:54:38Z</time>
      </trkpt>
      <trkpt lat="50.0269" lon="4.17745">
        <ele>277</ele>
        <time>2024-05-04T09:54:39Z</time>
      </trkpt>
      <trkpt lat="50.0269" lon="4.17754">
        <ele>277</ele>
        <time>2024-05-04T09:54:40Z</time>
      </trkpt>
      <trkpt lat="50.02691" lon="4.17763">
        <ele>277.2</ele>
        <time>2024-05-04T09:54:41Z</time>
      </trkpt>
      <trkpt lat="50.02691" lon="4.17771">
        <ele>277.4</ele>
        <time>2024-05-04T09:54:42Z</time>
      </trkpt>
      <trkpt lat="50.02691" lon="4.1778">
        <ele>277.2</ele>
        <time>2024-05-04T09:54:43Z</time>
      </trkpt>
      <trkpt lat="50.02691" lon="4.17788">
        <ele>277.4</ele>
        <time>2024-05-04T09:54:44Z</time>
      </trkpt>
      <trkpt lat="50.02691" lon="4.17797">
        <ele>277.2</ele>
        <time>2024-05-04T09:54:45Z</time>
      </trkpt>
      <trkpt lat="50.02691" lon="4.17805">
        <ele>277.2</ele>
        <time>2024-05-04T09:54:46Z</time>
      </trkpt>
      <trkpt lat="50.02692" lon="4.17813">
        <ele>277</ele>
        <time>2024-05-04T09:54:47Z</time>
      </trkpt>
      <trkpt lat="50.02692" lon="4.17822">
        <ele>277</ele>
        <time>2024-05-04T09:54:48Z</time>
      </trkpt>
      <trkpt lat="50.02692" lon="4.1783">
        <ele>277</ele>
        <time>2024-05-04T09:54:49Z</time>
      </trkpt>
      <trkpt lat="50.02692" lon="4.17839">
        <ele>276.8</ele>
        <time>2024-05-04T09:54:50Z</time>
      </trkpt>
      <trkpt lat="50.02692" lon="4.17848">
        <ele>276.8</ele>
        <time>2024-05-04T09:54:51Z</time>
      </trkpt>
      <trkpt lat="50.02693" lon="4.17856">
        <ele>276.8</ele>
        <time>2024-05-04T09:54:52Z</time>
      </trkpt>
      <trkpt lat="50.02693" lon="4.17866">
        <ele>277</ele>
        <time>2024-05-04T09:54:53Z</time>
      </trkpt>
      <trkpt lat="50.02694" lon="4.17875">
        <ele>277</ele>
        <time>2024-05-04T09:54:54Z</time>
      </trkpt>
      <trkpt lat="50.02694" lon="4.17884">
        <ele>277</ele>
        <time>2024-05-04T09:54:55Z</time>
      </trkpt>
      <trkpt lat="50.02694" lon="4.17893">
        <ele>277</ele>
        <time>2024-05-04T09:54:56Z</time>
      </trkpt>
      <trkpt lat="50.02694" lon="4.17903">
        <ele>277</ele>
        <time>2024-05-04T09:54:57Z</time>
      </trkpt>
      <trkpt lat="50.02694" lon="4.17913">
        <ele>277</ele>
        <time>2024-05-04T09:54:58Z</time>
      </trkpt>
      <trkpt lat="50.02694" lon="4.17921">
        <ele>277</ele>
        <time>2024-05-04T09:54:59Z</time>
      </trkpt>
      <trkpt lat="50.02695" lon="4.1793">
        <ele>277</ele>
        <time>2024-05-04T09:55:00Z</time>
      </trkpt>
      <trkpt lat="50.02696" lon="4.1794">
        <ele>277</ele>
        <time>2024-05-04T09:55:01Z</time>
      </trkpt>
      <trkpt lat="50.02697" lon="4.17949">
        <ele>277</ele>
        <time>2024-05-04T09:55:02Z</time>
      </trkpt>
      <trkpt lat="50.02697" lon="4.17958">
        <ele>277</ele>
        <time>2024-05-04T09:55:03Z</time>
      </trkpt>
      <trkpt lat="50.02698" lon="4.17967">
        <ele>277</ele>
        <time>2024-05-04T09:55:04Z</time>
      </trkpt>
      <trkpt lat="50.02699" lon="4.17977">
        <ele>277</ele>
        <time>2024-05-04T09:55:05Z</time>
      </trkpt>
      <trkpt lat="50.02699" lon="4.17986">
        <ele>277</ele>
        <time>2024-05-04T09:55:06Z</time>
      </trkpt>
      <trkpt lat="50.02699" lon="4.17996">
        <ele>277</ele>
        <time>2024-05-04T09:55:07Z</time>
      </trkpt>
      <trkpt lat="50.027" lon="4.18006">
        <ele>277</ele>
        <time>2024-05-04T09:55:08Z</time>
      </trkpt>
      <trkpt lat="50.02702" lon="4.18017">
        <ele>276.8</ele>
        <time>2024-05-04T09:55:09Z</time>
      </trkpt>
      <trkpt lat="50.02703" lon="4.18027">
        <ele>277</ele>
        <time>2024-05-04T09:55:10Z</time>
      </trkpt>
      <trkpt lat="50.02703" lon="4.18038">
        <ele>277</ele>
        <time>2024-05-04T09:55:11Z</time>
      </trkpt>
      <trkpt lat="50.02704" lon="4.1805">
        <ele>277.2</ele>
        <time>2024-05-04T09:55:12Z</time>
      </trkpt>
      <trkpt lat="50.02705" lon="4.18061">
        <ele>277</ele>
        <time>2024-05-04T09:55:13Z</time>
      </trkpt>
      <trkpt lat="50.02705" lon="4.18073">
        <ele>277</ele>
        <time>2024-05-04T09:55:14Z</time>
      </trkpt>
      <trkpt lat="50.02706" lon="4.18085">
        <ele>277</ele>
        <time>2024-05-04T09:55:15Z</time>
      </trkpt>
      <trkpt lat="50.02706" lon="4.18095">
        <ele>276.8</ele>
        <time>2024-05-04T09:55:16Z</time>
      </trkpt>
      <trkpt lat="50.02707" lon="4.18106">
        <ele>277</ele>
        <time>2024-05-04T09:55:17Z</time>
      </trkpt>
      <trkpt lat="50.02708" lon="4.18117">
        <ele>276.8</ele>
        <time>2024-05-04T09:55:18Z</time>
      </trkpt>
      <trkpt lat="50.02708" lon="4.18128">
        <ele>276.8</ele>
        <time>2024-05-04T09:55:19Z</time>
      </trkpt>
      <trkpt lat="50.02708" lon="4.18139">
        <ele>276.8</ele>
        <time>2024-05-04T09:55:20Z</time>
      </trkpt>
      <trkpt lat="50.02709" lon="4.1815">
        <ele>276.8</ele>
        <time>2024-05-04T09:55:21Z</time>
      </trkpt>
      <trkpt lat="50.0271" lon="4.1816">
        <ele>276.8</ele>
        <time>2024-05-04T09:55:22Z</time>
      </trkpt>
      <trkpt lat="50.0271" lon="4.18171">
        <ele>276.8</ele>
        <time>2024-05-04T09:55:23Z</time>
      </trkpt>
      <trkpt lat="50.02711" lon="4.18181">
        <ele>276.8</ele>
        <time>2024-05-04T09:55:24Z</time>
      </trkpt>
      <trkpt lat="50.02711" lon="4.18191">
        <ele>276.8</ele>
        <time>2024-05-04T09:55:25Z</time>
      </trkpt>
      <trkpt lat="50.02712" lon="4.18202">
        <ele>276.8</ele>
        <time>2024-05-04T09:55:26Z</time>
      </trkpt>
      <trkpt lat="50.02712" lon="4.18212">
        <ele>277</ele>
        <time>2024-05-04T09:55:27Z</time>
      </trkpt>
      <trkpt lat="50.02712" lon="4.18223">
        <ele>277</ele>
        <time>2024-05-04T09:55:28Z</time>
      </trkpt>
      <trkpt lat="50.02713" lon="4.18233">
        <ele>276.8</ele>
        <time>2024-05-04T09:55:29Z</time>
      </trkpt>
      <trkpt lat="50.02713" lon="4.18243">
        <ele>276.8</ele>
        <time>2024-05-04T09:55:30Z</time>
      </trkpt>
      <trkpt lat="50.02714" lon="4.18253">
        <ele>276.8</ele>
        <time>2024-05-04T09:55:31Z</time>
      </trkpt>
      <trkpt lat="50.02715" lon="4.18263">
        <ele>276.8</ele>
        <time>2024-05-04T09:55:32Z</time>
      </trkpt>
      <trkpt lat="50.02715" lon="4.18273">
        <ele>276.6</ele>
        <time>2024-05-04T09:55:33Z</time>
      </trkpt>
      <trkpt lat="50.02715" lon="4.18282">
        <ele>276.6</ele>
        <time>2024-05-04T09:55:34Z</time>
      </trkpt>
      <trkpt lat="50.02716" lon="4.18292">
        <ele>276.6</ele>
        <time>2024-05-04T09:55:35Z</time>
      </trkpt>
      <trkpt lat="50.02716" lon="4.18302">
        <ele>276.6</ele>
        <time>2024-05-04T09:55:36Z</time>
      </trkpt>
      <trkpt lat="50.02717" lon="4.18312">
        <ele>276.6</ele>
        <time>2024-05-04T09:55:37Z</time>
      </trkpt>
      <trkpt lat="50.02717" lon="4.18322">
        <ele>276.6</ele>
        <time>2024-05-04T09:55:38Z</time>
      </trkpt>
      <trkpt lat="50.02718" lon="4.18333">
        <ele>276.6</ele>
        <time>2024-05-04T09:55:39Z</time>
      </trkpt>
      <trkpt lat="50.02718" lon="4.18343">
        <ele>276.4</ele>
        <time>2024-05-04T09:55:40Z</time>
      </trkpt>
      <trkpt lat="50.02718" lon="4.18353">
        <ele>276.6</ele>
        <time>2024-05-04T09:55:41Z</time>
      </trkpt>
      <trkpt lat="50.02719" lon="4.18363">
        <ele>276.6</ele>
        <time>2024-05-04T09:55:42Z</time>
      </trkpt>
      <trkpt lat="50.02719" lon="4.18374">
        <ele>276.4</ele>
        <time>2024-05-04T09:55:43Z</time>
      </trkpt>
      <trkpt lat="50.0272" lon="4.18384">
        <ele>276.4</ele>
        <time>2024-05-04T09:55:44Z</time>
      </trkpt>
      <trkpt lat="50.0272" lon="4.18394">
        <ele>276.2</ele>
        <time>2024-05-04T09:55:45Z</time>
      </trkpt>
      <trkpt lat="50.02721" lon="4.18404">
        <ele>276.2</ele>
        <time>2024-05-04T09:55:46Z</time>
      </trkpt>
      <trkpt lat="50.02721" lon="4.18415">
        <ele>276.2</ele>
        <time>2024-05-04T09:55:47Z</time>
      </trkpt>
      <trkpt lat="50.02722" lon="4.18425">
        <ele>276.2</ele>
        <time>2024-05-04T09:55:48Z</time>
      </trkpt>
      <trkpt lat="50.02722" lon="4.18435">
        <ele>276.2</ele>
        <time>2024-05-04T09:55:49Z</time>
      </trkpt>
      <trkpt lat="50.02722" lon="4.18446">
        <ele>276.4</ele>
        <time>2024-05-04T09:55:50Z</time>
      </trkpt>
      <trkpt lat="50.02723" lon="4.18456">
        <ele>276.2</ele>
        <time>2024-05-04T09:55:51Z</time>
      </trkpt>
      <trkpt lat="50.02723" lon="4.18466">
        <ele>276.2</ele>
        <time>2024-05-04T09:55:52Z</time>
      </trkpt>
      <trkpt lat="50.02724" lon="4.18476">
        <ele>276.2</ele>
        <time>2024-05-04T09:55:53Z</time>
      </trkpt>
      <trkpt lat="50.02724" lon="4.18487">
        <ele>276.2</ele>
        <time>2024-05-04T09:55:54Z</time>
      </trkpt>
      <trkpt lat="50.02725" lon="4.18497">
        <ele>276</ele>
        <time>2024-05-04T09:55:55Z</time>
      </trkpt>
      <trkpt lat="50.02725" lon="4.18507">
        <ele>276.2</ele>
        <time>2024-05-04T09:55:56Z</time>
      </trkpt>
      <trkpt lat="50.02726" lon="4.18518">
        <ele>276</ele>
        <time>2024-05-04T09:55:57Z</time>
      </trkpt>
      <trkpt lat="50.02726" lon="4.18528">
        <ele>275.8</ele>
        <time>2024-05-04T09:55:58Z</time>
      </trkpt>
      <trkpt lat="50.02726" lon="4.18538">
        <ele>275.8</ele>
        <time>2024-05-04T09:55:59Z</time>
      </trkpt>
      <trkpt lat="50.02727" lon="4.18548">
        <ele>275.8</ele>
        <time>2024-05-04T09:56:00Z</time>
      </trkpt>
      <trkpt lat="50.02727" lon="4.18558">
        <ele>275.8</ele>
        <time>2024-05-04T09:56:01Z</time>
      </trkpt>
      <trkpt lat="50.02728" lon="4.18568">
        <ele>275.6</ele>
        <time>2024-05-04T09:56:02Z</time>
      </trkpt>
      <trkpt lat="50.02728" lon="4.18578">
        <ele>275.8</ele>
        <time>2024-05-04T09:56:03Z</time>
      </trkpt>
      <trkpt lat="50.02729" lon="4.18588">
        <ele>275.8</ele>
        <time>2024-05-04T09:56:04Z</time>
      </trkpt>
      <trkpt lat="50.02729" lon="4.18598">
        <ele>275.6</ele>
        <time>2024-05-04T09:56:05Z</time>
      </trkpt>
      <trkpt lat="50.0273" lon="4.18608">
        <ele>275.8</ele>
        <time>2024-05-04T09:56:06Z</time>
      </trkpt>
      <trkpt lat="50.0273" lon="4.18618">
        <ele>275.6</ele>
        <time>2024-05-04T09:56:07Z</time>
      </trkpt>
      <trkpt lat="50.0273" lon="4.18628">
        <ele>275.6</ele>
        <time>2024-05-04T09:56:08Z</time>
      </trkpt>
      <trkpt lat="50.02731" lon="4.18638">
        <ele>275.8</ele>
        <time>2024-05-04T09:56:09Z</time>
      </trkpt>
      <trkpt lat="50.02731" lon="4.18648">
        <ele>275.8</ele>
        <time>2024-05-04T09:56:10Z</time>
      </trkpt>
      <trkpt lat="50.02731" lon="4.18658">
        <ele>275.6</ele>
        <time>2024-05-04T09:56:11Z</time>
      </trkpt>
      <trkpt lat="50.02732" lon="4.18668">
        <ele>275.8</ele>
        <time>2024-05-04T09:56:12Z</time>
      </trkpt>
      <trkpt lat="50.02732" lon="4.18678">
        <ele>275.6</ele>
        <time>2024-05-04T09:56:13Z</time>
      </trkpt>
      <trkpt lat="50.02732" lon="4.18688">
        <ele>275.6</ele>
        <time>2024-05-04T09:56:14Z</time>
      </trkpt>
      <trkpt lat="50.02732" lon="4.18698">
        <ele>275.6</ele>
        <time>2024-05-04T09:56:15Z</time>
      </trkpt>
      <trkpt lat="50.02732" lon="4.18709">
        <ele>275.8</ele>
        <time>2024-05-04T09:56:16Z</time>
      </trkpt>
      <trkpt lat="50.02732" lon="4.18719">
        <ele>275.4</ele>
        <time>2024-05-04T09:56:17Z</time>
      </trkpt>
      <trkpt lat="50.02732" lon="4.18729">
        <ele>275.2</ele>
        <time>2024-05-04T09:56:18Z</time>
      </trkpt>
      <trkpt lat="50.02732" lon="4.1874">
        <ele>275.2</ele>
        <time>2024-05-04T09:56:19Z</time>
      </trkpt>
      <trkpt lat="50.02732" lon="4.1875">
        <ele>275.2</ele>
        <time>2024-05-04T09:56:20Z</time>
      </trkpt>
      <trkpt lat="50.02732" lon="4.1876">
        <ele>275.2</ele>
        <time>2024-05-04T09:56:21Z</time>
      </trkpt>
      <trkpt lat="50.02731" lon="4.1877">
        <ele>275</ele>
        <time>2024-05-04T09:56:22Z</time>
      </trkpt>
      <trkpt lat="50.02731" lon="4.1878">
        <ele>275</ele>
        <time>2024-05-04T09:56:23Z</time>
      </trkpt>
      <trkpt lat="50.02731" lon="4.1879">
        <ele>275</ele>
        <time>2024-05-04T09:56:24Z</time>
      </trkpt>
      <trkpt lat="50.0273" lon="4.188">
        <ele>274.8</ele>
        <time>2024-05-04T09:56:25Z</time>
      </trkpt>
      <trkpt lat="50.0273" lon="4.18809">
        <ele>274.8</ele>
        <time>2024-05-04T09:56:26Z</time>
      </trkpt>
      <trkpt lat="50.0273" lon="4.18819">
        <ele>274.6</ele>
        <time>2024-05-04T09:56:27Z</time>
      </trkpt>
      <trkpt lat="50.0273" lon="4.18828">
        <ele>274.6</ele>
        <time>2024-05-04T09:56:28Z</time>
      </trkpt>
      <trkpt lat="50.0273" lon="4.18837">
        <ele>274.6</ele>
        <time>2024-05-04T09:56:29Z</time>
      </trkpt>
      <trkpt lat="50.02729" lon="4.18846">
        <ele>274.6</ele>
        <time>2024-05-04T09:56:30Z</time>
      </trkpt>
      <trkpt lat="50.02729" lon="4.18855">
        <ele>274.6</ele>
        <time>2024-05-04T09:56:31Z</time>
      </trkpt>
      <trkpt lat="50.02728" lon="4.18864">
        <ele>274.6</ele>
        <time>2024-05-04T09:56:32Z</time>
      </trkpt>
      <trkpt lat="50.02728" lon="4.18873">
        <ele>274.6</ele>
        <time>2024-05-04T09:56:33Z</time>
      </trkpt>
      <trkpt lat="50.02728" lon="4.18882">
        <ele>274.8</ele>
        <time>2024-05-04T09:56:34Z</time>
      </trkpt>
      <trkpt lat="50.02727" lon="4.18891">
        <ele>274.8</ele>
        <time>2024-05-04T09:56:35Z</time>
      </trkpt>
      <trkpt lat="50.02726" lon="4.189">
        <ele>274.8</ele>
        <time>2024-05-04T09:56:36Z</time>
      </trkpt>
      <trkpt lat="50.02725" lon="4.18908">
        <ele>275.2</ele>
        <time>2024-05-04T09:56:37Z</time>
      </trkpt>
      <trkpt lat="50.02725" lon="4.18917">
        <ele>275.4</ele>
        <time>2024-05-04T09:56:38Z</time>
      </trkpt>
      <trkpt lat="50.02724" lon="4.18926">
        <ele>275.6</ele>
        <time>2024-05-04T09:56:39Z</time>
      </trkpt>
      <trkpt lat="50.02723" lon="4.18936">
        <ele>275.6</ele>
        <time>2024-05-04T09:56:40Z</time>
      </trkpt>
      <trkpt lat="50.02722" lon="4.18944">
        <ele>275.8</ele>
        <time>2024-05-04T09:56:41Z</time>
      </trkpt>
      <trkpt lat="50.02722" lon="4.18953">
        <ele>276.2</ele>
        <time>2024-05-04T09:56:42Z</time>
      </trkpt>
      <trkpt lat="50.02721" lon="4.18962">
        <ele>276</ele>
        <time>2024-05-04T09:56:43Z</time>
      </trkpt>
      <trkpt lat="50.02719" lon="4.18972">
        <ele>276.2</ele>
        <time>2024-05-04T09:56:44Z</time>
      </trkpt>
      <trkpt lat="50.02718" lon="4.18981">
        <ele>276.2</ele>
        <time>2024-05-04T09:56:45Z</time>
      </trkpt>
      <trkpt lat="50.02717" lon="4.18989">
        <ele>276.2</ele>
        <time>2024-05-04T09:56:46Z</time>
      </trkpt>
      <trkpt lat="50.02716" lon="4.18998">
        <ele>276.4</ele>
        <time>2024-05-04T09:56:47Z</time>
      </trkpt>
      <trkpt lat="50.02715" lon="4.19007">
        <ele>276.4</ele>
        <time>2024-05-04T09:56:48Z</time>
      </trkpt>
      <trkpt lat="50.02714" lon="4.19015">
        <ele>276.4</ele>
        <time>2024-05-04T09:56:49Z</time>
      </trkpt>
      <trkpt lat="50.02713" lon="4.19025">
        <ele>276.4</ele>
        <time>2024-05-04T09:56:50Z</time>
      </trkpt>
      <trkpt lat="50.02711" lon="4.19034">
        <ele>276.6</ele>
        <time>2024-05-04T09:56:51Z</time>
      </trkpt>
      <trkpt lat="50.0271" lon="4.19044">
        <ele>276.6</ele>
        <time>2024-05-04T09:56:52Z</time>
      </trkpt>
      <trkpt lat="50.02709" lon="4.19054">
        <ele>276.8</ele>
        <time>2024-05-04T09:56:53Z</time>
      </trkpt>
      <trkpt lat="50.02708" lon="4.19064">
        <ele>276.8</ele>
        <time>2024-05-04T09:56:54Z</time>
      </trkpt>
      <trkpt lat="50.02707" lon="4.19074">
        <ele>277</ele>
        <time>2024-05-04T09:56:55Z</time>
      </trkpt>
      <trkpt lat="50.02705" lon="4.19083">
        <ele>277</ele>
        <time>2024-05-04T09:56:56Z</time>
      </trkpt>
      <trkpt lat="50.02704" lon="4.19094">
        <ele>277.2</ele>
        <time>2024-05-04T09:56:57Z</time>
      </trkpt>
      <trkpt lat="50.02703" lon="4.19103">
        <ele>277</ele>
        <time>2024-05-04T09:56:58Z</time>
      </trkpt>
      <trkpt lat="50.02702" lon="4.19114">
        <ele>277</ele>
        <time>2024-05-04T09:56:59Z</time>
      </trkpt>
      <trkpt lat="50.027" lon="4.19124">
        <ele>277.2</ele>
        <time>2024-05-04T09:57:00Z</time>
      </trkpt>
      <trkpt lat="50.02699" lon="4.19133">
        <ele>277.2</ele>
        <time>2024-05-04T09:57:01Z</time>
      </trkpt>
      <trkpt lat="50.02698" lon="4.19143">
        <ele>277.2</ele>
        <time>2024-05-04T09:57:02Z</time>
      </trkpt>
      <trkpt lat="50.02697" lon="4.19153">
        <ele>277.4</ele>
        <time>2024-05-04T09:57:03Z</time>
      </trkpt>
      <trkpt lat="50.02696" lon="4.19162">
        <ele>277.4</ele>
        <time>2024-05-04T09:57:04Z</time>
      </trkpt>
      <trkpt lat="50.02695" lon="4.19171">
        <ele>277.4</ele>
        <time>2024-05-04T09:57:05Z</time>
      </trkpt>
      <trkpt lat="50.02694" lon="4.1918">
        <ele>277.6</ele>
        <time>2024-05-04T09:57:06Z</time>
      </trkpt>
      <trkpt lat="50.02692" lon="4.19189">
        <ele>277.6</ele>
        <time>2024-05-04T09:57:07Z</time>
      </trkpt>
      <trkpt lat="50.02691" lon="4.19197">
        <ele>277.6</ele>
        <time>2024-05-04T09:57:08Z</time>
      </trkpt>
      <trkpt lat="50.0269" lon="4.19206">
        <ele>277.6</ele>
        <time>2024-05-04T09:57:09Z</time>
      </trkpt>
      <trkpt lat="50.02689" lon="4.19214">
        <ele>277.8</ele>
        <time>2024-05-04T09:57:10Z</time>
      </trkpt>
      <trkpt lat="50.02687" lon="4.19223">
        <ele>277.8</ele>
        <time>2024-05-04T09:57:11Z</time>
      </trkpt>
      <trkpt lat="50.02686" lon="4.19232">
        <ele>277.8</ele>
        <time>2024-05-04T09:57:12Z</time>
      </trkpt>
      <trkpt lat="50.02684" lon="4.19241">
        <ele>278</ele>
        <time>2024-05-04T09:57:13Z</time>
      </trkpt>
      <trkpt lat="50.02683" lon="4.1925">
        <ele>278.2</ele>
        <time>2024-05-04T09:57:14Z</time>
      </trkpt>
      <trkpt lat="50.02682" lon="4.19258">
        <ele>278.2</ele>
        <time>2024-05-04T09:57:15Z</time>
      </trkpt>
      <trkpt lat="50.02681" lon="4.19267">
        <ele>278</ele>
        <time>2024-05-04T09:57:16Z</time>
      </trkpt>
      <trkpt lat="50.0268" lon="4.19277">
        <ele>278.2</ele>
        <time>2024-05-04T09:57:17Z</time>
      </trkpt>
      <trkpt lat="50.0268" lon="4.19286">
        <ele>278.2</ele>
        <time>2024-05-04T09:57:18Z</time>
      </trkpt>
      <trkpt lat="50.02679" lon="4.19294">
        <ele>278.2</ele>
        <time>2024-05-04T09:57:19Z</time>
      </trkpt>
      <trkpt lat="50.02678" lon="4.19304">
        <ele>278.2</ele>
        <time>2024-05-04T09:57:20Z</time>
      </trkpt>
      <trkpt lat="50.02677" lon="4.19313">
        <ele>278.2</ele>
        <time>2024-05-04T09:57:21Z</time>
      </trkpt>
      <trkpt lat="50.02676" lon="4.19323">
        <ele>278.6</ele>
        <time>2024-05-04T09:57:22Z</time>
      </trkpt>
      <trkpt lat="50.02675" lon="4.19332">
        <ele>278.8</ele>
        <time>2024-05-04T09:57:23Z</time>
      </trkpt>
      <trkpt lat="50.02674" lon="4.19342">
        <ele>279</ele>
        <time>2024-05-04T09:57:24Z</time>
      </trkpt>
      <trkpt lat="50.02673" lon="4.19351">
        <ele>279</ele>
        <time>2024-05-04T09:57:25Z</time>
      </trkpt>
      <trkpt lat="50.02672" lon="4.19361">
        <ele>279.2</ele>
        <time>2024-05-04T09:57:26Z</time>
      </trkpt>
      <trkpt lat="50.02671" lon="4.19371">
        <ele>279.2</ele>
        <time>2024-05-04T09:57:27Z</time>
      </trkpt>
      <trkpt lat="50.02669" lon="4.19381">
        <ele>279.2</ele>
        <time>2024-05-04T09:57:28Z</time>
      </trkpt>
      <trkpt lat="50.02668" lon="4.1939">
        <ele>279.2</ele>
        <time>2024-05-04T09:57:29Z</time>
      </trkpt>
      <trkpt lat="50.02667" lon="4.194">
        <ele>279.2</ele>
        <time>2024-05-04T09:57:30Z</time>
      </trkpt>
      <trkpt lat="50.02665" lon="4.19409">
        <ele>279.4</ele>
        <time>2024-05-04T09:57:31Z</time>
      </trkpt>
      <trkpt lat="50.02664" lon="4.19418">
        <ele>279.4</ele>
        <time>2024-05-04T09:57:32Z</time>
      </trkpt>
      <trkpt lat="50.02663" lon="4.19428">
        <ele>279.2</ele>
        <time>2024-05-04T09:57:33Z</time>
      </trkpt>
      <trkpt lat="50.02662" lon="4.19438">
        <ele>279.4</ele>
        <time>2024-05-04T09:57:34Z</time>
      </trkpt>
      <trkpt lat="50.02661" lon="4.19448">
        <ele>279.4</ele>
        <time>2024-05-04T09:57:35Z</time>
      </trkpt>
      <trkpt lat="50.02659" lon="4.19458">
        <ele>279.4</ele>
        <time>2024-05-04T09:57:36Z</time>
      </trkpt>
      <trkpt lat="50.02658" lon="4.19468">
        <ele>279.4</ele>
        <time>2024-05-04T09:57:37Z</time>
      </trkpt>
      <trkpt lat="50.02656" lon="4.19478">
        <ele>279.4</ele>
        <time>2024-05-04T09:57:38Z</time>
      </trkpt>
      <trkpt lat="50.02654" lon="4.19487">
        <ele>279.6</ele>
        <time>2024-05-04T09:57:39Z</time>
      </trkpt>
      <trkpt lat="50.02653" lon="4.19496">
        <ele>279.4</ele>
        <time>2024-05-04T09:57:40Z</time>
      </trkpt>
      <trkpt lat="50.02652" lon="4.19505">
        <ele>279.6</ele>
        <time>2024-05-04T09:57:41Z</time>
      </trkpt>
      <trkpt lat="50.0265" lon="4.19514">
        <ele>279.8</ele>
        <time>2024-05-04T09:57:42Z</time>
      </trkpt>
      <trkpt lat="50.02649" lon="4.19523">
        <ele>280</ele>
        <time>2024-05-04T09:57:43Z</time>
      </trkpt>
      <trkpt lat="50.02648" lon="4.19532">
        <ele>280</ele>
        <time>2024-05-04T09:57:44Z</time>
      </trkpt>
      <trkpt lat="50.02647" lon="4.19542">
        <ele>280</ele>
        <time>2024-05-04T09:57:45Z</time>
      </trkpt>
      <trkpt lat="50.02646" lon="4.19551">
        <ele>280.2</ele>
        <time>2024-05-04T09:57:46Z</time>
      </trkpt>
      <trkpt lat="50.02644" lon="4.1956">
        <ele>280.2</ele>
        <time>2024-05-04T09:57:47Z</time>
      </trkpt>
      <trkpt lat="50.02642" lon="4.19569">
        <ele>280.4</ele>
        <time>2024-05-04T09:57:48Z</time>
      </trkpt>
      <trkpt lat="50.02641" lon="4.19579">
        <ele>280.4</ele>
        <time>2024-05-04T09:57:49Z</time>
      </trkpt>
      <trkpt lat="50.0264" lon="4.19588">
        <ele>280.4</ele>
        <time>2024-05-04T09:57:50Z</time>
      </trkpt>
      <trkpt lat="50.02639" lon="4.19598">
        <ele>280.6</ele>
        <time>2024-05-04T09:57:51Z</time>
      </trkpt>
      <trkpt lat="50.02637" lon="4.19607">
        <ele>280.6</ele>
        <time>2024-05-04T09:57:52Z</time>
      </trkpt>
      <trkpt lat="50.02635" lon="4.19615">
        <ele>280.8</ele>
        <time>2024-05-04T09:57:53Z</time>
      </trkpt>
      <trkpt lat="50.02633" lon="4.19624">
        <ele>280.8</ele>
        <time>2024-05-04T09:57:54Z</time>
      </trkpt>
      <trkpt lat="50.02631" lon="4.19633">
        <ele>280.8</ele>
        <time>2024-05-04T09:57:55Z</time>
      </trkpt>
      <trkpt lat="50.02629" lon="4.19642">
        <ele>280.6</ele>
        <time>2024-05-04T09:57:56Z</time>
      </trkpt>
      <trkpt lat="50.02628" lon="4.19652">
        <ele>280.8</ele>
        <time>2024-05-04T09:57:57Z</time>
      </trkpt>
      <trkpt lat="50.02627" lon="4.19662">
        <ele>280.8</ele>
        <time>2024-05-04T09:57:58Z</time>
      </trkpt>
      <trkpt lat="50.02626" lon="4.19671">
        <ele>281.2</ele>
        <time>2024-05-04T09:57:59Z</time>
      </trkpt>
      <trkpt lat="50.02624" lon="4.19681">
        <ele>281.4</ele>
        <time>2024-05-04T09:58:00Z</time>
      </trkpt>
      <trkpt lat="50.02624" lon="4.19692">
        <ele>281.4</ele>
        <time>2024-05-04T09:58:01Z</time>
      </trkpt>
      <trkpt lat="50.02623" lon="4.19704">
        <ele>281.4</ele>
        <time>2024-05-04T09:58:02Z</time>
      </trkpt>
      <trkpt lat="50.02622" lon="4.19715">
        <ele>281.6</ele>
        <time>2024-05-04T09:58:03Z</time>
      </trkpt>
      <trkpt lat="50.0262" lon="4.19725">
        <ele>281.6</ele>
        <time>2024-05-04T09:58:04Z</time>
      </trkpt>
      <trkpt lat="50.02619" lon="4.19736">
        <ele>281.4</ele>
        <time>2024-05-04T09:58:05Z</time>
      </trkpt>
      <trkpt lat="50.02618" lon="4.19746">
        <ele>281.4</ele>
        <time>2024-05-04T09:58:06Z</time>
      </trkpt>
      <trkpt lat="50.02616" lon="4.19757">
        <ele>281.6</ele>
        <time>2024-05-04T09:58:07Z</time>
      </trkpt>
      <trkpt lat="50.02615" lon="4.19767">
        <ele>281.6</ele>
        <time>2024-05-04T09:58:08Z</time>
      </trkpt>
      <trkpt lat="50.02614" lon="4.19778">
        <ele>281.6</ele>
        <time>2024-05-04T09:58:09Z</time>
      </trkpt>
      <trkpt lat="50.02612" lon="4.19788">
        <ele>281.4</ele>
        <time>2024-05-04T09:58:10Z</time>
      </trkpt>
      <trkpt lat="50.0261" lon="4.19798">
        <ele>281.4</ele>
        <time>2024-05-04T09:58:11Z</time>
      </trkpt>
      <trkpt lat="50.02609" lon="4.19808">
        <ele>281.2</ele>
        <time>2024-05-04T09:58:12Z</time>
      </trkpt>
      <trkpt lat="50.02607" lon="4.19819">
        <ele>281.2</ele>
        <time>2024-05-04T09:58:13Z</time>
      </trkpt>
      <trkpt lat="50.02606" lon="4.1983">
        <ele>281.2</ele>
        <time>2024-05-04T09:58:14Z</time>
      </trkpt>
      <trkpt lat="50.02605" lon="4.1984">
        <ele>280.8</ele>
        <time>2024-05-04T09:58:15Z</time>
      </trkpt>
      <trkpt lat="50.02604" lon="4.19851">
        <ele>280.8</ele>
        <time>2024-05-04T09:58:16Z</time>
      </trkpt>
      <trkpt lat="50.02603" lon="4.19862">
        <ele>280.6</ele>
        <time>2024-05-04T09:58:17Z</time>
      </trkpt>
      <trkpt lat="50.02601" lon="4.19872">
        <ele>280.4</ele>
        <time>2024-05-04T09:58:18Z</time>
      </trkpt>
      <trkpt lat="50.026" lon="4.19882">
        <ele>280.4</ele>
        <time>2024-05-04T09:58:19Z</time>
      </trkpt>
      <trkpt lat="50.02599" lon="4.19892">
        <ele>280.4</ele>
        <time>2024-05-04T09:58:20Z</time>
      </trkpt>
      <trkpt lat="50.02598" lon="4.19903">
        <ele>280.4</ele>
        <time>2024-05-04T09:58:21Z</time>
      </trkpt>
      <trkpt lat="50.02597" lon="4.19912">
        <ele>280.6</ele>
        <time>2024-05-04T09:58:22Z</time>
      </trkpt>
      <trkpt lat="50.02596" lon="4.19922">
        <ele>280.4</ele>
        <time>2024-05-04T09:58:23Z</time>
      </trkpt>
      <trkpt lat="50.02594" lon="4.19932">
        <ele>280.6</ele>
        <time>2024-05-04T09:58:24Z</time>
      </trkpt>
      <trkpt lat="50.02593" lon="4.19942">
        <ele>280.4</ele>
        <time>2024-05-04T09:58:25Z</time>
      </trkpt>
      <trkpt lat="50.02592" lon="4.19952">
        <ele>280.8</ele>
        <time>2024-05-04T09:58:26Z</time>
      </trkpt>
      <trkpt lat="50.0259" lon="4.19962">
        <ele>280.6</ele>
        <time>2024-05-04T09:58:27Z</time>
      </trkpt>
      <trkpt lat="50.02589" lon="4.19972">
        <ele>280.6</ele>
        <time>2024-05-04T09:58:28Z</time>
      </trkpt>
      <trkpt lat="50.02587" lon="4.19981">
        <ele>280.8</ele>
        <time>2024-05-04T09:58:29Z</time>
      </trkpt>
      <trkpt lat="50.02586" lon="4.19992">
        <ele>280.6</ele>
        <time>2024-05-04T09:58:30Z</time>
      </trkpt>
      <trkpt lat="50.02585" lon="4.20003">
        <ele>280.6</ele>
        <time>2024-05-04T09:58:31Z</time>
      </trkpt>
      <trkpt lat="50.02583" lon="4.20013">
        <ele>280.8</ele>
        <time>2024-05-04T09:58:32Z</time>
      </trkpt>
      <trkpt lat="50.02582" lon="4.20023">
        <ele>280.8</ele>
        <time>2024-05-04T09:58:33Z</time>
      </trkpt>
      <trkpt lat="50.0258" lon="4.20035">
        <ele>280.6</ele>
        <time>2024-05-04T09:58:34Z</time>
      </trkpt>
      <trkpt lat="50.02578" lon="4.20046">
        <ele>280.6</ele>
        <time>2024-05-04T09:58:35Z</time>
      </trkpt>
      <trkpt lat="50.02577" lon="4.20056">
        <ele>280.6</ele>
        <time>2024-05-04T09:58:36Z</time>
      </trkpt>
      <trkpt lat="50.02575" lon="4.20066">
        <ele>280.6</ele>
        <time>2024-05-04T09:58:37Z</time>
      </trkpt>
      <trkpt lat="50.02573" lon="4.20076">
        <ele>280.6</ele>
        <time>2024-05-04T09:58:38Z</time>
      </trkpt>
      <trkpt lat="50.02572" lon="4.20086">
        <ele>280.4</ele>
        <time>2024-05-04T09:58:39Z</time>
      </trkpt>
      <trkpt lat="50.02571" lon="4.20097">
        <ele>280.4</ele>
        <time>2024-05-04T09:58:40Z</time>
      </trkpt>
      <trkpt lat="50.02571" lon="4.20108">
        <ele>280.2</ele>
        <time>2024-05-04T09:58:41Z</time>
      </trkpt>
      <trkpt lat="50.0257" lon="4.20119">
        <ele>280.2</ele>
        <time>2024-05-04T09:58:42Z</time>
      </trkpt>
      <trkpt lat="50.0257" lon="4.20129">
        <ele>280</ele>
        <time>2024-05-04T09:58:43Z</time>
      </trkpt>
      <trkpt lat="50.02569" lon="4.20139">
        <ele>280</ele>
        <time>2024-05-04T09:58:44Z</time>
      </trkpt>
      <trkpt lat="50.02568" lon="4.20149">
        <ele>280</ele>
        <time>2024-05-04T09:58:45Z</time>
      </trkpt>
      <trkpt lat="50.02567" lon="4.20158">
        <ele>280</ele>
        <time>2024-05-04T09:58:46Z</time>
      </trkpt>
      <trkpt lat="50.02566" lon="4.20166">
        <ele>280</ele>
        <time>2024-05-04T09:58:47Z</time>
      </trkpt>
      <trkpt lat="50.02565" lon="4.20175">
        <ele>279.8</ele>
        <time>2024-05-04T09:58:48Z</time>
      </trkpt>
      <trkpt lat="50.02564" lon="4.20182">
        <ele>279.8</ele>
        <time>2024-05-04T09:58:49Z</time>
      </trkpt>
      <trkpt lat="50.02563" lon="4.20188">
        <ele>280</ele>
        <time>2024-05-04T09:58:50Z</time>
      </trkpt>
      <trkpt lat="50.02562" lon="4.20194">
        <ele>280</ele>
        <time>2024-05-04T09:58:51Z</time>
      </trkpt>
      <trkpt lat="50.02562" lon="4.20199">
        <ele>280</ele>
        <time>2024-05-04T09:58:52Z</time>
      </trkpt>
      <trkpt lat="50.02561" lon="4.20205">
        <ele>280.2</ele>
        <time>2024-05-04T09:58:53Z</time>
      </trkpt>
      <trkpt lat="50.02561" lon="4.20209">
        <ele>280.2</ele>
        <time>2024-05-04T09:58:54Z</time>
      </trkpt>
      <trkpt lat="50.02562" lon="4.20214">
        <ele>280.4</ele>
        <time>2024-05-04T09:58:55Z</time>
      </trkpt>
      <trkpt lat="50.02562" lon="4.20219">
        <ele>280.4</ele>
        <time>2024-05-04T09:58:56Z</time>
      </trkpt>
      <trkpt lat="50.02561" lon="4.20225">
        <ele>280.8</ele>
        <time>2024-05-04T09:58:57Z</time>
      </trkpt>
      <trkpt lat="50.0256" lon="4.20231">
        <ele>281.2</ele>
        <time>2024-05-04T09:58:58Z</time>
      </trkpt>
      <trkpt lat="50.02559" lon="4.20239">
        <ele>281.4</ele>
        <time>2024-05-04T09:58:59Z</time>
      </trkpt>
      <trkpt lat="50.02558" lon="4.20247">
        <ele>281.2</ele>
        <time>2024-05-04T09:59:00Z</time>
      </trkpt>
      <trkpt lat="50.02557" lon="4.20255">
        <ele>281.4</ele>
        <time>2024-05-04T09:59:01Z</time>
      </trkpt>
      <trkpt lat="50.02556" lon="4.20264">
        <ele>281.6</ele>
        <time>2024-05-04T09:59:02Z</time>
      </trkpt>
      <trkpt lat="50.02554" lon="4.20273">
        <ele>281.6</ele>
        <time>2024-05-04T09:59:03Z</time>
      </trkpt>
      <trkpt lat="50.02554" lon="4.20283">
        <ele>281.4</ele>
        <time>2024-05-04T09:59:04Z</time>
      </trkpt>
      <trkpt lat="50.02553" lon="4.20292">
        <ele>281.4</ele>
        <time>2024-05-04T09:59:05Z</time>
      </trkpt>
      <trkpt lat="50.02551" lon="4.20303">
        <ele>281.6</ele>
        <time>2024-05-04T09:59:06Z</time>
      </trkpt>
      <trkpt lat="50.0255" lon="4.20314">
        <ele>281.6</ele>
        <time>2024-05-04T09:59:07Z</time>
      </trkpt>
      <trkpt lat="50.02549" lon="4.20324">
        <ele>281.6</ele>
        <time>2024-05-04T09:59:08Z</time>
      </trkpt>
      <trkpt lat="50.02548" lon="4.20335">
        <ele>281.4</ele>
        <time>2024-05-04T09:59:09Z</time>
      </trkpt>
      <trkpt lat="50.02547" lon="4.20345">
        <ele>281.4</ele>
        <time>2024-05-04T09:59:10Z</time>
      </trkpt>
      <trkpt lat="50.02545" lon="4.20356">
        <ele>281.4</ele>
        <time>2024-05-04T09:59:11Z</time>
      </trkpt>
      <trkpt lat="50.02544" lon="4.20367">
        <ele>281.2</ele>
        <time>2024-05-04T09:59:12Z</time>
      </trkpt>
      <trkpt lat="50.02543" lon="4.20378">
        <ele>281.2</ele>
        <time>2024-05-04T09:59:13Z</time>
      </trkpt>
      <trkpt lat="50.02542" lon="4.2039">
        <ele>281.2</ele>
        <time>2024-05-04T09:59:14Z</time>
      </trkpt>
      <trkpt lat="50.0254" lon="4.20401">
        <ele>281.2</ele>
        <time>2024-05-04T09:59:15Z</time>
      </trkpt>
      <trkpt lat="50.02539" lon="4.20412">
        <ele>281</ele>
        <time>2024-05-04T09:59:16Z</time>
      </trkpt>
      <trkpt lat="50.02537" lon="4.20423">
        <ele>281.2</ele>
        <time>2024-05-04T09:59:17Z</time>
      </trkpt>
      <trkpt lat="50.02536" lon="4.20434">
        <ele>281</ele>
        <time>2024-05-04T09:59:18Z</time>
      </trkpt>
      <trkpt lat="50.02534" lon="4.20445">
        <ele>281</ele>
        <time>2024-05-04T09:59:19Z</time>
      </trkpt>
      <trkpt lat="50.02533" lon="4.20456">
        <ele>281</ele>
        <time>2024-05-04T09:59:20Z</time>
      </trkpt>
      <trkpt lat="50.02531" lon="4.20466">
        <ele>280.8</ele>
        <time>2024-05-04T09:59:21Z</time>
      </trkpt>
      <trkpt lat="50.0253" lon="4.20476">
        <ele>281</ele>
        <time>2024-05-04T09:59:22Z</time>
      </trkpt>
      <trkpt lat="50.02528" lon="4.20487">
        <ele>281</ele>
        <time>2024-05-04T09:59:23Z</time>
      </trkpt>
      <trkpt lat="50.02527" lon="4.20497">
        <ele>281</ele>
        <time>2024-05-04T09:59:24Z</time>
      </trkpt>
      <trkpt lat="50.02526" lon="4.20507">
        <ele>281</ele>
        <time>2024-05-04T09:59:25Z</time>
      </trkpt>
      <trkpt lat="50.02524" lon="4.20518">
        <ele>281</ele>
        <time>2024-05-04T09:59:26Z</time>
      </trkpt>
      <trkpt lat="50.02522" lon="4.20528">
        <ele>281</ele>
        <time>2024-05-04T09:59:27Z</time>
      </trkpt>
      <trkpt lat="50.02521" lon="4.20539">
        <ele>281.2</ele>
        <time>2024-05-04T09:59:28Z</time>
      </trkpt>
      <trkpt lat="50.0252" lon="4.2055">
        <ele>281.2</ele>
        <time>2024-05-04T09:59:29Z</time>
      </trkpt>
      <trkpt lat="50.02518" lon="4.20561">
        <ele>281.4</ele>
        <time>2024-05-04T09:59:30Z</time>
      </trkpt>
      <trkpt lat="50.02517" lon="4.20572">
        <ele>281.4</ele>
        <time>2024-05-04T09:59:31Z</time>
      </trkpt>
      <trkpt lat="50.02516" lon="4.20582">
        <ele>281.4</ele>
        <time>2024-05-04T09:59:32Z</time>
      </trkpt>
      <trkpt lat="50.02514" lon="4.20593">
        <ele>281.6</ele>
        <time>2024-05-04T09:59:33Z</time>
      </trkpt>
      <trkpt lat="50.02513" lon="4.20604">
        <ele>281.6</ele>
        <time>2024-05-04T09:59:34Z</time>
      </trkpt>
      <trkpt lat="50.02512" lon="4.20614">
        <ele>281.6</ele>
        <time>2024-05-04T09:59:35Z</time>
      </trkpt>
      <trkpt lat="50.02511" lon="4.20623">
        <ele>281.8</ele>
        <time>2024-05-04T09:59:36Z</time>
      </trkpt>
      <trkpt lat="50.0251" lon="4.20633">
        <ele>281.6</ele>
        <time>2024-05-04T09:59:37Z</time>
      </trkpt>
      <trkpt lat="50.02508" lon="4.20644">
        <ele>281.6</ele>
        <time>2024-05-04T09:59:38Z</time>
      </trkpt>
      <trkpt lat="50.02507" lon="4.20654">
        <ele>281.6</ele>
        <time>2024-05-04T09:59:39Z</time>
      </trkpt>
      <trkpt lat="50.02505" lon="4.20664">
        <ele>281.6</ele>
        <time>2024-05-04T09:59:40Z</time>
      </trkpt>
      <trkpt lat="50.02504" lon="4.20674">
        <ele>281.6</ele>
        <time>2024-05-04T09:59:41Z</time>
      </trkpt>
      <trkpt lat="50.02503" lon="4.20683">
        <ele>281.8</ele>
        <time>2024-05-04T09:59:42Z</time>
      </trkpt>
      <trkpt lat="50.02502" lon="4.20692">
        <ele>281.6</ele>
        <time>2024-05-04T09:59:43Z</time>
      </trkpt>
      <trkpt lat="50.025" lon="4.20702">
        <ele>281.6</ele>
        <time>2024-05-04T09:59:44Z</time>
      </trkpt>
      <trkpt lat="50.02499" lon="4.20711">
        <ele>281.8</ele>
        <time>2024-05-04T09:59:45Z</time>
      </trkpt>
      <trkpt lat="50.02498" lon="4.20721">
        <ele>281.6</ele>
        <time>2024-05-04T09:59:46Z</time>
      </trkpt>
      <trkpt lat="50.02497" lon="4.2073">
        <ele>281.6</ele>
        <time>2024-05-04T09:59:47Z</time>
      </trkpt>
      <trkpt lat="50.02495" lon="4.2074">
        <ele>281.4</ele>
        <time>2024-05-04T09:59:48Z</time>
      </trkpt>
      <trkpt lat="50.02494" lon="4.2075">
        <ele>281.4</ele>
        <time>2024-05-04T09:59:49Z</time>
      </trkpt>
      <trkpt lat="50.02492" lon="4.2076">
        <ele>281.4</ele>
        <time>2024-05-04T09:59:50Z</time>
      </trkpt>
      <trkpt lat="50.02491" lon="4.20771">
        <ele>281.4</ele>
        <time>2024-05-04T09:59:51Z</time>
      </trkpt>
      <trkpt lat="50.02489" lon="4.2078">
        <ele>281.4</ele>
        <time>2024-05-04T09:59:52Z</time>
      </trkpt>
      <trkpt lat="50.02488" lon="4.20791">
        <ele>281.2</ele>
        <time>2024-05-04T09:59:53Z</time>
      </trkpt>
      <trkpt lat="50.02487" lon="4.20801">
        <ele>281.2</ele>
        <time>2024-05-04T09:59:54Z</time>
      </trkpt>
      <trkpt lat="50.02485" lon="4.20812">
        <ele>281.4</ele>
        <time>2024-05-04T09:59:55Z</time>
      </trkpt>
      <trkpt lat="50.02484" lon="4.20822">
        <ele>281.4</ele>
        <time>2024-05-04T09:59:56Z</time>
      </trkpt>
      <trkpt lat="50.02483" lon="4.20833">
        <ele>281</ele>
        <time>2024-05-04T09:59:57Z</time>
      </trkpt>
      <trkpt lat="50.02481" lon="4.20843">
        <ele>281</ele>
        <time>2024-05-04T09:59:58Z</time>
      </trkpt>
      <trkpt lat="50.02479" lon="4.20853">
        <ele>280.8</ele>
        <time>2024-05-04T09:59:59Z</time>
      </trkpt>
      <trkpt lat="50.02478" lon="4.20864">
        <ele>280.8</ele>
        <time>2024-05-04T10:00:00Z</time>
      </trkpt>
      <trkpt lat="50.02477" lon="4.20876">
        <ele>280.8</ele>
        <time>2024-05-04T10:00:01Z</time>
      </trkpt>
      <trkpt lat="50.02475" lon="4.20887">
        <ele>280.8</ele>
        <time>2024-05-04T10:00:02Z</time>
      </trkpt>
      <trkpt lat="50.02473" lon="4.20899">
        <ele>280.6</ele>
        <time>2024-05-04T10:00:03Z</time>
      </trkpt>
      <trkpt lat="50.02472" lon="4.20911">
        <ele>280.6</ele>
        <time>2024-05-04T10:00:04Z</time>
      </trkpt>
      <trkpt lat="50.0247" lon="4.20923">
        <ele>280.8</ele>
        <time>2024-05-04T10:00:05Z</time>
      </trkpt>
      <trkpt lat="50.02468" lon="4.20935">
        <ele>280.8</ele>
        <time>2024-05-04T10:00:06Z</time>
      </trkpt>
      <trkpt lat="50.02466" lon="4.20947">
        <ele>280.8</ele>
        <time>2024-05-04T10:00:07Z</time>
      </trkpt>
      <trkpt lat="50.02464" lon="4.20959">
        <ele>280.8</ele>
        <time>2024-05-04T10:00:08Z</time>
      </trkpt>
      <trkpt lat="50.02462" lon="4.20971">
        <ele>280.8</ele>
        <time>2024-05-04T10:00:09Z</time>
      </trkpt>
      <trkpt lat="50.0246" lon="4.20983">
        <ele>281.2</ele>
        <time>2024-05-04T10:00:10Z</time>
      </trkpt>
      <trkpt lat="50.02457" lon="4.20995">
        <ele>281.2</ele>
        <time>2024-05-04T10:00:11Z</time>
      </trkpt>
      <trkpt lat="50.02454" lon="4.21007">
        <ele>281.2</ele>
        <time>2024-05-04T10:00:12Z</time>
      </trkpt>
      <trkpt lat="50.02452" lon="4.21019">
        <ele>281.4</ele>
        <time>2024-05-04T10:00:13Z</time>
      </trkpt>
      <trkpt lat="50.02449" lon="4.21031">
        <ele>281.4</ele>
        <time>2024-05-04T10:00:14Z</time>
      </trkpt>
      <trkpt lat="50.02447" lon="4.21043">
        <ele>281.6</ele>
        <time>2024-05-04T10:00:15Z</time>
      </trkpt>
      <trkpt lat="50.02444" lon="4.21054">
        <ele>281.6</ele>
        <time>2024-05-04T10:00:16Z</time>
      </trkpt>
      <trkpt lat="50.02442" lon="4.21066">
        <ele>281.6</ele>
        <time>2024-05-04T10:00:17Z</time>
      </trkpt>
      <trkpt lat="50.0244" lon="4.21077">
        <ele>281.6</ele>
        <time>2024-05-04T10:00:18Z</time>
      </trkpt>
      <trkpt lat="50.02437" lon="4.21087">
        <ele>281.6</ele>
        <time>2024-05-04T10:00:19Z</time>
      </trkpt>
      <trkpt lat="50.02435" lon="4.21098">
        <ele>281.6</ele>
        <time>2024-05-04T10:00:20Z</time>
      </trkpt>
      <trkpt lat="50.02433" lon="4.21107">
        <ele>281.6</ele>
        <time>2024-05-04T10:00:21Z</time>
      </trkpt>
      <trkpt lat="50.0243" lon="4.21117">
        <ele>281.6</ele>
        <time>2024-05-04T10:00:22Z</time>
      </trkpt>
      <trkpt lat="50.02428" lon="4.21127">
        <ele>281.4</ele>
        <time>2024-05-04T10:00:23Z</time>
      </trkpt>
      <trkpt lat="50.02425" lon="4.21137">
        <ele>281.4</ele>
        <time>2024-05-04T10:00:24Z</time>
      </trkpt>
      <trkpt lat="50.02422" lon="4.21147">
        <ele>281.2</ele>
        <time>2024-05-04T10:00:25Z</time>
      </trkpt>
      <trkpt lat="50.0242" lon="4.21157">
        <ele>281.4</ele>
        <time>2024-05-04T10:00:26Z</time>
      </trkpt>
      <trkpt lat="50.02417" lon="4.21166">
        <ele>281.4</ele>
        <time>2024-05-04T10:00:27Z</time>
      </trkpt>
      <trkpt lat="50.02415" lon="4.21176">
        <ele>281.4</ele>
        <time>2024-05-04T10:00:28Z</time>
      </trkpt>
      <trkpt lat="50.02412" lon="4.21186">
        <ele>281.2</ele>
        <time>2024-05-04T10:00:29Z</time>
      </trkpt>
      <trkpt lat="50.02409" lon="4.21196">
        <ele>281.4</ele>
        <time>2024-05-04T10:00:30Z</time>
      </trkpt>
      <trkpt lat="50.02406" lon="4.21206">
        <ele>281.4</ele>
        <time>2024-05-04T10:00:31Z</time>
      </trkpt>
      <trkpt lat="50.02403" lon="4.21215">
        <ele>281.6</ele>
        <time>2024-05-04T10:00:32Z</time>
      </trkpt>
      <trkpt lat="50.02401" lon="4.21224">
        <ele>281.4</ele>
        <time>2024-05-04T10:00:33Z</time>
      </trkpt>
      <trkpt lat="50.02399" lon="4.21231">
        <ele>281.4</ele>
        <time>2024-05-04T10:00:34Z</time>
      </trkpt>
      <trkpt lat="50.02397" lon="4.21241">
        <ele>281.4</ele>
        <time>2024-05-04T10:00:35Z</time>
      </trkpt>
      <trkpt lat="50.02394" lon="4.2125">
        <ele>281.4</ele>
        <time>2024-05-04T10:00:36Z</time>
      </trkpt>
      <trkpt lat="50.02391" lon="4.21259">
        <ele>281.4</ele>
        <time>2024-05-04T10:00:37Z</time>
      </trkpt>
      <trkpt lat="50.02388" lon="4.21267">
        <ele>281.4</ele>
        <time>2024-05-04T10:00:38Z</time>
      </trkpt>
      <trkpt lat="50.02385" lon="4.21276">
        <ele>281.6</ele>
        <time>2024-05-04T10:00:39Z</time>
      </trkpt>
      <trkpt lat="50.02382" lon="4.21285">
        <ele>281.6</ele>
        <time>2024-05-04T10:00:40Z</time>
      </trkpt>
      <trkpt lat="50.02378" lon="4.21294">
        <ele>281.6</ele>
        <time>2024-05-04T10:00:41Z</time>
      </trkpt>
      <trkpt lat="50.02375" lon="4.21304">
        <ele>281.6</ele>
        <time>2024-05-04T10:00:42Z</time>
      </trkpt>
      <trkpt lat="50.02371" lon="4.21314">
        <ele>281.6</ele>
        <time>2024-05-04T10:00:43Z</time>
      </trkpt>
      <trkpt lat="50.02368" lon="4.21323">
        <ele>281.8</ele>
        <time>2024-05-04T10:00:44Z</time>
      </trkpt>
      <trkpt lat="50.02364" lon="4.21333">
        <ele>282</ele>
        <time>2024-05-04T10:00:45Z</time>
      </trkpt>
      <trkpt lat="50.0236" lon="4.21342">
        <ele>282</ele>
        <time>2024-05-04T10:00:46Z</time>
      </trkpt>
      <trkpt lat="50.02357" lon="4.21351">
        <ele>282</ele>
        <time>2024-05-04T10:00:47Z</time>
      </trkpt>
      <trkpt lat="50.02353" lon="4.2136">
        <ele>282.2</ele>
        <time>2024-05-04T10:00:48Z</time>
      </trkpt>
      <trkpt lat="50.02349" lon="4.21369">
        <ele>282.2</ele>
        <time>2024-05-04T10:00:49Z</time>
      </trkpt>
      <trkpt lat="50.02345" lon="4.21377">
        <ele>282.2</ele>
        <time>2024-05-04T10:00:50Z</time>
      </trkpt>
      <trkpt lat="50.02342" lon="4.21385">
        <ele>282.4</ele>
        <time>2024-05-04T10:00:51Z</time>
      </trkpt>
      <trkpt lat="50.02338" lon="4.21394">
        <ele>282.4</ele>
        <time>2024-05-04T10:00:52Z</time>
      </trkpt>
      <trkpt lat="50.02334" lon="4.21402">
        <ele>282.4</ele>
        <time>2024-05-04T10:00:53Z</time>
      </trkpt>
      <trkpt lat="50.02331" lon="4.2141">
        <ele>282.6</ele>
        <time>2024-05-04T10:00:54Z</time>
      </trkpt>
      <trkpt lat="50.02327" lon="4.21418">
        <ele>282.6</ele>
        <time>2024-05-04T10:00:55Z</time>
      </trkpt>
      <trkpt lat="50.02324" lon="4.21426">
        <ele>282.6</ele>
        <time>2024-05-04T10:00:56Z</time>
      </trkpt>
      <trkpt lat="50.0232" lon="4.21434">
        <ele>282.6</ele>
        <time>2024-05-04T10:00:57Z</time>
      </trkpt>
      <trkpt lat="50.02316" lon="4.21442">
        <ele>282.6</ele>
        <time>2024-05-04T10:00:58Z</time>
      </trkpt>
      <trkpt lat="50.02312" lon="4.21451">
        <ele>282.8</ele>
        <time>2024-05-04T10:00:59Z</time>
      </trkpt>
      <trkpt lat="50.02308" lon="4.21459">
        <ele>282.8</ele>
        <time>2024-05-04T10:01:00Z</time>
      </trkpt>
      <trkpt lat="50.02304" lon="4.21467">
        <ele>283</ele>
        <time>2024-05-04T10:01:01Z</time>
      </trkpt>
      <trkpt lat="50.02301" lon="4.21475">
        <ele>283</ele>
        <time>2024-05-04T10:01:02Z</time>
      </trkpt>
      <trkpt lat="50.02297" lon="4.21483">
        <ele>283.2</ele>
        <time>2024-05-04T10:01:03Z</time>
      </trkpt>
      <trkpt lat="50.02293" lon="4.21491">
        <ele>283.2</ele>
        <time>2024-05-04T10:01:04Z</time>
      </trkpt>
      <trkpt lat="50.02289" lon="4.21498">
        <ele>283.2</ele>
        <time>2024-05-04T10:01:05Z</time>
      </trkpt>
      <trkpt lat="50.02285" lon="4.21507">
        <ele>283.6</ele>
        <time>2024-05-04T10:01:06Z</time>
      </trkpt>
      <trkpt lat="50.02281" lon="4.21515">
        <ele>283.6</ele>
        <time>2024-05-04T10:01:07Z</time>
      </trkpt>
      <trkpt lat="50.02277" lon="4.21523">
        <ele>283.8</ele>
        <time>2024-05-04T10:01:08Z</time>
      </trkpt>
      <trkpt lat="50.02274" lon="4.21531">
        <ele>283.8</ele>
        <time>2024-05-04T10:01:09Z</time>
      </trkpt>
      <trkpt lat="50.02271" lon="4.21539">
        <ele>283.8</ele>
        <time>2024-05-04T10:01:10Z</time>
      </trkpt>
      <trkpt lat="50.02268" lon="4.21546">
        <ele>283.8</ele>
        <time>2024-05-04T10:01:11Z</time>
      </trkpt>
      <trkpt lat="50.02264" lon="4.21554">
        <ele>284</ele>
        <time>2024-05-04T10:01:12Z</time>
      </trkpt>
      <trkpt lat="50.02261" lon="4.21562">
        <ele>283.8</ele>
        <time>2024-05-04T10:01:13Z</time>
      </trkpt>
      <trkpt lat="50.02257" lon="4.2157">
        <ele>283.8</ele>
        <time>2024-05-04T10:01:14Z</time>
      </trkpt>
      <trkpt lat="50.02254" lon="4.21578">
        <ele>283.8</ele>
        <time>2024-05-04T10:01:15Z</time>
      </trkpt>
      <trkpt lat="50.0225" lon="4.21586">
        <ele>283.8</ele>
        <time>2024-05-04T10:01:16Z</time>
      </trkpt>
      <trkpt lat="50.02246" lon="4.21594">
        <ele>283.8</ele>
        <time>2024-05-04T10:01:17Z</time>
      </trkpt>
      <trkpt lat="50.02242" lon="4.21603">
        <ele>283.8</ele>
        <time>2024-05-04T10:01:18Z</time>
      </trkpt>
      <trkpt lat="50.02239" lon="4.21611">
        <ele>283.8</ele>
        <time>2024-05-04T10:01:19Z</time>
      </trkpt>
      <trkpt lat="50.02235" lon="4.2162">
        <ele>283.8</ele>
        <time>2024-05-04T10:01:20Z</time>
      </trkpt>
      <trkpt lat="50.02231" lon="4.21627">
        <ele>283.8</ele>
        <time>2024-05-04T10:01:21Z</time>
      </trkpt>
      <trkpt lat="50.02227" lon="4.21634">
        <ele>283.8</ele>
        <time>2024-05-04T10:01:22Z</time>
      </trkpt>
      <trkpt lat="50.02224" lon="4.21642">
        <ele>283.8</ele>
        <time>2024-05-04T10:01:23Z</time>
      </trkpt>
      <trkpt lat="50.0222" lon="4.21649">
        <ele>283.6</ele>
        <time>2024-05-04T10:01:24Z</time>
      </trkpt>
      <trkpt lat="50.02216" lon="4.21657">
        <ele>283.6</ele>
        <time>2024-05-04T10:01:25Z</time>
      </trkpt>
      <trkpt lat="50.02213" lon="4.21666">
        <ele>283.6</ele>
        <time>2024-05-04T10:01:26Z</time>
      </trkpt>
      <trkpt lat="50.02209" lon="4.21674">
        <ele>283.6</ele>
        <time>2024-05-04T10:01:27Z</time>
      </trkpt>
      <trkpt lat="50.02205" lon="4.21682">
        <ele>283.6</ele>
        <time>2024-05-04T10:01:28Z</time>
      </trkpt>
      <trkpt lat="50.02202" lon="4.2169">
        <ele>283.8</ele>
        <time>2024-05-04T10:01:29Z</time>
      </trkpt>
      <trkpt lat="50.02199" lon="4.21697">
        <ele>283.8</ele>
        <time>2024-05-04T10:01:30Z</time>
      </trkpt>
      <trkpt lat="50.02195" lon="4.21704">
        <ele>283.8</ele>
        <time>2024-05-04T10:01:31Z</time>
      </trkpt>
      <trkpt lat="50.02192" lon="4.21711">
        <ele>284</ele>
        <time>2024-05-04T10:01:32Z</time>
      </trkpt>
      <trkpt lat="50.02189" lon="4.21719">
        <ele>284</ele>
        <time>2024-05-04T10:01:33Z</time>
      </trkpt>
      <trkpt lat="50.02185" lon="4.21726">
        <ele>284.4</ele>
        <time>2024-05-04T10:01:34Z</time>
      </trkpt>
      <trkpt lat="50.02182" lon="4.21734">
        <ele>284.2</ele>
        <time>2024-05-04T10:01:35Z</time>
      </trkpt>
      <trkpt lat="50.02178" lon="4.21742">
        <ele>284.4</ele>
        <time>2024-05-04T10:01:36Z</time>
      </trkpt>
      <trkpt lat="50.02174" lon="4.21749">
        <ele>284.4</ele>
        <time>2024-05-04T10:01:37Z</time>
      </trkpt>
      <trkpt lat="50.02171" lon="4.21757">
        <ele>284.2</ele>
        <time>2024-05-04T10:01:38Z</time>
      </trkpt>
      <trkpt lat="50.02167" lon="4.21765">
        <ele>284.2</ele>
        <time>2024-05-04T10:01:39Z</time>
      </trkpt>
      <trkpt lat="50.02164" lon="4.21772">
        <ele>284.2</ele>
        <time>2024-05-04T10:01:40Z</time>
      </trkpt>
      <trkpt lat="50.02161" lon="4.21779">
        <ele>284.4</ele>
        <time>2024-05-04T10:01:41Z</time>
      </trkpt>
      <trkpt lat="50.02158" lon="4.21786">
        <ele>284.4</ele>
        <time>2024-05-04T10:01:42Z</time>
      </trkpt>
      <trkpt lat="50.02154" lon="4.21793">
        <ele>284.4</ele>
        <time>2024-05-04T10:01:43Z</time>
      </trkpt>
      <trkpt lat="50.02151" lon="4.218">
        <ele>284.4</ele>
        <time>2024-05-04T10:01:44Z</time>
      </trkpt>
      <trkpt lat="50.02147" lon="4.21808">
        <ele>284.6</ele>
        <time>2024-05-04T10:01:45Z</time>
      </trkpt>
      <trkpt lat="50.02143" lon="4.21817">
        <ele>284.4</ele>
        <time>2024-05-04T10:01:46Z</time>
      </trkpt>
      <trkpt lat="50.0214" lon="4.21825">
        <ele>284.6</ele>
        <time>2024-05-04T10:01:47Z</time>
      </trkpt>
      <trkpt lat="50.02137" lon="4.21832">
        <ele>284.6</ele>
        <time>2024-05-04T10:01:48Z</time>
      </trkpt>
      <trkpt lat="50.02133" lon="4.21839">
        <ele>284.4</ele>
        <time>2024-05-04T10:01:49Z</time>
      </trkpt>
      <trkpt lat="50.02129" lon="4.21847">
        <ele>284.6</ele>
        <time>2024-05-04T10:01:50Z</time>
      </trkpt>
      <trkpt lat="50.02125" lon="4.21855">
        <ele>284.8</ele>
        <time>2024-05-04T10:01:51Z</time>
      </trkpt>
      <trkpt lat="50.02122" lon="4.21863">
        <ele>284.8</ele>
        <time>2024-05-04T10:01:52Z</time>
      </trkpt>
      <trkpt lat="50.02118" lon="4.2187">
        <ele>284.8</ele>
        <time>2024-05-04T10:01:53Z</time>
      </trkpt>
      <trkpt lat="50.02115" lon="4.21878">
        <ele>284.8</ele>
        <time>2024-05-04T10:01:54Z</time>
      </trkpt>
      <trkpt lat="50.02111" lon="4.21885">
        <ele>284.8</ele>
        <time>2024-05-04T10:01:55Z</time>
      </trkpt>
      <trkpt lat="50.02108" lon="4.21893">
        <ele>285</ele>
        <time>2024-05-04T10:01:56Z</time>
      </trkpt>
      <trkpt lat="50.02105" lon="4.21901">
        <ele>285.2</ele>
        <time>2024-05-04T10:01:57Z</time>
      </trkpt>
      <trkpt lat="50.02102" lon="4.21909">
        <ele>285.2</ele>
        <time>2024-05-04T10:01:58Z</time>
      </trkpt>
      <trkpt lat="50.02099" lon="4.21917">
        <ele>285.2</ele>
        <time>2024-05-04T10:01:59Z</time>
      </trkpt>
      <trkpt lat="50.02095" lon="4.21925">
        <ele>285.2</ele>
        <time>2024-05-04T10:02:00Z</time>
      </trkpt>
      <trkpt lat="50.02091" lon="4.21933">
        <ele>285.2</ele>
        <time>2024-05-04T10:02:01Z</time>
      </trkpt>
      <trkpt lat="50.02088" lon="4.21941">
        <ele>285.4</ele>
        <time>2024-05-04T10:02:02Z</time>
      </trkpt>
      <trkpt lat="50.02084" lon="4.2195">
        <ele>285.4</ele>
        <time>2024-05-04T10:02:03Z</time>
      </trkpt>
      <trkpt lat="50.02079" lon="4.21959">
        <ele>285.2</ele>
        <time>2024-05-04T10:02:04Z</time>
      </trkpt>
      <trkpt lat="50.02075" lon="4.21968">
        <ele>285.2</ele>
        <time>2024-05-04T10:02:05Z</time>
      </trkpt>
      <trkpt lat="50.02071" lon="4.21977">
        <ele>285.2</ele>
        <time>2024-05-04T10:02:06Z</time>
      </trkpt>
      <trkpt lat="50.02066" lon="4.21985">
        <ele>285.4</ele>
        <time>2024-05-04T10:02:07Z</time>
      </trkpt>
      <trkpt lat="50.02061" lon="4.21993">
        <ele>285.4</ele>
        <time>2024-05-04T10:02:08Z</time>
      </trkpt>
      <trkpt lat="50.02058" lon="4.22">
        <ele>285.4</ele>
        <time>2024-05-04T10:02:09Z</time>
      </trkpt>
      <trkpt lat="50.02054" lon="4.22008">
        <ele>285.2</ele>
        <time>2024-05-04T10:02:10Z</time>
      </trkpt>
      <trkpt lat="50.0205" lon="4.22016">
        <ele>285.2</ele>
        <time>2024-05-04T10:02:11Z</time>
      </trkpt>
      <trkpt lat="50.02047" lon="4.22023">
        <ele>285.2</ele>
        <time>2024-05-04T10:02:12Z</time>
      </trkpt>
      <trkpt lat="50.02043" lon="4.22031">
        <ele>285.2</ele>
        <time>2024-05-04T10:02:13Z</time>
      </trkpt>
      <trkpt lat="50.0204" lon="4.22039">
        <ele>285.4</ele>
        <time>2024-05-04T10:02:14Z</time>
      </trkpt>
      <trkpt lat="50.02037" lon="4.22048">
        <ele>285.4</ele>
        <time>2024-05-04T10:02:15Z</time>
      </trkpt>
      <trkpt lat="50.02034" lon="4.22056">
        <ele>285.4</ele>
        <time>2024-05-04T10:02:16Z</time>
      </trkpt>
      <trkpt lat="50.0203" lon="4.22063">
        <ele>285.4</ele>
        <time>2024-05-04T10:02:17Z</time>
      </trkpt>
      <trkpt lat="50.02027" lon="4.22071">
        <ele>285.4</ele>
        <time>2024-05-04T10:02:18Z</time>
      </trkpt>
      <trkpt lat="50.02024" lon="4.22079">
        <ele>285.6</ele>
        <time>2024-05-04T10:02:19Z</time>
      </trkpt>
      <trkpt lat="50.0202" lon="4.22087">
        <ele>285.6</ele>
        <time>2024-05-04T10:02:20Z</time>
      </trkpt>
      <trkpt lat="50.02017" lon="4.22094">
        <ele>285.6</ele>
        <time>2024-05-04T10:02:21Z</time>
      </trkpt>
      <trkpt lat="50.02013" lon="4.22102">
        <ele>285.6</ele>
        <time>2024-05-04T10:02:22Z</time>
      </trkpt>
      <trkpt lat="50.0201" lon="4.2211">
        <ele>285.8</ele>
        <time>2024-05-04T10:02:23Z</time>
      </trkpt>
      <trkpt lat="50.02007" lon="4.22118">
        <ele>285.8</ele>
        <time>2024-05-04T10:02:24Z</time>
      </trkpt>
      <trkpt lat="50.02003" lon="4.22126">
        <ele>285.8</ele>
        <time>2024-05-04T10:02:25Z</time>
      </trkpt>
      <trkpt lat="50.01999" lon="4.22135">
        <ele>285.8</ele>
        <time>2024-05-04T10:02:26Z</time>
      </trkpt>
      <trkpt lat="50.01996" lon="4.22143">
        <ele>286</ele>
        <time>2024-05-04T10:02:27Z</time>
      </trkpt>
      <trkpt lat="50.01992" lon="4.22151">
        <ele>286</ele>
        <time>2024-05-04T10:02:28Z</time>
      </trkpt>
      <trkpt lat="50.01989" lon="4.22158">
        <ele>286.2</ele>
        <time>2024-05-04T10:02:29Z</time>
      </trkpt>
      <trkpt lat="50.01986" lon="4.22166">
        <ele>286.4</ele>
        <time>2024-05-04T10:02:30Z</time>
      </trkpt>
      <trkpt lat="50.01984" lon="4.22172">
        <ele>286.6</ele>
        <time>2024-05-04T10:02:31Z</time>
      </trkpt>
      <trkpt lat="50.01982" lon="4.22179">
        <ele>286.8</ele>
        <time>2024-05-04T10:02:32Z</time>
      </trkpt>
      <trkpt lat="50.01979" lon="4.22186">
        <ele>286.8</ele>
        <time>2024-05-04T10:02:33Z</time>
      </trkpt>
      <trkpt lat="50.01976" lon="4.22193">
        <ele>286.8</ele>
        <time>2024-05-04T10:02:34Z</time>
      </trkpt>
      <trkpt lat="50.01973" lon="4.22201">
        <ele>286.8</ele>
        <time>2024-05-04T10:02:35Z</time>
      </trkpt>
      <trkpt lat="50.01969" lon="4.22209">
        <ele>287</ele>
        <time>2024-05-04T10:02:36Z</time>
      </trkpt>
      <trkpt lat="50.01965" lon="4.22217">
        <ele>286.8</ele>
        <time>2024-05-04T10:02:37Z</time>
      </trkpt>
      <trkpt lat="50.01961" lon="4.22225">
        <ele>287</ele>
        <time>2024-05-04T10:02:38Z</time>
      </trkpt>
      <trkpt lat="50.01957" lon="4.22233">
        <ele>286.8</ele>
        <time>2024-05-04T10:02:39Z</time>
      </trkpt>
      <trkpt lat="50.01952" lon="4.22242">
        <ele>287</ele>
        <time>2024-05-04T10:02:40Z</time>
      </trkpt>
      <trkpt lat="50.01949" lon="4.2225">
        <ele>286.8</ele>
        <time>2024-05-04T10:02:41Z</time>
      </trkpt>
      <trkpt lat="50.01945" lon="4.22259">
        <ele>286.8</ele>
        <time>2024-05-04T10:02:42Z</time>
      </trkpt>
      <trkpt lat="50.01941" lon="4.22267">
        <ele>286.8</ele>
        <time>2024-05-04T10:02:43Z</time>
      </trkpt>
      <trkpt lat="50.01936" lon="4.22275">
        <ele>286.8</ele>
        <time>2024-05-04T10:02:44Z</time>
      </trkpt>
      <trkpt lat="50.01933" lon="4.22283">
        <ele>286.8</ele>
        <time>2024-05-04T10:02:45Z</time>
      </trkpt>
      <trkpt lat="50.01929" lon="4.2229">
        <ele>286.6</ele>
        <time>2024-05-04T10:02:46Z</time>
      </trkpt>
      <trkpt lat="50.01925" lon="4.22298">
        <ele>286.8</ele>
        <time>2024-05-04T10:02:47Z</time>
      </trkpt>
      <trkpt lat="50.01922" lon="4.22305">
        <ele>286.8</ele>
        <time>2024-05-04T10:02:48Z</time>
      </trkpt>
      <trkpt lat="50.01918" lon="4.22314">
        <ele>286.8</ele>
        <time>2024-05-04T10:02:49Z</time>
      </trkpt>
      <trkpt lat="50.01914" lon="4.22323">
        <ele>286.8</ele>
        <time>2024-05-04T10:02:50Z</time>
      </trkpt>
      <trkpt lat="50.0191" lon="4.22331">
        <ele>286.8</ele>
        <time>2024-05-04T10:02:51Z</time>
      </trkpt>
      <trkpt lat="50.01906" lon="4.22339">
        <ele>286.8</ele>
        <time>2024-05-04T10:02:52Z</time>
      </trkpt>
      <trkpt lat="50.01902" lon="4.22347">
        <ele>286.8</ele>
        <time>2024-05-04T10:02:53Z</time>
      </trkpt>
      <trkpt lat="50.01898" lon="4.22354">
        <ele>286.8</ele>
        <time>2024-05-04T10:02:54Z</time>
      </trkpt>
      <trkpt lat="50.01895" lon="4.22363">
        <ele>287</ele>
        <time>2024-05-04T10:02:55Z</time>
      </trkpt>
      <trkpt lat="50.01891" lon="4.22372">
        <ele>287</ele>
        <time>2024-05-04T10:02:56Z</time>
      </trkpt>
      <trkpt lat="50.01887" lon="4.2238">
        <ele>287.2</ele>
        <time>2024-05-04T10:02:57Z</time>
      </trkpt>
      <trkpt lat="50.01884" lon="4.22389">
        <ele>287.2</ele>
        <time>2024-05-04T10:02:58Z</time>
      </trkpt>
      <trkpt lat="50.01881" lon="4.22398">
        <ele>287.4</ele>
        <time>2024-05-04T10:02:59Z</time>
      </trkpt>
      <trkpt lat="50.01878" lon="4.22406">
        <ele>287.4</ele>
        <time>2024-05-04T10:03:00Z</time>
      </trkpt>
      <trkpt lat="50.01875" lon="4.22414">
        <ele>287.6</ele>
        <time>2024-05-04T10:03:01Z</time>
      </trkpt>
      <trkpt lat="50.01871" lon="4.22423">
        <ele>288</ele>
        <time>2024-05-04T10:03:02Z</time>
      </trkpt>
      <trkpt lat="50.01868" lon="4.22431">
        <ele>288.4</ele>
        <time>2024-05-04T10:03:03Z</time>
      </trkpt>
      <trkpt lat="50.01864" lon="4.2244">
        <ele>288.4</ele>
        <time>2024-05-04T10:03:04Z</time>
      </trkpt>
      <trkpt lat="50.01861" lon="4.22448">
        <ele>288.6</ele>
        <time>2024-05-04T10:03:05Z</time>
      </trkpt>
      <trkpt lat="50.01857" lon="4.22457">
        <ele>288.8</ele>
        <time>2024-05-04T10:03:06Z</time>
      </trkpt>
      <trkpt lat="50.01853" lon="4.22465">
        <ele>288.6</ele>
        <time>2024-05-04T10:03:07Z</time>
      </trkpt>
      <trkpt lat="50.0185" lon="4.22473">
        <ele>288.8</ele>
        <time>2024-05-04T10:03:08Z</time>
      </trkpt>
      <trkpt lat="50.01846" lon="4.22482">
        <ele>288.8</ele>
        <time>2024-05-04T10:03:09Z</time>
      </trkpt>
      <trkpt lat="50.01843" lon="4.2249">
        <ele>288.8</ele>
        <time>2024-05-04T10:03:10Z</time>
      </trkpt>
      <trkpt lat="50.01839" lon="4.22498">
        <ele>288.8</ele>
        <time>2024-05-04T10:03:11Z</time>
      </trkpt>
      <trkpt lat="50.01835" lon="4.22506">
        <ele>288.8</ele>
        <time>2024-05-04T10:03:12Z</time>
      </trkpt>
      <trkpt lat="50.01832" lon="4.22513">
        <ele>288.8</ele>
        <time>2024-05-04T10:03:13Z</time>
      </trkpt>
      <trkpt lat="50.01829" lon="4.2252">
        <ele>288.8</ele>
        <time>2024-05-04T10:03:14Z</time>
      </trkpt>
      <trkpt lat="50.01826" lon="4.22527">
        <ele>289</ele>
        <time>2024-05-04T10:03:15Z</time>
      </trkpt>
      <trkpt lat="50.01824" lon="4.22534">
        <ele>289.2</ele>
        <time>2024-05-04T10:03:16Z</time>
      </trkpt>
      <trkpt lat="50.01821" lon="4.2254">
        <ele>289.2</ele>
        <time>2024-05-04T10:03:17Z</time>
      </trkpt>
      <trkpt lat="50.01818" lon="4.22547">
        <ele>289.4</ele>
        <time>2024-05-04T10:03:18Z</time>
      </trkpt>
      <trkpt lat="50.01816" lon="4.22552">
        <ele>289.4</ele>
        <time>2024-05-04T10:03:19Z</time>
      </trkpt>
      <trkpt lat="50.01814" lon="4.22558">
        <ele>289.6</ele>
        <time>2024-05-04T10:03:20Z</time>
      </trkpt>
      <trkpt lat="50.01812" lon="4.22563">
        <ele>289.4</ele>
        <time>2024-05-04T10:03:21Z</time>
      </trkpt>
      <trkpt lat="50.0181" lon="4.22569">
        <ele>289.6</ele>
        <time>2024-05-04T10:03:22Z</time>
      </trkpt>
      <trkpt lat="50.01808" lon="4.22574">
        <ele>289.6</ele>
        <time>2024-05-04T10:03:23Z</time>
      </trkpt>
      <trkpt lat="50.01806" lon="4.22578">
        <ele>289.6</ele>
        <time>2024-05-04T10:03:24Z</time>
      </trkpt>
      <trkpt lat="50.01805" lon="4.22583">
        <ele>289.6</ele>
        <time>2024-05-04T10:03:25Z</time>
      </trkpt>
      <trkpt lat="50.01804" lon="4.22586">
        <ele>289.8</ele>
        <time>2024-05-04T10:03:26Z</time>
      </trkpt>
      <trkpt lat="50.01803" lon="4.22588">
        <ele>289.8</ele>
        <time>2024-05-04T10:03:27Z</time>
      </trkpt>
      <trkpt lat="50.01801" lon="4.22589">
        <ele>290</ele>
        <time>2024-05-04T10:03:28Z</time>
      </trkpt>
      <trkpt lat="50.01801" lon="4.22591">
        <ele>290</ele>
        <time>2024-05-04T10:03:29Z</time>
      </trkpt>
      <trkpt lat="50.018" lon="4.22593">
        <ele>290.2</ele>
        <time>2024-05-04T10:03:30Z</time>
      </trkpt>
      <trkpt lat="50.018" lon="4.22595">
        <ele>290.4</ele>
        <time>2024-05-04T10:03:31Z</time>
      </trkpt>
      <trkpt lat="50.01799" lon="4.22597">
        <ele>290.4</ele>
        <time>2024-05-04T10:03:32Z</time>
      </trkpt>
      <trkpt lat="50.01798" lon="4.22599">
        <ele>290.4</ele>
        <time>2024-05-04T10:03:33Z</time>
      </trkpt>
      <trkpt lat="50.01798" lon="4.22602">
        <ele>290.2</ele>
        <time>2024-05-04T10:03:34Z</time>
      </trkpt>
      <trkpt lat="50.01797" lon="4.22604">
        <ele>290.4</ele>
        <time>2024-05-04T10:03:35Z</time>
      </trkpt>
      <trkpt lat="50.01796" lon="4.22605">
        <ele>290.2</ele>
        <time>2024-05-04T10:03:36Z</time>
      </trkpt>
      <trkpt lat="50.01795" lon="4.22608">
        <ele>290.4</ele>
        <time>2024-05-04T10:03:37Z</time>
      </trkpt>
      <trkpt lat="50.01793" lon="4.22611">
        <ele>290.4</ele>
        <time>2024-05-04T10:03:38Z</time>
      </trkpt>
      <trkpt lat="50.01792" lon="4.22615">
        <ele>290.4</ele>
        <time>2024-05-04T10:03:39Z</time>
      </trkpt>
      <trkpt lat="50.01791" lon="4.22619">
        <ele>290.8</ele>
        <time>2024-05-04T10:03:40Z</time>
      </trkpt>
      <trkpt lat="50.0179" lon="4.22622">
        <ele>291</ele>
        <time>2024-05-04T10:03:41Z</time>
      </trkpt>
      <trkpt lat="50.01789" lon="4.22625">
        <ele>291.2</ele>
        <time>2024-05-04T10:03:42Z</time>
      </trkpt>
      <trkpt lat="50.01787" lon="4.22629">
        <ele>291</ele>
        <time>2024-05-04T10:03:43Z</time>
      </trkpt>
      <trkpt lat="50.01785" lon="4.22633">
        <ele>291</ele>
        <time>2024-05-04T10:03:44Z</time>
      </trkpt>
      <trkpt lat="50.01784" lon="4.22639">
        <ele>291.2</ele>
        <time>2024-05-04T10:03:45Z</time>
      </trkpt>
      <trkpt lat="50.01782" lon="4.22645">
        <ele>291</ele>
        <time>2024-05-04T10:03:46Z</time>
      </trkpt>
      <trkpt lat="50.0178" lon="4.22651">
        <ele>291</ele>
        <time>2024-05-04T10:03:47Z</time>
      </trkpt>
      <trkpt lat="50.01778" lon="4.22659">
        <ele>290.8</ele>
        <time>2024-05-04T10:03:48Z</time>
      </trkpt>
      <trkpt lat="50.01776" lon="4.22666">
        <ele>290.8</ele>
        <time>2024-05-04T10:03:49Z</time>
      </trkpt>
      <trkpt lat="50.01774" lon="4.22673">
        <ele>290.8</ele>
        <time>2024-05-04T10:03:50Z</time>
      </trkpt>
      <trkpt lat="50.01771" lon="4.22681">
        <ele>290.8</ele>
        <time>2024-05-04T10:03:51Z</time>
      </trkpt>
      <trkpt lat="50.01769" lon="4.22688">
        <ele>290.8</ele>
        <time>2024-05-04T10:03:52Z</time>
      </trkpt>
      <trkpt lat="50.01767" lon="4.22695">
        <ele>290.8</ele>
        <time>2024-05-04T10:03:53Z</time>
      </trkpt>
      <trkpt lat="50.01765" lon="4.22702">
        <ele>290.8</ele>
        <time>2024-05-04T10:03:54Z</time>
      </trkpt>
      <trkpt lat="50.01763" lon="4.2271">
        <ele>291</ele>
        <time>2024-05-04T10:03:55Z</time>
      </trkpt>
      <trkpt lat="50.0176" lon="4.22718">
        <ele>291</ele>
        <time>2024-05-04T10:03:56Z</time>
      </trkpt>
      <trkpt lat="50.01758" lon="4.22726">
        <ele>291</ele>
        <time>2024-05-04T10:03:57Z</time>
      </trkpt>
      <trkpt lat="50.01756" lon="4.22734">
        <ele>291.2</ele>
        <time>2024-05-04T10:03:58Z</time>
      </trkpt>
      <trkpt lat="50.01754" lon="4.22741">
        <ele>291.2</ele>
        <time>2024-05-04T10:03:59Z</time>
      </trkpt>
      <trkpt lat="50.01751" lon="4.22749">
        <ele>291.2</ele>
        <time>2024-05-04T10:04:00Z</time>
      </trkpt>
      <trkpt lat="50.01749" lon="4.22757">
        <ele>291.4</ele>
        <time>2024-05-04T10:04:01Z</time>
      </trkpt>
      <trkpt lat="50.01747" lon="4.22764">
        <ele>291.2</ele>
        <time>2024-05-04T10:04:02Z</time>
      </trkpt>
      <trkpt lat="50.01746" lon="4.22773">
        <ele>291.2</ele>
        <time>2024-05-04T10:04:03Z</time>
      </trkpt>
      <trkpt lat="50.01744" lon="4.22782">
        <ele>291.2</ele>
        <time>2024-05-04T10:04:04Z</time>
      </trkpt>
      <trkpt lat="50.01742" lon="4.2279">
        <ele>291.2</ele>
        <time>2024-05-04T10:04:05Z</time>
      </trkpt>
      <trkpt lat="50.0174" lon="4.22799">
        <ele>291.2</ele>
        <time>2024-05-04T10:04:06Z</time>
      </trkpt>
      <trkpt lat="50.01737" lon="4.22807">
        <ele>291.2</ele>
        <time>2024-05-04T10:04:07Z</time>
      </trkpt>
      <trkpt lat="50.01736" lon="4.22815">
        <ele>291.2</ele>
        <time>2024-05-04T10:04:08Z</time>
      </trkpt>
      <trkpt lat="50.01734" lon="4.22824">
        <ele>291.2</ele>
        <time>2024-05-04T10:04:09Z</time>
      </trkpt>
      <trkpt lat="50.01732" lon="4.22833">
        <ele>291.2</ele>
        <time>2024-05-04T10:04:10Z</time>
      </trkpt>
      <trkpt lat="50.01731" lon="4.22841">
        <ele>291.2</ele>
        <time>2024-05-04T10:04:11Z</time>
      </trkpt>
      <trkpt lat="50.01729" lon="4.22851">
        <ele>291.2</ele>
        <time>2024-05-04T10:04:12Z</time>
      </trkpt>
      <trkpt lat="50.01728" lon="4.2286">
        <ele>291.2</ele>
        <time>2024-05-04T10:04:13Z</time>
      </trkpt>
      <trkpt lat="50.01726" lon="4.22869">
        <ele>291</ele>
        <time>2024-05-04T10:04:14Z</time>
      </trkpt>
      <trkpt lat="50.01724" lon="4.22878">
        <ele>291.2</ele>
        <time>2024-05-04T10:04:15Z</time>
      </trkpt>
      <trkpt lat="50.01721" lon="4.22887">
        <ele>291</ele>
        <time>2024-05-04T10:04:16Z</time>
      </trkpt>
      <trkpt lat="50.01719" lon="4.22896">
        <ele>291</ele>
        <time>2024-05-04T10:04:17Z</time>
      </trkpt>
      <trkpt lat="50.01717" lon="4.22904">
        <ele>290.8</ele>
        <time>2024-05-04T10:04:18Z</time>
      </trkpt>
      <trkpt lat="50.01715" lon="4.22913">
        <ele>291</ele>
        <time>2024-05-04T10:04:19Z</time>
      </trkpt>
      <trkpt lat="50.01713" lon="4.22922">
        <ele>290.8</ele>
        <time>2024-05-04T10:04:20Z</time>
      </trkpt>
      <trkpt lat="50.01712" lon="4.22932">
        <ele>290.8</ele>
        <time>2024-05-04T10:04:21Z</time>
      </trkpt>
      <trkpt lat="50.01709" lon="4.22941">
        <ele>290.8</ele>
        <time>2024-05-04T10:04:22Z</time>
      </trkpt>
      <trkpt lat="50.01708" lon="4.22951">
        <ele>290.8</ele>
        <time>2024-05-04T10:04:23Z</time>
      </trkpt>
      <trkpt lat="50.01707" lon="4.22961">
        <ele>290.8</ele>
        <time>2024-05-04T10:04:24Z</time>
      </trkpt>
      <trkpt lat="50.01705" lon="4.22971">
        <ele>290.8</ele>
        <time>2024-05-04T10:04:25Z</time>
      </trkpt>
      <trkpt lat="50.01705" lon="4.22981">
        <ele>290.6</ele>
        <time>2024-05-04T10:04:26Z</time>
      </trkpt>
      <trkpt lat="50.01704" lon="4.22991">
        <ele>290.6</ele>
        <time>2024-05-04T10:04:27Z</time>
      </trkpt>
      <trkpt lat="50.01703" lon="4.23001">
        <ele>290.8</ele>
        <time>2024-05-04T10:04:28Z</time>
      </trkpt>
      <trkpt lat="50.01702" lon="4.23011">
        <ele>290.8</ele>
        <time>2024-05-04T10:04:29Z</time>
      </trkpt>
      <trkpt lat="50.01701" lon="4.23023">
        <ele>290.8</ele>
        <time>2024-05-04T10:04:30Z</time>
      </trkpt>
      <trkpt lat="50.017" lon="4.23035">
        <ele>290.6</ele>
        <time>2024-05-04T10:04:31Z</time>
      </trkpt>
      <trkpt lat="50.01699" lon="4.23046">
        <ele>290.6</ele>
        <time>2024-05-04T10:04:32Z</time>
      </trkpt>
      <trkpt lat="50.01698" lon="4.23056">
        <ele>290.6</ele>
        <time>2024-05-04T10:04:33Z</time>
      </trkpt>
      <trkpt lat="50.01697" lon="4.23065">
        <ele>290.6</ele>
        <time>2024-05-04T10:04:34Z</time>
      </trkpt>
      <trkpt lat="50.01696" lon="4.23076">
        <ele>290.4</ele>
        <time>2024-05-04T10:04:35Z</time>
      </trkpt>
      <trkpt lat="50.01696" lon="4.23086">
        <ele>290.4</ele>
        <time>2024-05-04T10:04:36Z</time>
      </trkpt>
      <trkpt lat="50.01695" lon="4.23097">
        <ele>290.4</ele>
        <time>2024-05-04T10:04:37Z</time>
      </trkpt>
      <trkpt lat="50.01695" lon="4.23109">
        <ele>290.6</ele>
        <time>2024-05-04T10:04:38Z</time>
      </trkpt>
      <trkpt lat="50.01696" lon="4.2312">
        <ele>290.2</ele>
        <time>2024-05-04T10:04:39Z</time>
      </trkpt>
      <trkpt lat="50.01696" lon="4.2313">
        <ele>290</ele>
        <time>2024-05-04T10:04:40Z</time>
      </trkpt>
      <trkpt lat="50.01696" lon="4.23141">
        <ele>290</ele>
        <time>2024-05-04T10:04:41Z</time>
      </trkpt>
      <trkpt lat="50.01696" lon="4.23152">
        <ele>289.8</ele>
        <time>2024-05-04T10:04:42Z</time>
      </trkpt>
      <trkpt lat="50.01697" lon="4.23166">
        <ele>289.8</ele>
        <time>2024-05-04T10:04:43Z</time>
      </trkpt>
      <trkpt lat="50.01696" lon="4.23178">
        <ele>289.8</ele>
        <time>2024-05-04T10:04:44Z</time>
      </trkpt>
      <trkpt lat="50.01697" lon="4.23191">
        <ele>289.6</ele>
        <time>2024-05-04T10:04:45Z</time>
      </trkpt>
      <trkpt lat="50.01697" lon="4.23203">
        <ele>289.2</ele>
        <time>2024-05-04T10:04:46Z</time>
      </trkpt>
      <trkpt lat="50.01697" lon="4.23215">
        <ele>288.8</ele>
        <time>2024-05-04T10:04:47Z</time>
      </trkpt>
      <trkpt lat="50.01698" lon="4.23228">
        <ele>288.4</ele>
        <time>2024-05-04T10:04:48Z</time>
      </trkpt>
      <trkpt lat="50.01699" lon="4.2324">
        <ele>288.2</ele>
        <time>2024-05-04T10:04:49Z</time>
      </trkpt>
      <trkpt lat="50.01699" lon="4.23252">
        <ele>288.2</ele>
        <time>2024-05-04T10:04:50Z</time>
      </trkpt>
      <trkpt lat="50.01698" lon="4.23266">
        <ele>288</ele>
        <time>2024-05-04T10:04:51Z</time>
      </trkpt>
      <trkpt lat="50.01699" lon="4.23279">
        <ele>288</ele>
        <time>2024-05-04T10:04:52Z</time>
      </trkpt>
      <trkpt lat="50.01699" lon="4.23292">
        <ele>288</ele>
        <time>2024-05-04T10:04:53Z</time>
      </trkpt>
      <trkpt lat="50.01698" lon="4.23305">
        <ele>288</ele>
        <time>2024-05-04T10:04:54Z</time>
      </trkpt>
      <trkpt lat="50.01698" lon="4.23317">
        <ele>288</ele>
        <time>2024-05-04T10:04:55Z</time>
      </trkpt>
      <trkpt lat="50.01698" lon="4.23329">
        <ele>288</ele>
        <time>2024-05-04T10:04:56Z</time>
      </trkpt>
      <trkpt lat="50.01698" lon="4.23341">
        <ele>287.8</ele>
        <time>2024-05-04T10:04:57Z</time>
      </trkpt>
      <trkpt lat="50.017" lon="4.23354">
        <ele>288</ele>
        <time>2024-05-04T10:04:58Z</time>
      </trkpt>
      <trkpt lat="50.01701" lon="4.23366">
        <ele>287.8</ele>
        <time>2024-05-04T10:04:59Z</time>
      </trkpt>
      <trkpt lat="50.01704" lon="4.23377">
        <ele>287.8</ele>
        <time>2024-05-04T10:05:00Z</time>
      </trkpt>
      <trkpt lat="50.01707" lon="4.23388">
        <ele>288</ele>
        <time>2024-05-04T10:05:01Z</time>
      </trkpt>
      <trkpt lat="50.01709" lon="4.234">
        <ele>288</ele>
        <time>2024-05-04T10:05:02Z</time>
      </trkpt>
      <trkpt lat="50.01711" lon="4.23411">
        <ele>288</ele>
        <time>2024-05-04T10:05:03Z</time>
      </trkpt>
      <trkpt lat="50.01714" lon="4.23422">
        <ele>288</ele>
        <time>2024-05-04T10:05:04Z</time>
      </trkpt>
      <trkpt lat="50.01717" lon="4.23432">
        <ele>288</ele>
        <time>2024-05-04T10:05:05Z</time>
      </trkpt>
      <trkpt lat="50.0172" lon="4.23441">
        <ele>288</ele>
        <time>2024-05-04T10:05:06Z</time>
      </trkpt>
      <trkpt lat="50.01722" lon="4.23452">
        <ele>288</ele>
        <time>2024-05-04T10:05:07Z</time>
      </trkpt>
      <trkpt lat="50.01724" lon="4.23461">
        <ele>287.8</ele>
        <time>2024-05-04T10:05:08Z</time>
      </trkpt>
      <trkpt lat="50.01726" lon="4.23471">
        <ele>287.8</ele>
        <time>2024-05-04T10:05:09Z</time>
      </trkpt>
      <trkpt lat="50.01728" lon="4.23482">
        <ele>287.8</ele>
        <time>2024-05-04T10:05:10Z</time>
      </trkpt>
      <trkpt lat="50.01731" lon="4.2349">
        <ele>287.8</ele>
        <time>2024-05-04T10:05:11Z</time>
      </trkpt>
      <trkpt lat="50.01735" lon="4.23499">
        <ele>287.8</ele>
        <time>2024-05-04T10:05:12Z</time>
      </trkpt>
      <trkpt lat="50.01737" lon="4.23509">
        <ele>287.6</ele>
        <time>2024-05-04T10:05:13Z</time>
      </trkpt>
      <trkpt lat="50.0174" lon="4.23517">
        <ele>287.4</ele>
        <time>2024-05-04T10:05:14Z</time>
      </trkpt>
      <trkpt lat="50.01743" lon="4.23526">
        <ele>287.4</ele>
        <time>2024-05-04T10:05:15Z</time>
      </trkpt>
      <trkpt lat="50.01745" lon="4.23536">
        <ele>287.2</ele>
        <time>2024-05-04T10:05:16Z</time>
      </trkpt>
      <trkpt lat="50.01747" lon="4.23544">
        <ele>287.2</ele>
        <time>2024-05-04T10:05:17Z</time>
      </trkpt>
      <trkpt lat="50.01748" lon="4.23551">
        <ele>287</ele>
        <time>2024-05-04T10:05:18Z</time>
      </trkpt>
      <trkpt lat="50.0175" lon="4.23557">
        <ele>287.2</ele>
        <time>2024-05-04T10:05:19Z</time>
      </trkpt>
      <trkpt lat="50.01751" lon="4.23562">
        <ele>287</ele>
        <time>2024-05-04T10:05:20Z</time>
      </trkpt>
      <trkpt lat="50.01752" lon="4.23567">
        <ele>287</ele>
        <time>2024-05-04T10:05:21Z</time>
      </trkpt>
      <trkpt lat="50.01754" lon="4.23572">
        <ele>286.8</ele>
        <time>2024-05-04T10:05:22Z</time>
      </trkpt>
      <trkpt lat="50.01755" lon="4.23577">
        <ele>286.8</ele>
        <time>2024-05-04T10:05:23Z</time>
      </trkpt>
      <trkpt lat="50.01755" lon="4.23581">
        <ele>286.8</ele>
        <time>2024-05-04T10:05:24Z</time>
      </trkpt>
      <trkpt lat="50.01756" lon="4.23587">
        <ele>286.6</ele>
        <time>2024-05-04T10:05:25Z</time>
      </trkpt>
      <trkpt lat="50.01755" lon="4.23592">
        <ele>286.6</ele>
        <time>2024-05-04T10:05:26Z</time>
      </trkpt>
      <trkpt lat="50.01753" lon="4.236">
        <ele>286.6</ele>
        <time>2024-05-04T10:05:27Z</time>
      </trkpt>
      <trkpt lat="50.01752" lon="4.23608">
        <ele>286.6</ele>
        <time>2024-05-04T10:05:28Z</time>
      </trkpt>
      <trkpt lat="50.0175" lon="4.23616">
        <ele>286.4</ele>
        <time>2024-05-04T10:05:29Z</time>
      </trkpt>
      <trkpt lat="50.01747" lon="4.23624">
        <ele>286.6</ele>
        <time>2024-05-04T10:05:30Z</time>
      </trkpt>
      <trkpt lat="50.01745" lon="4.23633">
        <ele>286.4</ele>
        <time>2024-05-04T10:05:31Z</time>
      </trkpt>
      <trkpt lat="50.01743" lon="4.23641">
        <ele>286.2</ele>
        <time>2024-05-04T10:05:32Z</time>
      </trkpt>
      <trkpt lat="50.0174" lon="4.23649">
        <ele>286.4</ele>
        <time>2024-05-04T10:05:33Z</time>
      </trkpt>
      <trkpt lat="50.01738" lon="4.23658">
        <ele>286.2</ele>
        <time>2024-05-04T10:05:34Z</time>
      </trkpt>
      <trkpt lat="50.01735" lon="4.23666">
        <ele>286.4</ele>
        <time>2024-05-04T10:05:35Z</time>
      </trkpt>
      <trkpt lat="50.01732" lon="4.23674">
        <ele>286.4</ele>
        <time>2024-05-04T10:05:36Z</time>
      </trkpt>
      <trkpt lat="50.01729" lon="4.23682">
        <ele>286.2</ele>
        <time>2024-05-04T10:05:37Z</time>
      </trkpt>
      <trkpt lat="50.01726" lon="4.2369">
        <ele>286.2</ele>
        <time>2024-05-04T10:05:38Z</time>
      </trkpt>
      <trkpt lat="50.01723" lon="4.23698">
        <ele>286</ele>
        <time>2024-05-04T10:05:39Z</time>
      </trkpt>
      <trkpt lat="50.01721" lon="4.23707">
        <ele>286.2</ele>
        <time>2024-05-04T10:05:40Z</time>
      </trkpt>
      <trkpt lat="50.01718" lon="4.23715">
        <ele>286</ele>
        <time>2024-05-04T10:05:41Z</time>
      </trkpt>
      <trkpt lat="50.01715" lon="4.23723">
        <ele>286</ele>
        <time>2024-05-04T10:05:42Z</time>
      </trkpt>
      <trkpt lat="50.01712" lon="4.23731">
        <ele>285.8</ele>
        <time>2024-05-04T10:05:43Z</time>
      </trkpt>
      <trkpt lat="50.01709" lon="4.2374">
        <ele>285.8</ele>
        <time>2024-05-04T10:05:44Z</time>
      </trkpt>
      <trkpt lat="50.01707" lon="4.23749">
        <ele>285.8</ele>
        <time>2024-05-04T10:05:45Z</time>
      </trkpt>
      <trkpt lat="50.01704" lon="4.23757">
        <ele>285.8</ele>
        <time>2024-05-04T10:05:46Z</time>
      </trkpt>
      <trkpt lat="50.01701" lon="4.23765">
        <ele>285.6</ele>
        <time>2024-05-04T10:05:47Z</time>
      </trkpt>
      <trkpt lat="50.01698" lon="4.23774">
        <ele>285.6</ele>
        <time>2024-05-04T10:05:48Z</time>
      </trkpt>
      <trkpt lat="50.01695" lon="4.23782">
        <ele>285.4</ele>
        <time>2024-05-04T10:05:49Z</time>
      </trkpt>
      <trkpt lat="50.01692" lon="4.23791">
        <ele>285.4</ele>
        <time>2024-05-04T10:05:50Z</time>
      </trkpt>
      <trkpt lat="50.01689" lon="4.238">
        <ele>285.2</ele>
        <time>2024-05-04T10:05:51Z</time>
      </trkpt>
      <trkpt lat="50.01686" lon="4.23809">
        <ele>285.2</ele>
        <time>2024-05-04T10:05:52Z</time>
      </trkpt>
      <trkpt lat="50.01682" lon="4.23818">
        <ele>285</ele>
        <time>2024-05-04T10:05:53Z</time>
      </trkpt>
      <trkpt lat="50.01678" lon="4.23826">
        <ele>284.8</ele>
        <time>2024-05-04T10:05:54Z</time>
      </trkpt>
      <trkpt lat="50.01673" lon="4.23833">
        <ele>284.8</ele>
        <time>2024-05-04T10:05:55Z</time>
      </trkpt>
      <trkpt lat="50.01668" lon="4.2384">
        <ele>284.6</ele>
        <time>2024-05-04T10:05:56Z</time>
      </trkpt>
      <trkpt lat="50.01667" lon="4.23848">
        <ele>284.4</ele>
        <time>2024-05-04T10:05:57Z</time>
      </trkpt>
      <trkpt lat="50.01666" lon="4.23858">
        <ele>284.2</ele>
        <time>2024-05-04T10:05:58Z</time>
      </trkpt>
      <trkpt lat="50.01667" lon="4.23868">
        <ele>284</ele>
        <time>2024-05-04T10:05:59Z</time>
      </trkpt>
      <trkpt lat="50.01669" lon="4.23879">
        <ele>284</ele>
        <time>2024-05-04T10:06:00Z</time>
      </trkpt>
      <trkpt lat="50.0167" lon="4.2389">
        <ele>283.8</ele>
        <time>2024-05-04T10:06:01Z</time>
      </trkpt>
      <trkpt lat="50.01672" lon="4.23901">
        <ele>283.8</ele>
        <time>2024-05-04T10:06:02Z</time>
      </trkpt>
      <trkpt lat="50.01674" lon="4.23912">
        <ele>283.6</ele>
        <time>2024-05-04T10:06:03Z</time>
      </trkpt>
      <trkpt lat="50.01675" lon="4.23923">
        <ele>283.4</ele>
        <time>2024-05-04T10:06:04Z</time>
      </trkpt>
      <trkpt lat="50.01677" lon="4.23934">
        <ele>283.2</ele>
        <time>2024-05-04T10:06:05Z</time>
      </trkpt>
      <trkpt lat="50.01678" lon="4.23945">
        <ele>282.8</ele>
        <time>2024-05-04T10:06:06Z</time>
      </trkpt>
      <trkpt lat="50.0168" lon="4.23956">
        <ele>282.4</ele>
        <time>2024-05-04T10:06:07Z</time>
      </trkpt>
      <trkpt lat="50.01681" lon="4.23966">
        <ele>282.2</ele>
        <time>2024-05-04T10:06:08Z</time>
      </trkpt>
      <trkpt lat="50.01683" lon="4.23976">
        <ele>281.8</ele>
        <time>2024-05-04T10:06:09Z</time>
      </trkpt>
      <trkpt lat="50.01686" lon="4.23985">
        <ele>281.8</ele>
        <time>2024-05-04T10:06:10Z</time>
      </trkpt>
      <trkpt lat="50.01689" lon="4.23993">
        <ele>281.8</ele>
        <time>2024-05-04T10:06:11Z</time>
      </trkpt>
      <trkpt lat="50.01692" lon="4.24001">
        <ele>281.8</ele>
        <time>2024-05-04T10:06:12Z</time>
      </trkpt>
      <trkpt lat="50.01695" lon="4.24009">
        <ele>281.8</ele>
        <time>2024-05-04T10:06:13Z</time>
      </trkpt>
      <trkpt lat="50.01698" lon="4.24016">
        <ele>281.8</ele>
        <time>2024-05-04T10:06:14Z</time>
      </trkpt>
      <trkpt lat="50.01702" lon="4.24023">
        <ele>281.8</ele>
        <time>2024-05-04T10:06:15Z</time>
      </trkpt>
      <trkpt lat="50.01705" lon="4.24029">
        <ele>281.8</ele>
        <time>2024-05-04T10:06:16Z</time>
      </trkpt>
      <trkpt lat="50.01709" lon="4.24036">
        <ele>281.8</ele>
        <time>2024-05-04T10:06:17Z</time>
      </trkpt>
      <trkpt lat="50.01712" lon="4.24042">
        <ele>281.8</ele>
        <time>2024-05-04T10:06:18Z</time>
      </trkpt>
      <trkpt lat="50.01715" lon="4.24048">
        <ele>281.8</ele>
        <time>2024-05-04T10:06:19Z</time>
      </trkpt>
      <trkpt lat="50.01719" lon="4.24054">
        <ele>282.2</ele>
        <time>2024-05-04T10:06:20Z</time>
      </trkpt>
      <trkpt lat="50.01722" lon="4.2406">
        <ele>282.6</ele>
        <time>2024-05-04T10:06:21Z</time>
      </trkpt>
      <trkpt lat="50.01725" lon="4.24066">
        <ele>283.2</ele>
        <time>2024-05-04T10:06:22Z</time>
      </trkpt>
      <trkpt lat="50.01728" lon="4.24072">
        <ele>283.8</ele>
        <time>2024-05-04T10:06:23Z</time>
      </trkpt>
      <trkpt lat="50.01732" lon="4.24078">
        <ele>284.4</ele>
        <time>2024-05-04T10:06:24Z</time>
      </trkpt>
      <trkpt lat="50.01734" lon="4.24083">
        <ele>285</ele>
        <time>2024-05-04T10:06:25Z</time>
      </trkpt>
      <trkpt lat="50.01737" lon="4.24089">
        <ele>285.4</ele>
        <time>2024-05-04T10:06:26Z</time>
      </trkpt>
      <trkpt lat="50.0174" lon="4.24094">
        <ele>285.4</ele>
        <time>2024-05-04T10:06:27Z</time>
      </trkpt>
      <trkpt lat="50.01743" lon="4.241">
        <ele>286</ele>
        <time>2024-05-04T10:06:28Z</time>
      </trkpt>
      <trkpt lat="50.01745" lon="4.24106">
        <ele>286.2</ele>
        <time>2024-05-04T10:06:29Z</time>
      </trkpt>
      <trkpt lat="50.01748" lon="4.24112">
        <ele>286.2</ele>
        <time>2024-05-04T10:06:30Z</time>
      </trkpt>
      <trkpt lat="50.01751" lon="4.24117">
        <ele>286.4</ele>
        <time>2024-05-04T10:06:31Z</time>
      </trkpt>
      <trkpt lat="50.01754" lon="4.24123">
        <ele>286.8</ele>
        <time>2024-05-04T10:06:32Z</time>
      </trkpt>
      <trkpt lat="50.01756" lon="4.24129">
        <ele>286.8</ele>
        <time>2024-05-04T10:06:33Z</time>
      </trkpt>
      <trkpt lat="50.01758" lon="4.24136">
        <ele>287.4</ele>
        <time>2024-05-04T10:06:34Z</time>
      </trkpt>
      <trkpt lat="50.01761" lon="4.24142">
        <ele>287.8</ele>
        <time>2024-05-04T10:06:35Z</time>
      </trkpt>
      <trkpt lat="50.01763" lon="4.24149">
        <ele>288</ele>
        <time>2024-05-04T10:06:36Z</time>
      </trkpt>
      <trkpt lat="50.01764" lon="4.24155">
        <ele>288.4</ele>
        <time>2024-05-04T10:06:37Z</time>
      </trkpt>
      <trkpt lat="50.01766" lon="4.24161">
        <ele>288.6</ele>
        <time>2024-05-04T10:06:38Z</time>
      </trkpt>
      <trkpt lat="50.01767" lon="4.24168">
        <ele>289</ele>
        <time>2024-05-04T10:06:39Z</time>
      </trkpt>
      <trkpt lat="50.01769" lon="4.24175">
        <ele>289.4</ele>
        <time>2024-05-04T10:06:40Z</time>
      </trkpt>
      <trkpt lat="50.01771" lon="4.24182">
        <ele>289.6</ele>
        <time>2024-05-04T10:06:41Z</time>
      </trkpt>
      <trkpt lat="50.01773" lon="4.24189">
        <ele>290.2</ele>
        <time>2024-05-04T10:06:42Z</time>
      </trkpt>
      <trkpt lat="50.01775" lon="4.24195">
        <ele>290.2</ele>
        <time>2024-05-04T10:06:43Z</time>
      </trkpt>
      <trkpt lat="50.01777" lon="4.24202">
        <ele>290.4</ele>
        <time>2024-05-04T10:06:44Z</time>
      </trkpt>
      <trkpt lat="50.01778" lon="4.24208">
        <ele>290.6</ele>
        <time>2024-05-04T10:06:45Z</time>
      </trkpt>
      <trkpt lat="50.0178" lon="4.24215">
        <ele>290.6</ele>
        <time>2024-05-04T10:06:46Z</time>
      </trkpt>
      <trkpt lat="50.01782" lon="4.24222">
        <ele>290.8</ele>
        <time>2024-05-04T10:06:47Z</time>
      </trkpt>
      <trkpt lat="50.01784" lon="4.24228">
        <ele>291</ele>
        <time>2024-05-04T10:06:48Z</time>
      </trkpt>
      <trkpt lat="50.01786" lon="4.24235">
        <ele>291.8</ele>
        <time>2024-05-04T10:06:49Z</time>
      </trkpt>
      <trkpt lat="50.01788" lon="4.24242">
        <ele>291.8</ele>
        <time>2024-05-04T10:06:50Z</time>
      </trkpt>
      <trkpt lat="50.01789" lon="4.24248">
        <ele>292</ele>
        <time>2024-05-04T10:06:51Z</time>
      </trkpt>
      <trkpt lat="50.01791" lon="4.24255">
        <ele>292.2</ele>
        <time>2024-05-04T10:06:52Z</time>
      </trkpt>
      <trkpt lat="50.01793" lon="4.24262">
        <ele>292.4</ele>
        <time>2024-05-04T10:06:53Z</time>
      </trkpt>
      <trkpt lat="50.01795" lon="4.24269">
        <ele>292.4</ele>
        <time>2024-05-04T10:06:54Z</time>
      </trkpt>
      <trkpt lat="50.01797" lon="4.24276">
        <ele>292.6</ele>
        <time>2024-05-04T10:06:55Z</time>
      </trkpt>
      <trkpt lat="50.01799" lon="4.24282">
        <ele>292.6</ele>
        <time>2024-05-04T10:06:56Z</time>
      </trkpt>
      <trkpt lat="50.01801" lon="4.24289">
        <ele>292.6</ele>
        <time>2024-05-04T10:06:57Z</time>
      </trkpt>
      <trkpt lat="50.01803" lon="4.24296">
        <ele>292.8</ele>
        <time>2024-05-04T10:06:58Z</time>
      </trkpt>
      <trkpt lat="50.01804" lon="4.24303">
        <ele>292.8</ele>
        <time>2024-05-04T10:06:59Z</time>
      </trkpt>
      <trkpt lat="50.01806" lon="4.2431">
        <ele>293</ele>
        <time>2024-05-04T10:07:00Z</time>
      </trkpt>
      <trkpt lat="50.01808" lon="4.24316">
        <ele>293</ele>
        <time>2024-05-04T10:07:01Z</time>
      </trkpt>
      <trkpt lat="50.0181" lon="4.24323">
        <ele>293.2</ele>
        <time>2024-05-04T10:07:02Z</time>
      </trkpt>
      <trkpt lat="50.01812" lon="4.2433">
        <ele>293.2</ele>
        <time>2024-05-04T10:07:03Z</time>
      </trkpt>
      <trkpt lat="50.01814" lon="4.24337">
        <ele>293.4</ele>
        <time>2024-05-04T10:07:04Z</time>
      </trkpt>
      <trkpt lat="50.01815" lon="4.24344">
        <ele>293.4</ele>
        <time>2024-05-04T10:07:05Z</time>
      </trkpt>
      <trkpt lat="50.01817" lon="4.24351">
        <ele>293.6</ele>
        <time>2024-05-04T10:07:06Z</time>
      </trkpt>
      <trkpt lat="50.01819" lon="4.24358">
        <ele>293.8</ele>
        <time>2024-05-04T10:07:07Z</time>
      </trkpt>
      <trkpt lat="50.01821" lon="4.24364">
        <ele>293.8</ele>
        <time>2024-05-04T10:07:08Z</time>
      </trkpt>
      <trkpt lat="50.01823" lon="4.24371">
        <ele>293.8</ele>
        <time>2024-05-04T10:07:09Z</time>
      </trkpt>
      <trkpt lat="50.01825" lon="4.24378">
        <ele>293.8</ele>
        <time>2024-05-04T10:07:10Z</time>
      </trkpt>
      <trkpt lat="50.01827" lon="4.24385">
        <ele>294</ele>
        <time>2024-05-04T10:07:11Z</time>
      </trkpt>
      <trkpt lat="50.01829" lon="4.24392">
        <ele>294.2</ele>
        <time>2024-05-04T10:07:12Z</time>
      </trkpt>
      <trkpt lat="50.01831" lon="4.24399">
        <ele>294.2</ele>
        <time>2024-05-04T10:07:13Z</time>
      </trkpt>
      <trkpt lat="50.01833" lon="4.24406">
        <ele>294.2</ele>
        <time>2024-05-04T10:07:14Z</time>
      </trkpt>
      <trkpt lat="50.01835" lon="4.24414">
        <ele>294.2</ele>
        <time>2024-05-04T10:07:15Z</time>
      </trkpt>
      <trkpt lat="50.01838" lon="4.24421">
        <ele>294.4</ele>
        <time>2024-05-04T10:07:16Z</time>
      </trkpt>
      <trkpt lat="50.0184" lon="4.24428">
        <ele>294.4</ele>
        <time>2024-05-04T10:07:17Z</time>
      </trkpt>
      <trkpt lat="50.01842" lon="4.24435">
        <ele>294.6</ele>
        <time>2024-05-04T10:07:18Z</time>
      </trkpt>
      <trkpt lat="50.01844" lon="4.24442">
        <ele>294.6</ele>
        <time>2024-05-04T10:07:19Z</time>
      </trkpt>
      <trkpt lat="50.01846" lon="4.2445">
        <ele>294.8</ele>
        <time>2024-05-04T10:07:20Z</time>
      </trkpt>
      <trkpt lat="50.01847" lon="4.24458">
        <ele>294.6</ele>
        <time>2024-05-04T10:07:21Z</time>
      </trkpt>
      <trkpt lat="50.01848" lon="4.24466">
        <ele>294.8</ele>
        <time>2024-05-04T10:07:22Z</time>
      </trkpt>
      <trkpt lat="50.0185" lon="4.24474">
        <ele>294.6</ele>
        <time>2024-05-04T10:07:23Z</time>
      </trkpt>
      <trkpt lat="50.01851" lon="4.24483">
        <ele>294.6</ele>
        <time>2024-05-04T10:07:24Z</time>
      </trkpt>
      <trkpt lat="50.01852" lon="4.24491">
        <ele>294.6</ele>
        <time>2024-05-04T10:07:25Z</time>
      </trkpt>
      <trkpt lat="50.01853" lon="4.24499">
        <ele>294.8</ele>
        <time>2024-05-04T10:07:26Z</time>
      </trkpt>
      <trkpt lat="50.01854" lon="4.24507">
        <ele>294.8</ele>
        <time>2024-05-04T10:07:27Z</time>
      </trkpt>
      <trkpt lat="50.01854" lon="4.24516">
        <ele>295</ele>
        <time>2024-05-04T10:07:28Z</time>
      </trkpt>
      <trkpt lat="50.01855" lon="4.24524">
        <ele>295</ele>
        <time>2024-05-04T10:07:29Z</time>
      </trkpt>
      <trkpt lat="50.01855" lon="4.24532">
        <ele>295</ele>
        <time>2024-05-04T10:07:30Z</time>
      </trkpt>
      <trkpt lat="50.01855" lon="4.2454">
        <ele>295</ele>
        <time>2024-05-04T10:07:31Z</time>
      </trkpt>
      <trkpt lat="50.01855" lon="4.24548">
        <ele>295</ele>
        <time>2024-05-04T10:07:32Z</time>
      </trkpt>
      <trkpt lat="50.01855" lon="4.24556">
        <ele>295.4</ele>
        <time>2024-05-04T10:07:33Z</time>
      </trkpt>
      <trkpt lat="50.01855" lon="4.24564">
        <ele>295.8</ele>
        <time>2024-05-04T10:07:34Z</time>
      </trkpt>
      <trkpt lat="50.01855" lon="4.24572">
        <ele>296</ele>
        <time>2024-05-04T10:07:35Z</time>
      </trkpt>
      <trkpt lat="50.01855" lon="4.24581">
        <ele>296</ele>
        <time>2024-05-04T10:07:36Z</time>
      </trkpt>
      <trkpt lat="50.01855" lon="4.24589">
        <ele>296.2</ele>
        <time>2024-05-04T10:07:37Z</time>
      </trkpt>
      <trkpt lat="50.01855" lon="4.24597">
        <ele>296.4</ele>
        <time>2024-05-04T10:07:38Z</time>
      </trkpt>
      <trkpt lat="50.01855" lon="4.24606">
        <ele>296.4</ele>
        <time>2024-05-04T10:07:39Z</time>
      </trkpt>
      <trkpt lat="50.01854" lon="4.24614">
        <ele>296.4</ele>
        <time>2024-05-04T10:07:40Z</time>
      </trkpt>
      <trkpt lat="50.01854" lon="4.24623">
        <ele>296.4</ele>
        <time>2024-05-04T10:07:41Z</time>
      </trkpt>
      <trkpt lat="50.01853" lon="4.24632">
        <ele>296.4</ele>
        <time>2024-05-04T10:07:42Z</time>
      </trkpt>
      <trkpt lat="50.01851" lon="4.24641">
        <ele>296.4</ele>
        <time>2024-05-04T10:07:43Z</time>
      </trkpt>
      <trkpt lat="50.0185" lon="4.2465">
        <ele>296.6</ele>
        <time>2024-05-04T10:07:44Z</time>
      </trkpt>
      <trkpt lat="50.01848" lon="4.24658">
        <ele>296.6</ele>
        <time>2024-05-04T10:07:45Z</time>
      </trkpt>
      <trkpt lat="50.01846" lon="4.24667">
        <ele>296.6</ele>
        <time>2024-05-04T10:07:46Z</time>
      </trkpt>
      <trkpt lat="50.01844" lon="4.24675">
        <ele>296.6</ele>
        <time>2024-05-04T10:07:47Z</time>
      </trkpt>
      <trkpt lat="50.01841" lon="4.24683">
        <ele>296.6</ele>
        <time>2024-05-04T10:07:48Z</time>
      </trkpt>
      <trkpt lat="50.01838" lon="4.24691">
        <ele>296.8</ele>
        <time>2024-05-04T10:07:49Z</time>
      </trkpt>
      <trkpt lat="50.01836" lon="4.24698">
        <ele>296.8</ele>
        <time>2024-05-04T10:07:50Z</time>
      </trkpt>
      <trkpt lat="50.01833" lon="4.24705">
        <ele>296.8</ele>
        <time>2024-05-04T10:07:51Z</time>
      </trkpt>
      <trkpt lat="50.01829" lon="4.24712">
        <ele>296.8</ele>
        <time>2024-05-04T10:07:52Z</time>
      </trkpt>
      <trkpt lat="50.01826" lon="4.24719">
        <ele>296.8</ele>
        <time>2024-05-04T10:07:53Z</time>
      </trkpt>
      <trkpt lat="50.01823" lon="4.24725">
        <ele>297</ele>
        <time>2024-05-04T10:07:54Z</time>
      </trkpt>
      <trkpt lat="50.01819" lon="4.24731">
        <ele>297</ele>
        <time>2024-05-04T10:07:55Z</time>
      </trkpt>
      <trkpt lat="50.01816" lon="4.24737">
        <ele>297.2</ele>
        <time>2024-05-04T10:07:56Z</time>
      </trkpt>
      <trkpt lat="50.01812" lon="4.24742">
        <ele>297.2</ele>
        <time>2024-05-04T10:07:57Z</time>
      </trkpt>
      <trkpt lat="50.01809" lon="4.24748">
        <ele>297.4</ele>
        <time>2024-05-04T10:07:58Z</time>
      </trkpt>
      <trkpt lat="50.01806" lon="4.24754">
        <ele>297.6</ele>
        <time>2024-05-04T10:07:59Z</time>
      </trkpt>
      <trkpt lat="50.01802" lon="4.24759">
        <ele>297.6</ele>
        <time>2024-05-04T10:08:00Z</time>
      </trkpt>
      <trkpt lat="50.01799" lon="4.24765">
        <ele>297.8</ele>
        <time>2024-05-04T10:08:01Z</time>
      </trkpt>
      <trkpt lat="50.01795" lon="4.2477">
        <ele>297.8</ele>
        <time>2024-05-04T10:08:02Z</time>
      </trkpt>
      <trkpt lat="50.01792" lon="4.24775">
        <ele>298.2</ele>
        <time>2024-05-04T10:08:03Z</time>
      </trkpt>
      <trkpt lat="50.01788" lon="4.2478">
        <ele>298.2</ele>
        <time>2024-05-04T10:08:04Z</time>
      </trkpt>
      <trkpt lat="50.01784" lon="4.24785">
        <ele>298.4</ele>
        <time>2024-05-04T10:08:05Z</time>
      </trkpt>
      <trkpt lat="50.0178" lon="4.2479">
        <ele>298.6</ele>
        <time>2024-05-04T10:08:06Z</time>
      </trkpt>
      <trkpt lat="50.01776" lon="4.24795">
        <ele>298.6</ele>
        <time>2024-05-04T10:08:07Z</time>
      </trkpt>
      <trkpt lat="50.01772" lon="4.248">
        <ele>298.8</ele>
        <time>2024-05-04T10:08:08Z</time>
      </trkpt>
      <trkpt lat="50.01768" lon="4.24804">
        <ele>298.8</ele>
        <time>2024-05-04T10:08:09Z</time>
      </trkpt>
      <trkpt lat="50.01764" lon="4.24809">
        <ele>299</ele>
        <time>2024-05-04T10:08:10Z</time>
      </trkpt>
      <trkpt lat="50.0176" lon="4.24813">
        <ele>299.4</ele>
        <time>2024-05-04T10:08:11Z</time>
      </trkpt>
      <trkpt lat="50.01756" lon="4.24818">
        <ele>299.6</ele>
        <time>2024-05-04T10:08:12Z</time>
      </trkpt>
      <trkpt lat="50.01752" lon="4.24823">
        <ele>299.8</ele>
        <time>2024-05-04T10:08:13Z</time>
      </trkpt>
      <trkpt lat="50.01747" lon="4.24827">
        <ele>300</ele>
        <time>2024-05-04T10:08:14Z</time>
      </trkpt>
      <trkpt lat="50.01743" lon="4.24831">
        <ele>300.2</ele>
        <time>2024-05-04T10:08:15Z</time>
      </trkpt>
      <trkpt lat="50.01739" lon="4.24835">
        <ele>300.4</ele>
        <time>2024-05-04T10:08:16Z</time>
      </trkpt>
      <trkpt lat="50.01735" lon="4.24839">
        <ele>300.4</ele>
        <time>2024-05-04T10:08:17Z</time>
      </trkpt>
      <trkpt lat="50.01731" lon="4.24843">
        <ele>300.4</ele>
        <time>2024-05-04T10:08:18Z</time>
      </trkpt>
      <trkpt lat="50.01726" lon="4.24848">
        <ele>300.8</ele>
        <time>2024-05-04T10:08:19Z</time>
      </trkpt>
      <trkpt lat="50.01722" lon="4.24853">
        <ele>301</ele>
        <time>2024-05-04T10:08:20Z</time>
      </trkpt>
      <trkpt lat="50.01718" lon="4.24857">
        <ele>300.8</ele>
        <time>2024-05-04T10:08:21Z</time>
      </trkpt>
      <trkpt lat="50.01714" lon="4.24861">
        <ele>301</ele>
        <time>2024-05-04T10:08:22Z</time>
      </trkpt>
      <trkpt lat="50.0171" lon="4.24866">
        <ele>301</ele>
        <time>2024-05-04T10:08:23Z</time>
      </trkpt>
      <trkpt lat="50.01705" lon="4.24871">
        <ele>301.2</ele>
        <time>2024-05-04T10:08:24Z</time>
      </trkpt>
      <trkpt lat="50.01701" lon="4.24876">
        <ele>301.4</ele>
        <time>2024-05-04T10:08:25Z</time>
      </trkpt>
      <trkpt lat="50.01697" lon="4.24881">
        <ele>301.2</ele>
        <time>2024-05-04T10:08:26Z</time>
      </trkpt>
      <trkpt lat="50.01693" lon="4.24886">
        <ele>301.4</ele>
        <time>2024-05-04T10:08:27Z</time>
      </trkpt>
      <trkpt lat="50.01689" lon="4.24891">
        <ele>301.6</ele>
        <time>2024-05-04T10:08:28Z</time>
      </trkpt>
      <trkpt lat="50.01686" lon="4.24897">
        <ele>301.6</ele>
        <time>2024-05-04T10:08:29Z</time>
      </trkpt>
      <trkpt lat="50.01682" lon="4.24904">
        <ele>301.8</ele>
        <time>2024-05-04T10:08:30Z</time>
      </trkpt>
      <trkpt lat="50.01678" lon="4.2491">
        <ele>302</ele>
        <time>2024-05-04T10:08:31Z</time>
      </trkpt>
      <trkpt lat="50.01675" lon="4.24917">
        <ele>301.8</ele>
        <time>2024-05-04T10:08:32Z</time>
      </trkpt>
      <trkpt lat="50.01671" lon="4.24923">
        <ele>301.8</ele>
        <time>2024-05-04T10:08:33Z</time>
      </trkpt>
      <trkpt lat="50.01667" lon="4.2493">
        <ele>302</ele>
        <time>2024-05-04T10:08:34Z</time>
      </trkpt>
      <trkpt lat="50.01664" lon="4.24938">
        <ele>301.8</ele>
        <time>2024-05-04T10:08:35Z</time>
      </trkpt>
      <trkpt lat="50.01661" lon="4.24946">
        <ele>301.8</ele>
        <time>2024-05-04T10:08:36Z</time>
      </trkpt>
      <trkpt lat="50.01658" lon="4.24954">
        <ele>301.8</ele>
        <time>2024-05-04T10:08:37Z</time>
      </trkpt>
      <trkpt lat="50.01655" lon="4.24962">
        <ele>301.8</ele>
        <time>2024-05-04T10:08:38Z</time>
      </trkpt>
      <trkpt lat="50.01653" lon="4.24971">
        <ele>301.8</ele>
        <time>2024-05-04T10:08:39Z</time>
      </trkpt>
      <trkpt lat="50.0165" lon="4.2498">
        <ele>302</ele>
        <time>2024-05-04T10:08:40Z</time>
      </trkpt>
      <trkpt lat="50.01648" lon="4.24989">
        <ele>301.8</ele>
        <time>2024-05-04T10:08:41Z</time>
      </trkpt>
      <trkpt lat="50.01645" lon="4.24999">
        <ele>301.6</ele>
        <time>2024-05-04T10:08:42Z</time>
      </trkpt>
      <trkpt lat="50.01643" lon="4.25009">
        <ele>301.2</ele>
        <time>2024-05-04T10:08:43Z</time>
      </trkpt>
      <trkpt lat="50.01641" lon="4.25018">
        <ele>300.8</ele>
        <time>2024-05-04T10:08:44Z</time>
      </trkpt>
      <trkpt lat="50.01638" lon="4.25028">
        <ele>300.8</ele>
        <time>2024-05-04T10:08:45Z</time>
      </trkpt>
      <trkpt lat="50.01636" lon="4.25038">
        <ele>300.6</ele>
        <time>2024-05-04T10:08:46Z</time>
      </trkpt>
      <trkpt lat="50.01634" lon="4.25048">
        <ele>300.4</ele>
        <time>2024-05-04T10:08:47Z</time>
      </trkpt>
      <trkpt lat="50.01632" lon="4.25059">
        <ele>300</ele>
        <time>2024-05-04T10:08:48Z</time>
      </trkpt>
      <trkpt lat="50.0163" lon="4.25069">
        <ele>300</ele>
        <time>2024-05-04T10:08:49Z</time>
      </trkpt>
      <trkpt lat="50.01628" lon="4.25079">
        <ele>299.8</ele>
        <time>2024-05-04T10:08:50Z</time>
      </trkpt>
      <trkpt lat="50.01626" lon="4.25089">
        <ele>299.8</ele>
        <time>2024-05-04T10:08:51Z</time>
      </trkpt>
      <trkpt lat="50.01623" lon="4.25099">
        <ele>299.8</ele>
        <time>2024-05-04T10:08:52Z</time>
      </trkpt>
      <trkpt lat="50.01621" lon="4.25109">
        <ele>299.8</ele>
        <time>2024-05-04T10:08:53Z</time>
      </trkpt>
      <trkpt lat="50.01619" lon="4.25119">
        <ele>299.8</ele>
        <time>2024-05-04T10:08:54Z</time>
      </trkpt>
      <trkpt lat="50.01617" lon="4.25129">
        <ele>299.6</ele>
        <time>2024-05-04T10:08:55Z</time>
      </trkpt>
      <trkpt lat="50.01615" lon="4.25139">
        <ele>299.4</ele>
        <time>2024-05-04T10:08:56Z</time>
      </trkpt>
      <trkpt lat="50.01613" lon="4.25149">
        <ele>299.4</ele>
        <time>2024-05-04T10:08:57Z</time>
      </trkpt>
      <trkpt lat="50.01611" lon="4.25159">
        <ele>299.4</ele>
        <time>2024-05-04T10:08:58Z</time>
      </trkpt>
      <trkpt lat="50.01609" lon="4.25168">
        <ele>299.2</ele>
        <time>2024-05-04T10:08:59Z</time>
      </trkpt>
      <trkpt lat="50.01606" lon="4.25178">
        <ele>299.2</ele>
        <time>2024-05-04T10:09:00Z</time>
      </trkpt>
      <trkpt lat="50.01604" lon="4.25188">
        <ele>299</ele>
        <time>2024-05-04T10:09:01Z</time>
      </trkpt>
      <trkpt lat="50.01602" lon="4.25198">
        <ele>299</ele>
        <time>2024-05-04T10:09:02Z</time>
      </trkpt>
      <trkpt lat="50.016" lon="4.25208">
        <ele>298.8</ele>
        <time>2024-05-04T10:09:03Z</time>
      </trkpt>
      <trkpt lat="50.01597" lon="4.25218">
        <ele>298.6</ele>
        <time>2024-05-04T10:09:04Z</time>
      </trkpt>
      <trkpt lat="50.01595" lon="4.25228">
        <ele>298.6</ele>
        <time>2024-05-04T10:09:05Z</time>
      </trkpt>
      <trkpt lat="50.01593" lon="4.25238">
        <ele>298.2</ele>
        <time>2024-05-04T10:09:06Z</time>
      </trkpt>
      <trkpt lat="50.01591" lon="4.25248">
        <ele>297.8</ele>
        <time>2024-05-04T10:09:07Z</time>
      </trkpt>
      <trkpt lat="50.01589" lon="4.25259">
        <ele>297.8</ele>
        <time>2024-05-04T10:09:08Z</time>
      </trkpt>
      <trkpt lat="50.01587" lon="4.25269">
        <ele>297.8</ele>
        <time>2024-05-04T10:09:09Z</time>
      </trkpt>
      <trkpt lat="50.01585" lon="4.25279">
        <ele>297.4</ele>
        <time>2024-05-04T10:09:10Z</time>
      </trkpt>
      <trkpt lat="50.01582" lon="4.25289">
        <ele>297.4</ele>
        <time>2024-05-04T10:09:11Z</time>
      </trkpt>
      <trkpt lat="50.01579" lon="4.253">
        <ele>297.2</ele>
        <time>2024-05-04T10:09:12Z</time>
      </trkpt>
      <trkpt lat="50.01577" lon="4.2531">
        <ele>297</ele>
        <time>2024-05-04T10:09:13Z</time>
      </trkpt>
      <trkpt lat="50.01574" lon="4.25321">
        <ele>296.8</ele>
        <time>2024-05-04T10:09:14Z</time>
      </trkpt>
      <trkpt lat="50.01572" lon="4.25332">
        <ele>296.8</ele>
        <time>2024-05-04T10:09:15Z</time>
      </trkpt>
      <trkpt lat="50.01569" lon="4.25342">
        <ele>296.6</ele>
        <time>2024-05-04T10:09:16Z</time>
      </trkpt>
      <trkpt lat="50.01567" lon="4.25353">
        <ele>296.2</ele>
        <time>2024-05-04T10:09:17Z</time>
      </trkpt>
      <trkpt lat="50.01565" lon="4.25364">
        <ele>295.8</ele>
        <time>2024-05-04T10:09:18Z</time>
      </trkpt>
      <trkpt lat="50.01562" lon="4.25375">
        <ele>295.4</ele>
        <time>2024-05-04T10:09:19Z</time>
      </trkpt>
      <trkpt lat="50.0156" lon="4.25385">
        <ele>295</ele>
        <time>2024-05-04T10:09:20Z</time>
      </trkpt>
      <trkpt lat="50.01558" lon="4.25394">
        <ele>294.6</ele>
        <time>2024-05-04T10:09:21Z</time>
      </trkpt>
      <trkpt lat="50.01556" lon="4.25404">
        <ele>294</ele>
        <time>2024-05-04T10:09:22Z</time>
      </trkpt>
      <trkpt lat="50.01556" lon="4.25413">
        <ele>293.8</ele>
        <time>2024-05-04T10:09:23Z</time>
      </trkpt>
      <trkpt lat="50.01556" lon="4.25422">
        <ele>293.6</ele>
        <time>2024-05-04T10:09:24Z</time>
      </trkpt>
      <trkpt lat="50.01557" lon="4.2543">
        <ele>293.6</ele>
        <time>2024-05-04T10:09:25Z</time>
      </trkpt>
      <trkpt lat="50.01561" lon="4.25438">
        <ele>293.4</ele>
        <time>2024-05-04T10:09:26Z</time>
      </trkpt>
      <trkpt lat="50.01565" lon="4.25446">
        <ele>293.2</ele>
        <time>2024-05-04T10:09:27Z</time>
      </trkpt>
      <trkpt lat="50.01569" lon="4.25452">
        <ele>293</ele>
        <time>2024-05-04T10:09:28Z</time>
      </trkpt>
      <trkpt lat="50.01573" lon="4.25459">
        <ele>293</ele>
        <time>2024-05-04T10:09:29Z</time>
      </trkpt>
      <trkpt lat="50.01578" lon="4.25466">
        <ele>293</ele>
        <time>2024-05-04T10:09:30Z</time>
      </trkpt>
      <trkpt lat="50.01582" lon="4.25473">
        <ele>293</ele>
        <time>2024-05-04T10:09:31Z</time>
      </trkpt>
      <trkpt lat="50.01584" lon="4.25482">
        <ele>293</ele>
        <time>2024-05-04T10:09:32Z</time>
      </trkpt>
      <trkpt lat="50.01584" lon="4.2549">
        <ele>292.8</ele>
        <time>2024-05-04T10:09:33Z</time>
      </trkpt>
      <trkpt lat="50.01583" lon="4.25498">
        <ele>292.6</ele>
        <time>2024-05-04T10:09:34Z</time>
      </trkpt>
      <trkpt lat="50.01581" lon="4.25507">
        <ele>292.2</ele>
        <time>2024-05-04T10:09:35Z</time>
      </trkpt>
      <trkpt lat="50.01579" lon="4.25515">
        <ele>292.2</ele>
        <time>2024-05-04T10:09:36Z</time>
      </trkpt>
      <trkpt lat="50.01577" lon="4.25524">
        <ele>292.2</ele>
        <time>2024-05-04T10:09:37Z</time>
      </trkpt>
      <trkpt lat="50.01575" lon="4.25533">
        <ele>292</ele>
        <time>2024-05-04T10:09:38Z</time>
      </trkpt>
      <trkpt lat="50.01574" lon="4.25542">
        <ele>291.8</ele>
        <time>2024-05-04T10:09:39Z</time>
      </trkpt>
      <trkpt lat="50.01571" lon="4.25551">
        <ele>291.4</ele>
        <time>2024-05-04T10:09:40Z</time>
      </trkpt>
      <trkpt lat="50.01569" lon="4.2556">
        <ele>291.2</ele>
        <time>2024-05-04T10:09:41Z</time>
      </trkpt>
      <trkpt lat="50.01567" lon="4.2557">
        <ele>291</ele>
        <time>2024-05-04T10:09:42Z</time>
      </trkpt>
      <trkpt lat="50.01565" lon="4.25579">
        <ele>291</ele>
        <time>2024-05-04T10:09:43Z</time>
      </trkpt>
      <trkpt lat="50.01563" lon="4.25589">
        <ele>290.6</ele>
        <time>2024-05-04T10:09:44Z</time>
      </trkpt>
      <trkpt lat="50.01561" lon="4.25598">
        <ele>290.2</ele>
        <time>2024-05-04T10:09:45Z</time>
      </trkpt>
      <trkpt lat="50.01558" lon="4.25608">
        <ele>290</ele>
        <time>2024-05-04T10:09:46Z</time>
      </trkpt>
      <trkpt lat="50.01554" lon="4.25616">
        <ele>289.4</ele>
        <time>2024-05-04T10:09:47Z</time>
      </trkpt>
      <trkpt lat="50.01549" lon="4.25622">
        <ele>289.4</ele>
        <time>2024-05-04T10:09:48Z</time>
      </trkpt>
      <trkpt lat="50.01544" lon="4.25625">
        <ele>289.2</ele>
        <time>2024-05-04T10:09:49Z</time>
      </trkpt>
      <trkpt lat="50.01538" lon="4.25624">
        <ele>289.2</ele>
        <time>2024-05-04T10:09:50Z</time>
      </trkpt>
      <trkpt lat="50.01534" lon="4.25622">
        <ele>288.4</ele>
        <time>2024-05-04T10:09:51Z</time>
      </trkpt>
      <trkpt lat="50.0153" lon="4.2562">
        <ele>287.8</ele>
        <time>2024-05-04T10:09:52Z</time>
      </trkpt>
      <trkpt lat="50.01527" lon="4.2562">
        <ele>287.6</ele>
        <time>2024-05-04T10:09:53Z</time>
      </trkpt>
      <trkpt lat="50.01524" lon="4.25623">
        <ele>287.4</ele>
        <time>2024-05-04T10:09:54Z</time>
      </trkpt>
      <trkpt lat="50.01522" lon="4.25628">
        <ele>287.2</ele>
        <time>2024-05-04T10:09:55Z</time>
      </trkpt>
      <trkpt lat="50.0152" lon="4.25635">
        <ele>287</ele>
        <time>2024-05-04T10:09:56Z</time>
      </trkpt>
      <trkpt lat="50.01517" lon="4.25644">
        <ele>286.6</ele>
        <time>2024-05-04T10:09:57Z</time>
      </trkpt>
      <trkpt lat="50.01514" lon="4.25652">
        <ele>286.6</ele>
        <time>2024-05-04T10:09:58Z</time>
      </trkpt>
      <trkpt lat="50.0151" lon="4.25661">
        <ele>286.4</ele>
        <time>2024-05-04T10:09:59Z</time>
      </trkpt>
      <trkpt lat="50.01505" lon="4.2567">
        <ele>286.2</ele>
        <time>2024-05-04T10:10:00Z</time>
      </trkpt>
      <trkpt lat="50.01501" lon="4.25679">
        <ele>285.8</ele>
        <time>2024-05-04T10:10:01Z</time>
      </trkpt>
      <trkpt lat="50.01496" lon="4.25689">
        <ele>285.8</ele>
        <time>2024-05-04T10:10:02Z</time>
      </trkpt>
      <trkpt lat="50.01491" lon="4.25699">
        <ele>285.6</ele>
        <time>2024-05-04T10:10:03Z</time>
      </trkpt>
      <trkpt lat="50.01486" lon="4.2571">
        <ele>285.4</ele>
        <time>2024-05-04T10:10:04Z</time>
      </trkpt>
      <trkpt lat="50.01481" lon="4.25721">
        <ele>285.4</ele>
        <time>2024-05-04T10:10:05Z</time>
      </trkpt>
      <trkpt lat="50.01477" lon="4.25731">
        <ele>284.8</ele>
        <time>2024-05-04T10:10:06Z</time>
      </trkpt>
      <trkpt lat="50.01473" lon="4.25742">
        <ele>283.8</ele>
        <time>2024-05-04T10:10:07Z</time>
      </trkpt>
      <trkpt lat="50.01469" lon="4.25752">
        <ele>283.4</ele>
        <time>2024-05-04T10:10:08Z</time>
      </trkpt>
      <trkpt lat="50.01465" lon="4.25763">
        <ele>282.4</ele>
        <time>2024-05-04T10:10:09Z</time>
      </trkpt>
      <trkpt lat="50.01462" lon="4.25774">
        <ele>282</ele>
        <time>2024-05-04T10:10:10Z</time>
      </trkpt>
      <trkpt lat="50.0146" lon="4.25785">
        <ele>281.4</ele>
        <time>2024-05-04T10:10:11Z</time>
      </trkpt>
      <trkpt lat="50.01457" lon="4.25796">
        <ele>281.2</ele>
        <time>2024-05-04T10:10:12Z</time>
      </trkpt>
      <trkpt lat="50.01455" lon="4.25807">
        <ele>280.8</ele>
        <time>2024-05-04T10:10:13Z</time>
      </trkpt>
      <trkpt lat="50.01454" lon="4.25817">
        <ele>280.8</ele>
        <time>2024-05-04T10:10:14Z</time>
      </trkpt>
      <trkpt lat="50.01452" lon="4.25827">
        <ele>280.8</ele>
        <time>2024-05-04T10:10:15Z</time>
      </trkpt>
      <trkpt lat="50.01452" lon="4.25837">
        <ele>280.8</ele>
        <time>2024-05-04T10:10:16Z</time>
      </trkpt>
      <trkpt lat="50.01451" lon="4.25847">
        <ele>280.8</ele>
        <time>2024-05-04T10:10:17Z</time>
      </trkpt>
      <trkpt lat="50.0145" lon="4.25857">
        <ele>280.8</ele>
        <time>2024-05-04T10:10:18Z</time>
      </trkpt>
      <trkpt lat="50.0145" lon="4.25866">
        <ele>280.6</ele>
        <time>2024-05-04T10:10:19Z</time>
      </trkpt>
      <trkpt lat="50.0145" lon="4.25876">
        <ele>280.8</ele>
        <time>2024-05-04T10:10:20Z</time>
      </trkpt>
      <trkpt lat="50.01449" lon="4.25885">
        <ele>280.8</ele>
        <time>2024-05-04T10:10:21Z</time>
      </trkpt>
      <trkpt lat="50.01449" lon="4.25894">
        <ele>280.8</ele>
        <time>2024-05-04T10:10:22Z</time>
      </trkpt>
      <trkpt lat="50.01449" lon="4.25904">
        <ele>280.8</ele>
        <time>2024-05-04T10:10:23Z</time>
      </trkpt>
      <trkpt lat="50.01448" lon="4.25913">
        <ele>281.2</ele>
        <time>2024-05-04T10:10:24Z</time>
      </trkpt>
      <trkpt lat="50.01448" lon="4.25922">
        <ele>281.2</ele>
        <time>2024-05-04T10:10:25Z</time>
      </trkpt>
      <trkpt lat="50.01447" lon="4.25932">
        <ele>281.6</ele>
        <time>2024-05-04T10:10:26Z</time>
      </trkpt>
      <trkpt lat="50.01446" lon="4.25941">
        <ele>281.6</ele>
        <time>2024-05-04T10:10:27Z</time>
      </trkpt>
      <trkpt lat="50.01445" lon="4.2595">
        <ele>282</ele>
        <time>2024-05-04T10:10:28Z</time>
      </trkpt>
      <trkpt lat="50.01444" lon="4.25959">
        <ele>282.2</ele>
        <time>2024-05-04T10:10:29Z</time>
      </trkpt>
      <trkpt lat="50.01443" lon="4.25967">
        <ele>282.6</ele>
        <time>2024-05-04T10:10:30Z</time>
      </trkpt>
      <trkpt lat="50.01441" lon="4.25976">
        <ele>283.2</ele>
        <time>2024-05-04T10:10:31Z</time>
      </trkpt>
      <trkpt lat="50.01439" lon="4.25985">
        <ele>283.4</ele>
        <time>2024-05-04T10:10:32Z</time>
      </trkpt>
      <trkpt lat="50.01437" lon="4.25993">
        <ele>283.4</ele>
        <time>2024-05-04T10:10:33Z</time>
      </trkpt>
      <trkpt lat="50.01435" lon="4.26001">
        <ele>283.8</ele>
        <time>2024-05-04T10:10:34Z</time>
      </trkpt>
      <trkpt lat="50.01432" lon="4.26009">
        <ele>284.2</ele>
        <time>2024-05-04T10:10:35Z</time>
      </trkpt>
      <trkpt lat="50.0143" lon="4.26016">
        <ele>284.4</ele>
        <time>2024-05-04T10:10:36Z</time>
      </trkpt>
      <trkpt lat="50.01427" lon="4.26024">
        <ele>284.6</ele>
        <time>2024-05-04T10:10:37Z</time>
      </trkpt>
      <trkpt lat="50.01425" lon="4.26031">
        <ele>284.8</ele>
        <time>2024-05-04T10:10:38Z</time>
      </trkpt>
      <trkpt lat="50.01422" lon="4.26038">
        <ele>285</ele>
        <time>2024-05-04T10:10:39Z</time>
      </trkpt>
      <trkpt lat="50.01419" lon="4.26045">
        <ele>285.2</ele>
        <time>2024-05-04T10:10:40Z</time>
      </trkpt>
      <trkpt lat="50.01417" lon="4.26053">
        <ele>285.4</ele>
        <time>2024-05-04T10:10:41Z</time>
      </trkpt>
      <trkpt lat="50.01414" lon="4.2606">
        <ele>285.4</ele>
        <time>2024-05-04T10:10:42Z</time>
      </trkpt>
      <trkpt lat="50.01412" lon="4.26067">
        <ele>285.6</ele>
        <time>2024-05-04T10:10:43Z</time>
      </trkpt>
      <trkpt lat="50.01409" lon="4.26075">
        <ele>285.8</ele>
        <time>2024-05-04T10:10:44Z</time>
      </trkpt>
      <trkpt lat="50.01406" lon="4.26083">
        <ele>285.8</ele>
        <time>2024-05-04T10:10:45Z</time>
      </trkpt>
      <trkpt lat="50.01403" lon="4.2609">
        <ele>286</ele>
        <time>2024-05-04T10:10:46Z</time>
      </trkpt>
      <trkpt lat="50.014" lon="4.26098">
        <ele>286</ele>
        <time>2024-05-04T10:10:47Z</time>
      </trkpt>
      <trkpt lat="50.01398" lon="4.26105">
        <ele>286</ele>
        <time>2024-05-04T10:10:48Z</time>
      </trkpt>
      <trkpt lat="50.01395" lon="4.26113">
        <ele>286</ele>
        <time>2024-05-04T10:10:49Z</time>
      </trkpt>
      <trkpt lat="50.01392" lon="4.26121">
        <ele>286.2</ele>
        <time>2024-05-04T10:10:50Z</time>
      </trkpt>
      <trkpt lat="50.01389" lon="4.26129">
        <ele>286.2</ele>
        <time>2024-05-04T10:10:51Z</time>
      </trkpt>
      <trkpt lat="50.01386" lon="4.26137">
        <ele>286.4</ele>
        <time>2024-05-04T10:10:52Z</time>
      </trkpt>
      <trkpt lat="50.01382" lon="4.26144">
        <ele>286.2</ele>
        <time>2024-05-04T10:10:53Z</time>
      </trkpt>
      <trkpt lat="50.01379" lon="4.26153">
        <ele>286.4</ele>
        <time>2024-05-04T10:10:54Z</time>
      </trkpt>
      <trkpt lat="50.01376" lon="4.26161">
        <ele>286.4</ele>
        <time>2024-05-04T10:10:55Z</time>
      </trkpt>
      <trkpt lat="50.01373" lon="4.26169">
        <ele>286.4</ele>
        <time>2024-05-04T10:10:56Z</time>
      </trkpt>
      <trkpt lat="50.0137" lon="4.26178">
        <ele>286.2</ele>
        <time>2024-05-04T10:10:57Z</time>
      </trkpt>
      <trkpt lat="50.01366" lon="4.26187">
        <ele>286.2</ele>
        <time>2024-05-04T10:10:58Z</time>
      </trkpt>
      <trkpt lat="50.01363" lon="4.26196">
        <ele>286</ele>
        <time>2024-05-04T10:10:59Z</time>
      </trkpt>
      <trkpt lat="50.0136" lon="4.26205">
        <ele>286.2</ele>
        <time>2024-05-04T10:11:00Z</time>
      </trkpt>
      <trkpt lat="50.01356" lon="4.26214">
        <ele>286.2</ele>
        <time>2024-05-04T10:11:01Z</time>
      </trkpt>
      <trkpt lat="50.01353" lon="4.26223">
        <ele>286</ele>
        <time>2024-05-04T10:11:02Z</time>
      </trkpt>
      <trkpt lat="50.0135" lon="4.26232">
        <ele>285.8</ele>
        <time>2024-05-04T10:11:03Z</time>
      </trkpt>
      <trkpt lat="50.01346" lon="4.26241">
        <ele>285.6</ele>
        <time>2024-05-04T10:11:04Z</time>
      </trkpt>
      <trkpt lat="50.01343" lon="4.26251">
        <ele>285.4</ele>
        <time>2024-05-04T10:11:05Z</time>
      </trkpt>
      <trkpt lat="50.01339" lon="4.2626">
        <ele>285</ele>
        <time>2024-05-04T10:11:06Z</time>
      </trkpt>
      <trkpt lat="50.01336" lon="4.26269">
        <ele>285</ele>
        <time>2024-05-04T10:11:07Z</time>
      </trkpt>
      <trkpt lat="50.01332" lon="4.26278">
        <ele>284.4</ele>
        <time>2024-05-04T10:11:08Z</time>
      </trkpt>
      <trkpt lat="50.01329" lon="4.26288">
        <ele>283.8</ele>
        <time>2024-05-04T10:11:09Z</time>
      </trkpt>
      <trkpt lat="50.01325" lon="4.26297">
        <ele>283.6</ele>
        <time>2024-05-04T10:11:10Z</time>
      </trkpt>
      <trkpt lat="50.01322" lon="4.26307">
        <ele>283.4</ele>
        <time>2024-05-04T10:11:11Z</time>
      </trkpt>
      <trkpt lat="50.01319" lon="4.26317">
        <ele>283</ele>
        <time>2024-05-04T10:11:12Z</time>
      </trkpt>
      <trkpt lat="50.01317" lon="4.26328">
        <ele>283</ele>
        <time>2024-05-04T10:11:13Z</time>
      </trkpt>
      <trkpt lat="50.01314" lon="4.26338">
        <ele>283</ele>
        <time>2024-05-04T10:11:14Z</time>
      </trkpt>
      <trkpt lat="50.01312" lon="4.26348">
        <ele>282.8</ele>
        <time>2024-05-04T10:11:15Z</time>
      </trkpt>
      <trkpt lat="50.01309" lon="4.26359">
        <ele>282.4</ele>
        <time>2024-05-04T10:11:16Z</time>
      </trkpt>
      <trkpt lat="50.01307" lon="4.2637">
        <ele>282.2</ele>
        <time>2024-05-04T10:11:17Z</time>
      </trkpt>
      <trkpt lat="50.01305" lon="4.26381">
        <ele>282</ele>
        <time>2024-05-04T10:11:18Z</time>
      </trkpt>
      <trkpt lat="50.01304" lon="4.26392">
        <ele>282</ele>
        <time>2024-05-04T10:11:19Z</time>
      </trkpt>
      <trkpt lat="50.01302" lon="4.26403">
        <ele>281.8</ele>
        <time>2024-05-04T10:11:20Z</time>
      </trkpt>
      <trkpt lat="50.01301" lon="4.26414">
        <ele>281.8</ele>
        <time>2024-05-04T10:11:21Z</time>
      </trkpt>
      <trkpt lat="50.01299" lon="4.26425">
        <ele>281.8</ele>
        <time>2024-05-04T10:11:22Z</time>
      </trkpt>
      <trkpt lat="50.01298" lon="4.26435">
        <ele>282</ele>
        <time>2024-05-04T10:11:23Z</time>
      </trkpt>
      <trkpt lat="50.01296" lon="4.26446">
        <ele>281.8</ele>
        <time>2024-05-04T10:11:24Z</time>
      </trkpt>
      <trkpt lat="50.01295" lon="4.26456">
        <ele>281.8</ele>
        <time>2024-05-04T10:11:25Z</time>
      </trkpt>
      <trkpt lat="50.01294" lon="4.26467">
        <ele>281.8</ele>
        <time>2024-05-04T10:11:26Z</time>
      </trkpt>
      <trkpt lat="50.01292" lon="4.26477">
        <ele>282</ele>
        <time>2024-05-04T10:11:27Z</time>
      </trkpt>
      <trkpt lat="50.01291" lon="4.26486">
        <ele>282</ele>
        <time>2024-05-04T10:11:28Z</time>
      </trkpt>
      <trkpt lat="50.0129" lon="4.26495">
        <ele>282</ele>
        <time>2024-05-04T10:11:29Z</time>
      </trkpt>
      <trkpt lat="50.01289" lon="4.26504">
        <ele>282</ele>
        <time>2024-05-04T10:11:30Z</time>
      </trkpt>
      <trkpt lat="50.01287" lon="4.26512">
        <ele>282</ele>
        <time>2024-05-04T10:11:31Z</time>
      </trkpt>
      <trkpt lat="50.01286" lon="4.2652">
        <ele>282</ele>
        <time>2024-05-04T10:11:32Z</time>
      </trkpt>
      <trkpt lat="50.01284" lon="4.26528">
        <ele>282.2</ele>
        <time>2024-05-04T10:11:33Z</time>
      </trkpt>
      <trkpt lat="50.01282" lon="4.26535">
        <ele>282.6</ele>
        <time>2024-05-04T10:11:34Z</time>
      </trkpt>
      <trkpt lat="50.0128" lon="4.26543">
        <ele>282.8</ele>
        <time>2024-05-04T10:11:35Z</time>
      </trkpt>
      <trkpt lat="50.01278" lon="4.2655">
        <ele>283</ele>
        <time>2024-05-04T10:11:36Z</time>
      </trkpt>
      <trkpt lat="50.01276" lon="4.26557">
        <ele>283.2</ele>
        <time>2024-05-04T10:11:37Z</time>
      </trkpt>
      <trkpt lat="50.01274" lon="4.26564">
        <ele>283.6</ele>
        <time>2024-05-04T10:11:38Z</time>
      </trkpt>
      <trkpt lat="50.01272" lon="4.26571">
        <ele>284.2</ele>
        <time>2024-05-04T10:11:39Z</time>
      </trkpt>
      <trkpt lat="50.0127" lon="4.26577">
        <ele>284.2</ele>
        <time>2024-05-04T10:11:40Z</time>
      </trkpt>
      <trkpt lat="50.01268" lon="4.26584">
        <ele>284.6</ele>
        <time>2024-05-04T10:11:41Z</time>
      </trkpt>
      <trkpt lat="50.01266" lon="4.2659">
        <ele>285.2</ele>
        <time>2024-05-04T10:11:42Z</time>
      </trkpt>
      <trkpt lat="50.01264" lon="4.26596">
        <ele>285.6</ele>
        <time>2024-05-04T10:11:43Z</time>
      </trkpt>
      <trkpt lat="50.01261" lon="4.26602">
        <ele>285.8</ele>
        <time>2024-05-04T10:11:44Z</time>
      </trkpt>
      <trkpt lat="50.01259" lon="4.26608">
        <ele>286</ele>
        <time>2024-05-04T10:11:45Z</time>
      </trkpt>
      <trkpt lat="50.01257" lon="4.26614">
        <ele>286.2</ele>
        <time>2024-05-04T10:11:46Z</time>
      </trkpt>
      <trkpt lat="50.01254" lon="4.2662">
        <ele>286.6</ele>
        <time>2024-05-04T10:11:47Z</time>
      </trkpt>
      <trkpt lat="50.01252" lon="4.26626">
        <ele>286.6</ele>
        <time>2024-05-04T10:11:48Z</time>
      </trkpt>
      <trkpt lat="50.01249" lon="4.26632">
        <ele>287</ele>
        <time>2024-05-04T10:11:49Z</time>
      </trkpt>
      <trkpt lat="50.01247" lon="4.26638">
        <ele>287.6</ele>
        <time>2024-05-04T10:11:50Z</time>
      </trkpt>
      <trkpt lat="50.01244" lon="4.26644">
        <ele>287.8</ele>
        <time>2024-05-04T10:11:51Z</time>
      </trkpt>
      <trkpt lat="50.01242" lon="4.2665">
        <ele>288</ele>
        <time>2024-05-04T10:11:52Z</time>
      </trkpt>
      <trkpt lat="50.0124" lon="4.26656">
        <ele>288.4</ele>
        <time>2024-05-04T10:11:53Z</time>
      </trkpt>
      <trkpt lat="50.01237" lon="4.26662">
        <ele>288.6</ele>
        <time>2024-05-04T10:11:54Z</time>
      </trkpt>
      <trkpt lat="50.01235" lon="4.26667">
        <ele>288.6</ele>
        <time>2024-05-04T10:11:55Z</time>
      </trkpt>
      <trkpt lat="50.01233" lon="4.26673">
        <ele>288.8</ele>
        <time>2024-05-04T10:11:56Z</time>
      </trkpt>
      <trkpt lat="50.0123" lon="4.26678">
        <ele>288.8</ele>
        <time>2024-05-04T10:11:57Z</time>
      </trkpt>
      <trkpt lat="50.01228" lon="4.26684">
        <ele>288.8</ele>
        <time>2024-05-04T10:11:58Z</time>
      </trkpt>
      <trkpt lat="50.01226" lon="4.26689">
        <ele>288.8</ele>
        <time>2024-05-04T10:11:59Z</time>
      </trkpt>
      <trkpt lat="50.01224" lon="4.26695">
        <ele>289</ele>
        <time>2024-05-04T10:12:00Z</time>
      </trkpt>
      <trkpt lat="50.01221" lon="4.267">
        <ele>289.2</ele>
        <time>2024-05-04T10:12:01Z</time>
      </trkpt>
      <trkpt lat="50.01219" lon="4.26706">
        <ele>289.6</ele>
        <time>2024-05-04T10:12:02Z</time>
      </trkpt>
      <trkpt lat="50.01217" lon="4.26711">
        <ele>289.8</ele>
        <time>2024-05-04T10:12:03Z</time>
      </trkpt>
      <trkpt lat="50.01215" lon="4.26717">
        <ele>290.8</ele>
        <time>2024-05-04T10:12:04Z</time>
      </trkpt>
      <trkpt lat="50.01212" lon="4.26722">
        <ele>291.2</ele>
        <time>2024-05-04T10:12:05Z</time>
      </trkpt>
      <trkpt lat="50.0121" lon="4.26727">
        <ele>291.8</ele>
        <time>2024-05-04T10:12:06Z</time>
      </trkpt>
      <trkpt lat="50.01208" lon="4.26733">
        <ele>292</ele>
        <time>2024-05-04T10:12:07Z</time>
      </trkpt>
      <trkpt lat="50.01206" lon="4.26738">
        <ele>292.2</ele>
        <time>2024-05-04T10:12:08Z</time>
      </trkpt>
      <trkpt lat="50.01204" lon="4.26743">
        <ele>292.2</ele>
        <time>2024-05-04T10:12:09Z</time>
      </trkpt>
      <trkpt lat="50.01202" lon="4.26749">
        <ele>292.2</ele>
        <time>2024-05-04T10:12:10Z</time>
      </trkpt>
      <trkpt lat="50.01199" lon="4.26754">
        <ele>292.4</ele>
        <time>2024-05-04T10:12:11Z</time>
      </trkpt>
      <trkpt lat="50.01197" lon="4.2676">
        <ele>292.4</ele>
        <time>2024-05-04T10:12:12Z</time>
      </trkpt>
      <trkpt lat="50.01195" lon="4.26765">
        <ele>292.6</ele>
        <time>2024-05-04T10:12:13Z</time>
      </trkpt>
      <trkpt lat="50.01193" lon="4.2677">
        <ele>292.4</ele>
        <time>2024-05-04T10:12:14Z</time>
      </trkpt>
      <trkpt lat="50.01191" lon="4.26776">
        <ele>292.8</ele>
        <time>2024-05-04T10:12:15Z</time>
      </trkpt>
      <trkpt lat="50.01188" lon="4.26781">
        <ele>292.8</ele>
        <time>2024-05-04T10:12:16Z</time>
      </trkpt>
      <trkpt lat="50.01186" lon="4.26786">
        <ele>293.4</ele>
        <time>2024-05-04T10:12:17Z</time>
      </trkpt>
      <trkpt lat="50.01184" lon="4.26791">
        <ele>293.4</ele>
        <time>2024-05-04T10:12:18Z</time>
      </trkpt>
      <trkpt lat="50.01182" lon="4.26796">
        <ele>293.4</ele>
        <time>2024-05-04T10:12:19Z</time>
      </trkpt>
      <trkpt lat="50.0118" lon="4.26802">
        <ele>293.6</ele>
        <time>2024-05-04T10:12:20Z</time>
      </trkpt>
      <trkpt lat="50.01178" lon="4.26807">
        <ele>294</ele>
        <time>2024-05-04T10:12:21Z</time>
      </trkpt>
      <trkpt lat="50.01175" lon="4.26812">
        <ele>294</ele>
        <time>2024-05-04T10:12:22Z</time>
      </trkpt>
      <trkpt lat="50.01173" lon="4.26817">
        <ele>294.4</ele>
        <time>2024-05-04T10:12:23Z</time>
      </trkpt>
      <trkpt lat="50.01171" lon="4.26822">
        <ele>295</ele>
        <time>2024-05-04T10:12:24Z</time>
      </trkpt>
      <trkpt lat="50.01169" lon="4.26828">
        <ele>295.4</ele>
        <time>2024-05-04T10:12:25Z</time>
      </trkpt>
      <trkpt lat="50.01167" lon="4.26833">
        <ele>295.8</ele>
        <time>2024-05-04T10:12:26Z</time>
      </trkpt>
      <trkpt lat="50.01165" lon="4.26838">
        <ele>296.2</ele>
        <time>2024-05-04T10:12:27Z</time>
      </trkpt>
      <trkpt lat="50.01163" lon="4.26843">
        <ele>296.2</ele>
        <time>2024-05-04T10:12:28Z</time>
      </trkpt>
      <trkpt lat="50.0116" lon="4.26849">
        <ele>296.4</ele>
        <time>2024-05-04T10:12:29Z</time>
      </trkpt>
      <trkpt lat="50.01158" lon="4.26854">
        <ele>296.6</ele>
        <time>2024-05-04T10:12:30Z</time>
      </trkpt>
      <trkpt lat="50.01156" lon="4.2686">
        <ele>296.6</ele>
        <time>2024-05-04T10:12:31Z</time>
      </trkpt>
      <trkpt lat="50.01154" lon="4.26865">
        <ele>296.6</ele>
        <time>2024-05-04T10:12:32Z</time>
      </trkpt>
      <trkpt lat="50.01152" lon="4.26871">
        <ele>296.8</ele>
        <time>2024-05-04T10:12:33Z</time>
      </trkpt>
      <trkpt lat="50.0115" lon="4.26876">
        <ele>296.8</ele>
        <time>2024-05-04T10:12:34Z</time>
      </trkpt>
      <trkpt lat="50.01147" lon="4.26881">
        <ele>296.8</ele>
        <time>2024-05-04T10:12:35Z</time>
      </trkpt>
      <trkpt lat="50.01145" lon="4.26887">
        <ele>297</ele>
        <time>2024-05-04T10:12:36Z</time>
      </trkpt>
      <trkpt lat="50.01143" lon="4.26892">
        <ele>297</ele>
        <time>2024-05-04T10:12:37Z</time>
      </trkpt>
      <trkpt lat="50.01141" lon="4.26898">
        <ele>297.2</ele>
        <time>2024-05-04T10:12:38Z</time>
      </trkpt>
      <trkpt lat="50.01138" lon="4.26903">
        <ele>297.4</ele>
        <time>2024-05-04T10:12:39Z</time>
      </trkpt>
      <trkpt lat="50.01136" lon="4.26909">
        <ele>297.2</ele>
        <time>2024-05-04T10:12:40Z</time>
      </trkpt>
      <trkpt lat="50.01134" lon="4.26915">
        <ele>297.2</ele>
        <time>2024-05-04T10:12:41Z</time>
      </trkpt>
      <trkpt lat="50.01131" lon="4.2692">
        <ele>297.6</ele>
        <time>2024-05-04T10:12:42Z</time>
      </trkpt>
      <trkpt lat="50.01129" lon="4.26926">
        <ele>298.2</ele>
        <time>2024-05-04T10:12:43Z</time>
      </trkpt>
      <trkpt lat="50.01127" lon="4.26932">
        <ele>298.4</ele>
        <time>2024-05-04T10:12:44Z</time>
      </trkpt>
      <trkpt lat="50.01124" lon="4.26938">
        <ele>298.6</ele>
        <time>2024-05-04T10:12:45Z</time>
      </trkpt>
      <trkpt lat="50.01122" lon="4.26944">
        <ele>298.8</ele>
        <time>2024-05-04T10:12:46Z</time>
      </trkpt>
      <trkpt lat="50.01119" lon="4.2695">
        <ele>298.8</ele>
        <time>2024-05-04T10:12:47Z</time>
      </trkpt>
      <trkpt lat="50.01116" lon="4.26956">
        <ele>298.8</ele>
        <time>2024-05-04T10:12:48Z</time>
      </trkpt>
      <trkpt lat="50.01114" lon="4.26963">
        <ele>299</ele>
        <time>2024-05-04T10:12:49Z</time>
      </trkpt>
      <trkpt lat="50.01111" lon="4.26969">
        <ele>299.2</ele>
        <time>2024-05-04T10:12:50Z</time>
      </trkpt>
      <trkpt lat="50.01108" lon="4.26976">
        <ele>299</ele>
        <time>2024-05-04T10:12:51Z</time>
      </trkpt>
      <trkpt lat="50.01106" lon="4.26983">
        <ele>299.2</ele>
        <time>2024-05-04T10:12:52Z</time>
      </trkpt>
      <trkpt lat="50.01103" lon="4.2699">
        <ele>299</ele>
        <time>2024-05-04T10:12:53Z</time>
      </trkpt>
      <trkpt lat="50.011" lon="4.26997">
        <ele>299</ele>
        <time>2024-05-04T10:12:54Z</time>
      </trkpt>
      <trkpt lat="50.01097" lon="4.27005">
        <ele>299</ele>
        <time>2024-05-04T10:12:55Z</time>
      </trkpt>
      <trkpt lat="50.01095" lon="4.27012">
        <ele>299.2</ele>
        <time>2024-05-04T10:12:56Z</time>
      </trkpt>
      <trkpt lat="50.01093" lon="4.2702">
        <ele>299.2</ele>
        <time>2024-05-04T10:12:57Z</time>
      </trkpt>
      <trkpt lat="50.0109" lon="4.27028">
        <ele>299</ele>
        <time>2024-05-04T10:12:58Z</time>
      </trkpt>
      <trkpt lat="50.01088" lon="4.27036">
        <ele>299.2</ele>
        <time>2024-05-04T10:12:59Z</time>
      </trkpt>
      <trkpt lat="50.01086" lon="4.27045">
        <ele>299</ele>
        <time>2024-05-04T10:13:00Z</time>
      </trkpt>
      <trkpt lat="50.01084" lon="4.27053">
        <ele>299</ele>
        <time>2024-05-04T10:13:01Z</time>
      </trkpt>
      <trkpt lat="50.01082" lon="4.27062">
        <ele>299</ele>
        <time>2024-05-04T10:13:02Z</time>
      </trkpt>
      <trkpt lat="50.0108" lon="4.27072">
        <ele>298.8</ele>
        <time>2024-05-04T10:13:03Z</time>
      </trkpt>
      <trkpt lat="50.01078" lon="4.27081">
        <ele>298.8</ele>
        <time>2024-05-04T10:13:04Z</time>
      </trkpt>
      <trkpt lat="50.01077" lon="4.27091">
        <ele>298.6</ele>
        <time>2024-05-04T10:13:05Z</time>
      </trkpt>
      <trkpt lat="50.01075" lon="4.27101">
        <ele>298.6</ele>
        <time>2024-05-04T10:13:06Z</time>
      </trkpt>
      <trkpt lat="50.01074" lon="4.27111">
        <ele>298.2</ele>
        <time>2024-05-04T10:13:07Z</time>
      </trkpt>
      <trkpt lat="50.01073" lon="4.27121">
        <ele>298.4</ele>
        <time>2024-05-04T10:13:08Z</time>
      </trkpt>
      <trkpt lat="50.01073" lon="4.27131">
        <ele>298.2</ele>
        <time>2024-05-04T10:13:09Z</time>
      </trkpt>
      <trkpt lat="50.01072" lon="4.27142">
        <ele>298.2</ele>
        <time>2024-05-04T10:13:10Z</time>
      </trkpt>
      <trkpt lat="50.01072" lon="4.27153">
        <ele>298.2</ele>
        <time>2024-05-04T10:13:11Z</time>
      </trkpt>
      <trkpt lat="50.01072" lon="4.27165">
        <ele>298</ele>
        <time>2024-05-04T10:13:12Z</time>
      </trkpt>
      <trkpt lat="50.01072" lon="4.27177">
        <ele>298</ele>
        <time>2024-05-04T10:13:13Z</time>
      </trkpt>
      <trkpt lat="50.01073" lon="4.27189">
        <ele>297.8</ele>
        <time>2024-05-04T10:13:14Z</time>
      </trkpt>
      <trkpt lat="50.01074" lon="4.27201">
        <ele>297.6</ele>
        <time>2024-05-04T10:13:15Z</time>
      </trkpt>
      <trkpt lat="50.01075" lon="4.27214">
        <ele>297.4</ele>
        <time>2024-05-04T10:13:16Z</time>
      </trkpt>
      <trkpt lat="50.01077" lon="4.27226">
        <ele>297.4</ele>
        <time>2024-05-04T10:13:17Z</time>
      </trkpt>
      <trkpt lat="50.01079" lon="4.27238">
        <ele>297</ele>
        <time>2024-05-04T10:13:18Z</time>
      </trkpt>
      <trkpt lat="50.01081" lon="4.27251">
        <ele>296.4</ele>
        <time>2024-05-04T10:13:19Z</time>
      </trkpt>
      <trkpt lat="50.01084" lon="4.27264">
        <ele>296.4</ele>
        <time>2024-05-04T10:13:20Z</time>
      </trkpt>
      <trkpt lat="50.01086" lon="4.27277">
        <ele>296</ele>
        <time>2024-05-04T10:13:21Z</time>
      </trkpt>
      <trkpt lat="50.01089" lon="4.27291">
        <ele>296</ele>
        <time>2024-05-04T10:13:22Z</time>
      </trkpt>
      <trkpt lat="50.01092" lon="4.27304">
        <ele>295.6</ele>
        <time>2024-05-04T10:13:23Z</time>
      </trkpt>
      <trkpt lat="50.01094" lon="4.27318">
        <ele>295.4</ele>
        <time>2024-05-04T10:13:24Z</time>
      </trkpt>
      <trkpt lat="50.01097" lon="4.27333">
        <ele>295</ele>
        <time>2024-05-04T10:13:25Z</time>
      </trkpt>
      <trkpt lat="50.011" lon="4.27347">
        <ele>294.8</ele>
        <time>2024-05-04T10:13:26Z</time>
      </trkpt>
      <trkpt lat="50.01103" lon="4.27361">
        <ele>293.8</ele>
        <time>2024-05-04T10:13:27Z</time>
      </trkpt>
      <trkpt lat="50.01105" lon="4.27375">
        <ele>293.2</ele>
        <time>2024-05-04T10:13:28Z</time>
      </trkpt>
      <trkpt lat="50.01108" lon="4.27388">
        <ele>292.6</ele>
        <time>2024-05-04T10:13:29Z</time>
      </trkpt>
      <trkpt lat="50.01112" lon="4.27402">
        <ele>292</ele>
        <time>2024-05-04T10:13:30Z</time>
      </trkpt>
      <trkpt lat="50.01114" lon="4.27415">
        <ele>292</ele>
        <time>2024-05-04T10:13:31Z</time>
      </trkpt>
      <trkpt lat="50.01117" lon="4.27428">
        <ele>291.4</ele>
        <time>2024-05-04T10:13:32Z</time>
      </trkpt>
      <trkpt lat="50.0112" lon="4.27442">
        <ele>291</ele>
        <time>2024-05-04T10:13:33Z</time>
      </trkpt>
      <trkpt lat="50.01123" lon="4.27455">
        <ele>290.6</ele>
        <time>2024-05-04T10:13:34Z</time>
      </trkpt>
      <trkpt lat="50.01125" lon="4.27468">
        <ele>290.2</ele>
        <time>2024-05-04T10:13:35Z</time>
      </trkpt>
      <trkpt lat="50.01128" lon="4.27481">
        <ele>290</ele>
        <time>2024-05-04T10:13:36Z</time>
      </trkpt>
      <trkpt lat="50.0113" lon="4.27493">
        <ele>290</ele>
        <time>2024-05-04T10:13:37Z</time>
      </trkpt>
      <trkpt lat="50.01133" lon="4.27504">
        <ele>290</ele>
        <time>2024-05-04T10:13:38Z</time>
      </trkpt>
      <trkpt lat="50.01135" lon="4.27516">
        <ele>290</ele>
        <time>2024-05-04T10:13:39Z</time>
      </trkpt>
      <trkpt lat="50.01137" lon="4.27528">
        <ele>290</ele>
        <time>2024-05-04T10:13:40Z</time>
      </trkpt>
      <trkpt lat="50.01139" lon="4.27539">
        <ele>290</ele>
        <time>2024-05-04T10:13:41Z</time>
      </trkpt>
      <trkpt lat="50.01142" lon="4.27551">
        <ele>290</ele>
        <time>2024-05-04T10:13:42Z</time>
      </trkpt>
      <trkpt lat="50.01144" lon="4.27562">
        <ele>290</ele>
        <time>2024-05-04T10:13:43Z</time>
      </trkpt>
      <trkpt lat="50.01146" lon="4.27572">
        <ele>290</ele>
        <time>2024-05-04T10:13:44Z</time>
      </trkpt>
      <trkpt lat="50.01149" lon="4.27583">
        <ele>290</ele>
        <time>2024-05-04T10:13:45Z</time>
      </trkpt>
      <trkpt lat="50.01151" lon="4.27594">
        <ele>290</ele>
        <time>2024-05-04T10:13:46Z</time>
      </trkpt>
      <trkpt lat="50.01153" lon="4.27604">
        <ele>290</ele>
        <time>2024-05-04T10:13:47Z</time>
      </trkpt>
      <trkpt lat="50.01156" lon="4.27614">
        <ele>290</ele>
        <time>2024-05-04T10:13:48Z</time>
      </trkpt>
      <trkpt lat="50.01157" lon="4.27624">
        <ele>290.2</ele>
        <time>2024-05-04T10:13:49Z</time>
      </trkpt>
      <trkpt lat="50.01159" lon="4.27635">
        <ele>290.4</ele>
        <time>2024-05-04T10:13:50Z</time>
      </trkpt>
      <trkpt lat="50.01161" lon="4.27645">
        <ele>290.2</ele>
        <time>2024-05-04T10:13:51Z</time>
      </trkpt>
      <trkpt lat="50.01163" lon="4.27656">
        <ele>290.4</ele>
        <time>2024-05-04T10:13:52Z</time>
      </trkpt>
      <trkpt lat="50.01165" lon="4.27666">
        <ele>290.4</ele>
        <time>2024-05-04T10:13:53Z</time>
      </trkpt>
      <trkpt lat="50.01168" lon="4.27677">
        <ele>290.6</ele>
        <time>2024-05-04T10:13:54Z</time>
      </trkpt>
      <trkpt lat="50.0117" lon="4.27687">
        <ele>290.6</ele>
        <time>2024-05-04T10:13:55Z</time>
      </trkpt>
      <trkpt lat="50.01173" lon="4.27698">
        <ele>290.8</ele>
        <time>2024-05-04T10:13:56Z</time>
      </trkpt>
      <trkpt lat="50.01175" lon="4.27708">
        <ele>290.8</ele>
        <time>2024-05-04T10:13:57Z</time>
      </trkpt>
      <trkpt lat="50.01177" lon="4.27719">
        <ele>291</ele>
        <time>2024-05-04T10:13:58Z</time>
      </trkpt>
      <trkpt lat="50.01179" lon="4.2773">
        <ele>290.8</ele>
        <time>2024-05-04T10:13:59Z</time>
      </trkpt>
      <trkpt lat="50.01181" lon="4.2774">
        <ele>291</ele>
        <time>2024-05-04T10:14:00Z</time>
      </trkpt>
      <trkpt lat="50.01184" lon="4.27751">
        <ele>291</ele>
        <time>2024-05-04T10:14:01Z</time>
      </trkpt>
      <trkpt lat="50.01186" lon="4.27762">
        <ele>291</ele>
        <time>2024-05-04T10:14:02Z</time>
      </trkpt>
      <trkpt lat="50.01189" lon="4.27772">
        <ele>291</ele>
        <time>2024-05-04T10:14:03Z</time>
      </trkpt>
      <trkpt lat="50.01191" lon="4.27782">
        <ele>291</ele>
        <time>2024-05-04T10:14:04Z</time>
      </trkpt>
      <trkpt lat="50.01194" lon="4.27793">
        <ele>291</ele>
        <time>2024-05-04T10:14:05Z</time>
      </trkpt>
      <trkpt lat="50.01196" lon="4.27804">
        <ele>291</ele>
        <time>2024-05-04T10:14:06Z</time>
      </trkpt>
      <trkpt lat="50.01198" lon="4.27814">
        <ele>291.2</ele>
        <time>2024-05-04T10:14:07Z</time>
      </trkpt>
      <trkpt lat="50.01201" lon="4.27824">
        <ele>291</ele>
        <time>2024-05-04T10:14:08Z</time>
      </trkpt>
      <trkpt lat="50.01203" lon="4.27835">
        <ele>291</ele>
        <time>2024-05-04T10:14:09Z</time>
      </trkpt>
      <trkpt lat="50.01206" lon="4.27845">
        <ele>291</ele>
        <time>2024-05-04T10:14:10Z</time>
      </trkpt>
      <trkpt lat="50.01208" lon="4.27856">
        <ele>291.2</ele>
        <time>2024-05-04T10:14:11Z</time>
      </trkpt>
      <trkpt lat="50.0121" lon="4.27866">
        <ele>291</ele>
        <time>2024-05-04T10:14:12Z</time>
      </trkpt>
      <trkpt lat="50.01213" lon="4.27876">
        <ele>291.2</ele>
        <time>2024-05-04T10:14:13Z</time>
      </trkpt>
      <trkpt lat="50.01214" lon="4.27887">
        <ele>291</ele>
        <time>2024-05-04T10:14:14Z</time>
      </trkpt>
      <trkpt lat="50.01217" lon="4.27897">
        <ele>291</ele>
        <time>2024-05-04T10:14:15Z</time>
      </trkpt>
      <trkpt lat="50.01219" lon="4.27906">
        <ele>291.2</ele>
        <time>2024-05-04T10:14:16Z</time>
      </trkpt>
      <trkpt lat="50.01221" lon="4.27916">
        <ele>291</ele>
        <time>2024-05-04T10:14:17Z</time>
      </trkpt>
      <trkpt lat="50.01223" lon="4.27926">
        <ele>291</ele>
        <time>2024-05-04T10:14:18Z</time>
      </trkpt>
      <trkpt lat="50.01225" lon="4.27937">
        <ele>291</ele>
        <time>2024-05-04T10:14:19Z</time>
      </trkpt>
      <trkpt lat="50.01227" lon="4.27947">
        <ele>291</ele>
        <time>2024-05-04T10:14:20Z</time>
      </trkpt>
      <trkpt lat="50.01228" lon="4.27957">
        <ele>291</ele>
        <time>2024-05-04T10:14:21Z</time>
      </trkpt>
      <trkpt lat="50.0123" lon="4.27967">
        <ele>290.8</ele>
        <time>2024-05-04T10:14:22Z</time>
      </trkpt>
      <trkpt lat="50.01232" lon="4.27977">
        <ele>290.8</ele>
        <time>2024-05-04T10:14:23Z</time>
      </trkpt>
      <trkpt lat="50.01234" lon="4.27987">
        <ele>290.8</ele>
        <time>2024-05-04T10:14:24Z</time>
      </trkpt>
      <trkpt lat="50.01236" lon="4.27997">
        <ele>290.8</ele>
        <time>2024-05-04T10:14:25Z</time>
      </trkpt>
      <trkpt lat="50.01238" lon="4.28006">
        <ele>290.8</ele>
        <time>2024-05-04T10:14:26Z</time>
      </trkpt>
      <trkpt lat="50.0124" lon="4.28016">
        <ele>290.6</ele>
        <time>2024-05-04T10:14:27Z</time>
      </trkpt>
      <trkpt lat="50.01241" lon="4.28026">
        <ele>290.2</ele>
        <time>2024-05-04T10:14:28Z</time>
      </trkpt>
      <trkpt lat="50.01243" lon="4.28035">
        <ele>290</ele>
        <time>2024-05-04T10:14:29Z</time>
      </trkpt>
      <trkpt lat="50.01245" lon="4.28046">
        <ele>290</ele>
        <time>2024-05-04T10:14:30Z</time>
      </trkpt>
      <trkpt lat="50.01248" lon="4.28056">
        <ele>290</ele>
        <time>2024-05-04T10:14:31Z</time>
      </trkpt>
      <trkpt lat="50.01251" lon="4.28065">
        <ele>290</ele>
        <time>2024-05-04T10:14:32Z</time>
      </trkpt>
      <trkpt lat="50.01253" lon="4.28075">
        <ele>290.4</ele>
        <time>2024-05-04T10:14:33Z</time>
      </trkpt>
      <trkpt lat="50.01256" lon="4.28085">
        <ele>290.6</ele>
        <time>2024-05-04T10:14:34Z</time>
      </trkpt>
      <trkpt lat="50.01258" lon="4.28095">
        <ele>290.8</ele>
        <time>2024-05-04T10:14:35Z</time>
      </trkpt>
      <trkpt lat="50.0126" lon="4.28105">
        <ele>290.8</ele>
        <time>2024-05-04T10:14:36Z</time>
      </trkpt>
      <trkpt lat="50.01262" lon="4.28115">
        <ele>290.8</ele>
        <time>2024-05-04T10:14:37Z</time>
      </trkpt>
      <trkpt lat="50.01263" lon="4.28126">
        <ele>291</ele>
        <time>2024-05-04T10:14:38Z</time>
      </trkpt>
      <trkpt lat="50.01265" lon="4.28136">
        <ele>291</ele>
        <time>2024-05-04T10:14:39Z</time>
      </trkpt>
      <trkpt lat="50.01267" lon="4.28146">
        <ele>290.8</ele>
        <time>2024-05-04T10:14:40Z</time>
      </trkpt>
      <trkpt lat="50.01269" lon="4.28157">
        <ele>290.8</ele>
        <time>2024-05-04T10:14:41Z</time>
      </trkpt>
      <trkpt lat="50.01272" lon="4.28168">
        <ele>290.6</ele>
        <time>2024-05-04T10:14:42Z</time>
      </trkpt>
      <trkpt lat="50.01274" lon="4.28179">
        <ele>290.6</ele>
        <time>2024-05-04T10:14:43Z</time>
      </trkpt>
      <trkpt lat="50.01276" lon="4.28189">
        <ele>290.6</ele>
        <time>2024-05-04T10:14:44Z</time>
      </trkpt>
      <trkpt lat="50.01278" lon="4.28199">
        <ele>290.6</ele>
        <time>2024-05-04T10:14:45Z</time>
      </trkpt>
      <trkpt lat="50.0128" lon="4.28209">
        <ele>290.6</ele>
        <time>2024-05-04T10:14:46Z</time>
      </trkpt>
      <trkpt lat="50.01282" lon="4.28219">
        <ele>290.6</ele>
        <time>2024-05-04T10:14:47Z</time>
      </trkpt>
      <trkpt lat="50.01284" lon="4.28228">
        <ele>290.6</ele>
        <time>2024-05-04T10:14:48Z</time>
      </trkpt>
      <trkpt lat="50.01286" lon="4.28237">
        <ele>290.8</ele>
        <time>2024-05-04T10:14:49Z</time>
      </trkpt>
      <trkpt lat="50.01288" lon="4.28247">
        <ele>290.8</ele>
        <time>2024-05-04T10:14:50Z</time>
      </trkpt>
      <trkpt lat="50.0129" lon="4.28255">
        <ele>290.6</ele>
        <time>2024-05-04T10:14:51Z</time>
      </trkpt>
      <trkpt lat="50.01291" lon="4.28264">
        <ele>290.8</ele>
        <time>2024-05-04T10:14:52Z</time>
      </trkpt>
      <trkpt lat="50.01293" lon="4.28273">
        <ele>290.8</ele>
        <time>2024-05-04T10:14:53Z</time>
      </trkpt>
      <trkpt lat="50.01295" lon="4.28281">
        <ele>291</ele>
        <time>2024-05-04T10:14:54Z</time>
      </trkpt>
      <trkpt lat="50.01297" lon="4.2829">
        <ele>290.8</ele>
        <time>2024-05-04T10:14:55Z</time>
      </trkpt>
      <trkpt lat="50.01299" lon="4.28299">
        <ele>290.8</ele>
        <time>2024-05-04T10:14:56Z</time>
      </trkpt>
      <trkpt lat="50.01301" lon="4.28307">
        <ele>291</ele>
        <time>2024-05-04T10:14:57Z</time>
      </trkpt>
      <trkpt lat="50.01303" lon="4.28316">
        <ele>291.4</ele>
        <time>2024-05-04T10:14:58Z</time>
      </trkpt>
      <trkpt lat="50.01306" lon="4.28324">
        <ele>291.4</ele>
        <time>2024-05-04T10:14:59Z</time>
      </trkpt>
      <trkpt lat="50.01308" lon="4.28332">
        <ele>291.8</ele>
        <time>2024-05-04T10:15:00Z</time>
      </trkpt>
      <trkpt lat="50.0131" lon="4.28341">
        <ele>292</ele>
        <time>2024-05-04T10:15:01Z</time>
      </trkpt>
      <trkpt lat="50.01312" lon="4.28349">
        <ele>292.4</ele>
        <time>2024-05-04T10:15:02Z</time>
      </trkpt>
      <trkpt lat="50.01314" lon="4.28357">
        <ele>292.8</ele>
        <time>2024-05-04T10:15:03Z</time>
      </trkpt>
      <trkpt lat="50.01316" lon="4.28365">
        <ele>293.6</ele>
        <time>2024-05-04T10:15:04Z</time>
      </trkpt>
      <trkpt lat="50.01318" lon="4.28373">
        <ele>294</ele>
        <time>2024-05-04T10:15:05Z</time>
      </trkpt>
      <trkpt lat="50.0132" lon="4.2838">
        <ele>294.2</ele>
        <time>2024-05-04T10:15:06Z</time>
      </trkpt>
      <trkpt lat="50.01322" lon="4.28388">
        <ele>294.2</ele>
        <time>2024-05-04T10:15:07Z</time>
      </trkpt>
      <trkpt lat="50.01323" lon="4.28396">
        <ele>294.6</ele>
        <time>2024-05-04T10:15:08Z</time>
      </trkpt>
      <trkpt lat="50.01325" lon="4.28403">
        <ele>294.8</ele>
        <time>2024-05-04T10:15:09Z</time>
      </trkpt>
      <trkpt lat="50.01327" lon="4.28411">
        <ele>294.6</ele>
        <time>2024-05-04T10:15:10Z</time>
      </trkpt>
      <trkpt lat="50.01328" lon="4.28419">
        <ele>295.6</ele>
        <time>2024-05-04T10:15:11Z</time>
      </trkpt>
      <trkpt lat="50.01329" lon="4.28426">
        <ele>296</ele>
        <time>2024-05-04T10:15:12Z</time>
      </trkpt>
      <trkpt lat="50.01331" lon="4.28434">
        <ele>296</ele>
        <time>2024-05-04T10:15:13Z</time>
      </trkpt>
      <trkpt lat="50.01332" lon="4.28441">
        <ele>296.4</ele>
        <time>2024-05-04T10:15:14Z</time>
      </trkpt>
      <trkpt lat="50.01333" lon="4.28449">
        <ele>296.4</ele>
        <time>2024-05-04T10:15:15Z</time>
      </trkpt>
      <trkpt lat="50.01335" lon="4.28456">
        <ele>296.4</ele>
        <time>2024-05-04T10:15:16Z</time>
      </trkpt>
      <trkpt lat="50.01336" lon="4.28464">
        <ele>296.6</ele>
        <time>2024-05-04T10:15:17Z</time>
      </trkpt>
      <trkpt lat="50.01338" lon="4.28471">
        <ele>296.8</ele>
        <time>2024-05-04T10:15:18Z</time>
      </trkpt>
      <trkpt lat="50.01339" lon="4.28479">
        <ele>296.6</ele>
        <time>2024-05-04T10:15:19Z</time>
      </trkpt>
      <trkpt lat="50.01341" lon="4.28486">
        <ele>297</ele>
        <time>2024-05-04T10:15:20Z</time>
      </trkpt>
      <trkpt lat="50.01342" lon="4.28494">
        <ele>296.8</ele>
        <time>2024-05-04T10:15:21Z</time>
      </trkpt>
      <trkpt lat="50.01343" lon="4.28502">
        <ele>297</ele>
        <time>2024-05-04T10:15:22Z</time>
      </trkpt>
      <trkpt lat="50.01344" lon="4.28509">
        <ele>297.2</ele>
        <time>2024-05-04T10:15:23Z</time>
      </trkpt>
      <trkpt lat="50.01346" lon="4.28517">
        <ele>297.4</ele>
        <time>2024-05-04T10:15:24Z</time>
      </trkpt>
      <trkpt lat="50.01347" lon="4.28524">
        <ele>297.6</ele>
        <time>2024-05-04T10:15:25Z</time>
      </trkpt>
      <trkpt lat="50.01349" lon="4.28532">
        <ele>297.6</ele>
        <time>2024-05-04T10:15:26Z</time>
      </trkpt>
      <trkpt lat="50.0135" lon="4.28539">
        <ele>297.8</ele>
        <time>2024-05-04T10:15:27Z</time>
      </trkpt>
      <trkpt lat="50.01352" lon="4.28547">
        <ele>298</ele>
        <time>2024-05-04T10:15:28Z</time>
      </trkpt>
      <trkpt lat="50.01354" lon="4.28554">
        <ele>298.4</ele>
        <time>2024-05-04T10:15:29Z</time>
      </trkpt>
      <trkpt lat="50.01356" lon="4.28562">
        <ele>298.6</ele>
        <time>2024-05-04T10:15:30Z</time>
      </trkpt>
      <trkpt lat="50.01357" lon="4.28569">
        <ele>298.6</ele>
        <time>2024-05-04T10:15:31Z</time>
      </trkpt>
      <trkpt lat="50.01359" lon="4.28577">
        <ele>298.8</ele>
        <time>2024-05-04T10:15:32Z</time>
      </trkpt>
      <trkpt lat="50.01361" lon="4.28585">
        <ele>299</ele>
        <time>2024-05-04T10:15:33Z</time>
      </trkpt>
      <trkpt lat="50.01363" lon="4.28593">
        <ele>299.2</ele>
        <time>2024-05-04T10:15:34Z</time>
      </trkpt>
      <trkpt lat="50.01364" lon="4.28601">
        <ele>299.4</ele>
        <time>2024-05-04T10:15:35Z</time>
      </trkpt>
      <trkpt lat="50.01367" lon="4.28608">
        <ele>299.6</ele>
        <time>2024-05-04T10:15:36Z</time>
      </trkpt>
      <trkpt lat="50.01369" lon="4.28616">
        <ele>299.6</ele>
        <time>2024-05-04T10:15:37Z</time>
      </trkpt>
      <trkpt lat="50.0137" lon="4.28624">
        <ele>299.8</ele>
        <time>2024-05-04T10:15:38Z</time>
      </trkpt>
      <trkpt lat="50.01372" lon="4.28631">
        <ele>300</ele>
        <time>2024-05-04T10:15:39Z</time>
      </trkpt>
      <trkpt lat="50.01374" lon="4.28639">
        <ele>300</ele>
        <time>2024-05-04T10:15:40Z</time>
      </trkpt>
      <trkpt lat="50.01376" lon="4.28647">
        <ele>300.2</ele>
        <time>2024-05-04T10:15:41Z</time>
      </trkpt>
      <trkpt lat="50.01378" lon="4.28654">
        <ele>300.2</ele>
        <time>2024-05-04T10:15:42Z</time>
      </trkpt>
      <trkpt lat="50.0138" lon="4.28662">
        <ele>300.4</ele>
        <time>2024-05-04T10:15:43Z</time>
      </trkpt>
      <trkpt lat="50.01381" lon="4.28669">
        <ele>300.6</ele>
        <time>2024-05-04T10:15:44Z</time>
      </trkpt>
      <trkpt lat="50.01383" lon="4.28677">
        <ele>300.8</ele>
        <time>2024-05-04T10:15:45Z</time>
      </trkpt>
      <trkpt lat="50.01384" lon="4.28685">
        <ele>301</ele>
        <time>2024-05-04T10:15:46Z</time>
      </trkpt>
      <trkpt lat="50.01386" lon="4.28693">
        <ele>301.2</ele>
        <time>2024-05-04T10:15:47Z</time>
      </trkpt>
      <trkpt lat="50.01388" lon="4.28701">
        <ele>301.4</ele>
        <time>2024-05-04T10:15:48Z</time>
      </trkpt>
      <trkpt lat="50.0139" lon="4.28709">
        <ele>301.8</ele>
        <time>2024-05-04T10:15:49Z</time>
      </trkpt>
      <trkpt lat="50.01392" lon="4.28717">
        <ele>301.8</ele>
        <time>2024-05-04T10:15:50Z</time>
      </trkpt>
      <trkpt lat="50.01394" lon="4.28724">
        <ele>302</ele>
        <time>2024-05-04T10:15:51Z</time>
      </trkpt>
      <trkpt lat="50.01395" lon="4.28733">
        <ele>302</ele>
        <time>2024-05-04T10:15:52Z</time>
      </trkpt>
      <trkpt lat="50.01397" lon="4.28741">
        <ele>302.2</ele>
        <time>2024-05-04T10:15:53Z</time>
      </trkpt>
      <trkpt lat="50.01398" lon="4.2875">
        <ele>302.4</ele>
        <time>2024-05-04T10:15:54Z</time>
      </trkpt>
      <trkpt lat="50.014" lon="4.28758">
        <ele>302.4</ele>
        <time>2024-05-04T10:15:55Z</time>
      </trkpt>
      <trkpt lat="50.01401" lon="4.28765">
        <ele>302.4</ele>
        <time>2024-05-04T10:15:56Z</time>
      </trkpt>
      <trkpt lat="50.01403" lon="4.28773">
        <ele>302.6</ele>
        <time>2024-05-04T10:15:57Z</time>
      </trkpt>
      <trkpt lat="50.01405" lon="4.28782">
        <ele>302.8</ele>
        <time>2024-05-04T10:15:58Z</time>
      </trkpt>
      <trkpt lat="50.01407" lon="4.2879">
        <ele>303</ele>
        <time>2024-05-04T10:15:59Z</time>
      </trkpt>
      <trkpt lat="50.01409" lon="4.28798">
        <ele>303.2</ele>
        <time>2024-05-04T10:16:00Z</time>
      </trkpt>
      <trkpt lat="50.01411" lon="4.28807">
        <ele>303.2</ele>
        <time>2024-05-04T10:16:01Z</time>
      </trkpt>
      <trkpt lat="50.01412" lon="4.28815">
        <ele>303.2</ele>
        <time>2024-05-04T10:16:02Z</time>
      </trkpt>
      <trkpt lat="50.01414" lon="4.28823">
        <ele>303.4</ele>
        <time>2024-05-04T10:16:03Z</time>
      </trkpt>
      <trkpt lat="50.01416" lon="4.28832">
        <ele>303.4</ele>
        <time>2024-05-04T10:16:04Z</time>
      </trkpt>
      <trkpt lat="50.01418" lon="4.2884">
        <ele>303.4</ele>
        <time>2024-05-04T10:16:05Z</time>
      </trkpt>
      <trkpt lat="50.0142" lon="4.28848">
        <ele>303.6</ele>
        <time>2024-05-04T10:16:06Z</time>
      </trkpt>
      <trkpt lat="50.01422" lon="4.28857">
        <ele>303.6</ele>
        <time>2024-05-04T10:16:07Z</time>
      </trkpt>
      <trkpt lat="50.01424" lon="4.28865">
        <ele>303.6</ele>
        <time>2024-05-04T10:16:08Z</time>
      </trkpt>
      <trkpt lat="50.01427" lon="4.28873">
        <ele>303.8</ele>
        <time>2024-05-04T10:16:09Z</time>
      </trkpt>
      <trkpt lat="50.01428" lon="4.28882">
        <ele>303.8</ele>
        <time>2024-05-04T10:16:10Z</time>
      </trkpt>
      <trkpt lat="50.0143" lon="4.2889">
        <ele>303.8</ele>
        <time>2024-05-04T10:16:11Z</time>
      </trkpt>
      <trkpt lat="50.01432" lon="4.28899">
        <ele>303.8</ele>
        <time>2024-05-04T10:16:12Z</time>
      </trkpt>
      <trkpt lat="50.01434" lon="4.28907">
        <ele>303.8</ele>
        <time>2024-05-04T10:16:13Z</time>
      </trkpt>
      <trkpt lat="50.01436" lon="4.28916">
        <ele>304</ele>
        <time>2024-05-04T10:16:14Z</time>
      </trkpt>
      <trkpt lat="50.01438" lon="4.28925">
        <ele>304</ele>
        <time>2024-05-04T10:16:15Z</time>
      </trkpt>
      <trkpt lat="50.0144" lon="4.28933">
        <ele>304.2</ele>
        <time>2024-05-04T10:16:16Z</time>
      </trkpt>
      <trkpt lat="50.01442" lon="4.28942">
        <ele>304.4</ele>
        <time>2024-05-04T10:16:17Z</time>
      </trkpt>
      <trkpt lat="50.01444" lon="4.28951">
        <ele>304.4</ele>
        <time>2024-05-04T10:16:18Z</time>
      </trkpt>
      <trkpt lat="50.01446" lon="4.28959">
        <ele>304.4</ele>
        <time>2024-05-04T10:16:19Z</time>
      </trkpt>
      <trkpt lat="50.01448" lon="4.28968">
        <ele>304.6</ele>
        <time>2024-05-04T10:16:20Z</time>
      </trkpt>
      <trkpt lat="50.0145" lon="4.28977">
        <ele>304.6</ele>
        <time>2024-05-04T10:16:21Z</time>
      </trkpt>
      <trkpt lat="50.01452" lon="4.28986">
        <ele>304.8</ele>
        <time>2024-05-04T10:16:22Z</time>
      </trkpt>
      <trkpt lat="50.01454" lon="4.28994">
        <ele>304.6</ele>
        <time>2024-05-04T10:16:23Z</time>
      </trkpt>
      <trkpt lat="50.01456" lon="4.29003">
        <ele>304.8</ele>
        <time>2024-05-04T10:16:24Z</time>
      </trkpt>
      <trkpt lat="50.01457" lon="4.29012">
        <ele>304.8</ele>
        <time>2024-05-04T10:16:25Z</time>
      </trkpt>
      <trkpt lat="50.01459" lon="4.2902">
        <ele>304.8</ele>
        <time>2024-05-04T10:16:26Z</time>
      </trkpt>
      <trkpt lat="50.01461" lon="4.29029">
        <ele>304.6</ele>
        <time>2024-05-04T10:16:27Z</time>
      </trkpt>
      <trkpt lat="50.01463" lon="4.29037">
        <ele>304.8</ele>
        <time>2024-05-04T10:16:28Z</time>
      </trkpt>
      <trkpt lat="50.01465" lon="4.29046">
        <ele>304.8</ele>
        <time>2024-05-04T10:16:29Z</time>
      </trkpt>
      <trkpt lat="50.01467" lon="4.29054">
        <ele>304.8</ele>
        <time>2024-05-04T10:16:30Z</time>
      </trkpt>
      <trkpt lat="50.01469" lon="4.29063">
        <ele>304.8</ele>
        <time>2024-05-04T10:16:31Z</time>
      </trkpt>
      <trkpt lat="50.01471" lon="4.29071">
        <ele>304.8</ele>
        <time>2024-05-04T10:16:32Z</time>
      </trkpt>
      <trkpt lat="50.01473" lon="4.29079">
        <ele>304.8</ele>
        <time>2024-05-04T10:16:33Z</time>
      </trkpt>
      <trkpt lat="50.01475" lon="4.29088">
        <ele>304.8</ele>
        <time>2024-05-04T10:16:34Z</time>
      </trkpt>
      <trkpt lat="50.01476" lon="4.29096">
        <ele>304.6</ele>
        <time>2024-05-04T10:16:35Z</time>
      </trkpt>
      <trkpt lat="50.01478" lon="4.29105">
        <ele>305</ele>
        <time>2024-05-04T10:16:36Z</time>
      </trkpt>
      <trkpt lat="50.0148" lon="4.29113">
        <ele>304.8</ele>
        <time>2024-05-04T10:16:37Z</time>
      </trkpt>
      <trkpt lat="50.01482" lon="4.29122">
        <ele>304.8</ele>
        <time>2024-05-04T10:16:38Z</time>
      </trkpt>
      <trkpt lat="50.01483" lon="4.29131">
        <ele>304.8</ele>
        <time>2024-05-04T10:16:39Z</time>
      </trkpt>
      <trkpt lat="50.01485" lon="4.29139">
        <ele>304.8</ele>
        <time>2024-05-04T10:16:40Z</time>
      </trkpt>
      <trkpt lat="50.01487" lon="4.29148">
        <ele>304.8</ele>
        <time>2024-05-04T10:16:41Z</time>
      </trkpt>
      <trkpt lat="50.01488" lon="4.29157">
        <ele>304.8</ele>
        <time>2024-05-04T10:16:42Z</time>
      </trkpt>
      <trkpt lat="50.0149" lon="4.29166">
        <ele>304.8</ele>
        <time>2024-05-04T10:16:43Z</time>
      </trkpt>
      <trkpt lat="50.01492" lon="4.29174">
        <ele>304.8</ele>
        <time>2024-05-04T10:16:44Z</time>
      </trkpt>
      <trkpt lat="50.01494" lon="4.29183">
        <ele>305</ele>
        <time>2024-05-04T10:16:45Z</time>
      </trkpt>
      <trkpt lat="50.01496" lon="4.29191">
        <ele>305.2</ele>
        <time>2024-05-04T10:16:46Z</time>
      </trkpt>
      <trkpt lat="50.01498" lon="4.292">
        <ele>305.4</ele>
        <time>2024-05-04T10:16:47Z</time>
      </trkpt>
      <trkpt lat="50.015" lon="4.29209">
        <ele>305.4</ele>
        <time>2024-05-04T10:16:48Z</time>
      </trkpt>
      <trkpt lat="50.01502" lon="4.29217">
        <ele>305.8</ele>
        <time>2024-05-04T10:16:49Z</time>
      </trkpt>
      <trkpt lat="50.01504" lon="4.29226">
        <ele>305.8</ele>
        <time>2024-05-04T10:16:50Z</time>
      </trkpt>
      <trkpt lat="50.01506" lon="4.29235">
        <ele>305.8</ele>
        <time>2024-05-04T10:16:51Z</time>
      </trkpt>
      <trkpt lat="50.01508" lon="4.29244">
        <ele>305.8</ele>
        <time>2024-05-04T10:16:52Z</time>
      </trkpt>
      <trkpt lat="50.01509" lon="4.29252">
        <ele>306</ele>
        <time>2024-05-04T10:16:53Z</time>
      </trkpt>
      <trkpt lat="50.01511" lon="4.29261">
        <ele>305.8</ele>
        <time>2024-05-04T10:16:54Z</time>
      </trkpt>
      <trkpt lat="50.01513" lon="4.2927">
        <ele>305.8</ele>
        <time>2024-05-04T10:16:55Z</time>
      </trkpt>
      <trkpt lat="50.01515" lon="4.29278">
        <ele>306</ele>
        <time>2024-05-04T10:16:56Z</time>
      </trkpt>
      <trkpt lat="50.01517" lon="4.29287">
        <ele>306.2</ele>
        <time>2024-05-04T10:16:57Z</time>
      </trkpt>
      <trkpt lat="50.01519" lon="4.29295">
        <ele>306.2</ele>
        <time>2024-05-04T10:16:58Z</time>
      </trkpt>
      <trkpt lat="50.01521" lon="4.29304">
        <ele>306.2</ele>
        <time>2024-05-04T10:16:59Z</time>
      </trkpt>
      <trkpt lat="50.01522" lon="4.29312">
        <ele>306.2</ele>
        <time>2024-05-04T10:17:00Z</time>
      </trkpt>
      <trkpt lat="50.01524" lon="4.29321">
        <ele>306.2</ele>
        <time>2024-05-04T10:17:01Z</time>
      </trkpt>
      <trkpt lat="50.01526" lon="4.2933">
        <ele>306.2</ele>
        <time>2024-05-04T10:17:02Z</time>
      </trkpt>
      <trkpt lat="50.01528" lon="4.29338">
        <ele>306.4</ele>
        <time>2024-05-04T10:17:03Z</time>
      </trkpt>
      <trkpt lat="50.0153" lon="4.29347">
        <ele>306.4</ele>
        <time>2024-05-04T10:17:04Z</time>
      </trkpt>
      <trkpt lat="50.01532" lon="4.29355">
        <ele>306.4</ele>
        <time>2024-05-04T10:17:05Z</time>
      </trkpt>
      <trkpt lat="50.01534" lon="4.29364">
        <ele>306.4</ele>
        <time>2024-05-04T10:17:06Z</time>
      </trkpt>
      <trkpt lat="50.01536" lon="4.29372">
        <ele>306.4</ele>
        <time>2024-05-04T10:17:07Z</time>
      </trkpt>
      <trkpt lat="50.01537" lon="4.29381">
        <ele>306.4</ele>
        <time>2024-05-04T10:17:08Z</time>
      </trkpt>
      <trkpt lat="50.01539" lon="4.29389">
        <ele>306.4</ele>
        <time>2024-05-04T10:17:09Z</time>
      </trkpt>
      <trkpt lat="50.01541" lon="4.29398">
        <ele>306.4</ele>
        <time>2024-05-04T10:17:10Z</time>
      </trkpt>
      <trkpt lat="50.01543" lon="4.29406">
        <ele>306.4</ele>
        <time>2024-05-04T10:17:11Z</time>
      </trkpt>
      <trkpt lat="50.01545" lon="4.29415">
        <ele>306.4</ele>
        <time>2024-05-04T10:17:12Z</time>
      </trkpt>
      <trkpt lat="50.01547" lon="4.29423">
        <ele>306.4</ele>
        <time>2024-05-04T10:17:13Z</time>
      </trkpt>
      <trkpt lat="50.01549" lon="4.29432">
        <ele>306.2</ele>
        <time>2024-05-04T10:17:14Z</time>
      </trkpt>
      <trkpt lat="50.01551" lon="4.2944">
        <ele>306.4</ele>
        <time>2024-05-04T10:17:15Z</time>
      </trkpt>
      <trkpt lat="50.01553" lon="4.29449">
        <ele>306.2</ele>
        <time>2024-05-04T10:17:16Z</time>
      </trkpt>
      <trkpt lat="50.01554" lon="4.29457">
        <ele>306.2</ele>
        <time>2024-05-04T10:17:17Z</time>
      </trkpt>
      <trkpt lat="50.01556" lon="4.29466">
        <ele>306.2</ele>
        <time>2024-05-04T10:17:18Z</time>
      </trkpt>
      <trkpt lat="50.01559" lon="4.29474">
        <ele>306.4</ele>
        <time>2024-05-04T10:17:19Z</time>
      </trkpt>
      <trkpt lat="50.01561" lon="4.29483">
        <ele>306.2</ele>
        <time>2024-05-04T10:17:20Z</time>
      </trkpt>
      <trkpt lat="50.01563" lon="4.29492">
        <ele>306.4</ele>
        <time>2024-05-04T10:17:21Z</time>
      </trkpt>
      <trkpt lat="50.01564" lon="4.295">
        <ele>306.2</ele>
        <time>2024-05-04T10:17:22Z</time>
      </trkpt>
      <trkpt lat="50.01566" lon="4.29509">
        <ele>306.4</ele>
        <time>2024-05-04T10:17:23Z</time>
      </trkpt>
      <trkpt lat="50.01568" lon="4.29518">
        <ele>306.4</ele>
        <time>2024-05-04T10:17:24Z</time>
      </trkpt>
      <trkpt lat="50.0157" lon="4.29526">
        <ele>306.4</ele>
        <time>2024-05-04T10:17:25Z</time>
      </trkpt>
      <trkpt lat="50.01572" lon="4.29535">
        <ele>306.4</ele>
        <time>2024-05-04T10:17:26Z</time>
      </trkpt>
      <trkpt lat="50.01574" lon="4.29544">
        <ele>306.4</ele>
        <time>2024-05-04T10:17:27Z</time>
      </trkpt>
      <trkpt lat="50.01575" lon="4.29552">
        <ele>306.4</ele>
        <time>2024-05-04T10:17:28Z</time>
      </trkpt>
      <trkpt lat="50.01577" lon="4.29561">
        <ele>306.4</ele>
        <time>2024-05-04T10:17:29Z</time>
      </trkpt>
      <trkpt lat="50.01579" lon="4.2957">
        <ele>306.4</ele>
        <time>2024-05-04T10:17:30Z</time>
      </trkpt>
      <trkpt lat="50.01581" lon="4.29579">
        <ele>306.4</ele>
        <time>2024-05-04T10:17:31Z</time>
      </trkpt>
      <trkpt lat="50.01583" lon="4.29587">
        <ele>306.4</ele>
        <time>2024-05-04T10:17:32Z</time>
      </trkpt>
      <trkpt lat="50.01585" lon="4.29596">
        <ele>306.4</ele>
        <time>2024-05-04T10:17:33Z</time>
      </trkpt>
      <trkpt lat="50.01587" lon="4.29605">
        <ele>306.4</ele>
        <time>2024-05-04T10:17:34Z</time>
      </trkpt>
      <trkpt lat="50.01589" lon="4.29614">
        <ele>306.4</ele>
        <time>2024-05-04T10:17:35Z</time>
      </trkpt>
      <trkpt lat="50.01591" lon="4.29624">
        <ele>306.6</ele>
        <time>2024-05-04T10:17:36Z</time>
      </trkpt>
      <trkpt lat="50.01593" lon="4.29633">
        <ele>306.6</ele>
        <time>2024-05-04T10:17:37Z</time>
      </trkpt>
      <trkpt lat="50.01595" lon="4.29642">
        <ele>306.6</ele>
        <time>2024-05-04T10:17:38Z</time>
      </trkpt>
      <trkpt lat="50.01596" lon="4.29651">
        <ele>306.8</ele>
        <time>2024-05-04T10:17:39Z</time>
      </trkpt>
      <trkpt lat="50.01598" lon="4.2966">
        <ele>307</ele>
        <time>2024-05-04T10:17:40Z</time>
      </trkpt>
      <trkpt lat="50.016" lon="4.29668">
        <ele>307</ele>
        <time>2024-05-04T10:17:41Z</time>
      </trkpt>
      <trkpt lat="50.01602" lon="4.29677">
        <ele>307</ele>
        <time>2024-05-04T10:17:42Z</time>
      </trkpt>
      <trkpt lat="50.01603" lon="4.29686">
        <ele>307</ele>
        <time>2024-05-04T10:17:43Z</time>
      </trkpt>
      <trkpt lat="50.01605" lon="4.29694">
        <ele>307.2</ele>
        <time>2024-05-04T10:17:44Z</time>
      </trkpt>
      <trkpt lat="50.01607" lon="4.29703">
        <ele>307</ele>
        <time>2024-05-04T10:17:45Z</time>
      </trkpt>
      <trkpt lat="50.01609" lon="4.29711">
        <ele>307.2</ele>
        <time>2024-05-04T10:17:46Z</time>
      </trkpt>
      <trkpt lat="50.01611" lon="4.29719">
        <ele>307</ele>
        <time>2024-05-04T10:17:47Z</time>
      </trkpt>
      <trkpt lat="50.01612" lon="4.29728">
        <ele>307.2</ele>
        <time>2024-05-04T10:17:48Z</time>
      </trkpt>
      <trkpt lat="50.01614" lon="4.29736">
        <ele>307.2</ele>
        <time>2024-05-04T10:17:49Z</time>
      </trkpt>
      <trkpt lat="50.01615" lon="4.29745">
        <ele>307.2</ele>
        <time>2024-05-04T10:17:50Z</time>
      </trkpt>
      <trkpt lat="50.01617" lon="4.29753">
        <ele>307.2</ele>
        <time>2024-05-04T10:17:51Z</time>
      </trkpt>
      <trkpt lat="50.01619" lon="4.29761">
        <ele>307.2</ele>
        <time>2024-05-04T10:17:52Z</time>
      </trkpt>
      <trkpt lat="50.0162" lon="4.29769">
        <ele>307.4</ele>
        <time>2024-05-04T10:17:53Z</time>
      </trkpt>
      <trkpt lat="50.01622" lon="4.29778">
        <ele>307.6</ele>
        <time>2024-05-04T10:17:54Z</time>
      </trkpt>
      <trkpt lat="50.01623" lon="4.29786">
        <ele>307.6</ele>
        <time>2024-05-04T10:17:55Z</time>
      </trkpt>
      <trkpt lat="50.01625" lon="4.29795">
        <ele>307.6</ele>
        <time>2024-05-04T10:17:56Z</time>
      </trkpt>
      <trkpt lat="50.01627" lon="4.29804">
        <ele>307.6</ele>
        <time>2024-05-04T10:17:57Z</time>
      </trkpt>
      <trkpt lat="50.01629" lon="4.29812">
        <ele>307.8</ele>
        <time>2024-05-04T10:17:58Z</time>
      </trkpt>
      <trkpt lat="50.01631" lon="4.29821">
        <ele>307.8</ele>
        <time>2024-05-04T10:17:59Z</time>
      </trkpt>
      <trkpt lat="50.01633" lon="4.29829">
        <ele>308</ele>
        <time>2024-05-04T10:18:00Z</time>
      </trkpt>
      <trkpt lat="50.01634" lon="4.29838">
        <ele>308.2</ele>
        <time>2024-05-04T10:18:01Z</time>
      </trkpt>
      <trkpt lat="50.01636" lon="4.29846">
        <ele>308.4</ele>
        <time>2024-05-04T10:18:02Z</time>
      </trkpt>
      <trkpt lat="50.01638" lon="4.29855">
        <ele>308.4</ele>
        <time>2024-05-04T10:18:03Z</time>
      </trkpt>
      <trkpt lat="50.01639" lon="4.29864">
        <ele>308.6</ele>
        <time>2024-05-04T10:18:04Z</time>
      </trkpt>
      <trkpt lat="50.01641" lon="4.29873">
        <ele>308.8</ele>
        <time>2024-05-04T10:18:05Z</time>
      </trkpt>
      <trkpt lat="50.01643" lon="4.29882">
        <ele>308.8</ele>
        <time>2024-05-04T10:18:06Z</time>
      </trkpt>
      <trkpt lat="50.01645" lon="4.2989">
        <ele>308.6</ele>
        <time>2024-05-04T10:18:07Z</time>
      </trkpt>
      <trkpt lat="50.01647" lon="4.29899">
        <ele>308.8</ele>
        <time>2024-05-04T10:18:08Z</time>
      </trkpt>
      <trkpt lat="50.01649" lon="4.29908">
        <ele>308.8</ele>
        <time>2024-05-04T10:18:09Z</time>
      </trkpt>
      <trkpt lat="50.01651" lon="4.29917">
        <ele>308.8</ele>
        <time>2024-05-04T10:18:10Z</time>
      </trkpt>
      <trkpt lat="50.01653" lon="4.29925">
        <ele>308.8</ele>
        <time>2024-05-04T10:18:11Z</time>
      </trkpt>
      <trkpt lat="50.01655" lon="4.29934">
        <ele>308.6</ele>
        <time>2024-05-04T10:18:12Z</time>
      </trkpt>
      <trkpt lat="50.01657" lon="4.29943">
        <ele>308.6</ele>
        <time>2024-05-04T10:18:13Z</time>
      </trkpt>
      <trkpt lat="50.01658" lon="4.29952">
        <ele>308.6</ele>
        <time>2024-05-04T10:18:14Z</time>
      </trkpt>
      <trkpt lat="50.0166" lon="4.2996">
        <ele>308.4</ele>
        <time>2024-05-04T10:18:15Z</time>
      </trkpt>
      <trkpt lat="50.01662" lon="4.29969">
        <ele>308.6</ele>
        <time>2024-05-04T10:18:16Z</time>
      </trkpt>
      <trkpt lat="50.01663" lon="4.29977">
        <ele>308.6</ele>
        <time>2024-05-04T10:18:17Z</time>
      </trkpt>
      <trkpt lat="50.01665" lon="4.29985">
        <ele>308.8</ele>
        <time>2024-05-04T10:18:18Z</time>
      </trkpt>
      <trkpt lat="50.01667" lon="4.29994">
        <ele>308.8</ele>
        <time>2024-05-04T10:18:19Z</time>
      </trkpt>
      <trkpt lat="50.01669" lon="4.30002">
        <ele>309</ele>
        <time>2024-05-04T10:18:20Z</time>
      </trkpt>
      <trkpt lat="50.01671" lon="4.30011">
        <ele>308.8</ele>
        <time>2024-05-04T10:18:21Z</time>
      </trkpt>
      <trkpt lat="50.01673" lon="4.30019">
        <ele>308.8</ele>
        <time>2024-05-04T10:18:22Z</time>
      </trkpt>
      <trkpt lat="50.01675" lon="4.30027">
        <ele>308.6</ele>
        <time>2024-05-04T10:18:23Z</time>
      </trkpt>
      <trkpt lat="50.01677" lon="4.30035">
        <ele>308.4</ele>
        <time>2024-05-04T10:18:24Z</time>
      </trkpt>
      <trkpt lat="50.01679" lon="4.30044">
        <ele>308.2</ele>
        <time>2024-05-04T10:18:25Z</time>
      </trkpt>
      <trkpt lat="50.01681" lon="4.30053">
        <ele>308.4</ele>
        <time>2024-05-04T10:18:26Z</time>
      </trkpt>
      <trkpt lat="50.01682" lon="4.30062">
        <ele>308.4</ele>
        <time>2024-05-04T10:18:27Z</time>
      </trkpt>
      <trkpt lat="50.01685" lon="4.30071">
        <ele>308.4</ele>
        <time>2024-05-04T10:18:28Z</time>
      </trkpt>
      <trkpt lat="50.01686" lon="4.30079">
        <ele>308.4</ele>
        <time>2024-05-04T10:18:29Z</time>
      </trkpt>
      <trkpt lat="50.01688" lon="4.30088">
        <ele>308.6</ele>
        <time>2024-05-04T10:18:30Z</time>
      </trkpt>
      <trkpt lat="50.0169" lon="4.30096">
        <ele>308.8</ele>
        <time>2024-05-04T10:18:31Z</time>
      </trkpt>
      <trkpt lat="50.01692" lon="4.30106">
        <ele>308.8</ele>
        <time>2024-05-04T10:18:32Z</time>
      </trkpt>
      <trkpt lat="50.01694" lon="4.30115">
        <ele>309</ele>
        <time>2024-05-04T10:18:33Z</time>
      </trkpt>
      <trkpt lat="50.01696" lon="4.30124">
        <ele>309.2</ele>
        <time>2024-05-04T10:18:34Z</time>
      </trkpt>
      <trkpt lat="50.01699" lon="4.30133">
        <ele>309.2</ele>
        <time>2024-05-04T10:18:35Z</time>
      </trkpt>
      <trkpt lat="50.01701" lon="4.30143">
        <ele>309.2</ele>
        <time>2024-05-04T10:18:36Z</time>
      </trkpt>
      <trkpt lat="50.01703" lon="4.30152">
        <ele>309.4</ele>
        <time>2024-05-04T10:18:37Z</time>
      </trkpt>
      <trkpt lat="50.01706" lon="4.30161">
        <ele>309.4</ele>
        <time>2024-05-04T10:18:38Z</time>
      </trkpt>
      <trkpt lat="50.01708" lon="4.3017">
        <ele>309.4</ele>
        <time>2024-05-04T10:18:39Z</time>
      </trkpt>
      <trkpt lat="50.0171" lon="4.30179">
        <ele>309.2</ele>
        <time>2024-05-04T10:18:40Z</time>
      </trkpt>
      <trkpt lat="50.01712" lon="4.30188">
        <ele>309.4</ele>
        <time>2024-05-04T10:18:41Z</time>
      </trkpt>
      <trkpt lat="50.01714" lon="4.30197">
        <ele>309.4</ele>
        <time>2024-05-04T10:18:42Z</time>
      </trkpt>
      <trkpt lat="50.01716" lon="4.30206">
        <ele>309.4</ele>
        <time>2024-05-04T10:18:43Z</time>
      </trkpt>
      <trkpt lat="50.01717" lon="4.30215">
        <ele>309.6</ele>
        <time>2024-05-04T10:18:44Z</time>
      </trkpt>
      <trkpt lat="50.01719" lon="4.30224">
        <ele>309.6</ele>
        <time>2024-05-04T10:18:45Z</time>
      </trkpt>
      <trkpt lat="50.01721" lon="4.30234">
        <ele>309.6</ele>
        <time>2024-05-04T10:18:46Z</time>
      </trkpt>
      <trkpt lat="50.01724" lon="4.30244">
        <ele>309.6</ele>
        <time>2024-05-04T10:18:47Z</time>
      </trkpt>
      <trkpt lat="50.01726" lon="4.30253">
        <ele>309.6</ele>
        <time>2024-05-04T10:18:48Z</time>
      </trkpt>
      <trkpt lat="50.01728" lon="4.30263">
        <ele>309.6</ele>
        <time>2024-05-04T10:18:49Z</time>
      </trkpt>
      <trkpt lat="50.0173" lon="4.30272">
        <ele>309.8</ele>
        <time>2024-05-04T10:18:50Z</time>
      </trkpt>
      <trkpt lat="50.01732" lon="4.30282">
        <ele>309.6</ele>
        <time>2024-05-04T10:18:51Z</time>
      </trkpt>
      <trkpt lat="50.01734" lon="4.30292">
        <ele>309.6</ele>
        <time>2024-05-04T10:18:52Z</time>
      </trkpt>
      <trkpt lat="50.01736" lon="4.30303">
        <ele>309.8</ele>
        <time>2024-05-04T10:18:53Z</time>
      </trkpt>
      <trkpt lat="50.01738" lon="4.30312">
        <ele>309.6</ele>
        <time>2024-05-04T10:18:54Z</time>
      </trkpt>
      <trkpt lat="50.0174" lon="4.30322">
        <ele>309.6</ele>
        <time>2024-05-04T10:18:55Z</time>
      </trkpt>
      <trkpt lat="50.01742" lon="4.30332">
        <ele>309.4</ele>
        <time>2024-05-04T10:18:56Z</time>
      </trkpt>
      <trkpt lat="50.01744" lon="4.30342">
        <ele>309.6</ele>
        <time>2024-05-04T10:18:57Z</time>
      </trkpt>
      <trkpt lat="50.01746" lon="4.30352">
        <ele>309.6</ele>
        <time>2024-05-04T10:18:58Z</time>
      </trkpt>
      <trkpt lat="50.01748" lon="4.30361">
        <ele>309.4</ele>
        <time>2024-05-04T10:18:59Z</time>
      </trkpt>
      <trkpt lat="50.01749" lon="4.3037">
        <ele>309.6</ele>
        <time>2024-05-04T10:19:00Z</time>
      </trkpt>
      <trkpt lat="50.01751" lon="4.30379">
        <ele>309.4</ele>
        <time>2024-05-04T10:19:01Z</time>
      </trkpt>
      <trkpt lat="50.01752" lon="4.30389">
        <ele>309.4</ele>
        <time>2024-05-04T10:19:02Z</time>
      </trkpt>
      <trkpt lat="50.01752" lon="4.304">
        <ele>309.4</ele>
        <time>2024-05-04T10:19:03Z</time>
      </trkpt>
      <trkpt lat="50.01751" lon="4.30411">
        <ele>309.2</ele>
        <time>2024-05-04T10:19:04Z</time>
      </trkpt>
      <trkpt lat="50.01749" lon="4.30423">
        <ele>309</ele>
        <time>2024-05-04T10:19:05Z</time>
      </trkpt>
      <trkpt lat="50.01747" lon="4.30435">
        <ele>308.8</ele>
        <time>2024-05-04T10:19:06Z</time>
      </trkpt>
      <trkpt lat="50.01745" lon="4.30447">
        <ele>308.8</ele>
        <time>2024-05-04T10:19:07Z</time>
      </trkpt>
      <trkpt lat="50.01742" lon="4.30458">
        <ele>308.6</ele>
        <time>2024-05-04T10:19:08Z</time>
      </trkpt>
      <trkpt lat="50.0174" lon="4.3047">
        <ele>308.6</ele>
        <time>2024-05-04T10:19:09Z</time>
      </trkpt>
      <trkpt lat="50.01737" lon="4.30481">
        <ele>308.6</ele>
        <time>2024-05-04T10:19:10Z</time>
      </trkpt>
      <trkpt lat="50.01735" lon="4.30492">
        <ele>308.4</ele>
        <time>2024-05-04T10:19:11Z</time>
      </trkpt>
      <trkpt lat="50.01733" lon="4.30504">
        <ele>308.2</ele>
        <time>2024-05-04T10:19:12Z</time>
      </trkpt>
      <trkpt lat="50.01731" lon="4.30515">
        <ele>307.8</ele>
        <time>2024-05-04T10:19:13Z</time>
      </trkpt>
      <trkpt lat="50.01728" lon="4.30527">
        <ele>307.6</ele>
        <time>2024-05-04T10:19:14Z</time>
      </trkpt>
      <trkpt lat="50.01726" lon="4.30538">
        <ele>307.2</ele>
        <time>2024-05-04T10:19:15Z</time>
      </trkpt>
      <trkpt lat="50.01723" lon="4.30549">
        <ele>307.2</ele>
        <time>2024-05-04T10:19:16Z</time>
      </trkpt>
      <trkpt lat="50.01722" lon="4.30561">
        <ele>307</ele>
        <time>2024-05-04T10:19:17Z</time>
      </trkpt>
      <trkpt lat="50.01719" lon="4.30572">
        <ele>307</ele>
        <time>2024-05-04T10:19:18Z</time>
      </trkpt>
      <trkpt lat="50.01718" lon="4.30584">
        <ele>306.8</ele>
        <time>2024-05-04T10:19:19Z</time>
      </trkpt>
      <trkpt lat="50.01716" lon="4.30595">
        <ele>306.8</ele>
        <time>2024-05-04T10:19:20Z</time>
      </trkpt>
      <trkpt lat="50.01713" lon="4.30607">
        <ele>306.6</ele>
        <time>2024-05-04T10:19:21Z</time>
      </trkpt>
      <trkpt lat="50.01711" lon="4.30618">
        <ele>306.4</ele>
        <time>2024-05-04T10:19:22Z</time>
      </trkpt>
      <trkpt lat="50.01709" lon="4.30629">
        <ele>306</ele>
        <time>2024-05-04T10:19:23Z</time>
      </trkpt>
      <trkpt lat="50.01706" lon="4.30641">
        <ele>306</ele>
        <time>2024-05-04T10:19:24Z</time>
      </trkpt>
      <trkpt lat="50.01704" lon="4.30652">
        <ele>305.8</ele>
        <time>2024-05-04T10:19:25Z</time>
      </trkpt>
      <trkpt lat="50.01702" lon="4.30664">
        <ele>305.6</ele>
        <time>2024-05-04T10:19:26Z</time>
      </trkpt>
      <trkpt lat="50.01699" lon="4.30675">
        <ele>305.6</ele>
        <time>2024-05-04T10:19:27Z</time>
      </trkpt>
      <trkpt lat="50.01696" lon="4.30687">
        <ele>305.4</ele>
        <time>2024-05-04T10:19:28Z</time>
      </trkpt>
      <trkpt lat="50.01694" lon="4.30699">
        <ele>305.4</ele>
        <time>2024-05-04T10:19:29Z</time>
      </trkpt>
      <trkpt lat="50.01692" lon="4.30711">
        <ele>305.2</ele>
        <time>2024-05-04T10:19:30Z</time>
      </trkpt>
      <trkpt lat="50.0169" lon="4.30723">
        <ele>305</ele>
        <time>2024-05-04T10:19:31Z</time>
      </trkpt>
      <trkpt lat="50.01688" lon="4.30734">
        <ele>304.8</ele>
        <time>2024-05-04T10:19:32Z</time>
      </trkpt>
      <trkpt lat="50.01686" lon="4.30746">
        <ele>304.6</ele>
        <time>2024-05-04T10:19:33Z</time>
      </trkpt>
      <trkpt lat="50.01683" lon="4.30758">
        <ele>304.6</ele>
        <time>2024-05-04T10:19:34Z</time>
      </trkpt>
      <trkpt lat="50.01681" lon="4.3077">
        <ele>304.4</ele>
        <time>2024-05-04T10:19:35Z</time>
      </trkpt>
      <trkpt lat="50.01679" lon="4.30781">
        <ele>304.4</ele>
        <time>2024-05-04T10:19:36Z</time>
      </trkpt>
      <trkpt lat="50.01677" lon="4.30793">
        <ele>304.4</ele>
        <time>2024-05-04T10:19:37Z</time>
      </trkpt>
      <trkpt lat="50.01674" lon="4.30805">
        <ele>304</ele>
        <time>2024-05-04T10:19:38Z</time>
      </trkpt>
      <trkpt lat="50.01672" lon="4.30817">
        <ele>304</ele>
        <time>2024-05-04T10:19:39Z</time>
      </trkpt>
      <trkpt lat="50.01669" lon="4.30828">
        <ele>303.4</ele>
        <time>2024-05-04T10:19:40Z</time>
      </trkpt>
      <trkpt lat="50.01667" lon="4.30839">
        <ele>303</ele>
        <time>2024-05-04T10:19:41Z</time>
      </trkpt>
      <trkpt lat="50.01665" lon="4.30851">
        <ele>302.8</ele>
        <time>2024-05-04T10:19:42Z</time>
      </trkpt>
      <trkpt lat="50.01663" lon="4.30862">
        <ele>302.6</ele>
        <time>2024-05-04T10:19:43Z</time>
      </trkpt>
      <trkpt lat="50.0166" lon="4.30872">
        <ele>302.6</ele>
        <time>2024-05-04T10:19:44Z</time>
      </trkpt>
      <trkpt lat="50.01659" lon="4.30882">
        <ele>302.4</ele>
        <time>2024-05-04T10:19:45Z</time>
      </trkpt>
      <trkpt lat="50.01657" lon="4.30892">
        <ele>302.6</ele>
        <time>2024-05-04T10:19:46Z</time>
      </trkpt>
      <trkpt lat="50.01655" lon="4.30901">
        <ele>302.4</ele>
        <time>2024-05-04T10:19:47Z</time>
      </trkpt>
      <trkpt lat="50.01653" lon="4.30911">
        <ele>302.4</ele>
        <time>2024-05-04T10:19:48Z</time>
      </trkpt>
      <trkpt lat="50.01651" lon="4.3092">
        <ele>302.6</ele>
        <time>2024-05-04T10:19:49Z</time>
      </trkpt>
      <trkpt lat="50.0165" lon="4.30929">
        <ele>302.4</ele>
        <time>2024-05-04T10:19:50Z</time>
      </trkpt>
      <trkpt lat="50.01648" lon="4.30937">
        <ele>302.4</ele>
        <time>2024-05-04T10:19:51Z</time>
      </trkpt>
      <trkpt lat="50.01646" lon="4.30946">
        <ele>302.6</ele>
        <time>2024-05-04T10:19:52Z</time>
      </trkpt>
      <trkpt lat="50.01644" lon="4.30954">
        <ele>303.2</ele>
        <time>2024-05-04T10:19:53Z</time>
      </trkpt>
      <trkpt lat="50.01642" lon="4.30963">
        <ele>303.4</ele>
        <time>2024-05-04T10:19:54Z</time>
      </trkpt>
      <trkpt lat="50.0164" lon="4.30971">
        <ele>303.4</ele>
        <time>2024-05-04T10:19:55Z</time>
      </trkpt>
      <trkpt lat="50.01638" lon="4.30979">
        <ele>303.8</ele>
        <time>2024-05-04T10:19:56Z</time>
      </trkpt>
      <trkpt lat="50.01636" lon="4.30987">
        <ele>304</ele>
        <time>2024-05-04T10:19:57Z</time>
      </trkpt>
      <trkpt lat="50.01635" lon="4.30996">
        <ele>304.2</ele>
        <time>2024-05-04T10:19:58Z</time>
      </trkpt>
      <trkpt lat="50.01633" lon="4.31004">
        <ele>304.4</ele>
        <time>2024-05-04T10:19:59Z</time>
      </trkpt>
      <trkpt lat="50.01631" lon="4.31012">
        <ele>304.8</ele>
        <time>2024-05-04T10:20:00Z</time>
      </trkpt>
      <trkpt lat="50.01629" lon="4.3102">
        <ele>305</ele>
        <time>2024-05-04T10:20:01Z</time>
      </trkpt>
      <trkpt lat="50.01627" lon="4.31029">
        <ele>305.6</ele>
        <time>2024-05-04T10:20:02Z</time>
      </trkpt>
      <trkpt lat="50.01625" lon="4.31037">
        <ele>305.8</ele>
        <time>2024-05-04T10:20:03Z</time>
      </trkpt>
      <trkpt lat="50.01623" lon="4.31045">
        <ele>306</ele>
        <time>2024-05-04T10:20:04Z</time>
      </trkpt>
      <trkpt lat="50.01621" lon="4.31054">
        <ele>306.2</ele>
        <time>2024-05-04T10:20:05Z</time>
      </trkpt>
      <trkpt lat="50.01619" lon="4.31062">
        <ele>306.2</ele>
        <time>2024-05-04T10:20:06Z</time>
      </trkpt>
      <trkpt lat="50.01618" lon="4.3107">
        <ele>306.6</ele>
        <time>2024-05-04T10:20:07Z</time>
      </trkpt>
      <trkpt lat="50.01615" lon="4.31078">
        <ele>307</ele>
        <time>2024-05-04T10:20:08Z</time>
      </trkpt>
      <trkpt lat="50.01614" lon="4.31086">
        <ele>307</ele>
        <time>2024-05-04T10:20:09Z</time>
      </trkpt>
      <trkpt lat="50.01612" lon="4.31095">
        <ele>307</ele>
        <time>2024-05-04T10:20:10Z</time>
      </trkpt>
      <trkpt lat="50.0161" lon="4.31103">
        <ele>307</ele>
        <time>2024-05-04T10:20:11Z</time>
      </trkpt>
      <trkpt lat="50.01608" lon="4.31111">
        <ele>307</ele>
        <time>2024-05-04T10:20:12Z</time>
      </trkpt>
      <trkpt lat="50.01606" lon="4.3112">
        <ele>307.2</ele>
        <time>2024-05-04T10:20:13Z</time>
      </trkpt>
      <trkpt lat="50.01605" lon="4.31128">
        <ele>307.2</ele>
        <time>2024-05-04T10:20:14Z</time>
      </trkpt>
      <trkpt lat="50.01603" lon="4.31136">
        <ele>307.2</ele>
        <time>2024-05-04T10:20:15Z</time>
      </trkpt>
      <trkpt lat="50.01602" lon="4.31144">
        <ele>307.4</ele>
        <time>2024-05-04T10:20:16Z</time>
      </trkpt>
      <trkpt lat="50.016" lon="4.31152">
        <ele>307.4</ele>
        <time>2024-05-04T10:20:17Z</time>
      </trkpt>
      <trkpt lat="50.01598" lon="4.3116">
        <ele>307.2</ele>
        <time>2024-05-04T10:20:18Z</time>
      </trkpt>
      <trkpt lat="50.01596" lon="4.31168">
        <ele>307.4</ele>
        <time>2024-05-04T10:20:19Z</time>
      </trkpt>
      <trkpt lat="50.01595" lon="4.31175">
        <ele>307.4</ele>
        <time>2024-05-04T10:20:20Z</time>
      </trkpt>
      <trkpt lat="50.01593" lon="4.31183">
        <ele>307.6</ele>
        <time>2024-05-04T10:20:21Z</time>
      </trkpt>
      <trkpt lat="50.01591" lon="4.31192">
        <ele>307.4</ele>
        <time>2024-05-04T10:20:22Z</time>
      </trkpt>
      <trkpt lat="50.0159" lon="4.312">
        <ele>307.8</ele>
        <time>2024-05-04T10:20:23Z</time>
      </trkpt>
      <trkpt lat="50.01588" lon="4.31208">
        <ele>308</ele>
        <time>2024-05-04T10:20:24Z</time>
      </trkpt>
      <trkpt lat="50.01586" lon="4.31216">
        <ele>308.2</ele>
        <time>2024-05-04T10:20:25Z</time>
      </trkpt>
      <trkpt lat="50.01584" lon="4.31225">
        <ele>308.4</ele>
        <time>2024-05-04T10:20:26Z</time>
      </trkpt>
      <trkpt lat="50.01583" lon="4.31232">
        <ele>308.6</ele>
        <time>2024-05-04T10:20:27Z</time>
      </trkpt>
      <trkpt lat="50.01582" lon="4.3124">
        <ele>308.6</ele>
        <time>2024-05-04T10:20:28Z</time>
      </trkpt>
      <trkpt lat="50.01581" lon="4.31248">
        <ele>308.6</ele>
        <time>2024-05-04T10:20:29Z</time>
      </trkpt>
      <trkpt lat="50.01581" lon="4.31255">
        <ele>309</ele>
        <time>2024-05-04T10:20:30Z</time>
      </trkpt>
      <trkpt lat="50.0158" lon="4.31262">
        <ele>310</ele>
        <time>2024-05-04T10:20:31Z</time>
      </trkpt>
      <trkpt lat="50.01581" lon="4.31269">
        <ele>310.2</ele>
        <time>2024-05-04T10:20:32Z</time>
      </trkpt>
      <trkpt lat="50.01583" lon="4.31275">
        <ele>310.4</ele>
        <time>2024-05-04T10:20:33Z</time>
      </trkpt>
      <trkpt lat="50.01585" lon="4.31281">
        <ele>310.6</ele>
        <time>2024-05-04T10:20:34Z</time>
      </trkpt>
      <trkpt lat="50.01588" lon="4.31286">
        <ele>310.8</ele>
        <time>2024-05-04T10:20:35Z</time>
      </trkpt>
      <trkpt lat="50.01591" lon="4.31291">
        <ele>310.8</ele>
        <time>2024-05-04T10:20:36Z</time>
      </trkpt>
      <trkpt lat="50.01595" lon="4.31295">
        <ele>311</ele>
        <time>2024-05-04T10:20:37Z</time>
      </trkpt>
      <trkpt lat="50.01599" lon="4.31298">
        <ele>311</ele>
        <time>2024-05-04T10:20:38Z</time>
      </trkpt>
      <trkpt lat="50.01604" lon="4.31303">
        <ele>311</ele>
        <time>2024-05-04T10:20:39Z</time>
      </trkpt>
      <trkpt lat="50.01609" lon="4.31308">
        <ele>311</ele>
        <time>2024-05-04T10:20:40Z</time>
      </trkpt>
      <trkpt lat="50.01614" lon="4.31312">
        <ele>310.8</ele>
        <time>2024-05-04T10:20:41Z</time>
      </trkpt>
      <trkpt lat="50.01619" lon="4.31317">
        <ele>310.8</ele>
        <time>2024-05-04T10:20:42Z</time>
      </trkpt>
      <trkpt lat="50.01624" lon="4.31323">
        <ele>310.6</ele>
        <time>2024-05-04T10:20:43Z</time>
      </trkpt>
      <trkpt lat="50.01629" lon="4.31328">
        <ele>310.6</ele>
        <time>2024-05-04T10:20:44Z</time>
      </trkpt>
      <trkpt lat="50.01634" lon="4.31334">
        <ele>310.6</ele>
        <time>2024-05-04T10:20:45Z</time>
      </trkpt>
      <trkpt lat="50.0164" lon="4.31339">
        <ele>310.6</ele>
        <time>2024-05-04T10:20:46Z</time>
      </trkpt>
      <trkpt lat="50.01646" lon="4.31343">
        <ele>310.4</ele>
        <time>2024-05-04T10:20:47Z</time>
      </trkpt>
      <trkpt lat="50.01652" lon="4.31348">
        <ele>310</ele>
        <time>2024-05-04T10:20:48Z</time>
      </trkpt>
      <trkpt lat="50.01657" lon="4.31352">
        <ele>309.8</ele>
        <time>2024-05-04T10:20:49Z</time>
      </trkpt>
      <trkpt lat="50.01664" lon="4.31356">
        <ele>309.4</ele>
        <time>2024-05-04T10:20:50Z</time>
      </trkpt>
      <trkpt lat="50.0167" lon="4.3136">
        <ele>309.4</ele>
        <time>2024-05-04T10:20:51Z</time>
      </trkpt>
      <trkpt lat="50.01676" lon="4.31363">
        <ele>309.2</ele>
        <time>2024-05-04T10:20:52Z</time>
      </trkpt>
      <trkpt lat="50.01683" lon="4.31365">
        <ele>308.8</ele>
        <time>2024-05-04T10:20:53Z</time>
      </trkpt>
      <trkpt lat="50.01689" lon="4.31368">
        <ele>308.6</ele>
        <time>2024-05-04T10:20:54Z</time>
      </trkpt>
      <trkpt lat="50.01696" lon="4.31371">
        <ele>308.4</ele>
        <time>2024-05-04T10:20:55Z</time>
      </trkpt>
      <trkpt lat="50.01702" lon="4.31374">
        <ele>308</ele>
        <time>2024-05-04T10:20:56Z</time>
      </trkpt>
      <trkpt lat="50.01709" lon="4.31378">
        <ele>307.8</ele>
        <time>2024-05-04T10:20:57Z</time>
      </trkpt>
      <trkpt lat="50.01715" lon="4.31382">
        <ele>307.8</ele>
        <time>2024-05-04T10:20:58Z</time>
      </trkpt>
      <trkpt lat="50.01722" lon="4.31386">
        <ele>307.6</ele>
        <time>2024-05-04T10:20:59Z</time>
      </trkpt>
      <trkpt lat="50.01728" lon="4.31391">
        <ele>307.6</ele>
        <time>2024-05-04T10:21:00Z</time>
      </trkpt>
      <trkpt lat="50.01735" lon="4.31396">
        <ele>307.2</ele>
        <time>2024-05-04T10:21:01Z</time>
      </trkpt>
      <trkpt lat="50.01741" lon="4.314">
        <ele>307.2</ele>
        <time>2024-05-04T10:21:02Z</time>
      </trkpt>
      <trkpt lat="50.01748" lon="4.31405">
        <ele>307</ele>
        <time>2024-05-04T10:21:03Z</time>
      </trkpt>
      <trkpt lat="50.01754" lon="4.31411">
        <ele>306.8</ele>
        <time>2024-05-04T10:21:04Z</time>
      </trkpt>
      <trkpt lat="50.0176" lon="4.31417">
        <ele>306.6</ele>
        <time>2024-05-04T10:21:05Z</time>
      </trkpt>
      <trkpt lat="50.01767" lon="4.31423">
        <ele>306.2</ele>
        <time>2024-05-04T10:21:06Z</time>
      </trkpt>
      <trkpt lat="50.01773" lon="4.31429">
        <ele>306.2</ele>
        <time>2024-05-04T10:21:07Z</time>
      </trkpt>
      <trkpt lat="50.0178" lon="4.31434">
        <ele>306</ele>
        <time>2024-05-04T10:21:08Z</time>
      </trkpt>
      <trkpt lat="50.01787" lon="4.31439">
        <ele>305.8</ele>
        <time>2024-05-04T10:21:09Z</time>
      </trkpt>
      <trkpt lat="50.01794" lon="4.31443">
        <ele>305.8</ele>
        <time>2024-05-04T10:21:10Z</time>
      </trkpt>
      <trkpt lat="50.01801" lon="4.31447">
        <ele>305.8</ele>
        <time>2024-05-04T10:21:11Z</time>
      </trkpt>
      <trkpt lat="50.01808" lon="4.31451">
        <ele>305.6</ele>
        <time>2024-05-04T10:21:12Z</time>
      </trkpt>
      <trkpt lat="50.01816" lon="4.31455">
        <ele>305</ele>
        <time>2024-05-04T10:21:13Z</time>
      </trkpt>
      <trkpt lat="50.01823" lon="4.31458">
        <ele>304.6</ele>
        <time>2024-05-04T10:21:14Z</time>
      </trkpt>
      <trkpt lat="50.01831" lon="4.31462">
        <ele>304.4</ele>
        <time>2024-05-04T10:21:15Z</time>
      </trkpt>
      <trkpt lat="50.01839" lon="4.31465">
        <ele>304.4</ele>
        <time>2024-05-04T10:21:16Z</time>
      </trkpt>
      <trkpt lat="50.01847" lon="4.31469">
        <ele>304</ele>
        <time>2024-05-04T10:21:17Z</time>
      </trkpt>
      <trkpt lat="50.01854" lon="4.31473">
        <ele>303.8</ele>
        <time>2024-05-04T10:21:18Z</time>
      </trkpt>
      <trkpt lat="50.01862" lon="4.31477">
        <ele>303.4</ele>
        <time>2024-05-04T10:21:19Z</time>
      </trkpt>
      <trkpt lat="50.0187" lon="4.3148">
        <ele>303</ele>
        <time>2024-05-04T10:21:20Z</time>
      </trkpt>
      <trkpt lat="50.01878" lon="4.31484">
        <ele>303</ele>
        <time>2024-05-04T10:21:21Z</time>
      </trkpt>
      <trkpt lat="50.01886" lon="4.31487">
        <ele>302.8</ele>
        <time>2024-05-04T10:21:22Z</time>
      </trkpt>
      <trkpt lat="50.01894" lon="4.3149">
        <ele>302.4</ele>
        <time>2024-05-04T10:21:23Z</time>
      </trkpt>
      <trkpt lat="50.01902" lon="4.31493">
        <ele>302</ele>
        <time>2024-05-04T10:21:24Z</time>
      </trkpt>
      <trkpt lat="50.0191" lon="4.31496">
        <ele>301.8</ele>
        <time>2024-05-04T10:21:25Z</time>
      </trkpt>
      <trkpt lat="50.01918" lon="4.31498">
        <ele>301.4</ele>
        <time>2024-05-04T10:21:26Z</time>
      </trkpt>
      <trkpt lat="50.01926" lon="4.31501">
        <ele>300.4</ele>
        <time>2024-05-04T10:21:27Z</time>
      </trkpt>
      <trkpt lat="50.01934" lon="4.31503">
        <ele>300.2</ele>
        <time>2024-05-04T10:21:28Z</time>
      </trkpt>
      <trkpt lat="50.01941" lon="4.31506">
        <ele>299.8</ele>
        <time>2024-05-04T10:21:29Z</time>
      </trkpt>
      <trkpt lat="50.01949" lon="4.31509">
        <ele>299</ele>
        <time>2024-05-04T10:21:30Z</time>
      </trkpt>
      <trkpt lat="50.01957" lon="4.31512">
        <ele>299</ele>
        <time>2024-05-04T10:21:31Z</time>
      </trkpt>
      <trkpt lat="50.01965" lon="4.31515">
        <ele>298.6</ele>
        <time>2024-05-04T10:21:32Z</time>
      </trkpt>
      <trkpt lat="50.01973" lon="4.31518">
        <ele>298.2</ele>
        <time>2024-05-04T10:21:33Z</time>
      </trkpt>
      <trkpt lat="50.01981" lon="4.3152">
        <ele>298</ele>
        <time>2024-05-04T10:21:34Z</time>
      </trkpt>
      <trkpt lat="50.01989" lon="4.31523">
        <ele>298</ele>
        <time>2024-05-04T10:21:35Z</time>
      </trkpt>
      <trkpt lat="50.01997" lon="4.31526">
        <ele>297.6</ele>
        <time>2024-05-04T10:21:36Z</time>
      </trkpt>
      <trkpt lat="50.02005" lon="4.31529">
        <ele>297.6</ele>
        <time>2024-05-04T10:21:37Z</time>
      </trkpt>
      <trkpt lat="50.02012" lon="4.31531">
        <ele>297.4</ele>
        <time>2024-05-04T10:21:38Z</time>
      </trkpt>
      <trkpt lat="50.0202" lon="4.31532">
        <ele>297.4</ele>
        <time>2024-05-04T10:21:39Z</time>
      </trkpt>
      <trkpt lat="50.02028" lon="4.31534">
        <ele>297.2</ele>
        <time>2024-05-04T10:21:40Z</time>
      </trkpt>
      <trkpt lat="50.02036" lon="4.31537">
        <ele>297</ele>
        <time>2024-05-04T10:21:41Z</time>
      </trkpt>
      <trkpt lat="50.02044" lon="4.3154">
        <ele>296.8</ele>
        <time>2024-05-04T10:21:42Z</time>
      </trkpt>
      <trkpt lat="50.02052" lon="4.31543">
        <ele>296.8</ele>
        <time>2024-05-04T10:21:43Z</time>
      </trkpt>
      <trkpt lat="50.0206" lon="4.31547">
        <ele>296.4</ele>
        <time>2024-05-04T10:21:44Z</time>
      </trkpt>
      <trkpt lat="50.02068" lon="4.3155">
        <ele>296.4</ele>
        <time>2024-05-04T10:21:45Z</time>
      </trkpt>
      <trkpt lat="50.02075" lon="4.31554">
        <ele>296</ele>
        <time>2024-05-04T10:21:46Z</time>
      </trkpt>
      <trkpt lat="50.02083" lon="4.31558">
        <ele>295.8</ele>
        <time>2024-05-04T10:21:47Z</time>
      </trkpt>
      <trkpt lat="50.02091" lon="4.31562">
        <ele>295.2</ele>
        <time>2024-05-04T10:21:48Z</time>
      </trkpt>
      <trkpt lat="50.02099" lon="4.31565">
        <ele>295.2</ele>
        <time>2024-05-04T10:21:49Z</time>
      </trkpt>
      <trkpt lat="50.02107" lon="4.31569">
        <ele>295</ele>
        <time>2024-05-04T10:21:50Z</time>
      </trkpt>
      <trkpt lat="50.02116" lon="4.31574">
        <ele>294.4</ele>
        <time>2024-05-04T10:21:51Z</time>
      </trkpt>
      <trkpt lat="50.02124" lon="4.31579">
        <ele>294.2</ele>
        <time>2024-05-04T10:21:52Z</time>
      </trkpt>
      <trkpt lat="50.02132" lon="4.31582">
        <ele>294</ele>
        <time>2024-05-04T10:21:53Z</time>
      </trkpt>
      <trkpt lat="50.02141" lon="4.31586">
        <ele>293.8</ele>
        <time>2024-05-04T10:21:54Z</time>
      </trkpt>
      <trkpt lat="50.0215" lon="4.3159">
        <ele>293.6</ele>
        <time>2024-05-04T10:21:55Z</time>
      </trkpt>
      <trkpt lat="50.02158" lon="4.31594">
        <ele>293.4</ele>
        <time>2024-05-04T10:21:56Z</time>
      </trkpt>
      <trkpt lat="50.02167" lon="4.31598">
        <ele>293.2</ele>
        <time>2024-05-04T10:21:57Z</time>
      </trkpt>
      <trkpt lat="50.02175" lon="4.31603">
        <ele>293</ele>
        <time>2024-05-04T10:21:58Z</time>
      </trkpt>
      <trkpt lat="50.02183" lon="4.31609">
        <ele>292.6</ele>
        <time>2024-05-04T10:21:59Z</time>
      </trkpt>
      <trkpt lat="50.02191" lon="4.31617">
        <ele>292.4</ele>
        <time>2024-05-04T10:22:00Z</time>
      </trkpt>
      <trkpt lat="50.02198" lon="4.31625">
        <ele>291.6</ele>
        <time>2024-05-04T10:22:01Z</time>
      </trkpt>
      <trkpt lat="50.02205" lon="4.31635">
        <ele>291</ele>
        <time>2024-05-04T10:22:02Z</time>
      </trkpt>
      <trkpt lat="50.02211" lon="4.31645">
        <ele>290.4</ele>
        <time>2024-05-04T10:22:03Z</time>
      </trkpt>
      <trkpt lat="50.02217" lon="4.31655">
        <ele>290.4</ele>
        <time>2024-05-04T10:22:04Z</time>
      </trkpt>
      <trkpt lat="50.02222" lon="4.31667">
        <ele>290</ele>
        <time>2024-05-04T10:22:05Z</time>
      </trkpt>
      <trkpt lat="50.02227" lon="4.31678">
        <ele>290</ele>
        <time>2024-05-04T10:22:06Z</time>
      </trkpt>
      <trkpt lat="50.02232" lon="4.3169">
        <ele>289.8</ele>
        <time>2024-05-04T10:22:07Z</time>
      </trkpt>
      <trkpt lat="50.02237" lon="4.31702">
        <ele>289.8</ele>
        <time>2024-05-04T10:22:08Z</time>
      </trkpt>
      <trkpt lat="50.02242" lon="4.31714">
        <ele>289.6</ele>
        <time>2024-05-04T10:22:09Z</time>
      </trkpt>
      <trkpt lat="50.02248" lon="4.31726">
        <ele>289.4</ele>
        <time>2024-05-04T10:22:10Z</time>
      </trkpt>
      <trkpt lat="50.02253" lon="4.31739">
        <ele>289</ele>
        <time>2024-05-04T10:22:11Z</time>
      </trkpt>
      <trkpt lat="50.02259" lon="4.31752">
        <ele>288.8</ele>
        <time>2024-05-04T10:22:12Z</time>
      </trkpt>
      <trkpt lat="50.02265" lon="4.31764">
        <ele>288.2</ele>
        <time>2024-05-04T10:22:13Z</time>
      </trkpt>
      <trkpt lat="50.02271" lon="4.31777">
        <ele>288</ele>
        <time>2024-05-04T10:22:14Z</time>
      </trkpt>
      <trkpt lat="50.02277" lon="4.31789">
        <ele>287.8</ele>
        <time>2024-05-04T10:22:15Z</time>
      </trkpt>
      <trkpt lat="50.02283" lon="4.318">
        <ele>287.2</ele>
        <time>2024-05-04T10:22:16Z</time>
      </trkpt>
      <trkpt lat="50.02289" lon="4.31811">
        <ele>286.2</ele>
        <time>2024-05-04T10:22:17Z</time>
      </trkpt>
      <trkpt lat="50.02295" lon="4.31821">
        <ele>285.4</ele>
        <time>2024-05-04T10:22:18Z</time>
      </trkpt>
      <trkpt lat="50.02301" lon="4.31831">
        <ele>285</ele>
        <time>2024-05-04T10:22:19Z</time>
      </trkpt>
      <trkpt lat="50.02306" lon="4.31841">
        <ele>284.8</ele>
        <time>2024-05-04T10:22:20Z</time>
      </trkpt>
      <trkpt lat="50.02311" lon="4.31852">
        <ele>283.8</ele>
        <time>2024-05-04T10:22:21Z</time>
      </trkpt>
      <trkpt lat="50.02317" lon="4.31863">
        <ele>283</ele>
        <time>2024-05-04T10:22:22Z</time>
      </trkpt>
      <trkpt lat="50.02322" lon="4.31874">
        <ele>283</ele>
        <time>2024-05-04T10:22:23Z</time>
      </trkpt>
      <trkpt lat="50.02328" lon="4.31885">
        <ele>282</ele>
        <time>2024-05-04T10:22:24Z</time>
      </trkpt>
      <trkpt lat="50.02334" lon="4.31896">
        <ele>281.6</ele>
        <time>2024-05-04T10:22:25Z</time>
      </trkpt>
      <trkpt lat="50.02339" lon="4.31907">
        <ele>280.8</ele>
        <time>2024-05-04T10:22:26Z</time>
      </trkpt>
      <trkpt lat="50.02345" lon="4.31919">
        <ele>280.2</ele>
        <time>2024-05-04T10:22:27Z</time>
      </trkpt>
      <trkpt lat="50.0235" lon="4.31932">
        <ele>279.4</ele>
        <time>2024-05-04T10:22:28Z</time>
      </trkpt>
      <trkpt lat="50.02355" lon="4.31944">
        <ele>278.4</ele>
        <time>2024-05-04T10:22:29Z</time>
      </trkpt>
      <trkpt lat="50.02359" lon="4.31956">
        <ele>278.2</ele>
        <time>2024-05-04T10:22:30Z</time>
      </trkpt>
      <trkpt lat="50.02364" lon="4.31969">
        <ele>277.8</ele>
        <time>2024-05-04T10:22:31Z</time>
      </trkpt>
      <trkpt lat="50.02369" lon="4.31982">
        <ele>276.4</ele>
        <time>2024-05-04T10:22:32Z</time>
      </trkpt>
      <trkpt lat="50.02373" lon="4.31995">
        <ele>275.8</ele>
        <time>2024-05-04T10:22:33Z</time>
      </trkpt>
      <trkpt lat="50.02378" lon="4.32007">
        <ele>275.4</ele>
        <time>2024-05-04T10:22:34Z</time>
      </trkpt>
      <trkpt lat="50.02382" lon="4.32019">
        <ele>275.2</ele>
        <time>2024-05-04T10:22:35Z</time>
      </trkpt>
      <trkpt lat="50.02386" lon="4.32031">
        <ele>274.8</ele>
        <time>2024-05-04T10:22:36Z</time>
      </trkpt>
      <trkpt lat="50.02389" lon="4.32042">
        <ele>274</ele>
        <time>2024-05-04T10:22:37Z</time>
      </trkpt>
      <trkpt lat="50.02392" lon="4.32051">
        <ele>273.8</ele>
        <time>2024-05-04T10:22:38Z</time>
      </trkpt>
      <trkpt lat="50.02395" lon="4.32059">
        <ele>273.8</ele>
        <time>2024-05-04T10:22:39Z</time>
      </trkpt>
      <trkpt lat="50.02396" lon="4.32067">
        <ele>273.4</ele>
        <time>2024-05-04T10:22:40Z</time>
      </trkpt>
      <trkpt lat="50.02396" lon="4.32074">
        <ele>273.2</ele>
        <time>2024-05-04T10:22:41Z</time>
      </trkpt>
      <trkpt lat="50.02393" lon="4.32082">
        <ele>272.8</ele>
        <time>2024-05-04T10:22:42Z</time>
      </trkpt>
      <trkpt lat="50.02389" lon="4.32089">
        <ele>271.4</ele>
        <time>2024-05-04T10:22:43Z</time>
      </trkpt>
      <trkpt lat="50.02383" lon="4.32094">
        <ele>270.4</ele>
        <time>2024-05-04T10:22:44Z</time>
      </trkpt>
      <trkpt lat="50.02377" lon="4.32097">
        <ele>269.8</ele>
        <time>2024-05-04T10:22:45Z</time>
      </trkpt>
      <trkpt lat="50.02371" lon="4.32099">
        <ele>269.2</ele>
        <time>2024-05-04T10:22:46Z</time>
      </trkpt>
      <trkpt lat="50.02364" lon="4.32102">
        <ele>268.8</ele>
        <time>2024-05-04T10:22:47Z</time>
      </trkpt>
      <trkpt lat="50.02358" lon="4.32105">
        <ele>268.4</ele>
        <time>2024-05-04T10:22:48Z</time>
      </trkpt>
      <trkpt lat="50.02352" lon="4.32108">
        <ele>268.2</ele>
        <time>2024-05-04T10:22:49Z</time>
      </trkpt>
      <trkpt lat="50.02345" lon="4.3211">
        <ele>267.8</ele>
        <time>2024-05-04T10:22:50Z</time>
      </trkpt>
      <trkpt lat="50.02339" lon="4.32112">
        <ele>267.2</ele>
        <time>2024-05-04T10:22:51Z</time>
      </trkpt>
      <trkpt lat="50.02333" lon="4.32115">
        <ele>266.6</ele>
        <time>2024-05-04T10:22:52Z</time>
      </trkpt>
      <trkpt lat="50.02326" lon="4.32118">
        <ele>265.8</ele>
        <time>2024-05-04T10:22:53Z</time>
      </trkpt>
      <trkpt lat="50.0232" lon="4.32121">
        <ele>265.4</ele>
        <time>2024-05-04T10:22:54Z</time>
      </trkpt>
      <trkpt lat="50.02314" lon="4.32124">
        <ele>265.4</ele>
        <time>2024-05-04T10:22:55Z</time>
      </trkpt>
      <trkpt lat="50.02308" lon="4.32127">
        <ele>265</ele>
        <time>2024-05-04T10:22:56Z</time>
      </trkpt>
      <trkpt lat="50.02303" lon="4.32128">
        <ele>264.2</ele>
        <time>2024-05-04T10:22:57Z</time>
      </trkpt>
      <trkpt lat="50.02298" lon="4.32128">
        <ele>264</ele>
        <time>2024-05-04T10:22:58Z</time>
      </trkpt>
      <trkpt lat="50.02295" lon="4.32125">
        <ele>263.8</ele>
        <time>2024-05-04T10:22:59Z</time>
      </trkpt>
      <trkpt lat="50.02292" lon="4.32121">
        <ele>263.6</ele>
        <time>2024-05-04T10:23:00Z</time>
      </trkpt>
      <trkpt lat="50.0229" lon="4.32117">
        <ele>263.8</ele>
        <time>2024-05-04T10:23:01Z</time>
      </trkpt>
      <trkpt lat="50.02287" lon="4.32111">
        <ele>263.6</ele>
        <time>2024-05-04T10:23:02Z</time>
      </trkpt>
      <trkpt lat="50.02288" lon="4.32105">
        <ele>263.6</ele>
        <time>2024-05-04T10:23:06Z</time>
      </trkpt>
      <trkpt lat="50.02288" lon="4.32105">
        <ele>263.6</ele>
        <time>2024-05-04T10:23:07Z</time>
      </trkpt>
      <trkpt lat="50.02294" lon="4.32085">
        <ele>266.8</ele>
        <time>2024-05-04T10:23:41Z</time>
      </trkpt>
      <trkpt lat="50.02296" lon="4.32082">
        <ele>267</ele>
        <time>2024-05-04T10:23:42Z</time>
      </trkpt>
      <trkpt lat="50.02297" lon="4.32079">
        <ele>267</ele>
        <time>2024-05-04T10:23:43Z</time>
      </trkpt>
      <trkpt lat="50.02298" lon="4.32077">
        <ele>267</ele>
        <time>2024-05-04T10:23:44Z</time>
      </trkpt>
      <trkpt lat="50.02299" lon="4.32076">
        <ele>266.8</ele>
        <time>2024-05-04T10:23:45Z</time>
      </trkpt>
      <trkpt lat="50.023" lon="4.32075">
        <ele>267</ele>
        <time>2024-05-04T10:23:46Z</time>
      </trkpt>
      <trkpt lat="50.02301" lon="4.32074">
        <ele>267</ele>
        <time>2024-05-04T10:23:47Z</time>
      </trkpt>
      <trkpt lat="50.02301" lon="4.32074">
        <ele>266.8</ele>
        <time>2024-05-04T10:23:48Z</time>
      </trkpt>
      <trkpt lat="50.02302" lon="4.32074">
        <ele>267</ele>
        <time>2024-05-04T10:23:49Z</time>
      </trkpt>
    </trkseg>
  </trk>
</gpx>